<?xml version='1.0' encoding='UTF-8'?><gpx version="1.1" creator="JPX - https://github.com/jenetics/jpx" xmlns="http://www.topografix.com/GPX/1/1"><trk><trkseg><trkpt lat="43.8106693" lon="12.6936918"><ele>249.0</ele><time>2026-05-03T07:23:50.524Z</time></trkpt><trkpt lat="43.8107702" lon="12.693657"><ele>248.99999999999997</ele><time>2026-05-03T07:23:57.523Z</time></trkpt><trkpt lat="43.8108479" lon="12.6937028"><ele>248.99999999999997</ele><time>2026-05-03T07:23:59.522Z</time></trkpt><trkpt lat="43.8108798" lon="12.6938123"><ele>249.0</ele><time>2026-05-03T07:24:01.523Z</time></trkpt><trkpt lat="43.8108463" lon="12.6939176"><ele>249.0</ele><time>2026-05-03T07:24:03.523Z</time></trkpt><trkpt lat="43.8107624" lon="12.6939817"><ele>249.0</ele><time>2026-05-03T07:24:04.523Z</time></trkpt><trkpt lat="43.8106973" lon="12.6940464"><ele>249.0</ele><time>2026-05-03T07:24:05.524Z</time></trkpt><trkpt lat="43.8105929" lon="12.6941374"><ele>249.0</ele><time>2026-05-03T07:24:07.523Z</time></trkpt><trkpt lat="43.810533" lon="12.6941954"><ele>249.0</ele><time>2026-05-03T07:24:08.523Z</time></trkpt><trkpt lat="43.8104602" lon="12.6942658"><ele>249.0</ele><time>2026-05-03T07:24:10.523Z</time></trkpt><trkpt lat="43.8103972" lon="12.6942376"><ele>249.0</ele><time>2026-05-03T07:24:13.52Z</time></trkpt><trkpt lat="43.8103221" lon="12.6941022"><ele>249.0</ele><time>2026-05-03T07:24:16.526Z</time></trkpt><trkpt lat="43.8102898" lon="12.693972"><ele>249.0</ele><time>2026-05-03T07:24:17.524Z</time></trkpt><trkpt lat="43.8102322" lon="12.69371"><ele>249.0</ele><time>2026-05-03T07:24:18.523Z</time></trkpt><trkpt lat="43.8101872" lon="12.6935453"><ele>249.0</ele><time>2026-05-03T07:24:19.524Z</time></trkpt><trkpt lat="43.8101099" lon="12.6933257"><ele>244.66666666666669</ele><time>2026-05-03T07:24:20.523Z</time></trkpt><trkpt lat="43.8100503" lon="12.6931336"><ele>240.33333333333334</ele><time>2026-05-03T07:24:21.523Z</time></trkpt><trkpt lat="43.809981" lon="12.6929337"><ele>236.0</ele><time>2026-05-03T07:24:22.523Z</time></trkpt><trkpt lat="43.8099144" lon="12.6927337"><ele>234.5</ele><time>2026-05-03T07:24:23.523Z</time></trkpt><trkpt lat="43.8098317" lon="12.6925545"><ele>233.0</ele><time>2026-05-03T07:24:24.522Z</time></trkpt><trkpt lat="43.8097426" lon="12.6924027"><ele>231.5</ele><time>2026-05-03T07:24:25.524Z</time></trkpt><trkpt lat="43.8096368" lon="12.6922752"><ele>230.0</ele><time>2026-05-03T07:24:26.524Z</time></trkpt><trkpt lat="43.8095442" lon="12.692162"><ele>230.0</ele><time>2026-05-03T07:24:27.522Z</time></trkpt><trkpt lat="43.8094511" lon="12.6920445"><ele>230.0</ele><time>2026-05-03T07:24:28.524Z</time></trkpt><trkpt lat="43.8093702" lon="12.6919459"><ele>230.0</ele><time>2026-05-03T07:24:29.524Z</time></trkpt><trkpt lat="43.8093041" lon="12.6918413"><ele>230.0</ele><time>2026-05-03T07:24:30.523Z</time></trkpt><trkpt lat="43.8092434" lon="12.6917427"><ele>230.0</ele><time>2026-05-03T07:24:31.524Z</time></trkpt><trkpt lat="43.8091855" lon="12.6916465"><ele>230.00000000000003</ele><time>2026-05-03T07:24:32.523Z</time></trkpt><trkpt lat="43.8091447" lon="12.6915519"><ele>230.0</ele><time>2026-05-03T07:24:33.524Z</time></trkpt><trkpt lat="43.8090961" lon="12.6914516"><ele>230.0</ele><time>2026-05-03T07:24:34.523Z</time></trkpt><trkpt lat="43.8090509" lon="12.6913523"><ele>230.0</ele><time>2026-05-03T07:24:35.523Z</time></trkpt><trkpt lat="43.8089977" lon="12.6912552"><ele>230.00000000000003</ele><time>2026-05-03T07:24:36.523Z</time></trkpt><trkpt lat="43.8089521" lon="12.6911389"><ele>230.0</ele><time>2026-05-03T07:24:37.525Z</time></trkpt><trkpt lat="43.8089063" lon="12.6910107"><ele>230.2</ele><time>2026-05-03T07:24:38.524Z</time></trkpt><trkpt lat="43.8088621" lon="12.6908707"><ele>230.4</ele><time>2026-05-03T07:24:39.524Z</time></trkpt><trkpt lat="43.8088194" lon="12.69073"><ele>230.60000000000002</ele><time>2026-05-03T07:24:40.526Z</time></trkpt><trkpt lat="43.8087911" lon="12.6905849"><ele>230.8</ele><time>2026-05-03T07:24:41.523Z</time></trkpt><trkpt lat="43.8087607" lon="12.6904385"><ele>231.0</ele><time>2026-05-03T07:24:42.524Z</time></trkpt><trkpt lat="43.808736" lon="12.6902959"><ele>230.20000000000002</ele><time>2026-05-03T07:24:43.523Z</time></trkpt><trkpt lat="43.808727" lon="12.6901492"><ele>229.40000000000003</ele><time>2026-05-03T07:24:44.522Z</time></trkpt><trkpt lat="43.8087004" lon="12.6900115"><ele>228.6</ele><time>2026-05-03T07:24:45.524Z</time></trkpt><trkpt lat="43.808675" lon="12.6898737"><ele>227.8</ele><time>2026-05-03T07:24:46.523Z</time></trkpt><trkpt lat="43.8086507" lon="12.6897479"><ele>227.0</ele><time>2026-05-03T07:24:47.522Z</time></trkpt><trkpt lat="43.8086217" lon="12.6896123"><ele>227.0</ele><time>2026-05-03T07:24:48.524Z</time></trkpt><trkpt lat="43.8085676" lon="12.6895059"><ele>227.0</ele><time>2026-05-03T07:24:49.524Z</time></trkpt><trkpt lat="43.8085404" lon="12.6893532"><ele>227.0</ele><time>2026-05-03T07:24:50.522Z</time></trkpt><trkpt lat="43.8085056" lon="12.689195"><ele>227.0</ele><time>2026-05-03T07:24:51.526Z</time></trkpt><trkpt lat="43.8084546" lon="12.689045"><ele>227.0</ele><time>2026-05-03T07:24:52.524Z</time></trkpt><trkpt lat="43.8083899" lon="12.6888507"><ele>228.0</ele><time>2026-05-03T07:24:53.525Z</time></trkpt><trkpt lat="43.8083326" lon="12.6886591"><ele>229.0</ele><time>2026-05-03T07:24:54.524Z</time></trkpt><trkpt lat="43.8082715" lon="12.6884709"><ele>230.0</ele><time>2026-05-03T07:24:55.524Z</time></trkpt><trkpt lat="43.8082116" lon="12.688304"><ele>231.0</ele><time>2026-05-03T07:24:56.525Z</time></trkpt><trkpt lat="43.8081435" lon="12.6881363"><ele>231.0</ele><time>2026-05-03T07:24:57.523Z</time></trkpt><trkpt lat="43.8080765" lon="12.6879631"><ele>231.0</ele><time>2026-05-03T07:24:58.521Z</time></trkpt><trkpt lat="43.8080265" lon="12.6877853"><ele>231.0</ele><time>2026-05-03T07:24:59.524Z</time></trkpt><trkpt lat="43.8079805" lon="12.6876034"><ele>231.0</ele><time>2026-05-03T07:25:00.525Z</time></trkpt><trkpt lat="43.8079345" lon="12.6874159"><ele>230.25</ele><time>2026-05-03T07:25:01.525Z</time></trkpt><trkpt lat="43.8078861" lon="12.6872237"><ele>229.5</ele><time>2026-05-03T07:25:02.525Z</time></trkpt><trkpt lat="43.8078593" lon="12.6870086"><ele>228.75</ele><time>2026-05-03T07:25:03.523Z</time></trkpt><trkpt lat="43.8078212" lon="12.6868194"><ele>228.0</ele><time>2026-05-03T07:25:04.524Z</time></trkpt><trkpt lat="43.8077763" lon="12.6866196"><ele>227.75</ele><time>2026-05-03T07:25:05.523Z</time></trkpt><trkpt lat="43.807723" lon="12.6864398"><ele>227.5</ele><time>2026-05-03T07:25:06.518Z</time></trkpt><trkpt lat="43.8076642" lon="12.6862598"><ele>227.25</ele><time>2026-05-03T07:25:07.518Z</time></trkpt><trkpt lat="43.807571" lon="12.6861102"><ele>227.0</ele><time>2026-05-03T07:25:08.522Z</time></trkpt><trkpt lat="43.8074663" lon="12.6859656"><ele>228.66666666666669</ele><time>2026-05-03T07:25:09.521Z</time></trkpt><trkpt lat="43.8073666" lon="12.6858255"><ele>230.33333333333331</ele><time>2026-05-03T07:25:10.524Z</time></trkpt><trkpt lat="43.8072138" lon="12.6856833"><ele>232.0</ele><time>2026-05-03T07:25:11.524Z</time></trkpt><trkpt lat="43.8070574" lon="12.6855301"><ele>232.0</ele><time>2026-05-03T07:25:12.523Z</time></trkpt><trkpt lat="43.806903" lon="12.6853603"><ele>232.0</ele><time>2026-05-03T07:25:13.523Z</time></trkpt><trkpt lat="43.8067515" lon="12.6851464"><ele>232.0</ele><time>2026-05-03T07:25:14.522Z</time></trkpt><trkpt lat="43.806576" lon="12.6849487"><ele>228.0</ele><time>2026-05-03T07:25:15.523Z</time></trkpt><trkpt lat="43.8064009" lon="12.684761"><ele>224.0</ele><time>2026-05-03T07:25:16.523Z</time></trkpt><trkpt lat="43.8062286" lon="12.6846073"><ele>220.0</ele><time>2026-05-03T07:25:17.524Z</time></trkpt><trkpt lat="43.8060788" lon="12.6844285"><ele>216.66666666666666</ele><time>2026-05-03T07:25:18.523Z</time></trkpt><trkpt lat="43.8059149" lon="12.6842643"><ele>213.33333333333331</ele><time>2026-05-03T07:25:19.523Z</time></trkpt><trkpt lat="43.8057641" lon="12.684084"><ele>210.0</ele><time>2026-05-03T07:25:20.522Z</time></trkpt><trkpt lat="43.8056268" lon="12.6838826"><ele>210.0</ele><time>2026-05-03T07:25:21.523Z</time></trkpt><trkpt lat="43.8055001" lon="12.6836821"><ele>210.0</ele><time>2026-05-03T07:25:22.523Z</time></trkpt><trkpt lat="43.8053695" lon="12.683487"><ele>210.0</ele><time>2026-05-03T07:25:23.525Z</time></trkpt><trkpt lat="43.8052278" lon="12.6832962"><ele>210.0</ele><time>2026-05-03T07:25:24.524Z</time></trkpt><trkpt lat="43.8050871" lon="12.683122"><ele>210.0</ele><time>2026-05-03T07:25:25.524Z</time></trkpt><trkpt lat="43.804941" lon="12.6829236"><ele>210.0</ele><time>2026-05-03T07:25:26.524Z</time></trkpt><trkpt lat="43.804789" lon="12.6827627"><ele>210.66666666666669</ele><time>2026-05-03T07:25:27.523Z</time></trkpt><trkpt lat="43.8046467" lon="12.682581"><ele>211.33333333333334</ele><time>2026-05-03T07:25:28.523Z</time></trkpt><trkpt lat="43.8045017" lon="12.6824078"><ele>212.0</ele><time>2026-05-03T07:25:29.518Z</time></trkpt><trkpt lat="43.8043496" lon="12.6822484"><ele>211.33333333333334</ele><time>2026-05-03T07:25:30.523Z</time></trkpt><trkpt lat="43.8042125" lon="12.6821001"><ele>210.66666666666669</ele><time>2026-05-03T07:25:31.523Z</time></trkpt><trkpt lat="43.8040721" lon="12.6819489"><ele>210.0</ele><time>2026-05-03T07:25:32.523Z</time></trkpt><trkpt lat="43.8039431" lon="12.6818505"><ele>211.25</ele><time>2026-05-03T07:25:33.523Z</time></trkpt><trkpt lat="43.8038109" lon="12.6817306"><ele>212.5</ele><time>2026-05-03T07:25:34.521Z</time></trkpt><trkpt lat="43.8036847" lon="12.6816501"><ele>213.75</ele><time>2026-05-03T07:25:35.524Z</time></trkpt><trkpt lat="43.8036139" lon="12.6815802"><ele>215.0</ele><time>2026-05-03T07:25:36.524Z</time></trkpt><trkpt lat="43.8035229" lon="12.6814607"><ele>214.75</ele><time>2026-05-03T07:25:37.524Z</time></trkpt><trkpt lat="43.8034719" lon="12.6813307"><ele>214.5</ele><time>2026-05-03T07:25:38.524Z</time></trkpt><trkpt lat="43.8034106" lon="12.6811977"><ele>214.25</ele><time>2026-05-03T07:25:39.526Z</time></trkpt><trkpt lat="43.8033453" lon="12.6810567"><ele>214.0</ele><time>2026-05-03T07:25:40.523Z</time></trkpt><trkpt lat="43.8032719" lon="12.6809078"><ele>213.5</ele><time>2026-05-03T07:25:41.525Z</time></trkpt><trkpt lat="43.8031962" lon="12.6807479"><ele>213.0</ele><time>2026-05-03T07:25:42.519Z</time></trkpt><trkpt lat="43.8031299" lon="12.6805864"><ele>212.5</ele><time>2026-05-03T07:25:43.524Z</time></trkpt><trkpt lat="43.8030562" lon="12.680431"><ele>212.0</ele><time>2026-05-03T07:25:44.522Z</time></trkpt><trkpt lat="43.8029775" lon="12.6802891"><ele>208.75</ele><time>2026-05-03T07:25:45.524Z</time></trkpt><trkpt lat="43.8029017" lon="12.6801386"><ele>205.5</ele><time>2026-05-03T07:25:46.523Z</time></trkpt><trkpt lat="43.8028312" lon="12.6799858"><ele>202.25</ele><time>2026-05-03T07:25:47.524Z</time></trkpt><trkpt lat="43.8027693" lon="12.679814"><ele>199.0</ele><time>2026-05-03T07:25:48.524Z</time></trkpt><trkpt lat="43.8027208" lon="12.67963"><ele>199.0</ele><time>2026-05-03T07:25:49.523Z</time></trkpt><trkpt lat="43.8026715" lon="12.6794424"><ele>199.0</ele><time>2026-05-03T07:25:50.522Z</time></trkpt><trkpt lat="43.8026249" lon="12.6792468"><ele>199.0</ele><time>2026-05-03T07:25:51.524Z</time></trkpt><trkpt lat="43.8025763" lon="12.6790571"><ele>199.0</ele><time>2026-05-03T07:25:52.524Z</time></trkpt><trkpt lat="43.8025281" lon="12.6788587"><ele>200.0</ele><time>2026-05-03T07:25:53.521Z</time></trkpt><trkpt lat="43.8024752" lon="12.6786714"><ele>201.0</ele><time>2026-05-03T07:25:54.523Z</time></trkpt><trkpt lat="43.8024302" lon="12.6784871"><ele>202.0</ele><time>2026-05-03T07:25:55.523Z</time></trkpt><trkpt lat="43.8023847" lon="12.6783007"><ele>203.0</ele><time>2026-05-03T07:25:56.524Z</time></trkpt><trkpt lat="43.802345" lon="12.6781264"><ele>199.5</ele><time>2026-05-03T07:25:57.524Z</time></trkpt><trkpt lat="43.8022893" lon="12.6779538"><ele>196.0</ele><time>2026-05-03T07:25:58.524Z</time></trkpt><trkpt lat="43.8022191" lon="12.6777813"><ele>192.5</ele><time>2026-05-03T07:25:59.523Z</time></trkpt><trkpt lat="43.8021514" lon="12.6776048"><ele>189.0</ele><time>2026-05-03T07:26:00.526Z</time></trkpt><trkpt lat="43.8020726" lon="12.6774442"><ele>189.66666666666666</ele><time>2026-05-03T07:26:01.524Z</time></trkpt><trkpt lat="43.8019773" lon="12.6772906"><ele>190.33333333333331</ele><time>2026-05-03T07:26:02.524Z</time></trkpt><trkpt lat="43.8018447" lon="12.6771183"><ele>191.0</ele><time>2026-05-03T07:26:03.526Z</time></trkpt><trkpt lat="43.8017144" lon="12.6769714"><ele>186.33333333333331</ele><time>2026-05-03T07:26:04.523Z</time></trkpt><trkpt lat="43.8015889" lon="12.6768329"><ele>181.66666666666666</ele><time>2026-05-03T07:26:05.524Z</time></trkpt><trkpt lat="43.8014656" lon="12.6766938"><ele>177.0</ele><time>2026-05-03T07:26:06.523Z</time></trkpt><trkpt lat="43.8013428" lon="12.6765586"><ele>177.0</ele><time>2026-05-03T07:26:07.523Z</time></trkpt><trkpt lat="43.8012255" lon="12.6764194"><ele>177.0</ele><time>2026-05-03T07:26:08.524Z</time></trkpt><trkpt lat="43.801105" lon="12.6762907"><ele>177.0</ele><time>2026-05-03T07:26:09.524Z</time></trkpt><trkpt lat="43.8009942" lon="12.6761675"><ele>177.0</ele><time>2026-05-03T07:26:10.523Z</time></trkpt><trkpt lat="43.8008823" lon="12.6760543"><ele>176.75</ele><time>2026-05-03T07:26:11.524Z</time></trkpt><trkpt lat="43.8007798" lon="12.6759414"><ele>176.5</ele><time>2026-05-03T07:26:12.524Z</time></trkpt><trkpt lat="43.8006875" lon="12.6758403"><ele>176.25</ele><time>2026-05-03T07:26:13.523Z</time></trkpt><trkpt lat="43.8006022" lon="12.6757483"><ele>176.0</ele><time>2026-05-03T07:26:14.523Z</time></trkpt><trkpt lat="43.8005323" lon="12.6756479"><ele>176.0</ele><time>2026-05-03T07:26:15.524Z</time></trkpt><trkpt lat="43.8004946" lon="12.6755293"><ele>176.0</ele><time>2026-05-03T07:26:16.523Z</time></trkpt><trkpt lat="43.8004916" lon="12.6754097"><ele>176.0</ele><time>2026-05-03T07:26:17.523Z</time></trkpt><trkpt lat="43.8005276" lon="12.6753023"><ele>176.0</ele><time>2026-05-03T07:26:18.523Z</time></trkpt><trkpt lat="43.8005722" lon="12.6752058"><ele>176.0</ele><time>2026-05-03T07:26:19.524Z</time></trkpt><trkpt lat="43.8006766" lon="12.6751699"><ele>174.20000000000002</ele><time>2026-05-03T07:26:20.524Z</time></trkpt><trkpt lat="43.8007843" lon="12.6751696"><ele>172.4</ele><time>2026-05-03T07:26:21.522Z</time></trkpt><trkpt lat="43.8008893" lon="12.6751955"><ele>170.6</ele><time>2026-05-03T07:26:22.523Z</time></trkpt><trkpt lat="43.8009934" lon="12.6752272"><ele>168.8</ele><time>2026-05-03T07:26:23.523Z</time></trkpt><trkpt lat="43.8010905" lon="12.6751995"><ele>167.0</ele><time>2026-05-03T07:26:24.524Z</time></trkpt><trkpt lat="43.8011848" lon="12.6751625"><ele>165.0</ele><time>2026-05-03T07:26:25.523Z</time></trkpt><trkpt lat="43.8012444" lon="12.6750978"><ele>163.0</ele><time>2026-05-03T07:26:26.522Z</time></trkpt><trkpt lat="43.8012687" lon="12.6749334"><ele>161.0</ele><time>2026-05-03T07:26:27.523Z</time></trkpt><trkpt lat="43.8011849" lon="12.6747712"><ele>159.0</ele><time>2026-05-03T07:26:28.522Z</time></trkpt><trkpt lat="43.8011235" lon="12.6746585"><ele>157.0</ele><time>2026-05-03T07:26:29.527Z</time></trkpt><trkpt lat="43.8010369" lon="12.6745508"><ele>156.25</ele><time>2026-05-03T07:26:30.524Z</time></trkpt><trkpt lat="43.8009105" lon="12.6744481"><ele>155.5</ele><time>2026-05-03T07:26:31.524Z</time></trkpt><trkpt lat="43.8008004" lon="12.6743514"><ele>154.75</ele><time>2026-05-03T07:26:32.524Z</time></trkpt><trkpt lat="43.8006863" lon="12.6742672"><ele>154.0</ele><time>2026-05-03T07:26:33.523Z</time></trkpt><trkpt lat="43.8005161" lon="12.6742509"><ele>154.0</ele><time>2026-05-03T07:26:34.522Z</time></trkpt><trkpt lat="43.8003636" lon="12.6742424"><ele>154.0</ele><time>2026-05-03T07:26:35.525Z</time></trkpt><trkpt lat="43.8002311" lon="12.6742554"><ele>154.0</ele><time>2026-05-03T07:26:36.524Z</time></trkpt><trkpt lat="43.8001187" lon="12.6742633"><ele>154.0</ele><time>2026-05-03T07:26:37.523Z</time></trkpt><trkpt lat="43.8000076" lon="12.6742371"><ele>152.6</ele><time>2026-05-03T07:26:38.523Z</time></trkpt><trkpt lat="43.7999237" lon="12.6741631"><ele>151.2</ele><time>2026-05-03T07:26:39.522Z</time></trkpt><trkpt lat="43.7998735" lon="12.6740515"><ele>149.79999999999998</ele><time>2026-05-03T07:26:40.524Z</time></trkpt><trkpt lat="43.7998705" lon="12.673917"><ele>148.4</ele><time>2026-05-03T07:26:41.523Z</time></trkpt><trkpt lat="43.7999144" lon="12.6737759"><ele>147.0</ele><time>2026-05-03T07:26:42.524Z</time></trkpt><trkpt lat="43.7999766" lon="12.6736251"><ele>145.0</ele><time>2026-05-03T07:26:43.523Z</time></trkpt><trkpt lat="43.8001057" lon="12.6734954"><ele>143.0</ele><time>2026-05-03T07:26:44.522Z</time></trkpt><trkpt lat="43.8002241" lon="12.6733409"><ele>141.0</ele><time>2026-05-03T07:26:45.522Z</time></trkpt><trkpt lat="43.800338" lon="12.6731848"><ele>141.0</ele><time>2026-05-03T07:26:46.523Z</time></trkpt><trkpt lat="43.8004598" lon="12.6730309"><ele>141.0</ele><time>2026-05-03T07:26:47.521Z</time></trkpt><trkpt lat="43.8005802" lon="12.6728977"><ele>141.0</ele><time>2026-05-03T07:26:48.525Z</time></trkpt><trkpt lat="43.8007092" lon="12.6727916"><ele>137.0</ele><time>2026-05-03T07:26:49.523Z</time></trkpt><trkpt lat="43.8008517" lon="12.6727246"><ele>133.0</ele><time>2026-05-03T07:26:50.523Z</time></trkpt><trkpt lat="43.8009977" lon="12.6726813"><ele>129.0</ele><time>2026-05-03T07:26:51.523Z</time></trkpt><trkpt lat="43.8011577" lon="12.6726499"><ele>128.0</ele><time>2026-05-03T07:26:52.526Z</time></trkpt><trkpt lat="43.8013236" lon="12.6726244"><ele>127.0</ele><time>2026-05-03T07:26:53.528Z</time></trkpt><trkpt lat="43.8014888" lon="12.672595"><ele>126.0</ele><time>2026-05-03T07:26:54.522Z</time></trkpt><trkpt lat="43.8016549" lon="12.6725706"><ele>126.0</ele><time>2026-05-03T07:26:55.524Z</time></trkpt><trkpt lat="43.8018168" lon="12.6725421"><ele>126.0</ele><time>2026-05-03T07:26:56.523Z</time></trkpt><trkpt lat="43.8019744" lon="12.6725257"><ele>126.0</ele><time>2026-05-03T07:26:57.522Z</time></trkpt><trkpt lat="43.8021419" lon="12.672497"><ele>125.0</ele><time>2026-05-03T07:26:58.523Z</time></trkpt><trkpt lat="43.8022924" lon="12.6724888"><ele>124.0</ele><time>2026-05-03T07:26:59.524Z</time></trkpt><trkpt lat="43.8024453" lon="12.6724777"><ele>123.0</ele><time>2026-05-03T07:27:00.522Z</time></trkpt><trkpt lat="43.8025889" lon="12.6724538"><ele>122.0</ele><time>2026-05-03T07:27:01.523Z</time></trkpt><trkpt lat="43.8027313" lon="12.6724012"><ele>121.0</ele><time>2026-05-03T07:27:02.521Z</time></trkpt><trkpt lat="43.8028731" lon="12.6723436"><ele>120.0</ele><time>2026-05-03T07:27:03.525Z</time></trkpt><trkpt lat="43.8029967" lon="12.6722571"><ele>119.0</ele><time>2026-05-03T07:27:04.524Z</time></trkpt><trkpt lat="43.8031045" lon="12.6720795"><ele>117.0</ele><time>2026-05-03T07:27:05.523Z</time></trkpt><trkpt lat="43.8032023" lon="12.6719166"><ele>115.0</ele><time>2026-05-03T07:27:06.523Z</time></trkpt><trkpt lat="43.8033098" lon="12.6717545"><ele>113.0</ele><time>2026-05-03T07:27:07.528Z</time></trkpt><trkpt lat="43.8034222" lon="12.6715894"><ele>111.25</ele><time>2026-05-03T07:27:08.523Z</time></trkpt><trkpt lat="43.8035127" lon="12.6714446"><ele>109.5</ele><time>2026-05-03T07:27:09.523Z</time></trkpt><trkpt lat="43.8036025" lon="12.6713066"><ele>107.75</ele><time>2026-05-03T07:27:10.523Z</time></trkpt><trkpt lat="43.8037107" lon="12.6711695"><ele>106.0</ele><time>2026-05-03T07:27:11.524Z</time></trkpt><trkpt lat="43.803802" lon="12.671037"><ele>105.75</ele><time>2026-05-03T07:27:12.523Z</time></trkpt><trkpt lat="43.8038978" lon="12.6709069"><ele>105.5</ele><time>2026-05-03T07:27:13.524Z</time></trkpt><trkpt lat="43.8039923" lon="12.6707778"><ele>105.25</ele><time>2026-05-03T07:27:14.523Z</time></trkpt><trkpt lat="43.8040799" lon="12.6706547"><ele>105.0</ele><time>2026-05-03T07:27:15.523Z</time></trkpt><trkpt lat="43.8041676" lon="12.6705244"><ele>105.0</ele><time>2026-05-03T07:27:16.524Z</time></trkpt><trkpt lat="43.8042569" lon="12.6703983"><ele>105.0</ele><time>2026-05-03T07:27:17.522Z</time></trkpt><trkpt lat="43.8043432" lon="12.6702605"><ele>105.0</ele><time>2026-05-03T07:27:18.524Z</time></trkpt><trkpt lat="43.8044237" lon="12.6701225"><ele>105.0</ele><time>2026-05-03T07:27:19.523Z</time></trkpt><trkpt lat="43.8045373" lon="12.6699665"><ele>100.0</ele><time>2026-05-03T07:27:20.523Z</time></trkpt><trkpt lat="43.804635" lon="12.6698158"><ele>95.0</ele><time>2026-05-03T07:27:21.523Z</time></trkpt><trkpt lat="43.804748" lon="12.6696556"><ele>90.0</ele><time>2026-05-03T07:27:22.522Z</time></trkpt><trkpt lat="43.8048641" lon="12.6694857"><ele>89.33333333333333</ele><time>2026-05-03T07:27:23.523Z</time></trkpt><trkpt lat="43.8049789" lon="12.6693172"><ele>88.66666666666666</ele><time>2026-05-03T07:27:24.524Z</time></trkpt><trkpt lat="43.8050978" lon="12.6691497"><ele>88.0</ele><time>2026-05-03T07:27:25.523Z</time></trkpt><trkpt lat="43.8052074" lon="12.6689875"><ele>87.0</ele><time>2026-05-03T07:27:26.523Z</time></trkpt><trkpt lat="43.8053003" lon="12.6688473"><ele>86.0</ele><time>2026-05-03T07:27:27.525Z</time></trkpt><trkpt lat="43.8053971" lon="12.6687094"><ele>85.0</ele><time>2026-05-03T07:27:28.523Z</time></trkpt><trkpt lat="43.8054903" lon="12.6685763"><ele>84.0</ele><time>2026-05-03T07:27:29.524Z</time></trkpt><trkpt lat="43.8055767" lon="12.6684513"><ele>84.0</ele><time>2026-05-03T07:27:30.524Z</time></trkpt><trkpt lat="43.8056641" lon="12.6683292"><ele>84.0</ele><time>2026-05-03T07:27:31.524Z</time></trkpt><trkpt lat="43.8057532" lon="12.6682083"><ele>84.0</ele><time>2026-05-03T07:27:32.524Z</time></trkpt><trkpt lat="43.8058389" lon="12.6680862"><ele>84.0</ele><time>2026-05-03T07:27:33.524Z</time></trkpt><trkpt lat="43.8059142" lon="12.6679707"><ele>82.75</ele><time>2026-05-03T07:27:34.524Z</time></trkpt><trkpt lat="43.8060033" lon="12.6678438"><ele>81.5</ele><time>2026-05-03T07:27:35.524Z</time></trkpt><trkpt lat="43.8061008" lon="12.6677115"><ele>80.25</ele><time>2026-05-03T07:27:36.524Z</time></trkpt><trkpt lat="43.806191" lon="12.6675763"><ele>79.0</ele><time>2026-05-03T07:27:37.523Z</time></trkpt><trkpt lat="43.8062784" lon="12.667433"><ele>79.0</ele><time>2026-05-03T07:27:38.525Z</time></trkpt><trkpt lat="43.806363" lon="12.6672786"><ele>79.0</ele><time>2026-05-03T07:27:39.526Z</time></trkpt><trkpt lat="43.8064135" lon="12.6671087"><ele>79.0</ele><time>2026-05-03T07:27:40.524Z</time></trkpt><trkpt lat="43.8064246" lon="12.6668982"><ele>79.0</ele><time>2026-05-03T07:27:41.525Z</time></trkpt><trkpt lat="43.806435" lon="12.6666927"><ele>79.0</ele><time>2026-05-03T07:27:42.525Z</time></trkpt><trkpt lat="43.8064251" lon="12.6664985"><ele>79.0</ele><time>2026-05-03T07:27:43.524Z</time></trkpt><trkpt lat="43.8063755" lon="12.666224"><ele>79.0</ele><time>2026-05-03T07:27:44.525Z</time></trkpt><trkpt lat="43.8063456" lon="12.6659876"><ele>79.66666666666666</ele><time>2026-05-03T07:27:45.524Z</time></trkpt><trkpt lat="43.8063218" lon="12.6657451"><ele>80.33333333333333</ele><time>2026-05-03T07:27:46.523Z</time></trkpt><trkpt lat="43.8062976" lon="12.6655214"><ele>81.0</ele><time>2026-05-03T07:27:47.525Z</time></trkpt><trkpt lat="43.8062755" lon="12.6652809"><ele>81.66666666666667</ele><time>2026-05-03T07:27:48.525Z</time></trkpt><trkpt lat="43.8062525" lon="12.6650383"><ele>82.33333333333334</ele><time>2026-05-03T07:27:49.524Z</time></trkpt><trkpt lat="43.8062215" lon="12.6647874"><ele>83.0</ele><time>2026-05-03T07:27:50.525Z</time></trkpt><trkpt lat="43.8061945" lon="12.6645304"><ele>83.0</ele><time>2026-05-03T07:27:51.523Z</time></trkpt><trkpt lat="43.8061722" lon="12.6642793"><ele>83.0</ele><time>2026-05-03T07:27:52.524Z</time></trkpt><trkpt lat="43.806138" lon="12.6640357"><ele>83.0</ele><time>2026-05-03T07:27:53.524Z</time></trkpt><trkpt lat="43.8061086" lon="12.6637798"><ele>83.33333333333334</ele><time>2026-05-03T07:27:54.524Z</time></trkpt><trkpt lat="43.8060749" lon="12.6635536"><ele>83.66666666666667</ele><time>2026-05-03T07:27:55.523Z</time></trkpt><trkpt lat="43.8060789" lon="12.6633502"><ele>84.0</ele><time>2026-05-03T07:27:56.524Z</time></trkpt><trkpt lat="43.8060579" lon="12.663144"><ele>84.0</ele><time>2026-05-03T07:27:57.524Z</time></trkpt><trkpt lat="43.8060314" lon="12.6629487"><ele>84.0</ele><time>2026-05-03T07:27:58.523Z</time></trkpt><trkpt lat="43.8060136" lon="12.6627552"><ele>84.0</ele><time>2026-05-03T07:27:59.524Z</time></trkpt><trkpt lat="43.8059857" lon="12.6625798"><ele>84.0</ele><time>2026-05-03T07:28:00.523Z</time></trkpt><trkpt lat="43.8059712" lon="12.6623985"><ele>83.80000000000001</ele><time>2026-05-03T07:28:01.522Z</time></trkpt><trkpt lat="43.8059554" lon="12.6622368"><ele>83.60000000000001</ele><time>2026-05-03T07:28:02.523Z</time></trkpt><trkpt lat="43.8059444" lon="12.6620721"><ele>83.4</ele><time>2026-05-03T07:28:03.522Z</time></trkpt><trkpt lat="43.8059391" lon="12.6619527"><ele>83.2</ele><time>2026-05-03T07:28:05.525Z</time></trkpt><trkpt lat="43.8059594" lon="12.6618449"><ele>83.0</ele><time>2026-05-03T07:28:07.524Z</time></trkpt><trkpt lat="43.8060085" lon="12.6617752"><ele>82.80000000000001</ele><time>2026-05-03T07:28:09.523Z</time></trkpt><trkpt lat="43.8060719" lon="12.6617364"><ele>82.6</ele><time>2026-05-03T07:28:10.531Z</time></trkpt><trkpt lat="43.8061637" lon="12.6617165"><ele>82.4</ele><time>2026-05-03T07:28:11.525Z</time></trkpt><trkpt lat="43.8062501" lon="12.66171"><ele>82.19999999999999</ele><time>2026-05-03T07:28:12.523Z</time></trkpt><trkpt lat="43.8063663" lon="12.6616856"><ele>82.0</ele><time>2026-05-03T07:28:13.524Z</time></trkpt><trkpt lat="43.8064799" lon="12.6616566"><ele>82.0</ele><time>2026-05-03T07:28:14.524Z</time></trkpt><trkpt lat="43.8065988" lon="12.6616321"><ele>82.0</ele><time>2026-05-03T07:28:15.524Z</time></trkpt><trkpt lat="43.8067248" lon="12.6616048"><ele>82.0</ele><time>2026-05-03T07:28:16.523Z</time></trkpt><trkpt lat="43.8068579" lon="12.6615765"><ele>82.0</ele><time>2026-05-03T07:28:17.524Z</time></trkpt><trkpt lat="43.8070074" lon="12.661542"><ele>81.75</ele><time>2026-05-03T07:28:18.523Z</time></trkpt><trkpt lat="43.8071552" lon="12.6615097"><ele>81.5</ele><time>2026-05-03T07:28:19.523Z</time></trkpt><trkpt lat="43.8072987" lon="12.66148"><ele>81.25</ele><time>2026-05-03T07:28:20.524Z</time></trkpt><trkpt lat="43.8074488" lon="12.6614504"><ele>81.0</ele><time>2026-05-03T07:28:21.524Z</time></trkpt><trkpt lat="43.8075925" lon="12.6614232"><ele>81.0</ele><time>2026-05-03T07:28:22.523Z</time></trkpt><trkpt lat="43.8077532" lon="12.6613876"><ele>81.0</ele><time>2026-05-03T07:28:23.523Z</time></trkpt><trkpt lat="43.8079272" lon="12.6613511"><ele>81.0</ele><time>2026-05-03T07:28:24.524Z</time></trkpt><trkpt lat="43.808114" lon="12.6613217"><ele>81.0</ele><time>2026-05-03T07:28:25.524Z</time></trkpt><trkpt lat="43.8082949" lon="12.6612883"><ele>81.0</ele><time>2026-05-03T07:28:26.524Z</time></trkpt><trkpt lat="43.808468" lon="12.6612565"><ele>81.0</ele><time>2026-05-03T07:28:27.524Z</time></trkpt><trkpt lat="43.808648" lon="12.6612197"><ele>81.33333333333333</ele><time>2026-05-03T07:28:28.524Z</time></trkpt><trkpt lat="43.8088427" lon="12.6611789"><ele>81.66666666666666</ele><time>2026-05-03T07:28:29.521Z</time></trkpt><trkpt lat="43.8090434" lon="12.6611314"><ele>82.0</ele><time>2026-05-03T07:28:30.524Z</time></trkpt><trkpt lat="43.8092401" lon="12.6610927"><ele>87.0</ele><time>2026-05-03T07:28:31.524Z</time></trkpt><trkpt lat="43.809432" lon="12.6610523"><ele>92.0</ele><time>2026-05-03T07:28:32.524Z</time></trkpt><trkpt lat="43.8096232" lon="12.6610233"><ele>97.0</ele><time>2026-05-03T07:28:33.523Z</time></trkpt><trkpt lat="43.8098107" lon="12.6610127"><ele>97.0</ele><time>2026-05-03T07:28:34.525Z</time></trkpt><trkpt lat="43.8099874" lon="12.661103"><ele>97.0</ele><time>2026-05-03T07:28:35.525Z</time></trkpt><trkpt lat="43.8101715" lon="12.6611579"><ele>97.0</ele><time>2026-05-03T07:28:36.525Z</time></trkpt><trkpt lat="43.8103234" lon="12.6613268"><ele>95.0</ele><time>2026-05-03T07:28:37.526Z</time></trkpt><trkpt lat="43.8104945" lon="12.6614625"><ele>93.0</ele><time>2026-05-03T07:28:38.524Z</time></trkpt><trkpt lat="43.8106714" lon="12.6616153"><ele>91.0</ele><time>2026-05-03T07:28:39.523Z</time></trkpt><trkpt lat="43.8108534" lon="12.66177"><ele>91.0</ele><time>2026-05-03T07:28:40.525Z</time></trkpt><trkpt lat="43.8110385" lon="12.6619214"><ele>91.0</ele><time>2026-05-03T07:28:41.526Z</time></trkpt><trkpt lat="43.8112238" lon="12.6620692"><ele>91.0</ele><time>2026-05-03T07:28:42.524Z</time></trkpt><trkpt lat="43.8114131" lon="12.6622085"><ele>89.66666666666666</ele><time>2026-05-03T07:28:43.525Z</time></trkpt><trkpt lat="43.8115989" lon="12.6623468"><ele>88.33333333333333</ele><time>2026-05-03T07:28:44.524Z</time></trkpt><trkpt lat="43.8117861" lon="12.6624798"><ele>87.0</ele><time>2026-05-03T07:28:45.523Z</time></trkpt><trkpt lat="43.8119345" lon="12.6626322"><ele>91.33333333333334</ele><time>2026-05-03T07:28:46.523Z</time></trkpt><trkpt lat="43.8120628" lon="12.6628017"><ele>95.66666666666667</ele><time>2026-05-03T07:28:47.521Z</time></trkpt><trkpt lat="43.8121795" lon="12.6629705"><ele>100.0</ele><time>2026-05-03T07:28:48.523Z</time></trkpt><trkpt lat="43.8122996" lon="12.6631318"><ele>100.0</ele><time>2026-05-03T07:28:49.524Z</time></trkpt><trkpt lat="43.8124334" lon="12.6632726"><ele>100.0</ele><time>2026-05-03T07:28:50.523Z</time></trkpt><trkpt lat="43.812576" lon="12.6633961"><ele>100.0</ele><time>2026-05-03T07:28:51.524Z</time></trkpt><trkpt lat="43.812733" lon="12.6634992"><ele>102.0</ele><time>2026-05-03T07:28:52.526Z</time></trkpt><trkpt lat="43.8129036" lon="12.6635689"><ele>104.0</ele><time>2026-05-03T07:28:53.525Z</time></trkpt><trkpt lat="43.8130732" lon="12.6636411"><ele>106.0</ele><time>2026-05-03T07:28:54.523Z</time></trkpt><trkpt lat="43.8132223" lon="12.6637032"><ele>106.0</ele><time>2026-05-03T07:28:55.523Z</time></trkpt><trkpt lat="43.8133671" lon="12.6637575"><ele>106.0</ele><time>2026-05-03T07:28:56.523Z</time></trkpt><trkpt lat="43.813509" lon="12.6638099"><ele>106.0</ele><time>2026-05-03T07:28:57.523Z</time></trkpt><trkpt lat="43.8136457" lon="12.6638585"><ele>106.0</ele><time>2026-05-03T07:28:58.522Z</time></trkpt><trkpt lat="43.8137779" lon="12.6639107"><ele>106.0</ele><time>2026-05-03T07:28:59.523Z</time></trkpt><trkpt lat="43.8139161" lon="12.6639564"><ele>106.0</ele><time>2026-05-03T07:29:00.524Z</time></trkpt><trkpt lat="43.8140432" lon="12.6640058"><ele>106.0</ele><time>2026-05-03T07:29:01.523Z</time></trkpt><trkpt lat="43.8141808" lon="12.6640633"><ele>106.0</ele><time>2026-05-03T07:29:02.523Z</time></trkpt><trkpt lat="43.8143185" lon="12.6641158"><ele>106.0</ele><time>2026-05-03T07:29:03.523Z</time></trkpt><trkpt lat="43.8144615" lon="12.6641639"><ele>106.0</ele><time>2026-05-03T07:29:04.522Z</time></trkpt><trkpt lat="43.8145961" lon="12.6642172"><ele>106.0</ele><time>2026-05-03T07:29:05.521Z</time></trkpt><trkpt lat="43.8147445" lon="12.6642672"><ele>106.0</ele><time>2026-05-03T07:29:06.525Z</time></trkpt><trkpt lat="43.8148884" lon="12.6643205"><ele>106.0</ele><time>2026-05-03T07:29:07.523Z</time></trkpt><trkpt lat="43.815038" lon="12.6643791"><ele>106.0</ele><time>2026-05-03T07:29:08.524Z</time></trkpt><trkpt lat="43.8151933" lon="12.6644385"><ele>106.0</ele><time>2026-05-03T07:29:09.523Z</time></trkpt><trkpt lat="43.8153414" lon="12.6645131"><ele>105.66666666666667</ele><time>2026-05-03T07:29:10.524Z</time></trkpt><trkpt lat="43.8154729" lon="12.6645905"><ele>105.33333333333334</ele><time>2026-05-03T07:29:11.523Z</time></trkpt><trkpt lat="43.8156297" lon="12.6646521"><ele>105.0</ele><time>2026-05-03T07:29:12.524Z</time></trkpt><trkpt lat="43.8157664" lon="12.6647414"><ele>105.0</ele><time>2026-05-03T07:29:13.523Z</time></trkpt><trkpt lat="43.8158986" lon="12.6648246"><ele>105.0</ele><time>2026-05-03T07:29:14.523Z</time></trkpt><trkpt lat="43.816023" lon="12.6649038"><ele>105.0</ele><time>2026-05-03T07:29:15.524Z</time></trkpt><trkpt lat="43.8161477" lon="12.6649797"><ele>105.0</ele><time>2026-05-03T07:29:16.522Z</time></trkpt><trkpt lat="43.8162726" lon="12.6650542"><ele>105.5</ele><time>2026-05-03T07:29:17.523Z</time></trkpt><trkpt lat="43.8163968" lon="12.665129"><ele>106.0</ele><time>2026-05-03T07:29:18.524Z</time></trkpt><trkpt lat="43.8165247" lon="12.6651998"><ele>106.5</ele><time>2026-05-03T07:29:19.524Z</time></trkpt><trkpt lat="43.8166588" lon="12.6652703"><ele>107.0</ele><time>2026-05-03T07:29:20.523Z</time></trkpt><trkpt lat="43.816791" lon="12.6653383"><ele>106.75</ele><time>2026-05-03T07:29:21.523Z</time></trkpt><trkpt lat="43.8169315" lon="12.6654252"><ele>106.5</ele><time>2026-05-03T07:29:22.523Z</time></trkpt><trkpt lat="43.8170628" lon="12.665504"><ele>106.25</ele><time>2026-05-03T07:29:23.522Z</time></trkpt><trkpt lat="43.8171923" lon="12.6655837"><ele>106.0</ele><time>2026-05-03T07:29:24.525Z</time></trkpt><trkpt lat="43.8173294" lon="12.6656592"><ele>106.0</ele><time>2026-05-03T07:29:25.524Z</time></trkpt><trkpt lat="43.8174547" lon="12.6657342"><ele>106.0</ele><time>2026-05-03T07:29:26.523Z</time></trkpt><trkpt lat="43.8175808" lon="12.665811"><ele>106.0</ele><time>2026-05-03T07:29:27.524Z</time></trkpt><trkpt lat="43.8176969" lon="12.6658872"><ele>106.0</ele><time>2026-05-03T07:29:28.521Z</time></trkpt><trkpt lat="43.8178231" lon="12.6659587"><ele>106.25</ele><time>2026-05-03T07:29:29.525Z</time></trkpt><trkpt lat="43.8179435" lon="12.6660231"><ele>106.5</ele><time>2026-05-03T07:29:30.524Z</time></trkpt><trkpt lat="43.8180728" lon="12.6661015"><ele>106.75</ele><time>2026-05-03T07:29:31.524Z</time></trkpt><trkpt lat="43.818203" lon="12.666179"><ele>107.0</ele><time>2026-05-03T07:29:32.523Z</time></trkpt><trkpt lat="43.8183398" lon="12.6662606"><ele>106.66666666666666</ele><time>2026-05-03T07:29:33.524Z</time></trkpt><trkpt lat="43.8184788" lon="12.6663452"><ele>106.33333333333334</ele><time>2026-05-03T07:29:34.523Z</time></trkpt><trkpt lat="43.8186221" lon="12.6664271"><ele>106.0</ele><time>2026-05-03T07:29:35.524Z</time></trkpt><trkpt lat="43.8187628" lon="12.6665112"><ele>106.0</ele><time>2026-05-03T07:29:36.525Z</time></trkpt><trkpt lat="43.8189042" lon="12.6666002"><ele>106.0</ele><time>2026-05-03T07:29:37.524Z</time></trkpt><trkpt lat="43.8190507" lon="12.6666825"><ele>106.0</ele><time>2026-05-03T07:29:38.524Z</time></trkpt><trkpt lat="43.8191922" lon="12.6667695"><ele>106.0</ele><time>2026-05-03T07:29:39.524Z</time></trkpt><trkpt lat="43.8193248" lon="12.6668528"><ele>106.0</ele><time>2026-05-03T07:29:40.524Z</time></trkpt><trkpt lat="43.8194627" lon="12.666938"><ele>106.0</ele><time>2026-05-03T07:29:41.524Z</time></trkpt><trkpt lat="43.819605" lon="12.667026"><ele>104.66666666666667</ele><time>2026-05-03T07:29:42.525Z</time></trkpt><trkpt lat="43.8197516" lon="12.6671121"><ele>103.33333333333334</ele><time>2026-05-03T07:29:43.523Z</time></trkpt><trkpt lat="43.8199016" lon="12.6671994"><ele>102.0</ele><time>2026-05-03T07:29:44.523Z</time></trkpt><trkpt lat="43.8200524" lon="12.6672836"><ele>102.66666666666666</ele><time>2026-05-03T07:29:45.524Z</time></trkpt><trkpt lat="43.8202023" lon="12.6673646"><ele>103.33333333333333</ele><time>2026-05-03T07:29:46.52Z</time></trkpt><trkpt lat="43.8203409" lon="12.6674504"><ele>104.0</ele><time>2026-05-03T07:29:47.523Z</time></trkpt><trkpt lat="43.8204753" lon="12.6675373"><ele>104.0</ele><time>2026-05-03T07:29:48.523Z</time></trkpt><trkpt lat="43.8206037" lon="12.6676315"><ele>104.0</ele><time>2026-05-03T07:29:49.523Z</time></trkpt><trkpt lat="43.8207422" lon="12.6677244"><ele>104.0</ele><time>2026-05-03T07:29:50.523Z</time></trkpt><trkpt lat="43.8208742" lon="12.6678224"><ele>104.0</ele><time>2026-05-03T07:29:51.524Z</time></trkpt><trkpt lat="43.821004" lon="12.6679283"><ele>103.25</ele><time>2026-05-03T07:29:52.523Z</time></trkpt><trkpt lat="43.8211311" lon="12.6680398"><ele>102.5</ele><time>2026-05-03T07:29:53.524Z</time></trkpt><trkpt lat="43.8212556" lon="12.6681485"><ele>101.75</ele><time>2026-05-03T07:29:54.523Z</time></trkpt><trkpt lat="43.8213746" lon="12.6682523"><ele>101.0</ele><time>2026-05-03T07:29:55.522Z</time></trkpt><trkpt lat="43.8214889" lon="12.6683551"><ele>101.0</ele><time>2026-05-03T07:29:56.522Z</time></trkpt><trkpt lat="43.8215971" lon="12.6684484"><ele>101.0</ele><time>2026-05-03T07:29:57.524Z</time></trkpt><trkpt lat="43.8217009" lon="12.6685443"><ele>101.0</ele><time>2026-05-03T07:29:58.523Z</time></trkpt><trkpt lat="43.8217919" lon="12.6686357"><ele>101.0</ele><time>2026-05-03T07:29:59.523Z</time></trkpt><trkpt lat="43.8218742" lon="12.6687171"><ele>100.33333333333333</ele><time>2026-05-03T07:30:00.523Z</time></trkpt><trkpt lat="43.8219358" lon="12.6687836"><ele>99.66666666666666</ele><time>2026-05-03T07:30:01.522Z</time></trkpt><trkpt lat="43.8220167" lon="12.668905"><ele>99.0</ele><time>2026-05-03T07:30:03.522Z</time></trkpt><trkpt lat="43.8220756" lon="12.668937"><ele>98.33333333333334</ele><time>2026-05-03T07:30:04.523Z</time></trkpt><trkpt lat="43.8221403" lon="12.668942"><ele>97.66666666666667</ele><time>2026-05-03T07:30:05.523Z</time></trkpt><trkpt lat="43.8222125" lon="12.6689233"><ele>97.0</ele><time>2026-05-03T07:30:06.524Z</time></trkpt><trkpt lat="43.822291" lon="12.6689014"><ele>97.0</ele><time>2026-05-03T07:30:07.523Z</time></trkpt><trkpt lat="43.822385" lon="12.6688755"><ele>97.0</ele><time>2026-05-03T07:30:08.523Z</time></trkpt><trkpt lat="43.8225021" lon="12.6688638"><ele>97.0</ele><time>2026-05-03T07:30:09.521Z</time></trkpt><trkpt lat="43.8226135" lon="12.6688576"><ele>97.0</ele><time>2026-05-03T07:30:10.523Z</time></trkpt><trkpt lat="43.8227238" lon="12.6688573"><ele>97.0</ele><time>2026-05-03T07:30:11.525Z</time></trkpt><trkpt lat="43.8228384" lon="12.6688649"><ele>95.5</ele><time>2026-05-03T07:30:12.523Z</time></trkpt><trkpt lat="43.8229546" lon="12.6688772"><ele>94.0</ele><time>2026-05-03T07:30:13.525Z</time></trkpt><trkpt lat="43.8230777" lon="12.668898"><ele>92.5</ele><time>2026-05-03T07:30:14.522Z</time></trkpt><trkpt lat="43.8232059" lon="12.6689056"><ele>91.0</ele><time>2026-05-03T07:30:15.523Z</time></trkpt><trkpt lat="43.823335" lon="12.6689072"><ele>91.0</ele><time>2026-05-03T07:30:16.522Z</time></trkpt><trkpt lat="43.8234548" lon="12.6689221"><ele>91.0</ele><time>2026-05-03T07:30:17.523Z</time></trkpt><trkpt lat="43.8235672" lon="12.6689654"><ele>91.0</ele><time>2026-05-03T07:30:18.523Z</time></trkpt><trkpt lat="43.8236682" lon="12.6690303"><ele>91.0</ele><time>2026-05-03T07:30:19.525Z</time></trkpt><trkpt lat="43.8237562" lon="12.6691197"><ele>91.25</ele><time>2026-05-03T07:30:20.524Z</time></trkpt><trkpt lat="43.8238219" lon="12.6692468"><ele>91.5</ele><time>2026-05-03T07:30:21.522Z</time></trkpt><trkpt lat="43.8238917" lon="12.6693711"><ele>91.75</ele><time>2026-05-03T07:30:22.522Z</time></trkpt><trkpt lat="43.8239364" lon="12.6695323"><ele>92.0</ele><time>2026-05-03T07:30:23.523Z</time></trkpt><trkpt lat="43.8239814" lon="12.6696968"><ele>91.6</ele><time>2026-05-03T07:30:24.522Z</time></trkpt><trkpt lat="43.8240514" lon="12.6698387"><ele>91.19999999999999</ele><time>2026-05-03T07:30:25.522Z</time></trkpt><trkpt lat="43.8241237" lon="12.6699622"><ele>90.8</ele><time>2026-05-03T07:30:26.523Z</time></trkpt><trkpt lat="43.8241841" lon="12.6700103"><ele>90.4</ele><time>2026-05-03T07:30:27.524Z</time></trkpt><trkpt lat="43.8242644" lon="12.6700496"><ele>90.0</ele><time>2026-05-03T07:30:28.523Z</time></trkpt><trkpt lat="43.8243435" lon="12.6700641"><ele>94.0</ele><time>2026-05-03T07:30:29.521Z</time></trkpt><trkpt lat="43.8244569" lon="12.6699021"><ele>98.0</ele><time>2026-05-03T07:30:30.52Z</time></trkpt><trkpt lat="43.8245289" lon="12.6697831"><ele>102.0</ele><time>2026-05-03T07:30:31.52Z</time></trkpt><trkpt lat="43.8246006" lon="12.6696608"><ele>106.0</ele><time>2026-05-03T07:30:32.521Z</time></trkpt><trkpt lat="43.8246709" lon="12.6694618"><ele>106.66666666666667</ele><time>2026-05-03T07:30:33.522Z</time></trkpt><trkpt lat="43.8247523" lon="12.6692402"><ele>107.33333333333334</ele><time>2026-05-03T07:30:34.524Z</time></trkpt><trkpt lat="43.824779" lon="12.6690528"><ele>108.0</ele><time>2026-05-03T07:30:35.521Z</time></trkpt><trkpt lat="43.824783" lon="12.6688679"><ele>108.0</ele><time>2026-05-03T07:30:36.525Z</time></trkpt><trkpt lat="43.8248228" lon="12.6686955"><ele>108.0</ele><time>2026-05-03T07:30:37.527Z</time></trkpt><trkpt lat="43.8248615" lon="12.6685494"><ele>108.0</ele><time>2026-05-03T07:30:38.524Z</time></trkpt><trkpt lat="43.824927" lon="12.6683785"><ele>108.0</ele><time>2026-05-03T07:30:39.522Z</time></trkpt><trkpt lat="43.8250324" lon="12.6682158"><ele>113.66666666666666</ele><time>2026-05-03T07:30:40.522Z</time></trkpt><trkpt lat="43.8251602" lon="12.6680664"><ele>119.33333333333333</ele><time>2026-05-03T07:30:41.523Z</time></trkpt><trkpt lat="43.8252816" lon="12.6679422"><ele>125.0</ele><time>2026-05-03T07:30:42.523Z</time></trkpt><trkpt lat="43.825418" lon="12.667807"><ele>122.75</ele><time>2026-05-03T07:30:43.522Z</time></trkpt><trkpt lat="43.8255429" lon="12.6676847"><ele>120.5</ele><time>2026-05-03T07:30:44.522Z</time></trkpt><trkpt lat="43.8256697" lon="12.6675737"><ele>118.25</ele><time>2026-05-03T07:30:45.526Z</time></trkpt><trkpt lat="43.8257469" lon="12.6674321"><ele>116.0</ele><time>2026-05-03T07:30:46.522Z</time></trkpt><trkpt lat="43.8258326" lon="12.66728"><ele>116.0</ele><time>2026-05-03T07:30:47.523Z</time></trkpt><trkpt lat="43.8259076" lon="12.6671408"><ele>116.0</ele><time>2026-05-03T07:30:48.523Z</time></trkpt><trkpt lat="43.8259653" lon="12.6669474"><ele>116.0</ele><time>2026-05-03T07:30:50.522Z</time></trkpt><trkpt lat="43.8260341" lon="12.6668287"><ele>116.0</ele><time>2026-05-03T07:30:51.522Z</time></trkpt><trkpt lat="43.8261213" lon="12.6667198"><ele>117.75</ele><time>2026-05-03T07:30:52.524Z</time></trkpt><trkpt lat="43.8262324" lon="12.6666448"><ele>119.5</ele><time>2026-05-03T07:30:53.522Z</time></trkpt><trkpt lat="43.8263531" lon="12.6666055"><ele>121.25</ele><time>2026-05-03T07:30:54.521Z</time></trkpt><trkpt lat="43.8264641" lon="12.6665682"><ele>123.0</ele><time>2026-05-03T07:30:55.522Z</time></trkpt><trkpt lat="43.8265897" lon="12.6666156"><ele>123.0</ele><time>2026-05-03T07:30:56.522Z</time></trkpt><trkpt lat="43.8267225" lon="12.6666599"><ele>123.0</ele><time>2026-05-03T07:30:57.522Z</time></trkpt><trkpt lat="43.8268577" lon="12.666734"><ele>123.0</ele><time>2026-05-03T07:30:58.523Z</time></trkpt><trkpt lat="43.8270363" lon="12.6668342"><ele>126.0</ele><time>2026-05-03T07:30:59.523Z</time></trkpt><trkpt lat="43.8271665" lon="12.6669301"><ele>129.0</ele><time>2026-05-03T07:31:00.521Z</time></trkpt><trkpt lat="43.8272917" lon="12.6669891"><ele>132.0</ele><time>2026-05-03T07:31:01.522Z</time></trkpt><trkpt lat="43.8273815" lon="12.6669311"><ele>135.0</ele><time>2026-05-03T07:31:02.525Z</time></trkpt><trkpt lat="43.8274742" lon="12.6668925"><ele>135.0</ele><time>2026-05-03T07:31:03.522Z</time></trkpt><trkpt lat="43.8275577" lon="12.6668219"><ele>135.0</ele><time>2026-05-03T07:31:04.522Z</time></trkpt><trkpt lat="43.8275752" lon="12.6666866"><ele>135.0</ele><time>2026-05-03T07:31:05.522Z</time></trkpt><trkpt lat="43.8276112" lon="12.6665695"><ele>135.0</ele><time>2026-05-03T07:31:06.522Z</time></trkpt><trkpt lat="43.8275382" lon="12.6664111"><ele>135.0</ele><time>2026-05-03T07:31:07.523Z</time></trkpt><trkpt lat="43.8274029" lon="12.666263"><ele>135.0</ele><time>2026-05-03T07:31:08.524Z</time></trkpt><trkpt lat="43.8273135" lon="12.6661313"><ele>135.0</ele><time>2026-05-03T07:31:09.524Z</time></trkpt><trkpt lat="43.8272872" lon="12.6659827"><ele>135.0</ele><time>2026-05-03T07:31:10.524Z</time></trkpt><trkpt lat="43.8272849" lon="12.6658379"><ele>135.0</ele><time>2026-05-03T07:31:11.525Z</time></trkpt><trkpt lat="43.827314" lon="12.6657077"><ele>135.0</ele><time>2026-05-03T07:31:12.522Z</time></trkpt><trkpt lat="43.827346" lon="12.6656032"><ele>135.33333333333334</ele><time>2026-05-03T07:31:13.52Z</time></trkpt><trkpt lat="43.8273986" lon="12.6654972"><ele>135.66666666666669</ele><time>2026-05-03T07:31:14.524Z</time></trkpt><trkpt lat="43.8274823" lon="12.6654365"><ele>136.0</ele><time>2026-05-03T07:31:15.523Z</time></trkpt><trkpt lat="43.8277542" lon="12.6654125"><ele>137.33333333333334</ele><time>2026-05-03T07:31:16.522Z</time></trkpt><trkpt lat="43.8279031" lon="12.6653424"><ele>138.66666666666666</ele><time>2026-05-03T07:31:17.519Z</time></trkpt><trkpt lat="43.8280742" lon="12.6652387"><ele>140.0</ele><time>2026-05-03T07:31:18.52Z</time></trkpt><trkpt lat="43.8282099" lon="12.6651517"><ele>140.0</ele><time>2026-05-03T07:31:19.525Z</time></trkpt><trkpt lat="43.8283593" lon="12.6650319"><ele>140.0</ele><time>2026-05-03T07:31:20.522Z</time></trkpt><trkpt lat="43.8284942" lon="12.6649264"><ele>140.0</ele><time>2026-05-03T07:31:21.522Z</time></trkpt><trkpt lat="43.8286241" lon="12.6648085"><ele>143.66666666666666</ele><time>2026-05-03T07:31:22.523Z</time></trkpt><trkpt lat="43.8287351" lon="12.6646521"><ele>147.33333333333334</ele><time>2026-05-03T07:31:23.523Z</time></trkpt><trkpt lat="43.8288369" lon="12.6644947"><ele>151.0</ele><time>2026-05-03T07:31:24.523Z</time></trkpt><trkpt lat="43.8289359" lon="12.6643333"><ele>151.0</ele><time>2026-05-03T07:31:25.626Z</time></trkpt><trkpt lat="43.8290901" lon="12.6640224"><ele>151.0</ele><time>2026-05-03T07:31:27.523Z</time></trkpt><trkpt lat="43.8292048" lon="12.663854"><ele>151.0</ele><time>2026-05-03T07:31:28.522Z</time></trkpt><trkpt lat="43.8292816" lon="12.6637086"><ele>151.4</ele><time>2026-05-03T07:31:29.524Z</time></trkpt><trkpt lat="43.8293132" lon="12.6635792"><ele>151.8</ele><time>2026-05-03T07:31:30.523Z</time></trkpt><trkpt lat="43.8292282" lon="12.6634599"><ele>152.20000000000002</ele><time>2026-05-03T07:31:31.521Z</time></trkpt><trkpt lat="43.8292033" lon="12.6632961"><ele>152.6</ele><time>2026-05-03T07:31:32.522Z</time></trkpt><trkpt lat="43.8291889" lon="12.6631615"><ele>153.0</ele><time>2026-05-03T07:31:33.524Z</time></trkpt><trkpt lat="43.8291853" lon="12.6630406"><ele>153.0</ele><time>2026-05-03T07:31:34.524Z</time></trkpt><trkpt lat="43.8291638" lon="12.6629295"><ele>153.0</ele><time>2026-05-03T07:31:35.522Z</time></trkpt><trkpt lat="43.8291962" lon="12.6628244"><ele>153.0</ele><time>2026-05-03T07:31:36.524Z</time></trkpt><trkpt lat="43.8293067" lon="12.6628159"><ele>153.0</ele><time>2026-05-03T07:31:37.522Z</time></trkpt><trkpt lat="43.8293768" lon="12.6627737"><ele>153.0</ele><time>2026-05-03T07:31:38.523Z</time></trkpt><trkpt lat="43.8294917" lon="12.6628697"><ele>153.0</ele><time>2026-05-03T07:31:39.523Z</time></trkpt><trkpt lat="43.8295584" lon="12.6630789"><ele>153.0</ele><time>2026-05-03T07:31:40.522Z</time></trkpt><trkpt lat="43.8296254" lon="12.6632248"><ele>153.0</ele><time>2026-05-03T07:31:41.523Z</time></trkpt><trkpt lat="43.8296949" lon="12.6633772"><ele>153.0</ele><time>2026-05-03T07:31:42.523Z</time></trkpt><trkpt lat="43.8297769" lon="12.6635245"><ele>157.33333333333334</ele><time>2026-05-03T07:31:43.521Z</time></trkpt><trkpt lat="43.8298595" lon="12.663682"><ele>161.66666666666669</ele><time>2026-05-03T07:31:44.523Z</time></trkpt><trkpt lat="43.8299353" lon="12.6638656"><ele>166.0</ele><time>2026-05-03T07:31:45.522Z</time></trkpt><trkpt lat="43.8300045" lon="12.6640729"><ele>166.0</ele><time>2026-05-03T07:31:46.523Z</time></trkpt><trkpt lat="43.8300613" lon="12.6642606"><ele>166.0</ele><time>2026-05-03T07:31:47.522Z</time></trkpt><trkpt lat="43.8300983" lon="12.664409"><ele>166.0</ele><time>2026-05-03T07:31:48.523Z</time></trkpt><trkpt lat="43.8300605" lon="12.6645554"><ele>166.0</ele><time>2026-05-03T07:31:49.523Z</time></trkpt><trkpt lat="43.8300053" lon="12.6647046"><ele>168.25</ele><time>2026-05-03T07:31:50.523Z</time></trkpt><trkpt lat="43.8299188" lon="12.6648512"><ele>170.5</ele><time>2026-05-03T07:31:51.523Z</time></trkpt><trkpt lat="43.8298232" lon="12.6650027"><ele>172.75</ele><time>2026-05-03T07:31:52.523Z</time></trkpt><trkpt lat="43.8297156" lon="12.6651704"><ele>175.0</ele><time>2026-05-03T07:31:53.518Z</time></trkpt><trkpt lat="43.8296113" lon="12.6653583"><ele>180.66666666666669</ele><time>2026-05-03T07:31:54.521Z</time></trkpt><trkpt lat="43.8295203" lon="12.6655683"><ele>186.33333333333334</ele><time>2026-05-03T07:31:55.52Z</time></trkpt><trkpt lat="43.8294212" lon="12.6657402"><ele>192.0</ele><time>2026-05-03T07:31:56.52Z</time></trkpt><trkpt lat="43.8293218" lon="12.6659072"><ele>188.8</ele><time>2026-05-03T07:31:57.519Z</time></trkpt><trkpt lat="43.8292177" lon="12.6660508"><ele>185.6</ele><time>2026-05-03T07:31:58.516Z</time></trkpt><trkpt lat="43.8291281" lon="12.6661794"><ele>182.4</ele><time>2026-05-03T07:31:59.524Z</time></trkpt><trkpt lat="43.8290468" lon="12.6662113"><ele>179.20000000000002</ele><time>2026-05-03T07:32:00.522Z</time></trkpt><trkpt lat="43.8289971" lon="12.6662957"><ele>176.0</ele><time>2026-05-03T07:32:01.52Z</time></trkpt><trkpt lat="43.829049" lon="12.6664315"><ele>176.0</ele><time>2026-05-03T07:32:03.522Z</time></trkpt><trkpt lat="43.8292081" lon="12.66639"><ele>176.0</ele><time>2026-05-03T07:32:05.523Z</time></trkpt><trkpt lat="43.8293061" lon="12.6663243"><ele>176.0</ele><time>2026-05-03T07:32:06.521Z</time></trkpt><trkpt lat="43.8294346" lon="12.6662104"><ele>176.0</ele><time>2026-05-03T07:32:07.524Z</time></trkpt><trkpt lat="43.8295668" lon="12.6661063"><ele>180.0</ele><time>2026-05-03T07:32:08.524Z</time></trkpt><trkpt lat="43.8296992" lon="12.6659958"><ele>184.0</ele><time>2026-05-03T07:32:09.522Z</time></trkpt><trkpt lat="43.8298184" lon="12.6658876"><ele>188.0</ele><time>2026-05-03T07:32:10.52Z</time></trkpt><trkpt lat="43.8299357" lon="12.6657943"><ele>192.0</ele><time>2026-05-03T07:32:11.523Z</time></trkpt><trkpt lat="43.8300489" lon="12.665761"><ele>191.0</ele><time>2026-05-03T07:32:12.522Z</time></trkpt><trkpt lat="43.8301535" lon="12.6657581"><ele>190.0</ele><time>2026-05-03T07:32:13.522Z</time></trkpt><trkpt lat="43.830276" lon="12.6657877"><ele>189.0</ele><time>2026-05-03T07:32:14.524Z</time></trkpt><trkpt lat="43.8303614" lon="12.6659401"><ele>188.0</ele><time>2026-05-03T07:32:15.523Z</time></trkpt><trkpt lat="43.8304734" lon="12.6660631"><ele>193.5</ele><time>2026-05-03T07:32:16.518Z</time></trkpt><trkpt lat="43.8305913" lon="12.6661817"><ele>199.0</ele><time>2026-05-03T07:32:17.523Z</time></trkpt><trkpt lat="43.8307063" lon="12.6662662"><ele>204.5</ele><time>2026-05-03T07:32:18.524Z</time></trkpt><trkpt lat="43.8308217" lon="12.6663098"><ele>210.0</ele><time>2026-05-03T07:32:19.522Z</time></trkpt><trkpt lat="43.8309397" lon="12.6663093"><ele>206.5</ele><time>2026-05-03T07:32:20.521Z</time></trkpt><trkpt lat="43.8310554" lon="12.6662709"><ele>203.0</ele><time>2026-05-03T07:32:21.522Z</time></trkpt><trkpt lat="43.8311748" lon="12.6662667"><ele>199.5</ele><time>2026-05-03T07:32:22.522Z</time></trkpt><trkpt lat="43.8312821" lon="12.6662562"><ele>196.0</ele><time>2026-05-03T07:32:23.523Z</time></trkpt><trkpt lat="43.8313581" lon="12.6663781"><ele>196.0</ele><time>2026-05-03T07:32:24.52Z</time></trkpt><trkpt lat="43.8314245" lon="12.6664898"><ele>196.0</ele><time>2026-05-03T07:32:25.523Z</time></trkpt><trkpt lat="43.8314625" lon="12.6666517"><ele>196.0</ele><time>2026-05-03T07:32:26.522Z</time></trkpt><trkpt lat="43.8314912" lon="12.6668279"><ele>196.0</ele><time>2026-05-03T07:32:27.523Z</time></trkpt><trkpt lat="43.8315285" lon="12.6669689"><ele>194.75</ele><time>2026-05-03T07:32:28.522Z</time></trkpt><trkpt lat="43.8315683" lon="12.6670758"><ele>193.5</ele><time>2026-05-03T07:32:29.522Z</time></trkpt><trkpt lat="43.8316239" lon="12.667199"><ele>192.25</ele><time>2026-05-03T07:32:31.522Z</time></trkpt><trkpt lat="43.8317787" lon="12.6673257"><ele>191.0</ele><time>2026-05-03T07:33:51.522Z</time></trkpt><trkpt lat="43.8318492" lon="12.6674395"><ele>191.0</ele><time>2026-05-03T07:33:52.523Z</time></trkpt><trkpt lat="43.8318914" lon="12.6675744"><ele>191.0</ele><time>2026-05-03T07:33:53.522Z</time></trkpt><trkpt lat="43.8319011" lon="12.6677217"><ele>191.0</ele><time>2026-05-03T07:33:54.522Z</time></trkpt><trkpt lat="43.8318868" lon="12.6678731"><ele>191.0</ele><time>2026-05-03T07:33:55.522Z</time></trkpt><trkpt lat="43.8318506" lon="12.6680352"><ele>191.0</ele><time>2026-05-03T07:33:56.524Z</time></trkpt><trkpt lat="43.8318257" lon="12.6681953"><ele>194.0</ele><time>2026-05-03T07:33:57.523Z</time></trkpt><trkpt lat="43.8318072" lon="12.6683608"><ele>197.0</ele><time>2026-05-03T07:33:58.524Z</time></trkpt><trkpt lat="43.8318019" lon="12.6685364"><ele>200.0</ele><time>2026-05-03T07:33:59.522Z</time></trkpt><trkpt lat="43.8318227" lon="12.6687149"><ele>203.0</ele><time>2026-05-03T07:34:00.521Z</time></trkpt><trkpt lat="43.83187" lon="12.6688823"><ele>206.75</ele><time>2026-05-03T07:34:01.525Z</time></trkpt><trkpt lat="43.8319764" lon="12.6689899"><ele>210.5</ele><time>2026-05-03T07:34:02.523Z</time></trkpt><trkpt lat="43.8320747" lon="12.6690992"><ele>214.25</ele><time>2026-05-03T07:34:03.521Z</time></trkpt><trkpt lat="43.8321754" lon="12.6692028"><ele>218.0</ele><time>2026-05-03T07:34:04.522Z</time></trkpt><trkpt lat="43.8322611" lon="12.6693053"><ele>218.0</ele><time>2026-05-03T07:34:05.521Z</time></trkpt><trkpt lat="43.8323333" lon="12.6694148"><ele>218.0</ele><time>2026-05-03T07:34:06.519Z</time></trkpt><trkpt lat="43.8324123" lon="12.6695398"><ele>218.0</ele><time>2026-05-03T07:34:07.522Z</time></trkpt><trkpt lat="43.8324984" lon="12.6696565"><ele>218.0</ele><time>2026-05-03T07:34:08.523Z</time></trkpt><trkpt lat="43.8325929" lon="12.6697436"><ele>221.0</ele><time>2026-05-03T07:34:09.522Z</time></trkpt><trkpt lat="43.8327075" lon="12.6697927"><ele>224.0</ele><time>2026-05-03T07:34:10.523Z</time></trkpt><trkpt lat="43.8328286" lon="12.6698047"><ele>227.0</ele><time>2026-05-03T07:34:11.522Z</time></trkpt><trkpt lat="43.832966" lon="12.6697821"><ele>230.0</ele><time>2026-05-03T07:34:12.522Z</time></trkpt><trkpt lat="43.8331169" lon="12.6697453"><ele>230.0</ele><time>2026-05-03T07:34:13.523Z</time></trkpt><trkpt lat="43.8332839" lon="12.6697313"><ele>230.0</ele><time>2026-05-03T07:34:14.522Z</time></trkpt><trkpt lat="43.8334649" lon="12.6697393"><ele>230.0</ele><time>2026-05-03T07:34:15.522Z</time></trkpt><trkpt lat="43.8336425" lon="12.669772"><ele>231.33333333333334</ele><time>2026-05-03T07:34:16.522Z</time></trkpt><trkpt lat="43.8338229" lon="12.6698296"><ele>232.66666666666669</ele><time>2026-05-03T07:34:17.522Z</time></trkpt><trkpt lat="43.8339964" lon="12.6698933"><ele>234.0</ele><time>2026-05-03T07:34:18.523Z</time></trkpt><trkpt lat="43.8341625" lon="12.6699522"><ele>236.66666666666669</ele><time>2026-05-03T07:34:19.523Z</time></trkpt><trkpt lat="43.8343126" lon="12.6700014"><ele>239.33333333333334</ele><time>2026-05-03T07:34:20.522Z</time></trkpt><trkpt lat="43.8344676" lon="12.6700394"><ele>242.0</ele><time>2026-05-03T07:34:21.522Z</time></trkpt><trkpt lat="43.8346016" lon="12.6699544"><ele>242.0</ele><time>2026-05-03T07:34:22.523Z</time></trkpt><trkpt lat="43.8347389" lon="12.6698496"><ele>242.0</ele><time>2026-05-03T07:34:23.522Z</time></trkpt><trkpt lat="43.8348805" lon="12.6697999"><ele>242.0</ele><time>2026-05-03T07:34:24.522Z</time></trkpt><trkpt lat="43.8350331" lon="12.6697087"><ele>242.66666666666669</ele><time>2026-05-03T07:34:25.522Z</time></trkpt><trkpt lat="43.8351975" lon="12.6697148"><ele>243.33333333333331</ele><time>2026-05-03T07:34:26.524Z</time></trkpt><trkpt lat="43.8353206" lon="12.6697924"><ele>244.0</ele><time>2026-05-03T07:34:27.521Z</time></trkpt><trkpt lat="43.8354778" lon="12.6700154"><ele>244.0</ele><time>2026-05-03T07:34:28.521Z</time></trkpt><trkpt lat="43.8356465" lon="12.6701888"><ele>244.0</ele><time>2026-05-03T07:34:29.522Z</time></trkpt><trkpt lat="43.8357763" lon="12.670323"><ele>244.0</ele><time>2026-05-03T07:34:30.523Z</time></trkpt><trkpt lat="43.8359224" lon="12.6704124"><ele>249.33333333333331</ele><time>2026-05-03T07:34:31.522Z</time></trkpt><trkpt lat="43.83608" lon="12.6704327"><ele>254.66666666666669</ele><time>2026-05-03T07:34:32.523Z</time></trkpt><trkpt lat="43.8362457" lon="12.6703986"><ele>260.0</ele><time>2026-05-03T07:34:33.522Z</time></trkpt><trkpt lat="43.8364151" lon="12.6703547"><ele>260.0</ele><time>2026-05-03T07:34:34.52Z</time></trkpt><trkpt lat="43.8365639" lon="12.6703437"><ele>260.0</ele><time>2026-05-03T07:34:35.522Z</time></trkpt><trkpt lat="43.8367072" lon="12.6703415"><ele>260.0</ele><time>2026-05-03T07:34:36.523Z</time></trkpt><trkpt lat="43.8368453" lon="12.6703559"><ele>260.0</ele><time>2026-05-03T07:34:37.522Z</time></trkpt><trkpt lat="43.8369692" lon="12.670381"><ele>260.5</ele><time>2026-05-03T07:34:38.521Z</time></trkpt><trkpt lat="43.8370991" lon="12.6703609"><ele>261.0</ele><time>2026-05-03T07:34:39.521Z</time></trkpt><trkpt lat="43.8372244" lon="12.6702917"><ele>261.5</ele><time>2026-05-03T07:34:40.521Z</time></trkpt><trkpt lat="43.8373156" lon="12.6701811"><ele>262.0</ele><time>2026-05-03T07:34:41.522Z</time></trkpt><trkpt lat="43.8374064" lon="12.6700328"><ele>262.0</ele><time>2026-05-03T07:34:42.522Z</time></trkpt><trkpt lat="43.8375075" lon="12.6698818"><ele>262.0</ele><time>2026-05-03T07:34:43.521Z</time></trkpt><trkpt lat="43.8375832" lon="12.669727"><ele>262.0</ele><time>2026-05-03T07:34:44.522Z</time></trkpt><trkpt lat="43.8376796" lon="12.6695598"><ele>262.0</ele><time>2026-05-03T07:34:45.52Z</time></trkpt><trkpt lat="43.8377707" lon="12.6693959"><ele>266.66666666666663</ele><time>2026-05-03T07:34:46.522Z</time></trkpt><trkpt lat="43.8378825" lon="12.6692436"><ele>271.3333333333333</ele><time>2026-05-03T07:34:47.523Z</time></trkpt><trkpt lat="43.837999" lon="12.6690926"><ele>276.0</ele><time>2026-05-03T07:34:48.522Z</time></trkpt><trkpt lat="43.8381155" lon="12.6689289"><ele>276.0</ele><time>2026-05-03T07:34:49.524Z</time></trkpt><trkpt lat="43.838224" lon="12.6687689"><ele>276.0</ele><time>2026-05-03T07:34:50.523Z</time></trkpt><trkpt lat="43.8383321" lon="12.6685916"><ele>276.0</ele><time>2026-05-03T07:34:51.522Z</time></trkpt><trkpt lat="43.8384212" lon="12.6684212"><ele>276.5</ele><time>2026-05-03T07:34:52.523Z</time></trkpt><trkpt lat="43.8385127" lon="12.6682624"><ele>277.0</ele><time>2026-05-03T07:34:53.523Z</time></trkpt><trkpt lat="43.8385802" lon="12.6681678"><ele>277.5</ele><time>2026-05-03T07:34:54.521Z</time></trkpt><trkpt lat="43.8386768" lon="12.6681064"><ele>278.0</ele><time>2026-05-03T07:34:55.524Z</time></trkpt><trkpt lat="43.8387972" lon="12.6680838"><ele>278.0</ele><time>2026-05-03T07:34:56.521Z</time></trkpt><trkpt lat="43.8389257" lon="12.6681028"><ele>278.0</ele><time>2026-05-03T07:34:57.522Z</time></trkpt><trkpt lat="43.8390593" lon="12.6681383"><ele>278.0</ele><time>2026-05-03T07:34:58.523Z</time></trkpt><trkpt lat="43.8392393" lon="12.6681996"><ele>278.6666666666667</ele><time>2026-05-03T07:34:59.522Z</time></trkpt><trkpt lat="43.8394013" lon="12.6682689"><ele>279.3333333333333</ele><time>2026-05-03T07:35:00.522Z</time></trkpt><trkpt lat="43.8395731" lon="12.6683384"><ele>280.0</ele><time>2026-05-03T07:35:01.523Z</time></trkpt><trkpt lat="43.839746" lon="12.6684029"><ele>280.0</ele><time>2026-05-03T07:35:02.525Z</time></trkpt><trkpt lat="43.8399049" lon="12.6684585"><ele>280.0</ele><time>2026-05-03T07:35:03.524Z</time></trkpt><trkpt lat="43.840071" lon="12.6684857"><ele>280.0</ele><time>2026-05-03T07:35:04.523Z</time></trkpt><trkpt lat="43.8402418" lon="12.6684703"><ele>281.66666666666663</ele><time>2026-05-03T07:35:05.522Z</time></trkpt><trkpt lat="43.8404198" lon="12.6684182"><ele>283.3333333333333</ele><time>2026-05-03T07:35:06.521Z</time></trkpt><trkpt lat="43.8406081" lon="12.6683716"><ele>285.0</ele><time>2026-05-03T07:35:07.523Z</time></trkpt><trkpt lat="43.8408164" lon="12.668336"><ele>290.6666666666667</ele><time>2026-05-03T07:35:08.523Z</time></trkpt><trkpt lat="43.8410002" lon="12.6682875"><ele>296.33333333333337</ele><time>2026-05-03T07:35:09.522Z</time></trkpt><trkpt lat="43.8411862" lon="12.6682111"><ele>302.0</ele><time>2026-05-03T07:35:10.522Z</time></trkpt><trkpt lat="43.8413768" lon="12.6681674"><ele>302.0</ele><time>2026-05-03T07:35:11.522Z</time></trkpt><trkpt lat="43.8415197" lon="12.6680605"><ele>302.0</ele><time>2026-05-03T07:35:12.522Z</time></trkpt><trkpt lat="43.8416638" lon="12.667937"><ele>302.0</ele><time>2026-05-03T07:35:13.523Z</time></trkpt><trkpt lat="43.8417824" lon="12.667775"><ele>303.33333333333337</ele><time>2026-05-03T07:35:14.522Z</time></trkpt><trkpt lat="43.8418059" lon="12.6675295"><ele>304.6666666666667</ele><time>2026-05-03T07:35:15.522Z</time></trkpt><trkpt lat="43.841893" lon="12.6673862"><ele>306.0</ele><time>2026-05-03T07:35:16.523Z</time></trkpt><trkpt lat="43.8419883" lon="12.6672216"><ele>306.0</ele><time>2026-05-03T07:35:17.523Z</time></trkpt><trkpt lat="43.8420805" lon="12.6671193"><ele>306.0</ele><time>2026-05-03T07:35:18.522Z</time></trkpt><trkpt lat="43.8423148" lon="12.6672402"><ele>306.0</ele><time>2026-05-03T07:35:19.523Z</time></trkpt><trkpt lat="43.8424669" lon="12.6672468"><ele>306.0</ele><time>2026-05-03T07:35:20.522Z</time></trkpt><trkpt lat="43.8426267" lon="12.6672427"><ele>306.0</ele><time>2026-05-03T07:35:21.52Z</time></trkpt><trkpt lat="43.8427813" lon="12.6673029"><ele>306.0</ele><time>2026-05-03T07:35:22.522Z</time></trkpt><trkpt lat="43.8429549" lon="12.6673292"><ele>305.3333333333333</ele><time>2026-05-03T07:35:23.522Z</time></trkpt><trkpt lat="43.843125" lon="12.6673409"><ele>304.66666666666663</ele><time>2026-05-03T07:35:24.521Z</time></trkpt><trkpt lat="43.8431938" lon="12.6670315"><ele>304.0</ele><time>2026-05-03T07:35:25.527Z</time></trkpt><trkpt lat="43.8432846" lon="12.6668476"><ele>304.0</ele><time>2026-05-03T07:35:26.522Z</time></trkpt><trkpt lat="43.8433478" lon="12.666672"><ele>304.0</ele><time>2026-05-03T07:35:27.522Z</time></trkpt><trkpt lat="43.8434269" lon="12.6665232"><ele>304.0</ele><time>2026-05-03T07:35:28.521Z</time></trkpt><trkpt lat="43.843547" lon="12.6664123"><ele>304.0</ele><time>2026-05-03T07:35:29.523Z</time></trkpt><trkpt lat="43.8436628" lon="12.6663223"><ele>307.3333333333333</ele><time>2026-05-03T07:35:30.522Z</time></trkpt><trkpt lat="43.8438006" lon="12.6662419"><ele>310.6666666666667</ele><time>2026-05-03T07:35:31.522Z</time></trkpt><trkpt lat="43.8439333" lon="12.666126"><ele>314.0</ele><time>2026-05-03T07:35:32.523Z</time></trkpt><trkpt lat="43.8440421" lon="12.665883"><ele>314.0</ele><time>2026-05-03T07:35:33.522Z</time></trkpt><trkpt lat="43.8441543" lon="12.665648"><ele>314.0</ele><time>2026-05-03T07:35:34.523Z</time></trkpt><trkpt lat="43.8442245" lon="12.6654311"><ele>314.0</ele><time>2026-05-03T07:35:35.521Z</time></trkpt><trkpt lat="43.8443128" lon="12.6652357"><ele>315.4</ele><time>2026-05-03T07:35:36.522Z</time></trkpt><trkpt lat="43.8443579" lon="12.6650633"><ele>316.79999999999995</ele><time>2026-05-03T07:35:37.521Z</time></trkpt><trkpt lat="43.8444266" lon="12.664942"><ele>318.20000000000005</ele><time>2026-05-03T07:35:38.523Z</time></trkpt><trkpt lat="43.844512" lon="12.6648688"><ele>319.6</ele><time>2026-05-03T07:35:39.524Z</time></trkpt><trkpt lat="43.844598" lon="12.6648163"><ele>321.0</ele><time>2026-05-03T07:35:40.521Z</time></trkpt><trkpt lat="43.844671" lon="12.6648352"><ele>321.0</ele><time>2026-05-03T07:35:41.525Z</time></trkpt><trkpt lat="43.8447637" lon="12.6648531"><ele>321.0</ele><time>2026-05-03T07:35:42.521Z</time></trkpt><trkpt lat="43.8449639" lon="12.6649256"><ele>321.0</ele><time>2026-05-03T07:35:43.521Z</time></trkpt><trkpt lat="43.8450869" lon="12.664848"><ele>321.0</ele><time>2026-05-03T07:35:44.522Z</time></trkpt><trkpt lat="43.8451961" lon="12.6647062"><ele>320.5</ele><time>2026-05-03T07:35:45.521Z</time></trkpt><trkpt lat="43.845306" lon="12.6646007"><ele>320.0</ele><time>2026-05-03T07:35:46.522Z</time></trkpt><trkpt lat="43.8454203" lon="12.6645174"><ele>319.5</ele><time>2026-05-03T07:35:47.523Z</time></trkpt><trkpt lat="43.8455559" lon="12.6645466"><ele>319.0</ele><time>2026-05-03T07:35:48.523Z</time></trkpt><trkpt lat="43.8456502" lon="12.664608"><ele>319.0</ele><time>2026-05-03T07:35:49.523Z</time></trkpt><trkpt lat="43.8457286" lon="12.6647322"><ele>319.0</ele><time>2026-05-03T07:35:50.523Z</time></trkpt><trkpt lat="43.8457768" lon="12.6648654"><ele>319.0</ele><time>2026-05-03T07:35:51.517Z</time></trkpt><trkpt lat="43.8458079" lon="12.6651148"><ele>319.0</ele><time>2026-05-03T07:35:52.522Z</time></trkpt><trkpt lat="43.8459051" lon="12.6653288"><ele>317.0</ele><time>2026-05-03T07:35:53.523Z</time></trkpt><trkpt lat="43.8460276" lon="12.6655259"><ele>315.0</ele><time>2026-05-03T07:35:54.524Z</time></trkpt><trkpt lat="43.8461385" lon="12.6657418"><ele>313.0</ele><time>2026-05-03T07:35:55.523Z</time></trkpt><trkpt lat="43.846272" lon="12.6659126"><ele>313.0</ele><time>2026-05-03T07:35:56.524Z</time></trkpt><trkpt lat="43.8464338" lon="12.6660194"><ele>313.0</ele><time>2026-05-03T07:35:57.522Z</time></trkpt><trkpt lat="43.8465336" lon="12.6661985"><ele>313.0</ele><time>2026-05-03T07:35:58.522Z</time></trkpt><trkpt lat="43.8465915" lon="12.666358"><ele>316.5</ele><time>2026-05-03T07:35:59.524Z</time></trkpt><trkpt lat="43.8466191" lon="12.6665185"><ele>320.0</ele><time>2026-05-03T07:36:00.522Z</time></trkpt><trkpt lat="43.846667" lon="12.6666876"><ele>323.5</ele><time>2026-05-03T07:36:01.523Z</time></trkpt><trkpt lat="43.8467106" lon="12.6668607"><ele>327.0</ele><time>2026-05-03T07:36:02.523Z</time></trkpt><trkpt lat="43.8468054" lon="12.6669827"><ele>327.0</ele><time>2026-05-03T07:36:03.523Z</time></trkpt><trkpt lat="43.8470122" lon="12.6671243"><ele>327.0</ele><time>2026-05-03T07:36:04.523Z</time></trkpt><trkpt lat="43.8471954" lon="12.6672151"><ele>327.0</ele><time>2026-05-03T07:36:05.523Z</time></trkpt><trkpt lat="43.8474012" lon="12.6672291"><ele>327.0</ele><time>2026-05-03T07:36:06.523Z</time></trkpt><trkpt lat="43.8475786" lon="12.6672896"><ele>327.0</ele><time>2026-05-03T07:36:07.522Z</time></trkpt><trkpt lat="43.8477189" lon="12.6673481"><ele>327.0</ele><time>2026-05-03T07:36:08.524Z</time></trkpt><trkpt lat="43.8478544" lon="12.6673993"><ele>326.5</ele><time>2026-05-03T07:36:09.524Z</time></trkpt><trkpt lat="43.8479714" lon="12.6674816"><ele>326.0</ele><time>2026-05-03T07:36:10.522Z</time></trkpt><trkpt lat="43.8480729" lon="12.6675945"><ele>325.5</ele><time>2026-05-03T07:36:11.523Z</time></trkpt><trkpt lat="43.8481513" lon="12.6677467"><ele>325.0</ele><time>2026-05-03T07:36:12.515Z</time></trkpt><trkpt lat="43.8482126" lon="12.6679194"><ele>325.0</ele><time>2026-05-03T07:36:13.523Z</time></trkpt><trkpt lat="43.8482633" lon="12.6680923"><ele>325.0</ele><time>2026-05-03T07:36:14.519Z</time></trkpt><trkpt lat="43.848315" lon="12.6682746"><ele>325.0</ele><time>2026-05-03T07:36:15.523Z</time></trkpt><trkpt lat="43.8484273" lon="12.6684284"><ele>325.0</ele><time>2026-05-03T07:36:16.523Z</time></trkpt><trkpt lat="43.8485128" lon="12.66859"><ele>323.3333333333333</ele><time>2026-05-03T07:36:17.524Z</time></trkpt><trkpt lat="43.8486772" lon="12.6686713"><ele>321.6666666666667</ele><time>2026-05-03T07:36:18.522Z</time></trkpt><trkpt lat="43.8487771" lon="12.6688218"><ele>320.0</ele><time>2026-05-03T07:36:19.522Z</time></trkpt><trkpt lat="43.8488611" lon="12.6689898"><ele>320.0</ele><time>2026-05-03T07:36:20.522Z</time></trkpt><trkpt lat="43.848968" lon="12.6691375"><ele>320.0</ele><time>2026-05-03T07:36:21.523Z</time></trkpt><trkpt lat="43.8491042" lon="12.6692189"><ele>320.0</ele><time>2026-05-03T07:36:22.525Z</time></trkpt><trkpt lat="43.8492408" lon="12.6692494"><ele>320.0</ele><time>2026-05-03T07:36:23.523Z</time></trkpt><trkpt lat="43.8493817" lon="12.6693043"><ele>319.75</ele><time>2026-05-03T07:36:24.52Z</time></trkpt><trkpt lat="43.8494736" lon="12.6693508"><ele>319.5</ele><time>2026-05-03T07:36:25.524Z</time></trkpt><trkpt lat="43.8495984" lon="12.6694323"><ele>319.25</ele><time>2026-05-03T07:36:26.519Z</time></trkpt><trkpt lat="43.8497069" lon="12.6695989"><ele>319.0</ele><time>2026-05-03T07:36:27.52Z</time></trkpt><trkpt lat="43.8498053" lon="12.6697471"><ele>319.0</ele><time>2026-05-03T07:36:28.522Z</time></trkpt><trkpt lat="43.8499118" lon="12.6699461"><ele>319.0</ele><time>2026-05-03T07:36:29.523Z</time></trkpt><trkpt lat="43.8500156" lon="12.6701406"><ele>319.0</ele><time>2026-05-03T07:36:30.524Z</time></trkpt><trkpt lat="43.8501097" lon="12.6703328"><ele>318.25</ele><time>2026-05-03T07:36:31.524Z</time></trkpt><trkpt lat="43.850185" lon="12.6704749"><ele>317.5</ele><time>2026-05-03T07:36:32.521Z</time></trkpt><trkpt lat="43.8502971" lon="12.6706086"><ele>316.75</ele><time>2026-05-03T07:36:33.523Z</time></trkpt><trkpt lat="43.8504094" lon="12.6707031"><ele>316.0</ele><time>2026-05-03T07:36:34.524Z</time></trkpt><trkpt lat="43.8505254" lon="12.6707493"><ele>316.0</ele><time>2026-05-03T07:36:35.525Z</time></trkpt><trkpt lat="43.850643" lon="12.6707536"><ele>316.0</ele><time>2026-05-03T07:36:36.522Z</time></trkpt><trkpt lat="43.8507477" lon="12.6707412"><ele>316.0</ele><time>2026-05-03T07:36:37.521Z</time></trkpt><trkpt lat="43.8508468" lon="12.6707284"><ele>316.0</ele><time>2026-05-03T07:36:38.523Z</time></trkpt><trkpt lat="43.8509475" lon="12.6707079"><ele>316.0</ele><time>2026-05-03T07:36:39.523Z</time></trkpt><trkpt lat="43.8510378" lon="12.670667"><ele>319.4</ele><time>2026-05-03T07:36:40.523Z</time></trkpt><trkpt lat="43.8511214" lon="12.6706015"><ele>322.8</ele><time>2026-05-03T07:36:41.522Z</time></trkpt><trkpt lat="43.8511946" lon="12.6705066"><ele>326.2</ele><time>2026-05-03T07:36:42.522Z</time></trkpt><trkpt lat="43.8512563" lon="12.6703971"><ele>329.59999999999997</ele><time>2026-05-03T07:36:43.522Z</time></trkpt><trkpt lat="43.8513017" lon="12.6702577"><ele>333.0</ele><time>2026-05-03T07:36:44.522Z</time></trkpt><trkpt lat="43.8513436" lon="12.670105"><ele>333.0</ele><time>2026-05-03T07:36:45.523Z</time></trkpt><trkpt lat="43.8513802" lon="12.66995"><ele>333.0</ele><time>2026-05-03T07:36:46.525Z</time></trkpt><trkpt lat="43.8514182" lon="12.6697995"><ele>333.0</ele><time>2026-05-03T07:36:47.522Z</time></trkpt><trkpt lat="43.8514524" lon="12.6696514"><ele>333.0</ele><time>2026-05-03T07:36:48.522Z</time></trkpt><trkpt lat="43.8514917" lon="12.6694989"><ele>331.79999999999995</ele><time>2026-05-03T07:36:49.523Z</time></trkpt><trkpt lat="43.851528" lon="12.6693566"><ele>330.6</ele><time>2026-05-03T07:36:50.521Z</time></trkpt><trkpt lat="43.8515602" lon="12.6692278"><ele>329.4</ele><time>2026-05-03T07:36:51.524Z</time></trkpt><trkpt lat="43.8515897" lon="12.6691181"><ele>328.20000000000005</ele><time>2026-05-03T07:36:52.521Z</time></trkpt><trkpt lat="43.8516245" lon="12.6690294"><ele>327.0</ele><time>2026-05-03T07:36:53.522Z</time></trkpt><trkpt lat="43.8517364" lon="12.669029"><ele>328.6</ele><time>2026-05-03T07:36:54.522Z</time></trkpt><trkpt lat="43.8518107" lon="12.6690481"><ele>330.20000000000005</ele><time>2026-05-03T07:36:55.523Z</time></trkpt><trkpt lat="43.8518969" lon="12.6691214"><ele>331.8</ele><time>2026-05-03T07:36:56.522Z</time></trkpt><trkpt lat="43.8519957" lon="12.6691944"><ele>333.4</ele><time>2026-05-03T07:36:57.524Z</time></trkpt><trkpt lat="43.8521141" lon="12.669242"><ele>335.0</ele><time>2026-05-03T07:36:58.522Z</time></trkpt><trkpt lat="43.8522177" lon="12.6693025"><ele>335.0</ele><time>2026-05-03T07:36:59.523Z</time></trkpt><trkpt lat="43.8523269" lon="12.6693533"><ele>335.0</ele><time>2026-05-03T07:37:00.523Z</time></trkpt><trkpt lat="43.8524004" lon="12.6692342"><ele>335.0</ele><time>2026-05-03T07:37:01.521Z</time></trkpt><trkpt lat="43.8524932" lon="12.669222"><ele>335.0</ele><time>2026-05-03T07:37:02.523Z</time></trkpt><trkpt lat="43.8525908" lon="12.6690963"><ele>335.0</ele><time>2026-05-03T07:37:04.522Z</time></trkpt><trkpt lat="43.8526561" lon="12.6690565"><ele>335.0</ele><time>2026-05-03T07:37:05.524Z</time></trkpt><trkpt lat="43.852695" lon="12.6691362"><ele>335.0</ele><time>2026-05-03T07:37:06.523Z</time></trkpt><trkpt lat="43.8526484" lon="12.6692811"><ele>335.0</ele><time>2026-05-03T07:37:08.523Z</time></trkpt><trkpt lat="43.8525857" lon="12.6693482"><ele>335.0</ele><time>2026-05-03T07:37:09.522Z</time></trkpt><trkpt lat="43.8524923" lon="12.6694127"><ele>335.0</ele><time>2026-05-03T07:37:10.522Z</time></trkpt><trkpt lat="43.8524147" lon="12.6694767"><ele>339.2</ele><time>2026-05-03T07:37:11.523Z</time></trkpt><trkpt lat="43.8523077" lon="12.6695799"><ele>343.4</ele><time>2026-05-03T07:37:12.522Z</time></trkpt><trkpt lat="43.8522199" lon="12.6696579"><ele>347.6</ele><time>2026-05-03T07:37:13.524Z</time></trkpt><trkpt lat="43.8521346" lon="12.6697392"><ele>351.8</ele><time>2026-05-03T07:37:14.524Z</time></trkpt><trkpt lat="43.852071" lon="12.6698351"><ele>356.0</ele><time>2026-05-03T07:37:15.523Z</time></trkpt><trkpt lat="43.8520383" lon="12.6699353"><ele>356.0</ele><time>2026-05-03T07:37:16.522Z</time></trkpt><trkpt lat="43.8520463" lon="12.6700349"><ele>356.0</ele><time>2026-05-03T07:37:17.523Z</time></trkpt><trkpt lat="43.8520704" lon="12.6701254"><ele>356.0</ele><time>2026-05-03T07:37:18.522Z</time></trkpt><trkpt lat="43.8521568" lon="12.6701313"><ele>356.0</ele><time>2026-05-03T07:37:19.523Z</time></trkpt><trkpt lat="43.852242" lon="12.6700933"><ele>356.0</ele><time>2026-05-03T07:37:20.522Z</time></trkpt><trkpt lat="43.8523234" lon="12.6700057"><ele>356.0</ele><time>2026-05-03T07:37:21.522Z</time></trkpt><trkpt lat="43.8524153" lon="12.6698988"><ele>356.0</ele><time>2026-05-03T07:37:22.522Z</time></trkpt><trkpt lat="43.8524972" lon="12.6697993"><ele>356.0</ele><time>2026-05-03T07:37:23.523Z</time></trkpt><trkpt lat="43.8525695" lon="12.6697253"><ele>356.0</ele><time>2026-05-03T07:37:24.524Z</time></trkpt><trkpt lat="43.8526361" lon="12.6696588"><ele>356.0</ele><time>2026-05-03T07:37:25.522Z</time></trkpt><trkpt lat="43.852687" lon="12.6697273"><ele>356.0</ele><time>2026-05-03T07:37:26.522Z</time></trkpt><trkpt lat="43.8527103" lon="12.6698545"><ele>356.0</ele><time>2026-05-03T07:37:28.522Z</time></trkpt><trkpt lat="43.8525598" lon="12.6700557"><ele>356.0</ele><time>2026-05-03T07:37:30.522Z</time></trkpt><trkpt lat="43.852457" lon="12.6701758"><ele>356.0</ele><time>2026-05-03T07:37:31.517Z</time></trkpt><trkpt lat="43.8523714" lon="12.6702881"><ele>356.0</ele><time>2026-05-03T07:37:32.518Z</time></trkpt><trkpt lat="43.8522994" lon="12.6704013"><ele>356.0</ele><time>2026-05-03T07:37:33.517Z</time></trkpt><trkpt lat="43.8522526" lon="12.6705323"><ele>359.0</ele><time>2026-05-03T07:37:34.517Z</time></trkpt><trkpt lat="43.8522282" lon="12.6706674"><ele>362.0</ele><time>2026-05-03T07:37:35.518Z</time></trkpt><trkpt lat="43.8522487" lon="12.6708152"><ele>365.0</ele><time>2026-05-03T07:37:36.514Z</time></trkpt><trkpt lat="43.8523082" lon="12.6709595"><ele>368.0</ele><time>2026-05-03T07:37:37.522Z</time></trkpt><trkpt lat="43.8523954" lon="12.6710942"><ele>370.75</ele><time>2026-05-03T07:37:38.518Z</time></trkpt><trkpt lat="43.8524873" lon="12.6712387"><ele>373.5</ele><time>2026-05-03T07:37:39.519Z</time></trkpt><trkpt lat="43.8525781" lon="12.67139"><ele>376.25</ele><time>2026-05-03T07:37:40.523Z</time></trkpt><trkpt lat="43.8526812" lon="12.6715277"><ele>379.0</ele><time>2026-05-03T07:37:41.523Z</time></trkpt><trkpt lat="43.8527844" lon="12.6716436"><ele>379.0</ele><time>2026-05-03T07:37:42.525Z</time></trkpt><trkpt lat="43.85289" lon="12.6717289"><ele>379.0</ele><time>2026-05-03T07:37:43.523Z</time></trkpt><trkpt lat="43.8529975" lon="12.6717853"><ele>379.0</ele><time>2026-05-03T07:37:44.524Z</time></trkpt><trkpt lat="43.8531039" lon="12.6718311"><ele>379.0</ele><time>2026-05-03T07:37:45.525Z</time></trkpt><trkpt lat="43.8532119" lon="12.6718824"><ele>374.75</ele><time>2026-05-03T07:37:46.523Z</time></trkpt><trkpt lat="43.8533236" lon="12.6719435"><ele>370.5</ele><time>2026-05-03T07:37:47.522Z</time></trkpt><trkpt lat="43.8534397" lon="12.6719885"><ele>366.25</ele><time>2026-05-03T07:37:48.522Z</time></trkpt><trkpt lat="43.8535669" lon="12.672035"><ele>362.0</ele><time>2026-05-03T07:37:49.524Z</time></trkpt><trkpt lat="43.8537077" lon="12.6720548"><ele>362.0</ele><time>2026-05-03T07:37:50.522Z</time></trkpt><trkpt lat="43.8538432" lon="12.672062"><ele>362.0</ele><time>2026-05-03T07:37:51.523Z</time></trkpt><trkpt lat="43.8539787" lon="12.6720484"><ele>362.0</ele><time>2026-05-03T07:37:52.521Z</time></trkpt><trkpt lat="43.8540972" lon="12.6720294"><ele>362.0</ele><time>2026-05-03T07:37:53.522Z</time></trkpt><trkpt lat="43.8542124" lon="12.6720183"><ele>363.40000000000003</ele><time>2026-05-03T07:37:54.516Z</time></trkpt><trkpt lat="43.8543237" lon="12.6719923"><ele>364.8</ele><time>2026-05-03T07:37:55.521Z</time></trkpt><trkpt lat="43.8544376" lon="12.6719643"><ele>366.2</ele><time>2026-05-03T07:37:56.522Z</time></trkpt><trkpt lat="43.8545426" lon="12.6719418"><ele>367.6</ele><time>2026-05-03T07:37:57.525Z</time></trkpt><trkpt lat="43.8546561" lon="12.6719278"><ele>369.0</ele><time>2026-05-03T07:37:58.524Z</time></trkpt><trkpt lat="43.8547655" lon="12.6719337"><ele>369.0</ele><time>2026-05-03T07:37:59.523Z</time></trkpt><trkpt lat="43.8548638" lon="12.6719295"><ele>369.0</ele><time>2026-05-03T07:38:00.524Z</time></trkpt><trkpt lat="43.854957" lon="12.671954"><ele>369.0</ele><time>2026-05-03T07:38:01.525Z</time></trkpt><trkpt lat="43.8550495" lon="12.671981"><ele>369.0</ele><time>2026-05-03T07:38:02.522Z</time></trkpt><trkpt lat="43.8551415" lon="12.6720078"><ele>369.0</ele><time>2026-05-03T07:38:03.526Z</time></trkpt><trkpt lat="43.8552268" lon="12.6720377"><ele>370.2</ele><time>2026-05-03T07:38:04.524Z</time></trkpt><trkpt lat="43.8553211" lon="12.6720478"><ele>371.4</ele><time>2026-05-03T07:38:05.521Z</time></trkpt><trkpt lat="43.855413" lon="12.672061"><ele>372.6</ele><time>2026-05-03T07:38:06.524Z</time></trkpt><trkpt lat="43.8555125" lon="12.6720552"><ele>373.8</ele><time>2026-05-03T07:38:07.526Z</time></trkpt><trkpt lat="43.8556142" lon="12.6720506"><ele>375.0</ele><time>2026-05-03T07:38:08.524Z</time></trkpt><trkpt lat="43.8557141" lon="12.6720345"><ele>375.0</ele><time>2026-05-03T07:38:09.523Z</time></trkpt><trkpt lat="43.8558015" lon="12.6720322"><ele>375.0</ele><time>2026-05-03T07:38:10.523Z</time></trkpt><trkpt lat="43.8558972" lon="12.6720028"><ele>375.0</ele><time>2026-05-03T07:38:11.522Z</time></trkpt><trkpt lat="43.8559803" lon="12.6719942"><ele>375.0</ele><time>2026-05-03T07:38:12.526Z</time></trkpt><trkpt lat="43.8560578" lon="12.671983"><ele>375.0</ele><time>2026-05-03T07:38:13.523Z</time></trkpt><trkpt lat="43.8561303" lon="12.6719669"><ele>375.0</ele><time>2026-05-03T07:38:14.521Z</time></trkpt><trkpt lat="43.8562361" lon="12.6719403"><ele>377.4</ele><time>2026-05-03T07:38:16.522Z</time></trkpt><trkpt lat="43.8563093" lon="12.6718958"><ele>379.8</ele><time>2026-05-03T07:38:18.523Z</time></trkpt><trkpt lat="43.8563281" lon="12.6717808"><ele>382.20000000000005</ele><time>2026-05-03T07:38:23.522Z</time></trkpt><trkpt lat="43.8564638" lon="12.6717302"><ele>384.6</ele><time>2026-05-03T07:38:25.523Z</time></trkpt><trkpt lat="43.8565351" lon="12.6717285"><ele>387.0</ele><time>2026-05-03T07:38:26.523Z</time></trkpt><trkpt lat="43.8566143" lon="12.6717198"><ele>387.0</ele><time>2026-05-03T07:38:27.522Z</time></trkpt><trkpt lat="43.8566837" lon="12.6717552"><ele>387.0</ele><time>2026-05-03T07:38:28.522Z</time></trkpt><trkpt lat="43.8567664" lon="12.6717844"><ele>387.0</ele><time>2026-05-03T07:38:29.522Z</time></trkpt><trkpt lat="43.856829" lon="12.6718192"><ele>387.0</ele><time>2026-05-03T07:38:30.523Z</time></trkpt><trkpt lat="43.8569048" lon="12.6718547"><ele>387.0</ele><time>2026-05-03T07:38:31.524Z</time></trkpt><trkpt lat="43.8569664" lon="12.6718789"><ele>387.0</ele><time>2026-05-03T07:38:32.524Z</time></trkpt><trkpt lat="43.8570327" lon="12.6719029"><ele>387.0</ele><time>2026-05-03T07:38:33.524Z</time></trkpt><trkpt lat="43.8571501" lon="12.6719511"><ele>386.20000000000005</ele><time>2026-05-03T07:38:35.523Z</time></trkpt><trkpt lat="43.8572639" lon="12.6719849"><ele>385.4</ele><time>2026-05-03T07:38:37.523Z</time></trkpt><trkpt lat="43.8573279" lon="12.6720114"><ele>384.6</ele><time>2026-05-03T07:38:38.525Z</time></trkpt><trkpt lat="43.8574408" lon="12.6719555"><ele>383.79999999999995</ele><time>2026-05-03T07:38:40.516Z</time></trkpt><trkpt lat="43.8575038" lon="12.6718193"><ele>383.0</ele><time>2026-05-03T07:38:42.518Z</time></trkpt><trkpt lat="43.8575633" lon="12.6717021"><ele>383.1666666666667</ele><time>2026-05-03T07:38:44.521Z</time></trkpt><trkpt lat="43.8576484" lon="12.6715806"><ele>383.33333333333337</ele><time>2026-05-03T07:38:46.522Z</time></trkpt><trkpt lat="43.8576955" lon="12.6715063"><ele>383.5</ele><time>2026-05-03T07:38:47.52Z</time></trkpt><trkpt lat="43.8577384" lon="12.6714336"><ele>383.6666666666667</ele><time>2026-05-03T07:38:48.522Z</time></trkpt><trkpt lat="43.8577898" lon="12.6713466"><ele>383.8333333333333</ele><time>2026-05-03T07:38:49.524Z</time></trkpt><trkpt lat="43.8578351" lon="12.6712529"><ele>384.0</ele><time>2026-05-03T07:38:50.523Z</time></trkpt><trkpt lat="43.8578729" lon="12.6711633"><ele>383.0</ele><time>2026-05-03T07:38:51.522Z</time></trkpt><trkpt lat="43.8578733" lon="12.6709816"><ele>382.0</ele><time>2026-05-03T07:38:52.521Z</time></trkpt><trkpt lat="43.8578747" lon="12.6708291"><ele>381.0</ele><time>2026-05-03T07:38:53.523Z</time></trkpt><trkpt lat="43.8578738" lon="12.6706837"><ele>380.0</ele><time>2026-05-03T07:38:54.523Z</time></trkpt><trkpt lat="43.8578779" lon="12.6705394"><ele>380.0</ele><time>2026-05-03T07:38:55.525Z</time></trkpt><trkpt lat="43.857888" lon="12.6704034"><ele>380.0</ele><time>2026-05-03T07:38:56.519Z</time></trkpt><trkpt lat="43.8579175" lon="12.6702747"><ele>380.0</ele><time>2026-05-03T07:38:57.525Z</time></trkpt><trkpt lat="43.8579485" lon="12.6701457"><ele>380.0</ele><time>2026-05-03T07:38:58.523Z</time></trkpt><trkpt lat="43.8580209" lon="12.6700208"><ele>380.0</ele><time>2026-05-03T07:38:59.523Z</time></trkpt><trkpt lat="43.8581064" lon="12.6699209"><ele>379.0</ele><time>2026-05-03T07:39:00.527Z</time></trkpt><trkpt lat="43.8582147" lon="12.6698431"><ele>378.0</ele><time>2026-05-03T07:39:01.521Z</time></trkpt><trkpt lat="43.8583263" lon="12.669775"><ele>377.0</ele><time>2026-05-03T07:39:02.52Z</time></trkpt><trkpt lat="43.8584366" lon="12.6697003"><ele>376.0</ele><time>2026-05-03T07:39:03.523Z</time></trkpt><trkpt lat="43.8585385" lon="12.6696359"><ele>370.25</ele><time>2026-05-03T07:39:04.522Z</time></trkpt><trkpt lat="43.8586486" lon="12.6695526"><ele>364.5</ele><time>2026-05-03T07:39:05.522Z</time></trkpt><trkpt lat="43.8587626" lon="12.6694615"><ele>358.75</ele><time>2026-05-03T07:39:06.52Z</time></trkpt><trkpt lat="43.8588843" lon="12.6694059"><ele>353.0</ele><time>2026-05-03T07:39:07.522Z</time></trkpt><trkpt lat="43.8589437" lon="12.6692764"><ele>353.0</ele><time>2026-05-03T07:39:08.521Z</time></trkpt><trkpt lat="43.8588239" lon="12.6689554"><ele>353.0</ele><time>2026-05-03T07:39:09.518Z</time></trkpt><trkpt lat="43.8588085" lon="12.6687817"><ele>353.0</ele><time>2026-05-03T07:39:10.522Z</time></trkpt><trkpt lat="43.858774" lon="12.668606"><ele>351.33333333333337</ele><time>2026-05-03T07:39:11.512Z</time></trkpt><trkpt lat="43.8586298" lon="12.6684189"><ele>349.6666666666667</ele><time>2026-05-03T07:39:12.518Z</time></trkpt><trkpt lat="43.8585379" lon="12.6682519"><ele>348.0</ele><time>2026-05-03T07:39:13.522Z</time></trkpt><trkpt lat="43.8584521" lon="12.6680948"><ele>347.0</ele><time>2026-05-03T07:39:14.52Z</time></trkpt><trkpt lat="43.8584353" lon="12.6679452"><ele>346.0</ele><time>2026-05-03T07:39:15.522Z</time></trkpt><trkpt lat="43.8584318" lon="12.6677781"><ele>345.0</ele><time>2026-05-03T07:39:16.521Z</time></trkpt><trkpt lat="43.8584457" lon="12.6676131"><ele>344.0</ele><time>2026-05-03T07:39:17.522Z</time></trkpt><trkpt lat="43.8585215" lon="12.6674259"><ele>344.0</ele><time>2026-05-03T07:39:18.521Z</time></trkpt><trkpt lat="43.8585858" lon="12.6672248"><ele>344.0</ele><time>2026-05-03T07:39:19.513Z</time></trkpt><trkpt lat="43.8586512" lon="12.6670272"><ele>344.0</ele><time>2026-05-03T07:39:20.52Z</time></trkpt><trkpt lat="43.8587306" lon="12.6668365"><ele>346.5</ele><time>2026-05-03T07:39:21.515Z</time></trkpt><trkpt lat="43.8588125" lon="12.6666578"><ele>349.0</ele><time>2026-05-03T07:39:22.524Z</time></trkpt><trkpt lat="43.8588997" lon="12.6664886"><ele>351.5</ele><time>2026-05-03T07:39:23.524Z</time></trkpt><trkpt lat="43.8590101" lon="12.6663583"><ele>354.0</ele><time>2026-05-03T07:39:24.522Z</time></trkpt><trkpt lat="43.8591435" lon="12.6662776"><ele>354.0</ele><time>2026-05-03T07:39:25.523Z</time></trkpt><trkpt lat="43.8592613" lon="12.6661823"><ele>354.0</ele><time>2026-05-03T07:39:26.522Z</time></trkpt><trkpt lat="43.8594539" lon="12.6662043"><ele>354.0</ele><time>2026-05-03T07:39:27.523Z</time></trkpt><trkpt lat="43.8596111" lon="12.666204"><ele>350.3333333333333</ele><time>2026-05-03T07:39:28.523Z</time></trkpt><trkpt lat="43.8597671" lon="12.6662212"><ele>346.66666666666663</ele><time>2026-05-03T07:39:29.524Z</time></trkpt><trkpt lat="43.8598994" lon="12.6662113"><ele>343.0</ele><time>2026-05-03T07:39:30.523Z</time></trkpt><trkpt lat="43.8600715" lon="12.6662535"><ele>340.5</ele><time>2026-05-03T07:39:31.523Z</time></trkpt><trkpt lat="43.8603225" lon="12.6663333"><ele>338.0</ele><time>2026-05-03T07:39:32.522Z</time></trkpt><trkpt lat="43.86055" lon="12.6663645"><ele>338.0</ele><time>2026-05-03T07:39:33.523Z</time></trkpt><trkpt lat="43.8607213" lon="12.6664028"><ele>338.0</ele><time>2026-05-03T07:39:34.523Z</time></trkpt><trkpt lat="43.8609262" lon="12.6664157"><ele>338.0</ele><time>2026-05-03T07:39:35.524Z</time></trkpt><trkpt lat="43.8611172" lon="12.666426"><ele>336.6666666666667</ele><time>2026-05-03T07:39:36.524Z</time></trkpt><trkpt lat="43.8612948" lon="12.6664521"><ele>335.3333333333333</ele><time>2026-05-03T07:39:37.523Z</time></trkpt><trkpt lat="43.8614586" lon="12.6664872"><ele>334.0</ele><time>2026-05-03T07:39:38.525Z</time></trkpt><trkpt lat="43.86162" lon="12.6665209"><ele>334.0</ele><time>2026-05-03T07:39:39.523Z</time></trkpt><trkpt lat="43.8617532" lon="12.6665562"><ele>334.0</ele><time>2026-05-03T07:39:40.523Z</time></trkpt><trkpt lat="43.8618967" lon="12.666591"><ele>334.0</ele><time>2026-05-03T07:39:41.523Z</time></trkpt><trkpt lat="43.8620245" lon="12.6666313"><ele>334.0</ele><time>2026-05-03T07:39:42.523Z</time></trkpt><trkpt lat="43.8621574" lon="12.6666534"><ele>333.75</ele><time>2026-05-03T07:39:43.524Z</time></trkpt><trkpt lat="43.8622772" lon="12.6666886"><ele>333.5</ele><time>2026-05-03T07:39:44.523Z</time></trkpt><trkpt lat="43.8624168" lon="12.6667092"><ele>333.25</ele><time>2026-05-03T07:39:45.526Z</time></trkpt><trkpt lat="43.8625651" lon="12.6667403"><ele>333.0</ele><time>2026-05-03T07:39:46.524Z</time></trkpt><trkpt lat="43.8627222" lon="12.6667637"><ele>332.6666666666667</ele><time>2026-05-03T07:39:47.522Z</time></trkpt><trkpt lat="43.8629076" lon="12.6667889"><ele>332.33333333333337</ele><time>2026-05-03T07:39:48.523Z</time></trkpt><trkpt lat="43.8630853" lon="12.666808"><ele>332.0</ele><time>2026-05-03T07:39:49.523Z</time></trkpt><trkpt lat="43.8632628" lon="12.6668201"><ele>332.0</ele><time>2026-05-03T07:39:50.524Z</time></trkpt><trkpt lat="43.8634427" lon="12.66683"><ele>332.0</ele><time>2026-05-03T07:39:51.523Z</time></trkpt><trkpt lat="43.8636042" lon="12.6668661"><ele>332.0</ele><time>2026-05-03T07:39:52.523Z</time></trkpt><trkpt lat="43.8637671" lon="12.6669009"><ele>329.6666666666667</ele><time>2026-05-03T07:39:53.523Z</time></trkpt><trkpt lat="43.8639431" lon="12.6669128"><ele>327.3333333333333</ele><time>2026-05-03T07:39:54.523Z</time></trkpt><trkpt lat="43.8641255" lon="12.6668993"><ele>325.0</ele><time>2026-05-03T07:39:55.523Z</time></trkpt><trkpt lat="43.8643019" lon="12.6668734"><ele>322.3333333333333</ele><time>2026-05-03T07:39:56.522Z</time></trkpt><trkpt lat="43.8644859" lon="12.6668326"><ele>319.6666666666667</ele><time>2026-05-03T07:39:57.523Z</time></trkpt><trkpt lat="43.8646385" lon="12.6667855"><ele>317.0</ele><time>2026-05-03T07:39:58.524Z</time></trkpt><trkpt lat="43.8648067" lon="12.6667202"><ele>317.0</ele><time>2026-05-03T07:39:59.522Z</time></trkpt><trkpt lat="43.8649725" lon="12.6666618"><ele>317.0</ele><time>2026-05-03T07:40:00.523Z</time></trkpt><trkpt lat="43.8651347" lon="12.6666064"><ele>317.0</ele><time>2026-05-03T07:40:01.522Z</time></trkpt><trkpt lat="43.8653029" lon="12.6665508"><ele>313.33333333333337</ele><time>2026-05-03T07:40:02.522Z</time></trkpt><trkpt lat="43.8654734" lon="12.666493"><ele>309.6666666666667</ele><time>2026-05-03T07:40:03.522Z</time></trkpt><trkpt lat="43.8656503" lon="12.6664428"><ele>306.0</ele><time>2026-05-03T07:40:04.523Z</time></trkpt><trkpt lat="43.8658233" lon="12.6663803"><ele>303.3333333333333</ele><time>2026-05-03T07:40:05.523Z</time></trkpt><trkpt lat="43.8659952" lon="12.666316"><ele>300.66666666666663</ele><time>2026-05-03T07:40:06.522Z</time></trkpt><trkpt lat="43.866156" lon="12.6662408"><ele>298.0</ele><time>2026-05-03T07:40:07.519Z</time></trkpt><trkpt lat="43.8663158" lon="12.6661655"><ele>301.66666666666663</ele><time>2026-05-03T07:40:08.525Z</time></trkpt><trkpt lat="43.8664642" lon="12.6660788"><ele>305.3333333333333</ele><time>2026-05-03T07:40:09.518Z</time></trkpt><trkpt lat="43.8666163" lon="12.6659873"><ele>309.0</ele><time>2026-05-03T07:40:10.519Z</time></trkpt><trkpt lat="43.8667742" lon="12.6659027"><ele>311.3333333333333</ele><time>2026-05-03T07:40:11.519Z</time></trkpt><trkpt lat="43.8669312" lon="12.6658178"><ele>313.66666666666663</ele><time>2026-05-03T07:40:12.517Z</time></trkpt><trkpt lat="43.8670905" lon="12.6657395"><ele>316.0</ele><time>2026-05-03T07:40:13.519Z</time></trkpt><trkpt lat="43.8672452" lon="12.6656639"><ele>316.0</ele><time>2026-05-03T07:40:14.517Z</time></trkpt><trkpt lat="43.8673946" lon="12.6655741"><ele>316.0</ele><time>2026-05-03T07:40:15.517Z</time></trkpt><trkpt lat="43.8675268" lon="12.6654698"><ele>316.0</ele><time>2026-05-03T07:40:16.512Z</time></trkpt><trkpt lat="43.867639" lon="12.6653492"><ele>318.0</ele><time>2026-05-03T07:40:17.519Z</time></trkpt><trkpt lat="43.8677146" lon="12.6652181"><ele>320.0</ele><time>2026-05-03T07:40:18.523Z</time></trkpt><trkpt lat="43.867765" lon="12.6650794"><ele>322.0</ele><time>2026-05-03T07:40:19.523Z</time></trkpt><trkpt lat="43.8678018" lon="12.6649563"><ele>324.0</ele><time>2026-05-03T07:40:20.524Z</time></trkpt><trkpt lat="43.8678499" lon="12.6648166"><ele>326.0</ele><time>2026-05-03T07:40:21.526Z</time></trkpt><trkpt lat="43.8679071" lon="12.6646916"><ele>326.0</ele><time>2026-05-03T07:40:23.523Z</time></trkpt><trkpt lat="43.8679716" lon="12.6646322"><ele>326.0</ele><time>2026-05-03T07:40:24.525Z</time></trkpt><trkpt lat="43.8680335" lon="12.6645859"><ele>326.0</ele><time>2026-05-03T07:40:25.525Z</time></trkpt><trkpt lat="43.8681186" lon="12.6645826"><ele>326.0</ele><time>2026-05-03T07:40:26.526Z</time></trkpt><trkpt lat="43.8682034" lon="12.6646047"><ele>326.0</ele><time>2026-05-03T07:40:27.522Z</time></trkpt><trkpt lat="43.8682894" lon="12.6646495"><ele>326.0</ele><time>2026-05-03T07:40:28.522Z</time></trkpt><trkpt lat="43.8683903" lon="12.664727"><ele>324.5</ele><time>2026-05-03T07:40:29.521Z</time></trkpt><trkpt lat="43.8684891" lon="12.6648131"><ele>323.0</ele><time>2026-05-03T07:40:30.521Z</time></trkpt><trkpt lat="43.8685899" lon="12.6649075"><ele>321.5</ele><time>2026-05-03T07:40:31.522Z</time></trkpt><trkpt lat="43.8686829" lon="12.6650157"><ele>320.0</ele><time>2026-05-03T07:40:32.522Z</time></trkpt><trkpt lat="43.8688009" lon="12.6651256"><ele>320.0</ele><time>2026-05-03T07:40:33.522Z</time></trkpt><trkpt lat="43.868918" lon="12.6652338"><ele>320.0</ele><time>2026-05-03T07:40:34.521Z</time></trkpt><trkpt lat="43.869022" lon="12.6653525"><ele>320.0</ele><time>2026-05-03T07:40:35.521Z</time></trkpt><trkpt lat="43.8691304" lon="12.6654753"><ele>320.0</ele><time>2026-05-03T07:40:36.521Z</time></trkpt><trkpt lat="43.8692313" lon="12.6655908"><ele>323.5</ele><time>2026-05-03T07:40:37.522Z</time></trkpt><trkpt lat="43.8693352" lon="12.6657009"><ele>327.0</ele><time>2026-05-03T07:40:38.522Z</time></trkpt><trkpt lat="43.8694354" lon="12.6658095"><ele>330.5</ele><time>2026-05-03T07:40:39.522Z</time></trkpt><trkpt lat="43.8695279" lon="12.6659331"><ele>334.0</ele><time>2026-05-03T07:40:40.522Z</time></trkpt><trkpt lat="43.8696076" lon="12.6660813"><ele>336.75</ele><time>2026-05-03T07:40:41.521Z</time></trkpt><trkpt lat="43.8696838" lon="12.6662471"><ele>339.5</ele><time>2026-05-03T07:40:42.523Z</time></trkpt><trkpt lat="43.8697474" lon="12.6664355"><ele>342.25</ele><time>2026-05-03T07:40:43.522Z</time></trkpt><trkpt lat="43.8698054" lon="12.6666334"><ele>345.0</ele><time>2026-05-03T07:40:44.523Z</time></trkpt><trkpt lat="43.8698764" lon="12.666836"><ele>343.3333333333333</ele><time>2026-05-03T07:40:45.522Z</time></trkpt><trkpt lat="43.8699656" lon="12.6670281"><ele>341.66666666666663</ele><time>2026-05-03T07:40:46.518Z</time></trkpt><trkpt lat="43.8700423" lon="12.6672269"><ele>340.0</ele><time>2026-05-03T07:40:47.524Z</time></trkpt><trkpt lat="43.870123" lon="12.6674336"><ele>344.3333333333333</ele><time>2026-05-03T07:40:48.518Z</time></trkpt><trkpt lat="43.8702004" lon="12.6676552"><ele>348.6666666666667</ele><time>2026-05-03T07:40:49.522Z</time></trkpt><trkpt lat="43.8702616" lon="12.6678919"><ele>353.0</ele><time>2026-05-03T07:40:50.522Z</time></trkpt><trkpt lat="43.8703076" lon="12.668142"><ele>353.0</ele><time>2026-05-03T07:40:51.522Z</time></trkpt><trkpt lat="43.870335" lon="12.6683898"><ele>353.0</ele><time>2026-05-03T07:40:52.522Z</time></trkpt><trkpt lat="43.8703576" lon="12.6686274"><ele>353.0</ele><time>2026-05-03T07:40:53.52Z</time></trkpt><trkpt lat="43.8703743" lon="12.6688646"><ele>349.25</ele><time>2026-05-03T07:40:54.525Z</time></trkpt><trkpt lat="43.8704137" lon="12.6690586"><ele>345.5</ele><time>2026-05-03T07:40:55.523Z</time></trkpt><trkpt lat="43.8704785" lon="12.6692246"><ele>341.75</ele><time>2026-05-03T07:40:56.522Z</time></trkpt><trkpt lat="43.8705857" lon="12.6692644"><ele>338.0</ele><time>2026-05-03T07:40:57.519Z</time></trkpt><trkpt lat="43.8706794" lon="12.6693203"><ele>338.0</ele><time>2026-05-03T07:40:58.519Z</time></trkpt><trkpt lat="43.870767" lon="12.6693255"><ele>338.0</ele><time>2026-05-03T07:40:59.518Z</time></trkpt><trkpt lat="43.870908" lon="12.6692482"><ele>338.0</ele><time>2026-05-03T07:41:00.522Z</time></trkpt><trkpt lat="43.8710903" lon="12.6690035"><ele>336.6666666666667</ele><time>2026-05-03T07:41:01.522Z</time></trkpt><trkpt lat="43.8712294" lon="12.6689483"><ele>335.3333333333333</ele><time>2026-05-03T07:41:02.518Z</time></trkpt><trkpt lat="43.8713949" lon="12.6689"><ele>334.0</ele><time>2026-05-03T07:41:03.52Z</time></trkpt><trkpt lat="43.8715467" lon="12.6688977"><ele>334.0</ele><time>2026-05-03T07:41:04.52Z</time></trkpt><trkpt lat="43.8716964" lon="12.6689068"><ele>334.0</ele><time>2026-05-03T07:41:05.52Z</time></trkpt><trkpt lat="43.8718408" lon="12.6689191"><ele>334.0</ele><time>2026-05-03T07:41:06.506Z</time></trkpt><trkpt lat="43.871962" lon="12.6689712"><ele>334.0</ele><time>2026-05-03T07:41:07.519Z</time></trkpt><trkpt lat="43.8720828" lon="12.6690223"><ele>333.5</ele><time>2026-05-03T07:41:08.516Z</time></trkpt><trkpt lat="43.8721942" lon="12.6690955"><ele>333.0</ele><time>2026-05-03T07:41:09.519Z</time></trkpt><trkpt lat="43.8722802" lon="12.6692065"><ele>332.5</ele><time>2026-05-03T07:41:10.519Z</time></trkpt><trkpt lat="43.8723413" lon="12.669342"><ele>332.0</ele><time>2026-05-03T07:41:11.515Z</time></trkpt><trkpt lat="43.8723907" lon="12.669498"><ele>332.0</ele><time>2026-05-03T07:41:12.511Z</time></trkpt><trkpt lat="43.8724664" lon="12.6696448"><ele>332.0</ele><time>2026-05-03T07:41:13.519Z</time></trkpt><trkpt lat="43.8725707" lon="12.669775"><ele>332.0</ele><time>2026-05-03T07:41:14.518Z</time></trkpt><trkpt lat="43.8726825" lon="12.6698846"><ele>332.0</ele><time>2026-05-03T07:41:15.518Z</time></trkpt><trkpt lat="43.8728058" lon="12.66997"><ele>332.40000000000003</ele><time>2026-05-03T07:41:16.519Z</time></trkpt><trkpt lat="43.8729183" lon="12.6700282"><ele>332.8</ele><time>2026-05-03T07:41:17.515Z</time></trkpt><trkpt lat="43.8730247" lon="12.6700638"><ele>333.2</ele><time>2026-05-03T07:41:18.521Z</time></trkpt><trkpt lat="43.8731107" lon="12.6700743"><ele>333.6</ele><time>2026-05-03T07:41:19.516Z</time></trkpt><trkpt lat="43.8731865" lon="12.6700616"><ele>334.0</ele><time>2026-05-03T07:41:20.513Z</time></trkpt><trkpt lat="43.8732715" lon="12.670001"><ele>334.0</ele><time>2026-05-03T07:41:21.52Z</time></trkpt><trkpt lat="43.8733649" lon="12.6698901"><ele>334.0</ele><time>2026-05-03T07:41:22.511Z</time></trkpt><trkpt lat="43.8734574" lon="12.6697586"><ele>334.0</ele><time>2026-05-03T07:41:23.513Z</time></trkpt><trkpt lat="43.8735488" lon="12.6696212"><ele>334.0</ele><time>2026-05-03T07:41:24.514Z</time></trkpt><trkpt lat="43.8736382" lon="12.6694872"><ele>332.25</ele><time>2026-05-03T07:41:25.519Z</time></trkpt><trkpt lat="43.8737351" lon="12.6693444"><ele>330.5</ele><time>2026-05-03T07:41:26.515Z</time></trkpt><trkpt lat="43.8738251" lon="12.6692067"><ele>328.75</ele><time>2026-05-03T07:41:27.514Z</time></trkpt><trkpt lat="43.8739167" lon="12.6690687"><ele>327.0</ele><time>2026-05-03T07:41:28.523Z</time></trkpt><trkpt lat="43.8740079" lon="12.6689299"><ele>327.0</ele><time>2026-05-03T07:41:29.524Z</time></trkpt><trkpt lat="43.8741009" lon="12.6687867"><ele>327.0</ele><time>2026-05-03T07:41:30.524Z</time></trkpt><trkpt lat="43.8741676" lon="12.6686863"><ele>327.0</ele><time>2026-05-03T07:41:31.524Z</time></trkpt><trkpt lat="43.8742349" lon="12.6685887"><ele>327.0</ele><time>2026-05-03T07:41:32.524Z</time></trkpt><trkpt lat="43.8742865" lon="12.6685092"><ele>327.0</ele><time>2026-05-03T07:41:33.524Z</time></trkpt><trkpt lat="43.8743458" lon="12.6684716"><ele>325.20000000000005</ele><time>2026-05-03T07:41:34.506Z</time></trkpt><trkpt lat="43.8744628" lon="12.6685592"><ele>323.40000000000003</ele><time>2026-05-03T07:41:36.523Z</time></trkpt><trkpt lat="43.8745142" lon="12.6686467"><ele>321.6</ele><time>2026-05-03T07:41:37.523Z</time></trkpt><trkpt lat="43.87455" lon="12.6687553"><ele>319.8</ele><time>2026-05-03T07:41:38.525Z</time></trkpt><trkpt lat="43.8745575" lon="12.6689277"><ele>318.0</ele><time>2026-05-03T07:41:39.523Z</time></trkpt><trkpt lat="43.8745247" lon="12.6691587"><ele>316.3333333333333</ele><time>2026-05-03T07:41:40.524Z</time></trkpt><trkpt lat="43.8745008" lon="12.6693796"><ele>314.66666666666663</ele><time>2026-05-03T07:41:41.522Z</time></trkpt><trkpt lat="43.8744895" lon="12.6695978"><ele>313.0</ele><time>2026-05-03T07:41:42.523Z</time></trkpt><trkpt lat="43.8744553" lon="12.6698345"><ele>313.0</ele><time>2026-05-03T07:41:43.638Z</time></trkpt><trkpt lat="43.8742669" lon="12.6703463"><ele>313.0</ele><time>2026-05-03T07:41:45.522Z</time></trkpt><trkpt lat="43.8741411" lon="12.6706327"><ele>313.0</ele><time>2026-05-03T07:41:46.523Z</time></trkpt><trkpt lat="43.8740343" lon="12.6709032"><ele>313.0</ele><time>2026-05-03T07:41:47.518Z</time></trkpt><trkpt lat="43.873925" lon="12.6711688"><ele>313.0</ele><time>2026-05-03T07:41:48.523Z</time></trkpt><trkpt lat="43.8738251" lon="12.6714132"><ele>308.66666666666663</ele><time>2026-05-03T07:41:49.523Z</time></trkpt><trkpt lat="43.8737245" lon="12.671668"><ele>304.3333333333333</ele><time>2026-05-03T07:41:50.522Z</time></trkpt><trkpt lat="43.8736427" lon="12.6719229"><ele>300.0</ele><time>2026-05-03T07:41:51.52Z</time></trkpt><trkpt lat="43.8735661" lon="12.6721694"><ele>301.3333333333333</ele><time>2026-05-03T07:41:52.524Z</time></trkpt><trkpt lat="43.873498" lon="12.6724159"><ele>302.66666666666663</ele><time>2026-05-03T07:41:53.523Z</time></trkpt><trkpt lat="43.873423" lon="12.6726662"><ele>304.0</ele><time>2026-05-03T07:41:54.524Z</time></trkpt><trkpt lat="43.8733431" lon="12.6729126"><ele>304.0</ele><time>2026-05-03T07:41:55.524Z</time></trkpt><trkpt lat="43.8732695" lon="12.6731513"><ele>304.0</ele><time>2026-05-03T07:41:56.523Z</time></trkpt><trkpt lat="43.8732" lon="12.6733826"><ele>304.0</ele><time>2026-05-03T07:41:57.523Z</time></trkpt><trkpt lat="43.8731425" lon="12.6736148"><ele>304.0</ele><time>2026-05-03T07:41:58.519Z</time></trkpt><trkpt lat="43.8730866" lon="12.673852"><ele>304.0</ele><time>2026-05-03T07:41:59.52Z</time></trkpt><trkpt lat="43.8730794" lon="12.6741033"><ele>304.0</ele><time>2026-05-03T07:42:00.52Z</time></trkpt><trkpt lat="43.8730855" lon="12.674356"><ele>301.66666666666663</ele><time>2026-05-03T07:42:01.518Z</time></trkpt><trkpt lat="43.873126" lon="12.6746134"><ele>299.3333333333333</ele><time>2026-05-03T07:42:02.515Z</time></trkpt><trkpt lat="43.8731934" lon="12.6748646"><ele>297.0</ele><time>2026-05-03T07:42:03.517Z</time></trkpt><trkpt lat="43.8732713" lon="12.675124"><ele>296.6666666666667</ele><time>2026-05-03T07:42:04.519Z</time></trkpt><trkpt lat="43.8733551" lon="12.6753886"><ele>296.33333333333337</ele><time>2026-05-03T07:42:05.515Z</time></trkpt><trkpt lat="43.8734346" lon="12.6756463"><ele>296.0</ele><time>2026-05-03T07:42:06.518Z</time></trkpt><trkpt lat="43.8735093" lon="12.6758927"><ele>291.6666666666667</ele><time>2026-05-03T07:42:07.522Z</time></trkpt><trkpt lat="43.8735827" lon="12.6761089"><ele>287.3333333333333</ele><time>2026-05-03T07:42:08.523Z</time></trkpt><trkpt lat="43.8736501" lon="12.6763119"><ele>283.0</ele><time>2026-05-03T07:42:09.524Z</time></trkpt><trkpt lat="43.8737351" lon="12.6764756"><ele>283.0</ele><time>2026-05-03T07:42:10.511Z</time></trkpt><trkpt lat="43.8738447" lon="12.6766025"><ele>283.0</ele><time>2026-05-03T07:42:11.519Z</time></trkpt><trkpt lat="43.8739694" lon="12.6766671"><ele>283.0</ele><time>2026-05-03T07:42:12.517Z</time></trkpt><trkpt lat="43.874123" lon="12.6766787"><ele>283.0</ele><time>2026-05-03T07:42:13.518Z</time></trkpt><trkpt lat="43.8742814" lon="12.6766301"><ele>279.0</ele><time>2026-05-03T07:42:14.511Z</time></trkpt><trkpt lat="43.8744332" lon="12.6765355"><ele>275.0</ele><time>2026-05-03T07:42:15.52Z</time></trkpt><trkpt lat="43.8745899" lon="12.6764359"><ele>271.0</ele><time>2026-05-03T07:42:16.519Z</time></trkpt><trkpt lat="43.8747472" lon="12.676337"><ele>271.0</ele><time>2026-05-03T07:42:17.518Z</time></trkpt><trkpt lat="43.8749046" lon="12.6762504"><ele>271.0</ele><time>2026-05-03T07:42:18.519Z</time></trkpt><trkpt lat="43.8750501" lon="12.676141"><ele>271.0</ele><time>2026-05-03T07:42:19.52Z</time></trkpt><trkpt lat="43.875176" lon="12.675986"><ele>268.3333333333333</ele><time>2026-05-03T07:42:20.523Z</time></trkpt><trkpt lat="43.8752846" lon="12.6757839"><ele>265.6666666666667</ele><time>2026-05-03T07:42:21.523Z</time></trkpt><trkpt lat="43.8753899" lon="12.6755538"><ele>263.0</ele><time>2026-05-03T07:42:22.523Z</time></trkpt><trkpt lat="43.8754936" lon="12.6753199"><ele>263.33333333333337</ele><time>2026-05-03T07:42:23.523Z</time></trkpt><trkpt lat="43.8755887" lon="12.6750838"><ele>263.6666666666667</ele><time>2026-05-03T07:42:24.523Z</time></trkpt><trkpt lat="43.8756691" lon="12.6748559"><ele>264.0</ele><time>2026-05-03T07:42:25.523Z</time></trkpt><trkpt lat="43.8757355" lon="12.6746238"><ele>264.6666666666667</ele><time>2026-05-03T07:42:26.523Z</time></trkpt><trkpt lat="43.8757784" lon="12.6743943"><ele>265.33333333333337</ele><time>2026-05-03T07:42:27.524Z</time></trkpt><trkpt lat="43.8757788" lon="12.6741723"><ele>266.0</ele><time>2026-05-03T07:42:28.523Z</time></trkpt><trkpt lat="43.8757836" lon="12.6739558"><ele>266.0</ele><time>2026-05-03T07:42:29.525Z</time></trkpt><trkpt lat="43.8757289" lon="12.6737376"><ele>266.0</ele><time>2026-05-03T07:42:30.52Z</time></trkpt><trkpt lat="43.8757115" lon="12.6734989"><ele>266.0</ele><time>2026-05-03T07:42:31.52Z</time></trkpt><trkpt lat="43.8757232" lon="12.6732467"><ele>266.0</ele><time>2026-05-03T07:42:32.524Z</time></trkpt><trkpt lat="43.8757676" lon="12.6729904"><ele>266.0</ele><time>2026-05-03T07:42:33.523Z</time></trkpt><trkpt lat="43.8758187" lon="12.6727495"><ele>266.0</ele><time>2026-05-03T07:42:34.524Z</time></trkpt><trkpt lat="43.8758739" lon="12.6725055"><ele>264.6666666666667</ele><time>2026-05-03T07:42:35.522Z</time></trkpt><trkpt lat="43.8759213" lon="12.6722618"><ele>263.3333333333333</ele><time>2026-05-03T07:42:36.518Z</time></trkpt><trkpt lat="43.8759721" lon="12.6720364"><ele>262.0</ele><time>2026-05-03T07:42:37.523Z</time></trkpt><trkpt lat="43.8760456" lon="12.6718301"><ele>259.3333333333333</ele><time>2026-05-03T07:42:38.522Z</time></trkpt><trkpt lat="43.8761507" lon="12.6716494"><ele>256.6666666666667</ele><time>2026-05-03T07:42:39.521Z</time></trkpt><trkpt lat="43.8762743" lon="12.6715012"><ele>254.0</ele><time>2026-05-03T07:42:40.526Z</time></trkpt><trkpt lat="43.876429" lon="12.6713918"><ele>254.0</ele><time>2026-05-03T07:42:41.523Z</time></trkpt><trkpt lat="43.8766064" lon="12.6713192"><ele>254.0</ele><time>2026-05-03T07:42:42.523Z</time></trkpt><trkpt lat="43.8767897" lon="12.6712862"><ele>254.0</ele><time>2026-05-03T07:42:43.522Z</time></trkpt><trkpt lat="43.8769905" lon="12.6712703"><ele>251.0</ele><time>2026-05-03T07:42:44.522Z</time></trkpt><trkpt lat="43.8771842" lon="12.6712346"><ele>248.0</ele><time>2026-05-03T07:42:45.522Z</time></trkpt><trkpt lat="43.8773742" lon="12.671214"><ele>245.0</ele><time>2026-05-03T07:42:46.521Z</time></trkpt><trkpt lat="43.8775664" lon="12.6711844"><ele>245.66666666666669</ele><time>2026-05-03T07:42:47.523Z</time></trkpt><trkpt lat="43.8777442" lon="12.6711589"><ele>246.33333333333331</ele><time>2026-05-03T07:42:48.523Z</time></trkpt><trkpt lat="43.8779277" lon="12.6711298"><ele>247.0</ele><time>2026-05-03T07:42:49.523Z</time></trkpt><trkpt lat="43.8781044" lon="12.6711016"><ele>247.0</ele><time>2026-05-03T07:42:50.518Z</time></trkpt><trkpt lat="43.8782669" lon="12.6710788"><ele>247.0</ele><time>2026-05-03T07:42:51.525Z</time></trkpt><trkpt lat="43.878429" lon="12.6710631"><ele>247.0</ele><time>2026-05-03T07:42:52.521Z</time></trkpt><trkpt lat="43.8785795" lon="12.6710464"><ele>244.0</ele><time>2026-05-03T07:42:53.524Z</time></trkpt><trkpt lat="43.878735" lon="12.6710169"><ele>241.0</ele><time>2026-05-03T07:42:54.523Z</time></trkpt><trkpt lat="43.8788733" lon="12.6710119"><ele>238.0</ele><time>2026-05-03T07:42:55.522Z</time></trkpt><trkpt lat="43.8790055" lon="12.670966"><ele>235.0</ele><time>2026-05-03T07:42:56.523Z</time></trkpt><trkpt lat="43.879131" lon="12.6708782"><ele>235.0</ele><time>2026-05-03T07:42:57.524Z</time></trkpt><trkpt lat="43.8792509" lon="12.6707469"><ele>235.0</ele><time>2026-05-03T07:42:58.523Z</time></trkpt><trkpt lat="43.8793671" lon="12.6706219"><ele>235.0</ele><time>2026-05-03T07:42:59.522Z</time></trkpt><trkpt lat="43.8794586" lon="12.6704378"><ele>233.75</ele><time>2026-05-03T07:43:00.522Z</time></trkpt><trkpt lat="43.8795773" lon="12.6702825"><ele>232.5</ele><time>2026-05-03T07:43:01.52Z</time></trkpt><trkpt lat="43.8796979" lon="12.6701769"><ele>231.25</ele><time>2026-05-03T07:43:02.52Z</time></trkpt><trkpt lat="43.8798226" lon="12.6700855"><ele>230.0</ele><time>2026-05-03T07:43:03.522Z</time></trkpt><trkpt lat="43.879962" lon="12.6700379"><ele>226.75</ele><time>2026-05-03T07:43:04.524Z</time></trkpt><trkpt lat="43.8801007" lon="12.6700143"><ele>223.5</ele><time>2026-05-03T07:43:05.522Z</time></trkpt><trkpt lat="43.880253" lon="12.6699811"><ele>220.25</ele><time>2026-05-03T07:43:06.518Z</time></trkpt><trkpt lat="43.8804033" lon="12.6699368"><ele>217.0</ele><time>2026-05-03T07:43:07.524Z</time></trkpt><trkpt lat="43.8805531" lon="12.6698695"><ele>217.0</ele><time>2026-05-03T07:43:08.517Z</time></trkpt><trkpt lat="43.8806948" lon="12.6698002"><ele>217.0</ele><time>2026-05-03T07:43:09.523Z</time></trkpt><trkpt lat="43.880794" lon="12.6696663"><ele>217.0</ele><time>2026-05-03T07:43:10.523Z</time></trkpt><trkpt lat="43.8808812" lon="12.6695188"><ele>217.0</ele><time>2026-05-03T07:43:11.523Z</time></trkpt><trkpt lat="43.8809299" lon="12.6693535"><ele>213.0</ele><time>2026-05-03T07:43:12.523Z</time></trkpt><trkpt lat="43.880975" lon="12.6691483"><ele>209.0</ele><time>2026-05-03T07:43:13.523Z</time></trkpt><trkpt lat="43.8810183" lon="12.6689217"><ele>205.0</ele><time>2026-05-03T07:43:14.523Z</time></trkpt><trkpt lat="43.8810654" lon="12.6686988"><ele>205.33333333333331</ele><time>2026-05-03T07:43:15.521Z</time></trkpt><trkpt lat="43.8811064" lon="12.6684825"><ele>205.66666666666669</ele><time>2026-05-03T07:43:16.524Z</time></trkpt><trkpt lat="43.881152" lon="12.6682678"><ele>206.0</ele><time>2026-05-03T07:43:17.522Z</time></trkpt><trkpt lat="43.8811909" lon="12.668066"><ele>206.0</ele><time>2026-05-03T07:43:18.523Z</time></trkpt><trkpt lat="43.8812323" lon="12.6678802"><ele>206.0</ele><time>2026-05-03T07:43:19.525Z</time></trkpt><trkpt lat="43.8812659" lon="12.6677074"><ele>206.0</ele><time>2026-05-03T07:43:20.523Z</time></trkpt><trkpt lat="43.8813235" lon="12.6676144"><ele>206.0</ele><time>2026-05-03T07:43:21.523Z</time></trkpt><trkpt lat="43.8813952" lon="12.6675373"><ele>206.0</ele><time>2026-05-03T07:43:22.522Z</time></trkpt><trkpt lat="43.8814797" lon="12.6675304"><ele>206.0</ele><time>2026-05-03T07:43:23.521Z</time></trkpt><trkpt lat="43.881546" lon="12.6675867"><ele>206.0</ele><time>2026-05-03T07:43:24.524Z</time></trkpt><trkpt lat="43.8815774" lon="12.6676823"><ele>206.0</ele><time>2026-05-03T07:43:25.522Z</time></trkpt><trkpt lat="43.8815844" lon="12.6678887"><ele>206.0</ele><time>2026-05-03T07:43:26.524Z</time></trkpt><trkpt lat="43.8815832" lon="12.6680981"><ele>206.0</ele><time>2026-05-03T07:43:27.523Z</time></trkpt><trkpt lat="43.8815746" lon="12.6683143"><ele>206.0</ele><time>2026-05-03T07:43:28.524Z</time></trkpt><trkpt lat="43.8815695" lon="12.6685355"><ele>206.0</ele><time>2026-05-03T07:43:29.523Z</time></trkpt><trkpt lat="43.8815608" lon="12.6687549"><ele>205.66666666666669</ele><time>2026-05-03T07:43:30.524Z</time></trkpt><trkpt lat="43.8815539" lon="12.6689844"><ele>205.33333333333331</ele><time>2026-05-03T07:43:31.522Z</time></trkpt><trkpt lat="43.8815464" lon="12.6692111"><ele>205.0</ele><time>2026-05-03T07:43:32.522Z</time></trkpt><trkpt lat="43.8815425" lon="12.6694344"><ele>204.25</ele><time>2026-05-03T07:43:33.524Z</time></trkpt><trkpt lat="43.8815593" lon="12.6696443"><ele>203.5</ele><time>2026-05-03T07:43:34.524Z</time></trkpt><trkpt lat="43.8816063" lon="12.6698368"><ele>202.75</ele><time>2026-05-03T07:43:35.52Z</time></trkpt><trkpt lat="43.8816807" lon="12.6699986"><ele>202.0</ele><time>2026-05-03T07:43:36.521Z</time></trkpt><trkpt lat="43.8817839" lon="12.670122"><ele>200.33333333333331</ele><time>2026-05-03T07:43:37.52Z</time></trkpt><trkpt lat="43.8819127" lon="12.6702021"><ele>198.66666666666669</ele><time>2026-05-03T07:43:38.523Z</time></trkpt><trkpt lat="43.8820588" lon="12.6702655"><ele>197.0</ele><time>2026-05-03T07:43:39.522Z</time></trkpt><trkpt lat="43.8822146" lon="12.6703166"><ele>196.0</ele><time>2026-05-03T07:43:40.524Z</time></trkpt><trkpt lat="43.8823664" lon="12.6703708"><ele>195.0</ele><time>2026-05-03T07:43:41.523Z</time></trkpt><trkpt lat="43.8825168" lon="12.6704343"><ele>194.0</ele><time>2026-05-03T07:43:42.523Z</time></trkpt><trkpt lat="43.8826628" lon="12.6705094"><ele>193.33333333333334</ele><time>2026-05-03T07:43:43.523Z</time></trkpt><trkpt lat="43.8828082" lon="12.6706098"><ele>192.66666666666669</ele><time>2026-05-03T07:43:44.521Z</time></trkpt><trkpt lat="43.8829506" lon="12.6707338"><ele>192.0</ele><time>2026-05-03T07:43:45.523Z</time></trkpt><trkpt lat="43.8830987" lon="12.6708827"><ele>192.0</ele><time>2026-05-03T07:43:46.524Z</time></trkpt><trkpt lat="43.8832398" lon="12.6710495"><ele>192.0</ele><time>2026-05-03T07:43:47.522Z</time></trkpt><trkpt lat="43.8833814" lon="12.6712056"><ele>192.0</ele><time>2026-05-03T07:43:48.524Z</time></trkpt><trkpt lat="43.8835276" lon="12.6713463"><ele>191.0</ele><time>2026-05-03T07:43:49.528Z</time></trkpt><trkpt lat="43.8836765" lon="12.6714702"><ele>190.0</ele><time>2026-05-03T07:43:50.525Z</time></trkpt><trkpt lat="43.8838311" lon="12.6715783"><ele>189.0</ele><time>2026-05-03T07:43:51.518Z</time></trkpt><trkpt lat="43.8839911" lon="12.6716664"><ele>189.0</ele><time>2026-05-03T07:43:52.523Z</time></trkpt><trkpt lat="43.8841512" lon="12.6717515"><ele>189.0</ele><time>2026-05-03T07:43:53.518Z</time></trkpt><trkpt lat="43.8843041" lon="12.6718413"><ele>189.0</ele><time>2026-05-03T07:43:54.525Z</time></trkpt><trkpt lat="43.88445" lon="12.6719477"><ele>189.0</ele><time>2026-05-03T07:43:55.524Z</time></trkpt><trkpt lat="43.8846032" lon="12.6720565"><ele>189.0</ele><time>2026-05-03T07:43:56.523Z</time></trkpt><trkpt lat="43.884749" lon="12.6721734"><ele>189.0</ele><time>2026-05-03T07:43:57.523Z</time></trkpt><trkpt lat="43.8848946" lon="12.6722789"><ele>189.0</ele><time>2026-05-03T07:43:58.523Z</time></trkpt><trkpt lat="43.8850425" lon="12.6723808"><ele>189.0</ele><time>2026-05-03T07:43:59.524Z</time></trkpt><trkpt lat="43.8851847" lon="12.6724918"><ele>189.0</ele><time>2026-05-03T07:44:00.524Z</time></trkpt><trkpt lat="43.8853429" lon="12.6725915"><ele>188.0</ele><time>2026-05-03T07:44:01.523Z</time></trkpt><trkpt lat="43.885497" lon="12.672685"><ele>187.0</ele><time>2026-05-03T07:44:02.522Z</time></trkpt><trkpt lat="43.8856603" lon="12.6727737"><ele>186.0</ele><time>2026-05-03T07:44:03.523Z</time></trkpt><trkpt lat="43.8858321" lon="12.6728678"><ele>184.33333333333334</ele><time>2026-05-03T07:44:04.525Z</time></trkpt><trkpt lat="43.8860021" lon="12.6729644"><ele>182.66666666666669</ele><time>2026-05-03T07:44:05.523Z</time></trkpt><trkpt lat="43.8861805" lon="12.6730669"><ele>181.0</ele><time>2026-05-03T07:44:06.523Z</time></trkpt><trkpt lat="43.886363" lon="12.6731749"><ele>181.0</ele><time>2026-05-03T07:44:07.519Z</time></trkpt><trkpt lat="43.8865514" lon="12.6732825"><ele>181.0</ele><time>2026-05-03T07:44:08.522Z</time></trkpt><trkpt lat="43.886739" lon="12.6733836"><ele>181.0</ele><time>2026-05-03T07:44:09.523Z</time></trkpt><trkpt lat="43.8869202" lon="12.6734795"><ele>181.0</ele><time>2026-05-03T07:44:10.523Z</time></trkpt><trkpt lat="43.887095" lon="12.673568"><ele>181.0</ele><time>2026-05-03T07:44:11.523Z</time></trkpt><trkpt lat="43.8872577" lon="12.673649"><ele>181.0</ele><time>2026-05-03T07:44:12.523Z</time></trkpt><trkpt lat="43.8874195" lon="12.6737226"><ele>179.5</ele><time>2026-05-03T07:44:13.638Z</time></trkpt><trkpt lat="43.8877306" lon="12.6738513"><ele>178.0</ele><time>2026-05-03T07:44:15.523Z</time></trkpt><trkpt lat="43.8878903" lon="12.6739104"><ele>178.0</ele><time>2026-05-03T07:44:16.524Z</time></trkpt><trkpt lat="43.8880563" lon="12.6739601"><ele>178.0</ele><time>2026-05-03T07:44:17.524Z</time></trkpt><trkpt lat="43.8882172" lon="12.6740109"><ele>178.0</ele><time>2026-05-03T07:44:18.526Z</time></trkpt><trkpt lat="43.8883724" lon="12.6740608"><ele>177.33333333333334</ele><time>2026-05-03T07:44:19.523Z</time></trkpt><trkpt lat="43.8885267" lon="12.6741223"><ele>176.66666666666666</ele><time>2026-05-03T07:44:20.524Z</time></trkpt><trkpt lat="43.888691" lon="12.6741688"><ele>176.0</ele><time>2026-05-03T07:44:21.522Z</time></trkpt><trkpt lat="43.8888597" lon="12.6742587"><ele>176.0</ele><time>2026-05-03T07:44:22.524Z</time></trkpt><trkpt lat="43.8890283" lon="12.6743391"><ele>176.0</ele><time>2026-05-03T07:44:23.522Z</time></trkpt><trkpt lat="43.8891896" lon="12.6744373"><ele>176.0</ele><time>2026-05-03T07:44:24.525Z</time></trkpt><trkpt lat="43.8893353" lon="12.6745516"><ele>176.66666666666666</ele><time>2026-05-03T07:44:25.524Z</time></trkpt><trkpt lat="43.8894762" lon="12.6746841"><ele>177.33333333333334</ele><time>2026-05-03T07:44:26.523Z</time></trkpt><trkpt lat="43.8896083" lon="12.6748382"><ele>178.0</ele><time>2026-05-03T07:44:27.523Z</time></trkpt><trkpt lat="43.8897293" lon="12.675012"><ele>178.0</ele><time>2026-05-03T07:44:28.525Z</time></trkpt><trkpt lat="43.8898416" lon="12.6752083"><ele>178.0</ele><time>2026-05-03T07:44:29.522Z</time></trkpt><trkpt lat="43.8899489" lon="12.675421"><ele>178.0</ele><time>2026-05-03T07:44:30.523Z</time></trkpt><trkpt lat="43.8900613" lon="12.6756292"><ele>178.33333333333334</ele><time>2026-05-03T07:44:31.524Z</time></trkpt><trkpt lat="43.8901827" lon="12.6758454"><ele>178.66666666666666</ele><time>2026-05-03T07:44:32.523Z</time></trkpt><trkpt lat="43.8903028" lon="12.6760682"><ele>179.0</ele><time>2026-05-03T07:44:33.523Z</time></trkpt><trkpt lat="43.8904217" lon="12.6762939"><ele>181.33333333333331</ele><time>2026-05-03T07:44:34.524Z</time></trkpt><trkpt lat="43.8905444" lon="12.6765118"><ele>183.66666666666666</ele><time>2026-05-03T07:44:35.524Z</time></trkpt><trkpt lat="43.8906711" lon="12.6767235"><ele>186.0</ele><time>2026-05-03T07:44:36.529Z</time></trkpt><trkpt lat="43.8908008" lon="12.6769346"><ele>186.66666666666666</ele><time>2026-05-03T07:44:37.523Z</time></trkpt><trkpt lat="43.890956" lon="12.6771371"><ele>187.33333333333331</ele><time>2026-05-03T07:44:38.525Z</time></trkpt><trkpt lat="43.8910882" lon="12.6773234"><ele>188.0</ele><time>2026-05-03T07:44:39.524Z</time></trkpt><trkpt lat="43.8912497" lon="12.6774883"><ele>188.0</ele><time>2026-05-03T07:44:40.523Z</time></trkpt><trkpt lat="43.8913897" lon="12.6776375"><ele>188.0</ele><time>2026-05-03T07:44:41.523Z</time></trkpt><trkpt lat="43.8914927" lon="12.6777396"><ele>188.0</ele><time>2026-05-03T07:44:42.524Z</time></trkpt><trkpt lat="43.8915917" lon="12.6779008"><ele>187.0</ele><time>2026-05-03T07:44:43.523Z</time></trkpt><trkpt lat="43.8917484" lon="12.6780672"><ele>186.0</ele><time>2026-05-03T07:44:44.521Z</time></trkpt><trkpt lat="43.8918885" lon="12.678207"><ele>185.0</ele><time>2026-05-03T07:44:45.525Z</time></trkpt><trkpt lat="43.8920403" lon="12.678377"><ele>184.33333333333331</ele><time>2026-05-03T07:44:46.523Z</time></trkpt><trkpt lat="43.8921767" lon="12.6785798"><ele>183.66666666666666</ele><time>2026-05-03T07:44:47.522Z</time></trkpt><trkpt lat="43.8922982" lon="12.6788194"><ele>183.0</ele><time>2026-05-03T07:44:48.517Z</time></trkpt><trkpt lat="43.8924284" lon="12.6790318"><ele>183.0</ele><time>2026-05-03T07:44:49.523Z</time></trkpt><trkpt lat="43.8925556" lon="12.679245"><ele>183.0</ele><time>2026-05-03T07:44:50.522Z</time></trkpt><trkpt lat="43.8926986" lon="12.6794423"><ele>183.0</ele><time>2026-05-03T07:44:51.523Z</time></trkpt><trkpt lat="43.8928237" lon="12.6796405"><ele>183.0</ele><time>2026-05-03T07:44:52.523Z</time></trkpt><trkpt lat="43.8929997" lon="12.6797911"><ele>183.0</ele><time>2026-05-03T07:44:53.524Z</time></trkpt><trkpt lat="43.8931664" lon="12.6799475"><ele>183.0</ele><time>2026-05-03T07:44:54.524Z</time></trkpt><trkpt lat="43.8933398" lon="12.680083"><ele>182.33333333333334</ele><time>2026-05-03T07:44:55.522Z</time></trkpt><trkpt lat="43.8935147" lon="12.6802177"><ele>181.66666666666669</ele><time>2026-05-03T07:44:56.521Z</time></trkpt><trkpt lat="43.8937083" lon="12.6803437"><ele>181.0</ele><time>2026-05-03T07:44:57.523Z</time></trkpt><trkpt lat="43.8938618" lon="12.680468"><ele>181.0</ele><time>2026-05-03T07:44:58.522Z</time></trkpt><trkpt lat="43.8940301" lon="12.6805902"><ele>181.0</ele><time>2026-05-03T07:44:59.521Z</time></trkpt><trkpt lat="43.8942062" lon="12.6807184"><ele>181.0</ele><time>2026-05-03T07:45:00.521Z</time></trkpt><trkpt lat="43.8943746" lon="12.6808405"><ele>180.66666666666669</ele><time>2026-05-03T07:45:01.52Z</time></trkpt><trkpt lat="43.8945525" lon="12.6809622"><ele>180.33333333333334</ele><time>2026-05-03T07:45:02.521Z</time></trkpt><trkpt lat="43.8947226" lon="12.6810935"><ele>180.0</ele><time>2026-05-03T07:45:03.523Z</time></trkpt><trkpt lat="43.8948846" lon="12.6811917"><ele>180.0</ele><time>2026-05-03T07:45:04.516Z</time></trkpt><trkpt lat="43.8950116" lon="12.6812949"><ele>180.0</ele><time>2026-05-03T07:45:05.522Z</time></trkpt><trkpt lat="43.8951547" lon="12.6813955"><ele>180.0</ele><time>2026-05-03T07:45:06.522Z</time></trkpt><trkpt lat="43.8952993" lon="12.6815029"><ele>179.33333333333334</ele><time>2026-05-03T07:45:07.522Z</time></trkpt><trkpt lat="43.8954421" lon="12.6816235"><ele>178.66666666666669</ele><time>2026-05-03T07:45:08.519Z</time></trkpt><trkpt lat="43.8955941" lon="12.6817226"><ele>178.0</ele><time>2026-05-03T07:45:09.519Z</time></trkpt><trkpt lat="43.8957381" lon="12.6818224"><ele>178.0</ele><time>2026-05-03T07:45:10.522Z</time></trkpt><trkpt lat="43.895875" lon="12.6819221"><ele>178.0</ele><time>2026-05-03T07:45:11.519Z</time></trkpt><trkpt lat="43.8960097" lon="12.6820137"><ele>178.0</ele><time>2026-05-03T07:45:12.522Z</time></trkpt><trkpt lat="43.8961427" lon="12.6821007"><ele>177.5</ele><time>2026-05-03T07:45:13.521Z</time></trkpt><trkpt lat="43.8962738" lon="12.6821845"><ele>177.0</ele><time>2026-05-03T07:45:14.522Z</time></trkpt><trkpt lat="43.8963822" lon="12.6822597"><ele>176.5</ele><time>2026-05-03T07:45:15.522Z</time></trkpt><trkpt lat="43.8964886" lon="12.6823345"><ele>176.0</ele><time>2026-05-03T07:45:16.522Z</time></trkpt><trkpt lat="43.8965437" lon="12.6823909"><ele>176.0</ele><time>2026-05-03T07:45:17.521Z</time></trkpt><trkpt lat="43.896607" lon="12.6824686"><ele>176.0</ele><time>2026-05-03T07:45:18.522Z</time></trkpt><trkpt lat="43.8966817" lon="12.6825814"><ele>176.0</ele><time>2026-05-03T07:45:20.521Z</time></trkpt><trkpt lat="43.8967866" lon="12.6825257"><ele>176.0</ele><time>2026-05-03T07:45:22.52Z</time></trkpt><trkpt lat="43.8968639" lon="12.6824341"><ele>176.0</ele><time>2026-05-03T07:45:23.523Z</time></trkpt><trkpt lat="43.8969418" lon="12.6823918"><ele>175.25</ele><time>2026-05-03T07:45:24.523Z</time></trkpt><trkpt lat="43.8970386" lon="12.6823502"><ele>174.5</ele><time>2026-05-03T07:45:25.523Z</time></trkpt><trkpt lat="43.8971462" lon="12.6823095"><ele>173.75</ele><time>2026-05-03T07:45:26.523Z</time></trkpt><trkpt lat="43.8972777" lon="12.6822523"><ele>173.0</ele><time>2026-05-03T07:45:27.522Z</time></trkpt><trkpt lat="43.8974158" lon="12.6821734"><ele>173.0</ele><time>2026-05-03T07:45:28.522Z</time></trkpt><trkpt lat="43.8975397" lon="12.6820878"><ele>173.0</ele><time>2026-05-03T07:45:29.523Z</time></trkpt><trkpt lat="43.8976699" lon="12.6819806"><ele>173.0</ele><time>2026-05-03T07:45:30.52Z</time></trkpt><trkpt lat="43.8977929" lon="12.6818626"><ele>173.0</ele><time>2026-05-03T07:45:31.522Z</time></trkpt><trkpt lat="43.8979342" lon="12.6817417"><ele>170.33333333333331</ele><time>2026-05-03T07:45:32.521Z</time></trkpt><trkpt lat="43.8981265" lon="12.6816964"><ele>167.66666666666666</ele><time>2026-05-03T07:45:33.522Z</time></trkpt><trkpt lat="43.8983101" lon="12.6816728"><ele>165.0</ele><time>2026-05-03T07:45:34.522Z</time></trkpt><trkpt lat="43.8984863" lon="12.6816561"><ele>164.33333333333334</ele><time>2026-05-03T07:45:35.521Z</time></trkpt><trkpt lat="43.8986619" lon="12.6816466"><ele>163.66666666666669</ele><time>2026-05-03T07:45:36.521Z</time></trkpt><trkpt lat="43.8988324" lon="12.6816547"><ele>163.0</ele><time>2026-05-03T07:45:37.522Z</time></trkpt><trkpt lat="43.8989743" lon="12.6816492"><ele>163.0</ele><time>2026-05-03T07:45:38.521Z</time></trkpt><trkpt lat="43.8991243" lon="12.681644"><ele>163.0</ele><time>2026-05-03T07:45:39.523Z</time></trkpt><trkpt lat="43.8992354" lon="12.6815909"><ele>163.0</ele><time>2026-05-03T07:45:40.525Z</time></trkpt><trkpt lat="43.8992082" lon="12.6813117"><ele>163.0</ele><time>2026-05-03T07:45:42.52Z</time></trkpt><trkpt lat="43.89924" lon="12.6811888"><ele>163.0</ele><time>2026-05-03T07:45:43.522Z</time></trkpt><trkpt lat="43.8991933" lon="12.6810415"><ele>163.0</ele><time>2026-05-03T07:45:44.521Z</time></trkpt><trkpt lat="43.8990731" lon="12.6808398"><ele>163.0</ele><time>2026-05-03T07:45:45.521Z</time></trkpt><trkpt lat="43.8989988" lon="12.6806216"><ele>160.66666666666669</ele><time>2026-05-03T07:45:46.522Z</time></trkpt><trkpt lat="43.8989319" lon="12.6803701"><ele>158.33333333333334</ele><time>2026-05-03T07:45:47.522Z</time></trkpt><trkpt lat="43.8988826" lon="12.6800586"><ele>156.0</ele><time>2026-05-03T07:45:48.523Z</time></trkpt><trkpt lat="43.8988646" lon="12.6797436"><ele>154.33333333333334</ele><time>2026-05-03T07:45:49.522Z</time></trkpt><trkpt lat="43.8989484" lon="12.6794956"><ele>152.66666666666669</ele><time>2026-05-03T07:45:50.52Z</time></trkpt><trkpt lat="43.8989499" lon="12.6792201"><ele>151.0</ele><time>2026-05-03T07:45:51.523Z</time></trkpt><trkpt lat="43.8989658" lon="12.6789944"><ele>150.0</ele><time>2026-05-03T07:45:52.52Z</time></trkpt><trkpt lat="43.8989713" lon="12.6787459"><ele>149.0</ele><time>2026-05-03T07:45:53.524Z</time></trkpt><trkpt lat="43.898966" lon="12.678488"><ele>148.0</ele><time>2026-05-03T07:45:54.52Z</time></trkpt><trkpt lat="43.8990173" lon="12.6782375"><ele>147.66666666666669</ele><time>2026-05-03T07:45:55.521Z</time></trkpt><trkpt lat="43.8990594" lon="12.6779842"><ele>147.33333333333334</ele><time>2026-05-03T07:45:56.524Z</time></trkpt><trkpt lat="43.8990982" lon="12.6777193"><ele>147.0</ele><time>2026-05-03T07:45:57.522Z</time></trkpt><trkpt lat="43.8991278" lon="12.6774728"><ele>147.0</ele><time>2026-05-03T07:45:58.52Z</time></trkpt><trkpt lat="43.8991759" lon="12.6772108"><ele>147.0</ele><time>2026-05-03T07:45:59.522Z</time></trkpt><trkpt lat="43.8992159" lon="12.6769612"><ele>147.0</ele><time>2026-05-03T07:46:00.523Z</time></trkpt><trkpt lat="43.8991968" lon="12.676742"><ele>146.33333333333334</ele><time>2026-05-03T07:46:01.522Z</time></trkpt><trkpt lat="43.8991531" lon="12.6765192"><ele>145.66666666666669</ele><time>2026-05-03T07:46:02.521Z</time></trkpt><trkpt lat="43.8990785" lon="12.6763017"><ele>145.0</ele><time>2026-05-03T07:46:03.522Z</time></trkpt><trkpt lat="43.8990468" lon="12.6761041"><ele>144.5</ele><time>2026-05-03T07:46:04.521Z</time></trkpt><trkpt lat="43.8990446" lon="12.6758982"><ele>144.0</ele><time>2026-05-03T07:46:05.521Z</time></trkpt><trkpt lat="43.8990943" lon="12.6757287"><ele>143.5</ele><time>2026-05-03T07:46:06.522Z</time></trkpt><trkpt lat="43.899153" lon="12.6755318"><ele>143.0</ele><time>2026-05-03T07:46:07.522Z</time></trkpt><trkpt lat="43.8993442" lon="12.6753229"><ele>140.66666666666666</ele><time>2026-05-03T07:46:08.52Z</time></trkpt><trkpt lat="43.8994608" lon="12.675126"><ele>138.33333333333334</ele><time>2026-05-03T07:46:09.522Z</time></trkpt><trkpt lat="43.8995911" lon="12.6749407"><ele>136.0</ele><time>2026-05-03T07:46:10.522Z</time></trkpt><trkpt lat="43.8997276" lon="12.6747561"><ele>136.0</ele><time>2026-05-03T07:46:11.524Z</time></trkpt><trkpt lat="43.8998652" lon="12.6745703"><ele>136.0</ele><time>2026-05-03T07:46:12.524Z</time></trkpt><trkpt lat="43.9000103" lon="12.6745087"><ele>136.0</ele><time>2026-05-03T07:46:13.522Z</time></trkpt><trkpt lat="43.900205" lon="12.6746253"><ele>133.33333333333334</ele><time>2026-05-03T07:46:14.524Z</time></trkpt><trkpt lat="43.900376" lon="12.6745971"><ele>130.66666666666666</ele><time>2026-05-03T07:46:15.524Z</time></trkpt><trkpt lat="43.9005577" lon="12.6745954"><ele>128.0</ele><time>2026-05-03T07:46:16.523Z</time></trkpt><trkpt lat="43.900716" lon="12.6745078"><ele>129.33333333333331</ele><time>2026-05-03T07:46:17.522Z</time></trkpt><trkpt lat="43.9008628" lon="12.6743727"><ele>130.66666666666666</ele><time>2026-05-03T07:46:18.518Z</time></trkpt><trkpt lat="43.9010107" lon="12.6742019"><ele>132.0</ele><time>2026-05-03T07:46:19.524Z</time></trkpt><trkpt lat="43.9011739" lon="12.6740364"><ele>128.66666666666666</ele><time>2026-05-03T07:46:20.525Z</time></trkpt><trkpt lat="43.9013536" lon="12.6739011"><ele>125.33333333333333</ele><time>2026-05-03T07:46:21.522Z</time></trkpt><trkpt lat="43.9015471" lon="12.673806"><ele>122.0</ele><time>2026-05-03T07:46:22.521Z</time></trkpt><trkpt lat="43.9017538" lon="12.6737271"><ele>121.33333333333333</ele><time>2026-05-03T07:46:23.523Z</time></trkpt><trkpt lat="43.9019491" lon="12.6736535"><ele>120.66666666666666</ele><time>2026-05-03T07:46:24.523Z</time></trkpt><trkpt lat="43.9021436" lon="12.6736014"><ele>120.0</ele><time>2026-05-03T07:46:25.523Z</time></trkpt><trkpt lat="43.9023415" lon="12.6735707"><ele>120.0</ele><time>2026-05-03T07:46:26.523Z</time></trkpt><trkpt lat="43.9025475" lon="12.673569"><ele>120.0</ele><time>2026-05-03T07:46:27.523Z</time></trkpt><trkpt lat="43.9027524" lon="12.6736158"><ele>120.0</ele><time>2026-05-03T07:46:28.522Z</time></trkpt><trkpt lat="43.9029534" lon="12.673706"><ele>117.66666666666666</ele><time>2026-05-03T07:46:29.523Z</time></trkpt><trkpt lat="43.903151" lon="12.6738189"><ele>115.33333333333333</ele><time>2026-05-03T07:46:30.525Z</time></trkpt><trkpt lat="43.9033376" lon="12.6739322"><ele>113.0</ele><time>2026-05-03T07:46:31.524Z</time></trkpt><trkpt lat="43.9035313" lon="12.6740505"><ele>112.33333333333333</ele><time>2026-05-03T07:46:32.518Z</time></trkpt><trkpt lat="43.9037176" lon="12.6741629"><ele>111.66666666666666</ele><time>2026-05-03T07:46:33.523Z</time></trkpt><trkpt lat="43.903897" lon="12.6742662"><ele>111.0</ele><time>2026-05-03T07:46:34.524Z</time></trkpt><trkpt lat="43.904078" lon="12.6743649"><ele>110.33333333333334</ele><time>2026-05-03T07:46:35.522Z</time></trkpt><trkpt lat="43.9042697" lon="12.6743396"><ele>109.66666666666667</ele><time>2026-05-03T07:46:36.523Z</time></trkpt><trkpt lat="43.9044437" lon="12.6743665"><ele>109.0</ele><time>2026-05-03T07:46:37.523Z</time></trkpt><trkpt lat="43.9046332" lon="12.6743848"><ele>107.0</ele><time>2026-05-03T07:46:38.521Z</time></trkpt><trkpt lat="43.9048082" lon="12.6744585"><ele>105.0</ele><time>2026-05-03T07:46:39.524Z</time></trkpt><trkpt lat="43.9049794" lon="12.6745898"><ele>103.0</ele><time>2026-05-03T07:46:40.523Z</time></trkpt><trkpt lat="43.90511" lon="12.6748847"><ele>103.0</ele><time>2026-05-03T07:46:41.522Z</time></trkpt><trkpt lat="43.9052555" lon="12.6750528"><ele>103.0</ele><time>2026-05-03T07:46:42.523Z</time></trkpt><trkpt lat="43.9054163" lon="12.6752043"><ele>103.0</ele><time>2026-05-03T07:46:43.522Z</time></trkpt><trkpt lat="43.9055824" lon="12.6753454"><ele>100.0</ele><time>2026-05-03T07:46:44.522Z</time></trkpt><trkpt lat="43.9057548" lon="12.6754648"><ele>97.0</ele><time>2026-05-03T07:46:45.522Z</time></trkpt><trkpt lat="43.9059212" lon="12.6755851"><ele>94.0</ele><time>2026-05-03T07:46:46.523Z</time></trkpt><trkpt lat="43.9060838" lon="12.6756904"><ele>93.0</ele><time>2026-05-03T07:46:47.521Z</time></trkpt><trkpt lat="43.9062567" lon="12.6757669"><ele>92.0</ele><time>2026-05-03T07:46:48.525Z</time></trkpt><trkpt lat="43.906435" lon="12.6758147"><ele>91.0</ele><time>2026-05-03T07:46:49.523Z</time></trkpt><trkpt lat="43.9066208" lon="12.6758444"><ele>87.66666666666666</ele><time>2026-05-03T07:46:50.524Z</time></trkpt><trkpt lat="43.9068123" lon="12.6758076"><ele>84.33333333333333</ele><time>2026-05-03T07:46:51.523Z</time></trkpt><trkpt lat="43.906999" lon="12.6757798"><ele>81.0</ele><time>2026-05-03T07:46:52.523Z</time></trkpt><trkpt lat="43.9071859" lon="12.6757253"><ele>81.0</ele><time>2026-05-03T07:46:53.523Z</time></trkpt><trkpt lat="43.9073765" lon="12.6756501"><ele>81.0</ele><time>2026-05-03T07:46:54.524Z</time></trkpt><trkpt lat="43.9075589" lon="12.6755512"><ele>81.0</ele><time>2026-05-03T07:46:55.525Z</time></trkpt><trkpt lat="43.9077316" lon="12.6754216"><ele>79.66666666666667</ele><time>2026-05-03T07:46:56.526Z</time></trkpt><trkpt lat="43.9078959" lon="12.6752695"><ele>78.33333333333334</ele><time>2026-05-03T07:46:57.525Z</time></trkpt><trkpt lat="43.9080521" lon="12.67513"><ele>77.0</ele><time>2026-05-03T07:46:58.524Z</time></trkpt><trkpt lat="43.908219" lon="12.6750095"><ele>77.0</ele><time>2026-05-03T07:46:59.523Z</time></trkpt><trkpt lat="43.9083758" lon="12.674895"><ele>77.0</ele><time>2026-05-03T07:47:00.526Z</time></trkpt><trkpt lat="43.9085279" lon="12.6747844"><ele>77.0</ele><time>2026-05-03T07:47:01.523Z</time></trkpt><trkpt lat="43.908682" lon="12.6746703"><ele>74.0</ele><time>2026-05-03T07:47:02.524Z</time></trkpt><trkpt lat="43.9088349" lon="12.6745469"><ele>71.0</ele><time>2026-05-03T07:47:03.525Z</time></trkpt><trkpt lat="43.9089721" lon="12.674394"><ele>68.0</ele><time>2026-05-03T07:47:04.524Z</time></trkpt><trkpt lat="43.9090937" lon="12.6742234"><ele>68.0</ele><time>2026-05-03T07:47:05.525Z</time></trkpt><trkpt lat="43.9091883" lon="12.6740479"><ele>68.0</ele><time>2026-05-03T07:47:06.52Z</time></trkpt><trkpt lat="43.9092578" lon="12.6738826"><ele>68.0</ele><time>2026-05-03T07:47:07.524Z</time></trkpt><trkpt lat="43.909337" lon="12.6737293"><ele>68.0</ele><time>2026-05-03T07:47:08.524Z</time></trkpt><trkpt lat="43.9094449" lon="12.673606"><ele>66.75</ele><time>2026-05-03T07:47:09.524Z</time></trkpt><trkpt lat="43.9095653" lon="12.673484"><ele>65.5</ele><time>2026-05-03T07:47:10.525Z</time></trkpt><trkpt lat="43.9097193" lon="12.6734958"><ele>64.25</ele><time>2026-05-03T07:47:11.525Z</time></trkpt><trkpt lat="43.9098582" lon="12.6734339"><ele>63.0</ele><time>2026-05-03T07:47:12.524Z</time></trkpt><trkpt lat="43.9100536" lon="12.6734355"><ele>61.33333333333333</ele><time>2026-05-03T07:47:13.523Z</time></trkpt><trkpt lat="43.9102292" lon="12.6734125"><ele>59.666666666666664</ele><time>2026-05-03T07:47:14.516Z</time></trkpt><trkpt lat="43.9104135" lon="12.6733912"><ele>58.0</ele><time>2026-05-03T07:47:15.524Z</time></trkpt><trkpt lat="43.910601" lon="12.6733695"><ele>58.0</ele><time>2026-05-03T07:47:16.524Z</time></trkpt><trkpt lat="43.9107875" lon="12.6733644"><ele>58.0</ele><time>2026-05-03T07:47:17.525Z</time></trkpt><trkpt lat="43.910961" lon="12.6733578"><ele>58.0</ele><time>2026-05-03T07:47:18.524Z</time></trkpt><trkpt lat="43.9111443" lon="12.6733494"><ele>58.0</ele><time>2026-05-03T07:47:19.522Z</time></trkpt><trkpt lat="43.9113238" lon="12.6733396"><ele>58.0</ele><time>2026-05-03T07:47:20.525Z</time></trkpt><trkpt lat="43.9115161" lon="12.6733236"><ele>58.0</ele><time>2026-05-03T07:47:21.523Z</time></trkpt><trkpt lat="43.9117085" lon="12.6733153"><ele>57.0</ele><time>2026-05-03T07:47:22.524Z</time></trkpt><trkpt lat="43.9119032" lon="12.6733573"><ele>56.0</ele><time>2026-05-03T07:47:23.524Z</time></trkpt><trkpt lat="43.9120909" lon="12.6733886"><ele>55.0</ele><time>2026-05-03T07:47:24.524Z</time></trkpt><trkpt lat="43.9122687" lon="12.6734644"><ele>55.0</ele><time>2026-05-03T07:47:25.524Z</time></trkpt><trkpt lat="43.9124441" lon="12.6735272"><ele>55.0</ele><time>2026-05-03T07:47:26.522Z</time></trkpt><trkpt lat="43.912617" lon="12.6735713"><ele>55.0</ele><time>2026-05-03T07:47:27.52Z</time></trkpt><trkpt lat="43.9127944" lon="12.6735826"><ele>55.0</ele><time>2026-05-03T07:47:28.523Z</time></trkpt><trkpt lat="43.9129781" lon="12.6735445"><ele>55.0</ele><time>2026-05-03T07:47:29.522Z</time></trkpt><trkpt lat="43.9131648" lon="12.6734787"><ele>55.0</ele><time>2026-05-03T07:47:30.524Z</time></trkpt><trkpt lat="43.9133508" lon="12.6733782"><ele>55.0</ele><time>2026-05-03T07:47:31.524Z</time></trkpt><trkpt lat="43.9135382" lon="12.6732846"><ele>55.0</ele><time>2026-05-03T07:47:32.523Z</time></trkpt><trkpt lat="43.913725" lon="12.6731815"><ele>55.0</ele><time>2026-05-03T07:47:33.522Z</time></trkpt><trkpt lat="43.9139733" lon="12.6731934"><ele>55.0</ele><time>2026-05-03T07:47:34.522Z</time></trkpt><trkpt lat="43.914184" lon="12.6731379"><ele>55.0</ele><time>2026-05-03T07:47:35.526Z</time></trkpt><trkpt lat="43.9144006" lon="12.6730949"><ele>55.0</ele><time>2026-05-03T07:47:36.526Z</time></trkpt><trkpt lat="43.9145974" lon="12.6730434"><ele>56.666666666666664</ele><time>2026-05-03T07:47:37.523Z</time></trkpt><trkpt lat="43.9147972" lon="12.6729956"><ele>58.33333333333333</ele><time>2026-05-03T07:47:38.523Z</time></trkpt><trkpt lat="43.9149826" lon="12.672953"><ele>60.0</ele><time>2026-05-03T07:47:39.524Z</time></trkpt><trkpt lat="43.9151626" lon="12.6729086"><ele>60.33333333333333</ele><time>2026-05-03T07:47:40.524Z</time></trkpt><trkpt lat="43.9153086" lon="12.6728838"><ele>60.666666666666664</ele><time>2026-05-03T07:47:41.524Z</time></trkpt><trkpt lat="43.9154706" lon="12.6728544"><ele>61.0</ele><time>2026-05-03T07:47:42.526Z</time></trkpt><trkpt lat="43.9156387" lon="12.672817"><ele>61.0</ele><time>2026-05-03T07:47:43.524Z</time></trkpt><trkpt lat="43.9157969" lon="12.6727823"><ele>61.0</ele><time>2026-05-03T07:47:44.526Z</time></trkpt><trkpt lat="43.9159591" lon="12.6727443"><ele>61.0</ele><time>2026-05-03T07:47:45.519Z</time></trkpt><trkpt lat="43.9161265" lon="12.672712"><ele>62.0</ele><time>2026-05-03T07:47:46.526Z</time></trkpt><trkpt lat="43.916282" lon="12.6726837"><ele>63.0</ele><time>2026-05-03T07:47:47.525Z</time></trkpt><trkpt lat="43.916433" lon="12.6726663"><ele>64.0</ele><time>2026-05-03T07:47:48.525Z</time></trkpt><trkpt lat="43.9165824" lon="12.6726694"><ele>63.666666666666664</ele><time>2026-05-03T07:47:49.524Z</time></trkpt><trkpt lat="43.916737" lon="12.6727115"><ele>63.33333333333333</ele><time>2026-05-03T07:47:50.524Z</time></trkpt><trkpt lat="43.9168891" lon="12.6727813"><ele>63.0</ele><time>2026-05-03T07:47:51.524Z</time></trkpt><trkpt lat="43.9170409" lon="12.6729293"><ele>63.0</ele><time>2026-05-03T07:47:52.525Z</time></trkpt><trkpt lat="43.9171891" lon="12.6730547"><ele>63.0</ele><time>2026-05-03T07:47:53.524Z</time></trkpt><trkpt lat="43.9173414" lon="12.6731824"><ele>63.0</ele><time>2026-05-03T07:47:54.524Z</time></trkpt><trkpt lat="43.9174893" lon="12.6733105"><ele>63.66666666666667</ele><time>2026-05-03T07:47:55.525Z</time></trkpt><trkpt lat="43.9176284" lon="12.673438"><ele>64.33333333333334</ele><time>2026-05-03T07:47:56.523Z</time></trkpt><trkpt lat="43.9177695" lon="12.6735581"><ele>65.0</ele><time>2026-05-03T07:47:57.523Z</time></trkpt><trkpt lat="43.9178942" lon="12.6736689"><ele>63.66666666666667</ele><time>2026-05-03T07:47:58.524Z</time></trkpt><trkpt lat="43.9180255" lon="12.6737772"><ele>62.33333333333333</ele><time>2026-05-03T07:47:59.524Z</time></trkpt><trkpt lat="43.9181601" lon="12.6739023"><ele>61.0</ele><time>2026-05-03T07:48:00.524Z</time></trkpt><trkpt lat="43.9182962" lon="12.6740272"><ele>60.666666666666664</ele><time>2026-05-03T07:48:01.519Z</time></trkpt><trkpt lat="43.9184317" lon="12.6741448"><ele>60.33333333333333</ele><time>2026-05-03T07:48:02.522Z</time></trkpt><trkpt lat="43.9185645" lon="12.6742669"><ele>60.0</ele><time>2026-05-03T07:48:03.524Z</time></trkpt><trkpt lat="43.9186938" lon="12.6743813"><ele>60.0</ele><time>2026-05-03T07:48:04.524Z</time></trkpt><trkpt lat="43.9188288" lon="12.6745035"><ele>60.0</ele><time>2026-05-03T07:48:05.524Z</time></trkpt><trkpt lat="43.9189778" lon="12.6746252"><ele>60.0</ele><time>2026-05-03T07:48:06.524Z</time></trkpt><trkpt lat="43.9191294" lon="12.6747503"><ele>59.66666666666667</ele><time>2026-05-03T07:48:07.524Z</time></trkpt><trkpt lat="43.9192983" lon="12.674887"><ele>59.333333333333336</ele><time>2026-05-03T07:48:08.527Z</time></trkpt><trkpt lat="43.9194806" lon="12.675046"><ele>59.0</ele><time>2026-05-03T07:48:09.525Z</time></trkpt><trkpt lat="43.919659" lon="12.6751986"><ele>59.0</ele><time>2026-05-03T07:48:10.524Z</time></trkpt><trkpt lat="43.9198139" lon="12.6753775"><ele>59.0</ele><time>2026-05-03T07:48:11.526Z</time></trkpt><trkpt lat="43.9199804" lon="12.675532"><ele>59.0</ele><time>2026-05-03T07:48:12.526Z</time></trkpt><trkpt lat="43.9201375" lon="12.6756761"><ele>59.0</ele><time>2026-05-03T07:48:13.677Z</time></trkpt><trkpt lat="43.9204567" lon="12.6759248"><ele>59.0</ele><time>2026-05-03T07:48:15.524Z</time></trkpt><trkpt lat="43.9206184" lon="12.6760276"><ele>58.333333333333336</ele><time>2026-05-03T07:48:16.524Z</time></trkpt><trkpt lat="43.9207895" lon="12.6761156"><ele>57.66666666666667</ele><time>2026-05-03T07:48:17.524Z</time></trkpt><trkpt lat="43.9209637" lon="12.6761794"><ele>57.0</ele><time>2026-05-03T07:48:18.526Z</time></trkpt><trkpt lat="43.9211332" lon="12.6762282"><ele>57.0</ele><time>2026-05-03T07:48:19.525Z</time></trkpt><trkpt lat="43.9212993" lon="12.6762729"><ele>57.0</ele><time>2026-05-03T07:48:20.518Z</time></trkpt><trkpt lat="43.9214554" lon="12.6763138"><ele>57.0</ele><time>2026-05-03T07:48:21.525Z</time></trkpt><trkpt lat="43.9215983" lon="12.6763532"><ele>56.75</ele><time>2026-05-03T07:48:22.525Z</time></trkpt><trkpt lat="43.9217343" lon="12.6763904"><ele>56.5</ele><time>2026-05-03T07:48:23.524Z</time></trkpt><trkpt lat="43.9218585" lon="12.6764223"><ele>56.25</ele><time>2026-05-03T07:48:24.522Z</time></trkpt><trkpt lat="43.921956" lon="12.6764484"><ele>56.0</ele><time>2026-05-03T07:48:25.525Z</time></trkpt><trkpt lat="43.92205" lon="12.6764774"><ele>56.00000000000001</ele><time>2026-05-03T07:48:26.526Z</time></trkpt><trkpt lat="43.9221287" lon="12.6765048"><ele>56.0</ele><time>2026-05-03T07:48:27.522Z</time></trkpt><trkpt lat="43.9222039" lon="12.6765383"><ele>56.0</ele><time>2026-05-03T07:48:28.525Z</time></trkpt><trkpt lat="43.9223135" lon="12.6765559"><ele>56.0</ele><time>2026-05-03T07:48:30.524Z</time></trkpt><trkpt lat="43.9223398" lon="12.6764504"><ele>56.00000000000001</ele><time>2026-05-03T07:48:31.525Z</time></trkpt><trkpt lat="43.9223402" lon="12.676353"><ele>56.0</ele><time>2026-05-03T07:48:32.524Z</time></trkpt><trkpt lat="43.9223135" lon="12.6762166"><ele>55.75</ele><time>2026-05-03T07:48:33.523Z</time></trkpt><trkpt lat="43.9222797" lon="12.6760454"><ele>55.5</ele><time>2026-05-03T07:48:34.522Z</time></trkpt><trkpt lat="43.9222532" lon="12.6758789"><ele>55.25</ele><time>2026-05-03T07:48:35.525Z</time></trkpt><trkpt lat="43.922224" lon="12.6757205"><ele>55.0</ele><time>2026-05-03T07:48:36.519Z</time></trkpt><trkpt lat="43.9222" lon="12.6755621"><ele>55.0</ele><time>2026-05-03T07:48:37.522Z</time></trkpt><trkpt lat="43.9221754" lon="12.6754047"><ele>55.0</ele><time>2026-05-03T07:48:38.524Z</time></trkpt><trkpt lat="43.9221571" lon="12.6752357"><ele>55.0</ele><time>2026-05-03T07:48:39.523Z</time></trkpt><trkpt lat="43.9221334" lon="12.6750646"><ele>55.0</ele><time>2026-05-03T07:48:40.524Z</time></trkpt><trkpt lat="43.9221108" lon="12.6748826"><ele>55.0</ele><time>2026-05-03T07:48:41.523Z</time></trkpt><trkpt lat="43.922086" lon="12.6746919"><ele>55.0</ele><time>2026-05-03T07:48:42.524Z</time></trkpt><trkpt lat="43.9220602" lon="12.674495"><ele>55.0</ele><time>2026-05-03T07:48:43.523Z</time></trkpt><trkpt lat="43.9220328" lon="12.6743019"><ele>55.0</ele><time>2026-05-03T07:48:44.524Z</time></trkpt><trkpt lat="43.9220098" lon="12.6741216"><ele>55.25</ele><time>2026-05-03T07:48:45.523Z</time></trkpt><trkpt lat="43.9219869" lon="12.6739438"><ele>55.5</ele><time>2026-05-03T07:48:46.522Z</time></trkpt><trkpt lat="43.9219638" lon="12.6737657"><ele>55.75</ele><time>2026-05-03T07:48:47.522Z</time></trkpt><trkpt lat="43.9219418" lon="12.6735918"><ele>56.0</ele><time>2026-05-03T07:48:48.524Z</time></trkpt><trkpt lat="43.9219198" lon="12.6734168"><ele>56.0</ele><time>2026-05-03T07:48:49.524Z</time></trkpt><trkpt lat="43.9218986" lon="12.6732366"><ele>56.0</ele><time>2026-05-03T07:48:50.524Z</time></trkpt><trkpt lat="43.921872" lon="12.6730552"><ele>56.0</ele><time>2026-05-03T07:48:51.526Z</time></trkpt><trkpt lat="43.921849" lon="12.6728823"><ele>56.0</ele><time>2026-05-03T07:48:52.525Z</time></trkpt><trkpt lat="43.9218291" lon="12.6727134"><ele>56.4</ele><time>2026-05-03T07:48:53.525Z</time></trkpt><trkpt lat="43.9218093" lon="12.6725573"><ele>56.8</ele><time>2026-05-03T07:48:54.525Z</time></trkpt><trkpt lat="43.9218086" lon="12.6724127"><ele>57.199999999999996</ele><time>2026-05-03T07:48:55.523Z</time></trkpt><trkpt lat="43.9218343" lon="12.6722869"><ele>57.599999999999994</ele><time>2026-05-03T07:48:56.524Z</time></trkpt><trkpt lat="43.921897" lon="12.6721797"><ele>58.0</ele><time>2026-05-03T07:48:57.525Z</time></trkpt><trkpt lat="43.9219854" lon="12.6721153"><ele>58.0</ele><time>2026-05-03T07:48:58.525Z</time></trkpt><trkpt lat="43.9220953" lon="12.6721108"><ele>58.0</ele><time>2026-05-03T07:48:59.523Z</time></trkpt><trkpt lat="43.9222097" lon="12.672111"><ele>58.0</ele><time>2026-05-03T07:49:00.525Z</time></trkpt><trkpt lat="43.9223323" lon="12.6721925"><ele>58.0</ele><time>2026-05-03T07:49:01.523Z</time></trkpt><trkpt lat="43.9224582" lon="12.6722579"><ele>57.75</ele><time>2026-05-03T07:49:02.526Z</time></trkpt><trkpt lat="43.9225734" lon="12.6723346"><ele>57.5</ele><time>2026-05-03T07:49:03.525Z</time></trkpt><trkpt lat="43.9226791" lon="12.6724349"><ele>57.25</ele><time>2026-05-03T07:49:04.524Z</time></trkpt><trkpt lat="43.9228022" lon="12.6725915"><ele>57.0</ele><time>2026-05-03T07:49:05.524Z</time></trkpt><trkpt lat="43.9229229" lon="12.6727416"><ele>56.0</ele><time>2026-05-03T07:49:06.526Z</time></trkpt><trkpt lat="43.9230441" lon="12.6729105"><ele>55.0</ele><time>2026-05-03T07:49:07.523Z</time></trkpt><trkpt lat="43.9232669" lon="12.6732192"><ele>55.0</ele><time>2026-05-03T07:49:09.528Z</time></trkpt><trkpt lat="43.9233326" lon="12.6733582"><ele>55.0</ele><time>2026-05-03T07:49:10.523Z</time></trkpt><trkpt lat="43.9234236" lon="12.6735013"><ele>55.0</ele><time>2026-05-03T07:49:11.524Z</time></trkpt><trkpt lat="43.9235346" lon="12.6736421"><ele>55.0</ele><time>2026-05-03T07:49:12.523Z</time></trkpt><trkpt lat="43.9235714" lon="12.6737524"><ele>54.0</ele><time>2026-05-03T07:49:13.528Z</time></trkpt><trkpt lat="43.9236533" lon="12.6738846"><ele>53.0</ele><time>2026-05-03T07:49:14.526Z</time></trkpt><trkpt lat="43.9236821" lon="12.6740273"><ele>52.0</ele><time>2026-05-03T07:49:15.524Z</time></trkpt><trkpt lat="43.9237156" lon="12.6741536"><ele>51.0</ele><time>2026-05-03T07:49:16.523Z</time></trkpt><trkpt lat="43.9237589" lon="12.6742984"><ele>50.0</ele><time>2026-05-03T07:49:17.524Z</time></trkpt><trkpt lat="43.9238513" lon="12.6743853"><ele>50.0</ele><time>2026-05-03T07:49:18.525Z</time></trkpt><trkpt lat="43.9240521" lon="12.6744214"><ele>50.0</ele><time>2026-05-03T07:49:19.524Z</time></trkpt><trkpt lat="43.9241475" lon="12.6745491"><ele>50.0</ele><time>2026-05-03T07:49:20.523Z</time></trkpt><trkpt lat="43.9242726" lon="12.6747468"><ele>49.66666666666667</ele><time>2026-05-03T07:49:21.523Z</time></trkpt><trkpt lat="43.9243913" lon="12.6749193"><ele>49.33333333333333</ele><time>2026-05-03T07:49:22.526Z</time></trkpt><trkpt lat="43.9245265" lon="12.6751084"><ele>49.0</ele><time>2026-05-03T07:49:23.521Z</time></trkpt><trkpt lat="43.9246617" lon="12.6753192"><ele>49.0</ele><time>2026-05-03T07:49:24.524Z</time></trkpt><trkpt lat="43.9248042" lon="12.675537"><ele>49.0</ele><time>2026-05-03T07:49:25.523Z</time></trkpt><trkpt lat="43.9249357" lon="12.6757616"><ele>49.0</ele><time>2026-05-03T07:49:26.525Z</time></trkpt><trkpt lat="43.9250773" lon="12.6759967"><ele>48.5</ele><time>2026-05-03T07:49:27.524Z</time></trkpt><trkpt lat="43.9252239" lon="12.6762414"><ele>48.0</ele><time>2026-05-03T07:49:28.525Z</time></trkpt><trkpt lat="43.9253605" lon="12.6764821"><ele>48.0</ele><time>2026-05-03T07:49:29.524Z</time></trkpt><trkpt lat="43.9255187" lon="12.6767601"><ele>48.0</ele><time>2026-05-03T07:49:30.524Z</time></trkpt><trkpt lat="43.9256802" lon="12.6770222"><ele>48.0</ele><time>2026-05-03T07:49:31.527Z</time></trkpt><trkpt lat="43.9258315" lon="12.6773011"><ele>48.0</ele><time>2026-05-03T07:49:32.526Z</time></trkpt><trkpt lat="43.9259801" lon="12.6775783"><ele>48.0</ele><time>2026-05-03T07:49:33.525Z</time></trkpt><trkpt lat="43.9261308" lon="12.677861"><ele>48.0</ele><time>2026-05-03T07:49:34.527Z</time></trkpt><trkpt lat="43.9262821" lon="12.6781529"><ele>48.0</ele><time>2026-05-03T07:49:35.524Z</time></trkpt><trkpt lat="43.9264408" lon="12.6784534"><ele>48.0</ele><time>2026-05-03T07:49:36.527Z</time></trkpt><trkpt lat="43.9266092" lon="12.6787596"><ele>48.0</ele><time>2026-05-03T07:49:37.525Z</time></trkpt><trkpt lat="43.9267632" lon="12.6790669"><ele>48.0</ele><time>2026-05-03T07:49:38.524Z</time></trkpt><trkpt lat="43.9269212" lon="12.6793717"><ele>48.0</ele><time>2026-05-03T07:49:39.519Z</time></trkpt><trkpt lat="43.9270777" lon="12.6796644"><ele>48.0</ele><time>2026-05-03T07:49:40.524Z</time></trkpt><trkpt lat="43.9272265" lon="12.6799476"><ele>48.0</ele><time>2026-05-03T07:49:41.525Z</time></trkpt><trkpt lat="43.9273774" lon="12.6802302"><ele>48.0</ele><time>2026-05-03T07:49:42.524Z</time></trkpt><trkpt lat="43.9275322" lon="12.6805189"><ele>49.0</ele><time>2026-05-03T07:49:43.526Z</time></trkpt><trkpt lat="43.9276848" lon="12.6807746"><ele>50.0</ele><time>2026-05-03T07:49:44.525Z</time></trkpt><trkpt lat="43.9278326" lon="12.6810374"><ele>50.0</ele><time>2026-05-03T07:49:45.523Z</time></trkpt><trkpt lat="43.9279855" lon="12.6812813"><ele>50.0</ele><time>2026-05-03T07:49:46.524Z</time></trkpt><trkpt lat="43.9281422" lon="12.681504"><ele>50.0</ele><time>2026-05-03T07:49:47.523Z</time></trkpt><trkpt lat="43.9282991" lon="12.6817325"><ele>50.0</ele><time>2026-05-03T07:49:48.523Z</time></trkpt><trkpt lat="43.9284662" lon="12.6819665"><ele>49.333333333333336</ele><time>2026-05-03T07:49:49.524Z</time></trkpt><trkpt lat="43.9286301" lon="12.6821834"><ele>48.66666666666667</ele><time>2026-05-03T07:49:50.523Z</time></trkpt><trkpt lat="43.9287883" lon="12.6823847"><ele>48.0</ele><time>2026-05-03T07:49:51.523Z</time></trkpt><trkpt lat="43.9289447" lon="12.6825523"><ele>48.0</ele><time>2026-05-03T07:49:52.523Z</time></trkpt><trkpt lat="43.9290609" lon="12.6827056"><ele>48.0</ele><time>2026-05-03T07:49:53.524Z</time></trkpt><trkpt lat="43.9291813" lon="12.6828543"><ele>48.0</ele><time>2026-05-03T07:49:54.524Z</time></trkpt><trkpt lat="43.9292895" lon="12.6829896"><ele>48.0</ele><time>2026-05-03T07:49:55.518Z</time></trkpt><trkpt lat="43.929396" lon="12.6831175"><ele>48.0</ele><time>2026-05-03T07:49:56.524Z</time></trkpt><trkpt lat="43.9295001" lon="12.6832464"><ele>48.0</ele><time>2026-05-03T07:49:57.516Z</time></trkpt><trkpt lat="43.9295986" lon="12.6833723"><ele>48.0</ele><time>2026-05-03T07:49:58.523Z</time></trkpt><trkpt lat="43.9297026" lon="12.6835013"><ele>47.75</ele><time>2026-05-03T07:49:59.523Z</time></trkpt><trkpt lat="43.9298092" lon="12.6836351"><ele>47.5</ele><time>2026-05-03T07:50:00.524Z</time></trkpt><trkpt lat="43.9299112" lon="12.6837733"><ele>47.25</ele><time>2026-05-03T07:50:01.524Z</time></trkpt><trkpt lat="43.9300166" lon="12.6839177"><ele>47.0</ele><time>2026-05-03T07:50:02.525Z</time></trkpt><trkpt lat="43.9301118" lon="12.684059"><ele>47.0</ele><time>2026-05-03T07:50:03.524Z</time></trkpt><trkpt lat="43.9302527" lon="12.6842083"><ele>47.0</ele><time>2026-05-03T07:50:04.524Z</time></trkpt><trkpt lat="43.9303764" lon="12.6843571"><ele>47.0</ele><time>2026-05-03T07:50:05.524Z</time></trkpt><trkpt lat="43.9305043" lon="12.6845085"><ele>47.0</ele><time>2026-05-03T07:50:06.525Z</time></trkpt><trkpt lat="43.930637" lon="12.6846616"><ele>47.0</ele><time>2026-05-03T07:50:07.523Z</time></trkpt><trkpt lat="43.9307683" lon="12.6848201"><ele>47.0</ele><time>2026-05-03T07:50:08.522Z</time></trkpt><trkpt lat="43.9309019" lon="12.6849816"><ele>47.0</ele><time>2026-05-03T07:50:09.525Z</time></trkpt><trkpt lat="43.9310291" lon="12.6851378"><ele>47.0</ele><time>2026-05-03T07:50:10.524Z</time></trkpt><trkpt lat="43.9311558" lon="12.685298"><ele>47.0</ele><time>2026-05-03T07:50:11.524Z</time></trkpt><trkpt lat="43.9312741" lon="12.685449"><ele>47.0</ele><time>2026-05-03T07:50:12.523Z</time></trkpt><trkpt lat="43.9313914" lon="12.6855966"><ele>47.0</ele><time>2026-05-03T07:50:13.518Z</time></trkpt><trkpt lat="43.9315018" lon="12.6857306"><ele>47.0</ele><time>2026-05-03T07:50:14.522Z</time></trkpt><trkpt lat="43.9316134" lon="12.6858606"><ele>47.0</ele><time>2026-05-03T07:50:15.522Z</time></trkpt><trkpt lat="43.9317196" lon="12.6860021"><ele>47.0</ele><time>2026-05-03T07:50:16.523Z</time></trkpt><trkpt lat="43.9318118" lon="12.6861574"><ele>47.0</ele><time>2026-05-03T07:50:17.522Z</time></trkpt><trkpt lat="43.9318919" lon="12.6863257"><ele>47.0</ele><time>2026-05-03T07:50:18.523Z</time></trkpt><trkpt lat="43.9319507" lon="12.6865004"><ele>46.33333333333333</ele><time>2026-05-03T07:50:19.523Z</time></trkpt><trkpt lat="43.9319961" lon="12.6866731"><ele>45.666666666666664</ele><time>2026-05-03T07:50:20.523Z</time></trkpt><trkpt lat="43.9320461" lon="12.6868348"><ele>45.0</ele><time>2026-05-03T07:50:21.633Z</time></trkpt><trkpt lat="43.9321677" lon="12.6871189"><ele>44.75</ele><time>2026-05-03T07:50:23.524Z</time></trkpt><trkpt lat="43.9322488" lon="12.6872127"><ele>44.5</ele><time>2026-05-03T07:50:24.524Z</time></trkpt><trkpt lat="43.9323881" lon="12.6872836"><ele>44.25</ele><time>2026-05-03T07:50:25.523Z</time></trkpt><trkpt lat="43.9325137" lon="12.6873448"><ele>44.0</ele><time>2026-05-03T07:50:26.521Z</time></trkpt><trkpt lat="43.9326573" lon="12.6873961"><ele>43.666666666666664</ele><time>2026-05-03T07:50:27.524Z</time></trkpt><trkpt lat="43.9328035" lon="12.6874642"><ele>43.333333333333336</ele><time>2026-05-03T07:50:28.516Z</time></trkpt><trkpt lat="43.9329448" lon="12.6875884"><ele>43.0</ele><time>2026-05-03T07:50:29.524Z</time></trkpt><trkpt lat="43.9330821" lon="12.6877205"><ele>42.66666666666667</ele><time>2026-05-03T07:50:30.523Z</time></trkpt><trkpt lat="43.9332119" lon="12.687863"><ele>42.333333333333336</ele><time>2026-05-03T07:50:31.523Z</time></trkpt><trkpt lat="43.9333304" lon="12.6880057"><ele>42.0</ele><time>2026-05-03T07:50:32.522Z</time></trkpt><trkpt lat="43.9334519" lon="12.6881464"><ele>42.666666666666664</ele><time>2026-05-03T07:50:33.523Z</time></trkpt><trkpt lat="43.933574" lon="12.688285"><ele>43.33333333333333</ele><time>2026-05-03T07:50:34.524Z</time></trkpt><trkpt lat="43.9336934" lon="12.6884185"><ele>44.0</ele><time>2026-05-03T07:50:35.523Z</time></trkpt><trkpt lat="43.9338064" lon="12.688549"><ele>43.0</ele><time>2026-05-03T07:50:36.522Z</time></trkpt><trkpt lat="43.9339113" lon="12.6886977"><ele>42.0</ele><time>2026-05-03T07:50:37.523Z</time></trkpt><trkpt lat="43.933987" lon="12.6888142"><ele>41.0</ele><time>2026-05-03T07:50:38.524Z</time></trkpt><trkpt lat="43.9340821" lon="12.6889358"><ele>40.0</ele><time>2026-05-03T07:50:39.523Z</time></trkpt><trkpt lat="43.9341691" lon="12.6890647"><ele>40.25</ele><time>2026-05-03T07:50:40.523Z</time></trkpt><trkpt lat="43.9342657" lon="12.6891854"><ele>40.5</ele><time>2026-05-03T07:50:41.522Z</time></trkpt><trkpt lat="43.934383" lon="12.6893359"><ele>40.75</ele><time>2026-05-03T07:50:42.522Z</time></trkpt><trkpt lat="43.9344976" lon="12.6894899"><ele>41.0</ele><time>2026-05-03T07:50:43.524Z</time></trkpt><trkpt lat="43.9346174" lon="12.6896544"><ele>41.0</ele><time>2026-05-03T07:50:44.524Z</time></trkpt><trkpt lat="43.9347443" lon="12.6898254"><ele>41.0</ele><time>2026-05-03T07:50:45.522Z</time></trkpt><trkpt lat="43.9348776" lon="12.6899984"><ele>41.0</ele><time>2026-05-03T07:50:46.525Z</time></trkpt><trkpt lat="43.9349993" lon="12.6901705"><ele>40.666666666666664</ele><time>2026-05-03T07:50:47.521Z</time></trkpt><trkpt lat="43.935118" lon="12.6903404"><ele>40.333333333333336</ele><time>2026-05-03T07:50:48.524Z</time></trkpt><trkpt lat="43.9352218" lon="12.6905168"><ele>40.0</ele><time>2026-05-03T07:50:49.523Z</time></trkpt><trkpt lat="43.9353262" lon="12.690693"><ele>40.0</ele><time>2026-05-03T07:50:50.522Z</time></trkpt><trkpt lat="43.9354344" lon="12.690828"><ele>40.0</ele><time>2026-05-03T07:50:51.523Z</time></trkpt><trkpt lat="43.9355512" lon="12.6909608"><ele>40.0</ele><time>2026-05-03T07:50:52.523Z</time></trkpt><trkpt lat="43.935666" lon="12.6910944"><ele>40.0</ele><time>2026-05-03T07:50:53.523Z</time></trkpt><trkpt lat="43.9357478" lon="12.6912302"><ele>39.75</ele><time>2026-05-03T07:50:54.523Z</time></trkpt><trkpt lat="43.9358567" lon="12.6913605"><ele>39.5</ele><time>2026-05-03T07:50:55.523Z</time></trkpt><trkpt lat="43.9359394" lon="12.6914848"><ele>39.25</ele><time>2026-05-03T07:50:56.524Z</time></trkpt><trkpt lat="43.9360412" lon="12.6916194"><ele>39.0</ele><time>2026-05-03T07:50:57.523Z</time></trkpt><trkpt lat="43.9361414" lon="12.6917452"><ele>38.75</ele><time>2026-05-03T07:50:58.523Z</time></trkpt><trkpt lat="43.9362449" lon="12.6918838"><ele>38.5</ele><time>2026-05-03T07:50:59.526Z</time></trkpt><trkpt lat="43.9363476" lon="12.6920283"><ele>38.25</ele><time>2026-05-03T07:51:00.523Z</time></trkpt><trkpt lat="43.9364505" lon="12.692164"><ele>38.0</ele><time>2026-05-03T07:51:01.524Z</time></trkpt><trkpt lat="43.9365443" lon="12.6922988"><ele>38.0</ele><time>2026-05-03T07:51:02.524Z</time></trkpt><trkpt lat="43.9366405" lon="12.6924295"><ele>38.0</ele><time>2026-05-03T07:51:03.524Z</time></trkpt><trkpt lat="43.9367337" lon="12.6925631"><ele>38.0</ele><time>2026-05-03T07:51:04.523Z</time></trkpt><trkpt lat="43.936834" lon="12.6926988"><ele>38.0</ele><time>2026-05-03T07:51:05.522Z</time></trkpt><trkpt lat="43.9369415" lon="12.6928438"><ele>37.666666666666664</ele><time>2026-05-03T07:51:06.522Z</time></trkpt><trkpt lat="43.9370545" lon="12.6929961"><ele>37.333333333333336</ele><time>2026-05-03T07:51:07.524Z</time></trkpt><trkpt lat="43.937174" lon="12.693158"><ele>37.0</ele><time>2026-05-03T07:51:08.523Z</time></trkpt><trkpt lat="43.9372876" lon="12.6933297"><ele>37.0</ele><time>2026-05-03T07:51:09.524Z</time></trkpt><trkpt lat="43.9373935" lon="12.693493"><ele>37.0</ele><time>2026-05-03T07:51:10.524Z</time></trkpt><trkpt lat="43.9374969" lon="12.6936602"><ele>37.0</ele><time>2026-05-03T07:51:11.522Z</time></trkpt><trkpt lat="43.9375973" lon="12.6938362"><ele>36.75</ele><time>2026-05-03T07:51:12.524Z</time></trkpt><trkpt lat="43.9376786" lon="12.6940023"><ele>36.5</ele><time>2026-05-03T07:51:13.516Z</time></trkpt><trkpt lat="43.937758" lon="12.6941644"><ele>36.25</ele><time>2026-05-03T07:51:14.522Z</time></trkpt><trkpt lat="43.9378314" lon="12.6943374"><ele>36.0</ele><time>2026-05-03T07:51:15.523Z</time></trkpt><trkpt lat="43.9379018" lon="12.6945114"><ele>36.0</ele><time>2026-05-03T07:51:16.522Z</time></trkpt><trkpt lat="43.9379728" lon="12.6946948"><ele>36.0</ele><time>2026-05-03T07:51:17.524Z</time></trkpt><trkpt lat="43.9380426" lon="12.6948788"><ele>36.0</ele><time>2026-05-03T07:51:18.524Z</time></trkpt><trkpt lat="43.9381025" lon="12.6950614"><ele>36.0</ele><time>2026-05-03T07:51:19.523Z</time></trkpt><trkpt lat="43.9381611" lon="12.6952439"><ele>36.0</ele><time>2026-05-03T07:51:20.523Z</time></trkpt><trkpt lat="43.9382218" lon="12.6954317"><ele>36.0</ele><time>2026-05-03T07:51:21.524Z</time></trkpt><trkpt lat="43.9382903" lon="12.6956521"><ele>36.0</ele><time>2026-05-03T07:51:22.524Z</time></trkpt><trkpt lat="43.9383604" lon="12.6959214"><ele>36.0</ele><time>2026-05-03T07:51:23.523Z</time></trkpt><trkpt lat="43.9384196" lon="12.6962155"><ele>36.0</ele><time>2026-05-03T07:51:24.524Z</time></trkpt><trkpt lat="43.9384754" lon="12.6965208"><ele>36.0</ele><time>2026-05-03T07:51:25.522Z</time></trkpt><trkpt lat="43.9385251" lon="12.696845"><ele>35.5</ele><time>2026-05-03T07:51:26.525Z</time></trkpt><trkpt lat="43.9385792" lon="12.6971749"><ele>35.0</ele><time>2026-05-03T07:51:27.525Z</time></trkpt><trkpt lat="43.938636" lon="12.6974988"><ele>34.5</ele><time>2026-05-03T07:51:28.525Z</time></trkpt><trkpt lat="43.9386946" lon="12.6978197"><ele>34.0</ele><time>2026-05-03T07:51:29.526Z</time></trkpt><trkpt lat="43.9387542" lon="12.6981386"><ele>34.0</ele><time>2026-05-03T07:51:30.525Z</time></trkpt><trkpt lat="43.9388165" lon="12.6984575"><ele>34.0</ele><time>2026-05-03T07:51:31.524Z</time></trkpt><trkpt lat="43.9388854" lon="12.6987674"><ele>34.5</ele><time>2026-05-03T07:51:32.528Z</time></trkpt><trkpt lat="43.9389584" lon="12.6990733"><ele>35.0</ele><time>2026-05-03T07:51:33.519Z</time></trkpt><trkpt lat="43.939035" lon="12.6993694"><ele>35.0</ele><time>2026-05-03T07:51:34.524Z</time></trkpt><trkpt lat="43.9391175" lon="12.6996447"><ele>35.0</ele><time>2026-05-03T07:51:35.524Z</time></trkpt><trkpt lat="43.9391927" lon="12.6999261"><ele>35.0</ele><time>2026-05-03T07:51:36.525Z</time></trkpt><trkpt lat="43.9392742" lon="12.7001754"><ele>34.666666666666664</ele><time>2026-05-03T07:51:37.524Z</time></trkpt><trkpt lat="43.9393552" lon="12.7004172"><ele>34.333333333333336</ele><time>2026-05-03T07:51:38.523Z</time></trkpt><trkpt lat="43.939436" lon="12.7006441"><ele>34.0</ele><time>2026-05-03T07:51:39.526Z</time></trkpt><trkpt lat="43.9395172" lon="12.7008575"><ele>34.0</ele><time>2026-05-03T07:51:40.524Z</time></trkpt><trkpt lat="43.9395957" lon="12.7010607"><ele>34.0</ele><time>2026-05-03T07:51:41.523Z</time></trkpt><trkpt lat="43.9396699" lon="12.7012638"><ele>34.0</ele><time>2026-05-03T07:51:42.525Z</time></trkpt><trkpt lat="43.9397189" lon="12.7014417"><ele>34.0</ele><time>2026-05-03T07:51:43.523Z</time></trkpt><trkpt lat="43.9397406" lon="12.7016455"><ele>34.0</ele><time>2026-05-03T07:51:44.522Z</time></trkpt><trkpt lat="43.9397434" lon="12.7018644"><ele>34.0</ele><time>2026-05-03T07:51:45.523Z</time></trkpt><trkpt lat="43.9397512" lon="12.7020958"><ele>34.0</ele><time>2026-05-03T07:51:46.524Z</time></trkpt><trkpt lat="43.9398015" lon="12.7023239"><ele>34.0</ele><time>2026-05-03T07:51:47.523Z</time></trkpt><trkpt lat="43.9398719" lon="12.7025398"><ele>34.0</ele><time>2026-05-03T07:51:48.523Z</time></trkpt><trkpt lat="43.9399753" lon="12.7027332"><ele>33.66666666666667</ele><time>2026-05-03T07:51:49.522Z</time></trkpt><trkpt lat="43.9401098" lon="12.7029032"><ele>33.333333333333336</ele><time>2026-05-03T07:51:50.525Z</time></trkpt><trkpt lat="43.9402456" lon="12.7030688"><ele>33.0</ele><time>2026-05-03T07:51:51.667Z</time></trkpt><trkpt lat="43.9405087" lon="12.7034499"><ele>33.0</ele><time>2026-05-03T07:51:53.523Z</time></trkpt><trkpt lat="43.9406253" lon="12.7036593"><ele>33.0</ele><time>2026-05-03T07:51:54.521Z</time></trkpt><trkpt lat="43.9406854" lon="12.703945"><ele>33.0</ele><time>2026-05-03T07:51:55.524Z</time></trkpt><trkpt lat="43.9407845" lon="12.7041773"><ele>32.666666666666664</ele><time>2026-05-03T07:51:56.524Z</time></trkpt><trkpt lat="43.9408883" lon="12.7044076"><ele>32.33333333333333</ele><time>2026-05-03T07:51:57.523Z</time></trkpt><trkpt lat="43.9409789" lon="12.7047031"><ele>32.0</ele><time>2026-05-03T07:51:58.523Z</time></trkpt><trkpt lat="43.9410858" lon="12.7049751"><ele>30.0</ele><time>2026-05-03T07:51:59.523Z</time></trkpt><trkpt lat="43.9411925" lon="12.7052609"><ele>28.0</ele><time>2026-05-03T07:52:00.523Z</time></trkpt><trkpt lat="43.941299" lon="12.7055374"><ele>28.0</ele><time>2026-05-03T07:52:01.524Z</time></trkpt><trkpt lat="43.9414062" lon="12.7058035"><ele>28.0</ele><time>2026-05-03T07:52:02.524Z</time></trkpt><trkpt lat="43.9415186" lon="12.7060716"><ele>28.0</ele><time>2026-05-03T07:52:03.523Z</time></trkpt><trkpt lat="43.9416261" lon="12.7063429"><ele>28.5</ele><time>2026-05-03T07:52:04.52Z</time></trkpt><trkpt lat="43.9417354" lon="12.706621"><ele>29.0</ele><time>2026-05-03T07:52:05.519Z</time></trkpt><trkpt lat="43.9418499" lon="12.7068969"><ele>29.0</ele><time>2026-05-03T07:52:06.524Z</time></trkpt><trkpt lat="43.9419604" lon="12.7071763"><ele>29.0</ele><time>2026-05-03T07:52:07.523Z</time></trkpt><trkpt lat="43.9420701" lon="12.7074603"><ele>28.5</ele><time>2026-05-03T07:52:08.524Z</time></trkpt><trkpt lat="43.9421786" lon="12.7077479"><ele>28.0</ele><time>2026-05-03T07:52:09.523Z</time></trkpt><trkpt lat="43.9422938" lon="12.7080356"><ele>28.0</ele><time>2026-05-03T07:52:10.524Z</time></trkpt><trkpt lat="43.9424064" lon="12.7083221"><ele>28.0</ele><time>2026-05-03T07:52:11.524Z</time></trkpt><trkpt lat="43.942521" lon="12.7086199"><ele>27.5</ele><time>2026-05-03T07:52:12.522Z</time></trkpt><trkpt lat="43.942639" lon="12.7089083"><ele>27.0</ele><time>2026-05-03T07:52:13.524Z</time></trkpt><trkpt lat="43.9427539" lon="12.7091911"><ele>26.5</ele><time>2026-05-03T07:52:14.524Z</time></trkpt><trkpt lat="43.9428678" lon="12.7094723"><ele>26.0</ele><time>2026-05-03T07:52:15.522Z</time></trkpt><trkpt lat="43.9429805" lon="12.7097577"><ele>26.0</ele><time>2026-05-03T07:52:16.521Z</time></trkpt><trkpt lat="43.9430879" lon="12.7100406"><ele>26.0</ele><time>2026-05-03T07:52:17.523Z</time></trkpt><trkpt lat="43.9432007" lon="12.7103174"><ele>25.0</ele><time>2026-05-03T07:52:18.524Z</time></trkpt><trkpt lat="43.9433097" lon="12.7105945"><ele>24.0</ele><time>2026-05-03T07:52:19.524Z</time></trkpt><trkpt lat="43.9434141" lon="12.7108794"><ele>24.5</ele><time>2026-05-03T07:52:20.524Z</time></trkpt><trkpt lat="43.9435096" lon="12.7111647"><ele>25.0</ele><time>2026-05-03T07:52:21.521Z</time></trkpt><trkpt lat="43.943608" lon="12.7114542"><ele>25.0</ele><time>2026-05-03T07:52:22.521Z</time></trkpt><trkpt lat="43.9436845" lon="12.7117524"><ele>25.0</ele><time>2026-05-03T07:52:23.521Z</time></trkpt><trkpt lat="43.9437672" lon="12.7120474"><ele>25.5</ele><time>2026-05-03T07:52:24.521Z</time></trkpt><trkpt lat="43.9438473" lon="12.7123567"><ele>26.0</ele><time>2026-05-03T07:52:25.523Z</time></trkpt><trkpt lat="43.9438847" lon="12.712671"><ele>25.5</ele><time>2026-05-03T07:52:26.525Z</time></trkpt><trkpt lat="43.9439426" lon="12.7129764"><ele>25.0</ele><time>2026-05-03T07:52:27.523Z</time></trkpt><trkpt lat="43.9439723" lon="12.7132932"><ele>24.5</ele><time>2026-05-03T07:52:28.527Z</time></trkpt><trkpt lat="43.9440109" lon="12.7136138"><ele>24.0</ele><time>2026-05-03T07:52:29.523Z</time></trkpt><trkpt lat="43.94402" lon="12.713929"><ele>24.0</ele><time>2026-05-03T07:52:30.523Z</time></trkpt><trkpt lat="43.9440442" lon="12.7142352"><ele>24.0</ele><time>2026-05-03T07:52:31.524Z</time></trkpt><trkpt lat="43.9440399" lon="12.7145327"><ele>24.0</ele><time>2026-05-03T07:52:32.523Z</time></trkpt><trkpt lat="43.9440427" lon="12.7148161"><ele>24.333333333333336</ele><time>2026-05-03T07:52:33.524Z</time></trkpt><trkpt lat="43.9440354" lon="12.7150881"><ele>24.666666666666668</ele><time>2026-05-03T07:52:34.525Z</time></trkpt><trkpt lat="43.9440338" lon="12.7153474"><ele>25.0</ele><time>2026-05-03T07:52:35.523Z</time></trkpt><trkpt lat="43.9440261" lon="12.7155948"><ele>25.0</ele><time>2026-05-03T07:52:36.523Z</time></trkpt><trkpt lat="43.9440266" lon="12.7158151"><ele>25.0</ele><time>2026-05-03T07:52:37.524Z</time></trkpt><trkpt lat="43.9440236" lon="12.7160238"><ele>25.0</ele><time>2026-05-03T07:52:38.52Z</time></trkpt><trkpt lat="43.9440226" lon="12.7162119"><ele>25.0</ele><time>2026-05-03T07:52:39.523Z</time></trkpt><trkpt lat="43.9440114" lon="12.7163862"><ele>24.8</ele><time>2026-05-03T07:52:40.523Z</time></trkpt><trkpt lat="43.9440002" lon="12.7165469"><ele>24.6</ele><time>2026-05-03T07:52:41.523Z</time></trkpt><trkpt lat="43.943983" lon="12.7166986"><ele>24.4</ele><time>2026-05-03T07:52:42.523Z</time></trkpt><trkpt lat="43.9439535" lon="12.7168517"><ele>24.2</ele><time>2026-05-03T07:52:43.522Z</time></trkpt><trkpt lat="43.9439203" lon="12.7169805"><ele>24.0</ele><time>2026-05-03T07:52:44.524Z</time></trkpt><trkpt lat="43.9438651" lon="12.7170957"><ele>23.799999999999997</ele><time>2026-05-03T07:52:45.524Z</time></trkpt><trkpt lat="43.9438114" lon="12.7172094"><ele>23.599999999999998</ele><time>2026-05-03T07:52:46.525Z</time></trkpt><trkpt lat="43.9437535" lon="12.7173113"><ele>23.4</ele><time>2026-05-03T07:52:47.523Z</time></trkpt><trkpt lat="43.943697" lon="12.7174047"><ele>23.2</ele><time>2026-05-03T07:52:48.523Z</time></trkpt><trkpt lat="43.9436605" lon="12.7175284"><ele>23.0</ele><time>2026-05-03T07:52:49.523Z</time></trkpt><trkpt lat="43.9436445" lon="12.7176573"><ele>23.2</ele><time>2026-05-03T07:52:50.523Z</time></trkpt><trkpt lat="43.9436436" lon="12.717802"><ele>23.4</ele><time>2026-05-03T07:52:51.524Z</time></trkpt><trkpt lat="43.9436411" lon="12.7179431"><ele>23.599999999999998</ele><time>2026-05-03T07:52:52.523Z</time></trkpt><trkpt lat="43.9437546" lon="12.7180086"><ele>23.799999999999997</ele><time>2026-05-03T07:52:53.524Z</time></trkpt><trkpt lat="43.9438289" lon="12.7180995"><ele>24.0</ele><time>2026-05-03T07:52:54.519Z</time></trkpt><trkpt lat="43.943927" lon="12.7181548"><ele>24.0</ele><time>2026-05-03T07:52:55.525Z</time></trkpt><trkpt lat="43.9440408" lon="12.7181861"><ele>24.0</ele><time>2026-05-03T07:52:56.524Z</time></trkpt><trkpt lat="43.944167" lon="12.7181613"><ele>24.0</ele><time>2026-05-03T07:52:57.521Z</time></trkpt><trkpt lat="43.9442861" lon="12.7182041"><ele>24.0</ele><time>2026-05-03T07:52:58.524Z</time></trkpt><trkpt lat="43.9444051" lon="12.7182468"><ele>24.2</ele><time>2026-05-03T07:52:59.522Z</time></trkpt><trkpt lat="43.9445101" lon="12.7182972"><ele>24.4</ele><time>2026-05-03T07:53:00.523Z</time></trkpt><trkpt lat="43.9446246" lon="12.7183325"><ele>24.6</ele><time>2026-05-03T07:53:01.523Z</time></trkpt><trkpt lat="43.9447087" lon="12.7184112"><ele>24.8</ele><time>2026-05-03T07:53:02.523Z</time></trkpt><trkpt lat="43.9447947" lon="12.7184713"><ele>25.0</ele><time>2026-05-03T07:53:03.525Z</time></trkpt><trkpt lat="43.9448739" lon="12.7185316"><ele>25.000000000000004</ele><time>2026-05-03T07:53:04.523Z</time></trkpt><trkpt lat="43.9449413" lon="12.7185925"><ele>25.0</ele><time>2026-05-03T07:53:05.523Z</time></trkpt><trkpt lat="43.9450093" lon="12.718652"><ele>25.0</ele><time>2026-05-03T07:53:06.524Z</time></trkpt><trkpt lat="43.9450825" lon="12.7187172"><ele>25.0</ele><time>2026-05-03T07:53:07.524Z</time></trkpt><trkpt lat="43.94515" lon="12.7187774"><ele>25.000000000000004</ele><time>2026-05-03T07:53:08.524Z</time></trkpt><trkpt lat="43.9452158" lon="12.7188494"><ele>25.0</ele><time>2026-05-03T07:53:09.524Z</time></trkpt><trkpt lat="43.9452741" lon="12.7189061"><ele>25.166666666666668</ele><time>2026-05-03T07:53:10.519Z</time></trkpt><trkpt lat="43.9453696" lon="12.7190101"><ele>25.333333333333336</ele><time>2026-05-03T07:53:11.523Z</time></trkpt><trkpt lat="43.9454385" lon="12.7190737"><ele>25.5</ele><time>2026-05-03T07:53:12.523Z</time></trkpt><trkpt lat="43.945505" lon="12.7191414"><ele>25.666666666666664</ele><time>2026-05-03T07:53:13.522Z</time></trkpt><trkpt lat="43.9455714" lon="12.7192058"><ele>25.833333333333332</ele><time>2026-05-03T07:53:14.523Z</time></trkpt><trkpt lat="43.9456369" lon="12.71927"><ele>26.0</ele><time>2026-05-03T07:53:15.523Z</time></trkpt><trkpt lat="43.945699" lon="12.7193265"><ele>26.0</ele><time>2026-05-03T07:53:16.523Z</time></trkpt><trkpt lat="43.9457561" lon="12.7193777"><ele>26.0</ele><time>2026-05-03T07:53:17.524Z</time></trkpt><trkpt lat="43.9458262" lon="12.7194623"><ele>26.0</ele><time>2026-05-03T07:53:19.523Z</time></trkpt><trkpt lat="43.945898" lon="12.7195366"><ele>26.0</ele><time>2026-05-03T07:53:21.522Z</time></trkpt><trkpt lat="43.9459888" lon="12.7196257"><ele>26.0</ele><time>2026-05-03T07:53:23.534Z</time></trkpt><trkpt lat="43.9460947" lon="12.7197342"><ele>25.666666666666664</ele><time>2026-05-03T07:53:25.526Z</time></trkpt><trkpt lat="43.9461536" lon="12.7197943"><ele>25.333333333333332</ele><time>2026-05-03T07:53:26.522Z</time></trkpt><trkpt lat="43.9462175" lon="12.7198592"><ele>25.0</ele><time>2026-05-03T07:53:27.523Z</time></trkpt><trkpt lat="43.946282" lon="12.7199263"><ele>24.666666666666664</ele><time>2026-05-03T07:53:28.515Z</time></trkpt><trkpt lat="43.946362" lon="12.7200177"><ele>24.333333333333332</ele><time>2026-05-03T07:53:29.525Z</time></trkpt><trkpt lat="43.9464427" lon="12.7200951"><ele>24.0</ele><time>2026-05-03T07:53:30.523Z</time></trkpt><trkpt lat="43.946513" lon="12.7201688"><ele>24.0</ele><time>2026-05-03T07:53:31.525Z</time></trkpt><trkpt lat="43.9465935" lon="12.7202451"><ele>24.0</ele><time>2026-05-03T07:53:32.525Z</time></trkpt><trkpt lat="43.9466713" lon="12.7203115"><ele>24.0</ele><time>2026-05-03T07:53:33.524Z</time></trkpt><trkpt lat="43.9467411" lon="12.7203838"><ele>24.0</ele><time>2026-05-03T07:53:34.523Z</time></trkpt><trkpt lat="43.9468126" lon="12.7204528"><ele>24.0</ele><time>2026-05-03T07:53:35.523Z</time></trkpt><trkpt lat="43.9468731" lon="12.720514"><ele>24.0</ele><time>2026-05-03T07:53:36.525Z</time></trkpt><trkpt lat="43.9469374" lon="12.7205746"><ele>24.0</ele><time>2026-05-03T07:53:37.524Z</time></trkpt><trkpt lat="43.9470012" lon="12.720634"><ele>24.0</ele><time>2026-05-03T07:53:38.524Z</time></trkpt><trkpt lat="43.9470671" lon="12.7206987"><ele>24.0</ele><time>2026-05-03T07:53:39.523Z</time></trkpt><trkpt lat="43.9471352" lon="12.7207609"><ele>24.0</ele><time>2026-05-03T07:53:40.523Z</time></trkpt><trkpt lat="43.9471986" lon="12.7208195"><ele>24.0</ele><time>2026-05-03T07:53:41.524Z</time></trkpt><trkpt lat="43.9472589" lon="12.7208796"><ele>24.0</ele><time>2026-05-03T07:53:42.522Z</time></trkpt><trkpt lat="43.9473225" lon="12.7209432"><ele>24.0</ele><time>2026-05-03T07:53:43.523Z</time></trkpt><trkpt lat="43.9473772" lon="12.7209982"><ele>24.0</ele><time>2026-05-03T07:53:44.515Z</time></trkpt><trkpt lat="43.9474221" lon="12.7210603"><ele>24.0</ele><time>2026-05-03T07:53:45.523Z</time></trkpt><trkpt lat="43.9474906" lon="12.7211754"><ele>24.0</ele><time>2026-05-03T07:53:47.523Z</time></trkpt><trkpt lat="43.9475326" lon="12.7212663"><ele>24.0</ele><time>2026-05-03T07:53:49.524Z</time></trkpt><trkpt lat="43.9475731" lon="12.7213945"><ele>24.0</ele><time>2026-05-03T07:53:51.529Z</time></trkpt><trkpt lat="43.947609" lon="12.7214692"><ele>23.799999999999997</ele><time>2026-05-03T07:53:52.524Z</time></trkpt><trkpt lat="43.9476966" lon="12.7215737"><ele>23.599999999999998</ele><time>2026-05-03T07:53:54.526Z</time></trkpt><trkpt lat="43.9478025" lon="12.721598"><ele>23.4</ele><time>2026-05-03T07:53:56.523Z</time></trkpt><trkpt lat="43.9478995" lon="12.7216194"><ele>23.2</ele><time>2026-05-03T07:53:58.523Z</time></trkpt><trkpt lat="43.9479994" lon="12.7216968"><ele>23.0</ele><time>2026-05-03T07:54:00.521Z</time></trkpt><trkpt lat="43.9480816" lon="12.7217788"><ele>23.0</ele><time>2026-05-03T07:54:02.524Z</time></trkpt><trkpt lat="43.9481414" lon="12.7218453"><ele>23.0</ele><time>2026-05-03T07:54:04.521Z</time></trkpt><trkpt lat="43.9481963" lon="12.7219233"><ele>23.0</ele><time>2026-05-03T07:54:06.522Z</time></trkpt><trkpt lat="43.948278" lon="12.722026"><ele>23.0</ele><time>2026-05-03T07:54:08.522Z</time></trkpt><trkpt lat="43.9483215" lon="12.72209"><ele>23.0</ele><time>2026-05-03T07:54:09.522Z</time></trkpt><trkpt lat="43.9483709" lon="12.7221508"><ele>23.0</ele><time>2026-05-03T07:54:10.525Z</time></trkpt><trkpt lat="43.9484594" lon="12.7222566"><ele>22.5</ele><time>2026-05-03T07:54:12.523Z</time></trkpt><trkpt lat="43.948535" lon="12.7223502"><ele>22.0</ele><time>2026-05-03T07:54:14.523Z</time></trkpt><trkpt lat="43.9486191" lon="12.7224394"><ele>21.5</ele><time>2026-05-03T07:54:16.524Z</time></trkpt><trkpt lat="43.9486716" lon="12.7225032"><ele>21.0</ele><time>2026-05-03T07:54:17.523Z</time></trkpt><trkpt lat="43.9487264" lon="12.7225611"><ele>20.5</ele><time>2026-05-03T07:54:18.522Z</time></trkpt><trkpt lat="43.9487845" lon="12.7226408"><ele>20.0</ele><time>2026-05-03T07:54:20.523Z</time></trkpt><trkpt lat="43.9488541" lon="12.7227256"><ele>20.4</ele><time>2026-05-03T07:54:23.524Z</time></trkpt><trkpt lat="43.94892" lon="12.7228157"><ele>20.8</ele><time>2026-05-03T07:54:25.536Z</time></trkpt><trkpt lat="43.9489663" lon="12.72288"><ele>21.200000000000003</ele><time>2026-05-03T07:54:26.524Z</time></trkpt><trkpt lat="43.9490225" lon="12.7229388"><ele>21.6</ele><time>2026-05-03T07:54:27.523Z</time></trkpt><trkpt lat="43.9491142" lon="12.7230556"><ele>22.0</ele><time>2026-05-03T07:54:29.519Z</time></trkpt><trkpt lat="43.9491672" lon="12.7231703"><ele>21.6</ele><time>2026-05-03T07:54:33.523Z</time></trkpt><trkpt lat="43.9492658" lon="12.7233099"><ele>21.200000000000003</ele><time>2026-05-03T07:54:34.531Z</time></trkpt><trkpt lat="43.9493352" lon="12.7234063"><ele>20.8</ele><time>2026-05-03T07:54:35.523Z</time></trkpt><trkpt lat="43.9494181" lon="12.7234946"><ele>20.4</ele><time>2026-05-03T07:54:36.524Z</time></trkpt><trkpt lat="43.9494843" lon="12.7235494"><ele>20.0</ele><time>2026-05-03T07:54:37.524Z</time></trkpt><trkpt lat="43.9495305" lon="12.7236375"><ele>20.0</ele><time>2026-05-03T07:54:41.523Z</time></trkpt><trkpt lat="43.9496292" lon="12.7236945"><ele>20.0</ele><time>2026-05-03T07:54:44.522Z</time></trkpt><trkpt lat="43.9497282" lon="12.7237867"><ele>20.0</ele><time>2026-05-03T07:54:46.524Z</time></trkpt><trkpt lat="43.9497865" lon="12.7238628"><ele>20.0</ele><time>2026-05-03T07:54:47.522Z</time></trkpt><trkpt lat="43.9498478" lon="12.7239298"><ele>20.0</ele><time>2026-05-03T07:54:48.522Z</time></trkpt><trkpt lat="43.9499145" lon="12.7240018"><ele>20.0</ele><time>2026-05-03T07:54:49.524Z</time></trkpt><trkpt lat="43.9499681" lon="12.7240606"><ele>20.0</ele><time>2026-05-03T07:54:50.523Z</time></trkpt><trkpt lat="43.9500374" lon="12.7241553"><ele>20.0</ele><time>2026-05-03T07:54:52.524Z</time></trkpt><trkpt lat="43.9500902" lon="12.7242378"><ele>20.0</ele><time>2026-05-03T07:54:55.523Z</time></trkpt><trkpt lat="43.950127" lon="12.7243175"><ele>20.0</ele><time>2026-05-03T07:55:03.515Z</time></trkpt><trkpt lat="43.9501732" lon="12.7244686"><ele>20.0</ele><time>2026-05-03T07:55:05.538Z</time></trkpt><trkpt lat="43.9502271" lon="12.7245507"><ele>19.8</ele><time>2026-05-03T07:55:06.523Z</time></trkpt><trkpt lat="43.9502752" lon="12.7246295"><ele>19.6</ele><time>2026-05-03T07:55:07.523Z</time></trkpt><trkpt lat="43.9503851" lon="12.7245821"><ele>19.4</ele><time>2026-05-03T07:55:08.523Z</time></trkpt><trkpt lat="43.950474" lon="12.7245945"><ele>19.2</ele><time>2026-05-03T07:55:09.521Z</time></trkpt><trkpt lat="43.950613" lon="12.724594"><ele>19.0</ele><time>2026-05-03T07:55:10.522Z</time></trkpt><trkpt lat="43.9507089" lon="12.7246247"><ele>19.0</ele><time>2026-05-03T07:55:11.524Z</time></trkpt><trkpt lat="43.9508163" lon="12.724653"><ele>19.0</ele><time>2026-05-03T07:55:12.524Z</time></trkpt><trkpt lat="43.9509187" lon="12.7246939"><ele>19.0</ele><time>2026-05-03T07:55:13.524Z</time></trkpt><trkpt lat="43.9510236" lon="12.7247295"><ele>19.0</ele><time>2026-05-03T07:55:14.521Z</time></trkpt><trkpt lat="43.9511164" lon="12.7247698"><ele>19.0</ele><time>2026-05-03T07:55:15.522Z</time></trkpt><trkpt lat="43.951211" lon="12.7248068"><ele>19.4</ele><time>2026-05-03T07:55:16.524Z</time></trkpt><trkpt lat="43.9513019" lon="12.7248487"><ele>19.799999999999997</ele><time>2026-05-03T07:55:17.52Z</time></trkpt><trkpt lat="43.9513954" lon="12.7248832"><ele>20.200000000000003</ele><time>2026-05-03T07:55:18.523Z</time></trkpt><trkpt lat="43.9514862" lon="12.7249201"><ele>20.6</ele><time>2026-05-03T07:55:19.522Z</time></trkpt><trkpt lat="43.951574" lon="12.7249613"><ele>21.0</ele><time>2026-05-03T07:55:20.524Z</time></trkpt><trkpt lat="43.9516558" lon="12.7249962"><ele>20.5</ele><time>2026-05-03T07:55:21.523Z</time></trkpt><trkpt lat="43.951732" lon="12.7250261"><ele>20.0</ele><time>2026-05-03T07:55:22.523Z</time></trkpt><trkpt lat="43.951805" lon="12.7250559"><ele>19.5</ele><time>2026-05-03T07:55:23.522Z</time></trkpt><trkpt lat="43.9518768" lon="12.725084"><ele>19.0</ele><time>2026-05-03T07:55:24.525Z</time></trkpt><trkpt lat="43.9519475" lon="12.7251133"><ele>18.5</ele><time>2026-05-03T07:55:25.523Z</time></trkpt><trkpt lat="43.9520267" lon="12.7251418"><ele>18.0</ele><time>2026-05-03T07:55:26.523Z</time></trkpt><trkpt lat="43.9521067" lon="12.7251761"><ele>18.0</ele><time>2026-05-03T07:55:27.524Z</time></trkpt><trkpt lat="43.9521854" lon="12.7252081"><ele>18.0</ele><time>2026-05-03T07:55:28.526Z</time></trkpt><trkpt lat="43.9522645" lon="12.7252428"><ele>18.0</ele><time>2026-05-03T07:55:29.524Z</time></trkpt><trkpt lat="43.9523519" lon="12.7252745"><ele>18.0</ele><time>2026-05-03T07:55:30.524Z</time></trkpt><trkpt lat="43.9524369" lon="12.725311"><ele>18.0</ele><time>2026-05-03T07:55:31.525Z</time></trkpt><trkpt lat="43.9525229" lon="12.7253479"><ele>18.0</ele><time>2026-05-03T07:55:32.523Z</time></trkpt><trkpt lat="43.9526132" lon="12.7253804"><ele>18.4</ele><time>2026-05-03T07:55:33.522Z</time></trkpt><trkpt lat="43.9527051" lon="12.7254164"><ele>18.8</ele><time>2026-05-03T07:55:34.522Z</time></trkpt><trkpt lat="43.9528044" lon="12.7254535"><ele>19.2</ele><time>2026-05-03T07:55:35.523Z</time></trkpt><trkpt lat="43.9529021" lon="12.7254964"><ele>19.6</ele><time>2026-05-03T07:55:36.523Z</time></trkpt><trkpt lat="43.9530068" lon="12.7255329"><ele>20.0</ele><time>2026-05-03T07:55:37.523Z</time></trkpt><trkpt lat="43.9531115" lon="12.725576"><ele>20.0</ele><time>2026-05-03T07:55:38.52Z</time></trkpt><trkpt lat="43.9532204" lon="12.7256153"><ele>20.0</ele><time>2026-05-03T07:55:39.524Z</time></trkpt><trkpt lat="43.9533189" lon="12.7256517"><ele>20.0</ele><time>2026-05-03T07:55:40.523Z</time></trkpt><trkpt lat="43.9534155" lon="12.7256889"><ele>20.0</ele><time>2026-05-03T07:55:41.523Z</time></trkpt><trkpt lat="43.9535043" lon="12.7257273"><ele>20.0</ele><time>2026-05-03T07:55:42.524Z</time></trkpt><trkpt lat="43.9535802" lon="12.7257561"><ele>19.6</ele><time>2026-05-03T07:55:43.64Z</time></trkpt><trkpt lat="43.9536965" lon="12.7258013"><ele>19.2</ele><time>2026-05-03T07:55:45.523Z</time></trkpt><trkpt lat="43.9537919" lon="12.7258378"><ele>18.8</ele><time>2026-05-03T07:55:47.524Z</time></trkpt><trkpt lat="43.9538685" lon="12.7258804"><ele>18.4</ele><time>2026-05-03T07:55:49.522Z</time></trkpt><trkpt lat="43.9539474" lon="12.7259634"><ele>18.0</ele><time>2026-05-03T07:55:51.523Z</time></trkpt><trkpt lat="43.9540263" lon="12.726107"><ele>18.000000000000004</ele><time>2026-05-03T07:55:53.523Z</time></trkpt><trkpt lat="43.9540776" lon="12.7261626"><ele>18.0</ele><time>2026-05-03T07:55:54.523Z</time></trkpt><trkpt lat="43.9541378" lon="12.7262051"><ele>18.0</ele><time>2026-05-03T07:55:55.523Z</time></trkpt><trkpt lat="43.9542016" lon="12.7261789"><ele>18.0</ele><time>2026-05-03T07:55:56.523Z</time></trkpt><trkpt lat="43.95426" lon="12.7261325"><ele>18.0</ele><time>2026-05-03T07:55:57.523Z</time></trkpt><trkpt lat="43.954308" lon="12.7260597"><ele>18.000000000000004</ele><time>2026-05-03T07:55:58.523Z</time></trkpt><trkpt lat="43.9543375" lon="12.7259732"><ele>18.0</ele><time>2026-05-03T07:55:59.522Z</time></trkpt><trkpt lat="43.9543687" lon="12.7258829"><ele>17.4</ele><time>2026-05-03T07:56:00.524Z</time></trkpt><trkpt lat="43.9544181" lon="12.7257954"><ele>16.8</ele><time>2026-05-03T07:56:01.524Z</time></trkpt><trkpt lat="43.9544703" lon="12.7257204"><ele>16.2</ele><time>2026-05-03T07:56:02.524Z</time></trkpt><trkpt lat="43.95455" lon="12.7256836"><ele>15.6</ele><time>2026-05-03T07:56:03.524Z</time></trkpt><trkpt lat="43.9546645" lon="12.7256625"><ele>15.0</ele><time>2026-05-03T07:56:04.523Z</time></trkpt><trkpt lat="43.9548292" lon="12.7256321"><ele>15.0</ele><time>2026-05-03T07:56:05.523Z</time></trkpt><trkpt lat="43.9549802" lon="12.7255956"><ele>15.0</ele><time>2026-05-03T07:56:06.531Z</time></trkpt><trkpt lat="43.9551748" lon="12.7255888"><ele>15.0</ele><time>2026-05-03T07:56:07.518Z</time></trkpt><trkpt lat="43.9553317" lon="12.7255905"><ele>14.666666666666668</ele><time>2026-05-03T07:56:08.523Z</time></trkpt><trkpt lat="43.9554953" lon="12.7255977"><ele>14.333333333333334</ele><time>2026-05-03T07:56:09.523Z</time></trkpt><trkpt lat="43.9556664" lon="12.7255681"><ele>14.0</ele><time>2026-05-03T07:56:10.524Z</time></trkpt><trkpt lat="43.9558205" lon="12.7255333"><ele>13.75</ele><time>2026-05-03T07:56:11.523Z</time></trkpt><trkpt lat="43.9559715" lon="12.725506"><ele>13.5</ele><time>2026-05-03T07:56:12.523Z</time></trkpt><trkpt lat="43.956028" lon="12.7255493"><ele>13.25</ele><time>2026-05-03T07:56:13.523Z</time></trkpt><trkpt lat="43.9561384" lon="12.7255714"><ele>13.0</ele><time>2026-05-03T07:56:14.523Z</time></trkpt><trkpt lat="43.9562364" lon="12.725685"><ele>13.0</ele><time>2026-05-03T07:56:16.524Z</time></trkpt><trkpt lat="43.9563027" lon="12.7257796"><ele>13.0</ele><time>2026-05-03T07:56:17.523Z</time></trkpt><trkpt lat="43.9563766" lon="12.7258841"><ele>13.0</ele><time>2026-05-03T07:56:18.524Z</time></trkpt><trkpt lat="43.956451" lon="12.7259866"><ele>13.0</ele><time>2026-05-03T07:56:19.524Z</time></trkpt><trkpt lat="43.9565146" lon="12.7261029"><ele>13.0</ele><time>2026-05-03T07:56:20.522Z</time></trkpt><trkpt lat="43.9565594" lon="12.7262516"><ele>13.25</ele><time>2026-05-03T07:56:21.523Z</time></trkpt><trkpt lat="43.9565726" lon="12.7264335"><ele>13.5</ele><time>2026-05-03T07:56:22.522Z</time></trkpt><trkpt lat="43.956545" lon="12.7266228"><ele>13.75</ele><time>2026-05-03T07:56:23.524Z</time></trkpt><trkpt lat="43.956475" lon="12.7268127"><ele>14.0</ele><time>2026-05-03T07:56:24.523Z</time></trkpt><trkpt lat="43.9563818" lon="12.7269881"><ele>14.0</ele><time>2026-05-03T07:56:25.522Z</time></trkpt><trkpt lat="43.9562804" lon="12.727167"><ele>14.0</ele><time>2026-05-03T07:56:26.527Z</time></trkpt><trkpt lat="43.9561773" lon="12.7273651"><ele>14.0</ele><time>2026-05-03T07:56:27.522Z</time></trkpt><trkpt lat="43.9560692" lon="12.7275687"><ele>14.333333333333334</ele><time>2026-05-03T07:56:28.522Z</time></trkpt><trkpt lat="43.9559546" lon="12.7277508"><ele>14.666666666666668</ele><time>2026-05-03T07:56:29.523Z</time></trkpt><trkpt lat="43.9558391" lon="12.7279458"><ele>15.0</ele><time>2026-05-03T07:56:30.522Z</time></trkpt><trkpt lat="43.9557054" lon="12.7281316"><ele>15.666666666666668</ele><time>2026-05-03T07:56:31.524Z</time></trkpt><trkpt lat="43.9555823" lon="12.7282925"><ele>16.333333333333336</ele><time>2026-05-03T07:56:32.525Z</time></trkpt><trkpt lat="43.9554534" lon="12.7284427"><ele>17.0</ele><time>2026-05-03T07:56:33.523Z</time></trkpt><trkpt lat="43.9553376" lon="12.7286102"><ele>17.0</ele><time>2026-05-03T07:56:34.522Z</time></trkpt><trkpt lat="43.9552224" lon="12.728743"><ele>17.0</ele><time>2026-05-03T07:56:35.524Z</time></trkpt><trkpt lat="43.9551191" lon="12.7288512"><ele>17.0</ele><time>2026-05-03T07:56:36.531Z</time></trkpt><trkpt lat="43.9550143" lon="12.7288646"><ele>17.0</ele><time>2026-05-03T07:56:37.525Z</time></trkpt><trkpt lat="43.9549166" lon="12.7289125"><ele>16.75</ele><time>2026-05-03T07:56:38.522Z</time></trkpt><trkpt lat="43.9548107" lon="12.7289512"><ele>16.5</ele><time>2026-05-03T07:56:39.523Z</time></trkpt><trkpt lat="43.9547085" lon="12.7290067"><ele>16.25</ele><time>2026-05-03T07:56:40.523Z</time></trkpt><trkpt lat="43.9546512" lon="12.7291434"><ele>16.0</ele><time>2026-05-03T07:56:41.522Z</time></trkpt><trkpt lat="43.9546209" lon="12.7293243"><ele>16.333333333333332</ele><time>2026-05-03T07:56:42.524Z</time></trkpt><trkpt lat="43.9545462" lon="12.7295223"><ele>16.666666666666668</ele><time>2026-05-03T07:56:43.524Z</time></trkpt><trkpt lat="43.9543926" lon="12.7296735"><ele>17.0</ele><time>2026-05-03T07:56:44.523Z</time></trkpt><trkpt lat="43.9542628" lon="12.7298206"><ele>16.666666666666668</ele><time>2026-05-03T07:56:45.523Z</time></trkpt><trkpt lat="43.9541295" lon="12.7299677"><ele>16.333333333333332</ele><time>2026-05-03T07:56:46.527Z</time></trkpt><trkpt lat="43.9539902" lon="12.7301064"><ele>16.0</ele><time>2026-05-03T07:56:47.521Z</time></trkpt><trkpt lat="43.9538528" lon="12.7302539"><ele>16.0</ele><time>2026-05-03T07:56:48.524Z</time></trkpt><trkpt lat="43.9537115" lon="12.7304069"><ele>16.0</ele><time>2026-05-03T07:56:49.524Z</time></trkpt><trkpt lat="43.9535732" lon="12.7305649"><ele>16.0</ele><time>2026-05-03T07:56:50.523Z</time></trkpt><trkpt lat="43.9534317" lon="12.730718"><ele>16.0</ele><time>2026-05-03T07:56:51.523Z</time></trkpt><trkpt lat="43.9532918" lon="12.7308727"><ele>16.0</ele><time>2026-05-03T07:56:52.523Z</time></trkpt><trkpt lat="43.9531591" lon="12.7310231"><ele>16.0</ele><time>2026-05-03T07:56:53.523Z</time></trkpt><trkpt lat="43.9530295" lon="12.7311781"><ele>16.0</ele><time>2026-05-03T07:56:54.516Z</time></trkpt><trkpt lat="43.9529071" lon="12.7313273"><ele>16.0</ele><time>2026-05-03T07:56:55.522Z</time></trkpt><trkpt lat="43.9527917" lon="12.7314695"><ele>16.0</ele><time>2026-05-03T07:56:56.526Z</time></trkpt><trkpt lat="43.9526803" lon="12.7316088"><ele>16.0</ele><time>2026-05-03T07:56:57.52Z</time></trkpt><trkpt lat="43.9525746" lon="12.7317407"><ele>16.0</ele><time>2026-05-03T07:56:58.523Z</time></trkpt><trkpt lat="43.95247" lon="12.7318832"><ele>16.0</ele><time>2026-05-03T07:56:59.522Z</time></trkpt><trkpt lat="43.9523629" lon="12.7320369"><ele>16.0</ele><time>2026-05-03T07:57:00.523Z</time></trkpt><trkpt lat="43.95225" lon="12.7322015"><ele>14.666666666666666</ele><time>2026-05-03T07:57:01.517Z</time></trkpt><trkpt lat="43.9521357" lon="12.7323657"><ele>13.333333333333332</ele><time>2026-05-03T07:57:02.522Z</time></trkpt><trkpt lat="43.9520201" lon="12.7325323"><ele>12.0</ele><time>2026-05-03T07:57:03.523Z</time></trkpt><trkpt lat="43.9519017" lon="12.7327127"><ele>12.5</ele><time>2026-05-03T07:57:04.524Z</time></trkpt><trkpt lat="43.9518161" lon="12.7328762"><ele>13.0</ele><time>2026-05-03T07:57:05.523Z</time></trkpt><trkpt lat="43.9517243" lon="12.7330324"><ele>13.5</ele><time>2026-05-03T07:57:06.53Z</time></trkpt><trkpt lat="43.9516581" lon="12.7331597"><ele>14.0</ele><time>2026-05-03T07:57:07.524Z</time></trkpt><trkpt lat="43.9515866" lon="12.7333026"><ele>14.0</ele><time>2026-05-03T07:57:08.523Z</time></trkpt><trkpt lat="43.9515147" lon="12.7334494"><ele>14.0</ele><time>2026-05-03T07:57:09.524Z</time></trkpt><trkpt lat="43.9514279" lon="12.7336107"><ele>14.0</ele><time>2026-05-03T07:57:10.518Z</time></trkpt><trkpt lat="43.9513511" lon="12.7338763"><ele>14.0</ele><time>2026-05-03T07:57:11.524Z</time></trkpt><trkpt lat="43.951276" lon="12.7341143"><ele>14.0</ele><time>2026-05-03T07:57:12.524Z</time></trkpt><trkpt lat="43.9512103" lon="12.7343676"><ele>14.0</ele><time>2026-05-03T07:57:13.521Z</time></trkpt><trkpt lat="43.9511535" lon="12.7346009"><ele>13.333333333333334</ele><time>2026-05-03T07:57:14.524Z</time></trkpt><trkpt lat="43.9511062" lon="12.7348356"><ele>12.666666666666668</ele><time>2026-05-03T07:57:15.525Z</time></trkpt><trkpt lat="43.9510651" lon="12.7350637"><ele>12.0</ele><time>2026-05-03T07:57:16.522Z</time></trkpt><trkpt lat="43.9510329" lon="12.7352816"><ele>12.0</ele><time>2026-05-03T07:57:17.523Z</time></trkpt><trkpt lat="43.9510074" lon="12.7355018"><ele>12.0</ele><time>2026-05-03T07:57:18.523Z</time></trkpt><trkpt lat="43.9509788" lon="12.7357116"><ele>12.0</ele><time>2026-05-03T07:57:19.523Z</time></trkpt><trkpt lat="43.9509616" lon="12.7359196"><ele>12.25</ele><time>2026-05-03T07:57:20.523Z</time></trkpt><trkpt lat="43.9509433" lon="12.7361248"><ele>12.5</ele><time>2026-05-03T07:57:21.521Z</time></trkpt><trkpt lat="43.9509288" lon="12.7363287"><ele>12.75</ele><time>2026-05-03T07:57:22.524Z</time></trkpt><trkpt lat="43.9509153" lon="12.7365346"><ele>13.0</ele><time>2026-05-03T07:57:23.523Z</time></trkpt><trkpt lat="43.9509131" lon="12.7367358"><ele>13.25</ele><time>2026-05-03T07:57:24.523Z</time></trkpt><trkpt lat="43.950925" lon="12.7369428"><ele>13.5</ele><time>2026-05-03T07:57:25.523Z</time></trkpt><trkpt lat="43.9509247" lon="12.7371424"><ele>13.75</ele><time>2026-05-03T07:57:26.521Z</time></trkpt><trkpt lat="43.9509205" lon="12.7373413"><ele>14.0</ele><time>2026-05-03T07:57:27.533Z</time></trkpt><trkpt lat="43.9509273" lon="12.7375295"><ele>14.0</ele><time>2026-05-03T07:57:28.523Z</time></trkpt><trkpt lat="43.9509282" lon="12.7377247"><ele>14.0</ele><time>2026-05-03T07:57:29.523Z</time></trkpt><trkpt lat="43.9509528" lon="12.7379074"><ele>14.0</ele><time>2026-05-03T07:57:30.524Z</time></trkpt><trkpt lat="43.9509639" lon="12.7381127"><ele>14.0</ele><time>2026-05-03T07:57:31.525Z</time></trkpt><trkpt lat="43.9509802" lon="12.7383149"><ele>14.0</ele><time>2026-05-03T07:57:32.521Z</time></trkpt><trkpt lat="43.9510035" lon="12.7385196"><ele>14.0</ele><time>2026-05-03T07:57:33.523Z</time></trkpt><trkpt lat="43.951034" lon="12.7387083"><ele>14.0</ele><time>2026-05-03T07:57:34.523Z</time></trkpt><trkpt lat="43.9510597" lon="12.7388901"><ele>14.0</ele><time>2026-05-03T07:57:35.523Z</time></trkpt><trkpt lat="43.9511013" lon="12.7390855"><ele>14.0</ele><time>2026-05-03T07:57:36.525Z</time></trkpt><trkpt lat="43.9511269" lon="12.7392566"><ele>14.0</ele><time>2026-05-03T07:57:37.524Z</time></trkpt><trkpt lat="43.9511832" lon="12.7394458"><ele>14.0</ele><time>2026-05-03T07:57:38.523Z</time></trkpt><trkpt lat="43.9512465" lon="12.7396436"><ele>14.0</ele><time>2026-05-03T07:57:39.522Z</time></trkpt><trkpt lat="43.9512978" lon="12.7398292"><ele>14.0</ele><time>2026-05-03T07:57:40.523Z</time></trkpt><trkpt lat="43.951351" lon="12.7399988"><ele>14.0</ele><time>2026-05-03T07:57:41.521Z</time></trkpt><trkpt lat="43.9513879" lon="12.7401774"><ele>14.0</ele><time>2026-05-03T07:57:42.524Z</time></trkpt><trkpt lat="43.9514405" lon="12.7403607"><ele>14.0</ele><time>2026-05-03T07:57:43.522Z</time></trkpt><trkpt lat="43.951485" lon="12.7405475"><ele>14.0</ele><time>2026-05-03T07:57:44.524Z</time></trkpt><trkpt lat="43.9515375" lon="12.7407242"><ele>14.0</ele><time>2026-05-03T07:57:45.524Z</time></trkpt><trkpt lat="43.9515943" lon="12.7408984"><ele>14.0</ele><time>2026-05-03T07:57:46.527Z</time></trkpt><trkpt lat="43.9516473" lon="12.7410777"><ele>14.0</ele><time>2026-05-03T07:57:47.522Z</time></trkpt><trkpt lat="43.9517033" lon="12.7412652"><ele>13.333333333333334</ele><time>2026-05-03T07:57:48.524Z</time></trkpt><trkpt lat="43.9517676" lon="12.7414576"><ele>12.666666666666668</ele><time>2026-05-03T07:57:49.524Z</time></trkpt><trkpt lat="43.9518254" lon="12.7416541"><ele>12.0</ele><time>2026-05-03T07:57:50.523Z</time></trkpt><trkpt lat="43.9518867" lon="12.7418704"><ele>12.666666666666668</ele><time>2026-05-03T07:57:51.523Z</time></trkpt><trkpt lat="43.9519546" lon="12.7420882"><ele>13.333333333333334</ele><time>2026-05-03T07:57:52.523Z</time></trkpt><trkpt lat="43.9520184" lon="12.7423191"><ele>14.0</ele><time>2026-05-03T07:57:53.522Z</time></trkpt><trkpt lat="43.9520825" lon="12.7425484"><ele>13.333333333333334</ele><time>2026-05-03T07:57:54.52Z</time></trkpt><trkpt lat="43.952154" lon="12.7427685"><ele>12.666666666666668</ele><time>2026-05-03T07:57:55.523Z</time></trkpt><trkpt lat="43.952219" lon="12.7429834"><ele>12.0</ele><time>2026-05-03T07:57:56.526Z</time></trkpt><trkpt lat="43.9522915" lon="12.7431875"><ele>12.0</ele><time>2026-05-03T07:57:57.518Z</time></trkpt><trkpt lat="43.952358" lon="12.7433861"><ele>12.0</ele><time>2026-05-03T07:57:58.524Z</time></trkpt><trkpt lat="43.9524198" lon="12.7435785"><ele>12.0</ele><time>2026-05-03T07:57:59.519Z</time></trkpt><trkpt lat="43.9524775" lon="12.7437801"><ele>12.0</ele><time>2026-05-03T07:58:00.524Z</time></trkpt><trkpt lat="43.9525364" lon="12.7439749"><ele>12.0</ele><time>2026-05-03T07:58:01.522Z</time></trkpt><trkpt lat="43.9525904" lon="12.7441613"><ele>12.0</ele><time>2026-05-03T07:58:02.52Z</time></trkpt><trkpt lat="43.9526445" lon="12.744351"><ele>12.0</ele><time>2026-05-03T07:58:03.523Z</time></trkpt><trkpt lat="43.9526757" lon="12.7445608"><ele>12.666666666666668</ele><time>2026-05-03T07:58:04.525Z</time></trkpt><trkpt lat="43.9527283" lon="12.7447705"><ele>13.333333333333334</ele><time>2026-05-03T07:58:05.522Z</time></trkpt><trkpt lat="43.9527689" lon="12.7449907"><ele>14.0</ele><time>2026-05-03T07:58:06.526Z</time></trkpt><trkpt lat="43.9528282" lon="12.7452043"><ele>14.0</ele><time>2026-05-03T07:58:07.523Z</time></trkpt><trkpt lat="43.9528673" lon="12.7454252"><ele>14.0</ele><time>2026-05-03T07:58:08.523Z</time></trkpt><trkpt lat="43.9529187" lon="12.7456262"><ele>14.0</ele><time>2026-05-03T07:58:09.523Z</time></trkpt><trkpt lat="43.9529602" lon="12.7458456"><ele>13.666666666666668</ele><time>2026-05-03T07:58:10.521Z</time></trkpt><trkpt lat="43.9530039" lon="12.7460616"><ele>13.333333333333332</ele><time>2026-05-03T07:58:11.523Z</time></trkpt><trkpt lat="43.9530379" lon="12.7462861"><ele>13.0</ele><time>2026-05-03T07:58:12.524Z</time></trkpt><trkpt lat="43.9530662" lon="12.7465054"><ele>13.0</ele><time>2026-05-03T07:58:13.516Z</time></trkpt><trkpt lat="43.9530937" lon="12.7467253"><ele>13.0</ele><time>2026-05-03T07:58:14.525Z</time></trkpt><trkpt lat="43.9531181" lon="12.7469389"><ele>13.0</ele><time>2026-05-03T07:58:15.518Z</time></trkpt><trkpt lat="43.9531405" lon="12.7471457"><ele>12.333333333333332</ele><time>2026-05-03T07:58:16.526Z</time></trkpt><trkpt lat="43.9531557" lon="12.7473549"><ele>11.666666666666666</ele><time>2026-05-03T07:58:17.522Z</time></trkpt><trkpt lat="43.9531696" lon="12.7475628"><ele>11.0</ele><time>2026-05-03T07:58:18.521Z</time></trkpt><trkpt lat="43.9531787" lon="12.7477715"><ele>10.75</ele><time>2026-05-03T07:58:19.525Z</time></trkpt><trkpt lat="43.9531931" lon="12.7479687"><ele>10.5</ele><time>2026-05-03T07:58:20.522Z</time></trkpt><trkpt lat="43.9532011" lon="12.7481647"><ele>10.25</ele><time>2026-05-03T07:58:21.523Z</time></trkpt><trkpt lat="43.9532082" lon="12.7483532"><ele>10.0</ele><time>2026-05-03T07:58:22.525Z</time></trkpt><trkpt lat="43.9532117" lon="12.7485419"><ele>9.75</ele><time>2026-05-03T07:58:23.52Z</time></trkpt><trkpt lat="43.9532089" lon="12.7487315"><ele>9.5</ele><time>2026-05-03T07:58:24.522Z</time></trkpt><trkpt lat="43.9532109" lon="12.7489213"><ele>9.25</ele><time>2026-05-03T07:58:25.524Z</time></trkpt><trkpt lat="43.9532086" lon="12.7491128"><ele>9.0</ele><time>2026-05-03T07:58:26.523Z</time></trkpt><trkpt lat="43.9532081" lon="12.7493034"><ele>9.25</ele><time>2026-05-03T07:58:27.523Z</time></trkpt><trkpt lat="43.9532067" lon="12.7494834"><ele>9.5</ele><time>2026-05-03T07:58:28.524Z</time></trkpt><trkpt lat="43.9531953" lon="12.7496601"><ele>9.75</ele><time>2026-05-03T07:58:29.521Z</time></trkpt><trkpt lat="43.9531892" lon="12.7498493"><ele>10.0</ele><time>2026-05-03T07:58:30.525Z</time></trkpt><trkpt lat="43.9531927" lon="12.7500435"><ele>10.5</ele><time>2026-05-03T07:58:31.516Z</time></trkpt><trkpt lat="43.9531897" lon="12.750229"><ele>11.0</ele><time>2026-05-03T07:58:32.523Z</time></trkpt><trkpt lat="43.9531894" lon="12.7504181"><ele>11.5</ele><time>2026-05-03T07:58:33.523Z</time></trkpt><trkpt lat="43.9531855" lon="12.7506102"><ele>12.0</ele><time>2026-05-03T07:58:34.523Z</time></trkpt><trkpt lat="43.9531855" lon="12.7508032"><ele>12.0</ele><time>2026-05-03T07:58:35.523Z</time></trkpt><trkpt lat="43.9531812" lon="12.7510044"><ele>12.0</ele><time>2026-05-03T07:58:36.523Z</time></trkpt><trkpt lat="43.9531804" lon="12.7512116"><ele>12.0</ele><time>2026-05-03T07:58:37.523Z</time></trkpt><trkpt lat="43.9531834" lon="12.7514289"><ele>12.0</ele><time>2026-05-03T07:58:38.523Z</time></trkpt><trkpt lat="43.9531891" lon="12.7516798"><ele>12.0</ele><time>2026-05-03T07:58:39.523Z</time></trkpt><trkpt lat="43.953195" lon="12.7519324"><ele>12.0</ele><time>2026-05-03T07:58:40.523Z</time></trkpt><trkpt lat="43.9532026" lon="12.7522006"><ele>12.333333333333332</ele><time>2026-05-03T07:58:41.523Z</time></trkpt><trkpt lat="43.9532022" lon="12.7524904"><ele>12.666666666666666</ele><time>2026-05-03T07:58:42.524Z</time></trkpt><trkpt lat="43.9532027" lon="12.7527652"><ele>13.0</ele><time>2026-05-03T07:58:43.522Z</time></trkpt><trkpt lat="43.9532121" lon="12.7530565"><ele>13.0</ele><time>2026-05-03T07:58:44.523Z</time></trkpt><trkpt lat="43.9532219" lon="12.7533508"><ele>13.0</ele><time>2026-05-03T07:58:45.521Z</time></trkpt><trkpt lat="43.9532273" lon="12.7536461"><ele>13.0</ele><time>2026-05-03T07:58:46.522Z</time></trkpt><trkpt lat="43.9532403" lon="12.7539688"><ele>11.5</ele><time>2026-05-03T07:58:47.524Z</time></trkpt><trkpt lat="43.9532545" lon="12.7542845"><ele>10.0</ele><time>2026-05-03T07:58:48.524Z</time></trkpt><trkpt lat="43.9532671" lon="12.7546099"><ele>9.5</ele><time>2026-05-03T07:58:49.522Z</time></trkpt><trkpt lat="43.9532854" lon="12.7549407"><ele>9.0</ele><time>2026-05-03T07:58:50.521Z</time></trkpt><trkpt lat="43.953302" lon="12.7552776"><ele>9.0</ele><time>2026-05-03T07:58:51.525Z</time></trkpt><trkpt lat="43.9533317" lon="12.755602"><ele>9.0</ele><time>2026-05-03T07:58:52.524Z</time></trkpt><trkpt lat="43.9533625" lon="12.7559427"><ele>8.5</ele><time>2026-05-03T07:58:53.522Z</time></trkpt><trkpt lat="43.9533962" lon="12.7562836"><ele>8.0</ele><time>2026-05-03T07:58:54.523Z</time></trkpt><trkpt lat="43.9534342" lon="12.7566243"><ele>8.5</ele><time>2026-05-03T07:58:55.522Z</time></trkpt><trkpt lat="43.9534745" lon="12.7569688"><ele>9.0</ele><time>2026-05-03T07:58:56.523Z</time></trkpt><trkpt lat="43.9535174" lon="12.757302"><ele>9.0</ele><time>2026-05-03T07:58:57.525Z</time></trkpt><trkpt lat="43.9535589" lon="12.7576255"><ele>9.0</ele><time>2026-05-03T07:58:58.523Z</time></trkpt><trkpt lat="43.9536033" lon="12.7579467"><ele>9.0</ele><time>2026-05-03T07:58:59.523Z</time></trkpt><trkpt lat="43.9536432" lon="12.7582623"><ele>9.0</ele><time>2026-05-03T07:59:00.524Z</time></trkpt><trkpt lat="43.9536813" lon="12.7585728"><ele>9.0</ele><time>2026-05-03T07:59:01.518Z</time></trkpt><trkpt lat="43.9537228" lon="12.7588798"><ele>9.0</ele><time>2026-05-03T07:59:02.526Z</time></trkpt><trkpt lat="43.9537598" lon="12.7591974"><ele>9.0</ele><time>2026-05-03T07:59:03.524Z</time></trkpt><trkpt lat="43.9538002" lon="12.7595139"><ele>9.0</ele><time>2026-05-03T07:59:04.523Z</time></trkpt><trkpt lat="43.9538483" lon="12.7598304"><ele>9.0</ele><time>2026-05-03T07:59:05.523Z</time></trkpt><trkpt lat="43.9539086" lon="12.760146"><ele>9.0</ele><time>2026-05-03T07:59:06.524Z</time></trkpt><trkpt lat="43.9539823" lon="12.7604636"><ele>9.5</ele><time>2026-05-03T07:59:07.521Z</time></trkpt><trkpt lat="43.9540571" lon="12.7607741"><ele>10.0</ele><time>2026-05-03T07:59:08.523Z</time></trkpt><trkpt lat="43.9541547" lon="12.7610673"><ele>9.5</ele><time>2026-05-03T07:59:09.523Z</time></trkpt><trkpt lat="43.9543139" lon="12.7613358"><ele>9.0</ele><time>2026-05-03T07:59:10.523Z</time></trkpt><trkpt lat="43.9544598" lon="12.7615881"><ele>9.0</ele><time>2026-05-03T07:59:11.523Z</time></trkpt><trkpt lat="43.9546019" lon="12.7618457"><ele>9.0</ele><time>2026-05-03T07:59:12.524Z</time></trkpt><trkpt lat="43.9547803" lon="12.7619933"><ele>9.0</ele><time>2026-05-03T07:59:13.521Z</time></trkpt><trkpt lat="43.9549516" lon="12.7621892"><ele>10.0</ele><time>2026-05-03T07:59:14.524Z</time></trkpt><trkpt lat="43.9551325" lon="12.7623879"><ele>11.0</ele><time>2026-05-03T07:59:15.525Z</time></trkpt><trkpt lat="43.9553141" lon="12.7625801"><ele>11.0</ele><time>2026-05-03T07:59:16.522Z</time></trkpt><trkpt lat="43.9554849" lon="12.7627853"><ele>11.0</ele><time>2026-05-03T07:59:17.521Z</time></trkpt><trkpt lat="43.9556496" lon="12.7629389"><ele>11.0</ele><time>2026-05-03T07:59:18.524Z</time></trkpt><trkpt lat="43.9558268" lon="12.7631233"><ele>12.333333333333332</ele><time>2026-05-03T07:59:19.522Z</time></trkpt><trkpt lat="43.9559814" lon="12.7633109"><ele>13.666666666666666</ele><time>2026-05-03T07:59:20.523Z</time></trkpt><trkpt lat="43.9561222" lon="12.7635068"><ele>15.0</ele><time>2026-05-03T07:59:21.523Z</time></trkpt><trkpt lat="43.9562496" lon="12.7637155"><ele>15.333333333333332</ele><time>2026-05-03T07:59:22.522Z</time></trkpt><trkpt lat="43.9563595" lon="12.7639347"><ele>15.666666666666666</ele><time>2026-05-03T07:59:23.523Z</time></trkpt><trkpt lat="43.9564474" lon="12.7641732"><ele>16.0</ele><time>2026-05-03T07:59:24.522Z</time></trkpt><trkpt lat="43.9565154" lon="12.7644139"><ele>15.0</ele><time>2026-05-03T07:59:25.523Z</time></trkpt><trkpt lat="43.9565657" lon="12.7646526"><ele>14.0</ele><time>2026-05-03T07:59:26.523Z</time></trkpt><trkpt lat="43.9565952" lon="12.7648869"><ele>13.0</ele><time>2026-05-03T07:59:27.521Z</time></trkpt><trkpt lat="43.9566086" lon="12.765108"><ele>13.25</ele><time>2026-05-03T07:59:28.522Z</time></trkpt><trkpt lat="43.9566082" lon="12.7653184"><ele>13.5</ele><time>2026-05-03T07:59:29.524Z</time></trkpt><trkpt lat="43.9565985" lon="12.765486"><ele>13.75</ele><time>2026-05-03T07:59:30.524Z</time></trkpt><trkpt lat="43.9565876" lon="12.7656453"><ele>14.0</ele><time>2026-05-03T07:59:31.524Z</time></trkpt><trkpt lat="43.9565587" lon="12.7657795"><ele>14.000000000000002</ele><time>2026-05-03T07:59:32.524Z</time></trkpt><trkpt lat="43.9565552" lon="12.7658954"><ele>14.0</ele><time>2026-05-03T07:59:33.521Z</time></trkpt><trkpt lat="43.9565818" lon="12.7659946"><ele>14.0</ele><time>2026-05-03T07:59:34.523Z</time></trkpt><trkpt lat="43.9566392" lon="12.7660659"><ele>14.0</ele><time>2026-05-03T07:59:35.518Z</time></trkpt><trkpt lat="43.9567233" lon="12.7661069"><ele>14.000000000000002</ele><time>2026-05-03T07:59:36.523Z</time></trkpt><trkpt lat="43.9568262" lon="12.7661016"><ele>14.0</ele><time>2026-05-03T07:59:37.523Z</time></trkpt><trkpt lat="43.9569207" lon="12.7660663"><ele>14.666666666666668</ele><time>2026-05-03T07:59:38.524Z</time></trkpt><trkpt lat="43.9570085" lon="12.7660182"><ele>15.333333333333334</ele><time>2026-05-03T07:59:39.524Z</time></trkpt><trkpt lat="43.9570994" lon="12.7659653"><ele>16.0</ele><time>2026-05-03T07:59:40.522Z</time></trkpt><trkpt lat="43.9571316" lon="12.765871"><ele>16.666666666666668</ele><time>2026-05-03T07:59:41.524Z</time></trkpt><trkpt lat="43.9571818" lon="12.7657847"><ele>17.333333333333332</ele><time>2026-05-03T07:59:42.522Z</time></trkpt><trkpt lat="43.957226" lon="12.7656922"><ele>18.0</ele><time>2026-05-03T07:59:43.522Z</time></trkpt><trkpt lat="43.957254" lon="12.7656082"><ele>18.0</ele><time>2026-05-03T07:59:44.525Z</time></trkpt><trkpt lat="43.9572105" lon="12.7655055"><ele>18.0</ele><time>2026-05-03T07:59:45.522Z</time></trkpt><trkpt lat="43.9571919" lon="12.7654007"><ele>18.0</ele><time>2026-05-03T07:59:46.524Z</time></trkpt><trkpt lat="43.9571613" lon="12.7652711"><ele>18.0</ele><time>2026-05-03T07:59:47.521Z</time></trkpt><trkpt lat="43.9571348" lon="12.7651634"><ele>18.0</ele><time>2026-05-03T07:59:48.524Z</time></trkpt><trkpt lat="43.9570839" lon="12.7650555"><ele>18.0</ele><time>2026-05-03T07:59:49.523Z</time></trkpt><trkpt lat="43.9570663" lon="12.76495"><ele>18.2</ele><time>2026-05-03T07:59:50.524Z</time></trkpt><trkpt lat="43.9570424" lon="12.7648615"><ele>18.4</ele><time>2026-05-03T07:59:51.523Z</time></trkpt><trkpt lat="43.9570002" lon="12.7647241"><ele>18.599999999999998</ele><time>2026-05-03T07:59:53.524Z</time></trkpt><trkpt lat="43.9569715" lon="12.7645899"><ele>18.8</ele><time>2026-05-03T07:59:55.523Z</time></trkpt><trkpt lat="43.9569431" lon="12.7644636"><ele>19.0</ele><time>2026-05-03T07:59:57.525Z</time></trkpt><trkpt lat="43.9569239" lon="12.7643336"><ele>19.333333333333332</ele><time>2026-05-03T07:59:59.526Z</time></trkpt><trkpt lat="43.9569161" lon="12.7642403"><ele>19.666666666666664</ele><time>2026-05-03T08:00:00.531Z</time></trkpt><trkpt lat="43.9569234" lon="12.7640656"><ele>20.0</ele><time>2026-05-03T08:00:02.524Z</time></trkpt><trkpt lat="43.9569272" lon="12.763962"><ele>20.333333333333332</ele><time>2026-05-03T08:00:03.523Z</time></trkpt><trkpt lat="43.9569476" lon="12.7638509"><ele>20.666666666666668</ele><time>2026-05-03T08:00:04.524Z</time></trkpt><trkpt lat="43.9569747" lon="12.7637594"><ele>21.0</ele><time>2026-05-03T08:00:05.523Z</time></trkpt><trkpt lat="43.9570042" lon="12.7636553"><ele>21.0</ele><time>2026-05-03T08:00:06.527Z</time></trkpt><trkpt lat="43.957034" lon="12.7635586"><ele>21.0</ele><time>2026-05-03T08:00:07.522Z</time></trkpt><trkpt lat="43.9570712" lon="12.7634625"><ele>21.0</ele><time>2026-05-03T08:00:08.523Z</time></trkpt><trkpt lat="43.9571006" lon="12.7633663"><ele>21.0</ele><time>2026-05-03T08:00:09.524Z</time></trkpt><trkpt lat="43.9571364" lon="12.7632657"><ele>21.0</ele><time>2026-05-03T08:00:10.52Z</time></trkpt><trkpt lat="43.9571732" lon="12.7631673"><ele>21.0</ele><time>2026-05-03T08:00:11.524Z</time></trkpt><trkpt lat="43.9572133" lon="12.7630755"><ele>21.166666666666668</ele><time>2026-05-03T08:00:12.524Z</time></trkpt><trkpt lat="43.9572554" lon="12.7629693"><ele>21.333333333333332</ele><time>2026-05-03T08:00:13.523Z</time></trkpt><trkpt lat="43.9573011" lon="12.762854"><ele>21.5</ele><time>2026-05-03T08:00:14.524Z</time></trkpt><trkpt lat="43.9573472" lon="12.7627489"><ele>21.666666666666664</ele><time>2026-05-03T08:00:15.523Z</time></trkpt><trkpt lat="43.9573877" lon="12.7626443"><ele>21.833333333333332</ele><time>2026-05-03T08:00:16.528Z</time></trkpt><trkpt lat="43.957424" lon="12.76253"><ele>22.0</ele><time>2026-05-03T08:00:17.522Z</time></trkpt><trkpt lat="43.9574636" lon="12.7624266"><ele>20.8</ele><time>2026-05-03T08:00:18.523Z</time></trkpt><trkpt lat="43.9575101" lon="12.7623101"><ele>19.6</ele><time>2026-05-03T08:00:19.525Z</time></trkpt><trkpt lat="43.9575658" lon="12.762191"><ele>18.400000000000002</ele><time>2026-05-03T08:00:20.523Z</time></trkpt><trkpt lat="43.9576301" lon="12.7620618"><ele>17.200000000000003</ele><time>2026-05-03T08:00:21.523Z</time></trkpt><trkpt lat="43.9576907" lon="12.7619278"><ele>16.0</ele><time>2026-05-03T08:00:22.52Z</time></trkpt><trkpt lat="43.9577554" lon="12.7617788"><ele>15.25</ele><time>2026-05-03T08:00:23.523Z</time></trkpt><trkpt lat="43.9578192" lon="12.7616318"><ele>14.5</ele><time>2026-05-03T08:00:24.523Z</time></trkpt><trkpt lat="43.9578835" lon="12.7614872"><ele>13.75</ele><time>2026-05-03T08:00:25.524Z</time></trkpt><trkpt lat="43.9579441" lon="12.7613431"><ele>13.0</ele><time>2026-05-03T08:00:26.531Z</time></trkpt><trkpt lat="43.9580015" lon="12.7612059"><ele>13.0</ele><time>2026-05-03T08:00:27.524Z</time></trkpt><trkpt lat="43.9580634" lon="12.761073"><ele>13.0</ele><time>2026-05-03T08:00:28.524Z</time></trkpt><trkpt lat="43.9581183" lon="12.7609412"><ele>13.0</ele><time>2026-05-03T08:00:29.523Z</time></trkpt><trkpt lat="43.9581748" lon="12.7608011"><ele>13.0</ele><time>2026-05-03T08:00:30.524Z</time></trkpt><trkpt lat="43.9582339" lon="12.7606615"><ele>12.75</ele><time>2026-05-03T08:00:31.524Z</time></trkpt><trkpt lat="43.9582976" lon="12.7605198"><ele>12.5</ele><time>2026-05-03T08:00:32.523Z</time></trkpt><trkpt lat="43.9583574" lon="12.7603762"><ele>12.25</ele><time>2026-05-03T08:00:33.523Z</time></trkpt><trkpt lat="43.9584147" lon="12.760219"><ele>12.0</ele><time>2026-05-03T08:00:34.523Z</time></trkpt><trkpt lat="43.958475" lon="12.7600846"><ele>11.0</ele><time>2026-05-03T08:00:35.525Z</time></trkpt><trkpt lat="43.9585314" lon="12.7599288"><ele>10.0</ele><time>2026-05-03T08:00:36.528Z</time></trkpt><trkpt lat="43.9586034" lon="12.7597811"><ele>9.0</ele><time>2026-05-03T08:00:37.641Z</time></trkpt><trkpt lat="43.9587377" lon="12.7594892"><ele>8.25</ele><time>2026-05-03T08:00:39.521Z</time></trkpt><trkpt lat="43.9588084" lon="12.7593299"><ele>7.5</ele><time>2026-05-03T08:00:40.524Z</time></trkpt><trkpt lat="43.9588824" lon="12.7591698"><ele>6.75</ele><time>2026-05-03T08:00:41.524Z</time></trkpt><trkpt lat="43.958962" lon="12.7589985"><ele>6.0</ele><time>2026-05-03T08:00:42.522Z</time></trkpt><trkpt lat="43.9590396" lon="12.758819"><ele>6.0</ele><time>2026-05-03T08:00:43.523Z</time></trkpt><trkpt lat="43.9591077" lon="12.7586415"><ele>6.0</ele><time>2026-05-03T08:00:44.524Z</time></trkpt><trkpt lat="43.9591728" lon="12.7584697"><ele>6.0</ele><time>2026-05-03T08:00:45.525Z</time></trkpt><trkpt lat="43.9592277" lon="12.758303"><ele>6.0</ele><time>2026-05-03T08:00:46.526Z</time></trkpt><trkpt lat="43.9592731" lon="12.758144"><ele>6.0</ele><time>2026-05-03T08:00:47.522Z</time></trkpt><trkpt lat="43.9593134" lon="12.7579909"><ele>6.0</ele><time>2026-05-03T08:00:48.523Z</time></trkpt><trkpt lat="43.9593493" lon="12.7578613"><ele>6.0</ele><time>2026-05-03T08:00:49.524Z</time></trkpt><trkpt lat="43.9593792" lon="12.7577501"><ele>6.0</ele><time>2026-05-03T08:00:50.525Z</time></trkpt><trkpt lat="43.9594228" lon="12.7576607"><ele>6.0</ele><time>2026-05-03T08:00:51.524Z</time></trkpt><trkpt lat="43.9594782" lon="12.7575956"><ele>6.333333333333333</ele><time>2026-05-03T08:00:52.526Z</time></trkpt><trkpt lat="43.9595175" lon="12.7575255"><ele>6.666666666666666</ele><time>2026-05-03T08:00:53.523Z</time></trkpt><trkpt lat="43.9595071" lon="12.7573721"><ele>7.0</ele><time>2026-05-03T08:00:55.524Z</time></trkpt><trkpt lat="43.9594818" lon="12.757282"><ele>7.333333333333333</ele><time>2026-05-03T08:00:56.532Z</time></trkpt><trkpt lat="43.9594795" lon="12.7571719"><ele>7.666666666666666</ele><time>2026-05-03T08:00:57.522Z</time></trkpt><trkpt lat="43.9594933" lon="12.7570381"><ele>8.0</ele><time>2026-05-03T08:00:58.522Z</time></trkpt><trkpt lat="43.9595056" lon="12.7568922"><ele>8.166666666666666</ele><time>2026-05-03T08:00:59.524Z</time></trkpt><trkpt lat="43.9595196" lon="12.7567551"><ele>8.333333333333332</ele><time>2026-05-03T08:01:00.523Z</time></trkpt><trkpt lat="43.9595297" lon="12.7566286"><ele>8.5</ele><time>2026-05-03T08:01:01.522Z</time></trkpt><trkpt lat="43.9595426" lon="12.7565191"><ele>8.666666666666666</ele><time>2026-05-03T08:01:02.523Z</time></trkpt><trkpt lat="43.9595501" lon="12.756427"><ele>8.833333333333334</ele><time>2026-05-03T08:01:03.524Z</time></trkpt><trkpt lat="43.9596168" lon="12.7563096"><ele>9.0</ele><time>2026-05-03T08:01:05.526Z</time></trkpt><trkpt lat="43.9597161" lon="12.7562782"><ele>9.0</ele><time>2026-05-03T08:01:07.524Z</time></trkpt><trkpt lat="43.9598488" lon="12.7562813"><ele>9.0</ele><time>2026-05-03T08:01:09.524Z</time></trkpt><trkpt lat="43.9599299" lon="12.7562901"><ele>9.0</ele><time>2026-05-03T08:01:10.522Z</time></trkpt><trkpt lat="43.9600191" lon="12.7563002"><ele>9.0</ele><time>2026-05-03T08:01:11.524Z</time></trkpt><trkpt lat="43.9601175" lon="12.7563091"><ele>9.0</ele><time>2026-05-03T08:01:12.515Z</time></trkpt><trkpt lat="43.9602249" lon="12.7563253"><ele>9.0</ele><time>2026-05-03T08:01:13.52Z</time></trkpt><trkpt lat="43.9603289" lon="12.7563333"><ele>9.0</ele><time>2026-05-03T08:01:14.522Z</time></trkpt><trkpt lat="43.9604289" lon="12.7563469"><ele>9.0</ele><time>2026-05-03T08:01:15.522Z</time></trkpt><trkpt lat="43.9605357" lon="12.7563618"><ele>9.0</ele><time>2026-05-03T08:01:16.529Z</time></trkpt><trkpt lat="43.9606476" lon="12.7563839"><ele>9.0</ele><time>2026-05-03T08:01:17.523Z</time></trkpt><trkpt lat="43.9607466" lon="12.756404"><ele>8.0</ele><time>2026-05-03T08:01:18.524Z</time></trkpt><trkpt lat="43.9608915" lon="12.756428"><ele>7.0</ele><time>2026-05-03T08:01:19.52Z</time></trkpt><trkpt lat="43.9610329" lon="12.7564353"><ele>6.0</ele><time>2026-05-03T08:01:20.523Z</time></trkpt><trkpt lat="43.9611396" lon="12.7564397"><ele>5.0</ele><time>2026-05-03T08:01:21.525Z</time></trkpt><trkpt lat="43.9612401" lon="12.7564501"><ele>5.0</ele><time>2026-05-03T08:01:22.52Z</time></trkpt><trkpt lat="43.9613587" lon="12.7564668"><ele>5.0</ele><time>2026-05-03T08:01:23.522Z</time></trkpt><trkpt lat="43.9614721" lon="12.7564666"><ele>5.0</ele><time>2026-05-03T08:01:24.522Z</time></trkpt><trkpt lat="43.9615928" lon="12.7564798"><ele>5.0</ele><time>2026-05-03T08:01:25.522Z</time></trkpt><trkpt lat="43.9617076" lon="12.7565057"><ele>5.2</ele><time>2026-05-03T08:01:26.532Z</time></trkpt><trkpt lat="43.9618229" lon="12.7565149"><ele>5.4</ele><time>2026-05-03T08:01:27.514Z</time></trkpt><trkpt lat="43.9619258" lon="12.7565309"><ele>5.6</ele><time>2026-05-03T08:01:28.524Z</time></trkpt><trkpt lat="43.9620326" lon="12.7565396"><ele>5.8</ele><time>2026-05-03T08:01:29.522Z</time></trkpt><trkpt lat="43.9621279" lon="12.7565473"><ele>6.0</ele><time>2026-05-03T08:01:30.523Z</time></trkpt><trkpt lat="43.9622011" lon="12.7565455"><ele>6.0</ele><time>2026-05-03T08:01:31.523Z</time></trkpt><trkpt lat="43.9622969" lon="12.7566622"><ele>6.0</ele><time>2026-05-03T08:01:33.522Z</time></trkpt><trkpt lat="43.9623166" lon="12.756746"><ele>6.0</ele><time>2026-05-03T08:01:34.523Z</time></trkpt><trkpt lat="43.9623281" lon="12.7568376"><ele>6.0</ele><time>2026-05-03T08:01:35.522Z</time></trkpt><trkpt lat="43.9622408" lon="12.7569779"><ele>6.0</ele><time>2026-05-03T08:01:37.524Z</time></trkpt><trkpt lat="43.9621904" lon="12.7570618"><ele>8.4</ele><time>2026-05-03T08:01:38.522Z</time></trkpt><trkpt lat="43.9621232" lon="12.7571441"><ele>10.8</ele><time>2026-05-03T08:01:39.523Z</time></trkpt><trkpt lat="43.9620614" lon="12.7572306"><ele>13.200000000000001</ele><time>2026-05-03T08:01:40.523Z</time></trkpt><trkpt lat="43.9619936" lon="12.7573162"><ele>15.6</ele><time>2026-05-03T08:01:41.52Z</time></trkpt><trkpt lat="43.9619309" lon="12.7574109"><ele>18.0</ele><time>2026-05-03T08:01:42.524Z</time></trkpt><trkpt lat="43.9618712" lon="12.7575114"><ele>18.0</ele><time>2026-05-03T08:01:43.517Z</time></trkpt><trkpt lat="43.9618145" lon="12.7575953"><ele>18.0</ele><time>2026-05-03T08:01:44.523Z</time></trkpt><trkpt lat="43.9617652" lon="12.7576667"><ele>18.0</ele><time>2026-05-03T08:01:45.523Z</time></trkpt><trkpt lat="43.9616946" lon="12.7577778"><ele>18.0</ele><time>2026-05-03T08:01:47.524Z</time></trkpt><trkpt lat="43.9617303" lon="12.7578509"><ele>18.0</ele><time>2026-05-03T08:01:48.522Z</time></trkpt><trkpt lat="43.9617918" lon="12.7579398"><ele>18.0</ele><time>2026-05-03T08:01:50.523Z</time></trkpt><trkpt lat="43.9618847" lon="12.7579984"><ele>20.4</ele><time>2026-05-03T08:01:51.533Z</time></trkpt><trkpt lat="43.9619608" lon="12.7580785"><ele>22.8</ele><time>2026-05-03T08:01:52.521Z</time></trkpt><trkpt lat="43.9619973" lon="12.7581533"><ele>25.2</ele><time>2026-05-03T08:01:53.523Z</time></trkpt><trkpt lat="43.9620306" lon="12.7583105"><ele>27.6</ele><time>2026-05-03T08:01:55.522Z</time></trkpt><trkpt lat="43.9619884" lon="12.7583943"><ele>30.0</ele><time>2026-05-03T08:01:56.532Z</time></trkpt><trkpt lat="43.9618672" lon="12.7585919"><ele>28.0</ele><time>2026-05-03T08:01:58.525Z</time></trkpt><trkpt lat="43.961803" lon="12.7587139"><ele>26.0</ele><time>2026-05-03T08:01:59.522Z</time></trkpt><trkpt lat="43.9617419" lon="12.7588164"><ele>24.0</ele><time>2026-05-03T08:02:00.522Z</time></trkpt><trkpt lat="43.9617043" lon="12.7589206"><ele>22.0</ele><time>2026-05-03T08:02:01.521Z</time></trkpt><trkpt lat="43.961683" lon="12.7590223"><ele>20.0</ele><time>2026-05-03T08:02:02.522Z</time></trkpt><trkpt lat="43.9617464" lon="12.7591126"><ele>23.5</ele><time>2026-05-03T08:02:03.523Z</time></trkpt><trkpt lat="43.9617983" lon="12.7591643"><ele>27.0</ele><time>2026-05-03T08:02:04.522Z</time></trkpt><trkpt lat="43.9618702" lon="12.7591677"><ele>30.5</ele><time>2026-05-03T08:02:05.523Z</time></trkpt><trkpt lat="43.9619383" lon="12.7591204"><ele>34.0</ele><time>2026-05-03T08:02:06.527Z</time></trkpt><trkpt lat="43.9620074" lon="12.7590635"><ele>37.5</ele><time>2026-05-03T08:02:07.522Z</time></trkpt><trkpt lat="43.9620734" lon="12.7588953"><ele>41.0</ele><time>2026-05-03T08:02:08.522Z</time></trkpt><trkpt lat="43.9621481" lon="12.758777"><ele>41.0</ele><time>2026-05-03T08:02:09.523Z</time></trkpt><trkpt lat="43.9622116" lon="12.758666"><ele>41.0</ele><time>2026-05-03T08:02:10.523Z</time></trkpt><trkpt lat="43.9622877" lon="12.7586192"><ele>41.0</ele><time>2026-05-03T08:02:11.523Z</time></trkpt><trkpt lat="43.9623525" lon="12.7586126"><ele>41.0</ele><time>2026-05-03T08:02:12.523Z</time></trkpt><trkpt lat="43.9624145" lon="12.7586561"><ele>41.0</ele><time>2026-05-03T08:02:13.523Z</time></trkpt><trkpt lat="43.9624462" lon="12.7587438"><ele>41.0</ele><time>2026-05-03T08:02:14.522Z</time></trkpt><trkpt lat="43.9624355" lon="12.7588517"><ele>41.0</ele><time>2026-05-03T08:02:15.523Z</time></trkpt><trkpt lat="43.9623886" lon="12.7589551"><ele>41.0</ele><time>2026-05-03T08:02:16.529Z</time></trkpt><trkpt lat="43.9623187" lon="12.7590732"><ele>41.0</ele><time>2026-05-03T08:02:17.524Z</time></trkpt><trkpt lat="43.9622511" lon="12.7591954"><ele>41.0</ele><time>2026-05-03T08:02:18.522Z</time></trkpt><trkpt lat="43.9622195" lon="12.7593175"><ele>41.0</ele><time>2026-05-03T08:02:19.522Z</time></trkpt><trkpt lat="43.9622266" lon="12.75944"><ele>41.5</ele><time>2026-05-03T08:02:20.523Z</time></trkpt><trkpt lat="43.962271" lon="12.7595487"><ele>42.0</ele><time>2026-05-03T08:02:21.523Z</time></trkpt><trkpt lat="43.9623353" lon="12.7596334"><ele>42.5</ele><time>2026-05-03T08:02:22.523Z</time></trkpt><trkpt lat="43.9624103" lon="12.7596668"><ele>43.0</ele><time>2026-05-03T08:02:23.523Z</time></trkpt><trkpt lat="43.9624795" lon="12.7596893"><ele>43.5</ele><time>2026-05-03T08:02:24.523Z</time></trkpt><trkpt lat="43.9625637" lon="12.7596726"><ele>44.0</ele><time>2026-05-03T08:02:25.522Z</time></trkpt><trkpt lat="43.9626177" lon="12.7595606"><ele>46.400000000000006</ele><time>2026-05-03T08:02:26.529Z</time></trkpt><trkpt lat="43.9626854" lon="12.7594927"><ele>48.8</ele><time>2026-05-03T08:02:27.52Z</time></trkpt><trkpt lat="43.9627682" lon="12.7594574"><ele>51.199999999999996</ele><time>2026-05-03T08:02:28.52Z</time></trkpt><trkpt lat="43.9628591" lon="12.7594531"><ele>53.599999999999994</ele><time>2026-05-03T08:02:29.522Z</time></trkpt><trkpt lat="43.962948" lon="12.7594611"><ele>56.0</ele><time>2026-05-03T08:02:30.523Z</time></trkpt><trkpt lat="43.9630508" lon="12.7594825"><ele>56.0</ele><time>2026-05-03T08:02:31.52Z</time></trkpt><trkpt lat="43.9631168" lon="12.7595403"><ele>55.99999999999999</ele><time>2026-05-03T08:02:32.521Z</time></trkpt><trkpt lat="43.963194" lon="12.7596079"><ele>55.99999999999999</ele><time>2026-05-03T08:02:33.52Z</time></trkpt><trkpt lat="43.9632585" lon="12.759729"><ele>56.0</ele><time>2026-05-03T08:02:34.523Z</time></trkpt><trkpt lat="43.9633318" lon="12.759789"><ele>56.0</ele><time>2026-05-03T08:02:35.522Z</time></trkpt><trkpt lat="43.9633701" lon="12.760039"><ele>54.599999999999994</ele><time>2026-05-03T08:02:37.522Z</time></trkpt><trkpt lat="43.9633639" lon="12.7602026"><ele>53.199999999999996</ele><time>2026-05-03T08:02:38.522Z</time></trkpt><trkpt lat="43.963372" lon="12.7603625"><ele>51.8</ele><time>2026-05-03T08:02:39.521Z</time></trkpt><trkpt lat="43.9633863" lon="12.7605113"><ele>50.400000000000006</ele><time>2026-05-03T08:02:40.523Z</time></trkpt><trkpt lat="43.9633739" lon="12.7606267"><ele>49.0</ele><time>2026-05-03T08:02:41.523Z</time></trkpt><trkpt lat="43.9633163" lon="12.7607281"><ele>52.0</ele><time>2026-05-03T08:02:43.521Z</time></trkpt><trkpt lat="43.963324" lon="12.7609029"><ele>55.0</ele><time>2026-05-03T08:02:53.523Z</time></trkpt><trkpt lat="43.9633235" lon="12.7610359"><ele>58.00000000000001</ele><time>2026-05-03T08:02:54.522Z</time></trkpt><trkpt lat="43.963302" lon="12.7611733"><ele>61.0</ele><time>2026-05-03T08:02:55.521Z</time></trkpt><trkpt lat="43.963267" lon="12.7613067"><ele>64.0</ele><time>2026-05-03T08:02:56.53Z</time></trkpt><trkpt lat="43.9632348" lon="12.7614281"><ele>66.25</ele><time>2026-05-03T08:02:57.523Z</time></trkpt><trkpt lat="43.9631594" lon="12.7615722"><ele>68.5</ele><time>2026-05-03T08:02:58.524Z</time></trkpt><trkpt lat="43.9630976" lon="12.7617152"><ele>70.75</ele><time>2026-05-03T08:02:59.524Z</time></trkpt><trkpt lat="43.9630385" lon="12.7618616"><ele>73.0</ele><time>2026-05-03T08:03:00.523Z</time></trkpt><trkpt lat="43.9629851" lon="12.7620061"><ele>73.75</ele><time>2026-05-03T08:03:01.518Z</time></trkpt><trkpt lat="43.9629421" lon="12.7621548"><ele>74.5</ele><time>2026-05-03T08:03:02.519Z</time></trkpt><trkpt lat="43.9629078" lon="12.7623091"><ele>75.25</ele><time>2026-05-03T08:03:03.523Z</time></trkpt><trkpt lat="43.9628848" lon="12.7624726"><ele>76.0</ele><time>2026-05-03T08:03:04.517Z</time></trkpt><trkpt lat="43.9628732" lon="12.7626296"><ele>75.75</ele><time>2026-05-03T08:03:05.522Z</time></trkpt><trkpt lat="43.9628799" lon="12.762791"><ele>75.5</ele><time>2026-05-03T08:03:06.525Z</time></trkpt><trkpt lat="43.9628911" lon="12.7629503"><ele>75.25</ele><time>2026-05-03T08:03:07.521Z</time></trkpt><trkpt lat="43.9629054" lon="12.7631112"><ele>75.0</ele><time>2026-05-03T08:03:08.522Z</time></trkpt><trkpt lat="43.9629241" lon="12.7632793"><ele>75.0</ele><time>2026-05-03T08:03:09.523Z</time></trkpt><trkpt lat="43.9629442" lon="12.7634516"><ele>75.0</ele><time>2026-05-03T08:03:10.523Z</time></trkpt><trkpt lat="43.9629637" lon="12.7636318"><ele>75.0</ele><time>2026-05-03T08:03:11.523Z</time></trkpt><trkpt lat="43.962983" lon="12.7638122"><ele>75.0</ele><time>2026-05-03T08:03:12.519Z</time></trkpt><trkpt lat="43.9630036" lon="12.7639972"><ele>74.5</ele><time>2026-05-03T08:03:13.522Z</time></trkpt><trkpt lat="43.9630229" lon="12.7641831"><ele>74.0</ele><time>2026-05-03T08:03:14.523Z</time></trkpt><trkpt lat="43.9630409" lon="12.764363"><ele>73.5</ele><time>2026-05-03T08:03:15.523Z</time></trkpt><trkpt lat="43.9630582" lon="12.7645363"><ele>73.0</ele><time>2026-05-03T08:03:16.527Z</time></trkpt><trkpt lat="43.9630798" lon="12.7647019"><ele>74.25</ele><time>2026-05-03T08:03:17.523Z</time></trkpt><trkpt lat="43.9630979" lon="12.7648676"><ele>75.5</ele><time>2026-05-03T08:03:18.523Z</time></trkpt><trkpt lat="43.9631157" lon="12.765026"><ele>76.75</ele><time>2026-05-03T08:03:19.517Z</time></trkpt><trkpt lat="43.9631375" lon="12.7651845"><ele>78.0</ele><time>2026-05-03T08:03:20.522Z</time></trkpt><trkpt lat="43.963158" lon="12.7653392"><ele>79.8</ele><time>2026-05-03T08:03:21.522Z</time></trkpt><trkpt lat="43.9631769" lon="12.7654948"><ele>81.6</ele><time>2026-05-03T08:03:22.522Z</time></trkpt><trkpt lat="43.9631935" lon="12.7656599"><ele>83.39999999999999</ele><time>2026-05-03T08:03:23.523Z</time></trkpt><trkpt lat="43.9632116" lon="12.7657968"><ele>85.19999999999999</ele><time>2026-05-03T08:03:24.522Z</time></trkpt><trkpt lat="43.9632459" lon="12.7659481"><ele>87.0</ele><time>2026-05-03T08:03:25.522Z</time></trkpt><trkpt lat="43.963303" lon="12.766105"><ele>89.0</ele><time>2026-05-03T08:03:26.53Z</time></trkpt><trkpt lat="43.9633439" lon="12.7662545"><ele>91.0</ele><time>2026-05-03T08:03:27.523Z</time></trkpt><trkpt lat="43.963389" lon="12.7664101"><ele>93.0</ele><time>2026-05-03T08:03:28.524Z</time></trkpt><trkpt lat="43.9634092" lon="12.7665532"><ele>95.0</ele><time>2026-05-03T08:03:29.523Z</time></trkpt><trkpt lat="43.9634191" lon="12.7666965"><ele>97.0</ele><time>2026-05-03T08:03:30.524Z</time></trkpt><trkpt lat="43.9634188" lon="12.7668393"><ele>91.25</ele><time>2026-05-03T08:03:31.523Z</time></trkpt><trkpt lat="43.9633928" lon="12.7669913"><ele>85.5</ele><time>2026-05-03T08:03:32.524Z</time></trkpt><trkpt lat="43.9633777" lon="12.7671489"><ele>79.75</ele><time>2026-05-03T08:03:33.523Z</time></trkpt><trkpt lat="43.9633825" lon="12.767331"><ele>74.0</ele><time>2026-05-03T08:03:34.521Z</time></trkpt><trkpt lat="43.9634015" lon="12.7674922"><ele>74.0</ele><time>2026-05-03T08:03:35.524Z</time></trkpt><trkpt lat="43.9634283" lon="12.7676626"><ele>74.0</ele><time>2026-05-03T08:03:36.529Z</time></trkpt><trkpt lat="43.9634604" lon="12.7678332"><ele>74.0</ele><time>2026-05-03T08:03:37.523Z</time></trkpt><trkpt lat="43.9634883" lon="12.7680015"><ele>74.0</ele><time>2026-05-03T08:03:38.522Z</time></trkpt><trkpt lat="43.9635163" lon="12.768167"><ele>75.25</ele><time>2026-05-03T08:03:39.521Z</time></trkpt><trkpt lat="43.9635289" lon="12.7683151"><ele>76.5</ele><time>2026-05-03T08:03:40.521Z</time></trkpt><trkpt lat="43.9635158" lon="12.7684621"><ele>77.75</ele><time>2026-05-03T08:03:41.52Z</time></trkpt><trkpt lat="43.9634765" lon="12.7686158"><ele>79.0</ele><time>2026-05-03T08:03:42.522Z</time></trkpt><trkpt lat="43.9634363" lon="12.7687745"><ele>79.75</ele><time>2026-05-03T08:03:43.521Z</time></trkpt><trkpt lat="43.9634125" lon="12.7689311"><ele>80.5</ele><time>2026-05-03T08:03:44.522Z</time></trkpt><trkpt lat="43.9633914" lon="12.7690859"><ele>81.25</ele><time>2026-05-03T08:03:45.523Z</time></trkpt><trkpt lat="43.9634298" lon="12.7692817"><ele>82.0</ele><time>2026-05-03T08:03:46.526Z</time></trkpt><trkpt lat="43.9634345" lon="12.7694594"><ele>82.5</ele><time>2026-05-03T08:03:47.519Z</time></trkpt><trkpt lat="43.9634566" lon="12.7696403"><ele>83.0</ele><time>2026-05-03T08:03:48.523Z</time></trkpt><trkpt lat="43.9634413" lon="12.7697976"><ele>83.5</ele><time>2026-05-03T08:03:49.522Z</time></trkpt><trkpt lat="43.963419" lon="12.7699437"><ele>84.0</ele><time>2026-05-03T08:03:50.523Z</time></trkpt><trkpt lat="43.9634016" lon="12.7700851"><ele>84.80000000000001</ele><time>2026-05-03T08:03:51.521Z</time></trkpt><trkpt lat="43.9633806" lon="12.7702326"><ele>85.60000000000001</ele><time>2026-05-03T08:03:52.52Z</time></trkpt><trkpt lat="43.9633539" lon="12.7703714"><ele>86.4</ele><time>2026-05-03T08:03:53.522Z</time></trkpt><trkpt lat="43.9633524" lon="12.7705196"><ele>87.2</ele><time>2026-05-03T08:03:54.522Z</time></trkpt><trkpt lat="43.9633402" lon="12.7706539"><ele>88.0</ele><time>2026-05-03T08:03:55.521Z</time></trkpt><trkpt lat="43.9633419" lon="12.7707781"><ele>91.0</ele><time>2026-05-03T08:03:56.529Z</time></trkpt><trkpt lat="43.9633525" lon="12.7709006"><ele>94.0</ele><time>2026-05-03T08:03:57.522Z</time></trkpt><trkpt lat="43.9633509" lon="12.7710627"><ele>97.0</ele><time>2026-05-03T08:03:59.522Z</time></trkpt><trkpt lat="43.9633677" lon="12.7712372"><ele>100.0</ele><time>2026-05-03T08:04:01.52Z</time></trkpt><trkpt lat="43.9633926" lon="12.7713848"><ele>103.0</ele><time>2026-05-03T08:04:03.523Z</time></trkpt><trkpt lat="43.9634361" lon="12.7714782"><ele>103.0</ele><time>2026-05-03T08:04:06.528Z</time></trkpt><trkpt lat="43.9634995" lon="12.7714491"><ele>103.0</ele><time>2026-05-03T08:04:09.523Z</time></trkpt><trkpt lat="43.963569" lon="12.7714236"><ele>103.0</ele><time>2026-05-03T08:04:13.524Z</time></trkpt></trkseg><trkseg><trkpt lat="43.9634586" lon="12.7713809"><ele>103.0</ele><time>2026-05-03T08:25:28.522Z</time></trkpt><trkpt lat="43.9634132" lon="12.7714419"><ele>103.0</ele><time>2026-05-03T08:25:35.518Z</time></trkpt><trkpt lat="43.9634052" lon="12.7715343"><ele>103.0</ele><time>2026-05-03T08:25:37.51Z</time></trkpt><trkpt lat="43.9633852" lon="12.7716504"><ele>103.0</ele><time>2026-05-03T08:25:39.52Z</time></trkpt><trkpt lat="43.9632827" lon="12.7717146"><ele>103.0</ele><time>2026-05-03T08:25:41.519Z</time></trkpt><trkpt lat="43.9632024" lon="12.7718449"><ele>106.66666666666667</ele><time>2026-05-03T08:25:43.666Z</time></trkpt><trkpt lat="43.9631344" lon="12.7720061"><ele>110.33333333333334</ele><time>2026-05-03T08:25:45.521Z</time></trkpt><trkpt lat="43.9631014" lon="12.7720921"><ele>114.0</ele><time>2026-05-03T08:25:46.52Z</time></trkpt><trkpt lat="43.96306" lon="12.7721834"><ele>117.66666666666666</ele><time>2026-05-03T08:25:47.515Z</time></trkpt><trkpt lat="43.9630171" lon="12.7722766"><ele>121.33333333333333</ele><time>2026-05-03T08:25:48.521Z</time></trkpt><trkpt lat="43.9629688" lon="12.7723697"><ele>125.0</ele><time>2026-05-03T08:25:49.518Z</time></trkpt><trkpt lat="43.9629156" lon="12.7724645"><ele>125.0</ele><time>2026-05-03T08:25:50.535Z</time></trkpt><trkpt lat="43.962849" lon="12.7725411"><ele>125.0</ele><time>2026-05-03T08:25:51.519Z</time></trkpt><trkpt lat="43.9627718" lon="12.772606"><ele>125.0</ele><time>2026-05-03T08:25:52.52Z</time></trkpt><trkpt lat="43.9626905" lon="12.7726628"><ele>125.0</ele><time>2026-05-03T08:25:53.524Z</time></trkpt><trkpt lat="43.9626042" lon="12.7727239"><ele>125.0</ele><time>2026-05-03T08:25:54.519Z</time></trkpt><trkpt lat="43.9625118" lon="12.7727729"><ele>123.0</ele><time>2026-05-03T08:25:55.52Z</time></trkpt><trkpt lat="43.9624213" lon="12.7727939"><ele>121.0</ele><time>2026-05-03T08:25:56.521Z</time></trkpt><trkpt lat="43.9623237" lon="12.7728032"><ele>119.0</ele><time>2026-05-03T08:25:57.52Z</time></trkpt><trkpt lat="43.9622282" lon="12.7727956"><ele>117.0</ele><time>2026-05-03T08:25:58.517Z</time></trkpt><trkpt lat="43.9621359" lon="12.7727961"><ele>115.0</ele><time>2026-05-03T08:25:59.518Z</time></trkpt><trkpt lat="43.9620491" lon="12.7727953"><ele>115.00000000000001</ele><time>2026-05-03T08:26:00.519Z</time></trkpt><trkpt lat="43.961967" lon="12.7727996"><ele>115.0</ele><time>2026-05-03T08:26:01.518Z</time></trkpt><trkpt lat="43.9618868" lon="12.7728105"><ele>115.0</ele><time>2026-05-03T08:26:02.519Z</time></trkpt><trkpt lat="43.9618196" lon="12.7728182"><ele>115.0</ele><time>2026-05-03T08:26:03.52Z</time></trkpt><trkpt lat="43.961771" lon="12.7728972"><ele>115.00000000000001</ele><time>2026-05-03T08:26:04.519Z</time></trkpt><trkpt lat="43.9617386" lon="12.7729876"><ele>115.0</ele><time>2026-05-03T08:26:05.519Z</time></trkpt><trkpt lat="43.9617167" lon="12.773101"><ele>115.00000000000001</ele><time>2026-05-03T08:26:06.52Z</time></trkpt><trkpt lat="43.9617666" lon="12.7732289"><ele>115.0</ele><time>2026-05-03T08:26:07.515Z</time></trkpt><trkpt lat="43.9618055" lon="12.7733314"><ele>115.0</ele><time>2026-05-03T08:26:08.517Z</time></trkpt><trkpt lat="43.961884" lon="12.7734099"><ele>115.0</ele><time>2026-05-03T08:26:09.515Z</time></trkpt><trkpt lat="43.9619413" lon="12.7734852"><ele>115.00000000000001</ele><time>2026-05-03T08:26:10.516Z</time></trkpt><trkpt lat="43.9620053" lon="12.7735596"><ele>115.0</ele><time>2026-05-03T08:26:11.517Z</time></trkpt><trkpt lat="43.9620665" lon="12.7736381"><ele>112.8</ele><time>2026-05-03T08:26:12.518Z</time></trkpt><trkpt lat="43.9621304" lon="12.7737244"><ele>110.6</ele><time>2026-05-03T08:26:13.515Z</time></trkpt><trkpt lat="43.9621978" lon="12.7738051"><ele>108.4</ele><time>2026-05-03T08:26:14.52Z</time></trkpt><trkpt lat="43.9622698" lon="12.7738855"><ele>106.2</ele><time>2026-05-03T08:26:15.519Z</time></trkpt><trkpt lat="43.96234" lon="12.7739676"><ele>104.0</ele><time>2026-05-03T08:26:16.519Z</time></trkpt><trkpt lat="43.9624142" lon="12.7740501"><ele>104.0</ele><time>2026-05-03T08:26:17.519Z</time></trkpt><trkpt lat="43.962491" lon="12.7741367"><ele>104.0</ele><time>2026-05-03T08:26:18.518Z</time></trkpt><trkpt lat="43.962574" lon="12.7742216"><ele>104.0</ele><time>2026-05-03T08:26:19.519Z</time></trkpt><trkpt lat="43.9626576" lon="12.774302"><ele>104.0</ele><time>2026-05-03T08:26:20.517Z</time></trkpt><trkpt lat="43.9627414" lon="12.7743951"><ele>104.0</ele><time>2026-05-03T08:26:21.52Z</time></trkpt><trkpt lat="43.9628435" lon="12.7744822"><ele>103.5</ele><time>2026-05-03T08:26:22.517Z</time></trkpt><trkpt lat="43.9629349" lon="12.7745668"><ele>103.0</ele><time>2026-05-03T08:26:23.517Z</time></trkpt><trkpt lat="43.9630238" lon="12.7746467"><ele>102.5</ele><time>2026-05-03T08:26:24.519Z</time></trkpt><trkpt lat="43.9631582" lon="12.7747573"><ele>102.0</ele><time>2026-05-03T08:26:25.518Z</time></trkpt><trkpt lat="43.9633297" lon="12.774963"><ele>101.33333333333334</ele><time>2026-05-03T08:26:26.52Z</time></trkpt><trkpt lat="43.9635075" lon="12.7751297"><ele>100.66666666666667</ele><time>2026-05-03T08:26:27.52Z</time></trkpt><trkpt lat="43.9636573" lon="12.7752281"><ele>100.0</ele><time>2026-05-03T08:26:28.527Z</time></trkpt><trkpt lat="43.9637805" lon="12.7753413"><ele>97.5</ele><time>2026-05-03T08:26:29.513Z</time></trkpt><trkpt lat="43.963873" lon="12.7755133"><ele>95.0</ele><time>2026-05-03T08:26:30.519Z</time></trkpt><trkpt lat="43.9639404" lon="12.7756838"><ele>92.5</ele><time>2026-05-03T08:26:31.522Z</time></trkpt><trkpt lat="43.9639769" lon="12.7758716"><ele>90.0</ele><time>2026-05-03T08:26:32.517Z</time></trkpt><trkpt lat="43.963991" lon="12.7760662"><ele>88.75</ele><time>2026-05-03T08:26:33.515Z</time></trkpt><trkpt lat="43.9639801" lon="12.776273"><ele>87.5</ele><time>2026-05-03T08:26:34.519Z</time></trkpt><trkpt lat="43.9639764" lon="12.7764819"><ele>86.25</ele><time>2026-05-03T08:26:35.519Z</time></trkpt><trkpt lat="43.9639715" lon="12.7766764"><ele>85.0</ele><time>2026-05-03T08:26:36.521Z</time></trkpt><trkpt lat="43.9639659" lon="12.7768656"><ele>83.5</ele><time>2026-05-03T08:26:37.518Z</time></trkpt><trkpt lat="43.9639614" lon="12.7770527"><ele>82.0</ele><time>2026-05-03T08:26:38.519Z</time></trkpt><trkpt lat="43.963959" lon="12.7772527"><ele>80.5</ele><time>2026-05-03T08:26:39.519Z</time></trkpt><trkpt lat="43.9639104" lon="12.7774081"><ele>79.0</ele><time>2026-05-03T08:26:40.519Z</time></trkpt><trkpt lat="43.9638774" lon="12.777596"><ele>79.25</ele><time>2026-05-03T08:26:41.521Z</time></trkpt><trkpt lat="43.9637732" lon="12.7777194"><ele>79.5</ele><time>2026-05-03T08:26:42.518Z</time></trkpt><trkpt lat="43.9636714" lon="12.7778493"><ele>79.75</ele><time>2026-05-03T08:26:43.52Z</time></trkpt><trkpt lat="43.9635613" lon="12.7779776"><ele>80.0</ele><time>2026-05-03T08:26:44.502Z</time></trkpt><trkpt lat="43.9634382" lon="12.7780851"><ele>85.0</ele><time>2026-05-03T08:26:45.519Z</time></trkpt><trkpt lat="43.9633036" lon="12.7781899"><ele>90.0</ele><time>2026-05-03T08:26:46.522Z</time></trkpt><trkpt lat="43.9631675" lon="12.778258"><ele>95.0</ele><time>2026-05-03T08:26:47.516Z</time></trkpt><trkpt lat="43.9630265" lon="12.7782903"><ele>100.0</ele><time>2026-05-03T08:26:48.52Z</time></trkpt><trkpt lat="43.9628902" lon="12.7782892"><ele>100.0</ele><time>2026-05-03T08:26:49.522Z</time></trkpt><trkpt lat="43.9627614" lon="12.7782609"><ele>100.0</ele><time>2026-05-03T08:26:50.511Z</time></trkpt><trkpt lat="43.962632" lon="12.7782406"><ele>100.0</ele><time>2026-05-03T08:26:51.521Z</time></trkpt><trkpt lat="43.9625027" lon="12.7782285"><ele>100.0</ele><time>2026-05-03T08:26:52.518Z</time></trkpt><trkpt lat="43.9624266" lon="12.7782603"><ele>99.33333333333334</ele><time>2026-05-03T08:26:53.52Z</time></trkpt><trkpt lat="43.9623527" lon="12.7783136"><ele>98.66666666666667</ele><time>2026-05-03T08:26:54.519Z</time></trkpt><trkpt lat="43.9623058" lon="12.7783867"><ele>98.0</ele><time>2026-05-03T08:26:55.518Z</time></trkpt><trkpt lat="43.9622794" lon="12.7784858"><ele>97.33333333333334</ele><time>2026-05-03T08:26:56.519Z</time></trkpt><trkpt lat="43.9622744" lon="12.7786051"><ele>96.66666666666667</ele><time>2026-05-03T08:26:57.518Z</time></trkpt><trkpt lat="43.9622762" lon="12.7787324"><ele>96.0</ele><time>2026-05-03T08:26:58.519Z</time></trkpt><trkpt lat="43.9623056" lon="12.7789116"><ele>99.33333333333334</ele><time>2026-05-03T08:26:59.518Z</time></trkpt><trkpt lat="43.9623568" lon="12.7791302"><ele>102.66666666666667</ele><time>2026-05-03T08:27:00.518Z</time></trkpt><trkpt lat="43.9624001" lon="12.7793276"><ele>106.0</ele><time>2026-05-03T08:27:01.52Z</time></trkpt><trkpt lat="43.9624465" lon="12.7795395"><ele>107.33333333333334</ele><time>2026-05-03T08:27:02.51Z</time></trkpt><trkpt lat="43.962436" lon="12.7797782"><ele>108.66666666666666</ele><time>2026-05-03T08:27:03.519Z</time></trkpt><trkpt lat="43.9623914" lon="12.780005"><ele>110.0</ele><time>2026-05-03T08:27:04.518Z</time></trkpt><trkpt lat="43.9623622" lon="12.7802147"><ele>112.0</ele><time>2026-05-03T08:27:05.519Z</time></trkpt><trkpt lat="43.9623167" lon="12.7803954"><ele>114.0</ele><time>2026-05-03T08:27:06.52Z</time></trkpt><trkpt lat="43.9622598" lon="12.7805571"><ele>116.0</ele><time>2026-05-03T08:27:07.518Z</time></trkpt><trkpt lat="43.9621936" lon="12.7807079"><ele>118.0</ele><time>2026-05-03T08:27:08.518Z</time></trkpt><trkpt lat="43.9621348" lon="12.7808601"><ele>118.0</ele><time>2026-05-03T08:27:09.52Z</time></trkpt><trkpt lat="43.962076" lon="12.7810112"><ele>118.0</ele><time>2026-05-03T08:27:10.519Z</time></trkpt><trkpt lat="43.9620242" lon="12.7811623"><ele>118.0</ele><time>2026-05-03T08:27:11.52Z</time></trkpt><trkpt lat="43.9619827" lon="12.781305"><ele>118.0</ele><time>2026-05-03T08:27:12.519Z</time></trkpt><trkpt lat="43.9619433" lon="12.7814409"><ele>118.2</ele><time>2026-05-03T08:27:13.517Z</time></trkpt><trkpt lat="43.9618992" lon="12.7815693"><ele>118.4</ele><time>2026-05-03T08:27:14.515Z</time></trkpt><trkpt lat="43.9618633" lon="12.7816913"><ele>118.60000000000001</ele><time>2026-05-03T08:27:15.519Z</time></trkpt><trkpt lat="43.9618228" lon="12.7818188"><ele>118.80000000000001</ele><time>2026-05-03T08:27:16.518Z</time></trkpt><trkpt lat="43.9617893" lon="12.781945"><ele>119.0</ele><time>2026-05-03T08:27:17.518Z</time></trkpt><trkpt lat="43.961747" lon="12.7820791"><ele>119.25</ele><time>2026-05-03T08:27:18.52Z</time></trkpt><trkpt lat="43.9616958" lon="12.7822123"><ele>119.5</ele><time>2026-05-03T08:27:19.519Z</time></trkpt><trkpt lat="43.9616417" lon="12.7823442"><ele>119.75</ele><time>2026-05-03T08:27:20.519Z</time></trkpt><trkpt lat="43.9615761" lon="12.7824786"><ele>120.0</ele><time>2026-05-03T08:27:21.518Z</time></trkpt><trkpt lat="43.9615082" lon="12.7826183"><ele>118.75</ele><time>2026-05-03T08:27:22.52Z</time></trkpt><trkpt lat="43.961429" lon="12.7827447"><ele>117.5</ele><time>2026-05-03T08:27:23.517Z</time></trkpt><trkpt lat="43.9613573" lon="12.7828709"><ele>116.25</ele><time>2026-05-03T08:27:24.52Z</time></trkpt><trkpt lat="43.9612775" lon="12.7829817"><ele>115.0</ele><time>2026-05-03T08:27:25.518Z</time></trkpt><trkpt lat="43.9611947" lon="12.7830891"><ele>115.0</ele><time>2026-05-03T08:27:26.52Z</time></trkpt><trkpt lat="43.9611037" lon="12.7831765"><ele>115.0</ele><time>2026-05-03T08:27:27.519Z</time></trkpt><trkpt lat="43.9610079" lon="12.7832471"><ele>115.0</ele><time>2026-05-03T08:27:28.518Z</time></trkpt><trkpt lat="43.9609019" lon="12.7833075"><ele>115.0</ele><time>2026-05-03T08:27:29.518Z</time></trkpt><trkpt lat="43.9607962" lon="12.7833697"><ele>115.0</ele><time>2026-05-03T08:27:30.519Z</time></trkpt><trkpt lat="43.960685" lon="12.7834096"><ele>116.25</ele><time>2026-05-03T08:27:31.519Z</time></trkpt><trkpt lat="43.9605719" lon="12.7834175"><ele>117.5</ele><time>2026-05-03T08:27:32.52Z</time></trkpt><trkpt lat="43.9604572" lon="12.7833809"><ele>118.75</ele><time>2026-05-03T08:27:33.519Z</time></trkpt><trkpt lat="43.9603403" lon="12.7833803"><ele>120.0</ele><time>2026-05-03T08:27:34.513Z</time></trkpt><trkpt lat="43.9602374" lon="12.7833327"><ele>120.0</ele><time>2026-05-03T08:27:35.52Z</time></trkpt><trkpt lat="43.9601218" lon="12.783306"><ele>120.0</ele><time>2026-05-03T08:27:36.52Z</time></trkpt><trkpt lat="43.960008" lon="12.7832733"><ele>120.0</ele><time>2026-05-03T08:27:37.518Z</time></trkpt><trkpt lat="43.9598985" lon="12.7832431"><ele>120.0</ele><time>2026-05-03T08:27:38.518Z</time></trkpt><trkpt lat="43.9597972" lon="12.7832193"><ele>120.0</ele><time>2026-05-03T08:27:39.517Z</time></trkpt><trkpt lat="43.9597058" lon="12.7831974"><ele>118.66666666666667</ele><time>2026-05-03T08:27:40.517Z</time></trkpt><trkpt lat="43.9596137" lon="12.7831825"><ele>117.33333333333334</ele><time>2026-05-03T08:27:41.517Z</time></trkpt><trkpt lat="43.9595215" lon="12.7831592"><ele>116.0</ele><time>2026-05-03T08:27:42.518Z</time></trkpt><trkpt lat="43.9594443" lon="12.7831437"><ele>114.66666666666667</ele><time>2026-05-03T08:27:43.52Z</time></trkpt><trkpt lat="43.9593674" lon="12.783128"><ele>113.33333333333334</ele><time>2026-05-03T08:27:44.511Z</time></trkpt><trkpt lat="43.9592982" lon="12.7831173"><ele>112.0</ele><time>2026-05-03T08:27:45.519Z</time></trkpt><trkpt lat="43.9591871" lon="12.7831096"><ele>110.83333333333334</ele><time>2026-05-03T08:27:47.516Z</time></trkpt><trkpt lat="43.9591065" lon="12.7831325"><ele>109.66666666666667</ele><time>2026-05-03T08:27:49.519Z</time></trkpt><trkpt lat="43.9590105" lon="12.7832622"><ele>108.5</ele><time>2026-05-03T08:27:51.518Z</time></trkpt><trkpt lat="43.9589922" lon="12.7833577"><ele>107.33333333333334</ele><time>2026-05-03T08:27:52.52Z</time></trkpt><trkpt lat="43.959005" lon="12.7834511"><ele>106.16666666666667</ele><time>2026-05-03T08:27:53.518Z</time></trkpt><trkpt lat="43.9590412" lon="12.7835249"><ele>105.0</ele><time>2026-05-03T08:27:54.517Z</time></trkpt><trkpt lat="43.9590926" lon="12.7835778"><ele>103.5</ele><time>2026-05-03T08:27:55.517Z</time></trkpt><trkpt lat="43.9591516" lon="12.7836174"><ele>102.0</ele><time>2026-05-03T08:27:56.52Z</time></trkpt><trkpt lat="43.9592232" lon="12.7836463"><ele>100.5</ele><time>2026-05-03T08:27:57.516Z</time></trkpt><trkpt lat="43.9593071" lon="12.7836725"><ele>99.0</ele><time>2026-05-03T08:27:58.516Z</time></trkpt><trkpt lat="43.9593941" lon="12.7837002"><ele>97.5</ele><time>2026-05-03T08:27:59.517Z</time></trkpt><trkpt lat="43.959488" lon="12.7837307"><ele>96.0</ele><time>2026-05-03T08:28:00.517Z</time></trkpt><trkpt lat="43.9595923" lon="12.7837656"><ele>96.0</ele><time>2026-05-03T08:28:01.517Z</time></trkpt><trkpt lat="43.9597125" lon="12.783805"><ele>96.0</ele><time>2026-05-03T08:28:02.519Z</time></trkpt><trkpt lat="43.9598359" lon="12.7838446"><ele>96.0</ele><time>2026-05-03T08:28:03.519Z</time></trkpt><trkpt lat="43.9599531" lon="12.7838935"><ele>96.0</ele><time>2026-05-03T08:28:04.517Z</time></trkpt><trkpt lat="43.9600627" lon="12.7839376"><ele>97.0</ele><time>2026-05-03T08:28:05.518Z</time></trkpt><trkpt lat="43.9601707" lon="12.7839841"><ele>98.0</ele><time>2026-05-03T08:28:06.519Z</time></trkpt><trkpt lat="43.9602884" lon="12.7840175"><ele>99.0</ele><time>2026-05-03T08:28:07.516Z</time></trkpt><trkpt lat="43.9604048" lon="12.7840412"><ele>100.0</ele><time>2026-05-03T08:28:08.519Z</time></trkpt><trkpt lat="43.9605341" lon="12.7840703"><ele>100.0</ele><time>2026-05-03T08:28:09.516Z</time></trkpt><trkpt lat="43.9606233" lon="12.7841161"><ele>100.0</ele><time>2026-05-03T08:28:10.517Z</time></trkpt><trkpt lat="43.9607125" lon="12.78415"><ele>100.0</ele><time>2026-05-03T08:28:11.515Z</time></trkpt><trkpt lat="43.9606874" lon="12.7842952"><ele>100.0</ele><time>2026-05-03T08:28:12.517Z</time></trkpt><trkpt lat="43.9605656" lon="12.7844021"><ele>100.0</ele><time>2026-05-03T08:28:14.517Z</time></trkpt><trkpt lat="43.9604444" lon="12.7843885"><ele>100.0</ele><time>2026-05-03T08:28:15.518Z</time></trkpt><trkpt lat="43.9603287" lon="12.7843651"><ele>100.0</ele><time>2026-05-03T08:28:16.518Z</time></trkpt><trkpt lat="43.9601765" lon="12.7843396"><ele>100.0</ele><time>2026-05-03T08:28:17.517Z</time></trkpt><trkpt lat="43.9600192" lon="12.7843086"><ele>100.0</ele><time>2026-05-03T08:28:18.515Z</time></trkpt><trkpt lat="43.9598656" lon="12.7842831"><ele>98.66666666666667</ele><time>2026-05-03T08:28:19.516Z</time></trkpt><trkpt lat="43.9597163" lon="12.7842422"><ele>97.33333333333334</ele><time>2026-05-03T08:28:20.518Z</time></trkpt><trkpt lat="43.959566" lon="12.7842175"><ele>96.0</ele><time>2026-05-03T08:28:21.515Z</time></trkpt><trkpt lat="43.9594194" lon="12.7842164"><ele>96.0</ele><time>2026-05-03T08:28:22.516Z</time></trkpt><trkpt lat="43.9592755" lon="12.784255"><ele>96.0</ele><time>2026-05-03T08:28:23.515Z</time></trkpt><trkpt lat="43.9591342" lon="12.784309"><ele>96.0</ele><time>2026-05-03T08:28:24.516Z</time></trkpt><trkpt lat="43.9589944" lon="12.784379"><ele>96.0</ele><time>2026-05-03T08:28:25.515Z</time></trkpt><trkpt lat="43.9588551" lon="12.7844418"><ele>89.5</ele><time>2026-05-03T08:28:26.518Z</time></trkpt><trkpt lat="43.9587218" lon="12.7845121"><ele>83.0</ele><time>2026-05-03T08:28:27.507Z</time></trkpt><trkpt lat="43.9585961" lon="12.7845875"><ele>76.5</ele><time>2026-05-03T08:28:28.517Z</time></trkpt><trkpt lat="43.9584916" lon="12.7847072"><ele>70.0</ele><time>2026-05-03T08:28:29.514Z</time></trkpt><trkpt lat="43.9584101" lon="12.7848521"><ele>70.5</ele><time>2026-05-03T08:28:30.516Z</time></trkpt><trkpt lat="43.9583414" lon="12.7850314"><ele>71.0</ele><time>2026-05-03T08:28:31.512Z</time></trkpt><trkpt lat="43.9582856" lon="12.7852169"><ele>71.5</ele><time>2026-05-03T08:28:32.515Z</time></trkpt><trkpt lat="43.9582432" lon="12.7854074"><ele>72.0</ele><time>2026-05-03T08:28:33.517Z</time></trkpt><trkpt lat="43.9581806" lon="12.7855955"><ele>72.0</ele><time>2026-05-03T08:28:34.516Z</time></trkpt><trkpt lat="43.9580689" lon="12.7857811"><ele>72.0</ele><time>2026-05-03T08:28:35.515Z</time></trkpt><trkpt lat="43.9579727" lon="12.7859536"><ele>72.0</ele><time>2026-05-03T08:28:36.519Z</time></trkpt><trkpt lat="43.9578807" lon="12.7861393"><ele>66.66666666666667</ele><time>2026-05-03T08:28:37.515Z</time></trkpt><trkpt lat="43.9578031" lon="12.7863265"><ele>61.333333333333336</ele><time>2026-05-03T08:28:38.517Z</time></trkpt><trkpt lat="43.9577404" lon="12.786533"><ele>56.0</ele><time>2026-05-03T08:28:39.518Z</time></trkpt><trkpt lat="43.9576958" lon="12.7867213"><ele>54.0</ele><time>2026-05-03T08:28:40.516Z</time></trkpt><trkpt lat="43.9576532" lon="12.7869035"><ele>52.0</ele><time>2026-05-03T08:28:41.519Z</time></trkpt><trkpt lat="43.9575875" lon="12.7870706"><ele>50.0</ele><time>2026-05-03T08:28:42.518Z</time></trkpt><trkpt lat="43.9574876" lon="12.7871887"><ele>48.0</ele><time>2026-05-03T08:28:43.516Z</time></trkpt><trkpt lat="43.957396" lon="12.7873353"><ele>50.0</ele><time>2026-05-03T08:28:44.518Z</time></trkpt><trkpt lat="43.9572954" lon="12.7874659"><ele>52.0</ele><time>2026-05-03T08:28:45.513Z</time></trkpt><trkpt lat="43.9572074" lon="12.7875944"><ele>54.0</ele><time>2026-05-03T08:28:46.52Z</time></trkpt><trkpt lat="43.9571118" lon="12.7877421"><ele>56.0</ele><time>2026-05-03T08:28:47.518Z</time></trkpt><trkpt lat="43.957008" lon="12.7878736"><ele>56.0</ele><time>2026-05-03T08:28:48.518Z</time></trkpt><trkpt lat="43.956915" lon="12.7879943"><ele>56.0</ele><time>2026-05-03T08:28:49.516Z</time></trkpt><trkpt lat="43.9568234" lon="12.7881191"><ele>56.0</ele><time>2026-05-03T08:28:50.517Z</time></trkpt><trkpt lat="43.9567378" lon="12.788209"><ele>56.0</ele><time>2026-05-03T08:28:51.516Z</time></trkpt><trkpt lat="43.95665" lon="12.7883019"><ele>55.75</ele><time>2026-05-03T08:28:52.518Z</time></trkpt><trkpt lat="43.9565598" lon="12.7884051"><ele>55.5</ele><time>2026-05-03T08:28:53.516Z</time></trkpt><trkpt lat="43.9564464" lon="12.7884923"><ele>55.25</ele><time>2026-05-03T08:28:54.514Z</time></trkpt><trkpt lat="43.9563507" lon="12.7885899"><ele>55.0</ele><time>2026-05-03T08:28:55.516Z</time></trkpt><trkpt lat="43.9562335" lon="12.7886989"><ele>55.0</ele><time>2026-05-03T08:28:56.521Z</time></trkpt><trkpt lat="43.9561156" lon="12.7888043"><ele>55.0</ele><time>2026-05-03T08:28:57.519Z</time></trkpt><trkpt lat="43.9559887" lon="12.7889174"><ele>55.0</ele><time>2026-05-03T08:28:58.518Z</time></trkpt><trkpt lat="43.95586" lon="12.7890267"><ele>55.0</ele><time>2026-05-03T08:28:59.517Z</time></trkpt><trkpt lat="43.9557302" lon="12.7891304"><ele>55.5</ele><time>2026-05-03T08:29:00.516Z</time></trkpt><trkpt lat="43.9556097" lon="12.7892202"><ele>56.0</ele><time>2026-05-03T08:29:01.518Z</time></trkpt><trkpt lat="43.9554919" lon="12.7893166"><ele>56.5</ele><time>2026-05-03T08:29:02.519Z</time></trkpt><trkpt lat="43.9553775" lon="12.7893986"><ele>57.0</ele><time>2026-05-03T08:29:03.516Z</time></trkpt><trkpt lat="43.9552619" lon="12.7894892"><ele>57.0</ele><time>2026-05-03T08:29:04.518Z</time></trkpt><trkpt lat="43.9551567" lon="12.7895747"><ele>57.0</ele><time>2026-05-03T08:29:05.519Z</time></trkpt><trkpt lat="43.9550628" lon="12.7896664"><ele>57.0</ele><time>2026-05-03T08:29:06.519Z</time></trkpt><trkpt lat="43.9549725" lon="12.7897588"><ele>57.0</ele><time>2026-05-03T08:29:07.519Z</time></trkpt><trkpt lat="43.9548963" lon="12.7898758"><ele>57.8</ele><time>2026-05-03T08:29:08.514Z</time></trkpt><trkpt lat="43.9548365" lon="12.7899857"><ele>58.6</ele><time>2026-05-03T08:29:09.516Z</time></trkpt><trkpt lat="43.9547891" lon="12.7901045"><ele>59.39999999999999</ele><time>2026-05-03T08:29:10.519Z</time></trkpt><trkpt lat="43.9547438" lon="12.7902327"><ele>60.199999999999996</ele><time>2026-05-03T08:29:11.518Z</time></trkpt><trkpt lat="43.9546913" lon="12.7903743"><ele>61.0</ele><time>2026-05-03T08:29:12.517Z</time></trkpt><trkpt lat="43.9546367" lon="12.7905191"><ele>61.0</ele><time>2026-05-03T08:29:13.517Z</time></trkpt><trkpt lat="43.954574" lon="12.7906684"><ele>61.0</ele><time>2026-05-03T08:29:14.518Z</time></trkpt><trkpt lat="43.9545024" lon="12.7908168"><ele>61.0</ele><time>2026-05-03T08:29:15.515Z</time></trkpt><trkpt lat="43.9544307" lon="12.7909678"><ele>61.0</ele><time>2026-05-03T08:29:16.52Z</time></trkpt><trkpt lat="43.9543627" lon="12.7911171"><ele>61.5</ele><time>2026-05-03T08:29:17.518Z</time></trkpt><trkpt lat="43.954305" lon="12.7912744"><ele>62.0</ele><time>2026-05-03T08:29:18.519Z</time></trkpt><trkpt lat="43.9542823" lon="12.7914301"><ele>62.5</ele><time>2026-05-03T08:29:19.516Z</time></trkpt><trkpt lat="43.9542601" lon="12.7915837"><ele>63.0</ele><time>2026-05-03T08:29:20.516Z</time></trkpt><trkpt lat="43.9542646" lon="12.7917362"><ele>64.5</ele><time>2026-05-03T08:29:21.518Z</time></trkpt><trkpt lat="43.9542739" lon="12.7919001"><ele>66.0</ele><time>2026-05-03T08:29:22.521Z</time></trkpt><trkpt lat="43.954283" lon="12.7920751"><ele>67.5</ele><time>2026-05-03T08:29:23.517Z</time></trkpt><trkpt lat="43.9542942" lon="12.7922477"><ele>69.0</ele><time>2026-05-03T08:29:24.519Z</time></trkpt><trkpt lat="43.9543052" lon="12.7924298"><ele>69.0</ele><time>2026-05-03T08:29:25.515Z</time></trkpt><trkpt lat="43.9543392" lon="12.7925856"><ele>69.0</ele><time>2026-05-03T08:29:26.52Z</time></trkpt><trkpt lat="43.9543924" lon="12.7927174"><ele>69.0</ele><time>2026-05-03T08:29:27.515Z</time></trkpt><trkpt lat="43.9544637" lon="12.7928027"><ele>69.0</ele><time>2026-05-03T08:29:28.517Z</time></trkpt><trkpt lat="43.9545612" lon="12.7928411"><ele>69.0</ele><time>2026-05-03T08:29:29.516Z</time></trkpt><trkpt lat="43.9546567" lon="12.7928275"><ele>69.0</ele><time>2026-05-03T08:29:30.518Z</time></trkpt><trkpt lat="43.9547445" lon="12.7927563"><ele>69.0</ele><time>2026-05-03T08:29:31.516Z</time></trkpt><trkpt lat="43.9548337" lon="12.7926713"><ele>69.0</ele><time>2026-05-03T08:29:32.517Z</time></trkpt><trkpt lat="43.9549313" lon="12.7925819"><ele>69.0</ele><time>2026-05-03T08:29:33.517Z</time></trkpt><trkpt lat="43.9550452" lon="12.792504"><ele>71.25</ele><time>2026-05-03T08:29:34.517Z</time></trkpt><trkpt lat="43.9551663" lon="12.7924355"><ele>73.5</ele><time>2026-05-03T08:29:35.516Z</time></trkpt><trkpt lat="43.9552954" lon="12.7923895"><ele>75.75</ele><time>2026-05-03T08:29:36.521Z</time></trkpt><trkpt lat="43.9554211" lon="12.7923789"><ele>78.0</ele><time>2026-05-03T08:29:37.518Z</time></trkpt><trkpt lat="43.9555488" lon="12.792409"><ele>78.0</ele><time>2026-05-03T08:29:38.516Z</time></trkpt><trkpt lat="43.9556823" lon="12.7924475"><ele>78.0</ele><time>2026-05-03T08:29:39.515Z</time></trkpt><trkpt lat="43.9558061" lon="12.7924894"><ele>78.0</ele><time>2026-05-03T08:29:40.516Z</time></trkpt><trkpt lat="43.9559264" lon="12.7925242"><ele>78.0</ele><time>2026-05-03T08:29:41.516Z</time></trkpt><trkpt lat="43.9560492" lon="12.7925526"><ele>80.0</ele><time>2026-05-03T08:29:42.516Z</time></trkpt><trkpt lat="43.9561757" lon="12.7925538"><ele>82.0</ele><time>2026-05-03T08:29:43.515Z</time></trkpt><trkpt lat="43.9562975" lon="12.7925138"><ele>84.0</ele><time>2026-05-03T08:29:44.519Z</time></trkpt><trkpt lat="43.9564082" lon="12.7924306"><ele>86.0</ele><time>2026-05-03T08:29:45.515Z</time></trkpt><trkpt lat="43.956474" lon="12.7923028"><ele>86.0</ele><time>2026-05-03T08:29:46.519Z</time></trkpt><trkpt lat="43.956562" lon="12.7922114"><ele>86.0</ele><time>2026-05-03T08:29:47.515Z</time></trkpt><trkpt lat="43.9566368" lon="12.7921244"><ele>86.0</ele><time>2026-05-03T08:29:48.517Z</time></trkpt><trkpt lat="43.9567165" lon="12.7920325"><ele>86.0</ele><time>2026-05-03T08:29:49.517Z</time></trkpt><trkpt lat="43.9567853" lon="12.791963"><ele>86.0</ele><time>2026-05-03T08:29:50.518Z</time></trkpt><trkpt lat="43.9568461" lon="12.7919067"><ele>86.0</ele><time>2026-05-03T08:29:51.52Z</time></trkpt><trkpt lat="43.956918" lon="12.7918668"><ele>86.0</ele><time>2026-05-03T08:29:52.514Z</time></trkpt><trkpt lat="43.9570012" lon="12.7918567"><ele>86.0</ele><time>2026-05-03T08:29:53.512Z</time></trkpt><trkpt lat="43.9570786" lon="12.7918209"><ele>86.0</ele><time>2026-05-03T08:29:54.516Z</time></trkpt><trkpt lat="43.9571681" lon="12.7917984"><ele>86.0</ele><time>2026-05-03T08:29:55.518Z</time></trkpt><trkpt lat="43.9572524" lon="12.7917808"><ele>86.0</ele><time>2026-05-03T08:29:56.518Z</time></trkpt><trkpt lat="43.9573565" lon="12.7917726"><ele>86.0</ele><time>2026-05-03T08:29:57.516Z</time></trkpt><trkpt lat="43.9574453" lon="12.7917684"><ele>86.0</ele><time>2026-05-03T08:29:58.519Z</time></trkpt><trkpt lat="43.9575198" lon="12.791747"><ele>86.0</ele><time>2026-05-03T08:29:59.511Z</time></trkpt><trkpt lat="43.957601" lon="12.7917137"><ele>86.0</ele><time>2026-05-03T08:30:00.518Z</time></trkpt><trkpt lat="43.9576811" lon="12.7916963"><ele>86.0</ele><time>2026-05-03T08:30:01.517Z</time></trkpt><trkpt lat="43.9577536" lon="12.7916749"><ele>86.0</ele><time>2026-05-03T08:30:02.515Z</time></trkpt><trkpt lat="43.9578319" lon="12.7916595"><ele>88.0</ele><time>2026-05-03T08:30:03.516Z</time></trkpt><trkpt lat="43.9579572" lon="12.791613"><ele>90.0</ele><time>2026-05-03T08:30:05.515Z</time></trkpt><trkpt lat="43.9580637" lon="12.7915669"><ele>92.0</ele><time>2026-05-03T08:30:07.508Z</time></trkpt><trkpt lat="43.9581763" lon="12.7915334"><ele>94.0</ele><time>2026-05-03T08:30:09.518Z</time></trkpt><trkpt lat="43.9582829" lon="12.7914917"><ele>93.4</ele><time>2026-05-03T08:30:11.517Z</time></trkpt><trkpt lat="43.9583967" lon="12.7914411"><ele>92.80000000000001</ele><time>2026-05-03T08:30:13.514Z</time></trkpt><trkpt lat="43.9584571" lon="12.79141"><ele>92.19999999999999</ele><time>2026-05-03T08:30:14.516Z</time></trkpt><trkpt lat="43.9585763" lon="12.7913532"><ele>91.6</ele><time>2026-05-03T08:30:16.52Z</time></trkpt><trkpt lat="43.9586914" lon="12.791291"><ele>91.0</ele><time>2026-05-03T08:30:18.517Z</time></trkpt><trkpt lat="43.9587557" lon="12.7912576"><ele>91.0</ele><time>2026-05-03T08:30:19.519Z</time></trkpt><trkpt lat="43.9588691" lon="12.7911912"><ele>91.0</ele><time>2026-05-03T08:30:21.517Z</time></trkpt><trkpt lat="43.9589388" lon="12.7911856"><ele>91.0</ele><time>2026-05-03T08:30:22.516Z</time></trkpt><trkpt lat="43.9590126" lon="12.7912118"><ele>91.0</ele><time>2026-05-03T08:30:23.517Z</time></trkpt><trkpt lat="43.9590767" lon="12.7912631"><ele>91.0</ele><time>2026-05-03T08:30:24.519Z</time></trkpt><trkpt lat="43.9591348" lon="12.7913282"><ele>91.0</ele><time>2026-05-03T08:30:25.517Z</time></trkpt><trkpt lat="43.9591788" lon="12.7914328"><ele>91.0</ele><time>2026-05-03T08:30:26.518Z</time></trkpt><trkpt lat="43.959178" lon="12.7915679"><ele>91.0</ele><time>2026-05-03T08:30:27.517Z</time></trkpt><trkpt lat="43.9591844" lon="12.7916966"><ele>91.0</ele><time>2026-05-03T08:30:28.517Z</time></trkpt><trkpt lat="43.9591888" lon="12.7918376"><ele>91.0</ele><time>2026-05-03T08:30:29.516Z</time></trkpt><trkpt lat="43.9591869" lon="12.7919838"><ele>91.0</ele><time>2026-05-03T08:30:30.519Z</time></trkpt><trkpt lat="43.9591837" lon="12.792129"><ele>90.0</ele><time>2026-05-03T08:30:31.516Z</time></trkpt><trkpt lat="43.9591791" lon="12.792282"><ele>89.0</ele><time>2026-05-03T08:30:32.517Z</time></trkpt><trkpt lat="43.9591886" lon="12.7924203"><ele>88.0</ele><time>2026-05-03T08:30:33.514Z</time></trkpt><trkpt lat="43.9592008" lon="12.7925559"><ele>87.0</ele><time>2026-05-03T08:30:34.515Z</time></trkpt><trkpt lat="43.9592272" lon="12.7926861"><ele>86.0</ele><time>2026-05-03T08:30:35.519Z</time></trkpt><trkpt lat="43.9592879" lon="12.7927961"><ele>89.0</ele><time>2026-05-03T08:30:36.519Z</time></trkpt><trkpt lat="43.95934" lon="12.792915"><ele>92.0</ele><time>2026-05-03T08:30:37.516Z</time></trkpt><trkpt lat="43.9594232" lon="12.7930104"><ele>95.0</ele><time>2026-05-03T08:30:38.518Z</time></trkpt><trkpt lat="43.9595015" lon="12.7931063"><ele>98.0</ele><time>2026-05-03T08:30:39.516Z</time></trkpt><trkpt lat="43.9595754" lon="12.7932074"><ele>101.0</ele><time>2026-05-03T08:30:40.517Z</time></trkpt><trkpt lat="43.9596463" lon="12.7933016"><ele>101.0</ele><time>2026-05-03T08:30:41.517Z</time></trkpt><trkpt lat="43.9597139" lon="12.793398"><ele>101.0</ele><time>2026-05-03T08:30:42.509Z</time></trkpt><trkpt lat="43.9597817" lon="12.7934817"><ele>101.0</ele><time>2026-05-03T08:30:43.517Z</time></trkpt><trkpt lat="43.9598608" lon="12.7936076"><ele>101.0</ele><time>2026-05-03T08:30:44.518Z</time></trkpt><trkpt lat="43.9599449" lon="12.7937302"><ele>101.0</ele><time>2026-05-03T08:30:45.516Z</time></trkpt><trkpt lat="43.9600213" lon="12.7938426"><ele>103.16666666666666</ele><time>2026-05-03T08:30:46.518Z</time></trkpt><trkpt lat="43.9600901" lon="12.7939363"><ele>105.33333333333333</ele><time>2026-05-03T08:30:47.515Z</time></trkpt><trkpt lat="43.9601524" lon="12.7940288"><ele>107.5</ele><time>2026-05-03T08:30:48.51Z</time></trkpt><trkpt lat="43.9602063" lon="12.7941213"><ele>109.66666666666666</ele><time>2026-05-03T08:30:49.516Z</time></trkpt><trkpt lat="43.960259" lon="12.7941997"><ele>111.83333333333333</ele><time>2026-05-03T08:30:50.518Z</time></trkpt><trkpt lat="43.9603109" lon="12.7942773"><ele>114.0</ele><time>2026-05-03T08:30:51.523Z</time></trkpt><trkpt lat="43.9603901" lon="12.7943667"><ele>115.5</ele><time>2026-05-03T08:30:53.518Z</time></trkpt><trkpt lat="43.9604452" lon="12.7944434"><ele>117.0</ele><time>2026-05-03T08:30:55.515Z</time></trkpt><trkpt lat="43.9604968" lon="12.7945026"><ele>118.5</ele><time>2026-05-03T08:30:57.514Z</time></trkpt><trkpt lat="43.9605703" lon="12.7945623"><ele>120.0</ele><time>2026-05-03T08:30:59.51Z</time></trkpt><trkpt lat="43.9606455" lon="12.7945972"><ele>121.5</ele><time>2026-05-03T08:31:01.516Z</time></trkpt><trkpt lat="43.9607241" lon="12.7945903"><ele>123.0</ele><time>2026-05-03T08:31:03.514Z</time></trkpt><trkpt lat="43.9607796" lon="12.7945484"><ele>123.0</ele><time>2026-05-03T08:31:04.521Z</time></trkpt><trkpt lat="43.9608353" lon="12.7944844"><ele>123.0</ele><time>2026-05-03T08:31:05.517Z</time></trkpt><trkpt lat="43.9609058" lon="12.7944146"><ele>123.0</ele><time>2026-05-03T08:31:06.518Z</time></trkpt><trkpt lat="43.9609756" lon="12.7943454"><ele>123.0</ele><time>2026-05-03T08:31:07.519Z</time></trkpt><trkpt lat="43.9610449" lon="12.7942554"><ele>123.0</ele><time>2026-05-03T08:31:08.519Z</time></trkpt><trkpt lat="43.961109" lon="12.7941734"><ele>123.0</ele><time>2026-05-03T08:31:09.516Z</time></trkpt><trkpt lat="43.9611736" lon="12.7941109"><ele>122.66666666666667</ele><time>2026-05-03T08:31:10.518Z</time></trkpt><trkpt lat="43.961243" lon="12.7940953"><ele>122.33333333333334</ele><time>2026-05-03T08:31:11.516Z</time></trkpt><trkpt lat="43.9613074" lon="12.7941169"><ele>122.0</ele><time>2026-05-03T08:31:12.517Z</time></trkpt><trkpt lat="43.9613673" lon="12.7941759"><ele>121.66666666666667</ele><time>2026-05-03T08:31:13.516Z</time></trkpt><trkpt lat="43.9613934" lon="12.7942825"><ele>121.33333333333334</ele><time>2026-05-03T08:31:14.517Z</time></trkpt><trkpt lat="43.9613812" lon="12.794403"><ele>121.0</ele><time>2026-05-03T08:31:15.518Z</time></trkpt><trkpt lat="43.961325" lon="12.7945204"><ele>122.6</ele><time>2026-05-03T08:31:16.52Z</time></trkpt><trkpt lat="43.9612629" lon="12.7946198"><ele>124.19999999999999</ele><time>2026-05-03T08:31:17.516Z</time></trkpt><trkpt lat="43.9611878" lon="12.7947108"><ele>125.80000000000001</ele><time>2026-05-03T08:31:18.514Z</time></trkpt><trkpt lat="43.961112" lon="12.7948066"><ele>127.4</ele><time>2026-05-03T08:31:19.518Z</time></trkpt><trkpt lat="43.9610263" lon="12.794904"><ele>129.0</ele><time>2026-05-03T08:31:20.514Z</time></trkpt><trkpt lat="43.9609375" lon="12.794999"><ele>127.80000000000001</ele><time>2026-05-03T08:31:21.518Z</time></trkpt><trkpt lat="43.9608394" lon="12.7950674"><ele>126.60000000000001</ele><time>2026-05-03T08:31:22.516Z</time></trkpt><trkpt lat="43.9607373" lon="12.7951022"><ele>125.4</ele><time>2026-05-03T08:31:23.514Z</time></trkpt><trkpt lat="43.9606301" lon="12.7951166"><ele>124.2</ele><time>2026-05-03T08:31:24.516Z</time></trkpt><trkpt lat="43.9605254" lon="12.7951099"><ele>123.0</ele><time>2026-05-03T08:31:25.513Z</time></trkpt><trkpt lat="43.9604199" lon="12.7950773"><ele>123.0</ele><time>2026-05-03T08:31:26.521Z</time></trkpt><trkpt lat="43.9603138" lon="12.7950362"><ele>123.00000000000001</ele><time>2026-05-03T08:31:27.516Z</time></trkpt><trkpt lat="43.9602161" lon="12.7950222"><ele>123.00000000000001</ele><time>2026-05-03T08:31:28.518Z</time></trkpt><trkpt lat="43.9601198" lon="12.7950445"><ele>123.0</ele><time>2026-05-03T08:31:29.518Z</time></trkpt><trkpt lat="43.9600506" lon="12.7950911"><ele>123.0</ele><time>2026-05-03T08:31:30.516Z</time></trkpt><trkpt lat="43.9600009" lon="12.7951646"><ele>125.0</ele><time>2026-05-03T08:31:31.518Z</time></trkpt><trkpt lat="43.9599939" lon="12.7952678"><ele>127.0</ele><time>2026-05-03T08:31:32.516Z</time></trkpt><trkpt lat="43.9600442" lon="12.7953567"><ele>129.0</ele><time>2026-05-03T08:31:33.515Z</time></trkpt><trkpt lat="43.9600974" lon="12.7954474"><ele>131.0</ele><time>2026-05-03T08:31:34.518Z</time></trkpt><trkpt lat="43.9601778" lon="12.7955171"><ele>133.0</ele><time>2026-05-03T08:31:35.516Z</time></trkpt><trkpt lat="43.96027" lon="12.7955854"><ele>135.0</ele><time>2026-05-03T08:31:36.521Z</time></trkpt><trkpt lat="43.9603614" lon="12.7956509"><ele>135.0</ele><time>2026-05-03T08:31:37.518Z</time></trkpt><trkpt lat="43.9604557" lon="12.7957224"><ele>135.0</ele><time>2026-05-03T08:31:38.515Z</time></trkpt><trkpt lat="43.9605385" lon="12.7958023"><ele>135.0</ele><time>2026-05-03T08:31:39.518Z</time></trkpt><trkpt lat="43.9606022" lon="12.795859"><ele>135.0</ele><time>2026-05-03T08:31:40.515Z</time></trkpt><trkpt lat="43.9606656" lon="12.7958881"><ele>135.0</ele><time>2026-05-03T08:31:41.517Z</time></trkpt><trkpt lat="43.9607335" lon="12.7959096"><ele>135.0</ele><time>2026-05-03T08:31:42.519Z</time></trkpt><trkpt lat="43.9608162" lon="12.7959273"><ele>135.6</ele><time>2026-05-03T08:31:43.518Z</time></trkpt><trkpt lat="43.9609057" lon="12.7959517"><ele>136.2</ele><time>2026-05-03T08:31:44.518Z</time></trkpt><trkpt lat="43.961001" lon="12.795973"><ele>136.8</ele><time>2026-05-03T08:31:45.519Z</time></trkpt><trkpt lat="43.9610931" lon="12.7959877"><ele>137.4</ele><time>2026-05-03T08:31:46.52Z</time></trkpt><trkpt lat="43.9611769" lon="12.7959954"><ele>138.0</ele><time>2026-05-03T08:31:47.514Z</time></trkpt><trkpt lat="43.9612691" lon="12.7960155"><ele>140.0</ele><time>2026-05-03T08:31:48.517Z</time></trkpt><trkpt lat="43.9613568" lon="12.7960602"><ele>142.0</ele><time>2026-05-03T08:31:49.518Z</time></trkpt><trkpt lat="43.9614204" lon="12.796136"><ele>144.0</ele><time>2026-05-03T08:31:50.515Z</time></trkpt><trkpt lat="43.9614481" lon="12.7962271"><ele>146.0</ele><time>2026-05-03T08:31:51.517Z</time></trkpt><trkpt lat="43.9614268" lon="12.7963304"><ele>148.0</ele><time>2026-05-03T08:31:52.517Z</time></trkpt><trkpt lat="43.9613723" lon="12.7963972"><ele>150.0</ele><time>2026-05-03T08:31:53.516Z</time></trkpt><trkpt lat="43.9612947" lon="12.7964196"><ele>150.0</ele><time>2026-05-03T08:31:54.518Z</time></trkpt><trkpt lat="43.9612034" lon="12.7963982"><ele>150.0</ele><time>2026-05-03T08:31:55.509Z</time></trkpt><trkpt lat="43.9611055" lon="12.796359"><ele>150.0</ele><time>2026-05-03T08:31:56.519Z</time></trkpt><trkpt lat="43.96101" lon="12.7963326"><ele>150.0</ele><time>2026-05-03T08:31:57.519Z</time></trkpt><trkpt lat="43.9609226" lon="12.7963052"><ele>150.0</ele><time>2026-05-03T08:31:58.518Z</time></trkpt><trkpt lat="43.9608414" lon="12.7962763"><ele>150.4</ele><time>2026-05-03T08:31:59.518Z</time></trkpt><trkpt lat="43.9607545" lon="12.7962489"><ele>150.8</ele><time>2026-05-03T08:32:00.517Z</time></trkpt><trkpt lat="43.9606619" lon="12.7962221"><ele>151.2</ele><time>2026-05-03T08:32:01.513Z</time></trkpt><trkpt lat="43.9605674" lon="12.7961863"><ele>151.6</ele><time>2026-05-03T08:32:02.517Z</time></trkpt><trkpt lat="43.9604705" lon="12.796138"><ele>152.0</ele><time>2026-05-03T08:32:03.515Z</time></trkpt><trkpt lat="43.9603719" lon="12.7960807"><ele>152.0</ele><time>2026-05-03T08:32:04.514Z</time></trkpt><trkpt lat="43.9602796" lon="12.7960261"><ele>152.0</ele><time>2026-05-03T08:32:05.518Z</time></trkpt><trkpt lat="43.960181" lon="12.7959698"><ele>152.0</ele><time>2026-05-03T08:32:06.52Z</time></trkpt><trkpt lat="43.9600897" lon="12.7959065"><ele>152.0</ele><time>2026-05-03T08:32:07.513Z</time></trkpt><trkpt lat="43.9600035" lon="12.7958259"><ele>152.0</ele><time>2026-05-03T08:32:08.509Z</time></trkpt><trkpt lat="43.959926" lon="12.7957282"><ele>151.0</ele><time>2026-05-03T08:32:09.519Z</time></trkpt><trkpt lat="43.9598523" lon="12.7956316"><ele>150.0</ele><time>2026-05-03T08:32:10.519Z</time></trkpt><trkpt lat="43.9597812" lon="12.7955492"><ele>149.0</ele><time>2026-05-03T08:32:11.516Z</time></trkpt><trkpt lat="43.9596975" lon="12.7954947"><ele>148.0</ele><time>2026-05-03T08:32:12.516Z</time></trkpt><trkpt lat="43.9596026" lon="12.7954854"><ele>147.0</ele><time>2026-05-03T08:32:13.516Z</time></trkpt><trkpt lat="43.9595037" lon="12.7954917"><ele>147.0</ele><time>2026-05-03T08:32:14.515Z</time></trkpt><trkpt lat="43.9594218" lon="12.7955165"><ele>147.0</ele><time>2026-05-03T08:32:15.515Z</time></trkpt><trkpt lat="43.9593438" lon="12.7955554"><ele>147.0</ele><time>2026-05-03T08:32:16.521Z</time></trkpt><trkpt lat="43.9592735" lon="12.7956006"><ele>147.0</ele><time>2026-05-03T08:32:17.516Z</time></trkpt><trkpt lat="43.9592027" lon="12.7956256"><ele>147.0</ele><time>2026-05-03T08:32:18.516Z</time></trkpt><trkpt lat="43.9591332" lon="12.7956199"><ele>147.0</ele><time>2026-05-03T08:32:19.518Z</time></trkpt><trkpt lat="43.9590632" lon="12.7955958"><ele>148.5</ele><time>2026-05-03T08:32:20.516Z</time></trkpt><trkpt lat="43.9589937" lon="12.7955295"><ele>150.0</ele><time>2026-05-03T08:32:21.518Z</time></trkpt><trkpt lat="43.9589353" lon="12.7954717"><ele>151.5</ele><time>2026-05-03T08:32:22.517Z</time></trkpt><trkpt lat="43.9588735" lon="12.7953977"><ele>153.0</ele><time>2026-05-03T08:32:23.52Z</time></trkpt><trkpt lat="43.9588063" lon="12.7953197"><ele>154.5</ele><time>2026-05-03T08:32:24.52Z</time></trkpt><trkpt lat="43.9587378" lon="12.795244"><ele>156.0</ele><time>2026-05-03T08:32:25.517Z</time></trkpt><trkpt lat="43.958658" lon="12.795181"><ele>156.0</ele><time>2026-05-03T08:32:26.52Z</time></trkpt><trkpt lat="43.9585766" lon="12.7951639"><ele>156.0</ele><time>2026-05-03T08:32:27.515Z</time></trkpt><trkpt lat="43.958486" lon="12.7951553"><ele>156.0</ele><time>2026-05-03T08:32:28.517Z</time></trkpt><trkpt lat="43.9583998" lon="12.7951767"><ele>156.0</ele><time>2026-05-03T08:32:29.517Z</time></trkpt><trkpt lat="43.9583107" lon="12.7952242"><ele>156.0</ele><time>2026-05-03T08:32:30.516Z</time></trkpt><trkpt lat="43.9582355" lon="12.7953035"><ele>156.2</ele><time>2026-05-03T08:32:31.511Z</time></trkpt><trkpt lat="43.9581719" lon="12.7954088"><ele>156.39999999999998</ele><time>2026-05-03T08:32:32.515Z</time></trkpt><trkpt lat="43.9581326" lon="12.7955332"><ele>156.6</ele><time>2026-05-03T08:32:33.519Z</time></trkpt><trkpt lat="43.958125" lon="12.7956694"><ele>156.79999999999998</ele><time>2026-05-03T08:32:34.518Z</time></trkpt><trkpt lat="43.9581456" lon="12.7957979"><ele>157.0</ele><time>2026-05-03T08:32:35.518Z</time></trkpt><trkpt lat="43.958189" lon="12.7959238"><ele>156.79999999999998</ele><time>2026-05-03T08:32:36.52Z</time></trkpt><trkpt lat="43.9582437" lon="12.7960412"><ele>156.6</ele><time>2026-05-03T08:32:37.516Z</time></trkpt><trkpt lat="43.9583104" lon="12.7961522"><ele>156.39999999999998</ele><time>2026-05-03T08:32:38.517Z</time></trkpt><trkpt lat="43.9583775" lon="12.7962625"><ele>156.2</ele><time>2026-05-03T08:32:39.516Z</time></trkpt><trkpt lat="43.9584447" lon="12.7963728"><ele>156.0</ele><time>2026-05-03T08:32:40.516Z</time></trkpt><trkpt lat="43.9585068" lon="12.7964998"><ele>158.4</ele><time>2026-05-03T08:32:41.518Z</time></trkpt><trkpt lat="43.9585725" lon="12.7966189"><ele>160.8</ele><time>2026-05-03T08:32:42.515Z</time></trkpt><trkpt lat="43.9586435" lon="12.7967322"><ele>163.20000000000002</ele><time>2026-05-03T08:32:43.518Z</time></trkpt><trkpt lat="43.958707" lon="12.7968469"><ele>165.6</ele><time>2026-05-03T08:32:44.516Z</time></trkpt><trkpt lat="43.9587621" lon="12.7969629"><ele>168.0</ele><time>2026-05-03T08:32:45.516Z</time></trkpt><trkpt lat="43.9588072" lon="12.7970941"><ele>169.4</ele><time>2026-05-03T08:32:46.518Z</time></trkpt><trkpt lat="43.9588061" lon="12.7972388"><ele>170.8</ele><time>2026-05-03T08:32:47.516Z</time></trkpt><trkpt lat="43.9588187" lon="12.7973829"><ele>172.2</ele><time>2026-05-03T08:32:48.519Z</time></trkpt><trkpt lat="43.9588181" lon="12.7975085"><ele>173.6</ele><time>2026-05-03T08:32:49.518Z</time></trkpt><trkpt lat="43.958814" lon="12.797631"><ele>175.0</ele><time>2026-05-03T08:32:50.519Z</time></trkpt><trkpt lat="43.9588076" lon="12.7977584"><ele>175.16666666666669</ele><time>2026-05-03T08:32:51.516Z</time></trkpt><trkpt lat="43.9587876" lon="12.7978738"><ele>175.33333333333334</ele><time>2026-05-03T08:32:52.518Z</time></trkpt><trkpt lat="43.9587627" lon="12.7980001"><ele>175.5</ele><time>2026-05-03T08:32:53.522Z</time></trkpt><trkpt lat="43.9587428" lon="12.7981225"><ele>175.66666666666666</ele><time>2026-05-03T08:32:54.515Z</time></trkpt><trkpt lat="43.9587557" lon="12.7982431"><ele>175.83333333333331</ele><time>2026-05-03T08:32:55.509Z</time></trkpt><trkpt lat="43.9587848" lon="12.7983506"><ele>176.0</ele><time>2026-05-03T08:32:56.519Z</time></trkpt><trkpt lat="43.9588362" lon="12.7984497"><ele>176.5</ele><time>2026-05-03T08:32:57.518Z</time></trkpt><trkpt lat="43.9588916" lon="12.7985448"><ele>177.0</ele><time>2026-05-03T08:32:58.516Z</time></trkpt><trkpt lat="43.9589478" lon="12.7986265"><ele>177.5</ele><time>2026-05-03T08:32:59.525Z</time></trkpt><trkpt lat="43.9590021" lon="12.7986788"><ele>178.0</ele><time>2026-05-03T08:33:00.516Z</time></trkpt><trkpt lat="43.9590648" lon="12.7987801"><ele>178.5</ele><time>2026-05-03T08:33:01.52Z</time></trkpt><trkpt lat="43.9591472" lon="12.7988252"><ele>179.0</ele><time>2026-05-03T08:33:02.516Z</time></trkpt><trkpt lat="43.9592436" lon="12.7988858"><ele>179.0</ele><time>2026-05-03T08:33:03.515Z</time></trkpt><trkpt lat="43.95933" lon="12.798955"><ele>179.0</ele><time>2026-05-03T08:33:04.516Z</time></trkpt><trkpt lat="43.9594226" lon="12.7990093"><ele>179.0</ele><time>2026-05-03T08:33:05.518Z</time></trkpt><trkpt lat="43.9595222" lon="12.7990567"><ele>179.0</ele><time>2026-05-03T08:33:06.516Z</time></trkpt><trkpt lat="43.9596372" lon="12.7990631"><ele>179.0</ele><time>2026-05-03T08:33:07.513Z</time></trkpt><trkpt lat="43.9597384" lon="12.7990938"><ele>179.0</ele><time>2026-05-03T08:33:08.516Z</time></trkpt><trkpt lat="43.9598281" lon="12.7991286"><ele>179.0</ele><time>2026-05-03T08:33:09.516Z</time></trkpt><trkpt lat="43.9599183" lon="12.7991832"><ele>179.0</ele><time>2026-05-03T08:33:10.517Z</time></trkpt><trkpt lat="43.9600066" lon="12.7992334"><ele>179.0</ele><time>2026-05-03T08:33:11.516Z</time></trkpt><trkpt lat="43.9600917" lon="12.7993063"><ele>179.0</ele><time>2026-05-03T08:33:12.517Z</time></trkpt><trkpt lat="43.9601424" lon="12.7994595"><ele>177.0</ele><time>2026-05-03T08:33:13.518Z</time></trkpt><trkpt lat="43.9602095" lon="12.7995791"><ele>175.0</ele><time>2026-05-03T08:33:14.516Z</time></trkpt><trkpt lat="43.9602673" lon="12.7996985"><ele>173.0</ele><time>2026-05-03T08:33:15.518Z</time></trkpt><trkpt lat="43.9603141" lon="12.7998218"><ele>171.0</ele><time>2026-05-03T08:33:16.514Z</time></trkpt><trkpt lat="43.9603574" lon="12.7999425"><ele>169.0</ele><time>2026-05-03T08:33:17.514Z</time></trkpt><trkpt lat="43.9603976" lon="12.8000522"><ele>169.0</ele><time>2026-05-03T08:33:18.518Z</time></trkpt><trkpt lat="43.9604238" lon="12.8001502"><ele>169.0</ele><time>2026-05-03T08:33:19.517Z</time></trkpt><trkpt lat="43.9604419" lon="12.8002478"><ele>169.0</ele><time>2026-05-03T08:33:20.516Z</time></trkpt><trkpt lat="43.9604512" lon="12.8003498"><ele>169.0</ele><time>2026-05-03T08:33:21.516Z</time></trkpt><trkpt lat="43.9604514" lon="12.8004616"><ele>169.0</ele><time>2026-05-03T08:33:22.521Z</time></trkpt><trkpt lat="43.9604387" lon="12.8006351"><ele>169.0</ele><time>2026-05-03T08:33:24.518Z</time></trkpt><trkpt lat="43.9604013" lon="12.8007336"><ele>165.16666666666669</ele><time>2026-05-03T08:33:25.513Z</time></trkpt><trkpt lat="43.9603643" lon="12.8008265"><ele>161.33333333333334</ele><time>2026-05-03T08:33:26.517Z</time></trkpt><trkpt lat="43.9603301" lon="12.8009376"><ele>157.5</ele><time>2026-05-03T08:33:27.518Z</time></trkpt><trkpt lat="43.9602826" lon="12.8010398"><ele>153.66666666666666</ele><time>2026-05-03T08:33:28.516Z</time></trkpt><trkpt lat="43.9602402" lon="12.8011411"><ele>149.83333333333331</ele><time>2026-05-03T08:33:29.517Z</time></trkpt><trkpt lat="43.9601902" lon="12.8012554"><ele>146.0</ele><time>2026-05-03T08:33:30.516Z</time></trkpt><trkpt lat="43.96014" lon="12.8013654"><ele>147.0</ele><time>2026-05-03T08:33:31.519Z</time></trkpt><trkpt lat="43.960086" lon="12.801469"><ele>148.0</ele><time>2026-05-03T08:33:32.518Z</time></trkpt><trkpt lat="43.9600351" lon="12.8015803"><ele>149.0</ele><time>2026-05-03T08:33:33.516Z</time></trkpt><trkpt lat="43.9599909" lon="12.8017025"><ele>150.0</ele><time>2026-05-03T08:33:34.517Z</time></trkpt><trkpt lat="43.9599434" lon="12.8018302"><ele>151.0</ele><time>2026-05-03T08:33:35.518Z</time></trkpt><trkpt lat="43.9598891" lon="12.8019553"><ele>151.0</ele><time>2026-05-03T08:33:36.517Z</time></trkpt><trkpt lat="43.9598429" lon="12.8020512"><ele>151.0</ele><time>2026-05-03T08:33:37.517Z</time></trkpt><trkpt lat="43.9598075" lon="12.8021676"><ele>151.0</ele><time>2026-05-03T08:33:38.517Z</time></trkpt><trkpt lat="43.9597545" lon="12.8022903"><ele>151.0</ele><time>2026-05-03T08:33:39.515Z</time></trkpt><trkpt lat="43.9597049" lon="12.8024057"><ele>151.0</ele><time>2026-05-03T08:33:40.517Z</time></trkpt><trkpt lat="43.9596368" lon="12.8025327"><ele>151.0</ele><time>2026-05-03T08:33:41.512Z</time></trkpt><trkpt lat="43.9595708" lon="12.8026607"><ele>151.0</ele><time>2026-05-03T08:33:42.518Z</time></trkpt><trkpt lat="43.9595062" lon="12.8027792"><ele>151.0</ele><time>2026-05-03T08:33:43.519Z</time></trkpt><trkpt lat="43.9594338" lon="12.8028941"><ele>151.0</ele><time>2026-05-03T08:33:44.517Z</time></trkpt><trkpt lat="43.9593793" lon="12.8030103"><ele>151.0</ele><time>2026-05-03T08:33:45.518Z</time></trkpt><trkpt lat="43.9592637" lon="12.8031159"><ele>150.25</ele><time>2026-05-03T08:33:46.518Z</time></trkpt><trkpt lat="43.9591855" lon="12.8032336"><ele>149.5</ele><time>2026-05-03T08:33:47.517Z</time></trkpt><trkpt lat="43.9590987" lon="12.8033629"><ele>148.75</ele><time>2026-05-03T08:33:48.517Z</time></trkpt><trkpt lat="43.9590269" lon="12.8035063"><ele>148.0</ele><time>2026-05-03T08:33:49.518Z</time></trkpt><trkpt lat="43.9589614" lon="12.8036585"><ele>148.0</ele><time>2026-05-03T08:33:50.518Z</time></trkpt><trkpt lat="43.9588966" lon="12.8037871"><ele>148.0</ele><time>2026-05-03T08:33:51.518Z</time></trkpt><trkpt lat="43.9588429" lon="12.8039389"><ele>148.0</ele><time>2026-05-03T08:33:52.516Z</time></trkpt><trkpt lat="43.9588182" lon="12.8040856"><ele>148.0</ele><time>2026-05-03T08:33:53.515Z</time></trkpt><trkpt lat="43.9587974" lon="12.8042161"><ele>148.0</ele><time>2026-05-03T08:33:54.517Z</time></trkpt><trkpt lat="43.9587843" lon="12.8043546"><ele>144.8</ele><time>2026-05-03T08:33:55.517Z</time></trkpt><trkpt lat="43.9587546" lon="12.8044798"><ele>141.60000000000002</ele><time>2026-05-03T08:33:56.517Z</time></trkpt><trkpt lat="43.9587428" lon="12.804611"><ele>138.39999999999998</ele><time>2026-05-03T08:33:57.515Z</time></trkpt><trkpt lat="43.9587023" lon="12.8047236"><ele>135.2</ele><time>2026-05-03T08:33:58.516Z</time></trkpt><trkpt lat="43.9586744" lon="12.8048478"><ele>132.0</ele><time>2026-05-03T08:33:59.516Z</time></trkpt><trkpt lat="43.9586367" lon="12.8049478"><ele>132.0</ele><time>2026-05-03T08:34:00.516Z</time></trkpt><trkpt lat="43.9585923" lon="12.8050347"><ele>132.0</ele><time>2026-05-03T08:34:01.517Z</time></trkpt><trkpt lat="43.9585473" lon="12.8050994"><ele>132.0</ele><time>2026-05-03T08:34:02.516Z</time></trkpt><trkpt lat="43.9584633" lon="12.8051635"><ele>132.0</ele><time>2026-05-03T08:34:04.511Z</time></trkpt><trkpt lat="43.9583938" lon="12.805187"><ele>132.0</ele><time>2026-05-03T08:34:06.521Z</time></trkpt><trkpt lat="43.9583016" lon="12.8051496"><ele>132.0</ele><time>2026-05-03T08:34:30.517Z</time></trkpt><trkpt lat="43.9583495" lon="12.8052344"><ele>132.0</ele><time>2026-05-03T08:34:38.518Z</time></trkpt><trkpt lat="43.958414" lon="12.8052594"><ele>132.0</ele><time>2026-05-03T08:34:40.522Z</time></trkpt><trkpt lat="43.958505" lon="12.8051761"><ele>132.0</ele><time>2026-05-03T08:34:42.512Z</time></trkpt><trkpt lat="43.9585094" lon="12.8050453"><ele>132.0</ele><time>2026-05-03T08:34:44.519Z</time></trkpt><trkpt lat="43.9584537" lon="12.8049246"><ele>132.0</ele><time>2026-05-03T08:34:46.521Z</time></trkpt><trkpt lat="43.9584073" lon="12.8048468"><ele>132.0</ele><time>2026-05-03T08:34:47.52Z</time></trkpt><trkpt lat="43.9583554" lon="12.8047549"><ele>139.2</ele><time>2026-05-03T08:34:48.516Z</time></trkpt><trkpt lat="43.9583044" lon="12.8046715"><ele>146.39999999999998</ele><time>2026-05-03T08:34:49.512Z</time></trkpt><trkpt lat="43.9582466" lon="12.8045787"><ele>153.60000000000002</ele><time>2026-05-03T08:34:50.51Z</time></trkpt><trkpt lat="43.9581931" lon="12.8044918"><ele>160.8</ele><time>2026-05-03T08:34:51.519Z</time></trkpt><trkpt lat="43.9580851" lon="12.8044197"><ele>168.0</ele><time>2026-05-03T08:34:52.514Z</time></trkpt><trkpt lat="43.9579995" lon="12.8043439"><ele>168.0</ele><time>2026-05-03T08:34:53.515Z</time></trkpt><trkpt lat="43.9579129" lon="12.8042572"><ele>168.0</ele><time>2026-05-03T08:34:54.516Z</time></trkpt><trkpt lat="43.9578277" lon="12.8041554"><ele>168.0</ele><time>2026-05-03T08:34:55.518Z</time></trkpt><trkpt lat="43.9577557" lon="12.8040577"><ele>168.0</ele><time>2026-05-03T08:34:56.517Z</time></trkpt><trkpt lat="43.9576564" lon="12.8039851"><ele>168.0</ele><time>2026-05-03T08:34:57.518Z</time></trkpt><trkpt lat="43.9575433" lon="12.8038927"><ele>165.0</ele><time>2026-05-03T08:34:58.515Z</time></trkpt><trkpt lat="43.9574383" lon="12.8037847"><ele>162.0</ele><time>2026-05-03T08:34:59.518Z</time></trkpt><trkpt lat="43.9573118" lon="12.8036981"><ele>159.0</ele><time>2026-05-03T08:35:00.517Z</time></trkpt><trkpt lat="43.9572099" lon="12.8036052"><ele>156.0</ele><time>2026-05-03T08:35:01.514Z</time></trkpt><trkpt lat="43.9571165" lon="12.8034842"><ele>154.25</ele><time>2026-05-03T08:35:02.518Z</time></trkpt><trkpt lat="43.9570072" lon="12.8033839"><ele>152.5</ele><time>2026-05-03T08:35:03.517Z</time></trkpt><trkpt lat="43.9569146" lon="12.8032915"><ele>150.75</ele><time>2026-05-03T08:35:04.515Z</time></trkpt><trkpt lat="43.9568287" lon="12.8031873"><ele>149.0</ele><time>2026-05-03T08:35:05.511Z</time></trkpt><trkpt lat="43.9567256" lon="12.8030928"><ele>146.25</ele><time>2026-05-03T08:35:06.518Z</time></trkpt><trkpt lat="43.956627" lon="12.8030149"><ele>143.5</ele><time>2026-05-03T08:35:07.517Z</time></trkpt><trkpt lat="43.9565245" lon="12.8029653"><ele>140.75</ele><time>2026-05-03T08:35:08.517Z</time></trkpt><trkpt lat="43.9564004" lon="12.8029257"><ele>138.0</ele><time>2026-05-03T08:35:09.516Z</time></trkpt><trkpt lat="43.9562611" lon="12.8029152"><ele>138.0</ele><time>2026-05-03T08:35:10.518Z</time></trkpt><trkpt lat="43.956125" lon="12.8028881"><ele>138.0</ele><time>2026-05-03T08:35:11.518Z</time></trkpt><trkpt lat="43.9559999" lon="12.8028468"><ele>138.0</ele><time>2026-05-03T08:35:12.517Z</time></trkpt><trkpt lat="43.9558774" lon="12.8028011"><ele>138.0</ele><time>2026-05-03T08:35:13.516Z</time></trkpt><trkpt lat="43.9557526" lon="12.8027555"><ele>136.0</ele><time>2026-05-03T08:35:14.517Z</time></trkpt><trkpt lat="43.9556287" lon="12.8027332"><ele>134.0</ele><time>2026-05-03T08:35:15.513Z</time></trkpt><trkpt lat="43.9555028" lon="12.8026817"><ele>132.0</ele><time>2026-05-03T08:35:16.517Z</time></trkpt><trkpt lat="43.9553666" lon="12.8026211"><ele>130.0</ele><time>2026-05-03T08:35:17.518Z</time></trkpt><trkpt lat="43.9552579" lon="12.8025847"><ele>127.2</ele><time>2026-05-03T08:35:18.517Z</time></trkpt><trkpt lat="43.9551626" lon="12.802554"><ele>124.4</ele><time>2026-05-03T08:35:19.514Z</time></trkpt><trkpt lat="43.9550617" lon="12.8025042"><ele>121.6</ele><time>2026-05-03T08:35:20.516Z</time></trkpt><trkpt lat="43.9550359" lon="12.8023904"><ele>118.8</ele><time>2026-05-03T08:35:21.518Z</time></trkpt><trkpt lat="43.9550055" lon="12.8022685"><ele>116.0</ele><time>2026-05-03T08:35:22.51Z</time></trkpt><trkpt lat="43.9550084" lon="12.8021244"><ele>113.75</ele><time>2026-05-03T08:35:23.517Z</time></trkpt><trkpt lat="43.9549931" lon="12.8019634"><ele>111.5</ele><time>2026-05-03T08:35:24.516Z</time></trkpt><trkpt lat="43.954983" lon="12.8017856"><ele>109.25</ele><time>2026-05-03T08:35:25.516Z</time></trkpt><trkpt lat="43.9549604" lon="12.8015957"><ele>107.0</ele><time>2026-05-03T08:35:26.517Z</time></trkpt><trkpt lat="43.9549442" lon="12.8014071"><ele>104.75</ele><time>2026-05-03T08:35:27.511Z</time></trkpt><trkpt lat="43.9549314" lon="12.801202"><ele>102.5</ele><time>2026-05-03T08:35:28.518Z</time></trkpt><trkpt lat="43.9549181" lon="12.8010054"><ele>100.25</ele><time>2026-05-03T08:35:29.517Z</time></trkpt><trkpt lat="43.9549195" lon="12.8008042"><ele>98.0</ele><time>2026-05-03T08:35:30.51Z</time></trkpt><trkpt lat="43.9549073" lon="12.8006153"><ele>97.0</ele><time>2026-05-03T08:35:31.523Z</time></trkpt><trkpt lat="43.9549142" lon="12.8004277"><ele>96.0</ele><time>2026-05-03T08:35:32.513Z</time></trkpt><trkpt lat="43.9548966" lon="12.8002463"><ele>95.0</ele><time>2026-05-03T08:35:33.517Z</time></trkpt><trkpt lat="43.9548849" lon="12.8000859"><ele>94.0</ele><time>2026-05-03T08:35:34.516Z</time></trkpt><trkpt lat="43.9548551" lon="12.7999305"><ele>92.75</ele><time>2026-05-03T08:35:35.517Z</time></trkpt><trkpt lat="43.9547797" lon="12.799804"><ele>91.5</ele><time>2026-05-03T08:35:36.515Z</time></trkpt><trkpt lat="43.9547181" lon="12.7996895"><ele>90.25</ele><time>2026-05-03T08:35:37.516Z</time></trkpt><trkpt lat="43.9546248" lon="12.7995718"><ele>89.0</ele><time>2026-05-03T08:35:38.517Z</time></trkpt><trkpt lat="43.9545197" lon="12.799454"><ele>88.0</ele><time>2026-05-03T08:35:39.515Z</time></trkpt><trkpt lat="43.9544025" lon="12.7993307"><ele>87.0</ele><time>2026-05-03T08:35:40.515Z</time></trkpt><trkpt lat="43.954285" lon="12.7992164"><ele>86.0</ele><time>2026-05-03T08:35:41.515Z</time></trkpt><trkpt lat="43.9541485" lon="12.7990898"><ele>84.0</ele><time>2026-05-03T08:35:42.507Z</time></trkpt><trkpt lat="43.9540237" lon="12.7990084"><ele>82.0</ele><time>2026-05-03T08:35:43.516Z</time></trkpt><trkpt lat="43.9538971" lon="12.79892"><ele>80.0</ele><time>2026-05-03T08:35:44.508Z</time></trkpt><trkpt lat="43.9537929" lon="12.7987941"><ele>78.0</ele><time>2026-05-03T08:35:45.517Z</time></trkpt><trkpt lat="43.9536978" lon="12.7986532"><ele>78.75</ele><time>2026-05-03T08:35:46.519Z</time></trkpt><trkpt lat="43.953617" lon="12.7984991"><ele>79.5</ele><time>2026-05-03T08:35:47.516Z</time></trkpt><trkpt lat="43.9535323" lon="12.7983536"><ele>80.25</ele><time>2026-05-03T08:35:48.517Z</time></trkpt><trkpt lat="43.9534396" lon="12.798227"><ele>81.0</ele><time>2026-05-03T08:35:49.521Z</time></trkpt><trkpt lat="43.9533367" lon="12.7981197"><ele>77.75</ele><time>2026-05-03T08:35:50.518Z</time></trkpt><trkpt lat="43.9532291" lon="12.7980247"><ele>74.5</ele><time>2026-05-03T08:35:51.517Z</time></trkpt><trkpt lat="43.9531227" lon="12.7979427"><ele>71.25</ele><time>2026-05-03T08:35:52.52Z</time></trkpt><trkpt lat="43.9530158" lon="12.7978787"><ele>68.0</ele><time>2026-05-03T08:35:53.516Z</time></trkpt><trkpt lat="43.9529123" lon="12.7978301"><ele>68.0</ele><time>2026-05-03T08:35:54.511Z</time></trkpt><trkpt lat="43.9528082" lon="12.7977753"><ele>68.0</ele><time>2026-05-03T08:35:55.517Z</time></trkpt><trkpt lat="43.9526928" lon="12.7977353"><ele>68.0</ele><time>2026-05-03T08:35:56.515Z</time></trkpt><trkpt lat="43.9525787" lon="12.797683"><ele>68.0</ele><time>2026-05-03T08:35:57.518Z</time></trkpt><trkpt lat="43.9524592" lon="12.7976308"><ele>67.0</ele><time>2026-05-03T08:35:58.521Z</time></trkpt><trkpt lat="43.9523498" lon="12.7975571"><ele>66.0</ele><time>2026-05-03T08:35:59.517Z</time></trkpt><trkpt lat="43.9522503" lon="12.7974667"><ele>65.0</ele><time>2026-05-03T08:36:00.512Z</time></trkpt><trkpt lat="43.9521556" lon="12.7973607"><ele>64.0</ele><time>2026-05-03T08:36:01.507Z</time></trkpt><trkpt lat="43.952068" lon="12.7972313"><ele>64.0</ele><time>2026-05-03T08:36:02.517Z</time></trkpt><trkpt lat="43.9519832" lon="12.7970992"><ele>64.0</ele><time>2026-05-03T08:36:03.513Z</time></trkpt><trkpt lat="43.9518999" lon="12.7969566"><ele>64.0</ele><time>2026-05-03T08:36:04.518Z</time></trkpt><trkpt lat="43.9518247" lon="12.7968079"><ele>64.0</ele><time>2026-05-03T08:36:05.516Z</time></trkpt><trkpt lat="43.9517547" lon="12.7966586"><ele>62.5</ele><time>2026-05-03T08:36:06.511Z</time></trkpt><trkpt lat="43.9516641" lon="12.796537"><ele>61.0</ele><time>2026-05-03T08:36:07.517Z</time></trkpt><trkpt lat="43.9515513" lon="12.7964232"><ele>59.5</ele><time>2026-05-03T08:36:08.515Z</time></trkpt><trkpt lat="43.9514293" lon="12.7963282"><ele>58.0</ele><time>2026-05-03T08:36:09.514Z</time></trkpt><trkpt lat="43.9512903" lon="12.7962315"><ele>58.0</ele><time>2026-05-03T08:36:10.516Z</time></trkpt><trkpt lat="43.9511594" lon="12.7961536"><ele>58.0</ele><time>2026-05-03T08:36:11.517Z</time></trkpt><trkpt lat="43.9510322" lon="12.7960792"><ele>58.0</ele><time>2026-05-03T08:36:12.519Z</time></trkpt><trkpt lat="43.9509005" lon="12.7960404"><ele>58.0</ele><time>2026-05-03T08:36:13.515Z</time></trkpt><trkpt lat="43.9507698" lon="12.7960263"><ele>58.0</ele><time>2026-05-03T08:36:14.511Z</time></trkpt><trkpt lat="43.9506387" lon="12.7960314"><ele>58.0</ele><time>2026-05-03T08:36:15.52Z</time></trkpt><trkpt lat="43.9505236" lon="12.796007"><ele>58.0</ele><time>2026-05-03T08:36:16.515Z</time></trkpt><trkpt lat="43.9504156" lon="12.7959466"><ele>58.0</ele><time>2026-05-03T08:36:17.516Z</time></trkpt><trkpt lat="43.9503185" lon="12.7958514"><ele>58.0</ele><time>2026-05-03T08:36:18.517Z</time></trkpt><trkpt lat="43.9502358" lon="12.7957719"><ele>58.0</ele><time>2026-05-03T08:36:19.517Z</time></trkpt><trkpt lat="43.9501802" lon="12.7956995"><ele>58.0</ele><time>2026-05-03T08:36:20.516Z</time></trkpt><trkpt lat="43.9501279" lon="12.7955674"><ele>58.0</ele><time>2026-05-03T08:36:22.512Z</time></trkpt><trkpt lat="43.9500958" lon="12.7954526"><ele>58.0</ele><time>2026-05-03T08:36:24.517Z</time></trkpt><trkpt lat="43.9500521" lon="12.7953432"><ele>56.599999999999994</ele><time>2026-05-03T08:36:26.519Z</time></trkpt><trkpt lat="43.949957" lon="12.7952266"><ele>55.199999999999996</ele><time>2026-05-03T08:36:28.518Z</time></trkpt><trkpt lat="43.9499091" lon="12.7951608"><ele>53.8</ele><time>2026-05-03T08:36:29.517Z</time></trkpt><trkpt lat="43.9498177" lon="12.7951219"><ele>52.4</ele><time>2026-05-03T08:36:30.517Z</time></trkpt><trkpt lat="43.9496975" lon="12.7951146"><ele>51.0</ele><time>2026-05-03T08:36:31.516Z</time></trkpt><trkpt lat="43.9496167" lon="12.7951218"><ele>51.0</ele><time>2026-05-03T08:36:32.517Z</time></trkpt><trkpt lat="43.9495372" lon="12.7951261"><ele>51.0</ele><time>2026-05-03T08:36:33.517Z</time></trkpt><trkpt lat="43.9494257" lon="12.795139"><ele>51.0</ele><time>2026-05-03T08:36:35.52Z</time></trkpt><trkpt lat="43.9492898" lon="12.7951599"><ele>51.0</ele><time>2026-05-03T08:36:37.52Z</time></trkpt><trkpt lat="43.9491846" lon="12.7951708"><ele>51.0</ele><time>2026-05-03T08:36:38.51Z</time></trkpt><trkpt lat="43.9490741" lon="12.7951956"><ele>48.599999999999994</ele><time>2026-05-03T08:36:39.523Z</time></trkpt><trkpt lat="43.9489625" lon="12.7952072"><ele>46.199999999999996</ele><time>2026-05-03T08:36:40.517Z</time></trkpt><trkpt lat="43.9488448" lon="12.7952094"><ele>43.8</ele><time>2026-05-03T08:36:41.51Z</time></trkpt><trkpt lat="43.9487277" lon="12.7952031"><ele>41.4</ele><time>2026-05-03T08:36:42.52Z</time></trkpt><trkpt lat="43.9486307" lon="12.7951886"><ele>39.0</ele><time>2026-05-03T08:36:43.518Z</time></trkpt><trkpt lat="43.9485286" lon="12.7951807"><ele>39.166666666666664</ele><time>2026-05-03T08:36:44.512Z</time></trkpt><trkpt lat="43.9484299" lon="12.7951561"><ele>39.333333333333336</ele><time>2026-05-03T08:36:45.519Z</time></trkpt><trkpt lat="43.9483431" lon="12.7951121"><ele>39.5</ele><time>2026-05-03T08:36:46.511Z</time></trkpt><trkpt lat="43.9482558" lon="12.7950504"><ele>39.66666666666667</ele><time>2026-05-03T08:36:47.518Z</time></trkpt><trkpt lat="43.948182" lon="12.7950062"><ele>39.833333333333336</ele><time>2026-05-03T08:36:48.52Z</time></trkpt><trkpt lat="43.948114" lon="12.7949533"><ele>40.0</ele><time>2026-05-03T08:36:49.519Z</time></trkpt><trkpt lat="43.9480334" lon="12.7949026"><ele>38.66666666666667</ele><time>2026-05-03T08:36:51.517Z</time></trkpt><trkpt lat="43.9479897" lon="12.7948367"><ele>37.333333333333336</ele><time>2026-05-03T08:36:53.518Z</time></trkpt><trkpt lat="43.947943" lon="12.7947677"><ele>36.0</ele><time>2026-05-03T08:37:04.519Z</time></trkpt><trkpt lat="43.9478797" lon="12.7947842"><ele>34.666666666666664</ele><time>2026-05-03T08:37:05.514Z</time></trkpt><trkpt lat="43.9477865" lon="12.7948446"><ele>33.33333333333333</ele><time>2026-05-03T08:37:07.518Z</time></trkpt><trkpt lat="43.9477454" lon="12.7950047"><ele>32.0</ele><time>2026-05-03T08:37:08.539Z</time></trkpt><trkpt lat="43.9477106" lon="12.7951417"><ele>32.75</ele><time>2026-05-03T08:37:09.521Z</time></trkpt><trkpt lat="43.947687" lon="12.7952824"><ele>33.5</ele><time>2026-05-03T08:37:10.519Z</time></trkpt><trkpt lat="43.9476601" lon="12.7954337"><ele>34.25</ele><time>2026-05-03T08:37:11.52Z</time></trkpt><trkpt lat="43.9476358" lon="12.7955795"><ele>35.0</ele><time>2026-05-03T08:37:12.518Z</time></trkpt><trkpt lat="43.9476263" lon="12.7957546"><ele>35.0</ele><time>2026-05-03T08:37:13.516Z</time></trkpt><trkpt lat="43.9476201" lon="12.7959196"><ele>35.0</ele><time>2026-05-03T08:37:14.52Z</time></trkpt><trkpt lat="43.9476099" lon="12.7960873"><ele>35.0</ele><time>2026-05-03T08:37:15.509Z</time></trkpt><trkpt lat="43.9476167" lon="12.7962434"><ele>35.0</ele><time>2026-05-03T08:37:16.518Z</time></trkpt><trkpt lat="43.9476263" lon="12.7964026"><ele>35.0</ele><time>2026-05-03T08:37:17.519Z</time></trkpt><trkpt lat="43.9476333" lon="12.7965567"><ele>35.0</ele><time>2026-05-03T08:37:18.518Z</time></trkpt><trkpt lat="43.9476371" lon="12.7967106"><ele>35.0</ele><time>2026-05-03T08:37:19.521Z</time></trkpt><trkpt lat="43.9476415" lon="12.7968641"><ele>35.0</ele><time>2026-05-03T08:37:20.521Z</time></trkpt><trkpt lat="43.9476503" lon="12.7970136"><ele>35.0</ele><time>2026-05-03T08:37:21.521Z</time></trkpt><trkpt lat="43.9476531" lon="12.7971679"><ele>35.6</ele><time>2026-05-03T08:37:22.52Z</time></trkpt><trkpt lat="43.9476534" lon="12.7973165"><ele>36.2</ele><time>2026-05-03T08:37:23.522Z</time></trkpt><trkpt lat="43.9476439" lon="12.7974648"><ele>36.8</ele><time>2026-05-03T08:37:24.518Z</time></trkpt><trkpt lat="43.9476408" lon="12.7976075"><ele>37.4</ele><time>2026-05-03T08:37:25.523Z</time></trkpt><trkpt lat="43.9476392" lon="12.7977661"><ele>38.0</ele><time>2026-05-03T08:37:26.522Z</time></trkpt><trkpt lat="43.9476381" lon="12.7979229"><ele>38.25</ele><time>2026-05-03T08:37:27.525Z</time></trkpt><trkpt lat="43.9476263" lon="12.7980787"><ele>38.5</ele><time>2026-05-03T08:37:28.521Z</time></trkpt><trkpt lat="43.947619" lon="12.7982366"><ele>38.75</ele><time>2026-05-03T08:37:29.521Z</time></trkpt><trkpt lat="43.9476112" lon="12.7983919"><ele>39.0</ele><time>2026-05-03T08:37:30.52Z</time></trkpt><trkpt lat="43.9475987" lon="12.7985474"><ele>39.6</ele><time>2026-05-03T08:37:31.519Z</time></trkpt><trkpt lat="43.9475853" lon="12.7987074"><ele>40.2</ele><time>2026-05-03T08:37:32.519Z</time></trkpt><trkpt lat="43.9475692" lon="12.79886"><ele>40.800000000000004</ele><time>2026-05-03T08:37:33.522Z</time></trkpt><trkpt lat="43.9475519" lon="12.7990084"><ele>41.4</ele><time>2026-05-03T08:37:34.52Z</time></trkpt><trkpt lat="43.9475387" lon="12.7991481"><ele>42.0</ele><time>2026-05-03T08:37:35.523Z</time></trkpt><trkpt lat="43.9475204" lon="12.7992902"><ele>41.0</ele><time>2026-05-03T08:37:36.521Z</time></trkpt><trkpt lat="43.947502" lon="12.7994372"><ele>40.0</ele><time>2026-05-03T08:37:37.518Z</time></trkpt><trkpt lat="43.9474814" lon="12.7995867"><ele>39.0</ele><time>2026-05-03T08:37:38.52Z</time></trkpt><trkpt lat="43.9474615" lon="12.7997362"><ele>38.0</ele><time>2026-05-03T08:37:39.52Z</time></trkpt><trkpt lat="43.9474458" lon="12.7998838"><ele>37.0</ele><time>2026-05-03T08:37:40.516Z</time></trkpt><trkpt lat="43.9474291" lon="12.8000352"><ele>37.6</ele><time>2026-05-03T08:37:41.519Z</time></trkpt><trkpt lat="43.9474079" lon="12.8001863"><ele>38.2</ele><time>2026-05-03T08:37:42.52Z</time></trkpt><trkpt lat="43.9473909" lon="12.800339"><ele>38.8</ele><time>2026-05-03T08:37:43.52Z</time></trkpt><trkpt lat="43.9473711" lon="12.8004878"><ele>39.4</ele><time>2026-05-03T08:37:44.519Z</time></trkpt><trkpt lat="43.9473446" lon="12.8006393"><ele>40.0</ele><time>2026-05-03T08:37:45.519Z</time></trkpt><trkpt lat="43.9473245" lon="12.8007873"><ele>40.0</ele><time>2026-05-03T08:37:46.518Z</time></trkpt><trkpt lat="43.9473067" lon="12.8009402"><ele>40.0</ele><time>2026-05-03T08:37:47.517Z</time></trkpt><trkpt lat="43.9472873" lon="12.8010977"><ele>40.0</ele><time>2026-05-03T08:37:48.523Z</time></trkpt><trkpt lat="43.9472687" lon="12.8012639"><ele>40.0</ele><time>2026-05-03T08:37:49.519Z</time></trkpt><trkpt lat="43.9472513" lon="12.8014404"><ele>40.25</ele><time>2026-05-03T08:37:50.518Z</time></trkpt><trkpt lat="43.9472402" lon="12.8016345"><ele>40.5</ele><time>2026-05-03T08:37:51.518Z</time></trkpt><trkpt lat="43.9472295" lon="12.8018409"><ele>40.75</ele><time>2026-05-03T08:37:52.522Z</time></trkpt><trkpt lat="43.9472301" lon="12.8020622"><ele>41.0</ele><time>2026-05-03T08:37:53.519Z</time></trkpt><trkpt lat="43.9472383" lon="12.8022963"><ele>41.33333333333333</ele><time>2026-05-03T08:37:54.511Z</time></trkpt><trkpt lat="43.9472505" lon="12.8025447"><ele>41.666666666666664</ele><time>2026-05-03T08:37:55.518Z</time></trkpt><trkpt lat="43.9472571" lon="12.8028031"><ele>42.0</ele><time>2026-05-03T08:37:56.517Z</time></trkpt><trkpt lat="43.9472677" lon="12.8030671"><ele>42.666666666666664</ele><time>2026-05-03T08:37:57.522Z</time></trkpt><trkpt lat="43.9472823" lon="12.8033287"><ele>43.33333333333333</ele><time>2026-05-03T08:37:58.519Z</time></trkpt><trkpt lat="43.9472986" lon="12.8035971"><ele>44.0</ele><time>2026-05-03T08:37:59.523Z</time></trkpt><trkpt lat="43.9473159" lon="12.8038662"><ele>44.33333333333333</ele><time>2026-05-03T08:38:00.521Z</time></trkpt><trkpt lat="43.9473395" lon="12.80414"><ele>44.666666666666664</ele><time>2026-05-03T08:38:01.504Z</time></trkpt><trkpt lat="43.9473671" lon="12.8044165"><ele>45.0</ele><time>2026-05-03T08:38:02.519Z</time></trkpt><trkpt lat="43.9474004" lon="12.8046882"><ele>46.33333333333333</ele><time>2026-05-03T08:38:03.518Z</time></trkpt><trkpt lat="43.9474427" lon="12.8049565"><ele>47.666666666666664</ele><time>2026-05-03T08:38:04.522Z</time></trkpt><trkpt lat="43.9475059" lon="12.8052326"><ele>49.0</ele><time>2026-05-03T08:38:05.521Z</time></trkpt><trkpt lat="43.9475495" lon="12.8055193"><ele>53.0</ele><time>2026-05-03T08:38:06.523Z</time></trkpt><trkpt lat="43.9475993" lon="12.8058091"><ele>57.0</ele><time>2026-05-03T08:38:07.52Z</time></trkpt><trkpt lat="43.94765" lon="12.8061085"><ele>61.0</ele><time>2026-05-03T08:38:08.516Z</time></trkpt><trkpt lat="43.9476967" lon="12.8064011"><ele>61.0</ele><time>2026-05-03T08:38:09.519Z</time></trkpt><trkpt lat="43.9477444" lon="12.8066907"><ele>61.0</ele><time>2026-05-03T08:38:10.52Z</time></trkpt><trkpt lat="43.9477964" lon="12.8069756"><ele>61.0</ele><time>2026-05-03T08:38:11.52Z</time></trkpt><trkpt lat="43.9478332" lon="12.8072524"><ele>61.0</ele><time>2026-05-03T08:38:12.52Z</time></trkpt><trkpt lat="43.9478814" lon="12.8075327"><ele>61.0</ele><time>2026-05-03T08:38:13.521Z</time></trkpt><trkpt lat="43.9479344" lon="12.8078064"><ele>61.0</ele><time>2026-05-03T08:38:14.517Z</time></trkpt><trkpt lat="43.9479845" lon="12.8080816"><ele>61.33333333333333</ele><time>2026-05-03T08:38:15.518Z</time></trkpt><trkpt lat="43.9480364" lon="12.8083523"><ele>61.66666666666667</ele><time>2026-05-03T08:38:16.519Z</time></trkpt><trkpt lat="43.9480884" lon="12.8086284"><ele>62.0</ele><time>2026-05-03T08:38:17.522Z</time></trkpt><trkpt lat="43.9481375" lon="12.8089004"><ele>63.0</ele><time>2026-05-03T08:38:18.517Z</time></trkpt><trkpt lat="43.9481846" lon="12.8091672"><ele>64.0</ele><time>2026-05-03T08:38:19.519Z</time></trkpt><trkpt lat="43.948226" lon="12.8094402"><ele>65.0</ele><time>2026-05-03T08:38:20.52Z</time></trkpt><trkpt lat="43.9482554" lon="12.8097153"><ele>66.66666666666667</ele><time>2026-05-03T08:38:21.518Z</time></trkpt><trkpt lat="43.9482734" lon="12.8099942"><ele>68.33333333333333</ele><time>2026-05-03T08:38:22.523Z</time></trkpt><trkpt lat="43.9482825" lon="12.8102732"><ele>70.0</ele><time>2026-05-03T08:38:23.52Z</time></trkpt><trkpt lat="43.9482621" lon="12.8105574"><ele>70.66666666666666</ele><time>2026-05-03T08:38:24.519Z</time></trkpt><trkpt lat="43.9482438" lon="12.8108336"><ele>71.33333333333333</ele><time>2026-05-03T08:38:25.518Z</time></trkpt><trkpt lat="43.9482087" lon="12.8111104"><ele>72.0</ele><time>2026-05-03T08:38:26.52Z</time></trkpt><trkpt lat="43.9481601" lon="12.8113851"><ele>72.0</ele><time>2026-05-03T08:38:27.519Z</time></trkpt><trkpt lat="43.9481012" lon="12.811652"><ele>72.0</ele><time>2026-05-03T08:38:28.521Z</time></trkpt><trkpt lat="43.9480307" lon="12.8119108"><ele>72.0</ele><time>2026-05-03T08:38:29.521Z</time></trkpt><trkpt lat="43.9479608" lon="12.8121659"><ele>71.0</ele><time>2026-05-03T08:38:30.516Z</time></trkpt><trkpt lat="43.9478832" lon="12.8124041"><ele>70.0</ele><time>2026-05-03T08:38:31.52Z</time></trkpt><trkpt lat="43.9478107" lon="12.8126431"><ele>69.0</ele><time>2026-05-03T08:38:32.519Z</time></trkpt><trkpt lat="43.9477365" lon="12.8128784"><ele>69.0</ele><time>2026-05-03T08:38:33.519Z</time></trkpt><trkpt lat="43.9476613" lon="12.8131147"><ele>69.0</ele><time>2026-05-03T08:38:34.517Z</time></trkpt><trkpt lat="43.9475899" lon="12.8133467"><ele>69.0</ele><time>2026-05-03T08:38:35.517Z</time></trkpt><trkpt lat="43.947514" lon="12.8135789"><ele>74.33333333333333</ele><time>2026-05-03T08:38:36.517Z</time></trkpt><trkpt lat="43.9474374" lon="12.8138134"><ele>79.66666666666666</ele><time>2026-05-03T08:38:37.521Z</time></trkpt><trkpt lat="43.9473606" lon="12.8140427"><ele>85.0</ele><time>2026-05-03T08:38:38.522Z</time></trkpt><trkpt lat="43.9472835" lon="12.8142678"><ele>89.0</ele><time>2026-05-03T08:38:39.515Z</time></trkpt><trkpt lat="43.947213" lon="12.814488"><ele>93.0</ele><time>2026-05-03T08:38:40.517Z</time></trkpt><trkpt lat="43.9471403" lon="12.8147115"><ele>97.0</ele><time>2026-05-03T08:38:41.517Z</time></trkpt><trkpt lat="43.9470673" lon="12.8149245"><ele>97.0</ele><time>2026-05-03T08:38:42.519Z</time></trkpt><trkpt lat="43.9470024" lon="12.815127"><ele>97.0</ele><time>2026-05-03T08:38:43.518Z</time></trkpt><trkpt lat="43.9469395" lon="12.8153222"><ele>97.0</ele><time>2026-05-03T08:38:44.52Z</time></trkpt><trkpt lat="43.9468807" lon="12.8155028"><ele>97.5</ele><time>2026-05-03T08:38:45.521Z</time></trkpt><trkpt lat="43.9468243" lon="12.8156677"><ele>98.0</ele><time>2026-05-03T08:38:46.52Z</time></trkpt><trkpt lat="43.9467719" lon="12.8158271"><ele>98.5</ele><time>2026-05-03T08:38:47.519Z</time></trkpt><trkpt lat="43.9467235" lon="12.8159736"><ele>99.0</ele><time>2026-05-03T08:38:48.517Z</time></trkpt><trkpt lat="43.9466744" lon="12.8161208"><ele>99.0</ele><time>2026-05-03T08:38:49.522Z</time></trkpt><trkpt lat="43.9466264" lon="12.8162727"><ele>99.0</ele><time>2026-05-03T08:38:50.513Z</time></trkpt><trkpt lat="43.9465783" lon="12.8164253"><ele>99.0</ele><time>2026-05-03T08:38:51.517Z</time></trkpt><trkpt lat="43.9465279" lon="12.8165761"><ele>99.0</ele><time>2026-05-03T08:38:52.512Z</time></trkpt><trkpt lat="43.9464794" lon="12.8167299"><ele>101.25</ele><time>2026-05-03T08:38:53.521Z</time></trkpt><trkpt lat="43.9464313" lon="12.8168899"><ele>103.5</ele><time>2026-05-03T08:38:54.518Z</time></trkpt><trkpt lat="43.9463812" lon="12.817049"><ele>105.75</ele><time>2026-05-03T08:38:55.516Z</time></trkpt><trkpt lat="43.9463277" lon="12.8172068"><ele>108.0</ele><time>2026-05-03T08:38:56.518Z</time></trkpt><trkpt lat="43.9462725" lon="12.8173709"><ele>108.0</ele><time>2026-05-03T08:38:57.521Z</time></trkpt><trkpt lat="43.9462096" lon="12.8175337"><ele>108.0</ele><time>2026-05-03T08:38:58.509Z</time></trkpt><trkpt lat="43.9461451" lon="12.8177082"><ele>108.0</ele><time>2026-05-03T08:38:59.521Z</time></trkpt><trkpt lat="43.9460657" lon="12.8178869"><ele>108.0</ele><time>2026-05-03T08:39:00.521Z</time></trkpt><trkpt lat="43.9459835" lon="12.8180673"><ele>108.0</ele><time>2026-05-03T08:39:01.518Z</time></trkpt><trkpt lat="43.9458631" lon="12.8182743"><ele>108.0</ele><time>2026-05-03T08:39:02.516Z</time></trkpt><trkpt lat="43.9457344" lon="12.8184705"><ele>108.0</ele><time>2026-05-03T08:39:03.518Z</time></trkpt><trkpt lat="43.9455833" lon="12.8186592"><ele>108.0</ele><time>2026-05-03T08:39:04.52Z</time></trkpt><trkpt lat="43.945424" lon="12.8188471"><ele>108.0</ele><time>2026-05-03T08:39:05.521Z</time></trkpt><trkpt lat="43.9452617" lon="12.8190435"><ele>108.0</ele><time>2026-05-03T08:39:06.511Z</time></trkpt><trkpt lat="43.9450978" lon="12.8192524"><ele>110.5</ele><time>2026-05-03T08:39:07.516Z</time></trkpt><trkpt lat="43.9449521" lon="12.8194896"><ele>113.0</ele><time>2026-05-03T08:39:08.519Z</time></trkpt><trkpt lat="43.944824" lon="12.8197483"><ele>113.0</ele><time>2026-05-03T08:39:09.517Z</time></trkpt><trkpt lat="43.9447167" lon="12.8200208"><ele>113.0</ele><time>2026-05-03T08:39:10.511Z</time></trkpt><trkpt lat="43.9446137" lon="12.8202796"><ele>113.0</ele><time>2026-05-03T08:39:11.509Z</time></trkpt><trkpt lat="43.9445083" lon="12.8205117"><ele>116.0</ele><time>2026-05-03T08:39:12.519Z</time></trkpt><trkpt lat="43.9443949" lon="12.8207105"><ele>119.0</ele><time>2026-05-03T08:39:13.51Z</time></trkpt><trkpt lat="43.9442786" lon="12.8208837"><ele>122.0</ele><time>2026-05-03T08:39:14.518Z</time></trkpt><trkpt lat="43.9441573" lon="12.8210206"><ele>122.0</ele><time>2026-05-03T08:39:15.518Z</time></trkpt><trkpt lat="43.944038" lon="12.8211301"><ele>122.0</ele><time>2026-05-03T08:39:16.517Z</time></trkpt><trkpt lat="43.9439309" lon="12.8212365"><ele>122.0</ele><time>2026-05-03T08:39:17.518Z</time></trkpt><trkpt lat="43.9438317" lon="12.8213339"><ele>122.0</ele><time>2026-05-03T08:39:18.519Z</time></trkpt><trkpt lat="43.9437368" lon="12.8214296"><ele>122.0</ele><time>2026-05-03T08:39:19.518Z</time></trkpt><trkpt lat="43.9436493" lon="12.8215165"><ele>121.99999999999999</ele><time>2026-05-03T08:39:20.518Z</time></trkpt><trkpt lat="43.9435687" lon="12.8216024"><ele>121.99999999999999</ele><time>2026-05-03T08:39:21.513Z</time></trkpt><trkpt lat="43.9434921" lon="12.8216924"><ele>122.0</ele><time>2026-05-03T08:39:22.518Z</time></trkpt><trkpt lat="43.9434226" lon="12.8217813"><ele>122.0</ele><time>2026-05-03T08:39:23.517Z</time></trkpt><trkpt lat="43.9433527" lon="12.8218737"><ele>122.19999999999999</ele><time>2026-05-03T08:39:24.519Z</time></trkpt><trkpt lat="43.9432823" lon="12.8219711"><ele>122.39999999999999</ele><time>2026-05-03T08:39:25.519Z</time></trkpt><trkpt lat="43.9432156" lon="12.8220649"><ele>122.60000000000001</ele><time>2026-05-03T08:39:26.511Z</time></trkpt><trkpt lat="43.9431536" lon="12.8221645"><ele>122.80000000000001</ele><time>2026-05-03T08:39:27.514Z</time></trkpt><trkpt lat="43.943101" lon="12.8222692"><ele>123.0</ele><time>2026-05-03T08:39:28.518Z</time></trkpt><trkpt lat="43.9430472" lon="12.8223759"><ele>123.0</ele><time>2026-05-03T08:39:29.518Z</time></trkpt><trkpt lat="43.9430045" lon="12.8224935"><ele>123.0</ele><time>2026-05-03T08:39:30.515Z</time></trkpt><trkpt lat="43.9429654" lon="12.8226086"><ele>123.0</ele><time>2026-05-03T08:39:31.518Z</time></trkpt><trkpt lat="43.9429298" lon="12.8227248"><ele>123.0</ele><time>2026-05-03T08:39:32.518Z</time></trkpt><trkpt lat="43.942904" lon="12.8228332"><ele>123.0</ele><time>2026-05-03T08:39:33.519Z</time></trkpt><trkpt lat="43.9428853" lon="12.8229382"><ele>123.0</ele><time>2026-05-03T08:39:34.517Z</time></trkpt><trkpt lat="43.9428738" lon="12.8230472"><ele>123.0</ele><time>2026-05-03T08:39:35.523Z</time></trkpt><trkpt lat="43.9428653" lon="12.8231604"><ele>123.00000000000001</ele><time>2026-05-03T08:39:36.512Z</time></trkpt><trkpt lat="43.9428637" lon="12.8232804"><ele>123.00000000000001</ele><time>2026-05-03T08:39:37.518Z</time></trkpt><trkpt lat="43.9428686" lon="12.8234145"><ele>123.0</ele><time>2026-05-03T08:39:38.51Z</time></trkpt><trkpt lat="43.9428787" lon="12.8235572"><ele>123.0</ele><time>2026-05-03T08:39:39.518Z</time></trkpt><trkpt lat="43.9428999" lon="12.8237023"><ele>121.25</ele><time>2026-05-03T08:39:40.509Z</time></trkpt><trkpt lat="43.9429345" lon="12.8238512"><ele>119.5</ele><time>2026-05-03T08:39:41.516Z</time></trkpt><trkpt lat="43.942985" lon="12.8239992"><ele>117.75</ele><time>2026-05-03T08:39:42.52Z</time></trkpt><trkpt lat="43.9430481" lon="12.8241352"><ele>116.0</ele><time>2026-05-03T08:39:43.518Z</time></trkpt><trkpt lat="43.943112" lon="12.8242592"><ele>114.4</ele><time>2026-05-03T08:39:44.519Z</time></trkpt><trkpt lat="43.9431739" lon="12.8243666"><ele>112.8</ele><time>2026-05-03T08:39:45.518Z</time></trkpt><trkpt lat="43.9432341" lon="12.8244594"><ele>111.20000000000002</ele><time>2026-05-03T08:39:46.519Z</time></trkpt><trkpt lat="43.9432802" lon="12.8245393"><ele>109.60000000000001</ele><time>2026-05-03T08:39:47.522Z</time></trkpt><trkpt lat="43.9433413" lon="12.8246647"><ele>108.0</ele><time>2026-05-03T08:39:49.51Z</time></trkpt><trkpt lat="43.9433759" lon="12.8248011"><ele>108.0</ele><time>2026-05-03T08:39:51.517Z</time></trkpt><trkpt lat="43.943376" lon="12.8249531"><ele>108.00000000000001</ele><time>2026-05-03T08:39:53.519Z</time></trkpt><trkpt lat="43.9434287" lon="12.8251026"><ele>108.00000000000001</ele><time>2026-05-03T08:39:55.52Z</time></trkpt><trkpt lat="43.9435009" lon="12.8251369"><ele>108.0</ele><time>2026-05-03T08:39:56.526Z</time></trkpt><trkpt lat="43.9435626" lon="12.8251618"><ele>108.0</ele><time>2026-05-03T08:39:57.52Z</time></trkpt><trkpt lat="43.9436721" lon="12.8252336"><ele>109.2</ele><time>2026-05-03T08:39:59.52Z</time></trkpt><trkpt lat="43.9437192" lon="12.8253071"><ele>110.4</ele><time>2026-05-03T08:40:00.519Z</time></trkpt><trkpt lat="43.9437628" lon="12.8254053"><ele>111.60000000000001</ele><time>2026-05-03T08:40:01.511Z</time></trkpt><trkpt lat="43.9438033" lon="12.8255203"><ele>112.80000000000001</ele><time>2026-05-03T08:40:02.519Z</time></trkpt><trkpt lat="43.9438384" lon="12.8256616"><ele>114.0</ele><time>2026-05-03T08:40:03.521Z</time></trkpt><trkpt lat="43.9438695" lon="12.825827"><ele>113.25</ele><time>2026-05-03T08:40:04.515Z</time></trkpt><trkpt lat="43.9438716" lon="12.8260176"><ele>112.5</ele><time>2026-05-03T08:40:05.523Z</time></trkpt><trkpt lat="43.9438505" lon="12.8262275"><ele>111.75</ele><time>2026-05-03T08:40:06.517Z</time></trkpt><trkpt lat="43.9437954" lon="12.826426"><ele>111.0</ele><time>2026-05-03T08:40:07.521Z</time></trkpt><trkpt lat="43.9437212" lon="12.826617"><ele>111.0</ele><time>2026-05-03T08:40:08.519Z</time></trkpt><trkpt lat="43.9436294" lon="12.826788"><ele>111.0</ele><time>2026-05-03T08:40:09.517Z</time></trkpt><trkpt lat="43.9435211" lon="12.8269448"><ele>111.0</ele><time>2026-05-03T08:40:10.512Z</time></trkpt><trkpt lat="43.9434077" lon="12.8270873"><ele>109.33333333333334</ele><time>2026-05-03T08:40:11.52Z</time></trkpt><trkpt lat="43.94329" lon="12.8272218"><ele>107.66666666666667</ele><time>2026-05-03T08:40:12.519Z</time></trkpt><trkpt lat="43.943171" lon="12.8273545"><ele>106.0</ele><time>2026-05-03T08:40:13.517Z</time></trkpt><trkpt lat="43.9430526" lon="12.8274903"><ele>106.0</ele><time>2026-05-03T08:40:14.516Z</time></trkpt><trkpt lat="43.9429279" lon="12.8276237"><ele>106.0</ele><time>2026-05-03T08:40:15.518Z</time></trkpt><trkpt lat="43.9428063" lon="12.8277669"><ele>106.0</ele><time>2026-05-03T08:40:16.516Z</time></trkpt><trkpt lat="43.942689" lon="12.8279138"><ele>108.33333333333334</ele><time>2026-05-03T08:40:17.522Z</time></trkpt><trkpt lat="43.9425794" lon="12.8280703"><ele>110.66666666666666</ele><time>2026-05-03T08:40:18.518Z</time></trkpt><trkpt lat="43.9424731" lon="12.8282308"><ele>113.0</ele><time>2026-05-03T08:40:19.517Z</time></trkpt><trkpt lat="43.942373" lon="12.8284008"><ele>109.0</ele><time>2026-05-03T08:40:20.522Z</time></trkpt><trkpt lat="43.9422786" lon="12.8285799"><ele>105.0</ele><time>2026-05-03T08:40:21.651Z</time></trkpt><trkpt lat="43.9421839" lon="12.8287665"><ele>101.0</ele><time>2026-05-03T08:40:22.518Z</time></trkpt><trkpt lat="43.9420921" lon="12.828955"><ele>101.0</ele><time>2026-05-03T08:40:23.523Z</time></trkpt><trkpt lat="43.9420036" lon="12.8291418"><ele>101.0</ele><time>2026-05-03T08:40:24.511Z</time></trkpt><trkpt lat="43.9419092" lon="12.8293309"><ele>101.0</ele><time>2026-05-03T08:40:25.517Z</time></trkpt><trkpt lat="43.9418139" lon="12.8295144"><ele>97.33333333333333</ele><time>2026-05-03T08:40:26.518Z</time></trkpt><trkpt lat="43.9417089" lon="12.8297008"><ele>93.66666666666666</ele><time>2026-05-03T08:40:27.519Z</time></trkpt><trkpt lat="43.9415902" lon="12.8298721"><ele>90.0</ele><time>2026-05-03T08:40:28.511Z</time></trkpt><trkpt lat="43.9414643" lon="12.8300297"><ele>91.66666666666667</ele><time>2026-05-03T08:40:29.515Z</time></trkpt><trkpt lat="43.9413349" lon="12.830191"><ele>93.33333333333334</ele><time>2026-05-03T08:40:30.507Z</time></trkpt><trkpt lat="43.941212" lon="12.8303479"><ele>95.0</ele><time>2026-05-03T08:40:31.518Z</time></trkpt><trkpt lat="43.9410873" lon="12.830499"><ele>95.0</ele><time>2026-05-03T08:40:32.508Z</time></trkpt><trkpt lat="43.9409663" lon="12.8306525"><ele>95.0</ele><time>2026-05-03T08:40:33.517Z</time></trkpt><trkpt lat="43.9408421" lon="12.8308099"><ele>95.0</ele><time>2026-05-03T08:40:34.522Z</time></trkpt><trkpt lat="43.9407085" lon="12.8309737"><ele>93.0</ele><time>2026-05-03T08:40:35.522Z</time></trkpt><trkpt lat="43.9405693" lon="12.8311435"><ele>91.0</ele><time>2026-05-03T08:40:36.519Z</time></trkpt><trkpt lat="43.9404294" lon="12.8313222"><ele>89.0</ele><time>2026-05-03T08:40:37.519Z</time></trkpt><trkpt lat="43.9402875" lon="12.8315009"><ele>89.0</ele><time>2026-05-03T08:40:38.522Z</time></trkpt><trkpt lat="43.9401429" lon="12.831675"><ele>89.0</ele><time>2026-05-03T08:40:39.518Z</time></trkpt><trkpt lat="43.9399958" lon="12.8318578"><ele>89.0</ele><time>2026-05-03T08:40:40.518Z</time></trkpt><trkpt lat="43.9398546" lon="12.8320372"><ele>86.66666666666667</ele><time>2026-05-03T08:40:41.517Z</time></trkpt><trkpt lat="43.9397127" lon="12.8322194"><ele>84.33333333333333</ele><time>2026-05-03T08:40:42.52Z</time></trkpt><trkpt lat="43.9395663" lon="12.8323919"><ele>82.0</ele><time>2026-05-03T08:40:43.508Z</time></trkpt><trkpt lat="43.9394185" lon="12.8325671"><ele>83.66666666666666</ele><time>2026-05-03T08:40:44.519Z</time></trkpt><trkpt lat="43.9392714" lon="12.8327445"><ele>85.33333333333333</ele><time>2026-05-03T08:40:45.517Z</time></trkpt><trkpt lat="43.9391186" lon="12.8329202"><ele>87.0</ele><time>2026-05-03T08:40:46.511Z</time></trkpt><trkpt lat="43.9389682" lon="12.8330902"><ele>81.33333333333333</ele><time>2026-05-03T08:40:47.517Z</time></trkpt><trkpt lat="43.9388294" lon="12.8332549"><ele>75.66666666666666</ele><time>2026-05-03T08:40:48.513Z</time></trkpt><trkpt lat="43.9386921" lon="12.8334155"><ele>70.0</ele><time>2026-05-03T08:40:49.508Z</time></trkpt><trkpt lat="43.9385563" lon="12.8335698"><ele>69.66666666666666</ele><time>2026-05-03T08:40:50.514Z</time></trkpt><trkpt lat="43.9384211" lon="12.8337216"><ele>69.33333333333333</ele><time>2026-05-03T08:40:51.516Z</time></trkpt><trkpt lat="43.9382878" lon="12.8338793"><ele>69.0</ele><time>2026-05-03T08:40:52.518Z</time></trkpt><trkpt lat="43.9381562" lon="12.8340342"><ele>67.0</ele><time>2026-05-03T08:40:53.511Z</time></trkpt><trkpt lat="43.9380295" lon="12.8341855"><ele>65.0</ele><time>2026-05-03T08:40:54.518Z</time></trkpt><trkpt lat="43.9378988" lon="12.8343327"><ele>63.0</ele><time>2026-05-03T08:40:55.512Z</time></trkpt><trkpt lat="43.9377666" lon="12.8344836"><ele>63.0</ele><time>2026-05-03T08:40:56.517Z</time></trkpt><trkpt lat="43.9376327" lon="12.8346336"><ele>63.0</ele><time>2026-05-03T08:40:57.516Z</time></trkpt><trkpt lat="43.9374955" lon="12.83479"><ele>63.0</ele><time>2026-05-03T08:40:58.52Z</time></trkpt><trkpt lat="43.9373561" lon="12.8349473"><ele>62.66666666666667</ele><time>2026-05-03T08:40:59.518Z</time></trkpt><trkpt lat="43.9372139" lon="12.8351111"><ele>62.333333333333336</ele><time>2026-05-03T08:41:00.517Z</time></trkpt><trkpt lat="43.9370695" lon="12.8352808"><ele>62.0</ele><time>2026-05-03T08:41:01.516Z</time></trkpt><trkpt lat="43.9369222" lon="12.8354536"><ele>61.66666666666667</ele><time>2026-05-03T08:41:02.521Z</time></trkpt><trkpt lat="43.9367762" lon="12.8356341"><ele>61.33333333333333</ele><time>2026-05-03T08:41:03.522Z</time></trkpt><trkpt lat="43.9366227" lon="12.8358144"><ele>61.0</ele><time>2026-05-03T08:41:04.514Z</time></trkpt><trkpt lat="43.93648" lon="12.8360073"><ele>63.0</ele><time>2026-05-03T08:41:05.521Z</time></trkpt><trkpt lat="43.9363418" lon="12.8362102"><ele>65.0</ele><time>2026-05-03T08:41:06.514Z</time></trkpt><trkpt lat="43.9362129" lon="12.8364237"><ele>67.0</ele><time>2026-05-03T08:41:07.521Z</time></trkpt><trkpt lat="43.936097" lon="12.8366567"><ele>68.66666666666666</ele><time>2026-05-03T08:41:08.51Z</time></trkpt><trkpt lat="43.9359864" lon="12.8368953"><ele>70.33333333333333</ele><time>2026-05-03T08:41:09.522Z</time></trkpt><trkpt lat="43.9358874" lon="12.8371438"><ele>72.0</ele><time>2026-05-03T08:41:10.509Z</time></trkpt><trkpt lat="43.9358028" lon="12.8374021"><ele>67.0</ele><time>2026-05-03T08:41:11.518Z</time></trkpt><trkpt lat="43.9357248" lon="12.837663"><ele>62.0</ele><time>2026-05-03T08:41:12.523Z</time></trkpt><trkpt lat="43.9356553" lon="12.8379319"><ele>57.0</ele><time>2026-05-03T08:41:13.518Z</time></trkpt><trkpt lat="43.935592" lon="12.838202"><ele>55.66666666666667</ele><time>2026-05-03T08:41:14.517Z</time></trkpt><trkpt lat="43.9355334" lon="12.8384731"><ele>54.333333333333336</ele><time>2026-05-03T08:41:15.521Z</time></trkpt><trkpt lat="43.9354769" lon="12.8387476"><ele>53.0</ele><time>2026-05-03T08:41:16.518Z</time></trkpt><trkpt lat="43.9354225" lon="12.8390218"><ele>53.0</ele><time>2026-05-03T08:41:17.526Z</time></trkpt><trkpt lat="43.9353705" lon="12.8392966"><ele>53.0</ele><time>2026-05-03T08:41:18.522Z</time></trkpt><trkpt lat="43.9353133" lon="12.8395666"><ele>53.0</ele><time>2026-05-03T08:41:19.512Z</time></trkpt><trkpt lat="43.935253" lon="12.8398365"><ele>53.66666666666667</ele><time>2026-05-03T08:41:20.519Z</time></trkpt><trkpt lat="43.9351811" lon="12.8400972"><ele>54.33333333333333</ele><time>2026-05-03T08:41:21.518Z</time></trkpt><trkpt lat="43.9351082" lon="12.8403579"><ele>55.0</ele><time>2026-05-03T08:41:22.525Z</time></trkpt><trkpt lat="43.9350301" lon="12.8406081"><ele>52.666666666666664</ele><time>2026-05-03T08:41:23.526Z</time></trkpt><trkpt lat="43.9349516" lon="12.8408604"><ele>50.33333333333333</ele><time>2026-05-03T08:41:24.52Z</time></trkpt><trkpt lat="43.9348689" lon="12.84111"><ele>48.0</ele><time>2026-05-03T08:41:25.518Z</time></trkpt><trkpt lat="43.9347851" lon="12.8413585"><ele>47.666666666666664</ele><time>2026-05-03T08:41:26.527Z</time></trkpt><trkpt lat="43.9346966" lon="12.8416031"><ele>47.33333333333333</ele><time>2026-05-03T08:41:27.524Z</time></trkpt><trkpt lat="43.9346069" lon="12.8418397"><ele>47.0</ele><time>2026-05-03T08:41:28.523Z</time></trkpt><trkpt lat="43.9345168" lon="12.8420772"><ele>46.0</ele><time>2026-05-03T08:41:29.519Z</time></trkpt><trkpt lat="43.9344179" lon="12.8423073"><ele>45.0</ele><time>2026-05-03T08:41:30.518Z</time></trkpt><trkpt lat="43.9343093" lon="12.8425308"><ele>44.0</ele><time>2026-05-03T08:41:31.521Z</time></trkpt><trkpt lat="43.9341921" lon="12.8427417"><ele>43.666666666666664</ele><time>2026-05-03T08:41:32.524Z</time></trkpt><trkpt lat="43.9340621" lon="12.8429364"><ele>43.333333333333336</ele><time>2026-05-03T08:41:33.518Z</time></trkpt><trkpt lat="43.9339262" lon="12.8431201"><ele>43.0</ele><time>2026-05-03T08:41:34.525Z</time></trkpt><trkpt lat="43.9337877" lon="12.8432969"><ele>46.0</ele><time>2026-05-03T08:41:35.523Z</time></trkpt><trkpt lat="43.9336506" lon="12.8434779"><ele>49.0</ele><time>2026-05-03T08:41:36.515Z</time></trkpt><trkpt lat="43.9335181" lon="12.8436605"><ele>52.0</ele><time>2026-05-03T08:41:37.519Z</time></trkpt><trkpt lat="43.9333908" lon="12.8438467"><ele>50.666666666666664</ele><time>2026-05-03T08:41:38.512Z</time></trkpt><trkpt lat="43.9332622" lon="12.8440368"><ele>49.33333333333333</ele><time>2026-05-03T08:41:39.522Z</time></trkpt><trkpt lat="43.9331355" lon="12.8442271"><ele>48.0</ele><time>2026-05-03T08:41:40.514Z</time></trkpt><trkpt lat="43.9330147" lon="12.8444217"><ele>48.0</ele><time>2026-05-03T08:41:41.519Z</time></trkpt><trkpt lat="43.9328979" lon="12.8446232"><ele>48.0</ele><time>2026-05-03T08:41:42.519Z</time></trkpt><trkpt lat="43.9327851" lon="12.8448286"><ele>48.0</ele><time>2026-05-03T08:41:43.523Z</time></trkpt><trkpt lat="43.9326791" lon="12.8450365"><ele>46.666666666666664</ele><time>2026-05-03T08:41:44.523Z</time></trkpt><trkpt lat="43.93257" lon="12.8452536"><ele>45.33333333333333</ele><time>2026-05-03T08:41:45.521Z</time></trkpt><trkpt lat="43.9324622" lon="12.8454731"><ele>44.0</ele><time>2026-05-03T08:41:46.519Z</time></trkpt><trkpt lat="43.9323558" lon="12.8456909"><ele>42.666666666666664</ele><time>2026-05-03T08:41:47.518Z</time></trkpt><trkpt lat="43.9322431" lon="12.8459002"><ele>41.333333333333336</ele><time>2026-05-03T08:41:48.522Z</time></trkpt><trkpt lat="43.9321323" lon="12.8461136"><ele>40.0</ele><time>2026-05-03T08:41:49.509Z</time></trkpt><trkpt lat="43.9320193" lon="12.8463285"><ele>40.0</ele><time>2026-05-03T08:41:50.519Z</time></trkpt><trkpt lat="43.931903" lon="12.8465393"><ele>40.0</ele><time>2026-05-03T08:41:51.519Z</time></trkpt><trkpt lat="43.9317819" lon="12.8467479"><ele>40.0</ele><time>2026-05-03T08:41:52.523Z</time></trkpt><trkpt lat="43.9316557" lon="12.8469514"><ele>40.0</ele><time>2026-05-03T08:41:53.519Z</time></trkpt><trkpt lat="43.9315234" lon="12.8471593"><ele>40.0</ele><time>2026-05-03T08:41:54.52Z</time></trkpt><trkpt lat="43.9313892" lon="12.8473577"><ele>40.0</ele><time>2026-05-03T08:41:55.518Z</time></trkpt><trkpt lat="43.931251" lon="12.8475518"><ele>41.0</ele><time>2026-05-03T08:41:56.518Z</time></trkpt><trkpt lat="43.9311091" lon="12.8477441"><ele>42.0</ele><time>2026-05-03T08:41:57.522Z</time></trkpt><trkpt lat="43.9309629" lon="12.8479374"><ele>43.0</ele><time>2026-05-03T08:41:58.518Z</time></trkpt><trkpt lat="43.9308145" lon="12.8481266"><ele>42.66666666666667</ele><time>2026-05-03T08:41:59.508Z</time></trkpt><trkpt lat="43.9306647" lon="12.8483123"><ele>42.333333333333336</ele><time>2026-05-03T08:42:00.517Z</time></trkpt><trkpt lat="43.9305151" lon="12.8484866"><ele>42.0</ele><time>2026-05-03T08:42:01.511Z</time></trkpt><trkpt lat="43.9303675" lon="12.8486615"><ele>42.0</ele><time>2026-05-03T08:42:02.518Z</time></trkpt><trkpt lat="43.9302257" lon="12.8488494"><ele>42.0</ele><time>2026-05-03T08:42:03.518Z</time></trkpt><trkpt lat="43.930082" lon="12.8490204"><ele>42.0</ele><time>2026-05-03T08:42:04.516Z</time></trkpt><trkpt lat="43.9299408" lon="12.8491863"><ele>40.666666666666664</ele><time>2026-05-03T08:42:05.514Z</time></trkpt><trkpt lat="43.9298" lon="12.8493501"><ele>39.33333333333333</ele><time>2026-05-03T08:42:06.518Z</time></trkpt><trkpt lat="43.9296575" lon="12.8495188"><ele>38.0</ele><time>2026-05-03T08:42:07.52Z</time></trkpt><trkpt lat="43.9295237" lon="12.8496842"><ele>38.0</ele><time>2026-05-03T08:42:08.515Z</time></trkpt><trkpt lat="43.9293916" lon="12.8498457"><ele>38.0</ele><time>2026-05-03T08:42:09.518Z</time></trkpt><trkpt lat="43.9292589" lon="12.8500111"><ele>38.0</ele><time>2026-05-03T08:42:10.518Z</time></trkpt><trkpt lat="43.9291231" lon="12.8501759"><ele>37.0</ele><time>2026-05-03T08:42:11.518Z</time></trkpt><trkpt lat="43.9289901" lon="12.8503384"><ele>36.0</ele><time>2026-05-03T08:42:12.52Z</time></trkpt><trkpt lat="43.9288519" lon="12.850505"><ele>35.0</ele><time>2026-05-03T08:42:13.51Z</time></trkpt><trkpt lat="43.9287154" lon="12.8506716"><ele>35.0</ele><time>2026-05-03T08:42:14.522Z</time></trkpt><trkpt lat="43.9285722" lon="12.8508389"><ele>35.0</ele><time>2026-05-03T08:42:15.517Z</time></trkpt><trkpt lat="43.9284249" lon="12.8510104"><ele>35.0</ele><time>2026-05-03T08:42:16.518Z</time></trkpt><trkpt lat="43.9282848" lon="12.8511849"><ele>35.33333333333333</ele><time>2026-05-03T08:42:17.518Z</time></trkpt><trkpt lat="43.9281465" lon="12.8513538"><ele>35.666666666666664</ele><time>2026-05-03T08:42:18.52Z</time></trkpt><trkpt lat="43.9280064" lon="12.8515299"><ele>36.0</ele><time>2026-05-03T08:42:19.518Z</time></trkpt><trkpt lat="43.9278648" lon="12.8517018"><ele>36.666666666666664</ele><time>2026-05-03T08:42:20.509Z</time></trkpt><trkpt lat="43.9277199" lon="12.8518779"><ele>37.33333333333333</ele><time>2026-05-03T08:42:21.521Z</time></trkpt><trkpt lat="43.9275735" lon="12.8520419"><ele>38.0</ele><time>2026-05-03T08:42:22.52Z</time></trkpt><trkpt lat="43.927422" lon="12.8522106"><ele>36.666666666666664</ele><time>2026-05-03T08:42:23.518Z</time></trkpt><trkpt lat="43.92727" lon="12.8523728"><ele>35.333333333333336</ele><time>2026-05-03T08:42:24.519Z</time></trkpt><trkpt lat="43.9271137" lon="12.8525294"><ele>34.0</ele><time>2026-05-03T08:42:25.515Z</time></trkpt><trkpt lat="43.9269515" lon="12.8526866"><ele>34.0</ele><time>2026-05-03T08:42:26.509Z</time></trkpt><trkpt lat="43.9267911" lon="12.8528455"><ele>34.0</ele><time>2026-05-03T08:42:27.519Z</time></trkpt><trkpt lat="43.9266299" lon="12.853004"><ele>34.0</ele><time>2026-05-03T08:42:28.517Z</time></trkpt><trkpt lat="43.926465" lon="12.8531565"><ele>33.0</ele><time>2026-05-03T08:42:29.509Z</time></trkpt><trkpt lat="43.926312" lon="12.853297"><ele>32.0</ele><time>2026-05-03T08:42:30.523Z</time></trkpt><trkpt lat="43.9261629" lon="12.8534343"><ele>31.0</ele><time>2026-05-03T08:42:31.509Z</time></trkpt><trkpt lat="43.9260239" lon="12.8535617"><ele>31.75</ele><time>2026-05-03T08:42:32.521Z</time></trkpt><trkpt lat="43.9258929" lon="12.8536788"><ele>32.5</ele><time>2026-05-03T08:42:33.519Z</time></trkpt><trkpt lat="43.9257756" lon="12.8537905"><ele>33.25</ele><time>2026-05-03T08:42:34.517Z</time></trkpt><trkpt lat="43.9256622" lon="12.8538977"><ele>34.0</ele><time>2026-05-03T08:42:35.507Z</time></trkpt><trkpt lat="43.9255511" lon="12.8539933"><ele>34.0</ele><time>2026-05-03T08:42:36.524Z</time></trkpt><trkpt lat="43.9254477" lon="12.8540825"><ele>34.0</ele><time>2026-05-03T08:42:37.52Z</time></trkpt><trkpt lat="43.9253495" lon="12.8541677"><ele>34.0</ele><time>2026-05-03T08:42:38.518Z</time></trkpt><trkpt lat="43.9252556" lon="12.8542522"><ele>34.0</ele><time>2026-05-03T08:42:39.516Z</time></trkpt><trkpt lat="43.9251608" lon="12.8543295"><ele>34.2</ele><time>2026-05-03T08:42:40.513Z</time></trkpt><trkpt lat="43.9250712" lon="12.8544115"><ele>34.4</ele><time>2026-05-03T08:42:41.514Z</time></trkpt><trkpt lat="43.9249802" lon="12.8544941"><ele>34.6</ele><time>2026-05-03T08:42:42.518Z</time></trkpt><trkpt lat="43.9248851" lon="12.8545763"><ele>34.8</ele><time>2026-05-03T08:42:43.519Z</time></trkpt><trkpt lat="43.9247935" lon="12.8546624"><ele>35.0</ele><time>2026-05-03T08:42:44.512Z</time></trkpt><trkpt lat="43.924693" lon="12.8547601"><ele>35.75</ele><time>2026-05-03T08:42:45.514Z</time></trkpt><trkpt lat="43.9245828" lon="12.8548684"><ele>36.5</ele><time>2026-05-03T08:42:46.518Z</time></trkpt><trkpt lat="43.9244744" lon="12.8549714"><ele>37.25</ele><time>2026-05-03T08:42:47.515Z</time></trkpt><trkpt lat="43.9243689" lon="12.8550724"><ele>38.0</ele><time>2026-05-03T08:42:48.52Z</time></trkpt><trkpt lat="43.9242359" lon="12.8551761"><ele>37.0</ele><time>2026-05-03T08:42:49.524Z</time></trkpt><trkpt lat="43.9241147" lon="12.8552906"><ele>36.0</ele><time>2026-05-03T08:42:50.518Z</time></trkpt><trkpt lat="43.9240029" lon="12.855385"><ele>35.0</ele><time>2026-05-03T08:42:51.519Z</time></trkpt><trkpt lat="43.9238848" lon="12.8554848"><ele>34.0</ele><time>2026-05-03T08:42:52.527Z</time></trkpt><trkpt lat="43.9237697" lon="12.855591"><ele>34.0</ele><time>2026-05-03T08:42:53.519Z</time></trkpt><trkpt lat="43.9236589" lon="12.8556968"><ele>34.0</ele><time>2026-05-03T08:42:54.519Z</time></trkpt><trkpt lat="43.9235496" lon="12.8557978"><ele>34.0</ele><time>2026-05-03T08:42:55.511Z</time></trkpt><trkpt lat="43.9234325" lon="12.855912"><ele>34.0</ele><time>2026-05-03T08:42:56.519Z</time></trkpt><trkpt lat="43.9233028" lon="12.8560308"><ele>33.5</ele><time>2026-05-03T08:42:57.519Z</time></trkpt><trkpt lat="43.9231805" lon="12.856148"><ele>33.0</ele><time>2026-05-03T08:42:58.517Z</time></trkpt><trkpt lat="43.9230698" lon="12.8562496"><ele>32.5</ele><time>2026-05-03T08:42:59.518Z</time></trkpt><trkpt lat="43.9229614" lon="12.8563541"><ele>32.0</ele><time>2026-05-03T08:43:00.518Z</time></trkpt><trkpt lat="43.9228472" lon="12.8564639"><ele>32.0</ele><time>2026-05-03T08:43:01.513Z</time></trkpt><trkpt lat="43.9227313" lon="12.8565762"><ele>32.0</ele><time>2026-05-03T08:43:02.514Z</time></trkpt><trkpt lat="43.9226158" lon="12.8566805"><ele>32.0</ele><time>2026-05-03T08:43:03.517Z</time></trkpt><trkpt lat="43.9224995" lon="12.8567885"><ele>32.0</ele><time>2026-05-03T08:43:04.512Z</time></trkpt><trkpt lat="43.9223858" lon="12.8568873"><ele>32.0</ele><time>2026-05-03T08:43:05.511Z</time></trkpt><trkpt lat="43.9222725" lon="12.8569894"><ele>32.0</ele><time>2026-05-03T08:43:06.519Z</time></trkpt><trkpt lat="43.9221556" lon="12.8570949"><ele>32.0</ele><time>2026-05-03T08:43:07.525Z</time></trkpt><trkpt lat="43.922037" lon="12.8571998"><ele>32.0</ele><time>2026-05-03T08:43:08.511Z</time></trkpt><trkpt lat="43.921939" lon="12.8572944"><ele>32.0</ele><time>2026-05-03T08:43:09.519Z</time></trkpt><trkpt lat="43.9218366" lon="12.8573911"><ele>32.0</ele><time>2026-05-03T08:43:10.515Z</time></trkpt><trkpt lat="43.9217307" lon="12.8574907"><ele>32.0</ele><time>2026-05-03T08:43:11.514Z</time></trkpt><trkpt lat="43.9216252" lon="12.857587"><ele>32.0</ele><time>2026-05-03T08:43:12.526Z</time></trkpt><trkpt lat="43.9215201" lon="12.8576884"><ele>33.5</ele><time>2026-05-03T08:43:13.516Z</time></trkpt><trkpt lat="43.9214075" lon="12.8577954"><ele>35.0</ele><time>2026-05-03T08:43:14.52Z</time></trkpt><trkpt lat="43.9213003" lon="12.8578983"><ele>36.5</ele><time>2026-05-03T08:43:15.518Z</time></trkpt><trkpt lat="43.9211926" lon="12.8579962"><ele>38.0</ele><time>2026-05-03T08:43:16.518Z</time></trkpt><trkpt lat="43.9210888" lon="12.8580898"><ele>38.0</ele><time>2026-05-03T08:43:17.519Z</time></trkpt><trkpt lat="43.920987" lon="12.8581849"><ele>38.0</ele><time>2026-05-03T08:43:18.522Z</time></trkpt><trkpt lat="43.9208837" lon="12.8582821"><ele>38.0</ele><time>2026-05-03T08:43:19.509Z</time></trkpt><trkpt lat="43.9207855" lon="12.8583783"><ele>38.0</ele><time>2026-05-03T08:43:20.516Z</time></trkpt><trkpt lat="43.9206837" lon="12.8584719"><ele>38.0</ele><time>2026-05-03T08:43:21.52Z</time></trkpt><trkpt lat="43.9205831" lon="12.8585632"><ele>38.0</ele><time>2026-05-03T08:43:22.522Z</time></trkpt><trkpt lat="43.9204836" lon="12.8586547"><ele>38.0</ele><time>2026-05-03T08:43:23.514Z</time></trkpt><trkpt lat="43.9203829" lon="12.8587401"><ele>38.0</ele><time>2026-05-03T08:43:24.518Z</time></trkpt><trkpt lat="43.920285" lon="12.8588353"><ele>38.0</ele><time>2026-05-03T08:43:25.516Z</time></trkpt><trkpt lat="43.9201898" lon="12.8589276"><ele>38.0</ele><time>2026-05-03T08:43:26.518Z</time></trkpt><trkpt lat="43.9200896" lon="12.8590255"><ele>38.0</ele><time>2026-05-03T08:43:27.524Z</time></trkpt><trkpt lat="43.9200026" lon="12.8591047"><ele>38.0</ele><time>2026-05-03T08:43:28.517Z</time></trkpt><trkpt lat="43.9199137" lon="12.8591852"><ele>38.0</ele><time>2026-05-03T08:43:29.518Z</time></trkpt><trkpt lat="43.9198257" lon="12.8592669"><ele>38.0</ele><time>2026-05-03T08:43:30.521Z</time></trkpt><trkpt lat="43.9197317" lon="12.8593701"><ele>38.0</ele><time>2026-05-03T08:43:31.518Z</time></trkpt><trkpt lat="43.9196497" lon="12.8594639"><ele>38.0</ele><time>2026-05-03T08:43:32.518Z</time></trkpt><trkpt lat="43.9195612" lon="12.8595621"><ele>38.0</ele><time>2026-05-03T08:43:33.518Z</time></trkpt><trkpt lat="43.9194898" lon="12.8596391"><ele>38.0</ele><time>2026-05-03T08:43:34.518Z</time></trkpt><trkpt lat="43.9194237" lon="12.8597118"><ele>38.0</ele><time>2026-05-03T08:43:35.509Z</time></trkpt><trkpt lat="43.9193588" lon="12.8597846"><ele>38.0</ele><time>2026-05-03T08:43:36.52Z</time></trkpt><trkpt lat="43.9192962" lon="12.8598587"><ele>38.0</ele><time>2026-05-03T08:43:37.52Z</time></trkpt><trkpt lat="43.9192267" lon="12.8599337"><ele>38.0</ele><time>2026-05-03T08:43:38.518Z</time></trkpt><trkpt lat="43.9191554" lon="12.860015"><ele>38.0</ele><time>2026-05-03T08:43:39.513Z</time></trkpt><trkpt lat="43.9190838" lon="12.8601047"><ele>38.0</ele><time>2026-05-03T08:43:40.517Z</time></trkpt><trkpt lat="43.9190066" lon="12.8601899"><ele>38.4</ele><time>2026-05-03T08:43:41.518Z</time></trkpt><trkpt lat="43.9189358" lon="12.8602762"><ele>38.8</ele><time>2026-05-03T08:43:42.518Z</time></trkpt><trkpt lat="43.9188719" lon="12.8603542"><ele>39.2</ele><time>2026-05-03T08:43:43.511Z</time></trkpt><trkpt lat="43.9187996" lon="12.8604311"><ele>39.6</ele><time>2026-05-03T08:43:44.515Z</time></trkpt><trkpt lat="43.9187117" lon="12.8605138"><ele>40.0</ele><time>2026-05-03T08:43:45.516Z</time></trkpt><trkpt lat="43.9186259" lon="12.8606083"><ele>40.0</ele><time>2026-05-03T08:43:46.518Z</time></trkpt><trkpt lat="43.918543" lon="12.8607004"><ele>40.0</ele><time>2026-05-03T08:43:47.517Z</time></trkpt><trkpt lat="43.9184591" lon="12.8608057"><ele>40.0</ele><time>2026-05-03T08:43:48.52Z</time></trkpt><trkpt lat="43.9183745" lon="12.8609136"><ele>40.0</ele><time>2026-05-03T08:43:49.518Z</time></trkpt><trkpt lat="43.918285" lon="12.8610224"><ele>39.5</ele><time>2026-05-03T08:43:50.517Z</time></trkpt><trkpt lat="43.9181934" lon="12.8611328"><ele>39.0</ele><time>2026-05-03T08:43:51.515Z</time></trkpt><trkpt lat="43.9181021" lon="12.8612473"><ele>38.5</ele><time>2026-05-03T08:43:52.519Z</time></trkpt><trkpt lat="43.9180114" lon="12.8613547"><ele>38.0</ele><time>2026-05-03T08:43:53.517Z</time></trkpt><trkpt lat="43.9179286" lon="12.8614523"><ele>38.0</ele><time>2026-05-03T08:43:54.522Z</time></trkpt><trkpt lat="43.9178503" lon="12.8615411"><ele>38.0</ele><time>2026-05-03T08:43:55.511Z</time></trkpt><trkpt lat="43.9177788" lon="12.8616258"><ele>38.0</ele><time>2026-05-03T08:43:56.518Z</time></trkpt><trkpt lat="43.9177055" lon="12.8617013"><ele>38.0</ele><time>2026-05-03T08:43:57.512Z</time></trkpt><trkpt lat="43.9176423" lon="12.8617868"><ele>38.0</ele><time>2026-05-03T08:43:58.517Z</time></trkpt><trkpt lat="43.9175759" lon="12.8618576"><ele>37.0</ele><time>2026-05-03T08:43:59.518Z</time></trkpt><trkpt lat="43.917514" lon="12.8619341"><ele>36.0</ele><time>2026-05-03T08:44:00.518Z</time></trkpt><trkpt lat="43.9174541" lon="12.862015"><ele>35.0</ele><time>2026-05-03T08:44:01.516Z</time></trkpt><trkpt lat="43.9173901" lon="12.8620943"><ele>34.0</ele><time>2026-05-03T08:44:02.511Z</time></trkpt><trkpt lat="43.9173278" lon="12.8621745"><ele>33.0</ele><time>2026-05-03T08:44:03.518Z</time></trkpt><trkpt lat="43.9172622" lon="12.8622858"><ele>32.0</ele><time>2026-05-03T08:44:04.519Z</time></trkpt><trkpt lat="43.9171911" lon="12.8623987"><ele>32.0</ele><time>2026-05-03T08:44:05.519Z</time></trkpt><trkpt lat="43.9171119" lon="12.8625195"><ele>32.0</ele><time>2026-05-03T08:44:06.518Z</time></trkpt><trkpt lat="43.9170343" lon="12.8626483"><ele>32.0</ele><time>2026-05-03T08:44:07.519Z</time></trkpt><trkpt lat="43.9169519" lon="12.8627875"><ele>32.0</ele><time>2026-05-03T08:44:08.514Z</time></trkpt><trkpt lat="43.9168678" lon="12.8629224"><ele>32.75</ele><time>2026-05-03T08:44:09.516Z</time></trkpt><trkpt lat="43.9167866" lon="12.8630522"><ele>33.5</ele><time>2026-05-03T08:44:10.515Z</time></trkpt><trkpt lat="43.9166996" lon="12.8631871"><ele>34.25</ele><time>2026-05-03T08:44:11.516Z</time></trkpt><trkpt lat="43.9166153" lon="12.8633228"><ele>35.0</ele><time>2026-05-03T08:44:12.517Z</time></trkpt><trkpt lat="43.9165291" lon="12.8634504"><ele>35.0</ele><time>2026-05-03T08:44:13.513Z</time></trkpt><trkpt lat="43.9164405" lon="12.8635771"><ele>35.0</ele><time>2026-05-03T08:44:14.517Z</time></trkpt><trkpt lat="43.916348" lon="12.8637015"><ele>35.0</ele><time>2026-05-03T08:44:15.52Z</time></trkpt><trkpt lat="43.9162574" lon="12.8638311"><ele>35.0</ele><time>2026-05-03T08:44:16.517Z</time></trkpt><trkpt lat="43.9161551" lon="12.863926"><ele>35.0</ele><time>2026-05-03T08:44:17.517Z</time></trkpt><trkpt lat="43.9160671" lon="12.8640322"><ele>35.0</ele><time>2026-05-03T08:44:18.516Z</time></trkpt><trkpt lat="43.9159641" lon="12.8641518"><ele>35.0</ele><time>2026-05-03T08:44:19.518Z</time></trkpt><trkpt lat="43.9158674" lon="12.8642674"><ele>35.0</ele><time>2026-05-03T08:44:20.518Z</time></trkpt><trkpt lat="43.9157669" lon="12.8643896"><ele>34.5</ele><time>2026-05-03T08:44:21.515Z</time></trkpt><trkpt lat="43.9156856" lon="12.8645252"><ele>34.0</ele><time>2026-05-03T08:44:22.516Z</time></trkpt><trkpt lat="43.9155947" lon="12.8646656"><ele>33.5</ele><time>2026-05-03T08:44:23.517Z</time></trkpt><trkpt lat="43.9155086" lon="12.8648087"><ele>33.0</ele><time>2026-05-03T08:44:24.519Z</time></trkpt><trkpt lat="43.9154267" lon="12.8649739"><ele>34.25</ele><time>2026-05-03T08:44:25.512Z</time></trkpt><trkpt lat="43.9153414" lon="12.8651351"><ele>35.5</ele><time>2026-05-03T08:44:26.51Z</time></trkpt><trkpt lat="43.9152542" lon="12.8653062"><ele>36.75</ele><time>2026-05-03T08:44:27.519Z</time></trkpt><trkpt lat="43.9151716" lon="12.8654787"><ele>38.0</ele><time>2026-05-03T08:44:28.518Z</time></trkpt><trkpt lat="43.9150937" lon="12.8656652"><ele>35.666666666666664</ele><time>2026-05-03T08:44:29.518Z</time></trkpt><trkpt lat="43.915012" lon="12.865853"><ele>33.333333333333336</ele><time>2026-05-03T08:44:30.517Z</time></trkpt><trkpt lat="43.9149336" lon="12.8660351"><ele>31.0</ele><time>2026-05-03T08:44:31.516Z</time></trkpt><trkpt lat="43.9148492" lon="12.8662198"><ele>31.0</ele><time>2026-05-03T08:44:32.522Z</time></trkpt><trkpt lat="43.9147674" lon="12.8663852"><ele>31.0</ele><time>2026-05-03T08:44:33.517Z</time></trkpt><trkpt lat="43.9146776" lon="12.8665723"><ele>31.0</ele><time>2026-05-03T08:44:34.516Z</time></trkpt><trkpt lat="43.9146044" lon="12.8667261"><ele>31.0</ele><time>2026-05-03T08:44:35.516Z</time></trkpt><trkpt lat="43.9145191" lon="12.866892"><ele>31.75</ele><time>2026-05-03T08:44:36.519Z</time></trkpt><trkpt lat="43.9144526" lon="12.8670374"><ele>32.5</ele><time>2026-05-03T08:44:37.514Z</time></trkpt><trkpt lat="43.9143897" lon="12.8671855"><ele>33.25</ele><time>2026-05-03T08:44:38.516Z</time></trkpt><trkpt lat="43.9143201" lon="12.8673226"><ele>34.0</ele><time>2026-05-03T08:44:39.519Z</time></trkpt><trkpt lat="43.9142542" lon="12.8674722"><ele>32.5</ele><time>2026-05-03T08:44:40.519Z</time></trkpt><trkpt lat="43.9141901" lon="12.8676233"><ele>31.0</ele><time>2026-05-03T08:44:41.518Z</time></trkpt><trkpt lat="43.9141207" lon="12.8677637"><ele>29.5</ele><time>2026-05-03T08:44:42.522Z</time></trkpt><trkpt lat="43.9140667" lon="12.867909"><ele>28.0</ele><time>2026-05-03T08:44:43.518Z</time></trkpt><trkpt lat="43.9140031" lon="12.8680417"><ele>28.0</ele><time>2026-05-03T08:44:44.511Z</time></trkpt><trkpt lat="43.9139388" lon="12.8681817"><ele>27.999999999999996</ele><time>2026-05-03T08:44:45.518Z</time></trkpt><trkpt lat="43.9138738" lon="12.8683251"><ele>27.999999999999996</ele><time>2026-05-03T08:44:46.522Z</time></trkpt><trkpt lat="43.9138207" lon="12.8684515"><ele>28.0</ele><time>2026-05-03T08:44:47.518Z</time></trkpt><trkpt lat="43.9137685" lon="12.8685659"><ele>28.0</ele><time>2026-05-03T08:44:48.519Z</time></trkpt><trkpt lat="43.9137179" lon="12.8686747"><ele>28.000000000000004</ele><time>2026-05-03T08:44:49.517Z</time></trkpt><trkpt lat="43.9136703" lon="12.8687911"><ele>28.0</ele><time>2026-05-03T08:44:50.51Z</time></trkpt><trkpt lat="43.9136231" lon="12.8688984"><ele>28.0</ele><time>2026-05-03T08:44:51.518Z</time></trkpt><trkpt lat="43.9135745" lon="12.8689963"><ele>28.0</ele><time>2026-05-03T08:44:52.521Z</time></trkpt><trkpt lat="43.9135338" lon="12.8690826"><ele>28.000000000000004</ele><time>2026-05-03T08:44:53.51Z</time></trkpt><trkpt lat="43.9134927" lon="12.8691553"><ele>28.0</ele><time>2026-05-03T08:44:54.518Z</time></trkpt><trkpt lat="43.9133943" lon="12.8692472"><ele>28.0</ele><time>2026-05-03T08:44:56.515Z</time></trkpt><trkpt lat="43.9133306" lon="12.8692577"><ele>27.999999999999996</ele><time>2026-05-03T08:44:57.519Z</time></trkpt><trkpt lat="43.9132137" lon="12.8693027"><ele>27.999999999999996</ele><time>2026-05-03T08:44:59.518Z</time></trkpt><trkpt lat="43.9131597" lon="12.8694424"><ele>28.0</ele><time>2026-05-03T08:45:01.518Z</time></trkpt><trkpt lat="43.9131606" lon="12.86962"><ele>28.0</ele><time>2026-05-03T08:45:03.52Z</time></trkpt><trkpt lat="43.9131547" lon="12.8697203"><ele>29.0</ele><time>2026-05-03T08:45:04.517Z</time></trkpt><trkpt lat="43.9131456" lon="12.8698303"><ele>29.999999999999996</ele><time>2026-05-03T08:45:05.522Z</time></trkpt><trkpt lat="43.9131183" lon="12.8699476"><ele>30.999999999999996</ele><time>2026-05-03T08:45:06.52Z</time></trkpt><trkpt lat="43.9130852" lon="12.8700586"><ele>32.0</ele><time>2026-05-03T08:45:07.52Z</time></trkpt><trkpt lat="43.913028" lon="12.8701684"><ele>33.0</ele><time>2026-05-03T08:45:08.518Z</time></trkpt><trkpt lat="43.9129806" lon="12.8702869"><ele>34.5</ele><time>2026-05-03T08:45:09.517Z</time></trkpt><trkpt lat="43.9129219" lon="12.8704113"><ele>36.0</ele><time>2026-05-03T08:45:10.521Z</time></trkpt><trkpt lat="43.9128625" lon="12.8705437"><ele>37.5</ele><time>2026-05-03T08:45:11.519Z</time></trkpt><trkpt lat="43.9127982" lon="12.8706796"><ele>39.0</ele><time>2026-05-03T08:45:12.521Z</time></trkpt><trkpt lat="43.9127348" lon="12.8708141"><ele>40.5</ele><time>2026-05-03T08:45:13.525Z</time></trkpt><trkpt lat="43.9126689" lon="12.8709535"><ele>42.0</ele><time>2026-05-03T08:45:14.524Z</time></trkpt><trkpt lat="43.9126025" lon="12.8710851"><ele>43.5</ele><time>2026-05-03T08:45:15.519Z</time></trkpt><trkpt lat="43.9125349" lon="12.8712253"><ele>45.0</ele><time>2026-05-03T08:45:16.516Z</time></trkpt><trkpt lat="43.9124643" lon="12.871361"><ele>40.75</ele><time>2026-05-03T08:45:17.521Z</time></trkpt><trkpt lat="43.9123915" lon="12.871498"><ele>36.5</ele><time>2026-05-03T08:45:18.524Z</time></trkpt><trkpt lat="43.9123186" lon="12.8716412"><ele>32.25</ele><time>2026-05-03T08:45:19.517Z</time></trkpt><trkpt lat="43.9122462" lon="12.8717858"><ele>28.0</ele><time>2026-05-03T08:45:20.519Z</time></trkpt><trkpt lat="43.9121706" lon="12.8719309"><ele>28.0</ele><time>2026-05-03T08:45:21.522Z</time></trkpt><trkpt lat="43.9120942" lon="12.8720743"><ele>28.0</ele><time>2026-05-03T08:45:22.524Z</time></trkpt><trkpt lat="43.9120202" lon="12.8722138"><ele>28.0</ele><time>2026-05-03T08:45:23.52Z</time></trkpt><trkpt lat="43.9119507" lon="12.8723499"><ele>28.0</ele><time>2026-05-03T08:45:24.518Z</time></trkpt><trkpt lat="43.9118791" lon="12.8724866"><ele>29.25</ele><time>2026-05-03T08:45:25.52Z</time></trkpt><trkpt lat="43.911814" lon="12.872621"><ele>30.5</ele><time>2026-05-03T08:45:26.508Z</time></trkpt><trkpt lat="43.9117487" lon="12.8727493"><ele>31.75</ele><time>2026-05-03T08:45:27.52Z</time></trkpt><trkpt lat="43.9116829" lon="12.8728799"><ele>33.0</ele><time>2026-05-03T08:45:28.505Z</time></trkpt><trkpt lat="43.9116201" lon="12.8730024"><ele>31.0</ele><time>2026-05-03T08:45:29.519Z</time></trkpt><trkpt lat="43.9115511" lon="12.8731263"><ele>28.999999999999996</ele><time>2026-05-03T08:45:30.518Z</time></trkpt><trkpt lat="43.9114882" lon="12.873245"><ele>27.0</ele><time>2026-05-03T08:45:31.517Z</time></trkpt><trkpt lat="43.9114259" lon="12.8733561"><ele>25.0</ele><time>2026-05-03T08:45:32.518Z</time></trkpt><trkpt lat="43.9113632" lon="12.8734718"><ele>23.0</ele><time>2026-05-03T08:45:33.519Z</time></trkpt><trkpt lat="43.9113034" lon="12.873566"><ele>23.0</ele><time>2026-05-03T08:45:34.517Z</time></trkpt><trkpt lat="43.9112442" lon="12.8736654"><ele>23.0</ele><time>2026-05-03T08:45:35.518Z</time></trkpt><trkpt lat="43.9111908" lon="12.8737568"><ele>23.0</ele><time>2026-05-03T08:45:36.519Z</time></trkpt><trkpt lat="43.911136" lon="12.8738254"><ele>23.0</ele><time>2026-05-03T08:45:37.519Z</time></trkpt><trkpt lat="43.9110815" lon="12.873879"><ele>23.0</ele><time>2026-05-03T08:45:38.521Z</time></trkpt><trkpt lat="43.9109701" lon="12.8739403"><ele>23.0</ele><time>2026-05-03T08:45:40.527Z</time></trkpt><trkpt lat="43.9108638" lon="12.8739612"><ele>21.4</ele><time>2026-05-03T08:45:42.52Z</time></trkpt><trkpt lat="43.9107379" lon="12.8739537"><ele>19.799999999999997</ele><time>2026-05-03T08:45:44.519Z</time></trkpt><trkpt lat="43.9106549" lon="12.8739319"><ele>18.2</ele><time>2026-05-03T08:45:45.518Z</time></trkpt><trkpt lat="43.9105572" lon="12.8739005"><ele>16.6</ele><time>2026-05-03T08:45:46.518Z</time></trkpt><trkpt lat="43.9104512" lon="12.8738599"><ele>15.0</ele><time>2026-05-03T08:45:47.518Z</time></trkpt><trkpt lat="43.9103539" lon="12.8738191"><ele>15.0</ele><time>2026-05-03T08:45:48.52Z</time></trkpt><trkpt lat="43.9102632" lon="12.8738136"><ele>15.0</ele><time>2026-05-03T08:45:49.519Z</time></trkpt><trkpt lat="43.9101898" lon="12.873853"><ele>15.0</ele><time>2026-05-03T08:45:50.518Z</time></trkpt><trkpt lat="43.9101358" lon="12.8739213"><ele>15.0</ele><time>2026-05-03T08:45:51.517Z</time></trkpt><trkpt lat="43.910102" lon="12.8740076"><ele>15.0</ele><time>2026-05-03T08:45:52.518Z</time></trkpt><trkpt lat="43.9100867" lon="12.8741078"><ele>15.0</ele><time>2026-05-03T08:45:53.519Z</time></trkpt><trkpt lat="43.9100834" lon="12.8742236"><ele>14.8</ele><time>2026-05-03T08:45:54.518Z</time></trkpt><trkpt lat="43.9100804" lon="12.8743479"><ele>14.6</ele><time>2026-05-03T08:45:55.517Z</time></trkpt><trkpt lat="43.9100717" lon="12.8744793"><ele>14.399999999999999</ele><time>2026-05-03T08:45:56.518Z</time></trkpt><trkpt lat="43.9100746" lon="12.874603"><ele>14.2</ele><time>2026-05-03T08:45:57.52Z</time></trkpt><trkpt lat="43.9100798" lon="12.8747108"><ele>14.0</ele><time>2026-05-03T08:45:58.516Z</time></trkpt><trkpt lat="43.9100832" lon="12.8748575"><ele>14.0</ele><time>2026-05-03T08:46:00.515Z</time></trkpt><trkpt lat="43.9101305" lon="12.8749746"><ele>13.999999999999998</ele><time>2026-05-03T08:49:15.518Z</time></trkpt><trkpt lat="43.9102034" lon="12.8750993"><ele>13.999999999999998</ele><time>2026-05-03T08:49:17.523Z</time></trkpt><trkpt lat="43.9102416" lon="12.87517"><ele>14.0</ele><time>2026-05-03T08:49:18.518Z</time></trkpt><trkpt lat="43.9102822" lon="12.8752381"><ele>14.0</ele><time>2026-05-03T08:49:19.517Z</time></trkpt><trkpt lat="43.9104322" lon="12.8754352"><ele>14.166666666666668</ele><time>2026-05-03T08:49:22.52Z</time></trkpt><trkpt lat="43.9104755" lon="12.8755321"><ele>14.333333333333334</ele><time>2026-05-03T08:49:24.516Z</time></trkpt><trkpt lat="43.9105165" lon="12.875616"><ele>14.5</ele><time>2026-05-03T08:49:26.512Z</time></trkpt><trkpt lat="43.9105883" lon="12.8756571"><ele>14.666666666666668</ele><time>2026-05-03T08:49:28.512Z</time></trkpt><trkpt lat="43.9106438" lon="12.8756029"><ele>14.833333333333334</ele><time>2026-05-03T08:49:30.513Z</time></trkpt><trkpt lat="43.9106879" lon="12.8754688"><ele>15.0</ele><time>2026-05-03T08:49:32.517Z</time></trkpt><trkpt lat="43.9107129" lon="12.8753738"><ele>15.0</ele><time>2026-05-03T08:49:33.524Z</time></trkpt><trkpt lat="43.9107458" lon="12.8752657"><ele>15.0</ele><time>2026-05-03T08:49:34.517Z</time></trkpt><trkpt lat="43.910777" lon="12.8751412"><ele>15.0</ele><time>2026-05-03T08:49:35.517Z</time></trkpt><trkpt lat="43.910806" lon="12.8750074"><ele>15.0</ele><time>2026-05-03T08:49:36.518Z</time></trkpt><trkpt lat="43.9108365" lon="12.8748701"><ele>15.0</ele><time>2026-05-03T08:49:37.516Z</time></trkpt><trkpt lat="43.9108705" lon="12.8747327"><ele>15.0</ele><time>2026-05-03T08:49:38.518Z</time></trkpt><trkpt lat="43.9109076" lon="12.8746013"><ele>15.0</ele><time>2026-05-03T08:49:39.517Z</time></trkpt><trkpt lat="43.9109338" lon="12.874477"><ele>15.0</ele><time>2026-05-03T08:49:40.517Z</time></trkpt><trkpt lat="43.9109495" lon="12.8743598"><ele>15.0</ele><time>2026-05-03T08:49:41.517Z</time></trkpt><trkpt lat="43.9109452" lon="12.8742442"><ele>15.0</ele><time>2026-05-03T08:49:42.518Z</time></trkpt><trkpt lat="43.9109147" lon="12.8741451"><ele>15.0</ele><time>2026-05-03T08:49:43.517Z</time></trkpt><trkpt lat="43.9108573" lon="12.8740622"><ele>15.0</ele><time>2026-05-03T08:49:44.513Z</time></trkpt><trkpt lat="43.9107805" lon="12.8739959"><ele>15.0</ele><time>2026-05-03T08:49:45.518Z</time></trkpt><trkpt lat="43.9106775" lon="12.8739499"><ele>15.0</ele><time>2026-05-03T08:49:46.516Z</time></trkpt><trkpt lat="43.9105537" lon="12.8738932"><ele>15.0</ele><time>2026-05-03T08:49:47.517Z</time></trkpt><trkpt lat="43.9104261" lon="12.8738323"><ele>15.0</ele><time>2026-05-03T08:49:48.517Z</time></trkpt><trkpt lat="43.9103073" lon="12.8737621"><ele>15.0</ele><time>2026-05-03T08:49:49.517Z</time></trkpt><trkpt lat="43.9101974" lon="12.8736787"><ele>15.0</ele><time>2026-05-03T08:49:50.517Z</time></trkpt><trkpt lat="43.91011" lon="12.8735964"><ele>15.0</ele><time>2026-05-03T08:49:51.517Z</time></trkpt><trkpt lat="43.9100572" lon="12.8735022"><ele>15.0</ele><time>2026-05-03T08:49:52.516Z</time></trkpt><trkpt lat="43.9100196" lon="12.873411"><ele>14.6</ele><time>2026-05-03T08:49:53.517Z</time></trkpt><trkpt lat="43.9100225" lon="12.8732833"><ele>14.2</ele><time>2026-05-03T08:49:54.516Z</time></trkpt><trkpt lat="43.9100046" lon="12.8731277"><ele>13.8</ele><time>2026-05-03T08:49:55.517Z</time></trkpt><trkpt lat="43.9099903" lon="12.8729661"><ele>13.4</ele><time>2026-05-03T08:49:56.517Z</time></trkpt><trkpt lat="43.9099797" lon="12.8727971"><ele>13.0</ele><time>2026-05-03T08:49:57.516Z</time></trkpt><trkpt lat="43.9099644" lon="12.8726342"><ele>13.25</ele><time>2026-05-03T08:49:58.516Z</time></trkpt><trkpt lat="43.9099436" lon="12.8724576"><ele>13.5</ele><time>2026-05-03T08:49:59.516Z</time></trkpt><trkpt lat="43.9099081" lon="12.8722952"><ele>13.75</ele><time>2026-05-03T08:50:00.516Z</time></trkpt><trkpt lat="43.9098624" lon="12.8721315"><ele>14.0</ele><time>2026-05-03T08:50:01.518Z</time></trkpt><trkpt lat="43.9097977" lon="12.871988"><ele>14.0</ele><time>2026-05-03T08:50:02.516Z</time></trkpt><trkpt lat="43.9097223" lon="12.8718433"><ele>14.0</ele><time>2026-05-03T08:50:03.517Z</time></trkpt><trkpt lat="43.9096276" lon="12.8717081"><ele>14.0</ele><time>2026-05-03T08:50:04.517Z</time></trkpt><trkpt lat="43.9095308" lon="12.8715713"><ele>14.0</ele><time>2026-05-03T08:50:05.517Z</time></trkpt><trkpt lat="43.9094445" lon="12.8714249"><ele>13.75</ele><time>2026-05-03T08:50:06.517Z</time></trkpt><trkpt lat="43.9093741" lon="12.871256"><ele>13.5</ele><time>2026-05-03T08:50:07.516Z</time></trkpt><trkpt lat="43.9093122" lon="12.8710766"><ele>13.25</ele><time>2026-05-03T08:50:08.516Z</time></trkpt><trkpt lat="43.9092488" lon="12.8708839"><ele>13.0</ele><time>2026-05-03T08:50:09.517Z</time></trkpt><trkpt lat="43.9091864" lon="12.8706759"><ele>13.666666666666666</ele><time>2026-05-03T08:50:10.517Z</time></trkpt><trkpt lat="43.9091275" lon="12.8704659"><ele>14.333333333333332</ele><time>2026-05-03T08:50:11.517Z</time></trkpt><trkpt lat="43.9090697" lon="12.870268"><ele>15.0</ele><time>2026-05-03T08:50:12.518Z</time></trkpt><trkpt lat="43.9090163" lon="12.8700801"><ele>15.0</ele><time>2026-05-03T08:50:13.515Z</time></trkpt><trkpt lat="43.9089644" lon="12.8699047"><ele>15.0</ele><time>2026-05-03T08:50:14.517Z</time></trkpt><trkpt lat="43.9089125" lon="12.869735"><ele>15.0</ele><time>2026-05-03T08:50:15.518Z</time></trkpt><trkpt lat="43.9088623" lon="12.8695724"><ele>15.0</ele><time>2026-05-03T08:50:16.515Z</time></trkpt><trkpt lat="43.9088186" lon="12.8694348"><ele>15.0</ele><time>2026-05-03T08:50:17.519Z</time></trkpt><trkpt lat="43.9087716" lon="12.8693052"><ele>15.0</ele><time>2026-05-03T08:50:18.515Z</time></trkpt><trkpt lat="43.9087445" lon="12.8692135"><ele>15.0</ele><time>2026-05-03T08:50:19.518Z</time></trkpt><trkpt lat="43.9087113" lon="12.8691126"><ele>15.0</ele><time>2026-05-03T08:50:20.518Z</time></trkpt><trkpt lat="43.9086851" lon="12.8690024"><ele>15.0</ele><time>2026-05-03T08:50:21.518Z</time></trkpt><trkpt lat="43.908648" lon="12.8688905"><ele>15.0</ele><time>2026-05-03T08:50:22.517Z</time></trkpt><trkpt lat="43.9085591" lon="12.8688017"><ele>15.0</ele><time>2026-05-03T08:50:24.517Z</time></trkpt><trkpt lat="43.9084941" lon="12.8688125"><ele>15.0</ele><time>2026-05-03T08:50:25.517Z</time></trkpt><trkpt lat="43.9084088" lon="12.8688274"><ele>15.0</ele><time>2026-05-03T08:50:26.518Z</time></trkpt><trkpt lat="43.9082982" lon="12.8688448"><ele>15.0</ele><time>2026-05-03T08:50:27.515Z</time></trkpt><trkpt lat="43.9081826" lon="12.8688736"><ele>15.0</ele><time>2026-05-03T08:50:28.515Z</time></trkpt><trkpt lat="43.9080626" lon="12.8689236"><ele>14.75</ele><time>2026-05-03T08:50:29.518Z</time></trkpt><trkpt lat="43.9079344" lon="12.8689871"><ele>14.5</ele><time>2026-05-03T08:50:30.519Z</time></trkpt><trkpt lat="43.9078076" lon="12.8690512"><ele>14.25</ele><time>2026-05-03T08:50:31.518Z</time></trkpt><trkpt lat="43.9076928" lon="12.8691154"><ele>14.0</ele><time>2026-05-03T08:50:32.518Z</time></trkpt><trkpt lat="43.9075828" lon="12.8691788"><ele>13.399999999999999</ele><time>2026-05-03T08:50:33.518Z</time></trkpt><trkpt lat="43.90748" lon="12.8692421"><ele>12.799999999999999</ele><time>2026-05-03T08:50:34.517Z</time></trkpt><trkpt lat="43.9073782" lon="12.8693019"><ele>12.2</ele><time>2026-05-03T08:50:35.516Z</time></trkpt><trkpt lat="43.9072794" lon="12.8693578"><ele>11.600000000000001</ele><time>2026-05-03T08:50:36.518Z</time></trkpt><trkpt lat="43.9071774" lon="12.8694127"><ele>11.0</ele><time>2026-05-03T08:50:37.518Z</time></trkpt><trkpt lat="43.9070834" lon="12.8694631"><ele>11.0</ele><time>2026-05-03T08:50:38.517Z</time></trkpt><trkpt lat="43.9070012" lon="12.8695171"><ele>11.0</ele><time>2026-05-03T08:50:39.515Z</time></trkpt><trkpt lat="43.9069329" lon="12.8695518"><ele>11.0</ele><time>2026-05-03T08:50:40.516Z</time></trkpt><trkpt lat="43.9068263" lon="12.8696002"><ele>11.0</ele><time>2026-05-03T08:50:42.517Z</time></trkpt><trkpt lat="43.9067215" lon="12.8695836"><ele>11.0</ele><time>2026-05-03T08:50:44.518Z</time></trkpt><trkpt lat="43.9065883" lon="12.8695232"><ele>9.8</ele><time>2026-05-03T08:50:46.52Z</time></trkpt><trkpt lat="43.906493" lon="12.8695227"><ele>8.600000000000001</ele><time>2026-05-03T08:50:47.518Z</time></trkpt><trkpt lat="43.9063967" lon="12.869561"><ele>7.4</ele><time>2026-05-03T08:50:48.517Z</time></trkpt><trkpt lat="43.906308" lon="12.8696132"><ele>6.2</ele><time>2026-05-03T08:50:49.519Z</time></trkpt><trkpt lat="43.9062516" lon="12.8697289"><ele>5.0</ele><time>2026-05-03T08:50:50.518Z</time></trkpt><trkpt lat="43.9061985" lon="12.8698676"><ele>5.0</ele><time>2026-05-03T08:50:51.518Z</time></trkpt><trkpt lat="43.9061422" lon="12.8700014"><ele>5.0</ele><time>2026-05-03T08:50:52.517Z</time></trkpt><trkpt lat="43.9060718" lon="12.8701427"><ele>5.0</ele><time>2026-05-03T08:50:53.518Z</time></trkpt><trkpt lat="43.9059793" lon="12.8702676"><ele>5.0</ele><time>2026-05-03T08:50:54.514Z</time></trkpt><trkpt lat="43.9058731" lon="12.870376"><ele>5.666666666666667</ele><time>2026-05-03T08:50:55.516Z</time></trkpt><trkpt lat="43.9057541" lon="12.8704853"><ele>6.333333333333334</ele><time>2026-05-03T08:50:56.517Z</time></trkpt><trkpt lat="43.9056232" lon="12.8705988"><ele>7.0</ele><time>2026-05-03T08:50:57.516Z</time></trkpt><trkpt lat="43.9054791" lon="12.8707243"><ele>7.0</ele><time>2026-05-03T08:50:58.516Z</time></trkpt><trkpt lat="43.9053304" lon="12.8708494"><ele>7.0</ele><time>2026-05-03T08:50:59.516Z</time></trkpt><trkpt lat="43.9051829" lon="12.8709817"><ele>7.0</ele><time>2026-05-03T08:51:00.518Z</time></trkpt><trkpt lat="43.9050227" lon="12.8711219"><ele>6.0</ele><time>2026-05-03T08:51:01.513Z</time></trkpt><trkpt lat="43.9048539" lon="12.8712776"><ele>5.0</ele><time>2026-05-03T08:51:02.519Z</time></trkpt><trkpt lat="43.9046777" lon="12.8714362"><ele>4.0</ele><time>2026-05-03T08:51:03.517Z</time></trkpt><trkpt lat="43.9045025" lon="12.8715935"><ele>4.0</ele><time>2026-05-03T08:51:04.518Z</time></trkpt><trkpt lat="43.9043192" lon="12.8717492"><ele>4.0</ele><time>2026-05-03T08:51:05.517Z</time></trkpt><trkpt lat="43.9041398" lon="12.8719071"><ele>4.0</ele><time>2026-05-03T08:51:06.513Z</time></trkpt><trkpt lat="43.9039652" lon="12.8720561"><ele>4.666666666666666</ele><time>2026-05-03T08:51:07.52Z</time></trkpt><trkpt lat="43.9037954" lon="12.8722048"><ele>5.333333333333333</ele><time>2026-05-03T08:51:08.518Z</time></trkpt><trkpt lat="43.9036219" lon="12.8723481"><ele>6.0</ele><time>2026-05-03T08:51:09.518Z</time></trkpt><trkpt lat="43.9034417" lon="12.8724934"><ele>6.0</ele><time>2026-05-03T08:51:10.517Z</time></trkpt><trkpt lat="43.9032575" lon="12.8726516"><ele>6.0</ele><time>2026-05-03T08:51:11.517Z</time></trkpt><trkpt lat="43.9030705" lon="12.8728066"><ele>6.0</ele><time>2026-05-03T08:51:12.518Z</time></trkpt><trkpt lat="43.9028757" lon="12.8729823"><ele>6.0</ele><time>2026-05-03T08:51:13.519Z</time></trkpt><trkpt lat="43.9026896" lon="12.8731587"><ele>6.0</ele><time>2026-05-03T08:51:14.518Z</time></trkpt><trkpt lat="43.9025071" lon="12.8733367"><ele>6.0</ele><time>2026-05-03T08:51:15.517Z</time></trkpt><trkpt lat="43.9023201" lon="12.873536"><ele>7.0</ele><time>2026-05-03T08:51:16.518Z</time></trkpt><trkpt lat="43.9021408" lon="12.8737346"><ele>8.0</ele><time>2026-05-03T08:51:17.518Z</time></trkpt><trkpt lat="43.9019656" lon="12.8739368"><ele>8.0</ele><time>2026-05-03T08:51:18.519Z</time></trkpt><trkpt lat="43.9017886" lon="12.8741552"><ele>8.0</ele><time>2026-05-03T08:51:19.518Z</time></trkpt><trkpt lat="43.9016174" lon="12.8743822"><ele>7.5</ele><time>2026-05-03T08:51:20.518Z</time></trkpt><trkpt lat="43.9014461" lon="12.8746143"><ele>7.0</ele><time>2026-05-03T08:51:21.649Z</time></trkpt><trkpt lat="43.9011021" lon="12.8751062"><ele>6.5</ele><time>2026-05-03T08:51:23.518Z</time></trkpt><trkpt lat="43.9009338" lon="12.8753623"><ele>6.0</ele><time>2026-05-03T08:51:24.518Z</time></trkpt><trkpt lat="43.9007735" lon="12.8756255"><ele>6.0</ele><time>2026-05-03T08:51:25.517Z</time></trkpt><trkpt lat="43.9006113" lon="12.8758876"><ele>6.0</ele><time>2026-05-03T08:51:26.517Z</time></trkpt><trkpt lat="43.9004548" lon="12.8761443"><ele>7.0</ele><time>2026-05-03T08:51:27.519Z</time></trkpt><trkpt lat="43.9002989" lon="12.8763978"><ele>8.0</ele><time>2026-05-03T08:51:28.518Z</time></trkpt><trkpt lat="43.9001438" lon="12.8766511"><ele>6.0</ele><time>2026-05-03T08:51:29.519Z</time></trkpt><trkpt lat="43.899986" lon="12.8768996"><ele>4.0</ele><time>2026-05-03T08:51:30.518Z</time></trkpt><trkpt lat="43.8998318" lon="12.8771471"><ele>4.0</ele><time>2026-05-03T08:51:31.517Z</time></trkpt><trkpt lat="43.8996746" lon="12.8773882"><ele>4.0</ele><time>2026-05-03T08:51:32.522Z</time></trkpt><trkpt lat="43.8995247" lon="12.8776106"><ele>4.666666666666666</ele><time>2026-05-03T08:51:33.518Z</time></trkpt><trkpt lat="43.8993697" lon="12.8778357"><ele>5.333333333333333</ele><time>2026-05-03T08:51:34.518Z</time></trkpt><trkpt lat="43.8992278" lon="12.8780114"><ele>6.0</ele><time>2026-05-03T08:51:35.517Z</time></trkpt><trkpt lat="43.8990732" lon="12.8782068"><ele>6.666666666666666</ele><time>2026-05-03T08:51:36.518Z</time></trkpt><trkpt lat="43.8989361" lon="12.8783789"><ele>7.333333333333333</ele><time>2026-05-03T08:51:37.518Z</time></trkpt><trkpt lat="43.898794" lon="12.8785515"><ele>8.0</ele><time>2026-05-03T08:51:38.517Z</time></trkpt><trkpt lat="43.8986512" lon="12.8787095"><ele>8.666666666666666</ele><time>2026-05-03T08:51:39.519Z</time></trkpt><trkpt lat="43.8985048" lon="12.8788651"><ele>9.333333333333334</ele><time>2026-05-03T08:51:40.517Z</time></trkpt><trkpt lat="43.8983599" lon="12.8790105"><ele>10.0</ele><time>2026-05-03T08:51:41.513Z</time></trkpt><trkpt lat="43.8982168" lon="12.8791534"><ele>11.333333333333334</ele><time>2026-05-03T08:51:42.516Z</time></trkpt><trkpt lat="43.89807" lon="12.8792996"><ele>12.666666666666668</ele><time>2026-05-03T08:51:43.514Z</time></trkpt><trkpt lat="43.8979213" lon="12.8794455"><ele>14.0</ele><time>2026-05-03T08:51:44.518Z</time></trkpt><trkpt lat="43.8977749" lon="12.8795905"><ele>14.0</ele><time>2026-05-03T08:51:45.518Z</time></trkpt><trkpt lat="43.89763" lon="12.8797414"><ele>14.0</ele><time>2026-05-03T08:51:46.519Z</time></trkpt><trkpt lat="43.8974781" lon="12.8798914"><ele>14.0</ele><time>2026-05-03T08:51:47.518Z</time></trkpt><trkpt lat="43.8973246" lon="12.8800443"><ele>12.666666666666668</ele><time>2026-05-03T08:51:48.518Z</time></trkpt><trkpt lat="43.8971694" lon="12.880203"><ele>11.333333333333334</ele><time>2026-05-03T08:51:49.517Z</time></trkpt><trkpt lat="43.8970061" lon="12.8803699"><ele>10.0</ele><time>2026-05-03T08:51:50.519Z</time></trkpt><trkpt lat="43.8968353" lon="12.880542"><ele>9.0</ele><time>2026-05-03T08:51:51.518Z</time></trkpt><trkpt lat="43.8966502" lon="12.8807258"><ele>8.0</ele><time>2026-05-03T08:51:52.519Z</time></trkpt><trkpt lat="43.8964641" lon="12.8809197"><ele>8.0</ele><time>2026-05-03T08:51:53.518Z</time></trkpt><trkpt lat="43.8962736" lon="12.881112"><ele>8.0</ele><time>2026-05-03T08:51:54.518Z</time></trkpt><trkpt lat="43.8960812" lon="12.8812878"><ele>9.0</ele><time>2026-05-03T08:51:55.517Z</time></trkpt><trkpt lat="43.8958923" lon="12.8814655"><ele>10.0</ele><time>2026-05-03T08:51:56.518Z</time></trkpt><trkpt lat="43.8957016" lon="12.8816418"><ele>9.0</ele><time>2026-05-03T08:51:57.513Z</time></trkpt><trkpt lat="43.8955187" lon="12.8818186"><ele>8.0</ele><time>2026-05-03T08:51:58.518Z</time></trkpt><trkpt lat="43.8953337" lon="12.8819931"><ele>7.0</ele><time>2026-05-03T08:51:59.518Z</time></trkpt><trkpt lat="43.895151" lon="12.8821806"><ele>6.666666666666667</ele><time>2026-05-03T08:52:00.518Z</time></trkpt><trkpt lat="43.894969" lon="12.8823629"><ele>6.333333333333334</ele><time>2026-05-03T08:52:01.518Z</time></trkpt><trkpt lat="43.8947979" lon="12.8825396"><ele>6.0</ele><time>2026-05-03T08:52:02.516Z</time></trkpt><trkpt lat="43.8946325" lon="12.8827091"><ele>6.0</ele><time>2026-05-03T08:52:03.516Z</time></trkpt><trkpt lat="43.8944737" lon="12.8828686"><ele>6.0</ele><time>2026-05-03T08:52:04.518Z</time></trkpt><trkpt lat="43.8943212" lon="12.883029"><ele>6.0</ele><time>2026-05-03T08:52:05.518Z</time></trkpt><trkpt lat="43.8941716" lon="12.883178"><ele>7.333333333333334</ele><time>2026-05-03T08:52:06.517Z</time></trkpt><trkpt lat="43.8940311" lon="12.883326"><ele>8.666666666666668</ele><time>2026-05-03T08:52:07.517Z</time></trkpt><trkpt lat="43.8939003" lon="12.8834669"><ele>10.0</ele><time>2026-05-03T08:52:08.518Z</time></trkpt><trkpt lat="43.8937771" lon="12.8835966"><ele>10.0</ele><time>2026-05-03T08:52:09.518Z</time></trkpt><trkpt lat="43.8936654" lon="12.8837015"><ele>10.0</ele><time>2026-05-03T08:52:10.515Z</time></trkpt><trkpt lat="43.8935629" lon="12.8837761"><ele>10.0</ele><time>2026-05-03T08:52:11.519Z</time></trkpt><trkpt lat="43.8934651" lon="12.8838238"><ele>10.0</ele><time>2026-05-03T08:52:12.518Z</time></trkpt><trkpt lat="43.8933684" lon="12.8838473"><ele>9.4</ele><time>2026-05-03T08:52:13.515Z</time></trkpt><trkpt lat="43.8932703" lon="12.8838582"><ele>8.8</ele><time>2026-05-03T08:52:14.518Z</time></trkpt><trkpt lat="43.8931659" lon="12.8838808"><ele>8.2</ele><time>2026-05-03T08:52:15.518Z</time></trkpt><trkpt lat="43.8930671" lon="12.8839345"><ele>7.6</ele><time>2026-05-03T08:52:16.516Z</time></trkpt><trkpt lat="43.8929871" lon="12.8840169"><ele>7.0</ele><time>2026-05-03T08:52:17.518Z</time></trkpt><trkpt lat="43.892922" lon="12.8841204"><ele>7.0</ele><time>2026-05-03T08:52:18.517Z</time></trkpt><trkpt lat="43.8928786" lon="12.8842574"><ele>7.0</ele><time>2026-05-03T08:52:19.518Z</time></trkpt><trkpt lat="43.8928537" lon="12.8844163"><ele>7.0</ele><time>2026-05-03T08:52:20.518Z</time></trkpt><trkpt lat="43.8928244" lon="12.8845923"><ele>7.0</ele><time>2026-05-03T08:52:21.518Z</time></trkpt><trkpt lat="43.8927639" lon="12.8847609"><ele>7.75</ele><time>2026-05-03T08:52:22.517Z</time></trkpt><trkpt lat="43.8926832" lon="12.8849259"><ele>8.5</ele><time>2026-05-03T08:52:23.519Z</time></trkpt><trkpt lat="43.892595" lon="12.8850857"><ele>9.25</ele><time>2026-05-03T08:52:24.518Z</time></trkpt><trkpt lat="43.892504" lon="12.8852528"><ele>10.0</ele><time>2026-05-03T08:52:25.518Z</time></trkpt><trkpt lat="43.8924138" lon="12.8854271"><ele>11.0</ele><time>2026-05-03T08:52:26.516Z</time></trkpt><trkpt lat="43.8923252" lon="12.8856179"><ele>12.0</ele><time>2026-05-03T08:52:27.517Z</time></trkpt><trkpt lat="43.8922344" lon="12.8858184"><ele>13.0</ele><time>2026-05-03T08:52:28.518Z</time></trkpt><trkpt lat="43.8921455" lon="12.8860299"><ele>13.0</ele><time>2026-05-03T08:52:29.515Z</time></trkpt><trkpt lat="43.8920512" lon="12.8862371"><ele>13.0</ele><time>2026-05-03T08:52:30.517Z</time></trkpt><trkpt lat="43.8919802" lon="12.8864443"><ele>13.0</ele><time>2026-05-03T08:52:31.517Z</time></trkpt><trkpt lat="43.8919157" lon="12.8866423"><ele>13.0</ele><time>2026-05-03T08:52:32.518Z</time></trkpt><trkpt lat="43.8918594" lon="12.8868312"><ele>13.0</ele><time>2026-05-03T08:52:33.518Z</time></trkpt><trkpt lat="43.891808" lon="12.887005"><ele>13.0</ele><time>2026-05-03T08:52:34.517Z</time></trkpt><trkpt lat="43.891756" lon="12.8871719"><ele>13.0</ele><time>2026-05-03T08:52:35.517Z</time></trkpt><trkpt lat="43.8917137" lon="12.8873363"><ele>13.0</ele><time>2026-05-03T08:52:36.517Z</time></trkpt><trkpt lat="43.8916857" lon="12.8874681"><ele>13.0</ele><time>2026-05-03T08:52:37.517Z</time></trkpt><trkpt lat="43.8916564" lon="12.8875956"><ele>13.0</ele><time>2026-05-03T08:52:38.517Z</time></trkpt><trkpt lat="43.891628" lon="12.8877038"><ele>13.0</ele><time>2026-05-03T08:52:39.517Z</time></trkpt><trkpt lat="43.8915858" lon="12.8878095"><ele>13.0</ele><time>2026-05-03T08:52:40.517Z</time></trkpt><trkpt lat="43.8915188" lon="12.8878834"><ele>12.833333333333332</ele><time>2026-05-03T08:52:41.516Z</time></trkpt><trkpt lat="43.8914462" lon="12.8879474"><ele>12.666666666666666</ele><time>2026-05-03T08:52:42.518Z</time></trkpt><trkpt lat="43.8913666" lon="12.8879718"><ele>12.5</ele><time>2026-05-03T08:52:43.517Z</time></trkpt><trkpt lat="43.8912915" lon="12.8879491"><ele>12.333333333333332</ele><time>2026-05-03T08:52:44.518Z</time></trkpt><trkpt lat="43.8912096" lon="12.8879029"><ele>12.166666666666666</ele><time>2026-05-03T08:52:45.515Z</time></trkpt><trkpt lat="43.8911325" lon="12.8878221"><ele>12.0</ele><time>2026-05-03T08:52:46.517Z</time></trkpt><trkpt lat="43.8910465" lon="12.8877217"><ele>12.25</ele><time>2026-05-03T08:52:47.516Z</time></trkpt><trkpt lat="43.8909525" lon="12.8875899"><ele>12.5</ele><time>2026-05-03T08:52:48.517Z</time></trkpt><trkpt lat="43.8908693" lon="12.88748"><ele>12.75</ele><time>2026-05-03T08:52:49.518Z</time></trkpt><trkpt lat="43.8907543" lon="12.8873229"><ele>13.0</ele><time>2026-05-03T08:52:50.519Z</time></trkpt><trkpt lat="43.8906257" lon="12.8871636"><ele>13.0</ele><time>2026-05-03T08:52:51.517Z</time></trkpt><trkpt lat="43.8905161" lon="12.8870323"><ele>13.0</ele><time>2026-05-03T08:52:52.518Z</time></trkpt><trkpt lat="43.8904234" lon="12.8868993"><ele>13.0</ele><time>2026-05-03T08:52:53.518Z</time></trkpt><trkpt lat="43.8903475" lon="12.8867572"><ele>13.0</ele><time>2026-05-03T08:52:54.519Z</time></trkpt><trkpt lat="43.8902676" lon="12.8865978"><ele>13.333333333333332</ele><time>2026-05-03T08:52:55.518Z</time></trkpt><trkpt lat="43.8901777" lon="12.8864256"><ele>13.666666666666668</ele><time>2026-05-03T08:52:56.517Z</time></trkpt><trkpt lat="43.8901069" lon="12.8862264"><ele>14.0</ele><time>2026-05-03T08:52:57.517Z</time></trkpt><trkpt lat="43.8900287" lon="12.8860156"><ele>14.0</ele><time>2026-05-03T08:52:58.518Z</time></trkpt><trkpt lat="43.8899766" lon="12.8858012"><ele>14.0</ele><time>2026-05-03T08:52:59.517Z</time></trkpt><trkpt lat="43.889926" lon="12.8855897"><ele>14.0</ele><time>2026-05-03T08:53:00.52Z</time></trkpt><trkpt lat="43.8899146" lon="12.885393"><ele>14.0</ele><time>2026-05-03T08:53:01.519Z</time></trkpt><trkpt lat="43.8899024" lon="12.8852001"><ele>14.0</ele><time>2026-05-03T08:53:02.518Z</time></trkpt><trkpt lat="43.8898916" lon="12.8850047"><ele>14.0</ele><time>2026-05-03T08:53:03.518Z</time></trkpt><trkpt lat="43.8899253" lon="12.8849034"><ele>14.0</ele><time>2026-05-03T08:53:04.517Z</time></trkpt><trkpt lat="43.8899379" lon="12.8847669"><ele>14.0</ele><time>2026-05-03T08:53:05.518Z</time></trkpt><trkpt lat="43.8899839" lon="12.8846777"><ele>14.0</ele><time>2026-05-03T08:53:06.518Z</time></trkpt><trkpt lat="43.890013" lon="12.8845983"><ele>14.0</ele><time>2026-05-03T08:53:07.517Z</time></trkpt><trkpt lat="43.8900583" lon="12.8845071"><ele>14.0</ele><time>2026-05-03T08:53:08.518Z</time></trkpt><trkpt lat="43.8901236" lon="12.8844829"><ele>14.0</ele><time>2026-05-03T08:53:09.517Z</time></trkpt><trkpt lat="43.8901922" lon="12.8844406"><ele>14.0</ele><time>2026-05-03T08:53:10.517Z</time></trkpt><trkpt lat="43.8902498" lon="12.8843887"><ele>14.0</ele><time>2026-05-03T08:53:11.519Z</time></trkpt><trkpt lat="43.8902932" lon="12.884317"><ele>13.666666666666668</ele><time>2026-05-03T08:53:12.518Z</time></trkpt><trkpt lat="43.890321" lon="12.8842338"><ele>13.333333333333334</ele><time>2026-05-03T08:53:13.518Z</time></trkpt><trkpt lat="43.8903266" lon="12.8841333"><ele>13.0</ele><time>2026-05-03T08:53:14.518Z</time></trkpt><trkpt lat="43.8903188" lon="12.8840219"><ele>12.666666666666668</ele><time>2026-05-03T08:53:15.519Z</time></trkpt><trkpt lat="43.8903079" lon="12.8839164"><ele>12.333333333333334</ele><time>2026-05-03T08:53:16.519Z</time></trkpt><trkpt lat="43.8903025" lon="12.8838066"><ele>12.0</ele><time>2026-05-03T08:53:17.517Z</time></trkpt><trkpt lat="43.8903078" lon="12.8836791"><ele>12.0</ele><time>2026-05-03T08:53:18.518Z</time></trkpt><trkpt lat="43.890321" lon="12.8835235"><ele>12.0</ele><time>2026-05-03T08:53:19.513Z</time></trkpt><trkpt lat="43.8903415" lon="12.8833605"><ele>12.0</ele><time>2026-05-03T08:53:20.519Z</time></trkpt><trkpt lat="43.8903674" lon="12.8832101"><ele>12.0</ele><time>2026-05-03T08:53:21.518Z</time></trkpt><trkpt lat="43.8903923" lon="12.8830661"><ele>12.399999999999999</ele><time>2026-05-03T08:53:22.526Z</time></trkpt><trkpt lat="43.8904188" lon="12.8829284"><ele>12.799999999999999</ele><time>2026-05-03T08:53:23.518Z</time></trkpt><trkpt lat="43.8904513" lon="12.8827947"><ele>13.2</ele><time>2026-05-03T08:53:24.518Z</time></trkpt><trkpt lat="43.8904893" lon="12.882645"><ele>13.6</ele><time>2026-05-03T08:53:25.518Z</time></trkpt><trkpt lat="43.8905292" lon="12.8824813"><ele>14.0</ele><time>2026-05-03T08:53:26.518Z</time></trkpt><trkpt lat="43.8905725" lon="12.8823105"><ele>14.25</ele><time>2026-05-03T08:53:27.518Z</time></trkpt><trkpt lat="43.8906222" lon="12.8821458"><ele>14.5</ele><time>2026-05-03T08:53:28.519Z</time></trkpt><trkpt lat="43.8906724" lon="12.8819882"><ele>14.75</ele><time>2026-05-03T08:53:29.518Z</time></trkpt><trkpt lat="43.890725" lon="12.8818435"><ele>15.0</ele><time>2026-05-03T08:53:30.518Z</time></trkpt><trkpt lat="43.8907785" lon="12.8816654"><ele>15.25</ele><time>2026-05-03T08:53:31.519Z</time></trkpt><trkpt lat="43.8908377" lon="12.8814873"><ele>15.5</ele><time>2026-05-03T08:53:32.518Z</time></trkpt><trkpt lat="43.8908921" lon="12.8813114"><ele>15.75</ele><time>2026-05-03T08:53:33.518Z</time></trkpt><trkpt lat="43.8909554" lon="12.8811322"><ele>16.0</ele><time>2026-05-03T08:53:34.517Z</time></trkpt><trkpt lat="43.8910213" lon="12.8809398"><ele>15.333333333333332</ele><time>2026-05-03T08:53:35.518Z</time></trkpt><trkpt lat="43.8910856" lon="12.8807227"><ele>14.666666666666668</ele><time>2026-05-03T08:53:36.514Z</time></trkpt><trkpt lat="43.8911557" lon="12.880483"><ele>14.0</ele><time>2026-05-03T08:53:37.516Z</time></trkpt><trkpt lat="43.8912325" lon="12.880237"><ele>13.666666666666668</ele><time>2026-05-03T08:53:38.517Z</time></trkpt><trkpt lat="43.8913128" lon="12.8799935"><ele>13.333333333333332</ele><time>2026-05-03T08:53:39.518Z</time></trkpt><trkpt lat="43.8913918" lon="12.8797584"><ele>13.0</ele><time>2026-05-03T08:53:40.516Z</time></trkpt><trkpt lat="43.8914629" lon="12.8795216"><ele>13.0</ele><time>2026-05-03T08:53:41.519Z</time></trkpt><trkpt lat="43.8915147" lon="12.8792763"><ele>13.0</ele><time>2026-05-03T08:53:42.517Z</time></trkpt><trkpt lat="43.8915425" lon="12.8790207"><ele>13.0</ele><time>2026-05-03T08:53:43.519Z</time></trkpt><trkpt lat="43.8915607" lon="12.8787736"><ele>12.333333333333332</ele><time>2026-05-03T08:53:44.52Z</time></trkpt><trkpt lat="43.8915685" lon="12.8785322"><ele>11.666666666666666</ele><time>2026-05-03T08:53:45.519Z</time></trkpt><trkpt lat="43.8915608" lon="12.8782872"><ele>11.0</ele><time>2026-05-03T08:53:46.518Z</time></trkpt><trkpt lat="43.8915425" lon="12.8780413"><ele>10.333333333333332</ele><time>2026-05-03T08:53:47.518Z</time></trkpt><trkpt lat="43.8915166" lon="12.8777903"><ele>9.666666666666666</ele><time>2026-05-03T08:53:48.517Z</time></trkpt><trkpt lat="43.8914813" lon="12.8775427"><ele>9.0</ele><time>2026-05-03T08:53:49.515Z</time></trkpt><trkpt lat="43.8914307" lon="12.8772998"><ele>9.0</ele><time>2026-05-03T08:53:50.516Z</time></trkpt><trkpt lat="43.8913659" lon="12.8770594"><ele>9.0</ele><time>2026-05-03T08:53:51.516Z</time></trkpt><trkpt lat="43.8912925" lon="12.8768227"><ele>9.0</ele><time>2026-05-03T08:53:52.515Z</time></trkpt><trkpt lat="43.891213" lon="12.8765989"><ele>10.333333333333332</ele><time>2026-05-03T08:53:53.518Z</time></trkpt><trkpt lat="43.89113" lon="12.8763783"><ele>11.666666666666666</ele><time>2026-05-03T08:53:54.518Z</time></trkpt><trkpt lat="43.8910473" lon="12.8761628"><ele>13.0</ele><time>2026-05-03T08:53:55.516Z</time></trkpt><trkpt lat="43.8909687" lon="12.8759504"><ele>13.0</ele><time>2026-05-03T08:53:56.518Z</time></trkpt><trkpt lat="43.8908916" lon="12.875743"><ele>13.0</ele><time>2026-05-03T08:53:57.519Z</time></trkpt><trkpt lat="43.8908248" lon="12.8755533"><ele>13.0</ele><time>2026-05-03T08:53:58.519Z</time></trkpt><trkpt lat="43.8907554" lon="12.8753668"><ele>13.0</ele><time>2026-05-03T08:53:59.518Z</time></trkpt><trkpt lat="43.8906871" lon="12.8751785"><ele>13.0</ele><time>2026-05-03T08:54:00.516Z</time></trkpt><trkpt lat="43.8906172" lon="12.8749858"><ele>13.0</ele><time>2026-05-03T08:54:01.517Z</time></trkpt><trkpt lat="43.8905433" lon="12.8747969"><ele>13.0</ele><time>2026-05-03T08:54:02.516Z</time></trkpt><trkpt lat="43.8904725" lon="12.874607"><ele>13.0</ele><time>2026-05-03T08:54:03.516Z</time></trkpt><trkpt lat="43.8904001" lon="12.8744117"><ele>13.0</ele><time>2026-05-03T08:54:04.517Z</time></trkpt><trkpt lat="43.890318" lon="12.8742113"><ele>12.666666666666666</ele><time>2026-05-03T08:54:05.52Z</time></trkpt><trkpt lat="43.8902379" lon="12.8740139"><ele>12.333333333333332</ele><time>2026-05-03T08:54:06.515Z</time></trkpt><trkpt lat="43.8901476" lon="12.8738217"><ele>12.0</ele><time>2026-05-03T08:54:07.518Z</time></trkpt><trkpt lat="43.8900749" lon="12.8736125"><ele>11.666666666666666</ele><time>2026-05-03T08:54:08.512Z</time></trkpt><trkpt lat="43.889987" lon="12.873388"><ele>11.333333333333332</ele><time>2026-05-03T08:54:09.519Z</time></trkpt><trkpt lat="43.8899006" lon="12.8731571"><ele>11.0</ele><time>2026-05-03T08:54:10.516Z</time></trkpt><trkpt lat="43.8898118" lon="12.8729257"><ele>11.0</ele><time>2026-05-03T08:54:11.519Z</time></trkpt><trkpt lat="43.8897303" lon="12.8726894"><ele>11.0</ele><time>2026-05-03T08:54:12.518Z</time></trkpt><trkpt lat="43.8896552" lon="12.8724535"><ele>11.0</ele><time>2026-05-03T08:54:13.518Z</time></trkpt><trkpt lat="43.8895776" lon="12.8722254"><ele>12.333333333333332</ele><time>2026-05-03T08:54:14.518Z</time></trkpt><trkpt lat="43.8894972" lon="12.8719964"><ele>13.666666666666666</ele><time>2026-05-03T08:54:15.52Z</time></trkpt><trkpt lat="43.8894155" lon="12.8717737"><ele>15.0</ele><time>2026-05-03T08:54:16.519Z</time></trkpt><trkpt lat="43.8893389" lon="12.8715529"><ele>15.666666666666668</ele><time>2026-05-03T08:54:17.518Z</time></trkpt><trkpt lat="43.8892549" lon="12.871333"><ele>16.333333333333336</ele><time>2026-05-03T08:54:18.517Z</time></trkpt><trkpt lat="43.8891745" lon="12.8711147"><ele>17.0</ele><time>2026-05-03T08:54:19.518Z</time></trkpt><trkpt lat="43.889097" lon="12.8709034"><ele>17.333333333333336</ele><time>2026-05-03T08:54:20.518Z</time></trkpt><trkpt lat="43.8890235" lon="12.870704"><ele>17.666666666666668</ele><time>2026-05-03T08:54:21.523Z</time></trkpt><trkpt lat="43.8889521" lon="12.8705045"><ele>18.0</ele><time>2026-05-03T08:54:22.519Z</time></trkpt><trkpt lat="43.8888858" lon="12.8703126"><ele>18.0</ele><time>2026-05-03T08:54:23.511Z</time></trkpt><trkpt lat="43.8888276" lon="12.8701313"><ele>18.0</ele><time>2026-05-03T08:54:24.518Z</time></trkpt><trkpt lat="43.88877" lon="12.8699641"><ele>18.0</ele><time>2026-05-03T08:54:25.518Z</time></trkpt><trkpt lat="43.8887162" lon="12.8698097"><ele>18.0</ele><time>2026-05-03T08:54:26.518Z</time></trkpt><trkpt lat="43.888667" lon="12.8696758"><ele>17.666666666666668</ele><time>2026-05-03T08:54:27.52Z</time></trkpt><trkpt lat="43.8886288" lon="12.869561"><ele>17.333333333333332</ele><time>2026-05-03T08:54:28.518Z</time></trkpt><trkpt lat="43.8886009" lon="12.8694506"><ele>17.0</ele><time>2026-05-03T08:54:29.518Z</time></trkpt><trkpt lat="43.8885812" lon="12.8693519"><ele>16.666666666666664</ele><time>2026-05-03T08:54:30.517Z</time></trkpt><trkpt lat="43.888588" lon="12.8692366"><ele>16.333333333333332</ele><time>2026-05-03T08:54:31.518Z</time></trkpt><trkpt lat="43.8886029" lon="12.8691094"><ele>16.0</ele><time>2026-05-03T08:54:32.526Z</time></trkpt><trkpt lat="43.8885955" lon="12.8689715"><ele>15.8</ele><time>2026-05-03T08:54:33.518Z</time></trkpt><trkpt lat="43.8885607" lon="12.8688486"><ele>15.600000000000001</ele><time>2026-05-03T08:54:34.518Z</time></trkpt><trkpt lat="43.8884949" lon="12.8687299"><ele>15.4</ele><time>2026-05-03T08:54:35.517Z</time></trkpt><trkpt lat="43.8884059" lon="12.8686339"><ele>15.2</ele><time>2026-05-03T08:54:36.517Z</time></trkpt><trkpt lat="43.8883102" lon="12.8685345"><ele>15.0</ele><time>2026-05-03T08:54:37.517Z</time></trkpt><trkpt lat="43.8882125" lon="12.8683975"><ele>15.666666666666668</ele><time>2026-05-03T08:54:38.512Z</time></trkpt><trkpt lat="43.8881173" lon="12.8682209"><ele>16.333333333333336</ele><time>2026-05-03T08:54:39.518Z</time></trkpt><trkpt lat="43.8880257" lon="12.8680146"><ele>17.0</ele><time>2026-05-03T08:54:40.514Z</time></trkpt><trkpt lat="43.8879389" lon="12.8678016"><ele>16.333333333333336</ele><time>2026-05-03T08:54:41.517Z</time></trkpt><trkpt lat="43.8878494" lon="12.8675721"><ele>15.666666666666668</ele><time>2026-05-03T08:54:42.518Z</time></trkpt><trkpt lat="43.8877614" lon="12.8673291"><ele>15.0</ele><time>2026-05-03T08:54:43.519Z</time></trkpt><trkpt lat="43.8876704" lon="12.8670841"><ele>15.333333333333332</ele><time>2026-05-03T08:54:44.519Z</time></trkpt><trkpt lat="43.8875818" lon="12.866848"><ele>15.666666666666666</ele><time>2026-05-03T08:54:45.518Z</time></trkpt><trkpt lat="43.8874945" lon="12.8666205"><ele>16.0</ele><time>2026-05-03T08:54:46.516Z</time></trkpt><trkpt lat="43.8874101" lon="12.8663956"><ele>16.333333333333332</ele><time>2026-05-03T08:54:47.514Z</time></trkpt><trkpt lat="43.8873267" lon="12.8661752"><ele>16.666666666666668</ele><time>2026-05-03T08:54:48.518Z</time></trkpt><trkpt lat="43.8872491" lon="12.8659618"><ele>17.0</ele><time>2026-05-03T08:54:49.519Z</time></trkpt><trkpt lat="43.8871716" lon="12.8657572"><ele>17.333333333333336</ele><time>2026-05-03T08:54:50.517Z</time></trkpt><trkpt lat="43.8870955" lon="12.8655481"><ele>17.666666666666668</ele><time>2026-05-03T08:54:51.518Z</time></trkpt><trkpt lat="43.887018" lon="12.8653347"><ele>18.0</ele><time>2026-05-03T08:54:52.519Z</time></trkpt><trkpt lat="43.8869414" lon="12.8651289"><ele>18.0</ele><time>2026-05-03T08:54:53.518Z</time></trkpt><trkpt lat="43.8868651" lon="12.8649208"><ele>18.0</ele><time>2026-05-03T08:54:54.517Z</time></trkpt><trkpt lat="43.8867835" lon="12.8647125"><ele>18.0</ele><time>2026-05-03T08:54:55.519Z</time></trkpt><trkpt lat="43.8866955" lon="12.8645036"><ele>18.333333333333332</ele><time>2026-05-03T08:54:56.517Z</time></trkpt><trkpt lat="43.8866034" lon="12.8643"><ele>18.666666666666664</ele><time>2026-05-03T08:54:57.517Z</time></trkpt><trkpt lat="43.8865081" lon="12.8640967"><ele>19.0</ele><time>2026-05-03T08:54:58.518Z</time></trkpt><trkpt lat="43.8864082" lon="12.8638984"><ele>19.0</ele><time>2026-05-03T08:54:59.518Z</time></trkpt><trkpt lat="43.8863132" lon="12.8637021"><ele>19.0</ele><time>2026-05-03T08:55:00.518Z</time></trkpt><trkpt lat="43.886209" lon="12.8635078"><ele>19.0</ele><time>2026-05-03T08:55:01.518Z</time></trkpt><trkpt lat="43.8861098" lon="12.8633205"><ele>18.666666666666664</ele><time>2026-05-03T08:55:02.519Z</time></trkpt><trkpt lat="43.8860074" lon="12.8631323"><ele>18.333333333333332</ele><time>2026-05-03T08:55:03.516Z</time></trkpt><trkpt lat="43.8859129" lon="12.8629509"><ele>18.0</ele><time>2026-05-03T08:55:04.519Z</time></trkpt><trkpt lat="43.8858233" lon="12.8627783"><ele>18.0</ele><time>2026-05-03T08:55:05.516Z</time></trkpt><trkpt lat="43.8857379" lon="12.8626163"><ele>18.0</ele><time>2026-05-03T08:55:06.517Z</time></trkpt><trkpt lat="43.8856533" lon="12.8624609"><ele>18.0</ele><time>2026-05-03T08:55:07.655Z</time></trkpt><trkpt lat="43.8854922" lon="12.8621647"><ele>18.2</ele><time>2026-05-03T08:55:09.519Z</time></trkpt><trkpt lat="43.8854177" lon="12.8620305"><ele>18.4</ele><time>2026-05-03T08:55:10.515Z</time></trkpt><trkpt lat="43.8853593" lon="12.8619038"><ele>18.599999999999998</ele><time>2026-05-03T08:55:11.517Z</time></trkpt><trkpt lat="43.8853239" lon="12.8617817"><ele>18.8</ele><time>2026-05-03T08:55:12.51Z</time></trkpt><trkpt lat="43.8853105" lon="12.861645"><ele>19.0</ele><time>2026-05-03T08:55:13.518Z</time></trkpt><trkpt lat="43.8852893" lon="12.8615142"><ele>19.0</ele><time>2026-05-03T08:55:14.519Z</time></trkpt><trkpt lat="43.8852397" lon="12.8613834"><ele>19.0</ele><time>2026-05-03T08:55:15.518Z</time></trkpt><trkpt lat="43.8851694" lon="12.8612797"><ele>19.0</ele><time>2026-05-03T08:55:16.517Z</time></trkpt><trkpt lat="43.8850787" lon="12.8611886"><ele>19.0</ele><time>2026-05-03T08:55:17.518Z</time></trkpt><trkpt lat="43.884979" lon="12.8610948"><ele>19.0</ele><time>2026-05-03T08:55:18.525Z</time></trkpt><trkpt lat="43.884876" lon="12.8609633"><ele>20.333333333333332</ele><time>2026-05-03T08:55:19.518Z</time></trkpt><trkpt lat="43.8847738" lon="12.8608075"><ele>21.666666666666668</ele><time>2026-05-03T08:55:20.518Z</time></trkpt><trkpt lat="43.8846687" lon="12.8606343"><ele>23.0</ele><time>2026-05-03T08:55:21.518Z</time></trkpt><trkpt lat="43.8845563" lon="12.8604435"><ele>23.0</ele><time>2026-05-03T08:55:22.518Z</time></trkpt><trkpt lat="43.8844457" lon="12.8602495"><ele>23.0</ele><time>2026-05-03T08:55:23.519Z</time></trkpt><trkpt lat="43.8843296" lon="12.8600482"><ele>23.0</ele><time>2026-05-03T08:55:24.518Z</time></trkpt><trkpt lat="43.884211" lon="12.8598365"><ele>22.666666666666668</ele><time>2026-05-03T08:55:25.515Z</time></trkpt><trkpt lat="43.8840933" lon="12.8596178"><ele>22.333333333333332</ele><time>2026-05-03T08:55:26.518Z</time></trkpt><trkpt lat="43.8839701" lon="12.8593892"><ele>22.0</ele><time>2026-05-03T08:55:27.51Z</time></trkpt><trkpt lat="43.8838433" lon="12.8591675"><ele>22.0</ele><time>2026-05-03T08:55:28.519Z</time></trkpt><trkpt lat="43.8837266" lon="12.8589413"><ele>22.0</ele><time>2026-05-03T08:55:29.519Z</time></trkpt><trkpt lat="43.8836084" lon="12.8587088"><ele>22.0</ele><time>2026-05-03T08:55:30.518Z</time></trkpt><trkpt lat="43.8834808" lon="12.8584815"><ele>21.666666666666664</ele><time>2026-05-03T08:55:31.517Z</time></trkpt><trkpt lat="43.8833615" lon="12.8582455"><ele>21.333333333333332</ele><time>2026-05-03T08:55:32.517Z</time></trkpt><trkpt lat="43.8832375" lon="12.8580064"><ele>21.0</ele><time>2026-05-03T08:55:33.517Z</time></trkpt><trkpt lat="43.8831249" lon="12.8577982"><ele>21.0</ele><time>2026-05-03T08:55:34.517Z</time></trkpt><trkpt lat="43.8830079" lon="12.8575791"><ele>21.0</ele><time>2026-05-03T08:55:35.518Z</time></trkpt><trkpt lat="43.8828887" lon="12.8573634"><ele>21.0</ele><time>2026-05-03T08:55:36.518Z</time></trkpt><trkpt lat="43.8827658" lon="12.8571363"><ele>21.0</ele><time>2026-05-03T08:55:37.518Z</time></trkpt><trkpt lat="43.8826303" lon="12.8569071"><ele>21.0</ele><time>2026-05-03T08:55:38.517Z</time></trkpt><trkpt lat="43.8825116" lon="12.8566876"><ele>21.0</ele><time>2026-05-03T08:55:39.518Z</time></trkpt><trkpt lat="43.8823724" lon="12.8564362"><ele>21.333333333333332</ele><time>2026-05-03T08:55:40.517Z</time></trkpt><trkpt lat="43.8822418" lon="12.8561993"><ele>21.666666666666664</ele><time>2026-05-03T08:55:41.516Z</time></trkpt><trkpt lat="43.8821072" lon="12.8559613"><ele>22.0</ele><time>2026-05-03T08:55:42.519Z</time></trkpt><trkpt lat="43.8819775" lon="12.8557209"><ele>22.0</ele><time>2026-05-03T08:55:43.517Z</time></trkpt><trkpt lat="43.8818449" lon="12.8554854"><ele>22.0</ele><time>2026-05-03T08:55:44.518Z</time></trkpt><trkpt lat="43.8817176" lon="12.8552534"><ele>22.0</ele><time>2026-05-03T08:55:45.518Z</time></trkpt><trkpt lat="43.8815897" lon="12.8550184"><ele>22.333333333333332</ele><time>2026-05-03T08:55:46.517Z</time></trkpt><trkpt lat="43.8814632" lon="12.8547892"><ele>22.666666666666668</ele><time>2026-05-03T08:55:47.508Z</time></trkpt><trkpt lat="43.8813386" lon="12.8545576"><ele>23.0</ele><time>2026-05-03T08:55:48.515Z</time></trkpt><trkpt lat="43.881215" lon="12.8543235"><ele>23.0</ele><time>2026-05-03T08:55:49.519Z</time></trkpt><trkpt lat="43.8810929" lon="12.8540887"><ele>23.0</ele><time>2026-05-03T08:55:50.52Z</time></trkpt><trkpt lat="43.880966" lon="12.8538548"><ele>23.0</ele><time>2026-05-03T08:55:51.518Z</time></trkpt><trkpt lat="43.8808367" lon="12.8536149"><ele>22.0</ele><time>2026-05-03T08:55:52.517Z</time></trkpt><trkpt lat="43.8807034" lon="12.8533733"><ele>21.0</ele><time>2026-05-03T08:55:53.519Z</time></trkpt><trkpt lat="43.8805694" lon="12.8531279"><ele>20.0</ele><time>2026-05-03T08:55:54.517Z</time></trkpt><trkpt lat="43.8804363" lon="12.8528821"><ele>20.0</ele><time>2026-05-03T08:55:55.521Z</time></trkpt><trkpt lat="43.8803005" lon="12.8526357"><ele>20.0</ele><time>2026-05-03T08:55:56.518Z</time></trkpt><trkpt lat="43.8801635" lon="12.8523812"><ele>21.0</ele><time>2026-05-03T08:55:57.516Z</time></trkpt><trkpt lat="43.880029" lon="12.8521293"><ele>22.0</ele><time>2026-05-03T08:55:58.518Z</time></trkpt><trkpt lat="43.8798918" lon="12.8518807"><ele>21.0</ele><time>2026-05-03T08:55:59.517Z</time></trkpt><trkpt lat="43.8797585" lon="12.8516368"><ele>20.0</ele><time>2026-05-03T08:56:00.518Z</time></trkpt><trkpt lat="43.8796276" lon="12.8513742"><ele>20.0</ele><time>2026-05-03T08:56:01.517Z</time></trkpt><trkpt lat="43.8794824" lon="12.8511344"><ele>20.0</ele><time>2026-05-03T08:56:02.512Z</time></trkpt><trkpt lat="43.8793461" lon="12.8508864"><ele>23.5</ele><time>2026-05-03T08:56:03.516Z</time></trkpt><trkpt lat="43.8792066" lon="12.8506385"><ele>27.0</ele><time>2026-05-03T08:56:04.517Z</time></trkpt><trkpt lat="43.879067" lon="12.8503857"><ele>27.0</ele><time>2026-05-03T08:56:05.517Z</time></trkpt><trkpt lat="43.8789292" lon="12.8501347"><ele>27.0</ele><time>2026-05-03T08:56:06.515Z</time></trkpt><trkpt lat="43.8787963" lon="12.8498739"><ele>26.5</ele><time>2026-05-03T08:56:07.516Z</time></trkpt><trkpt lat="43.878661" lon="12.8496101"><ele>26.0</ele><time>2026-05-03T08:56:08.517Z</time></trkpt><trkpt lat="43.8785229" lon="12.8493556"><ele>24.5</ele><time>2026-05-03T08:56:09.518Z</time></trkpt><trkpt lat="43.878384" lon="12.8490996"><ele>23.0</ele><time>2026-05-03T08:56:10.515Z</time></trkpt><trkpt lat="43.8782361" lon="12.8488428"><ele>23.0</ele><time>2026-05-03T08:56:11.518Z</time></trkpt><trkpt lat="43.8781004" lon="12.8485919"><ele>23.0</ele><time>2026-05-03T08:56:12.517Z</time></trkpt><trkpt lat="43.8779601" lon="12.8483323"><ele>23.0</ele><time>2026-05-03T08:56:13.517Z</time></trkpt><trkpt lat="43.877815" lon="12.8480684"><ele>23.0</ele><time>2026-05-03T08:56:14.518Z</time></trkpt><trkpt lat="43.8776714" lon="12.8478012"><ele>22.5</ele><time>2026-05-03T08:56:15.514Z</time></trkpt><trkpt lat="43.8775241" lon="12.8475333"><ele>22.0</ele><time>2026-05-03T08:56:16.517Z</time></trkpt><trkpt lat="43.8773774" lon="12.8472665"><ele>22.0</ele><time>2026-05-03T08:56:17.518Z</time></trkpt><trkpt lat="43.8772284" lon="12.8469947"><ele>22.0</ele><time>2026-05-03T08:56:18.517Z</time></trkpt><trkpt lat="43.8770752" lon="12.8467198"><ele>22.5</ele><time>2026-05-03T08:56:19.517Z</time></trkpt><trkpt lat="43.8769277" lon="12.8464493"><ele>23.0</ele><time>2026-05-03T08:56:20.517Z</time></trkpt><trkpt lat="43.8767824" lon="12.8461788"><ele>23.0</ele><time>2026-05-03T08:56:21.517Z</time></trkpt><trkpt lat="43.8766375" lon="12.8459027"><ele>23.0</ele><time>2026-05-03T08:56:22.517Z</time></trkpt><trkpt lat="43.8764931" lon="12.8456341"><ele>23.0</ele><time>2026-05-03T08:56:23.517Z</time></trkpt><trkpt lat="43.8763476" lon="12.8453637"><ele>23.0</ele><time>2026-05-03T08:56:24.517Z</time></trkpt><trkpt lat="43.8762035" lon="12.8450952"><ele>23.5</ele><time>2026-05-03T08:56:25.517Z</time></trkpt><trkpt lat="43.8760593" lon="12.8448275"><ele>24.0</ele><time>2026-05-03T08:56:26.52Z</time></trkpt><trkpt lat="43.8759122" lon="12.8445578"><ele>24.0</ele><time>2026-05-03T08:56:27.517Z</time></trkpt><trkpt lat="43.8757632" lon="12.8442913"><ele>24.0</ele><time>2026-05-03T08:56:28.517Z</time></trkpt><trkpt lat="43.8756199" lon="12.8440188"><ele>24.0</ele><time>2026-05-03T08:56:29.517Z</time></trkpt><trkpt lat="43.8754704" lon="12.8437528"><ele>24.0</ele><time>2026-05-03T08:56:30.517Z</time></trkpt><trkpt lat="43.8753196" lon="12.8434811"><ele>25.0</ele><time>2026-05-03T08:56:31.517Z</time></trkpt><trkpt lat="43.8751679" lon="12.8432097"><ele>26.0</ele><time>2026-05-03T08:56:32.517Z</time></trkpt><trkpt lat="43.8750259" lon="12.8429441"><ele>26.0</ele><time>2026-05-03T08:56:33.518Z</time></trkpt><trkpt lat="43.8748845" lon="12.8426803"><ele>26.0</ele><time>2026-05-03T08:56:34.518Z</time></trkpt><trkpt lat="43.8747449" lon="12.8424167"><ele>26.0</ele><time>2026-05-03T08:56:35.519Z</time></trkpt><trkpt lat="43.874604" lon="12.8421608"><ele>26.0</ele><time>2026-05-03T08:56:36.518Z</time></trkpt><trkpt lat="43.8744674" lon="12.8419222"><ele>26.0</ele><time>2026-05-03T08:56:37.519Z</time></trkpt><trkpt lat="43.8743309" lon="12.8416893"><ele>26.0</ele><time>2026-05-03T08:56:38.518Z</time></trkpt><trkpt lat="43.8742002" lon="12.8414677"><ele>26.0</ele><time>2026-05-03T08:56:39.517Z</time></trkpt><trkpt lat="43.8740814" lon="12.8412455"><ele>26.0</ele><time>2026-05-03T08:56:40.517Z</time></trkpt><trkpt lat="43.873961" lon="12.8410175"><ele>26.0</ele><time>2026-05-03T08:56:41.519Z</time></trkpt><trkpt lat="43.8738384" lon="12.8407873"><ele>26.0</ele><time>2026-05-03T08:56:42.515Z</time></trkpt><trkpt lat="43.8737113" lon="12.8405543"><ele>26.333333333333332</ele><time>2026-05-03T08:56:43.519Z</time></trkpt><trkpt lat="43.8735839" lon="12.8403099"><ele>26.666666666666664</ele><time>2026-05-03T08:56:44.514Z</time></trkpt><trkpt lat="43.8734493" lon="12.8400646"><ele>27.0</ele><time>2026-05-03T08:56:45.519Z</time></trkpt><trkpt lat="43.8733176" lon="12.839809"><ele>27.0</ele><time>2026-05-03T08:56:46.517Z</time></trkpt><trkpt lat="43.8731933" lon="12.8395532"><ele>27.0</ele><time>2026-05-03T08:56:47.517Z</time></trkpt><trkpt lat="43.8730703" lon="12.8393023"><ele>27.0</ele><time>2026-05-03T08:56:48.514Z</time></trkpt><trkpt lat="43.8729448" lon="12.8390476"><ele>26.333333333333336</ele><time>2026-05-03T08:56:49.518Z</time></trkpt><trkpt lat="43.8728194" lon="12.8388031"><ele>25.666666666666668</ele><time>2026-05-03T08:56:50.517Z</time></trkpt><trkpt lat="43.8726922" lon="12.8385593"><ele>25.0</ele><time>2026-05-03T08:56:51.516Z</time></trkpt><trkpt lat="43.8725667" lon="12.8383176"><ele>25.0</ele><time>2026-05-03T08:56:52.518Z</time></trkpt><trkpt lat="43.8724446" lon="12.8380798"><ele>25.0</ele><time>2026-05-03T08:56:53.516Z</time></trkpt><trkpt lat="43.8723263" lon="12.8378424"><ele>25.0</ele><time>2026-05-03T08:56:54.517Z</time></trkpt><trkpt lat="43.8722114" lon="12.8376118"><ele>24.333333333333336</ele><time>2026-05-03T08:56:55.518Z</time></trkpt><trkpt lat="43.8720932" lon="12.8373795"><ele>23.666666666666668</ele><time>2026-05-03T08:56:56.52Z</time></trkpt><trkpt lat="43.871974" lon="12.837146"><ele>23.0</ele><time>2026-05-03T08:56:57.516Z</time></trkpt><trkpt lat="43.8718599" lon="12.8369192"><ele>23.666666666666668</ele><time>2026-05-03T08:56:58.518Z</time></trkpt><trkpt lat="43.8717487" lon="12.8366953"><ele>24.333333333333336</ele><time>2026-05-03T08:56:59.517Z</time></trkpt><trkpt lat="43.8716395" lon="12.8364819"><ele>25.0</ele><time>2026-05-03T08:57:00.517Z</time></trkpt><trkpt lat="43.8715381" lon="12.836279"><ele>25.0</ele><time>2026-05-03T08:57:01.518Z</time></trkpt><trkpt lat="43.8714337" lon="12.8360798"><ele>25.0</ele><time>2026-05-03T08:57:02.518Z</time></trkpt><trkpt lat="43.8713254" lon="12.83587"><ele>25.0</ele><time>2026-05-03T08:57:03.518Z</time></trkpt><trkpt lat="43.8712107" lon="12.8356373"><ele>25.0</ele><time>2026-05-03T08:57:04.518Z</time></trkpt><trkpt lat="43.8710939" lon="12.8353909"><ele>25.0</ele><time>2026-05-03T08:57:05.519Z</time></trkpt><trkpt lat="43.8709759" lon="12.8351458"><ele>25.0</ele><time>2026-05-03T08:57:06.518Z</time></trkpt><trkpt lat="43.8708581" lon="12.8349037"><ele>26.666666666666668</ele><time>2026-05-03T08:57:07.518Z</time></trkpt><trkpt lat="43.8707376" lon="12.8346605"><ele>28.333333333333336</ele><time>2026-05-03T08:57:08.519Z</time></trkpt><trkpt lat="43.8706223" lon="12.8344215"><ele>30.0</ele><time>2026-05-03T08:57:09.514Z</time></trkpt><trkpt lat="43.8705021" lon="12.834181"><ele>30.0</ele><time>2026-05-03T08:57:10.515Z</time></trkpt><trkpt lat="43.8703874" lon="12.8339493"><ele>30.0</ele><time>2026-05-03T08:57:11.517Z</time></trkpt><trkpt lat="43.8702729" lon="12.8337177"><ele>30.0</ele><time>2026-05-03T08:57:12.517Z</time></trkpt><trkpt lat="43.8701604" lon="12.8334935"><ele>28.666666666666664</ele><time>2026-05-03T08:57:13.517Z</time></trkpt><trkpt lat="43.8700524" lon="12.8332771"><ele>27.333333333333332</ele><time>2026-05-03T08:57:14.517Z</time></trkpt><trkpt lat="43.8699505" lon="12.8330708"><ele>26.0</ele><time>2026-05-03T08:57:15.519Z</time></trkpt><trkpt lat="43.8698577" lon="12.8328842"><ele>26.0</ele><time>2026-05-03T08:57:16.517Z</time></trkpt><trkpt lat="43.8697628" lon="12.8326917"><ele>26.0</ele><time>2026-05-03T08:57:17.517Z</time></trkpt><trkpt lat="43.8696705" lon="12.8325048"><ele>26.0</ele><time>2026-05-03T08:57:18.517Z</time></trkpt><trkpt lat="43.8695775" lon="12.8323295"><ele>26.25</ele><time>2026-05-03T08:57:19.517Z</time></trkpt><trkpt lat="43.8694923" lon="12.8321667"><ele>26.5</ele><time>2026-05-03T08:57:20.518Z</time></trkpt><trkpt lat="43.8694125" lon="12.8320064"><ele>26.75</ele><time>2026-05-03T08:57:21.517Z</time></trkpt><trkpt lat="43.8693297" lon="12.8318537"><ele>27.0</ele><time>2026-05-03T08:57:22.518Z</time></trkpt><trkpt lat="43.8692447" lon="12.8317092"><ele>27.0</ele><time>2026-05-03T08:57:23.518Z</time></trkpt><trkpt lat="43.8691583" lon="12.83156"><ele>27.0</ele><time>2026-05-03T08:57:24.515Z</time></trkpt><trkpt lat="43.8690697" lon="12.8314087"><ele>27.0</ele><time>2026-05-03T08:57:25.518Z</time></trkpt><trkpt lat="43.8689752" lon="12.8312521"><ele>27.0</ele><time>2026-05-03T08:57:26.518Z</time></trkpt><trkpt lat="43.8688938" lon="12.831096"><ele>27.0</ele><time>2026-05-03T08:57:27.517Z</time></trkpt><trkpt lat="43.8687981" lon="12.8309358"><ele>27.0</ele><time>2026-05-03T08:57:28.519Z</time></trkpt><trkpt lat="43.8686956" lon="12.8307732"><ele>27.0</ele><time>2026-05-03T08:57:29.519Z</time></trkpt><trkpt lat="43.8685827" lon="12.8305893"><ele>27.0</ele><time>2026-05-03T08:57:30.518Z</time></trkpt><trkpt lat="43.8684602" lon="12.8303785"><ele>27.0</ele><time>2026-05-03T08:57:31.519Z</time></trkpt><trkpt lat="43.8683415" lon="12.8301622"><ele>27.0</ele><time>2026-05-03T08:57:32.517Z</time></trkpt><trkpt lat="43.868231" lon="12.8299512"><ele>27.333333333333336</ele><time>2026-05-03T08:57:33.517Z</time></trkpt><trkpt lat="43.8681176" lon="12.8297395"><ele>27.666666666666668</ele><time>2026-05-03T08:57:34.518Z</time></trkpt><trkpt lat="43.8680017" lon="12.8295396"><ele>28.0</ele><time>2026-05-03T08:57:35.518Z</time></trkpt><trkpt lat="43.8678869" lon="12.8293344"><ele>28.0</ele><time>2026-05-03T08:57:36.519Z</time></trkpt><trkpt lat="43.8677683" lon="12.8291414"><ele>28.0</ele><time>2026-05-03T08:57:37.517Z</time></trkpt><trkpt lat="43.8676575" lon="12.8289401"><ele>28.0</ele><time>2026-05-03T08:57:38.516Z</time></trkpt><trkpt lat="43.8675455" lon="12.8287517"><ele>28.0</ele><time>2026-05-03T08:57:39.519Z</time></trkpt><trkpt lat="43.8674273" lon="12.8285565"><ele>28.0</ele><time>2026-05-03T08:57:40.514Z</time></trkpt><trkpt lat="43.8673133" lon="12.8283631"><ele>28.0</ele><time>2026-05-03T08:57:41.517Z</time></trkpt><trkpt lat="43.8671975" lon="12.8281677"><ele>28.333333333333336</ele><time>2026-05-03T08:57:42.518Z</time></trkpt><trkpt lat="43.8670865" lon="12.8279747"><ele>28.666666666666664</ele><time>2026-05-03T08:57:43.517Z</time></trkpt><trkpt lat="43.8669696" lon="12.827779"><ele>29.0</ele><time>2026-05-03T08:57:44.517Z</time></trkpt><trkpt lat="43.866852" lon="12.8275785"><ele>28.666666666666664</ele><time>2026-05-03T08:57:45.518Z</time></trkpt><trkpt lat="43.8667356" lon="12.8273783"><ele>28.333333333333336</ele><time>2026-05-03T08:57:46.518Z</time></trkpt><trkpt lat="43.8666197" lon="12.8271781"><ele>28.0</ele><time>2026-05-03T08:57:47.511Z</time></trkpt><trkpt lat="43.866502" lon="12.826972"><ele>28.0</ele><time>2026-05-03T08:57:48.517Z</time></trkpt><trkpt lat="43.8663834" lon="12.8267659"><ele>28.0</ele><time>2026-05-03T08:57:49.517Z</time></trkpt><trkpt lat="43.8662659" lon="12.8265565"><ele>28.0</ele><time>2026-05-03T08:57:50.517Z</time></trkpt><trkpt lat="43.8661501" lon="12.8263458"><ele>28.0</ele><time>2026-05-03T08:57:51.515Z</time></trkpt><trkpt lat="43.8660267" lon="12.8261394"><ele>28.0</ele><time>2026-05-03T08:57:52.517Z</time></trkpt><trkpt lat="43.8659028" lon="12.8259291"><ele>28.0</ele><time>2026-05-03T08:57:53.512Z</time></trkpt><trkpt lat="43.8657786" lon="12.8257202"><ele>28.666666666666668</ele><time>2026-05-03T08:57:54.519Z</time></trkpt><trkpt lat="43.8656537" lon="12.8255081"><ele>29.333333333333336</ele><time>2026-05-03T08:57:55.516Z</time></trkpt><trkpt lat="43.8655213" lon="12.8253037"><ele>30.0</ele><time>2026-05-03T08:57:56.521Z</time></trkpt><trkpt lat="43.8654" lon="12.825089"><ele>30.0</ele><time>2026-05-03T08:57:57.647Z</time></trkpt><trkpt lat="43.8651488" lon="12.8246509"><ele>30.0</ele><time>2026-05-03T08:57:59.515Z</time></trkpt><trkpt lat="43.8650186" lon="12.8244293"><ele>30.0</ele><time>2026-05-03T08:58:00.51Z</time></trkpt><trkpt lat="43.8648929" lon="12.8242079"><ele>30.0</ele><time>2026-05-03T08:58:01.515Z</time></trkpt><trkpt lat="43.86477" lon="12.8239881"><ele>30.0</ele><time>2026-05-03T08:58:02.517Z</time></trkpt><trkpt lat="43.8646524" lon="12.8237744"><ele>30.0</ele><time>2026-05-03T08:58:03.519Z</time></trkpt><trkpt lat="43.8645282" lon="12.8235558"><ele>30.0</ele><time>2026-05-03T08:58:04.518Z</time></trkpt><trkpt lat="43.8644172" lon="12.8233386"><ele>30.0</ele><time>2026-05-03T08:58:05.516Z</time></trkpt><trkpt lat="43.8642957" lon="12.8231329"><ele>30.666666666666664</ele><time>2026-05-03T08:58:06.518Z</time></trkpt><trkpt lat="43.8641769" lon="12.8229201"><ele>31.333333333333332</ele><time>2026-05-03T08:58:07.517Z</time></trkpt><trkpt lat="43.8640609" lon="12.8227104"><ele>32.0</ele><time>2026-05-03T08:58:08.517Z</time></trkpt><trkpt lat="43.8639416" lon="12.822497"><ele>32.33333333333333</ele><time>2026-05-03T08:58:09.517Z</time></trkpt><trkpt lat="43.8638253" lon="12.822282"><ele>32.666666666666664</ele><time>2026-05-03T08:58:10.515Z</time></trkpt><trkpt lat="43.8637179" lon="12.8220712"><ele>33.0</ele><time>2026-05-03T08:58:11.518Z</time></trkpt><trkpt lat="43.8636066" lon="12.821854"><ele>32.666666666666664</ele><time>2026-05-03T08:58:12.505Z</time></trkpt><trkpt lat="43.8634957" lon="12.8216313"><ele>32.33333333333333</ele><time>2026-05-03T08:58:13.514Z</time></trkpt><trkpt lat="43.8633851" lon="12.8214104"><ele>32.0</ele><time>2026-05-03T08:58:14.517Z</time></trkpt><trkpt lat="43.8632732" lon="12.8211862"><ele>32.33333333333333</ele><time>2026-05-03T08:58:15.521Z</time></trkpt><trkpt lat="43.8631583" lon="12.8209598"><ele>32.666666666666664</ele><time>2026-05-03T08:58:16.515Z</time></trkpt><trkpt lat="43.8630416" lon="12.8207388"><ele>33.0</ele><time>2026-05-03T08:58:17.517Z</time></trkpt><trkpt lat="43.862933" lon="12.8205278"><ele>33.0</ele><time>2026-05-03T08:58:18.516Z</time></trkpt><trkpt lat="43.8628318" lon="12.8203288"><ele>33.0</ele><time>2026-05-03T08:58:19.517Z</time></trkpt><trkpt lat="43.8627297" lon="12.8201373"><ele>33.0</ele><time>2026-05-03T08:58:20.518Z</time></trkpt><trkpt lat="43.862636" lon="12.8199569"><ele>32.666666666666664</ele><time>2026-05-03T08:58:21.516Z</time></trkpt><trkpt lat="43.8625392" lon="12.8197687"><ele>32.33333333333333</ele><time>2026-05-03T08:58:22.523Z</time></trkpt><trkpt lat="43.8624399" lon="12.8195758"><ele>32.0</ele><time>2026-05-03T08:58:23.517Z</time></trkpt><trkpt lat="43.8623572" lon="12.8193991"><ele>31.5</ele><time>2026-05-03T08:58:24.517Z</time></trkpt><trkpt lat="43.862272" lon="12.8192224"><ele>31.0</ele><time>2026-05-03T08:58:25.517Z</time></trkpt><trkpt lat="43.8621867" lon="12.8190442"><ele>30.5</ele><time>2026-05-03T08:58:26.522Z</time></trkpt><trkpt lat="43.862109" lon="12.8188801"><ele>30.0</ele><time>2026-05-03T08:58:27.517Z</time></trkpt><trkpt lat="43.8620334" lon="12.8187163"><ele>30.0</ele><time>2026-05-03T08:58:28.514Z</time></trkpt><trkpt lat="43.8619571" lon="12.818561"><ele>30.0</ele><time>2026-05-03T08:58:29.517Z</time></trkpt><trkpt lat="43.8618805" lon="12.818415"><ele>30.0</ele><time>2026-05-03T08:58:30.508Z</time></trkpt><trkpt lat="43.8618124" lon="12.8182692"><ele>30.0</ele><time>2026-05-03T08:58:31.516Z</time></trkpt><trkpt lat="43.8617582" lon="12.8181245"><ele>29.6</ele><time>2026-05-03T08:58:32.515Z</time></trkpt><trkpt lat="43.861729" lon="12.8179762"><ele>29.2</ele><time>2026-05-03T08:58:33.515Z</time></trkpt><trkpt lat="43.8617153" lon="12.8178204"><ele>28.799999999999997</ele><time>2026-05-03T08:58:34.52Z</time></trkpt><trkpt lat="43.8616945" lon="12.8176739"><ele>28.4</ele><time>2026-05-03T08:58:35.507Z</time></trkpt><trkpt lat="43.861655" lon="12.8175454"><ele>28.0</ele><time>2026-05-03T08:58:36.514Z</time></trkpt><trkpt lat="43.8615832" lon="12.8174369"><ele>28.0</ele><time>2026-05-03T08:58:37.517Z</time></trkpt><trkpt lat="43.86148" lon="12.8173558"><ele>28.0</ele><time>2026-05-03T08:58:38.515Z</time></trkpt><trkpt lat="43.8613539" lon="12.8172593"><ele>28.0</ele><time>2026-05-03T08:58:39.514Z</time></trkpt><trkpt lat="43.8612149" lon="12.8171113"><ele>28.0</ele><time>2026-05-03T08:58:40.517Z</time></trkpt><trkpt lat="43.8610527" lon="12.8168857"><ele>29.5</ele><time>2026-05-03T08:58:41.515Z</time></trkpt><trkpt lat="43.8608924" lon="12.8166082"><ele>31.0</ele><time>2026-05-03T08:58:42.514Z</time></trkpt><trkpt lat="43.8607242" lon="12.8162787"><ele>30.5</ele><time>2026-05-03T08:58:43.515Z</time></trkpt><trkpt lat="43.8605478" lon="12.8159339"><ele>30.0</ele><time>2026-05-03T08:58:44.513Z</time></trkpt><trkpt lat="43.860373" lon="12.8155982"><ele>30.0</ele><time>2026-05-03T08:58:45.516Z</time></trkpt><trkpt lat="43.8602025" lon="12.8152653"><ele>30.0</ele><time>2026-05-03T08:58:46.507Z</time></trkpt><trkpt lat="43.860048" lon="12.8149694"><ele>31.0</ele><time>2026-05-03T08:58:47.515Z</time></trkpt><trkpt lat="43.8599032" lon="12.8146877"><ele>32.0</ele><time>2026-05-03T08:58:48.515Z</time></trkpt><trkpt lat="43.859759" lon="12.8144182"><ele>31.666666666666664</ele><time>2026-05-03T08:58:49.516Z</time></trkpt><trkpt lat="43.8596415" lon="12.8141828"><ele>31.333333333333336</ele><time>2026-05-03T08:58:50.515Z</time></trkpt><trkpt lat="43.8595347" lon="12.8139573"><ele>31.0</ele><time>2026-05-03T08:58:51.515Z</time></trkpt><trkpt lat="43.8594265" lon="12.8137557"><ele>31.0</ele><time>2026-05-03T08:58:52.514Z</time></trkpt><trkpt lat="43.8593263" lon="12.8135635"><ele>31.0</ele><time>2026-05-03T08:58:53.514Z</time></trkpt><trkpt lat="43.8592346" lon="12.8133873"><ele>31.0</ele><time>2026-05-03T08:58:54.516Z</time></trkpt><trkpt lat="43.8591388" lon="12.8132101"><ele>32.0</ele><time>2026-05-03T08:58:55.516Z</time></trkpt><trkpt lat="43.8590399" lon="12.8130401"><ele>33.0</ele><time>2026-05-03T08:58:56.516Z</time></trkpt><trkpt lat="43.8589343" lon="12.8128682"><ele>34.0</ele><time>2026-05-03T08:58:57.522Z</time></trkpt><trkpt lat="43.8588211" lon="12.8126988"><ele>33.0</ele><time>2026-05-03T08:58:58.515Z</time></trkpt><trkpt lat="43.8587063" lon="12.812521"><ele>32.0</ele><time>2026-05-03T08:58:59.516Z</time></trkpt><trkpt lat="43.8585929" lon="12.8123433"><ele>31.0</ele><time>2026-05-03T08:59:00.513Z</time></trkpt><trkpt lat="43.8584616" lon="12.8121574"><ele>31.333333333333336</ele><time>2026-05-03T08:59:01.516Z</time></trkpt><trkpt lat="43.8583421" lon="12.8119729"><ele>31.666666666666664</ele><time>2026-05-03T08:59:02.517Z</time></trkpt><trkpt lat="43.8582224" lon="12.8117914"><ele>32.0</ele><time>2026-05-03T08:59:03.514Z</time></trkpt><trkpt lat="43.858103" lon="12.8116218"><ele>32.666666666666664</ele><time>2026-05-03T08:59:04.517Z</time></trkpt><trkpt lat="43.8579826" lon="12.8114351"><ele>33.333333333333336</ele><time>2026-05-03T08:59:05.515Z</time></trkpt><trkpt lat="43.8578535" lon="12.8112379"><ele>34.0</ele><time>2026-05-03T08:59:06.516Z</time></trkpt><trkpt lat="43.8577276" lon="12.8110458"><ele>33.333333333333336</ele><time>2026-05-03T08:59:07.52Z</time></trkpt><trkpt lat="43.8576032" lon="12.8108573"><ele>32.666666666666664</ele><time>2026-05-03T08:59:08.517Z</time></trkpt><trkpt lat="43.8574751" lon="12.8106725"><ele>32.0</ele><time>2026-05-03T08:59:09.515Z</time></trkpt><trkpt lat="43.8573545" lon="12.810503"><ele>32.0</ele><time>2026-05-03T08:59:10.515Z</time></trkpt><trkpt lat="43.8572437" lon="12.8103438"><ele>32.0</ele><time>2026-05-03T08:59:11.51Z</time></trkpt><trkpt lat="43.8571417" lon="12.8101872"><ele>32.0</ele><time>2026-05-03T08:59:12.515Z</time></trkpt><trkpt lat="43.857035" lon="12.8100307"><ele>32.0</ele><time>2026-05-03T08:59:13.516Z</time></trkpt><trkpt lat="43.856926" lon="12.8098737"><ele>32.0</ele><time>2026-05-03T08:59:14.515Z</time></trkpt><trkpt lat="43.8568156" lon="12.8097169"><ele>32.0</ele><time>2026-05-03T08:59:15.517Z</time></trkpt><trkpt lat="43.8567026" lon="12.8095521"><ele>32.0</ele><time>2026-05-03T08:59:16.514Z</time></trkpt><trkpt lat="43.8565915" lon="12.8093863"><ele>32.0</ele><time>2026-05-03T08:59:17.516Z</time></trkpt><trkpt lat="43.8564756" lon="12.8092161"><ele>32.0</ele><time>2026-05-03T08:59:18.512Z</time></trkpt><trkpt lat="43.8563565" lon="12.8090417"><ele>32.0</ele><time>2026-05-03T08:59:19.517Z</time></trkpt><trkpt lat="43.8562315" lon="12.8088622"><ele>32.0</ele><time>2026-05-03T08:59:20.512Z</time></trkpt><trkpt lat="43.8561105" lon="12.8086836"><ele>32.0</ele><time>2026-05-03T08:59:21.515Z</time></trkpt><trkpt lat="43.8559878" lon="12.8084893"><ele>32.33333333333333</ele><time>2026-05-03T08:59:22.517Z</time></trkpt><trkpt lat="43.8558624" lon="12.8083035"><ele>32.666666666666664</ele><time>2026-05-03T08:59:23.516Z</time></trkpt><trkpt lat="43.8557317" lon="12.8081149"><ele>33.0</ele><time>2026-05-03T08:59:24.518Z</time></trkpt><trkpt lat="43.8556021" lon="12.807917"><ele>33.0</ele><time>2026-05-03T08:59:25.517Z</time></trkpt><trkpt lat="43.8554743" lon="12.8077232"><ele>33.0</ele><time>2026-05-03T08:59:26.517Z</time></trkpt><trkpt lat="43.8553529" lon="12.8075255"><ele>33.0</ele><time>2026-05-03T08:59:27.516Z</time></trkpt><trkpt lat="43.8552366" lon="12.8073207"><ele>33.333333333333336</ele><time>2026-05-03T08:59:28.517Z</time></trkpt><trkpt lat="43.8551319" lon="12.8071142"><ele>33.66666666666667</ele><time>2026-05-03T08:59:29.516Z</time></trkpt><trkpt lat="43.8550338" lon="12.8068986"><ele>34.0</ele><time>2026-05-03T08:59:30.516Z</time></trkpt><trkpt lat="43.8549394" lon="12.8066835"><ele>34.0</ele><time>2026-05-03T08:59:31.516Z</time></trkpt><trkpt lat="43.8548524" lon="12.8064648"><ele>34.0</ele><time>2026-05-03T08:59:32.516Z</time></trkpt><trkpt lat="43.8547708" lon="12.8062419"><ele>34.0</ele><time>2026-05-03T08:59:33.518Z</time></trkpt><trkpt lat="43.8546948" lon="12.806012"><ele>33.333333333333336</ele><time>2026-05-03T08:59:34.512Z</time></trkpt><trkpt lat="43.854615" lon="12.8057777"><ele>32.666666666666664</ele><time>2026-05-03T08:59:35.514Z</time></trkpt><trkpt lat="43.8545406" lon="12.8055513"><ele>32.0</ele><time>2026-05-03T08:59:36.515Z</time></trkpt><trkpt lat="43.8544624" lon="12.8053175"><ele>32.0</ele><time>2026-05-03T08:59:37.517Z</time></trkpt><trkpt lat="43.8543929" lon="12.8051017"><ele>32.0</ele><time>2026-05-03T08:59:38.519Z</time></trkpt><trkpt lat="43.8543096" lon="12.8048583"><ele>32.0</ele><time>2026-05-03T08:59:39.516Z</time></trkpt><trkpt lat="43.8542272" lon="12.8046301"><ele>32.33333333333333</ele><time>2026-05-03T08:59:40.525Z</time></trkpt><trkpt lat="43.8541476" lon="12.8043955"><ele>32.666666666666664</ele><time>2026-05-03T08:59:41.52Z</time></trkpt><trkpt lat="43.8540665" lon="12.8041569"><ele>33.0</ele><time>2026-05-03T08:59:42.514Z</time></trkpt><trkpt lat="43.8539853" lon="12.8039158"><ele>33.0</ele><time>2026-05-03T08:59:43.516Z</time></trkpt><trkpt lat="43.8539051" lon="12.8036804"><ele>33.0</ele><time>2026-05-03T08:59:44.516Z</time></trkpt><trkpt lat="43.8538259" lon="12.8034433"><ele>33.0</ele><time>2026-05-03T08:59:45.516Z</time></trkpt><trkpt lat="43.8537401" lon="12.8032079"><ele>33.333333333333336</ele><time>2026-05-03T08:59:46.516Z</time></trkpt><trkpt lat="43.8536593" lon="12.8029704"><ele>33.66666666666667</ele><time>2026-05-03T08:59:47.524Z</time></trkpt><trkpt lat="43.8535777" lon="12.8027376"><ele>34.0</ele><time>2026-05-03T08:59:48.516Z</time></trkpt><trkpt lat="43.8534983" lon="12.8025006"><ele>35.0</ele><time>2026-05-03T08:59:49.514Z</time></trkpt><trkpt lat="43.8534179" lon="12.8022665"><ele>36.0</ele><time>2026-05-03T08:59:50.52Z</time></trkpt><trkpt lat="43.8533388" lon="12.8020281"><ele>37.0</ele><time>2026-05-03T08:59:51.515Z</time></trkpt><trkpt lat="43.8532606" lon="12.8017915"><ele>37.0</ele><time>2026-05-03T08:59:52.517Z</time></trkpt><trkpt lat="43.8531811" lon="12.8015546"><ele>37.0</ele><time>2026-05-03T08:59:53.517Z</time></trkpt><trkpt lat="43.8530961" lon="12.8013112"><ele>37.0</ele><time>2026-05-03T08:59:54.515Z</time></trkpt><trkpt lat="43.8530153" lon="12.8010675"><ele>37.333333333333336</ele><time>2026-05-03T08:59:55.515Z</time></trkpt><trkpt lat="43.8529397" lon="12.8008323"><ele>37.666666666666664</ele><time>2026-05-03T08:59:56.515Z</time></trkpt><trkpt lat="43.8528561" lon="12.8005999"><ele>38.0</ele><time>2026-05-03T08:59:57.516Z</time></trkpt><trkpt lat="43.8527761" lon="12.8003649"><ele>38.33333333333333</ele><time>2026-05-03T08:59:58.515Z</time></trkpt><trkpt lat="43.8526943" lon="12.8001267"><ele>38.666666666666664</ele><time>2026-05-03T08:59:59.518Z</time></trkpt><trkpt lat="43.8526133" lon="12.7998879"><ele>39.0</ele><time>2026-05-03T09:00:00.517Z</time></trkpt><trkpt lat="43.8525367" lon="12.7996488"><ele>39.0</ele><time>2026-05-03T09:00:01.516Z</time></trkpt><trkpt lat="43.8524672" lon="12.7994067"><ele>39.0</ele><time>2026-05-03T09:00:02.513Z</time></trkpt><trkpt lat="43.8524046" lon="12.7991587"><ele>39.0</ele><time>2026-05-03T09:00:03.515Z</time></trkpt><trkpt lat="43.8523492" lon="12.7989099"><ele>39.0</ele><time>2026-05-03T09:00:04.516Z</time></trkpt><trkpt lat="43.8522993" lon="12.798652"><ele>39.0</ele><time>2026-05-03T09:00:05.515Z</time></trkpt><trkpt lat="43.8522573" lon="12.7983995"><ele>39.0</ele><time>2026-05-03T09:00:06.516Z</time></trkpt><trkpt lat="43.8522272" lon="12.7981472"><ele>38.0</ele><time>2026-05-03T09:00:07.515Z</time></trkpt><trkpt lat="43.8522052" lon="12.7978873"><ele>37.0</ele><time>2026-05-03T09:00:08.515Z</time></trkpt><trkpt lat="43.8521873" lon="12.7976252"><ele>36.0</ele><time>2026-05-03T09:00:09.515Z</time></trkpt><trkpt lat="43.8521681" lon="12.7973579"><ele>36.0</ele><time>2026-05-03T09:00:10.512Z</time></trkpt><trkpt lat="43.8521477" lon="12.7970899"><ele>36.0</ele><time>2026-05-03T09:00:11.515Z</time></trkpt><trkpt lat="43.8521284" lon="12.79682"><ele>36.0</ele><time>2026-05-03T09:00:12.516Z</time></trkpt><trkpt lat="43.8521105" lon="12.7965509"><ele>36.0</ele><time>2026-05-03T09:00:13.645Z</time></trkpt><trkpt lat="43.8520754" lon="12.7960062"><ele>36.0</ele><time>2026-05-03T09:00:15.514Z</time></trkpt><trkpt lat="43.8520608" lon="12.7957297"><ele>36.0</ele><time>2026-05-03T09:00:16.515Z</time></trkpt><trkpt lat="43.8520469" lon="12.7954467"><ele>36.0</ele><time>2026-05-03T09:00:17.513Z</time></trkpt><trkpt lat="43.852033" lon="12.7951606"><ele>36.0</ele><time>2026-05-03T09:00:18.507Z</time></trkpt><trkpt lat="43.8520195" lon="12.7948736"><ele>37.333333333333336</ele><time>2026-05-03T09:00:19.515Z</time></trkpt><trkpt lat="43.8520068" lon="12.794588"><ele>38.66666666666667</ele><time>2026-05-03T09:00:20.518Z</time></trkpt><trkpt lat="43.851993" lon="12.7943068"><ele>40.0</ele><time>2026-05-03T09:00:21.516Z</time></trkpt><trkpt lat="43.8519753" lon="12.7940306"><ele>40.0</ele><time>2026-05-03T09:00:22.507Z</time></trkpt><trkpt lat="43.8519597" lon="12.7937532"><ele>40.0</ele><time>2026-05-03T09:00:23.515Z</time></trkpt><trkpt lat="43.8519394" lon="12.7934705"><ele>40.0</ele><time>2026-05-03T09:00:24.517Z</time></trkpt><trkpt lat="43.8519191" lon="12.7931915"><ele>38.333333333333336</ele><time>2026-05-03T09:00:25.516Z</time></trkpt><trkpt lat="43.851903" lon="12.7929105"><ele>36.666666666666664</ele><time>2026-05-03T09:00:26.516Z</time></trkpt><trkpt lat="43.8518835" lon="12.7926349"><ele>35.0</ele><time>2026-05-03T09:00:27.517Z</time></trkpt><trkpt lat="43.8518654" lon="12.7923477"><ele>34.666666666666664</ele><time>2026-05-03T09:00:28.514Z</time></trkpt><trkpt lat="43.851849" lon="12.7920651"><ele>34.333333333333336</ele><time>2026-05-03T09:00:29.516Z</time></trkpt><trkpt lat="43.8518327" lon="12.7917846"><ele>34.0</ele><time>2026-05-03T09:00:30.513Z</time></trkpt><trkpt lat="43.8518164" lon="12.7915025"><ele>34.66666666666667</ele><time>2026-05-03T09:00:31.518Z</time></trkpt><trkpt lat="43.8517989" lon="12.791224"><ele>35.333333333333336</ele><time>2026-05-03T09:00:32.51Z</time></trkpt><trkpt lat="43.8517811" lon="12.79094"><ele>36.0</ele><time>2026-05-03T09:00:33.517Z</time></trkpt><trkpt lat="43.8517559" lon="12.790663"><ele>36.666666666666664</ele><time>2026-05-03T09:00:34.516Z</time></trkpt><trkpt lat="43.8517291" lon="12.7903924"><ele>37.33333333333333</ele><time>2026-05-03T09:00:35.516Z</time></trkpt><trkpt lat="43.8516855" lon="12.7901188"><ele>38.0</ele><time>2026-05-03T09:00:36.516Z</time></trkpt><trkpt lat="43.8516354" lon="12.7898588"><ele>38.666666666666664</ele><time>2026-05-03T09:00:37.516Z</time></trkpt><trkpt lat="43.8515948" lon="12.789598"><ele>39.333333333333336</ele><time>2026-05-03T09:00:38.516Z</time></trkpt><trkpt lat="43.8515366" lon="12.789349"><ele>40.0</ele><time>2026-05-03T09:00:39.517Z</time></trkpt><trkpt lat="43.8514835" lon="12.7891165"><ele>40.66666666666667</ele><time>2026-05-03T09:00:40.515Z</time></trkpt><trkpt lat="43.8514363" lon="12.7889058"><ele>41.333333333333336</ele><time>2026-05-03T09:00:41.517Z</time></trkpt><trkpt lat="43.8513827" lon="12.788704"><ele>42.0</ele><time>2026-05-03T09:00:42.517Z</time></trkpt><trkpt lat="43.851329" lon="12.7885207"><ele>41.8</ele><time>2026-05-03T09:00:43.517Z</time></trkpt><trkpt lat="43.8512747" lon="12.7883451"><ele>41.6</ele><time>2026-05-03T09:00:44.517Z</time></trkpt><trkpt lat="43.8512269" lon="12.7881817"><ele>41.4</ele><time>2026-05-03T09:00:45.517Z</time></trkpt><trkpt lat="43.8511813" lon="12.7880517"><ele>41.199999999999996</ele><time>2026-05-03T09:00:46.516Z</time></trkpt><trkpt lat="43.8511472" lon="12.7879513"><ele>41.0</ele><time>2026-05-03T09:00:47.517Z</time></trkpt><trkpt lat="43.8511227" lon="12.7878632"><ele>41.0</ele><time>2026-05-03T09:00:48.515Z</time></trkpt><trkpt lat="43.8510983" lon="12.7876936"><ele>41.0</ele><time>2026-05-03T09:00:50.517Z</time></trkpt><trkpt lat="43.8510802" lon="12.7876047"><ele>41.0</ele><time>2026-05-03T09:00:51.516Z</time></trkpt><trkpt lat="43.8509865" lon="12.7874781"><ele>41.0</ele><time>2026-05-03T09:00:52.516Z</time></trkpt><trkpt lat="43.850893" lon="12.7873372"><ele>41.0</ele><time>2026-05-03T09:00:53.516Z</time></trkpt><trkpt lat="43.8508012" lon="12.7871795"><ele>41.0</ele><time>2026-05-03T09:00:54.516Z</time></trkpt><trkpt lat="43.8507055" lon="12.7870073"><ele>41.0</ele><time>2026-05-03T09:00:55.516Z</time></trkpt><trkpt lat="43.8506006" lon="12.7868216"><ele>40.33333333333333</ele><time>2026-05-03T09:00:56.516Z</time></trkpt><trkpt lat="43.8504928" lon="12.7866242"><ele>39.666666666666664</ele><time>2026-05-03T09:00:57.515Z</time></trkpt><trkpt lat="43.8503808" lon="12.7864205"><ele>39.0</ele><time>2026-05-03T09:00:58.517Z</time></trkpt><trkpt lat="43.8502665" lon="12.786211"><ele>38.333333333333336</ele><time>2026-05-03T09:00:59.516Z</time></trkpt><trkpt lat="43.8501451" lon="12.7859906"><ele>37.66666666666667</ele><time>2026-05-03T09:01:00.516Z</time></trkpt><trkpt lat="43.8500214" lon="12.7857653"><ele>37.0</ele><time>2026-05-03T09:01:01.517Z</time></trkpt><trkpt lat="43.8498955" lon="12.7855401"><ele>37.333333333333336</ele><time>2026-05-03T09:01:02.514Z</time></trkpt><trkpt lat="43.8497678" lon="12.7853087"><ele>37.666666666666664</ele><time>2026-05-03T09:01:03.518Z</time></trkpt><trkpt lat="43.8496378" lon="12.7850847"><ele>38.0</ele><time>2026-05-03T09:01:04.517Z</time></trkpt><trkpt lat="43.8495189" lon="12.7848442"><ele>38.0</ele><time>2026-05-03T09:01:05.515Z</time></trkpt><trkpt lat="43.8493944" lon="12.7846111"><ele>38.0</ele><time>2026-05-03T09:01:06.517Z</time></trkpt><trkpt lat="43.8492816" lon="12.7843696"><ele>38.0</ele><time>2026-05-03T09:01:07.516Z</time></trkpt><trkpt lat="43.8491641" lon="12.7841307"><ele>39.666666666666664</ele><time>2026-05-03T09:01:08.516Z</time></trkpt><trkpt lat="43.8490482" lon="12.7839003"><ele>41.333333333333336</ele><time>2026-05-03T09:01:09.517Z</time></trkpt><trkpt lat="43.8489334" lon="12.7836769"><ele>43.0</ele><time>2026-05-03T09:01:10.513Z</time></trkpt><trkpt lat="43.848816" lon="12.7834456"><ele>43.333333333333336</ele><time>2026-05-03T09:01:11.516Z</time></trkpt><trkpt lat="43.8486947" lon="12.7832159"><ele>43.666666666666664</ele><time>2026-05-03T09:01:12.516Z</time></trkpt><trkpt lat="43.8485742" lon="12.7829837"><ele>44.0</ele><time>2026-05-03T09:01:13.515Z</time></trkpt><trkpt lat="43.8484537" lon="12.7827455"><ele>44.0</ele><time>2026-05-03T09:01:14.516Z</time></trkpt><trkpt lat="43.8483296" lon="12.7824982"><ele>44.0</ele><time>2026-05-03T09:01:15.516Z</time></trkpt><trkpt lat="43.8482046" lon="12.7822512"><ele>44.0</ele><time>2026-05-03T09:01:16.514Z</time></trkpt><trkpt lat="43.8480811" lon="12.7820027"><ele>43.33333333333333</ele><time>2026-05-03T09:01:17.518Z</time></trkpt><trkpt lat="43.8479544" lon="12.7817508"><ele>42.666666666666664</ele><time>2026-05-03T09:01:18.516Z</time></trkpt><trkpt lat="43.8478309" lon="12.7815038"><ele>42.0</ele><time>2026-05-03T09:01:19.516Z</time></trkpt><trkpt lat="43.8477064" lon="12.7812597"><ele>41.333333333333336</ele><time>2026-05-03T09:01:20.519Z</time></trkpt><trkpt lat="43.8475838" lon="12.7810144"><ele>40.66666666666667</ele><time>2026-05-03T09:01:21.514Z</time></trkpt><trkpt lat="43.8474536" lon="12.780781"><ele>40.0</ele><time>2026-05-03T09:01:22.52Z</time></trkpt><trkpt lat="43.8473334" lon="12.7805296"><ele>40.0</ele><time>2026-05-03T09:01:23.517Z</time></trkpt><trkpt lat="43.8472031" lon="12.78029"><ele>40.0</ele><time>2026-05-03T09:01:24.514Z</time></trkpt><trkpt lat="43.8470794" lon="12.7800445"><ele>40.0</ele><time>2026-05-03T09:01:25.516Z</time></trkpt><trkpt lat="43.8469523" lon="12.7797966"><ele>40.333333333333336</ele><time>2026-05-03T09:01:26.516Z</time></trkpt><trkpt lat="43.846825" lon="12.779548"><ele>40.666666666666664</ele><time>2026-05-03T09:01:27.518Z</time></trkpt><trkpt lat="43.8467" lon="12.7792994"><ele>41.0</ele><time>2026-05-03T09:01:28.517Z</time></trkpt><trkpt lat="43.8465751" lon="12.7790482"><ele>40.0</ele><time>2026-05-03T09:01:29.517Z</time></trkpt><trkpt lat="43.8464525" lon="12.7787966"><ele>39.0</ele><time>2026-05-03T09:01:30.516Z</time></trkpt><trkpt lat="43.8463317" lon="12.7785435"><ele>38.0</ele><time>2026-05-03T09:01:31.517Z</time></trkpt><trkpt lat="43.846226" lon="12.7782852"><ele>37.666666666666664</ele><time>2026-05-03T09:01:32.517Z</time></trkpt><trkpt lat="43.8461254" lon="12.7780192"><ele>37.333333333333336</ele><time>2026-05-03T09:01:33.516Z</time></trkpt><trkpt lat="43.8460339" lon="12.7777441"><ele>37.0</ele><time>2026-05-03T09:01:34.515Z</time></trkpt><trkpt lat="43.8459563" lon="12.7774622"><ele>38.0</ele><time>2026-05-03T09:01:35.515Z</time></trkpt><trkpt lat="43.8458864" lon="12.7771737"><ele>39.0</ele><time>2026-05-03T09:01:36.516Z</time></trkpt><trkpt lat="43.8458216" lon="12.776888"><ele>40.0</ele><time>2026-05-03T09:01:37.516Z</time></trkpt><trkpt lat="43.8457587" lon="12.7766032"><ele>40.66666666666667</ele><time>2026-05-03T09:01:38.517Z</time></trkpt><trkpt lat="43.8456966" lon="12.7763289"><ele>41.333333333333336</ele><time>2026-05-03T09:01:39.514Z</time></trkpt><trkpt lat="43.8456358" lon="12.7760569"><ele>42.0</ele><time>2026-05-03T09:01:40.516Z</time></trkpt><trkpt lat="43.8455749" lon="12.7757908"><ele>43.0</ele><time>2026-05-03T09:01:41.516Z</time></trkpt><trkpt lat="43.8455145" lon="12.7755306"><ele>44.0</ele><time>2026-05-03T09:01:42.516Z</time></trkpt><trkpt lat="43.8454578" lon="12.7752597"><ele>45.0</ele><time>2026-05-03T09:01:43.516Z</time></trkpt><trkpt lat="43.8453985" lon="12.7749952"><ele>47.0</ele><time>2026-05-03T09:01:44.515Z</time></trkpt><trkpt lat="43.8453423" lon="12.7747216"><ele>49.0</ele><time>2026-05-03T09:01:45.517Z</time></trkpt><trkpt lat="43.8452871" lon="12.7744574"><ele>51.0</ele><time>2026-05-03T09:01:46.517Z</time></trkpt><trkpt lat="43.8452316" lon="12.774193"><ele>51.66666666666667</ele><time>2026-05-03T09:01:47.514Z</time></trkpt><trkpt lat="43.845165" lon="12.7739239"><ele>52.333333333333336</ele><time>2026-05-03T09:01:48.516Z</time></trkpt><trkpt lat="43.8451039" lon="12.773668"><ele>53.0</ele><time>2026-05-03T09:01:49.518Z</time></trkpt><trkpt lat="43.8450354" lon="12.773407"><ele>53.66666666666667</ele><time>2026-05-03T09:01:50.515Z</time></trkpt><trkpt lat="43.8449584" lon="12.7731402"><ele>54.33333333333333</ele><time>2026-05-03T09:01:51.518Z</time></trkpt><trkpt lat="43.8448445" lon="12.7728684"><ele>55.0</ele><time>2026-05-03T09:01:52.513Z</time></trkpt><trkpt lat="43.844743" lon="12.7725996"><ele>55.0</ele><time>2026-05-03T09:01:53.517Z</time></trkpt><trkpt lat="43.8445976" lon="12.7723424"><ele>55.0</ele><time>2026-05-03T09:01:54.516Z</time></trkpt><trkpt lat="43.8444577" lon="12.7720825"><ele>54.5</ele><time>2026-05-03T09:01:55.515Z</time></trkpt><trkpt lat="43.844301" lon="12.771845"><ele>54.0</ele><time>2026-05-03T09:01:56.517Z</time></trkpt><trkpt lat="43.8441299" lon="12.7716177"><ele>56.0</ele><time>2026-05-03T09:01:57.516Z</time></trkpt><trkpt lat="43.8439595" lon="12.7714008"><ele>58.0</ele><time>2026-05-03T09:01:58.514Z</time></trkpt><trkpt lat="43.8437782" lon="12.7711797"><ele>57.5</ele><time>2026-05-03T09:01:59.517Z</time></trkpt><trkpt lat="43.8436012" lon="12.7709661"><ele>57.0</ele><time>2026-05-03T09:02:00.519Z</time></trkpt><trkpt lat="43.8434336" lon="12.7707511"><ele>58.33333333333333</ele><time>2026-05-03T09:02:01.515Z</time></trkpt><trkpt lat="43.8432639" lon="12.7705423"><ele>59.666666666666664</ele><time>2026-05-03T09:02:02.515Z</time></trkpt><trkpt lat="43.8431036" lon="12.7703414"><ele>61.0</ele><time>2026-05-03T09:02:03.516Z</time></trkpt><trkpt lat="43.8429431" lon="12.7701418"><ele>61.0</ele><time>2026-05-03T09:02:04.516Z</time></trkpt><trkpt lat="43.8427827" lon="12.769949"><ele>61.0</ele><time>2026-05-03T09:02:05.517Z</time></trkpt><trkpt lat="43.8426272" lon="12.7697607"><ele>61.0</ele><time>2026-05-03T09:02:06.516Z</time></trkpt><trkpt lat="43.8424749" lon="12.7695821"><ele>61.33333333333333</ele><time>2026-05-03T09:02:07.516Z</time></trkpt><trkpt lat="43.8423305" lon="12.7694048"><ele>61.66666666666667</ele><time>2026-05-03T09:02:08.52Z</time></trkpt><trkpt lat="43.8421847" lon="12.7692331"><ele>62.0</ele><time>2026-05-03T09:02:09.507Z</time></trkpt><trkpt lat="43.8420465" lon="12.769057"><ele>62.0</ele><time>2026-05-03T09:02:10.514Z</time></trkpt><trkpt lat="43.841917" lon="12.7688983"><ele>62.0</ele><time>2026-05-03T09:02:11.518Z</time></trkpt><trkpt lat="43.8417864" lon="12.7687436"><ele>62.0</ele><time>2026-05-03T09:02:12.505Z</time></trkpt><trkpt lat="43.8416636" lon="12.7685951"><ele>62.5</ele><time>2026-05-03T09:02:13.516Z</time></trkpt><trkpt lat="43.8415468" lon="12.7684546"><ele>63.0</ele><time>2026-05-03T09:02:14.516Z</time></trkpt><trkpt lat="43.8414321" lon="12.7683157"><ele>63.5</ele><time>2026-05-03T09:02:15.516Z</time></trkpt><trkpt lat="43.8413318" lon="12.7681809"><ele>64.0</ele><time>2026-05-03T09:02:16.515Z</time></trkpt><trkpt lat="43.8412363" lon="12.7680577"><ele>64.0</ele><time>2026-05-03T09:02:17.516Z</time></trkpt><trkpt lat="43.84115" lon="12.7679417"><ele>64.0</ele><time>2026-05-03T09:02:18.516Z</time></trkpt><trkpt lat="43.8410854" lon="12.7678121"><ele>64.0</ele><time>2026-05-03T09:02:19.519Z</time></trkpt><trkpt lat="43.8410471" lon="12.7676505"><ele>64.0</ele><time>2026-05-03T09:02:20.514Z</time></trkpt><trkpt lat="43.8410106" lon="12.7674855"><ele>64.75</ele><time>2026-05-03T09:02:21.521Z</time></trkpt><trkpt lat="43.8409572" lon="12.7673389"><ele>65.5</ele><time>2026-05-03T09:02:22.513Z</time></trkpt><trkpt lat="43.840878" lon="12.7672267"><ele>66.25</ele><time>2026-05-03T09:02:23.516Z</time></trkpt><trkpt lat="43.8407707" lon="12.7671551"><ele>67.0</ele><time>2026-05-03T09:02:24.517Z</time></trkpt><trkpt lat="43.8406362" lon="12.7671048"><ele>67.0</ele><time>2026-05-03T09:02:25.517Z</time></trkpt><trkpt lat="43.840493" lon="12.7670222"><ele>67.0</ele><time>2026-05-03T09:02:26.515Z</time></trkpt><trkpt lat="43.8403443" lon="12.7669071"><ele>67.0</ele><time>2026-05-03T09:02:27.507Z</time></trkpt><trkpt lat="43.8401971" lon="12.7667983"><ele>67.33333333333333</ele><time>2026-05-03T09:02:28.517Z</time></trkpt><trkpt lat="43.8400747" lon="12.7666165"><ele>67.66666666666667</ele><time>2026-05-03T09:02:29.515Z</time></trkpt><trkpt lat="43.8399518" lon="12.7664222"><ele>68.0</ele><time>2026-05-03T09:02:30.515Z</time></trkpt><trkpt lat="43.8398302" lon="12.7662148"><ele>68.66666666666667</ele><time>2026-05-03T09:02:31.516Z</time></trkpt><trkpt lat="43.8397148" lon="12.76599"><ele>69.33333333333333</ele><time>2026-05-03T09:02:32.516Z</time></trkpt><trkpt lat="43.8396139" lon="12.7657584"><ele>70.0</ele><time>2026-05-03T09:02:33.516Z</time></trkpt><trkpt lat="43.8395302" lon="12.7655186"><ele>70.0</ele><time>2026-05-03T09:02:34.516Z</time></trkpt><trkpt lat="43.839455" lon="12.7652694"><ele>70.0</ele><time>2026-05-03T09:02:35.516Z</time></trkpt><trkpt lat="43.8393901" lon="12.7650163"><ele>70.0</ele><time>2026-05-03T09:02:36.515Z</time></trkpt><trkpt lat="43.8393176" lon="12.7647171"><ele>69.0</ele><time>2026-05-03T09:02:37.515Z</time></trkpt><trkpt lat="43.8392542" lon="12.764415"><ele>68.0</ele><time>2026-05-03T09:02:38.509Z</time></trkpt><trkpt lat="43.839192" lon="12.7641268"><ele>67.0</ele><time>2026-05-03T09:02:39.517Z</time></trkpt><trkpt lat="43.8391361" lon="12.7638359"><ele>67.0</ele><time>2026-05-03T09:02:40.511Z</time></trkpt><trkpt lat="43.8390853" lon="12.7635498"><ele>67.0</ele><time>2026-05-03T09:02:41.504Z</time></trkpt><trkpt lat="43.8390379" lon="12.7632672"><ele>67.0</ele><time>2026-05-03T09:02:42.514Z</time></trkpt><trkpt lat="43.8389874" lon="12.7629782"><ele>68.0</ele><time>2026-05-03T09:02:43.515Z</time></trkpt><trkpt lat="43.8389349" lon="12.7626968"><ele>69.0</ele><time>2026-05-03T09:02:44.516Z</time></trkpt><trkpt lat="43.8388785" lon="12.7624066"><ele>70.0</ele><time>2026-05-03T09:02:45.515Z</time></trkpt><trkpt lat="43.8388217" lon="12.7621233"><ele>70.0</ele><time>2026-05-03T09:02:46.516Z</time></trkpt><trkpt lat="43.8387682" lon="12.7618435"><ele>70.0</ele><time>2026-05-03T09:02:47.517Z</time></trkpt><trkpt lat="43.8387112" lon="12.7615609"><ele>70.0</ele><time>2026-05-03T09:02:48.514Z</time></trkpt><trkpt lat="43.8386551" lon="12.7612798"><ele>70.0</ele><time>2026-05-03T09:02:49.515Z</time></trkpt><trkpt lat="43.8385953" lon="12.7609966"><ele>70.0</ele><time>2026-05-03T09:02:50.516Z</time></trkpt><trkpt lat="43.8385366" lon="12.7607044"><ele>70.0</ele><time>2026-05-03T09:02:51.647Z</time></trkpt><trkpt lat="43.8384212" lon="12.7601224"><ele>70.0</ele><time>2026-05-03T09:02:53.516Z</time></trkpt><trkpt lat="43.8383631" lon="12.7598255"><ele>70.0</ele><time>2026-05-03T09:02:54.509Z</time></trkpt><trkpt lat="43.8383015" lon="12.7595278"><ele>70.0</ele><time>2026-05-03T09:02:55.516Z</time></trkpt><trkpt lat="43.8382437" lon="12.7592376"><ele>69.66666666666666</ele><time>2026-05-03T09:02:56.516Z</time></trkpt><trkpt lat="43.8381871" lon="12.7589473"><ele>69.33333333333333</ele><time>2026-05-03T09:02:57.516Z</time></trkpt><trkpt lat="43.8381262" lon="12.7586589"><ele>69.0</ele><time>2026-05-03T09:02:58.514Z</time></trkpt><trkpt lat="43.8380696" lon="12.75837"><ele>68.66666666666667</ele><time>2026-05-03T09:02:59.516Z</time></trkpt><trkpt lat="43.838016" lon="12.7580788"><ele>68.33333333333334</ele><time>2026-05-03T09:03:00.515Z</time></trkpt><trkpt lat="43.8379599" lon="12.7577893"><ele>68.0</ele><time>2026-05-03T09:03:01.516Z</time></trkpt><trkpt lat="43.8378977" lon="12.7574988"><ele>67.0</ele><time>2026-05-03T09:03:02.515Z</time></trkpt><trkpt lat="43.8378339" lon="12.7572129"><ele>66.0</ele><time>2026-05-03T09:03:03.511Z</time></trkpt><trkpt lat="43.837764" lon="12.7569318"><ele>65.0</ele><time>2026-05-03T09:03:04.514Z</time></trkpt><trkpt lat="43.8376909" lon="12.7566502"><ele>64.0</ele><time>2026-05-03T09:03:05.514Z</time></trkpt><trkpt lat="43.8376148" lon="12.7563704"><ele>63.0</ele><time>2026-05-03T09:03:06.512Z</time></trkpt><trkpt lat="43.837539" lon="12.7560971"><ele>62.0</ele><time>2026-05-03T09:03:07.516Z</time></trkpt><trkpt lat="43.8374613" lon="12.7558243"><ele>62.0</ele><time>2026-05-03T09:03:08.515Z</time></trkpt><trkpt lat="43.8373856" lon="12.7555466"><ele>62.0</ele><time>2026-05-03T09:03:09.518Z</time></trkpt><trkpt lat="43.8373114" lon="12.7552732"><ele>62.0</ele><time>2026-05-03T09:03:10.516Z</time></trkpt><trkpt lat="43.8372357" lon="12.7550139"><ele>60.66666666666667</ele><time>2026-05-03T09:03:11.517Z</time></trkpt><trkpt lat="43.8371349" lon="12.7547425"><ele>59.33333333333333</ele><time>2026-05-03T09:03:12.508Z</time></trkpt><trkpt lat="43.8370421" lon="12.7544601"><ele>58.0</ele><time>2026-05-03T09:03:13.508Z</time></trkpt><trkpt lat="43.836976" lon="12.7542152"><ele>57.33333333333333</ele><time>2026-05-03T09:03:14.516Z</time></trkpt><trkpt lat="43.8369265" lon="12.753967"><ele>56.66666666666667</ele><time>2026-05-03T09:03:15.514Z</time></trkpt><trkpt lat="43.8368642" lon="12.7537326"><ele>56.0</ele><time>2026-05-03T09:03:16.505Z</time></trkpt><trkpt lat="43.836796" lon="12.7534785"><ele>56.0</ele><time>2026-05-03T09:03:17.516Z</time></trkpt><trkpt lat="43.8367291" lon="12.7532331"><ele>56.0</ele><time>2026-05-03T09:03:18.514Z</time></trkpt><trkpt lat="43.8366564" lon="12.7529821"><ele>56.0</ele><time>2026-05-03T09:03:19.517Z</time></trkpt><trkpt lat="43.8365825" lon="12.7527272"><ele>55.66666666666667</ele><time>2026-05-03T09:03:20.516Z</time></trkpt><trkpt lat="43.8365125" lon="12.7524798"><ele>55.33333333333333</ele><time>2026-05-03T09:03:21.516Z</time></trkpt><trkpt lat="43.8364475" lon="12.7522436"><ele>55.0</ele><time>2026-05-03T09:03:22.518Z</time></trkpt><trkpt lat="43.8363832" lon="12.7520201"><ele>54.75</ele><time>2026-05-03T09:03:23.516Z</time></trkpt><trkpt lat="43.8363239" lon="12.7518116"><ele>54.5</ele><time>2026-05-03T09:03:24.509Z</time></trkpt><trkpt lat="43.8362772" lon="12.7516219"><ele>54.25</ele><time>2026-05-03T09:03:25.516Z</time></trkpt><trkpt lat="43.8362317" lon="12.7514506"><ele>54.0</ele><time>2026-05-03T09:03:26.513Z</time></trkpt><trkpt lat="43.8362031" lon="12.751296"><ele>54.0</ele><time>2026-05-03T09:03:27.517Z</time></trkpt><trkpt lat="43.8361992" lon="12.7511661"><ele>54.0</ele><time>2026-05-03T09:03:28.515Z</time></trkpt><trkpt lat="43.836222" lon="12.7510544"><ele>54.0</ele><time>2026-05-03T09:03:29.52Z</time></trkpt><trkpt lat="43.8362667" lon="12.7509639"><ele>54.0</ele><time>2026-05-03T09:03:30.514Z</time></trkpt><trkpt lat="43.8363132" lon="12.750874"><ele>54.0</ele><time>2026-05-03T09:03:31.515Z</time></trkpt><trkpt lat="43.8363404" lon="12.750771"><ele>54.0</ele><time>2026-05-03T09:03:32.514Z</time></trkpt><trkpt lat="43.8363411" lon="12.7506578"><ele>54.5</ele><time>2026-05-03T09:03:33.515Z</time></trkpt><trkpt lat="43.8363135" lon="12.7505495"><ele>55.0</ele><time>2026-05-03T09:03:34.521Z</time></trkpt><trkpt lat="43.8362614" lon="12.7504664"><ele>55.5</ele><time>2026-05-03T09:03:35.515Z</time></trkpt><trkpt lat="43.8361916" lon="12.7504106"><ele>56.0</ele><time>2026-05-03T09:03:36.518Z</time></trkpt><trkpt lat="43.8361083" lon="12.7503686"><ele>56.5</ele><time>2026-05-03T09:03:37.519Z</time></trkpt><trkpt lat="43.8360224" lon="12.7503267"><ele>57.0</ele><time>2026-05-03T09:03:38.515Z</time></trkpt><trkpt lat="43.8359405" lon="12.7502305"><ele>58.5</ele><time>2026-05-03T09:03:39.506Z</time></trkpt><trkpt lat="43.8358801" lon="12.7501107"><ele>60.0</ele><time>2026-05-03T09:03:40.514Z</time></trkpt><trkpt lat="43.8358279" lon="12.7499579"><ele>61.5</ele><time>2026-05-03T09:03:41.515Z</time></trkpt><trkpt lat="43.8357667" lon="12.7497919"><ele>63.0</ele><time>2026-05-03T09:03:42.514Z</time></trkpt><trkpt lat="43.835703" lon="12.7496355"><ele>63.0</ele><time>2026-05-03T09:03:43.517Z</time></trkpt><trkpt lat="43.8356332" lon="12.749463"><ele>63.0</ele><time>2026-05-03T09:03:44.51Z</time></trkpt><trkpt lat="43.8355601" lon="12.7492887"><ele>63.0</ele><time>2026-05-03T09:03:45.516Z</time></trkpt><trkpt lat="43.835478" lon="12.7491092"><ele>63.0</ele><time>2026-05-03T09:03:46.516Z</time></trkpt><trkpt lat="43.8353941" lon="12.7489247"><ele>63.66666666666667</ele><time>2026-05-03T09:03:47.515Z</time></trkpt><trkpt lat="43.8353041" lon="12.7487404"><ele>64.33333333333334</ele><time>2026-05-03T09:03:48.515Z</time></trkpt><trkpt lat="43.8352123" lon="12.7485634"><ele>65.0</ele><time>2026-05-03T09:03:49.515Z</time></trkpt><trkpt lat="43.8351154" lon="12.7483811"><ele>65.0</ele><time>2026-05-03T09:03:50.512Z</time></trkpt><trkpt lat="43.8350158" lon="12.748195"><ele>65.0</ele><time>2026-05-03T09:03:51.516Z</time></trkpt><trkpt lat="43.8349079" lon="12.7480144"><ele>65.0</ele><time>2026-05-03T09:03:52.516Z</time></trkpt><trkpt lat="43.8348142" lon="12.7478216"><ele>65.0</ele><time>2026-05-03T09:03:53.513Z</time></trkpt><trkpt lat="43.8347131" lon="12.7476326"><ele>65.0</ele><time>2026-05-03T09:03:54.516Z</time></trkpt><trkpt lat="43.8346129" lon="12.7474435"><ele>65.0</ele><time>2026-05-03T09:03:55.52Z</time></trkpt><trkpt lat="43.8345189" lon="12.7472616"><ele>65.0</ele><time>2026-05-03T09:03:56.52Z</time></trkpt><trkpt lat="43.8344297" lon="12.7471013"><ele>65.0</ele><time>2026-05-03T09:03:57.515Z</time></trkpt><trkpt lat="43.8343475" lon="12.7469435"><ele>65.0</ele><time>2026-05-03T09:03:58.513Z</time></trkpt><trkpt lat="43.8342704" lon="12.7467982"><ele>65.0</ele><time>2026-05-03T09:03:59.51Z</time></trkpt><trkpt lat="43.8341989" lon="12.7466629"><ele>65.33333333333334</ele><time>2026-05-03T09:04:00.508Z</time></trkpt><trkpt lat="43.8341357" lon="12.746539"><ele>65.66666666666667</ele><time>2026-05-03T09:04:01.515Z</time></trkpt><trkpt lat="43.8340929" lon="12.746417"><ele>66.0</ele><time>2026-05-03T09:04:02.515Z</time></trkpt><trkpt lat="43.8340943" lon="12.7462973"><ele>66.33333333333333</ele><time>2026-05-03T09:04:03.513Z</time></trkpt><trkpt lat="43.8341015" lon="12.7461934"><ele>66.66666666666666</ele><time>2026-05-03T09:04:04.515Z</time></trkpt><trkpt lat="43.8341059" lon="12.7460971"><ele>67.0</ele><time>2026-05-03T09:04:05.515Z</time></trkpt><trkpt lat="43.8340932" lon="12.746005"><ele>67.66666666666666</ele><time>2026-05-03T09:04:06.518Z</time></trkpt><trkpt lat="43.8340673" lon="12.7459209"><ele>68.33333333333333</ele><time>2026-05-03T09:04:07.519Z</time></trkpt><trkpt lat="43.8339834" lon="12.7458863"><ele>69.0</ele><time>2026-05-03T09:04:08.514Z</time></trkpt><trkpt lat="43.8339179" lon="12.7458391"><ele>69.66666666666667</ele><time>2026-05-03T09:04:09.516Z</time></trkpt><trkpt lat="43.8338263" lon="12.7458758"><ele>70.33333333333334</ele><time>2026-05-03T09:04:10.509Z</time></trkpt><trkpt lat="43.8337421" lon="12.7458592"><ele>71.0</ele><time>2026-05-03T09:04:11.511Z</time></trkpt><trkpt lat="43.8336477" lon="12.7458437"><ele>71.0</ele><time>2026-05-03T09:04:12.512Z</time></trkpt><trkpt lat="43.8335347" lon="12.7458284"><ele>71.0</ele><time>2026-05-03T09:04:13.516Z</time></trkpt><trkpt lat="43.8334135" lon="12.7458162"><ele>71.0</ele><time>2026-05-03T09:04:14.515Z</time></trkpt><trkpt lat="43.8332895" lon="12.7458122"><ele>71.0</ele><time>2026-05-03T09:04:15.515Z</time></trkpt><trkpt lat="43.8331624" lon="12.7458102"><ele>71.0</ele><time>2026-05-03T09:04:16.511Z</time></trkpt><trkpt lat="43.8330294" lon="12.7458093"><ele>71.0</ele><time>2026-05-03T09:04:17.516Z</time></trkpt><trkpt lat="43.8328929" lon="12.7457941"><ele>71.0</ele><time>2026-05-03T09:04:18.517Z</time></trkpt><trkpt lat="43.8327537" lon="12.745782"><ele>71.0</ele><time>2026-05-03T09:04:19.514Z</time></trkpt><trkpt lat="43.8326173" lon="12.7457643"><ele>71.0</ele><time>2026-05-03T09:04:20.515Z</time></trkpt><trkpt lat="43.8324873" lon="12.7457398"><ele>71.0</ele><time>2026-05-03T09:04:21.516Z</time></trkpt><trkpt lat="43.8323511" lon="12.7457087"><ele>71.0</ele><time>2026-05-03T09:04:22.516Z</time></trkpt><trkpt lat="43.8322167" lon="12.7456654"><ele>71.0</ele><time>2026-05-03T09:04:23.512Z</time></trkpt><trkpt lat="43.832079" lon="12.7456298"><ele>71.0</ele><time>2026-05-03T09:04:24.516Z</time></trkpt><trkpt lat="43.8319444" lon="12.7455942"><ele>71.0</ele><time>2026-05-03T09:04:25.515Z</time></trkpt><trkpt lat="43.8318203" lon="12.745561"><ele>71.0</ele><time>2026-05-03T09:04:26.518Z</time></trkpt><trkpt lat="43.8317048" lon="12.7455351"><ele>71.0</ele><time>2026-05-03T09:04:27.508Z</time></trkpt><trkpt lat="43.8315927" lon="12.7455097"><ele>71.16666666666667</ele><time>2026-05-03T09:04:28.512Z</time></trkpt><trkpt lat="43.8314909" lon="12.7454958"><ele>71.33333333333334</ele><time>2026-05-03T09:04:29.513Z</time></trkpt><trkpt lat="43.831397" lon="12.745463"><ele>71.5</ele><time>2026-05-03T09:04:30.519Z</time></trkpt><trkpt lat="43.8313105" lon="12.7454324"><ele>71.66666666666667</ele><time>2026-05-03T09:04:31.515Z</time></trkpt><trkpt lat="43.8312439" lon="12.7453746"><ele>71.83333333333333</ele><time>2026-05-03T09:04:32.517Z</time></trkpt><trkpt lat="43.8311813" lon="12.745325"><ele>72.0</ele><time>2026-05-03T09:04:33.517Z</time></trkpt><trkpt lat="43.8311055" lon="12.7452975"><ele>72.0</ele><time>2026-05-03T09:04:34.516Z</time></trkpt><trkpt lat="43.8310167" lon="12.7453014"><ele>72.0</ele><time>2026-05-03T09:04:35.517Z</time></trkpt><trkpt lat="43.8309322" lon="12.7453612"><ele>72.0</ele><time>2026-05-03T09:04:36.516Z</time></trkpt><trkpt lat="43.8308406" lon="12.7454259"><ele>72.0</ele><time>2026-05-03T09:04:37.517Z</time></trkpt><trkpt lat="43.8307035" lon="12.7454576"><ele>72.0</ele><time>2026-05-03T09:04:38.517Z</time></trkpt><trkpt lat="43.8305756" lon="12.7454437"><ele>72.5</ele><time>2026-05-03T09:04:39.514Z</time></trkpt><trkpt lat="43.8304375" lon="12.7454293"><ele>73.0</ele><time>2026-05-03T09:04:40.513Z</time></trkpt><trkpt lat="43.8302865" lon="12.7454295"><ele>73.5</ele><time>2026-05-03T09:04:41.518Z</time></trkpt><trkpt lat="43.8301344" lon="12.745421"><ele>74.0</ele><time>2026-05-03T09:04:42.512Z</time></trkpt><trkpt lat="43.8299751" lon="12.7454109"><ele>74.0</ele><time>2026-05-03T09:04:43.515Z</time></trkpt><trkpt lat="43.8298231" lon="12.745408"><ele>74.0</ele><time>2026-05-03T09:04:44.512Z</time></trkpt><trkpt lat="43.8296708" lon="12.7453989"><ele>74.0</ele><time>2026-05-03T09:04:45.513Z</time></trkpt><trkpt lat="43.8295121" lon="12.7453904"><ele>74.0</ele><time>2026-05-03T09:04:46.514Z</time></trkpt><trkpt lat="43.8293659" lon="12.7454023"><ele>74.0</ele><time>2026-05-03T09:04:47.516Z</time></trkpt><trkpt lat="43.829197" lon="12.7453679"><ele>74.0</ele><time>2026-05-03T09:04:48.515Z</time></trkpt><trkpt lat="43.8290402" lon="12.7453265"><ele>73.75</ele><time>2026-05-03T09:04:49.513Z</time></trkpt><trkpt lat="43.8288737" lon="12.7452889"><ele>73.5</ele><time>2026-05-03T09:04:50.52Z</time></trkpt><trkpt lat="43.8287534" lon="12.7452054"><ele>73.25</ele><time>2026-05-03T09:04:51.515Z</time></trkpt><trkpt lat="43.8286194" lon="12.7451341"><ele>73.0</ele><time>2026-05-03T09:04:52.517Z</time></trkpt><trkpt lat="43.8284839" lon="12.7450557"><ele>73.5</ele><time>2026-05-03T09:04:53.522Z</time></trkpt><trkpt lat="43.828364" lon="12.7449697"><ele>74.0</ele><time>2026-05-03T09:04:54.524Z</time></trkpt><trkpt lat="43.8282399" lon="12.7448399"><ele>74.5</ele><time>2026-05-03T09:04:55.514Z</time></trkpt><trkpt lat="43.8281208" lon="12.7447142"><ele>75.0</ele><time>2026-05-03T09:04:56.52Z</time></trkpt><trkpt lat="43.8279962" lon="12.7445805"><ele>75.0</ele><time>2026-05-03T09:04:57.519Z</time></trkpt><trkpt lat="43.8278855" lon="12.7444231"><ele>75.0</ele><time>2026-05-03T09:04:58.506Z</time></trkpt><trkpt lat="43.8277814" lon="12.7442626"><ele>75.0</ele><time>2026-05-03T09:04:59.519Z</time></trkpt><trkpt lat="43.8276833" lon="12.7441035"><ele>75.25</ele><time>2026-05-03T09:05:00.521Z</time></trkpt><trkpt lat="43.8275912" lon="12.7439455"><ele>75.5</ele><time>2026-05-03T09:05:01.514Z</time></trkpt><trkpt lat="43.8274995" lon="12.7437818"><ele>75.75</ele><time>2026-05-03T09:05:02.515Z</time></trkpt><trkpt lat="43.8274192" lon="12.7436494"><ele>76.0</ele><time>2026-05-03T09:05:03.505Z</time></trkpt><trkpt lat="43.8273316" lon="12.7435001"><ele>76.0</ele><time>2026-05-03T09:05:04.521Z</time></trkpt><trkpt lat="43.8272751" lon="12.7433516"><ele>76.0</ele><time>2026-05-03T09:05:05.509Z</time></trkpt><trkpt lat="43.8272132" lon="12.743202"><ele>76.0</ele><time>2026-05-03T09:05:06.521Z</time></trkpt><trkpt lat="43.8271547" lon="12.7430392"><ele>76.0</ele><time>2026-05-03T09:05:07.519Z</time></trkpt><trkpt lat="43.8270943" lon="12.7428763"><ele>76.0</ele><time>2026-05-03T09:05:08.515Z</time></trkpt><trkpt lat="43.8270445" lon="12.7427085"><ele>76.0</ele><time>2026-05-03T09:05:09.515Z</time></trkpt><trkpt lat="43.8269936" lon="12.7425355"><ele>76.0</ele><time>2026-05-03T09:05:10.515Z</time></trkpt><trkpt lat="43.8269462" lon="12.7423846"><ele>76.0</ele><time>2026-05-03T09:05:11.509Z</time></trkpt><trkpt lat="43.8269031" lon="12.7422339"><ele>76.0</ele><time>2026-05-03T09:05:12.518Z</time></trkpt><trkpt lat="43.8268621" lon="12.7420925"><ele>76.0</ele><time>2026-05-03T09:05:13.515Z</time></trkpt><trkpt lat="43.8268281" lon="12.7419742"><ele>76.0</ele><time>2026-05-03T09:05:14.522Z</time></trkpt><trkpt lat="43.8267949" lon="12.7418675"><ele>76.0</ele><time>2026-05-03T09:05:15.518Z</time></trkpt><trkpt lat="43.8267594" lon="12.7417467"><ele>76.0</ele><time>2026-05-03T09:05:16.515Z</time></trkpt><trkpt lat="43.8267215" lon="12.7416042"><ele>76.25</ele><time>2026-05-03T09:05:17.516Z</time></trkpt><trkpt lat="43.8266762" lon="12.7414397"><ele>76.5</ele><time>2026-05-03T09:05:18.515Z</time></trkpt><trkpt lat="43.8266313" lon="12.7412672"><ele>76.75</ele><time>2026-05-03T09:05:19.508Z</time></trkpt><trkpt lat="43.8265809" lon="12.7410908"><ele>77.0</ele><time>2026-05-03T09:05:20.511Z</time></trkpt><trkpt lat="43.8265094" lon="12.740913"><ele>77.33333333333334</ele><time>2026-05-03T09:05:21.646Z</time></trkpt><trkpt lat="43.8263534" lon="12.7405825"><ele>77.66666666666667</ele><time>2026-05-03T09:05:23.521Z</time></trkpt><trkpt lat="43.8262576" lon="12.7404313"><ele>78.0</ele><time>2026-05-03T09:05:24.522Z</time></trkpt><trkpt lat="43.8261541" lon="12.7402968"><ele>78.25</ele><time>2026-05-03T09:05:25.523Z</time></trkpt><trkpt lat="43.8260478" lon="12.7401629"><ele>78.5</ele><time>2026-05-03T09:05:26.516Z</time></trkpt><trkpt lat="43.825937" lon="12.7400256"><ele>78.75</ele><time>2026-05-03T09:05:27.524Z</time></trkpt><trkpt lat="43.8258347" lon="12.7398982"><ele>79.0</ele><time>2026-05-03T09:05:28.522Z</time></trkpt><trkpt lat="43.8257264" lon="12.739767"><ele>79.25</ele><time>2026-05-03T09:05:29.516Z</time></trkpt><trkpt lat="43.8256153" lon="12.7396342"><ele>79.5</ele><time>2026-05-03T09:05:30.517Z</time></trkpt><trkpt lat="43.8255078" lon="12.7394992"><ele>79.75</ele><time>2026-05-03T09:05:31.516Z</time></trkpt><trkpt lat="43.8253988" lon="12.7393633"><ele>80.0</ele><time>2026-05-03T09:05:32.52Z</time></trkpt><trkpt lat="43.8252903" lon="12.7392201"><ele>80.0</ele><time>2026-05-03T09:05:33.506Z</time></trkpt><trkpt lat="43.8251769" lon="12.7390792"><ele>80.0</ele><time>2026-05-03T09:05:34.524Z</time></trkpt><trkpt lat="43.8250663" lon="12.7389323"><ele>80.0</ele><time>2026-05-03T09:05:35.52Z</time></trkpt><trkpt lat="43.8249578" lon="12.7387835"><ele>80.0</ele><time>2026-05-03T09:05:36.522Z</time></trkpt><trkpt lat="43.8248531" lon="12.7386304"><ele>80.0</ele><time>2026-05-03T09:05:37.505Z</time></trkpt><trkpt lat="43.8247481" lon="12.7384751"><ele>80.0</ele><time>2026-05-03T09:05:38.518Z</time></trkpt><trkpt lat="43.8246499" lon="12.7383233"><ele>80.66666666666667</ele><time>2026-05-03T09:05:39.514Z</time></trkpt><trkpt lat="43.8245268" lon="12.7381643"><ele>81.33333333333333</ele><time>2026-05-03T09:05:40.517Z</time></trkpt><trkpt lat="43.8244071" lon="12.7380242"><ele>82.0</ele><time>2026-05-03T09:05:41.522Z</time></trkpt><trkpt lat="43.8242573" lon="12.7378571"><ele>82.0</ele><time>2026-05-03T09:05:42.521Z</time></trkpt><trkpt lat="43.8241084" lon="12.7377194"><ele>82.0</ele><time>2026-05-03T09:05:43.516Z</time></trkpt><trkpt lat="43.82396" lon="12.7375688"><ele>82.0</ele><time>2026-05-03T09:05:44.514Z</time></trkpt><trkpt lat="43.8238046" lon="12.737421"><ele>82.0</ele><time>2026-05-03T09:05:45.515Z</time></trkpt><trkpt lat="43.8236488" lon="12.7372759"><ele>82.0</ele><time>2026-05-03T09:05:46.515Z</time></trkpt><trkpt lat="43.8234954" lon="12.7371278"><ele>82.0</ele><time>2026-05-03T09:05:47.515Z</time></trkpt><trkpt lat="43.8233387" lon="12.7369787"><ele>82.0</ele><time>2026-05-03T09:05:48.522Z</time></trkpt><trkpt lat="43.82318" lon="12.7368435"><ele>82.0</ele><time>2026-05-03T09:05:49.52Z</time></trkpt><trkpt lat="43.8230166" lon="12.7367044"><ele>82.0</ele><time>2026-05-03T09:05:50.526Z</time></trkpt><trkpt lat="43.8228486" lon="12.7365587"><ele>82.0</ele><time>2026-05-03T09:05:51.512Z</time></trkpt><trkpt lat="43.8226832" lon="12.7364024"><ele>82.0</ele><time>2026-05-03T09:05:52.517Z</time></trkpt><trkpt lat="43.822521" lon="12.7362523"><ele>82.0</ele><time>2026-05-03T09:05:53.503Z</time></trkpt><trkpt lat="43.8223535" lon="12.7361074"><ele>83.0</ele><time>2026-05-03T09:05:54.523Z</time></trkpt><trkpt lat="43.8221885" lon="12.7359545"><ele>84.0</ele><time>2026-05-03T09:05:55.515Z</time></trkpt><trkpt lat="43.8220204" lon="12.7358118"><ele>85.0</ele><time>2026-05-03T09:05:56.514Z</time></trkpt><trkpt lat="43.8218609" lon="12.7356458"><ele>85.33333333333333</ele><time>2026-05-03T09:05:57.512Z</time></trkpt><trkpt lat="43.8217032" lon="12.735472"><ele>85.66666666666667</ele><time>2026-05-03T09:05:58.522Z</time></trkpt><trkpt lat="43.8215607" lon="12.7352826"><ele>86.0</ele><time>2026-05-03T09:05:59.513Z</time></trkpt><trkpt lat="43.8214247" lon="12.7350843"><ele>86.0</ele><time>2026-05-03T09:06:00.524Z</time></trkpt><trkpt lat="43.821291" lon="12.7348854"><ele>86.0</ele><time>2026-05-03T09:06:01.516Z</time></trkpt><trkpt lat="43.8211613" lon="12.7346856"><ele>86.0</ele><time>2026-05-03T09:06:02.514Z</time></trkpt><trkpt lat="43.8210389" lon="12.7344779"><ele>85.33333333333334</ele><time>2026-05-03T09:06:03.515Z</time></trkpt><trkpt lat="43.8209141" lon="12.7342667"><ele>84.66666666666667</ele><time>2026-05-03T09:06:04.516Z</time></trkpt><trkpt lat="43.8207701" lon="12.7340609"><ele>84.0</ele><time>2026-05-03T09:06:05.513Z</time></trkpt><trkpt lat="43.8206029" lon="12.7338691"><ele>84.0</ele><time>2026-05-03T09:06:06.515Z</time></trkpt><trkpt lat="43.8204575" lon="12.7337308"><ele>84.0</ele><time>2026-05-03T09:06:07.514Z</time></trkpt><trkpt lat="43.820317" lon="12.7335701"><ele>84.0</ele><time>2026-05-03T09:06:08.516Z</time></trkpt><trkpt lat="43.8201637" lon="12.7334131"><ele>85.0</ele><time>2026-05-03T09:06:09.503Z</time></trkpt><trkpt lat="43.8200142" lon="12.7332748"><ele>86.0</ele><time>2026-05-03T09:06:10.517Z</time></trkpt><trkpt lat="43.8198465" lon="12.7331054"><ele>87.0</ele><time>2026-05-03T09:06:11.515Z</time></trkpt><trkpt lat="43.8196815" lon="12.7329409"><ele>87.0</ele><time>2026-05-03T09:06:12.517Z</time></trkpt><trkpt lat="43.8195254" lon="12.7327721"><ele>87.0</ele><time>2026-05-03T09:06:13.515Z</time></trkpt><trkpt lat="43.819365" lon="12.7326096"><ele>87.0</ele><time>2026-05-03T09:06:14.514Z</time></trkpt><trkpt lat="43.8192053" lon="12.7324441"><ele>87.66666666666667</ele><time>2026-05-03T09:06:15.515Z</time></trkpt><trkpt lat="43.8190464" lon="12.7322737"><ele>88.33333333333334</ele><time>2026-05-03T09:06:16.516Z</time></trkpt><trkpt lat="43.8188862" lon="12.732122"><ele>89.0</ele><time>2026-05-03T09:06:17.523Z</time></trkpt><trkpt lat="43.8187218" lon="12.7319845"><ele>90.0</ele><time>2026-05-03T09:06:18.515Z</time></trkpt><trkpt lat="43.8185519" lon="12.7318613"><ele>91.0</ele><time>2026-05-03T09:06:19.514Z</time></trkpt><trkpt lat="43.8183766" lon="12.7317539"><ele>92.0</ele><time>2026-05-03T09:06:20.513Z</time></trkpt><trkpt lat="43.8181941" lon="12.7316602"><ele>92.0</ele><time>2026-05-03T09:06:21.517Z</time></trkpt><trkpt lat="43.8180157" lon="12.7315727"><ele>92.0</ele><time>2026-05-03T09:06:22.521Z</time></trkpt><trkpt lat="43.8178519" lon="12.7314774"><ele>92.0</ele><time>2026-05-03T09:06:23.518Z</time></trkpt><trkpt lat="43.817691" lon="12.7313945"><ele>92.0</ele><time>2026-05-03T09:06:24.521Z</time></trkpt><trkpt lat="43.8175198" lon="12.7313013"><ele>92.0</ele><time>2026-05-03T09:06:25.515Z</time></trkpt><trkpt lat="43.8173528" lon="12.731202"><ele>92.0</ele><time>2026-05-03T09:06:26.515Z</time></trkpt><trkpt lat="43.8171857" lon="12.7310994"><ele>92.33333333333334</ele><time>2026-05-03T09:06:27.516Z</time></trkpt><trkpt lat="43.8170104" lon="12.7310052"><ele>92.66666666666667</ele><time>2026-05-03T09:06:28.516Z</time></trkpt><trkpt lat="43.8168387" lon="12.7308922"><ele>93.0</ele><time>2026-05-03T09:06:29.52Z</time></trkpt><trkpt lat="43.8166572" lon="12.7307916"><ele>93.0</ele><time>2026-05-03T09:06:30.517Z</time></trkpt><trkpt lat="43.8164866" lon="12.7306808"><ele>93.0</ele><time>2026-05-03T09:06:31.513Z</time></trkpt><trkpt lat="43.8163045" lon="12.7305613"><ele>93.0</ele><time>2026-05-03T09:06:32.516Z</time></trkpt><trkpt lat="43.8161355" lon="12.7304354"><ele>93.0</ele><time>2026-05-03T09:06:33.507Z</time></trkpt><trkpt lat="43.8159682" lon="12.7303066"><ele>93.0</ele><time>2026-05-03T09:06:34.512Z</time></trkpt><trkpt lat="43.8158034" lon="12.7301731"><ele>93.0</ele><time>2026-05-03T09:06:35.515Z</time></trkpt><trkpt lat="43.8156393" lon="12.7300419"><ele>93.0</ele><time>2026-05-03T09:06:36.518Z</time></trkpt><trkpt lat="43.8154793" lon="12.7299275"><ele>93.0</ele><time>2026-05-03T09:06:37.515Z</time></trkpt><trkpt lat="43.8153099" lon="12.7298058"><ele>93.0</ele><time>2026-05-03T09:06:38.52Z</time></trkpt><trkpt lat="43.8151466" lon="12.7296779"><ele>93.33333333333333</ele><time>2026-05-03T09:06:39.513Z</time></trkpt><trkpt lat="43.8149849" lon="12.7295426"><ele>93.66666666666666</ele><time>2026-05-03T09:06:40.517Z</time></trkpt><trkpt lat="43.8148242" lon="12.7294185"><ele>94.0</ele><time>2026-05-03T09:06:41.515Z</time></trkpt><trkpt lat="43.8146567" lon="12.7292935"><ele>94.0</ele><time>2026-05-03T09:06:42.521Z</time></trkpt><trkpt lat="43.8144891" lon="12.729159"><ele>94.0</ele><time>2026-05-03T09:06:43.514Z</time></trkpt><trkpt lat="43.8143205" lon="12.7290216"><ele>94.0</ele><time>2026-05-03T09:06:44.508Z</time></trkpt><trkpt lat="43.8141519" lon="12.7288886"><ele>94.66666666666666</ele><time>2026-05-03T09:06:45.506Z</time></trkpt><trkpt lat="43.8139828" lon="12.7287586"><ele>95.33333333333333</ele><time>2026-05-03T09:06:46.51Z</time></trkpt><trkpt lat="43.8138154" lon="12.7286126"><ele>96.0</ele><time>2026-05-03T09:06:47.515Z</time></trkpt><trkpt lat="43.813646" lon="12.7284787"><ele>97.0</ele><time>2026-05-03T09:06:48.514Z</time></trkpt><trkpt lat="43.8134862" lon="12.7283459"><ele>98.0</ele><time>2026-05-03T09:06:49.517Z</time></trkpt><trkpt lat="43.8133237" lon="12.7282281"><ele>99.0</ele><time>2026-05-03T09:06:50.515Z</time></trkpt><trkpt lat="43.8131593" lon="12.7281095"><ele>99.0</ele><time>2026-05-03T09:06:51.516Z</time></trkpt><trkpt lat="43.8129901" lon="12.7279908"><ele>99.0</ele><time>2026-05-03T09:06:52.514Z</time></trkpt><trkpt lat="43.8128093" lon="12.7279156"><ele>99.0</ele><time>2026-05-03T09:06:53.51Z</time></trkpt><trkpt lat="43.8126244" lon="12.7278419"><ele>98.33333333333334</ele><time>2026-05-03T09:06:54.507Z</time></trkpt><trkpt lat="43.8124374" lon="12.7277912"><ele>97.66666666666667</ele><time>2026-05-03T09:06:55.515Z</time></trkpt><trkpt lat="43.812256" lon="12.727742"><ele>97.0</ele><time>2026-05-03T09:06:56.509Z</time></trkpt><trkpt lat="43.8120848" lon="12.727692"><ele>98.33333333333334</ele><time>2026-05-03T09:06:57.515Z</time></trkpt><trkpt lat="43.8119064" lon="12.7276389"><ele>99.66666666666666</ele><time>2026-05-03T09:06:58.514Z</time></trkpt><trkpt lat="43.8117329" lon="12.7275854"><ele>101.0</ele><time>2026-05-03T09:06:59.507Z</time></trkpt><trkpt lat="43.8115658" lon="12.7275309"><ele>101.0</ele><time>2026-05-03T09:07:00.515Z</time></trkpt><trkpt lat="43.811399" lon="12.7274769"><ele>101.0</ele><time>2026-05-03T09:07:01.513Z</time></trkpt><trkpt lat="43.8112327" lon="12.727394"><ele>101.0</ele><time>2026-05-03T09:07:02.511Z</time></trkpt><trkpt lat="43.8110721" lon="12.7273024"><ele>98.66666666666666</ele><time>2026-05-03T09:07:03.514Z</time></trkpt><trkpt lat="43.8109017" lon="12.727194"><ele>96.33333333333333</ele><time>2026-05-03T09:07:04.509Z</time></trkpt><trkpt lat="43.8107349" lon="12.7270842"><ele>94.0</ele><time>2026-05-03T09:07:05.513Z</time></trkpt><trkpt lat="43.8105512" lon="12.7270057"><ele>94.0</ele><time>2026-05-03T09:07:06.514Z</time></trkpt><trkpt lat="43.8103638" lon="12.7269451"><ele>94.0</ele><time>2026-05-03T09:07:07.513Z</time></trkpt><trkpt lat="43.8101879" lon="12.7268962"><ele>94.0</ele><time>2026-05-03T09:07:08.517Z</time></trkpt><trkpt lat="43.8100028" lon="12.7268842"><ele>96.66666666666666</ele><time>2026-05-03T09:07:09.514Z</time></trkpt><trkpt lat="43.8097777" lon="12.726874"><ele>99.33333333333333</ele><time>2026-05-03T09:07:10.512Z</time></trkpt><trkpt lat="43.8096018" lon="12.7268352"><ele>102.0</ele><time>2026-05-03T09:07:11.517Z</time></trkpt><trkpt lat="43.8094187" lon="12.7268061"><ele>100.0</ele><time>2026-05-03T09:07:12.513Z</time></trkpt><trkpt lat="43.8092518" lon="12.7267756"><ele>98.0</ele><time>2026-05-03T09:07:13.509Z</time></trkpt><trkpt lat="43.8090993" lon="12.726735"><ele>96.0</ele><time>2026-05-03T09:07:14.515Z</time></trkpt><trkpt lat="43.8089472" lon="12.7266824"><ele>96.0</ele><time>2026-05-03T09:07:15.517Z</time></trkpt><trkpt lat="43.8087745" lon="12.7266337"><ele>96.0</ele><time>2026-05-03T09:07:16.511Z</time></trkpt><trkpt lat="43.808612" lon="12.7265714"><ele>96.0</ele><time>2026-05-03T09:07:17.516Z</time></trkpt><trkpt lat="43.8084556" lon="12.7265063"><ele>95.0</ele><time>2026-05-03T09:07:18.517Z</time></trkpt><trkpt lat="43.8082952" lon="12.7264432"><ele>94.0</ele><time>2026-05-03T09:07:19.516Z</time></trkpt><trkpt lat="43.808133" lon="12.7264067"><ele>93.0</ele><time>2026-05-03T09:07:20.515Z</time></trkpt><trkpt lat="43.8079819" lon="12.7263605"><ele>93.0</ele><time>2026-05-03T09:07:21.517Z</time></trkpt><trkpt lat="43.8078315" lon="12.7263114"><ele>93.0</ele><time>2026-05-03T09:07:22.518Z</time></trkpt><trkpt lat="43.8076954" lon="12.726263"><ele>93.0</ele><time>2026-05-03T09:07:23.517Z</time></trkpt><trkpt lat="43.8075404" lon="12.7262104"><ele>94.33333333333334</ele><time>2026-05-03T09:07:24.518Z</time></trkpt><trkpt lat="43.8073986" lon="12.7261659"><ele>95.66666666666667</ele><time>2026-05-03T09:07:25.518Z</time></trkpt><trkpt lat="43.80725" lon="12.7261046"><ele>97.0</ele><time>2026-05-03T09:07:26.516Z</time></trkpt><trkpt lat="43.8070898" lon="12.7260496"><ele>96.66666666666667</ele><time>2026-05-03T09:07:27.516Z</time></trkpt><trkpt lat="43.8069366" lon="12.7259684"><ele>96.33333333333334</ele><time>2026-05-03T09:07:28.514Z</time></trkpt><trkpt lat="43.8067836" lon="12.7258855"><ele>96.0</ele><time>2026-05-03T09:07:29.517Z</time></trkpt><trkpt lat="43.8066239" lon="12.7258021"><ele>96.0</ele><time>2026-05-03T09:07:30.516Z</time></trkpt><trkpt lat="43.8064805" lon="12.725702"><ele>96.0</ele><time>2026-05-03T09:07:31.516Z</time></trkpt><trkpt lat="43.806321" lon="12.7256157"><ele>96.0</ele><time>2026-05-03T09:07:32.516Z</time></trkpt><trkpt lat="43.8061718" lon="12.7255092"><ele>96.0</ele><time>2026-05-03T09:07:33.515Z</time></trkpt><trkpt lat="43.8060097" lon="12.725414"><ele>96.0</ele><time>2026-05-03T09:07:34.522Z</time></trkpt><trkpt lat="43.8058623" lon="12.7252996"><ele>96.0</ele><time>2026-05-03T09:07:35.517Z</time></trkpt><trkpt lat="43.8057009" lon="12.7251767"><ele>97.0</ele><time>2026-05-03T09:07:36.518Z</time></trkpt><trkpt lat="43.8055491" lon="12.725022"><ele>98.0</ele><time>2026-05-03T09:07:37.516Z</time></trkpt><trkpt lat="43.8053846" lon="12.7248902"><ele>99.0</ele><time>2026-05-03T09:07:38.518Z</time></trkpt><trkpt lat="43.8052236" lon="12.724784"><ele>96.33333333333333</ele><time>2026-05-03T09:07:39.517Z</time></trkpt><trkpt lat="43.8050575" lon="12.7246658"><ele>93.66666666666666</ele><time>2026-05-03T09:07:40.516Z</time></trkpt><trkpt lat="43.8048965" lon="12.7245699"><ele>91.0</ele><time>2026-05-03T09:07:41.517Z</time></trkpt><trkpt lat="43.8047442" lon="12.72448"><ele>92.66666666666666</ele><time>2026-05-03T09:07:42.516Z</time></trkpt><trkpt lat="43.8045953" lon="12.7243848"><ele>94.33333333333333</ele><time>2026-05-03T09:07:43.516Z</time></trkpt><trkpt lat="43.804451" lon="12.72428"><ele>96.0</ele><time>2026-05-03T09:07:44.511Z</time></trkpt><trkpt lat="43.8043097" lon="12.724184"><ele>96.0</ele><time>2026-05-03T09:07:45.518Z</time></trkpt><trkpt lat="43.8041676" lon="12.7240748"><ele>96.0</ele><time>2026-05-03T09:07:46.514Z</time></trkpt><trkpt lat="43.8040343" lon="12.7239617"><ele>96.0</ele><time>2026-05-03T09:07:47.516Z</time></trkpt><trkpt lat="43.8039051" lon="12.7238455"><ele>96.0</ele><time>2026-05-03T09:07:48.516Z</time></trkpt><trkpt lat="43.8037824" lon="12.7237245"><ele>96.0</ele><time>2026-05-03T09:07:49.516Z</time></trkpt><trkpt lat="43.8036489" lon="12.7236012"><ele>96.0</ele><time>2026-05-03T09:07:50.517Z</time></trkpt><trkpt lat="43.8035096" lon="12.7234833"><ele>96.66666666666666</ele><time>2026-05-03T09:07:51.516Z</time></trkpt><trkpt lat="43.8033663" lon="12.7233656"><ele>97.33333333333333</ele><time>2026-05-03T09:07:52.517Z</time></trkpt><trkpt lat="43.8032219" lon="12.7232297"><ele>98.0</ele><time>2026-05-03T09:07:53.517Z</time></trkpt><trkpt lat="43.8030682" lon="12.7231088"><ele>98.0</ele><time>2026-05-03T09:07:54.517Z</time></trkpt><trkpt lat="43.8029081" lon="12.722995"><ele>98.0</ele><time>2026-05-03T09:07:55.517Z</time></trkpt><trkpt lat="43.8027413" lon="12.722886"><ele>98.0</ele><time>2026-05-03T09:07:56.516Z</time></trkpt><trkpt lat="43.8025696" lon="12.7227932"><ele>95.33333333333333</ele><time>2026-05-03T09:07:57.517Z</time></trkpt><trkpt lat="43.8023907" lon="12.7227042"><ele>92.66666666666666</ele><time>2026-05-03T09:07:58.519Z</time></trkpt><trkpt lat="43.8022047" lon="12.7226299"><ele>90.0</ele><time>2026-05-03T09:07:59.516Z</time></trkpt><trkpt lat="43.8020107" lon="12.7225707"><ele>90.33333333333333</ele><time>2026-05-03T09:08:00.512Z</time></trkpt><trkpt lat="43.8018127" lon="12.7225155"><ele>90.66666666666666</ele><time>2026-05-03T09:08:01.519Z</time></trkpt><trkpt lat="43.8016169" lon="12.7225095"><ele>91.0</ele><time>2026-05-03T09:08:02.508Z</time></trkpt><trkpt lat="43.8014243" lon="12.7225114"><ele>91.0</ele><time>2026-05-03T09:08:03.513Z</time></trkpt><trkpt lat="43.8012369" lon="12.7225239"><ele>91.0</ele><time>2026-05-03T09:08:04.518Z</time></trkpt><trkpt lat="43.8010547" lon="12.7225354"><ele>91.0</ele><time>2026-05-03T09:08:05.516Z</time></trkpt><trkpt lat="43.8008812" lon="12.7225615"><ele>93.66666666666666</ele><time>2026-05-03T09:08:06.516Z</time></trkpt><trkpt lat="43.8007264" lon="12.7225972"><ele>96.33333333333333</ele><time>2026-05-03T09:08:07.516Z</time></trkpt><trkpt lat="43.8005732" lon="12.7226385"><ele>99.0</ele><time>2026-05-03T09:08:08.517Z</time></trkpt><trkpt lat="43.8004139" lon="12.7226811"><ele>98.0</ele><time>2026-05-03T09:08:09.518Z</time></trkpt><trkpt lat="43.8002607" lon="12.7227316"><ele>97.0</ele><time>2026-05-03T09:08:10.517Z</time></trkpt><trkpt lat="43.8001044" lon="12.7227803"><ele>96.0</ele><time>2026-05-03T09:08:11.516Z</time></trkpt><trkpt lat="43.7999199" lon="12.7228577"><ele>96.0</ele><time>2026-05-03T09:08:12.517Z</time></trkpt><trkpt lat="43.7997519" lon="12.7229359"><ele>96.0</ele><time>2026-05-03T09:08:13.516Z</time></trkpt><trkpt lat="43.7996168" lon="12.722922"><ele>96.0</ele><time>2026-05-03T09:08:14.516Z</time></trkpt><trkpt lat="43.7994558" lon="12.7229467"><ele>95.66666666666667</ele><time>2026-05-03T09:08:15.516Z</time></trkpt><trkpt lat="43.7993045" lon="12.7229491"><ele>95.33333333333334</ele><time>2026-05-03T09:08:16.515Z</time></trkpt><trkpt lat="43.7991405" lon="12.7229544"><ele>95.0</ele><time>2026-05-03T09:08:17.517Z</time></trkpt><trkpt lat="43.7989626" lon="12.7229494"><ele>95.0</ele><time>2026-05-03T09:08:18.518Z</time></trkpt><trkpt lat="43.7987918" lon="12.7229255"><ele>95.0</ele><time>2026-05-03T09:08:19.517Z</time></trkpt><trkpt lat="43.798636" lon="12.7228947"><ele>95.0</ele><time>2026-05-03T09:08:20.515Z</time></trkpt><trkpt lat="43.798476" lon="12.7228699"><ele>95.66666666666667</ele><time>2026-05-03T09:08:21.516Z</time></trkpt><trkpt lat="43.798313" lon="12.7228438"><ele>96.33333333333334</ele><time>2026-05-03T09:08:22.517Z</time></trkpt><trkpt lat="43.7981566" lon="12.722832"><ele>97.0</ele><time>2026-05-03T09:08:23.517Z</time></trkpt><trkpt lat="43.7980005" lon="12.7228115"><ele>97.0</ele><time>2026-05-03T09:08:24.517Z</time></trkpt><trkpt lat="43.7978486" lon="12.7227985"><ele>97.0</ele><time>2026-05-03T09:08:25.517Z</time></trkpt><trkpt lat="43.7977004" lon="12.7227798"><ele>97.0</ele><time>2026-05-03T09:08:26.517Z</time></trkpt><trkpt lat="43.7975508" lon="12.722768"><ele>97.25</ele><time>2026-05-03T09:08:27.517Z</time></trkpt><trkpt lat="43.7974151" lon="12.7227494"><ele>97.5</ele><time>2026-05-03T09:08:28.517Z</time></trkpt><trkpt lat="43.797282" lon="12.722729"><ele>97.75</ele><time>2026-05-03T09:08:29.517Z</time></trkpt><trkpt lat="43.7971551" lon="12.7227145"><ele>98.0</ele><time>2026-05-03T09:08:30.518Z</time></trkpt><trkpt lat="43.7970387" lon="12.7227062"><ele>99.16666666666666</ele><time>2026-05-03T09:08:31.517Z</time></trkpt><trkpt lat="43.7969395" lon="12.7226929"><ele>100.33333333333333</ele><time>2026-05-03T09:08:32.516Z</time></trkpt><trkpt lat="43.7968553" lon="12.7226763"><ele>101.5</ele><time>2026-05-03T09:08:33.517Z</time></trkpt><trkpt lat="43.7967757" lon="12.7226484"><ele>102.66666666666666</ele><time>2026-05-03T09:08:34.507Z</time></trkpt><trkpt lat="43.7967034" lon="12.7226018"><ele>103.83333333333333</ele><time>2026-05-03T09:08:35.517Z</time></trkpt><trkpt lat="43.7966499" lon="12.7225185"><ele>105.0</ele><time>2026-05-03T09:08:36.517Z</time></trkpt><trkpt lat="43.7966083" lon="12.7224267"><ele>105.16666666666667</ele><time>2026-05-03T09:08:37.516Z</time></trkpt><trkpt lat="43.7965615" lon="12.7223488"><ele>105.33333333333334</ele><time>2026-05-03T09:08:38.518Z</time></trkpt><trkpt lat="43.7965048" lon="12.7223081"><ele>105.5</ele><time>2026-05-03T09:08:39.516Z</time></trkpt><trkpt lat="43.7964368" lon="12.7223025"><ele>105.66666666666667</ele><time>2026-05-03T09:08:40.518Z</time></trkpt><trkpt lat="43.7963687" lon="12.7223411"><ele>105.83333333333334</ele><time>2026-05-03T09:08:41.517Z</time></trkpt><trkpt lat="43.7963066" lon="12.7224144"><ele>106.0</ele><time>2026-05-03T09:08:42.517Z</time></trkpt><trkpt lat="43.7962405" lon="12.7225003"><ele>106.0</ele><time>2026-05-03T09:08:43.515Z</time></trkpt><trkpt lat="43.796156" lon="12.7225805"><ele>106.0</ele><time>2026-05-03T09:08:44.517Z</time></trkpt><trkpt lat="43.7960497" lon="12.7226349"><ele>106.0</ele><time>2026-05-03T09:08:45.516Z</time></trkpt><trkpt lat="43.7959236" lon="12.7226752"><ele>106.0</ele><time>2026-05-03T09:08:46.516Z</time></trkpt><trkpt lat="43.795769" lon="12.7227174"><ele>102.33333333333334</ele><time>2026-05-03T09:08:47.517Z</time></trkpt><trkpt lat="43.7955866" lon="12.7227717"><ele>98.66666666666667</ele><time>2026-05-03T09:08:48.514Z</time></trkpt><trkpt lat="43.7953838" lon="12.7228212"><ele>95.0</ele><time>2026-05-03T09:08:49.516Z</time></trkpt><trkpt lat="43.7951547" lon="12.7228716"><ele>94.0</ele><time>2026-05-03T09:08:50.517Z</time></trkpt><trkpt lat="43.7949167" lon="12.7229464"><ele>93.0</ele><time>2026-05-03T09:08:51.516Z</time></trkpt><trkpt lat="43.7946738" lon="12.7230274"><ele>93.0</ele><time>2026-05-03T09:08:52.517Z</time></trkpt><trkpt lat="43.7944256" lon="12.7231221"><ele>93.0</ele><time>2026-05-03T09:08:53.515Z</time></trkpt><trkpt lat="43.7941726" lon="12.7232188"><ele>95.0</ele><time>2026-05-03T09:08:54.515Z</time></trkpt><trkpt lat="43.7939187" lon="12.7233199"><ele>97.0</ele><time>2026-05-03T09:08:55.518Z</time></trkpt><trkpt lat="43.7936723" lon="12.7234116"><ele>98.0</ele><time>2026-05-03T09:08:56.517Z</time></trkpt><trkpt lat="43.7934425" lon="12.7234846"><ele>99.0</ele><time>2026-05-03T09:08:57.517Z</time></trkpt><trkpt lat="43.7932267" lon="12.7235547"><ele>103.5</ele><time>2026-05-03T09:08:58.516Z</time></trkpt><trkpt lat="43.7929954" lon="12.7236167"><ele>108.0</ele><time>2026-05-03T09:08:59.516Z</time></trkpt><trkpt lat="43.7927893" lon="12.7237074"><ele>107.66666666666666</ele><time>2026-05-03T09:09:00.518Z</time></trkpt><trkpt lat="43.7925951" lon="12.7237779"><ele>107.33333333333333</ele><time>2026-05-03T09:09:01.516Z</time></trkpt><trkpt lat="43.7923859" lon="12.723841"><ele>107.0</ele><time>2026-05-03T09:09:02.515Z</time></trkpt><trkpt lat="43.7921874" lon="12.7238655"><ele>107.0</ele><time>2026-05-03T09:09:03.514Z</time></trkpt><trkpt lat="43.7919378" lon="12.723957"><ele>107.0</ele><time>2026-05-03T09:09:04.512Z</time></trkpt><trkpt lat="43.7917177" lon="12.7240186"><ele>106.0</ele><time>2026-05-03T09:09:05.517Z</time></trkpt><trkpt lat="43.7914999" lon="12.7240715"><ele>105.0</ele><time>2026-05-03T09:09:06.517Z</time></trkpt><trkpt lat="43.7912572" lon="12.7241603"><ele>105.0</ele><time>2026-05-03T09:09:07.517Z</time></trkpt><trkpt lat="43.79103" lon="12.7242472"><ele>105.0</ele><time>2026-05-03T09:09:08.517Z</time></trkpt><trkpt lat="43.7907838" lon="12.7243175"><ele>103.5</ele><time>2026-05-03T09:09:09.517Z</time></trkpt><trkpt lat="43.7905603" lon="12.7242971"><ele>102.0</ele><time>2026-05-03T09:09:10.518Z</time></trkpt><trkpt lat="43.7903315" lon="12.7242954"><ele>100.66666666666666</ele><time>2026-05-03T09:09:11.517Z</time></trkpt><trkpt lat="43.7901128" lon="12.7242495"><ele>99.33333333333333</ele><time>2026-05-03T09:09:12.519Z</time></trkpt><trkpt lat="43.7898977" lon="12.7241657"><ele>98.0</ele><time>2026-05-03T09:09:13.518Z</time></trkpt><trkpt lat="43.7896892" lon="12.7240546"><ele>98.0</ele><time>2026-05-03T09:09:14.516Z</time></trkpt><trkpt lat="43.7894826" lon="12.723922"><ele>98.0</ele><time>2026-05-03T09:09:15.517Z</time></trkpt><trkpt lat="43.7892854" lon="12.7237624"><ele>98.0</ele><time>2026-05-03T09:09:16.517Z</time></trkpt><trkpt lat="43.7890972" lon="12.7235879"><ele>98.0</ele><time>2026-05-03T09:09:17.517Z</time></trkpt><trkpt lat="43.7889164" lon="12.7233936"><ele>98.0</ele><time>2026-05-03T09:09:18.516Z</time></trkpt><trkpt lat="43.7887328" lon="12.7231931"><ele>98.0</ele><time>2026-05-03T09:09:19.518Z</time></trkpt><trkpt lat="43.7885541" lon="12.7229944"><ele>99.0</ele><time>2026-05-03T09:09:20.518Z</time></trkpt><trkpt lat="43.7883773" lon="12.7228007"><ele>100.0</ele><time>2026-05-03T09:09:21.51Z</time></trkpt><trkpt lat="43.7882185" lon="12.72262"><ele>101.0</ele><time>2026-05-03T09:09:22.516Z</time></trkpt><trkpt lat="43.7880458" lon="12.7224333"><ele>101.0</ele><time>2026-05-03T09:09:23.517Z</time></trkpt><trkpt lat="43.7878823" lon="12.7222433"><ele>101.0</ele><time>2026-05-03T09:09:24.518Z</time></trkpt><trkpt lat="43.7877221" lon="12.7220572"><ele>101.0</ele><time>2026-05-03T09:09:25.517Z</time></trkpt><trkpt lat="43.7875602" lon="12.7218761"><ele>101.66666666666666</ele><time>2026-05-03T09:09:26.515Z</time></trkpt><trkpt lat="43.787397" lon="12.7216987"><ele>102.33333333333334</ele><time>2026-05-03T09:09:27.516Z</time></trkpt><trkpt lat="43.7872338" lon="12.7215201"><ele>103.0</ele><time>2026-05-03T09:09:28.518Z</time></trkpt><trkpt lat="43.7870729" lon="12.7213504"><ele>103.0</ele><time>2026-05-03T09:09:29.516Z</time></trkpt><trkpt lat="43.7869169" lon="12.7211627"><ele>103.0</ele><time>2026-05-03T09:09:30.518Z</time></trkpt><trkpt lat="43.7867565" lon="12.7209825"><ele>103.0</ele><time>2026-05-03T09:09:31.517Z</time></trkpt><trkpt lat="43.7866014" lon="12.7208045"><ele>104.0</ele><time>2026-05-03T09:09:32.516Z</time></trkpt><trkpt lat="43.7864512" lon="12.7206199"><ele>105.0</ele><time>2026-05-03T09:09:33.518Z</time></trkpt><trkpt lat="43.7863032" lon="12.7204309"><ele>106.0</ele><time>2026-05-03T09:09:34.518Z</time></trkpt><trkpt lat="43.7861631" lon="12.7202363"><ele>105.66666666666667</ele><time>2026-05-03T09:09:35.517Z</time></trkpt><trkpt lat="43.7860152" lon="12.7200392"><ele>105.33333333333334</ele><time>2026-05-03T09:09:36.516Z</time></trkpt><trkpt lat="43.7858574" lon="12.7198536"><ele>105.0</ele><time>2026-05-03T09:09:37.516Z</time></trkpt><trkpt lat="43.7856991" lon="12.7196678"><ele>105.0</ele><time>2026-05-03T09:09:38.518Z</time></trkpt><trkpt lat="43.7855379" lon="12.7195028"><ele>105.0</ele><time>2026-05-03T09:09:39.516Z</time></trkpt><trkpt lat="43.7853647" lon="12.7193606"><ele>105.0</ele><time>2026-05-03T09:09:40.516Z</time></trkpt><trkpt lat="43.7851856" lon="12.7192374"><ele>105.66666666666666</ele><time>2026-05-03T09:09:41.517Z</time></trkpt><trkpt lat="43.7849953" lon="12.719139"><ele>106.33333333333333</ele><time>2026-05-03T09:09:42.516Z</time></trkpt><trkpt lat="43.7848102" lon="12.7190471"><ele>107.0</ele><time>2026-05-03T09:09:43.516Z</time></trkpt><trkpt lat="43.7846257" lon="12.7189483"><ele>107.0</ele><time>2026-05-03T09:09:44.517Z</time></trkpt><trkpt lat="43.7844458" lon="12.718834"><ele>107.0</ele><time>2026-05-03T09:09:45.517Z</time></trkpt><trkpt lat="43.7842702" lon="12.7187137"><ele>107.0</ele><time>2026-05-03T09:09:46.508Z</time></trkpt><trkpt lat="43.7841086" lon="12.7185307"><ele>106.66666666666666</ele><time>2026-05-03T09:09:47.514Z</time></trkpt><trkpt lat="43.7839356" lon="12.7183722"><ele>106.33333333333334</ele><time>2026-05-03T09:09:48.517Z</time></trkpt><trkpt lat="43.7838079" lon="12.7181463"><ele>106.0</ele><time>2026-05-03T09:09:49.516Z</time></trkpt><trkpt lat="43.7836724" lon="12.7179387"><ele>106.33333333333334</ele><time>2026-05-03T09:09:50.517Z</time></trkpt><trkpt lat="43.7835445" lon="12.7177342"><ele>106.66666666666666</ele><time>2026-05-03T09:09:51.516Z</time></trkpt><trkpt lat="43.7834193" lon="12.7175263"><ele>107.0</ele><time>2026-05-03T09:09:52.518Z</time></trkpt><trkpt lat="43.7832969" lon="12.7173233"><ele>106.66666666666666</ele><time>2026-05-03T09:09:53.517Z</time></trkpt><trkpt lat="43.783176" lon="12.7171202"><ele>106.33333333333334</ele><time>2026-05-03T09:09:54.516Z</time></trkpt><trkpt lat="43.7830509" lon="12.7169205"><ele>106.0</ele><time>2026-05-03T09:09:55.517Z</time></trkpt><trkpt lat="43.7829254" lon="12.7167183"><ele>106.0</ele><time>2026-05-03T09:09:56.516Z</time></trkpt><trkpt lat="43.7828074" lon="12.7165211"><ele>106.0</ele><time>2026-05-03T09:09:57.517Z</time></trkpt><trkpt lat="43.7826995" lon="12.7163196"><ele>106.0</ele><time>2026-05-03T09:09:58.518Z</time></trkpt><trkpt lat="43.7826017" lon="12.7161235"><ele>110.66666666666667</ele><time>2026-05-03T09:09:59.517Z</time></trkpt><trkpt lat="43.7825055" lon="12.7159171"><ele>115.33333333333334</ele><time>2026-05-03T09:10:00.516Z</time></trkpt><trkpt lat="43.7824133" lon="12.7156976"><ele>120.0</ele><time>2026-05-03T09:10:01.517Z</time></trkpt><trkpt lat="43.7823384" lon="12.7154602"><ele>122.0</ele><time>2026-05-03T09:10:02.511Z</time></trkpt><trkpt lat="43.7822714" lon="12.7152092"><ele>124.0</ele><time>2026-05-03T09:10:03.516Z</time></trkpt><trkpt lat="43.7822441" lon="12.7149433"><ele>126.0</ele><time>2026-05-03T09:10:04.515Z</time></trkpt><trkpt lat="43.7822106" lon="12.7146782"><ele>126.0</ele><time>2026-05-03T09:10:05.518Z</time></trkpt><trkpt lat="43.7822053" lon="12.714436"><ele>126.0</ele><time>2026-05-03T09:10:06.518Z</time></trkpt><trkpt lat="43.7822001" lon="12.7141837"><ele>126.0</ele><time>2026-05-03T09:10:07.517Z</time></trkpt><trkpt lat="43.7821958" lon="12.7139626"><ele>126.66666666666666</ele><time>2026-05-03T09:10:08.517Z</time></trkpt><trkpt lat="43.7821925" lon="12.7137482"><ele>127.33333333333333</ele><time>2026-05-03T09:10:09.516Z</time></trkpt><trkpt lat="43.7821942" lon="12.713536"><ele>128.0</ele><time>2026-05-03T09:10:10.517Z</time></trkpt><trkpt lat="43.7821904" lon="12.7133154"><ele>128.33333333333331</ele><time>2026-05-03T09:10:11.516Z</time></trkpt><trkpt lat="43.7821865" lon="12.713087"><ele>128.66666666666666</ele><time>2026-05-03T09:10:12.516Z</time></trkpt><trkpt lat="43.7821705" lon="12.712853"><ele>129.0</ele><time>2026-05-03T09:10:13.516Z</time></trkpt><trkpt lat="43.7821459" lon="12.7126351"><ele>128.33333333333334</ele><time>2026-05-03T09:10:14.516Z</time></trkpt><trkpt lat="43.7821136" lon="12.7124138"><ele>127.66666666666667</ele><time>2026-05-03T09:10:15.517Z</time></trkpt><trkpt lat="43.7820693" lon="12.7121942"><ele>127.0</ele><time>2026-05-03T09:10:16.515Z</time></trkpt><trkpt lat="43.7820108" lon="12.7119789"><ele>127.0</ele><time>2026-05-03T09:10:17.517Z</time></trkpt><trkpt lat="43.7819362" lon="12.7117605"><ele>127.0</ele><time>2026-05-03T09:10:18.511Z</time></trkpt><trkpt lat="43.7818532" lon="12.7115354"><ele>127.0</ele><time>2026-05-03T09:10:19.517Z</time></trkpt><trkpt lat="43.7817458" lon="12.7113207"><ele>127.0</ele><time>2026-05-03T09:10:20.515Z</time></trkpt><trkpt lat="43.7816158" lon="12.711082"><ele>127.0</ele><time>2026-05-03T09:10:21.517Z</time></trkpt><trkpt lat="43.781482" lon="12.7108363"><ele>127.0</ele><time>2026-05-03T09:10:22.517Z</time></trkpt><trkpt lat="43.7813568" lon="12.7106019"><ele>123.66666666666667</ele><time>2026-05-03T09:10:23.516Z</time></trkpt><trkpt lat="43.7812429" lon="12.7103784"><ele>120.33333333333334</ele><time>2026-05-03T09:10:24.518Z</time></trkpt><trkpt lat="43.7811426" lon="12.7101568"><ele>117.0</ele><time>2026-05-03T09:10:25.517Z</time></trkpt><trkpt lat="43.7810469" lon="12.7099366"><ele>118.0</ele><time>2026-05-03T09:10:26.516Z</time></trkpt><trkpt lat="43.7809595" lon="12.7097134"><ele>119.0</ele><time>2026-05-03T09:10:27.517Z</time></trkpt><trkpt lat="43.7808889" lon="12.7094701"><ele>120.0</ele><time>2026-05-03T09:10:28.517Z</time></trkpt><trkpt lat="43.7808256" lon="12.7092057"><ele>120.0</ele><time>2026-05-03T09:10:29.518Z</time></trkpt><trkpt lat="43.7807777" lon="12.7089116"><ele>120.0</ele><time>2026-05-03T09:10:30.516Z</time></trkpt><trkpt lat="43.7807234" lon="12.70863"><ele>120.0</ele><time>2026-05-03T09:10:31.517Z</time></trkpt><trkpt lat="43.7807156" lon="12.7083225"><ele>118.33333333333334</ele><time>2026-05-03T09:10:32.515Z</time></trkpt><trkpt lat="43.7806937" lon="12.7080388"><ele>116.66666666666667</ele><time>2026-05-03T09:10:33.517Z</time></trkpt><trkpt lat="43.780668" lon="12.7077553"><ele>115.0</ele><time>2026-05-03T09:10:34.512Z</time></trkpt><trkpt lat="43.7806524" lon="12.7074811"><ele>114.33333333333334</ele><time>2026-05-03T09:10:35.518Z</time></trkpt><trkpt lat="43.7806365" lon="12.7072174"><ele>113.66666666666666</ele><time>2026-05-03T09:10:36.517Z</time></trkpt><trkpt lat="43.7806294" lon="12.7069535"><ele>113.0</ele><time>2026-05-03T09:10:37.516Z</time></trkpt><trkpt lat="43.7806276" lon="12.7066936"><ele>113.0</ele><time>2026-05-03T09:10:38.516Z</time></trkpt><trkpt lat="43.7806387" lon="12.7064228"><ele>113.0</ele><time>2026-05-03T09:10:39.517Z</time></trkpt><trkpt lat="43.7806668" lon="12.7061411"><ele>113.0</ele><time>2026-05-03T09:10:40.518Z</time></trkpt><trkpt lat="43.7807097" lon="12.7058491"><ele>113.0</ele><time>2026-05-03T09:10:41.518Z</time></trkpt><trkpt lat="43.7807599" lon="12.7055568"><ele>113.0</ele><time>2026-05-03T09:10:42.516Z</time></trkpt><trkpt lat="43.7808115" lon="12.7052779"><ele>113.0</ele><time>2026-05-03T09:10:43.517Z</time></trkpt><trkpt lat="43.780855" lon="12.7050053"><ele>113.33333333333333</ele><time>2026-05-03T09:10:44.518Z</time></trkpt><trkpt lat="43.780884" lon="12.7047222"><ele>113.66666666666666</ele><time>2026-05-03T09:10:45.515Z</time></trkpt><trkpt lat="43.7808936" lon="12.7044318"><ele>114.0</ele><time>2026-05-03T09:10:46.516Z</time></trkpt><trkpt lat="43.7808799" lon="12.7041559"><ele>115.0</ele><time>2026-05-03T09:10:47.517Z</time></trkpt><trkpt lat="43.7808572" lon="12.703882"><ele>116.0</ele><time>2026-05-03T09:10:48.516Z</time></trkpt><trkpt lat="43.7808209" lon="12.7036185"><ele>117.0</ele><time>2026-05-03T09:10:49.514Z</time></trkpt><trkpt lat="43.7807764" lon="12.7033656"><ele>118.0</ele><time>2026-05-03T09:10:50.516Z</time></trkpt><trkpt lat="43.7807287" lon="12.7031217"><ele>119.0</ele><time>2026-05-03T09:10:51.516Z</time></trkpt><trkpt lat="43.7806767" lon="12.7028819"><ele>120.0</ele><time>2026-05-03T09:10:52.517Z</time></trkpt><trkpt lat="43.7806316" lon="12.7026436"><ele>120.33333333333334</ele><time>2026-05-03T09:10:53.516Z</time></trkpt><trkpt lat="43.7805946" lon="12.7024084"><ele>120.66666666666667</ele><time>2026-05-03T09:10:54.517Z</time></trkpt><trkpt lat="43.7805678" lon="12.7021733"><ele>121.0</ele><time>2026-05-03T09:10:55.516Z</time></trkpt><trkpt lat="43.7805438" lon="12.7019433"><ele>121.0</ele><time>2026-05-03T09:10:56.516Z</time></trkpt><trkpt lat="43.7805305" lon="12.7017202"><ele>121.0</ele><time>2026-05-03T09:10:57.516Z</time></trkpt><trkpt lat="43.7805255" lon="12.7015105"><ele>121.0</ele><time>2026-05-03T09:10:58.517Z</time></trkpt><trkpt lat="43.7805231" lon="12.7013101"><ele>121.0</ele><time>2026-05-03T09:10:59.508Z</time></trkpt><trkpt lat="43.7805299" lon="12.7011167"><ele>121.0</ele><time>2026-05-03T09:11:00.518Z</time></trkpt><trkpt lat="43.7805393" lon="12.7009318"><ele>121.0</ele><time>2026-05-03T09:11:01.517Z</time></trkpt><trkpt lat="43.7805524" lon="12.7007483"><ele>121.0</ele><time>2026-05-03T09:11:02.512Z</time></trkpt><trkpt lat="43.7805705" lon="12.7005677"><ele>121.25</ele><time>2026-05-03T09:11:03.514Z</time></trkpt><trkpt lat="43.7806013" lon="12.7003795"><ele>121.5</ele><time>2026-05-03T09:11:04.519Z</time></trkpt><trkpt lat="43.7806334" lon="12.7001874"><ele>121.75</ele><time>2026-05-03T09:11:05.516Z</time></trkpt><trkpt lat="43.780664" lon="12.6999933"><ele>122.0</ele><time>2026-05-03T09:11:06.514Z</time></trkpt><trkpt lat="43.7806983" lon="12.6997971"><ele>122.0</ele><time>2026-05-03T09:11:07.516Z</time></trkpt><trkpt lat="43.780732" lon="12.6995999"><ele>122.0</ele><time>2026-05-03T09:11:08.518Z</time></trkpt><trkpt lat="43.7807738" lon="12.6994021"><ele>122.0</ele><time>2026-05-03T09:11:09.516Z</time></trkpt><trkpt lat="43.7808126" lon="12.6991906"><ele>122.0</ele><time>2026-05-03T09:11:10.515Z</time></trkpt><trkpt lat="43.780854" lon="12.6989663"><ele>122.0</ele><time>2026-05-03T09:11:11.515Z</time></trkpt><trkpt lat="43.7808969" lon="12.6987317"><ele>122.0</ele><time>2026-05-03T09:11:12.517Z</time></trkpt><trkpt lat="43.7809394" lon="12.6984824"><ele>122.0</ele><time>2026-05-03T09:11:13.517Z</time></trkpt><trkpt lat="43.780985" lon="12.6982272"><ele>122.0</ele><time>2026-05-03T09:11:14.516Z</time></trkpt><trkpt lat="43.7810368" lon="12.697979"><ele>122.0</ele><time>2026-05-03T09:11:15.518Z</time></trkpt><trkpt lat="43.7810892" lon="12.6977358"><ele>122.66666666666666</ele><time>2026-05-03T09:11:16.517Z</time></trkpt><trkpt lat="43.7811404" lon="12.6974831"><ele>123.33333333333334</ele><time>2026-05-03T09:11:17.517Z</time></trkpt><trkpt lat="43.7811941" lon="12.6972271"><ele>124.0</ele><time>2026-05-03T09:11:18.517Z</time></trkpt><trkpt lat="43.7812488" lon="12.6969678"><ele>123.33333333333334</ele><time>2026-05-03T09:11:19.517Z</time></trkpt><trkpt lat="43.7812985" lon="12.6967046"><ele>122.66666666666666</ele><time>2026-05-03T09:11:20.517Z</time></trkpt><trkpt lat="43.7813552" lon="12.6964848"><ele>122.0</ele><time>2026-05-03T09:11:21.515Z</time></trkpt><trkpt lat="43.7813998" lon="12.6962528"><ele>122.66666666666666</ele><time>2026-05-03T09:11:22.516Z</time></trkpt><trkpt lat="43.7814479" lon="12.696033"><ele>123.33333333333334</ele><time>2026-05-03T09:11:23.513Z</time></trkpt><trkpt lat="43.7814905" lon="12.6958093"><ele>124.0</ele><time>2026-05-03T09:11:24.518Z</time></trkpt><trkpt lat="43.7815351" lon="12.6955917"><ele>124.0</ele><time>2026-05-03T09:11:25.516Z</time></trkpt><trkpt lat="43.7815749" lon="12.6953741"><ele>124.0</ele><time>2026-05-03T09:11:26.518Z</time></trkpt><trkpt lat="43.7816155" lon="12.695153"><ele>124.0</ele><time>2026-05-03T09:11:27.517Z</time></trkpt><trkpt lat="43.7816586" lon="12.6949368"><ele>124.0</ele><time>2026-05-03T09:11:28.516Z</time></trkpt><trkpt lat="43.7816891" lon="12.6947204"><ele>124.0</ele><time>2026-05-03T09:11:29.518Z</time></trkpt><trkpt lat="43.7817312" lon="12.6945045"><ele>124.0</ele><time>2026-05-03T09:11:30.516Z</time></trkpt><trkpt lat="43.7817701" lon="12.6942904"><ele>124.0</ele><time>2026-05-03T09:11:31.518Z</time></trkpt><trkpt lat="43.7818079" lon="12.6940707"><ele>124.0</ele><time>2026-05-03T09:11:32.518Z</time></trkpt><trkpt lat="43.7818529" lon="12.6938503"><ele>124.0</ele><time>2026-05-03T09:11:33.518Z</time></trkpt><trkpt lat="43.7818911" lon="12.6936555"><ele>126.0</ele><time>2026-05-03T09:11:34.518Z</time></trkpt><trkpt lat="43.7819338" lon="12.6934665"><ele>128.0</ele><time>2026-05-03T09:11:35.517Z</time></trkpt><trkpt lat="43.7819748" lon="12.6932715"><ele>130.0</ele><time>2026-05-03T09:11:36.517Z</time></trkpt><trkpt lat="43.7820029" lon="12.6930825"><ele>132.0</ele><time>2026-05-03T09:11:37.51Z</time></trkpt><trkpt lat="43.7820333" lon="12.6928971"><ele>132.0</ele><time>2026-05-03T09:11:38.517Z</time></trkpt><trkpt lat="43.7820587" lon="12.6927022"><ele>132.0</ele><time>2026-05-03T09:11:39.516Z</time></trkpt><trkpt lat="43.7820712" lon="12.6925022"><ele>132.0</ele><time>2026-05-03T09:11:40.516Z</time></trkpt><trkpt lat="43.7820772" lon="12.6922994"><ele>132.0</ele><time>2026-05-03T09:11:41.518Z</time></trkpt><trkpt lat="43.7820763" lon="12.6920965"><ele>133.66666666666666</ele><time>2026-05-03T09:11:42.52Z</time></trkpt><trkpt lat="43.7820741" lon="12.691886"><ele>135.33333333333331</ele><time>2026-05-03T09:11:43.516Z</time></trkpt><trkpt lat="43.7820622" lon="12.6916783"><ele>137.0</ele><time>2026-05-03T09:11:44.517Z</time></trkpt><trkpt lat="43.7820411" lon="12.6914695"><ele>137.0</ele><time>2026-05-03T09:11:45.516Z</time></trkpt><trkpt lat="43.7820087" lon="12.6912671"><ele>137.0</ele><time>2026-05-03T09:11:46.519Z</time></trkpt><trkpt lat="43.7819736" lon="12.6910685"><ele>137.0</ele><time>2026-05-03T09:11:47.517Z</time></trkpt><trkpt lat="43.7819344" lon="12.6908797"><ele>137.0</ele><time>2026-05-03T09:11:48.516Z</time></trkpt><trkpt lat="43.7818881" lon="12.6906939"><ele>134.25</ele><time>2026-05-03T09:11:49.516Z</time></trkpt><trkpt lat="43.781846" lon="12.6905146"><ele>131.5</ele><time>2026-05-03T09:11:50.516Z</time></trkpt><trkpt lat="43.7818062" lon="12.6903348"><ele>128.75</ele><time>2026-05-03T09:11:51.517Z</time></trkpt><trkpt lat="43.7817634" lon="12.6901587"><ele>126.0</ele><time>2026-05-03T09:11:52.517Z</time></trkpt><trkpt lat="43.7817176" lon="12.6899801"><ele>126.0</ele><time>2026-05-03T09:11:53.513Z</time></trkpt><trkpt lat="43.7816705" lon="12.6897923"><ele>126.0</ele><time>2026-05-03T09:11:54.517Z</time></trkpt><trkpt lat="43.7816203" lon="12.6896087"><ele>126.0</ele><time>2026-05-03T09:11:55.517Z</time></trkpt><trkpt lat="43.781565" lon="12.6894267"><ele>126.0</ele><time>2026-05-03T09:11:56.515Z</time></trkpt><trkpt lat="43.7814995" lon="12.6892464"><ele>127.0</ele><time>2026-05-03T09:11:57.516Z</time></trkpt><trkpt lat="43.7814332" lon="12.6890825"><ele>128.0</ele><time>2026-05-03T09:11:58.517Z</time></trkpt><trkpt lat="43.7813517" lon="12.6889208"><ele>129.0</ele><time>2026-05-03T09:11:59.517Z</time></trkpt><trkpt lat="43.7812496" lon="12.6887513"><ele>130.0</ele><time>2026-05-03T09:12:00.516Z</time></trkpt><trkpt lat="43.7811362" lon="12.688552"><ele>129.33333333333334</ele><time>2026-05-03T09:12:01.517Z</time></trkpt><trkpt lat="43.7810235" lon="12.6883525"><ele>128.66666666666666</ele><time>2026-05-03T09:12:02.516Z</time></trkpt><trkpt lat="43.7809058" lon="12.6881597"><ele>128.0</ele><time>2026-05-03T09:12:03.517Z</time></trkpt><trkpt lat="43.7807579" lon="12.6879439"><ele>128.66666666666666</ele><time>2026-05-03T09:12:04.518Z</time></trkpt><trkpt lat="43.7806211" lon="12.6877268"><ele>129.33333333333334</ele><time>2026-05-03T09:12:05.517Z</time></trkpt><trkpt lat="43.7804607" lon="12.6875733"><ele>130.0</ele><time>2026-05-03T09:12:06.517Z</time></trkpt><trkpt lat="43.7803111" lon="12.6874286"><ele>129.66666666666669</ele><time>2026-05-03T09:12:07.516Z</time></trkpt><trkpt lat="43.7801498" lon="12.6873132"><ele>129.33333333333334</ele><time>2026-05-03T09:12:08.517Z</time></trkpt><trkpt lat="43.7799993" lon="12.6872146"><ele>129.0</ele><time>2026-05-03T09:12:09.515Z</time></trkpt><trkpt lat="43.7798624" lon="12.6871351"><ele>129.0</ele><time>2026-05-03T09:12:10.517Z</time></trkpt><trkpt lat="43.779722" lon="12.6870547"><ele>129.0</ele><time>2026-05-03T09:12:11.518Z</time></trkpt><trkpt lat="43.7795907" lon="12.6869718"><ele>129.0</ele><time>2026-05-03T09:12:12.518Z</time></trkpt><trkpt lat="43.7794556" lon="12.6868916"><ele>129.0</ele><time>2026-05-03T09:12:13.517Z</time></trkpt><trkpt lat="43.7793306" lon="12.6868153"><ele>129.25</ele><time>2026-05-03T09:12:14.516Z</time></trkpt><trkpt lat="43.7792071" lon="12.6867373"><ele>129.5</ele><time>2026-05-03T09:12:15.516Z</time></trkpt><trkpt lat="43.7790824" lon="12.6866523"><ele>129.75</ele><time>2026-05-03T09:12:16.516Z</time></trkpt><trkpt lat="43.778967" lon="12.6865664"><ele>130.0</ele><time>2026-05-03T09:12:17.516Z</time></trkpt><trkpt lat="43.7788424" lon="12.6864741"><ele>130.0</ele><time>2026-05-03T09:12:18.517Z</time></trkpt><trkpt lat="43.7787135" lon="12.6863736"><ele>130.0</ele><time>2026-05-03T09:12:19.517Z</time></trkpt><trkpt lat="43.7785856" lon="12.6862613"><ele>130.0</ele><time>2026-05-03T09:12:20.517Z</time></trkpt><trkpt lat="43.7784593" lon="12.6861552"><ele>130.0</ele><time>2026-05-03T09:12:21.631Z</time></trkpt><trkpt lat="43.7782057" lon="12.6859295"><ele>130.25</ele><time>2026-05-03T09:12:23.516Z</time></trkpt><trkpt lat="43.7780702" lon="12.6858262"><ele>130.5</ele><time>2026-05-03T09:12:24.517Z</time></trkpt><trkpt lat="43.777944" lon="12.6857187"><ele>130.75</ele><time>2026-05-03T09:12:25.515Z</time></trkpt><trkpt lat="43.7778178" lon="12.6856173"><ele>131.0</ele><time>2026-05-03T09:12:26.518Z</time></trkpt><trkpt lat="43.777692" lon="12.6855168"><ele>130.75</ele><time>2026-05-03T09:12:27.508Z</time></trkpt><trkpt lat="43.7775478" lon="12.6854006"><ele>130.5</ele><time>2026-05-03T09:12:28.517Z</time></trkpt><trkpt lat="43.7774498" lon="12.6853182"><ele>130.25</ele><time>2026-05-03T09:12:29.516Z</time></trkpt><trkpt lat="43.7773364" lon="12.6852116"><ele>130.0</ele><time>2026-05-03T09:12:30.515Z</time></trkpt><trkpt lat="43.7772314" lon="12.6850934"><ele>130.75</ele><time>2026-05-03T09:12:31.517Z</time></trkpt><trkpt lat="43.7771367" lon="12.6849628"><ele>131.5</ele><time>2026-05-03T09:12:32.518Z</time></trkpt><trkpt lat="43.7770539" lon="12.68481"><ele>132.25</ele><time>2026-05-03T09:12:33.515Z</time></trkpt><trkpt lat="43.7769896" lon="12.6846382"><ele>133.0</ele><time>2026-05-03T09:12:34.517Z</time></trkpt><trkpt lat="43.7769364" lon="12.6844727"><ele>135.75</ele><time>2026-05-03T09:12:35.517Z</time></trkpt><trkpt lat="43.7769262" lon="12.6842773"><ele>138.5</ele><time>2026-05-03T09:12:36.517Z</time></trkpt><trkpt lat="43.7769219" lon="12.6840897"><ele>141.25</ele><time>2026-05-03T09:12:37.515Z</time></trkpt><trkpt lat="43.7769247" lon="12.6838888"><ele>144.0</ele><time>2026-05-03T09:12:38.516Z</time></trkpt><trkpt lat="43.7769383" lon="12.6836877"><ele>145.75</ele><time>2026-05-03T09:12:39.518Z</time></trkpt><trkpt lat="43.7769513" lon="12.6834945"><ele>147.5</ele><time>2026-05-03T09:12:40.517Z</time></trkpt><trkpt lat="43.776962" lon="12.683302"><ele>149.25</ele><time>2026-05-03T09:12:41.514Z</time></trkpt><trkpt lat="43.7769787" lon="12.6831023"><ele>151.0</ele><time>2026-05-03T09:12:42.517Z</time></trkpt><trkpt lat="43.7769879" lon="12.6829"><ele>151.75</ele><time>2026-05-03T09:12:43.514Z</time></trkpt><trkpt lat="43.7769924" lon="12.6827038"><ele>152.5</ele><time>2026-05-03T09:12:44.514Z</time></trkpt><trkpt lat="43.7769841" lon="12.6825078"><ele>153.25</ele><time>2026-05-03T09:12:45.517Z</time></trkpt><trkpt lat="43.7769639" lon="12.6823182"><ele>154.0</ele><time>2026-05-03T09:12:46.518Z</time></trkpt><trkpt lat="43.7769178" lon="12.6821231"><ele>154.25</ele><time>2026-05-03T09:12:47.514Z</time></trkpt><trkpt lat="43.7768753" lon="12.6819298"><ele>154.5</ele><time>2026-05-03T09:12:48.518Z</time></trkpt><trkpt lat="43.7768312" lon="12.6817431"><ele>154.75</ele><time>2026-05-03T09:12:49.516Z</time></trkpt><trkpt lat="43.7767803" lon="12.6815546"><ele>155.0</ele><time>2026-05-03T09:12:50.516Z</time></trkpt><trkpt lat="43.7767301" lon="12.6813544"><ele>151.0</ele><time>2026-05-03T09:12:51.518Z</time></trkpt><trkpt lat="43.7766503" lon="12.6811508"><ele>147.0</ele><time>2026-05-03T09:12:52.516Z</time></trkpt><trkpt lat="43.7765634" lon="12.6809154"><ele>143.0</ele><time>2026-05-03T09:12:53.516Z</time></trkpt><trkpt lat="43.7764759" lon="12.6806469"><ele>143.0</ele><time>2026-05-03T09:12:54.519Z</time></trkpt><trkpt lat="43.776391" lon="12.6803483"><ele>143.0</ele><time>2026-05-03T09:12:55.516Z</time></trkpt><trkpt lat="43.7762934" lon="12.6800573"><ele>143.66666666666666</ele><time>2026-05-03T09:12:56.518Z</time></trkpt><trkpt lat="43.7762147" lon="12.679845"><ele>144.33333333333334</ele><time>2026-05-03T09:12:57.515Z</time></trkpt><trkpt lat="43.7761298" lon="12.6796229"><ele>145.0</ele><time>2026-05-03T09:12:58.518Z</time></trkpt><trkpt lat="43.7760415" lon="12.6794028"><ele>143.66666666666669</ele><time>2026-05-03T09:12:59.517Z</time></trkpt><trkpt lat="43.7759633" lon="12.6791945"><ele>142.33333333333334</ele><time>2026-05-03T09:13:00.516Z</time></trkpt><trkpt lat="43.7758735" lon="12.679001"><ele>141.0</ele><time>2026-05-03T09:13:01.518Z</time></trkpt><trkpt lat="43.7757816" lon="12.6788172"><ele>141.0</ele><time>2026-05-03T09:13:02.517Z</time></trkpt><trkpt lat="43.7756642" lon="12.6786638"><ele>141.0</ele><time>2026-05-03T09:13:03.517Z</time></trkpt><trkpt lat="43.775559" lon="12.6784987"><ele>141.0</ele><time>2026-05-03T09:13:04.515Z</time></trkpt><trkpt lat="43.7754547" lon="12.6783703"><ele>140.75</ele><time>2026-05-03T09:13:05.518Z</time></trkpt><trkpt lat="43.7753573" lon="12.6782314"><ele>140.5</ele><time>2026-05-03T09:13:06.518Z</time></trkpt><trkpt lat="43.7752653" lon="12.6780881"><ele>140.25</ele><time>2026-05-03T09:13:07.517Z</time></trkpt><trkpt lat="43.7751798" lon="12.6779355"><ele>140.0</ele><time>2026-05-03T09:13:08.518Z</time></trkpt><trkpt lat="43.7751151" lon="12.6777433"><ele>141.0</ele><time>2026-05-03T09:13:09.516Z</time></trkpt><trkpt lat="43.7750462" lon="12.6775688"><ele>142.0</ele><time>2026-05-03T09:13:10.517Z</time></trkpt><trkpt lat="43.7749945" lon="12.6773768"><ele>143.0</ele><time>2026-05-03T09:13:11.517Z</time></trkpt><trkpt lat="43.7749435" lon="12.6771875"><ele>144.0</ele><time>2026-05-03T09:13:12.516Z</time></trkpt><trkpt lat="43.7748882" lon="12.6769938"><ele>147.33333333333334</ele><time>2026-05-03T09:13:13.516Z</time></trkpt><trkpt lat="43.7748131" lon="12.6768036"><ele>150.66666666666669</ele><time>2026-05-03T09:13:14.517Z</time></trkpt><trkpt lat="43.7747144" lon="12.6765999"><ele>154.0</ele><time>2026-05-03T09:13:15.519Z</time></trkpt><trkpt lat="43.7745727" lon="12.6763796"><ele>154.0</ele><time>2026-05-03T09:13:16.518Z</time></trkpt><trkpt lat="43.7744478" lon="12.6761777"><ele>154.0</ele><time>2026-05-03T09:13:17.517Z</time></trkpt><trkpt lat="43.7743383" lon="12.6760038"><ele>154.0</ele><time>2026-05-03T09:13:18.514Z</time></trkpt><trkpt lat="43.7742281" lon="12.6758385"><ele>151.0</ele><time>2026-05-03T09:13:19.518Z</time></trkpt><trkpt lat="43.7741222" lon="12.6756726"><ele>148.0</ele><time>2026-05-03T09:13:20.52Z</time></trkpt><trkpt lat="43.7740174" lon="12.6755189"><ele>145.0</ele><time>2026-05-03T09:13:21.517Z</time></trkpt><trkpt lat="43.7739158" lon="12.6753633"><ele>145.66666666666669</ele><time>2026-05-03T09:13:22.517Z</time></trkpt><trkpt lat="43.7738096" lon="12.6752096"><ele>146.33333333333334</ele><time>2026-05-03T09:13:23.516Z</time></trkpt><trkpt lat="43.773696" lon="12.6750585"><ele>147.0</ele><time>2026-05-03T09:13:24.517Z</time></trkpt><trkpt lat="43.7735778" lon="12.6749195"><ele>146.66666666666666</ele><time>2026-05-03T09:13:25.518Z</time></trkpt><trkpt lat="43.7734343" lon="12.674784"><ele>146.33333333333331</ele><time>2026-05-03T09:13:26.518Z</time></trkpt><trkpt lat="43.7732622" lon="12.6746417"><ele>146.0</ele><time>2026-05-03T09:13:27.517Z</time></trkpt><trkpt lat="43.7730501" lon="12.6744663"><ele>146.5</ele><time>2026-05-03T09:13:28.516Z</time></trkpt><trkpt lat="43.7728413" lon="12.6742874"><ele>147.0</ele><time>2026-05-03T09:13:29.516Z</time></trkpt><trkpt lat="43.7726462" lon="12.6741288"><ele>147.0</ele><time>2026-05-03T09:13:30.517Z</time></trkpt><trkpt lat="43.7724604" lon="12.6739848"><ele>147.0</ele><time>2026-05-03T09:13:31.518Z</time></trkpt><trkpt lat="43.7722898" lon="12.6738533"><ele>147.0</ele><time>2026-05-03T09:13:32.516Z</time></trkpt><trkpt lat="43.7721284" lon="12.6737398"><ele>147.0</ele><time>2026-05-03T09:13:33.518Z</time></trkpt><trkpt lat="43.771977" lon="12.6736239"><ele>147.0</ele><time>2026-05-03T09:13:34.518Z</time></trkpt><trkpt lat="43.7718227" lon="12.6735281"><ele>147.0</ele><time>2026-05-03T09:13:35.516Z</time></trkpt><trkpt lat="43.7716698" lon="12.6734285"><ele>149.33333333333334</ele><time>2026-05-03T09:13:36.517Z</time></trkpt><trkpt lat="43.7715098" lon="12.6733383"><ele>151.66666666666669</ele><time>2026-05-03T09:13:37.516Z</time></trkpt><trkpt lat="43.7713434" lon="12.673249"><ele>154.0</ele><time>2026-05-03T09:13:38.516Z</time></trkpt><trkpt lat="43.7711597" lon="12.6731582"><ele>152.66666666666669</ele><time>2026-05-03T09:13:39.518Z</time></trkpt><trkpt lat="43.7709589" lon="12.6730728"><ele>151.33333333333334</ele><time>2026-05-03T09:13:40.516Z</time></trkpt><trkpt lat="43.7707461" lon="12.6729795"><ele>150.0</ele><time>2026-05-03T09:13:41.517Z</time></trkpt><trkpt lat="43.7705345" lon="12.6728748"><ele>150.0</ele><time>2026-05-03T09:13:42.517Z</time></trkpt><trkpt lat="43.7703099" lon="12.6727628"><ele>150.0</ele><time>2026-05-03T09:13:43.516Z</time></trkpt><trkpt lat="43.7700802" lon="12.672649"><ele>150.0</ele><time>2026-05-03T09:13:44.517Z</time></trkpt><trkpt lat="43.7698567" lon="12.6725446"><ele>150.0</ele><time>2026-05-03T09:13:45.516Z</time></trkpt><trkpt lat="43.7696328" lon="12.6724448"><ele>150.0</ele><time>2026-05-03T09:13:46.515Z</time></trkpt><trkpt lat="43.7694128" lon="12.672349"><ele>150.0</ele><time>2026-05-03T09:13:47.517Z</time></trkpt><trkpt lat="43.7691895" lon="12.6722493"><ele>151.0</ele><time>2026-05-03T09:13:48.514Z</time></trkpt><trkpt lat="43.7689663" lon="12.6721531"><ele>152.0</ele><time>2026-05-03T09:13:49.514Z</time></trkpt><trkpt lat="43.7687413" lon="12.672061"><ele>152.33333333333331</ele><time>2026-05-03T09:13:50.519Z</time></trkpt><trkpt lat="43.7685238" lon="12.6719658"><ele>152.66666666666666</ele><time>2026-05-03T09:13:51.518Z</time></trkpt><trkpt lat="43.7683149" lon="12.6718817"><ele>153.0</ele><time>2026-05-03T09:13:52.516Z</time></trkpt><trkpt lat="43.7681095" lon="12.6717881"><ele>153.33333333333334</ele><time>2026-05-03T09:13:53.517Z</time></trkpt><trkpt lat="43.7679114" lon="12.6716893"><ele>153.66666666666669</ele><time>2026-05-03T09:13:54.518Z</time></trkpt><trkpt lat="43.7677199" lon="12.6715696"><ele>154.0</ele><time>2026-05-03T09:13:55.516Z</time></trkpt><trkpt lat="43.7675333" lon="12.6714159"><ele>154.0</ele><time>2026-05-03T09:13:56.517Z</time></trkpt><trkpt lat="43.7673607" lon="12.6712398"><ele>154.0</ele><time>2026-05-03T09:13:57.521Z</time></trkpt><trkpt lat="43.7671853" lon="12.6710422"><ele>154.0</ele><time>2026-05-03T09:13:58.517Z</time></trkpt><trkpt lat="43.7670177" lon="12.6708325"><ele>153.5</ele><time>2026-05-03T09:13:59.517Z</time></trkpt><trkpt lat="43.7668485" lon="12.6706208"><ele>153.0</ele><time>2026-05-03T09:14:00.517Z</time></trkpt><trkpt lat="43.7666774" lon="12.6704118"><ele>154.66666666666666</ele><time>2026-05-03T09:14:01.516Z</time></trkpt><trkpt lat="43.7665074" lon="12.6702064"><ele>156.33333333333331</ele><time>2026-05-03T09:14:02.515Z</time></trkpt><trkpt lat="43.7663504" lon="12.670017"><ele>158.0</ele><time>2026-05-03T09:14:03.517Z</time></trkpt><trkpt lat="43.7661947" lon="12.6698352"><ele>158.0</ele><time>2026-05-03T09:14:04.517Z</time></trkpt><trkpt lat="43.7660364" lon="12.669666"><ele>158.0</ele><time>2026-05-03T09:14:05.524Z</time></trkpt><trkpt lat="43.7658621" lon="12.6695343"><ele>158.0</ele><time>2026-05-03T09:14:06.517Z</time></trkpt><trkpt lat="43.765672" lon="12.6694339"><ele>158.33333333333331</ele><time>2026-05-03T09:14:07.517Z</time></trkpt><trkpt lat="43.7654793" lon="12.6693922"><ele>158.66666666666666</ele><time>2026-05-03T09:14:08.518Z</time></trkpt><trkpt lat="43.7652816" lon="12.6693509"><ele>159.0</ele><time>2026-05-03T09:14:09.516Z</time></trkpt><trkpt lat="43.765077" lon="12.6693448"><ele>158.0</ele><time>2026-05-03T09:14:10.517Z</time></trkpt><trkpt lat="43.7648741" lon="12.6693928"><ele>157.0</ele><time>2026-05-03T09:14:11.516Z</time></trkpt><trkpt lat="43.7646055" lon="12.6694934"><ele>157.0</ele><time>2026-05-03T09:14:12.516Z</time></trkpt><trkpt lat="43.7644049" lon="12.6695726"><ele>157.0</ele><time>2026-05-03T09:14:13.518Z</time></trkpt><trkpt lat="43.7641762" lon="12.6696153"><ele>157.0</ele><time>2026-05-03T09:14:14.516Z</time></trkpt><trkpt lat="43.7639779" lon="12.6696235"><ele>157.0</ele><time>2026-05-03T09:14:15.517Z</time></trkpt><trkpt lat="43.7637788" lon="12.6696209"><ele>157.0</ele><time>2026-05-03T09:14:16.518Z</time></trkpt><trkpt lat="43.7635794" lon="12.669602"><ele>157.0</ele><time>2026-05-03T09:14:17.515Z</time></trkpt><trkpt lat="43.7633798" lon="12.6695762"><ele>157.0</ele><time>2026-05-03T09:14:18.513Z</time></trkpt><trkpt lat="43.7631801" lon="12.669558"><ele>157.0</ele><time>2026-05-03T09:14:19.514Z</time></trkpt><trkpt lat="43.7629895" lon="12.669516"><ele>157.0</ele><time>2026-05-03T09:14:20.516Z</time></trkpt><trkpt lat="43.7627948" lon="12.6694513"><ele>159.66666666666669</ele><time>2026-05-03T09:14:21.516Z</time></trkpt><trkpt lat="43.7626181" lon="12.6693412"><ele>162.33333333333334</ele><time>2026-05-03T09:14:22.517Z</time></trkpt><trkpt lat="43.7624556" lon="12.6691973"><ele>165.0</ele><time>2026-05-03T09:14:23.517Z</time></trkpt><trkpt lat="43.7622918" lon="12.6690411"><ele>165.0</ele><time>2026-05-03T09:14:24.517Z</time></trkpt><trkpt lat="43.7621328" lon="12.6688641"><ele>165.0</ele><time>2026-05-03T09:14:25.516Z</time></trkpt><trkpt lat="43.7619744" lon="12.6686621"><ele>165.0</ele><time>2026-05-03T09:14:26.516Z</time></trkpt><trkpt lat="43.7618095" lon="12.6684699"><ele>166.33333333333334</ele><time>2026-05-03T09:14:27.517Z</time></trkpt><trkpt lat="43.7616334" lon="12.6682962"><ele>167.66666666666669</ele><time>2026-05-03T09:14:28.516Z</time></trkpt><trkpt lat="43.7614624" lon="12.6681119"><ele>169.0</ele><time>2026-05-03T09:14:29.514Z</time></trkpt><trkpt lat="43.7612736" lon="12.6680265"><ele>169.0</ele><time>2026-05-03T09:14:30.516Z</time></trkpt><trkpt lat="43.7610917" lon="12.6679127"><ele>169.0</ele><time>2026-05-03T09:14:31.514Z</time></trkpt><trkpt lat="43.7608956" lon="12.6678228"><ele>169.0</ele><time>2026-05-03T09:14:32.518Z</time></trkpt><trkpt lat="43.7606963" lon="12.6677656"><ele>171.33333333333334</ele><time>2026-05-03T09:14:33.517Z</time></trkpt><trkpt lat="43.7605015" lon="12.6677111"><ele>173.66666666666666</ele><time>2026-05-03T09:14:34.516Z</time></trkpt><trkpt lat="43.7603022" lon="12.667681"><ele>176.0</ele><time>2026-05-03T09:14:35.517Z</time></trkpt><trkpt lat="43.7601111" lon="12.6676543"><ele>176.0</ele><time>2026-05-03T09:14:36.516Z</time></trkpt><trkpt lat="43.7599254" lon="12.6676311"><ele>176.0</ele><time>2026-05-03T09:14:37.516Z</time></trkpt><trkpt lat="43.7597479" lon="12.6676131"><ele>176.0</ele><time>2026-05-03T09:14:38.515Z</time></trkpt><trkpt lat="43.7595854" lon="12.667601"><ele>176.0</ele><time>2026-05-03T09:14:39.516Z</time></trkpt><trkpt lat="43.7594302" lon="12.6675795"><ele>176.0</ele><time>2026-05-03T09:14:40.518Z</time></trkpt><trkpt lat="43.7592781" lon="12.6675621"><ele>176.0</ele><time>2026-05-03T09:14:41.517Z</time></trkpt><trkpt lat="43.7591236" lon="12.6675436"><ele>174.0</ele><time>2026-05-03T09:14:42.514Z</time></trkpt><trkpt lat="43.7589657" lon="12.6675195"><ele>172.0</ele><time>2026-05-03T09:14:43.517Z</time></trkpt><trkpt lat="43.7588057" lon="12.6674721"><ele>170.0</ele><time>2026-05-03T09:14:44.517Z</time></trkpt><trkpt lat="43.7586609" lon="12.6673742"><ele>170.66666666666666</ele><time>2026-05-03T09:14:45.511Z</time></trkpt><trkpt lat="43.7585318" lon="12.6672355"><ele>171.33333333333334</ele><time>2026-05-03T09:14:46.517Z</time></trkpt><trkpt lat="43.7583944" lon="12.6670908"><ele>172.0</ele><time>2026-05-03T09:14:47.509Z</time></trkpt><trkpt lat="43.7582517" lon="12.666975"><ele>174.0</ele><time>2026-05-03T09:14:48.518Z</time></trkpt><trkpt lat="43.758118" lon="12.6668864"><ele>176.0</ele><time>2026-05-03T09:14:49.516Z</time></trkpt><trkpt lat="43.7579813" lon="12.6668284"><ele>178.0</ele><time>2026-05-03T09:14:50.518Z</time></trkpt><trkpt lat="43.7578616" lon="12.6667961"><ele>180.0</ele><time>2026-05-03T09:14:51.517Z</time></trkpt><trkpt lat="43.75774" lon="12.6667893"><ele>178.75</ele><time>2026-05-03T09:14:52.515Z</time></trkpt><trkpt lat="43.7576238" lon="12.6667983"><ele>177.5</ele><time>2026-05-03T09:14:53.516Z</time></trkpt><trkpt lat="43.7575151" lon="12.6668147"><ele>176.25</ele><time>2026-05-03T09:14:54.516Z</time></trkpt><trkpt lat="43.7574016" lon="12.6668273"><ele>175.0</ele><time>2026-05-03T09:14:55.515Z</time></trkpt><trkpt lat="43.7572784" lon="12.6668427"><ele>175.0</ele><time>2026-05-03T09:14:56.515Z</time></trkpt><trkpt lat="43.7571465" lon="12.6668425"><ele>175.0</ele><time>2026-05-03T09:14:57.517Z</time></trkpt><trkpt lat="43.7570038" lon="12.6668325"><ele>175.0</ele><time>2026-05-03T09:14:58.519Z</time></trkpt><trkpt lat="43.7568567" lon="12.6668067"><ele>175.0</ele><time>2026-05-03T09:14:59.518Z</time></trkpt><trkpt lat="43.7567158" lon="12.6667814"><ele>176.0</ele><time>2026-05-03T09:15:00.516Z</time></trkpt><trkpt lat="43.7565714" lon="12.6667489"><ele>177.0</ele><time>2026-05-03T09:15:01.516Z</time></trkpt><trkpt lat="43.7564304" lon="12.6667136"><ele>178.0</ele><time>2026-05-03T09:15:02.512Z</time></trkpt><trkpt lat="43.7562989" lon="12.6666776"><ele>179.0</ele><time>2026-05-03T09:15:03.519Z</time></trkpt><trkpt lat="43.7561486" lon="12.6666347"><ele>179.25</ele><time>2026-05-03T09:15:04.509Z</time></trkpt><trkpt lat="43.756009" lon="12.6665894"><ele>179.5</ele><time>2026-05-03T09:15:05.516Z</time></trkpt><trkpt lat="43.7558706" lon="12.6665353"><ele>179.75</ele><time>2026-05-03T09:15:06.516Z</time></trkpt><trkpt lat="43.7557384" lon="12.6664724"><ele>180.0</ele><time>2026-05-03T09:15:07.516Z</time></trkpt><trkpt lat="43.7556029" lon="12.6663941"><ele>180.0</ele><time>2026-05-03T09:15:08.517Z</time></trkpt><trkpt lat="43.755467" lon="12.6663108"><ele>180.0</ele><time>2026-05-03T09:15:09.518Z</time></trkpt><trkpt lat="43.7553373" lon="12.6662048"><ele>180.0</ele><time>2026-05-03T09:15:10.518Z</time></trkpt><trkpt lat="43.7552191" lon="12.6660769"><ele>180.0</ele><time>2026-05-03T09:15:11.516Z</time></trkpt><trkpt lat="43.7551037" lon="12.665941"><ele>180.66666666666666</ele><time>2026-05-03T09:15:12.518Z</time></trkpt><trkpt lat="43.7550023" lon="12.6657985"><ele>181.33333333333331</ele><time>2026-05-03T09:15:13.517Z</time></trkpt><trkpt lat="43.7549439" lon="12.6655621"><ele>182.0</ele><time>2026-05-03T09:15:14.515Z</time></trkpt><trkpt lat="43.7548701" lon="12.6653634"><ele>185.0</ele><time>2026-05-03T09:15:15.517Z</time></trkpt><trkpt lat="43.7548057" lon="12.6651369"><ele>188.0</ele><time>2026-05-03T09:15:16.516Z</time></trkpt><trkpt lat="43.7547586" lon="12.6648858"><ele>191.0</ele><time>2026-05-03T09:15:17.517Z</time></trkpt><trkpt lat="43.754727" lon="12.6646281"><ele>194.0</ele><time>2026-05-03T09:15:18.515Z</time></trkpt><trkpt lat="43.7546689" lon="12.6643697"><ele>197.0</ele><time>2026-05-03T09:15:19.516Z</time></trkpt><trkpt lat="43.7545957" lon="12.6641238"><ele>200.0</ele><time>2026-05-03T09:15:20.508Z</time></trkpt><trkpt lat="43.7545026" lon="12.6638928"><ele>200.0</ele><time>2026-05-03T09:15:21.517Z</time></trkpt><trkpt lat="43.7544195" lon="12.6636765"><ele>200.0</ele><time>2026-05-03T09:15:22.516Z</time></trkpt><trkpt lat="43.7543423" lon="12.6634796"><ele>200.0</ele><time>2026-05-03T09:15:23.516Z</time></trkpt><trkpt lat="43.7542664" lon="12.6632751"><ele>200.66666666666669</ele><time>2026-05-03T09:15:24.516Z</time></trkpt><trkpt lat="43.7541875" lon="12.6630688"><ele>201.33333333333331</ele><time>2026-05-03T09:15:25.516Z</time></trkpt><trkpt lat="43.7541084" lon="12.6628586"><ele>202.0</ele><time>2026-05-03T09:15:26.517Z</time></trkpt><trkpt lat="43.7540214" lon="12.6626505"><ele>202.0</ele><time>2026-05-03T09:15:27.516Z</time></trkpt><trkpt lat="43.7539173" lon="12.6624365"><ele>202.0</ele><time>2026-05-03T09:15:28.517Z</time></trkpt><trkpt lat="43.7538292" lon="12.6622204"><ele>202.0</ele><time>2026-05-03T09:15:29.516Z</time></trkpt><trkpt lat="43.7537062" lon="12.6620401"><ele>201.33333333333331</ele><time>2026-05-03T09:15:30.517Z</time></trkpt><trkpt lat="43.7536096" lon="12.6618552"><ele>200.66666666666669</ele><time>2026-05-03T09:15:31.519Z</time></trkpt><trkpt lat="43.7534957" lon="12.6616617"><ele>200.0</ele><time>2026-05-03T09:15:32.517Z</time></trkpt><trkpt lat="43.7533767" lon="12.6614685"><ele>200.0</ele><time>2026-05-03T09:15:33.518Z</time></trkpt><trkpt lat="43.7532414" lon="12.6613024"><ele>200.0</ele><time>2026-05-03T09:15:34.515Z</time></trkpt><trkpt lat="43.7531353" lon="12.6611428"><ele>200.0</ele><time>2026-05-03T09:15:35.516Z</time></trkpt><trkpt lat="43.7530209" lon="12.6609732"><ele>201.75</ele><time>2026-05-03T09:15:36.516Z</time></trkpt><trkpt lat="43.7529264" lon="12.6608335"><ele>203.5</ele><time>2026-05-03T09:15:37.516Z</time></trkpt><trkpt lat="43.7528225" lon="12.6606945"><ele>205.25</ele><time>2026-05-03T09:15:38.516Z</time></trkpt><trkpt lat="43.7527258" lon="12.6605461"><ele>207.0</ele><time>2026-05-03T09:15:39.518Z</time></trkpt><trkpt lat="43.7526304" lon="12.6604159"><ele>207.0</ele><time>2026-05-03T09:15:40.516Z</time></trkpt><trkpt lat="43.7525568" lon="12.6602966"><ele>207.0</ele><time>2026-05-03T09:15:41.516Z</time></trkpt><trkpt lat="43.7524751" lon="12.660167"><ele>207.0</ele><time>2026-05-03T09:15:42.518Z</time></trkpt><trkpt lat="43.7524067" lon="12.6600725"><ele>207.0</ele><time>2026-05-03T09:15:43.516Z</time></trkpt><trkpt lat="43.752349" lon="12.6599688"><ele>207.0</ele><time>2026-05-03T09:15:44.517Z</time></trkpt><trkpt lat="43.7522807" lon="12.6598721"><ele>208.66666666666666</ele><time>2026-05-03T09:15:45.517Z</time></trkpt><trkpt lat="43.7522251" lon="12.6597879"><ele>210.33333333333331</ele><time>2026-05-03T09:15:46.517Z</time></trkpt><trkpt lat="43.7521587" lon="12.6596436"><ele>212.0</ele><time>2026-05-03T09:15:48.517Z</time></trkpt><trkpt lat="43.7521328" lon="12.6595564"><ele>213.66666666666666</ele><time>2026-05-03T09:15:49.518Z</time></trkpt><trkpt lat="43.75212" lon="12.6594552"><ele>215.33333333333331</ele><time>2026-05-03T09:15:50.515Z</time></trkpt><trkpt lat="43.7520905" lon="12.6593407"><ele>217.0</ele><time>2026-05-03T09:15:51.517Z</time></trkpt><trkpt lat="43.75205" lon="12.6592279"><ele>216.39999999999998</ele><time>2026-05-03T09:15:52.51Z</time></trkpt><trkpt lat="43.7519335" lon="12.6591098"><ele>215.79999999999998</ele><time>2026-05-03T09:15:53.518Z</time></trkpt><trkpt lat="43.7518635" lon="12.6589832"><ele>215.2</ele><time>2026-05-03T09:15:54.516Z</time></trkpt><trkpt lat="43.7518088" lon="12.6588718"><ele>214.6</ele><time>2026-05-03T09:15:55.516Z</time></trkpt><trkpt lat="43.7517593" lon="12.6587729"><ele>214.0</ele><time>2026-05-03T09:15:56.518Z</time></trkpt><trkpt lat="43.7516883" lon="12.658695"><ele>215.25</ele><time>2026-05-03T09:15:57.517Z</time></trkpt><trkpt lat="43.7516402" lon="12.6585782"><ele>216.5</ele><time>2026-05-03T09:15:58.518Z</time></trkpt><trkpt lat="43.7515911" lon="12.658418"><ele>217.75</ele><time>2026-05-03T09:15:59.517Z</time></trkpt><trkpt lat="43.7515272" lon="12.6582716"><ele>219.0</ele><time>2026-05-03T09:16:00.516Z</time></trkpt><trkpt lat="43.7514752" lon="12.6581258"><ele>219.0</ele><time>2026-05-03T09:16:01.517Z</time></trkpt><trkpt lat="43.7514173" lon="12.657989"><ele>219.0</ele><time>2026-05-03T09:16:02.514Z</time></trkpt><trkpt lat="43.7513511" lon="12.6578426"><ele>219.0</ele><time>2026-05-03T09:16:03.516Z</time></trkpt><trkpt lat="43.7512918" lon="12.6576802"><ele>219.0</ele><time>2026-05-03T09:16:04.517Z</time></trkpt><trkpt lat="43.7512291" lon="12.6575081"><ele>221.0</ele><time>2026-05-03T09:16:05.516Z</time></trkpt><trkpt lat="43.7511763" lon="12.6573398"><ele>223.0</ele><time>2026-05-03T09:16:06.515Z</time></trkpt><trkpt lat="43.7511209" lon="12.6571706"><ele>225.0</ele><time>2026-05-03T09:16:07.516Z</time></trkpt><trkpt lat="43.751068" lon="12.6569999"><ele>227.0</ele><time>2026-05-03T09:16:08.512Z</time></trkpt><trkpt lat="43.7509751" lon="12.656841"><ele>227.0</ele><time>2026-05-03T09:16:09.518Z</time></trkpt><trkpt lat="43.7509113" lon="12.6566912"><ele>227.0</ele><time>2026-05-03T09:16:10.517Z</time></trkpt><trkpt lat="43.7508499" lon="12.6565047"><ele>227.0</ele><time>2026-05-03T09:16:11.515Z</time></trkpt><trkpt lat="43.7507822" lon="12.6563581"><ele>227.0</ele><time>2026-05-03T09:16:12.516Z</time></trkpt><trkpt lat="43.7507124" lon="12.6561779"><ele>229.0</ele><time>2026-05-03T09:16:13.516Z</time></trkpt><trkpt lat="43.7506414" lon="12.6559834"><ele>231.0</ele><time>2026-05-03T09:16:14.516Z</time></trkpt><trkpt lat="43.7505775" lon="12.6558105"><ele>233.0</ele><time>2026-05-03T09:16:15.518Z</time></trkpt><trkpt lat="43.7505071" lon="12.6556348"><ele>235.0</ele><time>2026-05-03T09:16:16.516Z</time></trkpt><trkpt lat="43.7504517" lon="12.6554623"><ele>233.75</ele><time>2026-05-03T09:16:17.518Z</time></trkpt><trkpt lat="43.7503904" lon="12.6552671"><ele>232.5</ele><time>2026-05-03T09:16:18.518Z</time></trkpt><trkpt lat="43.7503244" lon="12.6550957"><ele>231.25</ele><time>2026-05-03T09:16:19.517Z</time></trkpt><trkpt lat="43.750248" lon="12.6549204"><ele>230.0</ele><time>2026-05-03T09:16:20.515Z</time></trkpt><trkpt lat="43.7501655" lon="12.6547535"><ele>230.0</ele><time>2026-05-03T09:16:21.517Z</time></trkpt><trkpt lat="43.7500849" lon="12.6545983"><ele>230.0</ele><time>2026-05-03T09:16:22.517Z</time></trkpt><trkpt lat="43.7499943" lon="12.6544481"><ele>230.0</ele><time>2026-05-03T09:16:23.516Z</time></trkpt><trkpt lat="43.7498872" lon="12.6543205"><ele>230.0</ele><time>2026-05-03T09:16:24.515Z</time></trkpt><trkpt lat="43.7497854" lon="12.6541892"><ele>233.66666666666669</ele><time>2026-05-03T09:16:25.516Z</time></trkpt><trkpt lat="43.7496652" lon="12.6540486"><ele>237.33333333333331</ele><time>2026-05-03T09:16:26.516Z</time></trkpt><trkpt lat="43.7495467" lon="12.6539117"><ele>241.0</ele><time>2026-05-03T09:16:27.514Z</time></trkpt><trkpt lat="43.7494235" lon="12.6537589"><ele>241.66666666666666</ele><time>2026-05-03T09:16:28.516Z</time></trkpt><trkpt lat="43.7492663" lon="12.6535694"><ele>242.33333333333331</ele><time>2026-05-03T09:16:29.515Z</time></trkpt><trkpt lat="43.7491212" lon="12.6533981"><ele>243.0</ele><time>2026-05-03T09:16:30.516Z</time></trkpt><trkpt lat="43.7490124" lon="12.6532393"><ele>243.0</ele><time>2026-05-03T09:16:31.516Z</time></trkpt><trkpt lat="43.7489012" lon="12.6530868"><ele>243.0</ele><time>2026-05-03T09:16:32.516Z</time></trkpt><trkpt lat="43.7487894" lon="12.6529475"><ele>243.0</ele><time>2026-05-03T09:16:33.516Z</time></trkpt><trkpt lat="43.7486664" lon="12.6528135"><ele>244.66666666666669</ele><time>2026-05-03T09:16:34.515Z</time></trkpt><trkpt lat="43.7485364" lon="12.6526857"><ele>246.33333333333334</ele><time>2026-05-03T09:16:35.516Z</time></trkpt><trkpt lat="43.748416" lon="12.6525675"><ele>248.0</ele><time>2026-05-03T09:16:36.517Z</time></trkpt><trkpt lat="43.7482851" lon="12.652446"><ele>248.0</ele><time>2026-05-03T09:16:37.516Z</time></trkpt><trkpt lat="43.7481335" lon="12.6523213"><ele>248.0</ele><time>2026-05-03T09:16:38.515Z</time></trkpt><trkpt lat="43.7479772" lon="12.6521663"><ele>248.0</ele><time>2026-05-03T09:16:39.513Z</time></trkpt><trkpt lat="43.7477974" lon="12.6519879"><ele>250.66666666666669</ele><time>2026-05-03T09:16:40.514Z</time></trkpt><trkpt lat="43.7476212" lon="12.6518078"><ele>253.33333333333331</ele><time>2026-05-03T09:16:41.513Z</time></trkpt><trkpt lat="43.7474479" lon="12.6516441"><ele>256.0</ele><time>2026-05-03T09:16:42.515Z</time></trkpt><trkpt lat="43.7472858" lon="12.6514819"><ele>256.0</ele><time>2026-05-03T09:16:43.515Z</time></trkpt><trkpt lat="43.7471132" lon="12.6513182"><ele>256.0</ele><time>2026-05-03T09:16:44.515Z</time></trkpt><trkpt lat="43.746946" lon="12.6511602"><ele>256.0</ele><time>2026-05-03T09:16:45.516Z</time></trkpt><trkpt lat="43.7467889" lon="12.6510231"><ele>256.3333333333333</ele><time>2026-05-03T09:16:46.516Z</time></trkpt><trkpt lat="43.7466379" lon="12.6508621"><ele>256.6666666666667</ele><time>2026-05-03T09:16:47.516Z</time></trkpt><trkpt lat="43.7464945" lon="12.6507008"><ele>257.0</ele><time>2026-05-03T09:16:48.515Z</time></trkpt><trkpt lat="43.7463627" lon="12.6505232"><ele>257.0</ele><time>2026-05-03T09:16:49.517Z</time></trkpt><trkpt lat="43.746243" lon="12.6503349"><ele>257.0</ele><time>2026-05-03T09:16:50.515Z</time></trkpt><trkpt lat="43.746131" lon="12.6501325"><ele>257.0</ele><time>2026-05-03T09:16:51.515Z</time></trkpt><trkpt lat="43.746018" lon="12.6499112"><ele>257.33333333333337</ele><time>2026-05-03T09:16:52.516Z</time></trkpt><trkpt lat="43.745911" lon="12.6496843"><ele>257.6666666666667</ele><time>2026-05-03T09:16:53.515Z</time></trkpt><trkpt lat="43.7458108" lon="12.6494458"><ele>258.0</ele><time>2026-05-03T09:16:54.515Z</time></trkpt><trkpt lat="43.7457157" lon="12.6492039"><ele>260.6666666666667</ele><time>2026-05-03T09:16:55.509Z</time></trkpt><trkpt lat="43.7456275" lon="12.6489566"><ele>263.33333333333337</ele><time>2026-05-03T09:16:56.512Z</time></trkpt><trkpt lat="43.7455584" lon="12.6487111"><ele>266.0</ele><time>2026-05-03T09:16:57.512Z</time></trkpt><trkpt lat="43.7455078" lon="12.6484555"><ele>270.0</ele><time>2026-05-03T09:16:58.516Z</time></trkpt><trkpt lat="43.7454487" lon="12.6482048"><ele>274.0</ele><time>2026-05-03T09:16:59.519Z</time></trkpt><trkpt lat="43.7454047" lon="12.6479374"><ele>278.0</ele><time>2026-05-03T09:17:00.515Z</time></trkpt><trkpt lat="43.7453764" lon="12.6476567"><ele>279.6666666666667</ele><time>2026-05-03T09:17:01.516Z</time></trkpt><trkpt lat="43.745371" lon="12.6474275"><ele>281.3333333333333</ele><time>2026-05-03T09:17:02.518Z</time></trkpt><trkpt lat="43.7453562" lon="12.6471805"><ele>283.0</ele><time>2026-05-03T09:17:03.514Z</time></trkpt><trkpt lat="43.7453399" lon="12.6469409"><ele>284.66666666666663</ele><time>2026-05-03T09:17:04.515Z</time></trkpt><trkpt lat="43.745286" lon="12.6467077"><ele>286.3333333333333</ele><time>2026-05-03T09:17:05.525Z</time></trkpt><trkpt lat="43.7451509" lon="12.6465509"><ele>288.0</ele><time>2026-05-03T09:17:06.515Z</time></trkpt><trkpt lat="43.7449877" lon="12.6463682"><ele>283.0</ele><time>2026-05-03T09:17:07.515Z</time></trkpt><trkpt lat="43.7446963" lon="12.6463658"><ele>278.0</ele><time>2026-05-03T09:17:08.516Z</time></trkpt><trkpt lat="43.7444981" lon="12.6462324"><ele>281.6666666666667</ele><time>2026-05-03T09:17:09.516Z</time></trkpt><trkpt lat="43.7442998" lon="12.6461164"><ele>285.3333333333333</ele><time>2026-05-03T09:17:10.516Z</time></trkpt><trkpt lat="43.7441107" lon="12.6460118"><ele>289.0</ele><time>2026-05-03T09:17:11.508Z</time></trkpt><trkpt lat="43.7439255" lon="12.6459187"><ele>289.0</ele><time>2026-05-03T09:17:12.514Z</time></trkpt><trkpt lat="43.7437307" lon="12.6458675"><ele>289.0</ele><time>2026-05-03T09:17:13.517Z</time></trkpt><trkpt lat="43.7435317" lon="12.6458584"><ele>289.0</ele><time>2026-05-03T09:17:14.514Z</time></trkpt><trkpt lat="43.74333" lon="12.6458981"><ele>288.0</ele><time>2026-05-03T09:17:15.515Z</time></trkpt><trkpt lat="43.7431268" lon="12.6459704"><ele>287.0</ele><time>2026-05-03T09:17:16.516Z</time></trkpt><trkpt lat="43.742927" lon="12.6460535"><ele>286.0</ele><time>2026-05-03T09:17:17.515Z</time></trkpt><trkpt lat="43.7427274" lon="12.6461165"><ele>284.0</ele><time>2026-05-03T09:17:18.516Z</time></trkpt><trkpt lat="43.7425203" lon="12.6461469"><ele>282.0</ele><time>2026-05-03T09:17:19.516Z</time></trkpt><trkpt lat="43.7423038" lon="12.646123"><ele>280.0</ele><time>2026-05-03T09:17:20.516Z</time></trkpt><trkpt lat="43.7420989" lon="12.6460829"><ele>284.3333333333333</ele><time>2026-05-03T09:17:21.516Z</time></trkpt><trkpt lat="43.7419094" lon="12.6459809"><ele>288.6666666666667</ele><time>2026-05-03T09:17:22.515Z</time></trkpt><trkpt lat="43.7417149" lon="12.6458889"><ele>293.0</ele><time>2026-05-03T09:17:23.516Z</time></trkpt><trkpt lat="43.7415181" lon="12.6457514"><ele>293.0</ele><time>2026-05-03T09:17:24.513Z</time></trkpt><trkpt lat="43.7413868" lon="12.64564"><ele>293.0</ele><time>2026-05-03T09:17:25.515Z</time></trkpt><trkpt lat="43.741224" lon="12.6455605"><ele>293.0</ele><time>2026-05-03T09:17:26.515Z</time></trkpt><trkpt lat="43.7410537" lon="12.6454742"><ele>291.0</ele><time>2026-05-03T09:17:27.512Z</time></trkpt><trkpt lat="43.7408517" lon="12.6454601"><ele>289.0</ele><time>2026-05-03T09:17:28.517Z</time></trkpt><trkpt lat="43.7406759" lon="12.6454336"><ele>287.0</ele><time>2026-05-03T09:17:29.515Z</time></trkpt><trkpt lat="43.740513" lon="12.6454148"><ele>287.0</ele><time>2026-05-03T09:17:30.515Z</time></trkpt><trkpt lat="43.7403543" lon="12.6454105"><ele>287.0</ele><time>2026-05-03T09:17:31.515Z</time></trkpt><trkpt lat="43.7402094" lon="12.6453948"><ele>287.0</ele><time>2026-05-03T09:17:32.515Z</time></trkpt><trkpt lat="43.7400655" lon="12.6453804"><ele>287.0</ele><time>2026-05-03T09:17:33.517Z</time></trkpt><trkpt lat="43.7399175" lon="12.6453542"><ele>286.33333333333337</ele><time>2026-05-03T09:17:34.515Z</time></trkpt><trkpt lat="43.7397807" lon="12.6452975"><ele>285.6666666666667</ele><time>2026-05-03T09:17:35.515Z</time></trkpt><trkpt lat="43.7396294" lon="12.6452189"><ele>285.0</ele><time>2026-05-03T09:17:36.516Z</time></trkpt><trkpt lat="43.7394882" lon="12.6451196"><ele>288.6666666666667</ele><time>2026-05-03T09:17:37.517Z</time></trkpt><trkpt lat="43.7393507" lon="12.6449536"><ele>292.33333333333337</ele><time>2026-05-03T09:17:38.518Z</time></trkpt><trkpt lat="43.7392277" lon="12.644783"><ele>296.0</ele><time>2026-05-03T09:17:39.517Z</time></trkpt><trkpt lat="43.7391053" lon="12.6445888"><ele>302.0</ele><time>2026-05-03T09:17:40.516Z</time></trkpt><trkpt lat="43.7389664" lon="12.6443758"><ele>308.0</ele><time>2026-05-03T09:17:41.517Z</time></trkpt><trkpt lat="43.7388138" lon="12.6441166"><ele>314.0</ele><time>2026-05-03T09:17:42.517Z</time></trkpt><trkpt lat="43.7386756" lon="12.6438526"><ele>311.33333333333337</ele><time>2026-05-03T09:17:43.514Z</time></trkpt><trkpt lat="43.7385494" lon="12.6435847"><ele>308.6666666666667</ele><time>2026-05-03T09:17:44.517Z</time></trkpt><trkpt lat="43.7383977" lon="12.6433716"><ele>306.0</ele><time>2026-05-03T09:17:45.507Z</time></trkpt><trkpt lat="43.7382342" lon="12.6431856"><ele>306.0</ele><time>2026-05-03T09:17:46.516Z</time></trkpt><trkpt lat="43.7380503" lon="12.6430292"><ele>306.0</ele><time>2026-05-03T09:17:47.516Z</time></trkpt><trkpt lat="43.7378495" lon="12.6429069"><ele>306.0</ele><time>2026-05-03T09:17:48.516Z</time></trkpt><trkpt lat="43.7376427" lon="12.6427925"><ele>310.3333333333333</ele><time>2026-05-03T09:17:49.515Z</time></trkpt><trkpt lat="43.7374423" lon="12.6426827"><ele>314.66666666666663</ele><time>2026-05-03T09:17:50.516Z</time></trkpt><trkpt lat="43.7372451" lon="12.6425782"><ele>319.0</ele><time>2026-05-03T09:17:51.516Z</time></trkpt><trkpt lat="43.7370399" lon="12.6425094"><ele>317.3333333333333</ele><time>2026-05-03T09:17:52.514Z</time></trkpt><trkpt lat="43.7368373" lon="12.6424328"><ele>315.6666666666667</ele><time>2026-05-03T09:17:53.516Z</time></trkpt><trkpt lat="43.7366352" lon="12.6424088"><ele>314.0</ele><time>2026-05-03T09:17:54.516Z</time></trkpt><trkpt lat="43.7364797" lon="12.6424713"><ele>314.0</ele><time>2026-05-03T09:17:55.515Z</time></trkpt><trkpt lat="43.7363514" lon="12.6425978"><ele>314.0</ele><time>2026-05-03T09:17:56.516Z</time></trkpt><trkpt lat="43.7362218" lon="12.6426806"><ele>314.0</ele><time>2026-05-03T09:17:57.516Z</time></trkpt><trkpt lat="43.7360982" lon="12.6427911"><ele>314.0</ele><time>2026-05-03T09:17:58.516Z</time></trkpt><trkpt lat="43.7359811" lon="12.6428439"><ele>312.6666666666667</ele><time>2026-05-03T09:17:59.515Z</time></trkpt><trkpt lat="43.7358813" lon="12.6428741"><ele>311.33333333333337</ele><time>2026-05-03T09:18:00.516Z</time></trkpt><trkpt lat="43.7358046" lon="12.6428903"><ele>310.0</ele><time>2026-05-03T09:18:01.516Z</time></trkpt><trkpt lat="43.7357398" lon="12.6429088"><ele>308.6666666666667</ele><time>2026-05-03T09:18:02.512Z</time></trkpt><trkpt lat="43.735674" lon="12.6428384"><ele>307.3333333333333</ele><time>2026-05-03T09:18:04.517Z</time></trkpt><trkpt lat="43.7355769" lon="12.6427718"><ele>306.0</ele><time>2026-05-03T09:18:06.515Z</time></trkpt><trkpt lat="43.7354989" lon="12.6428122"><ele>306.0</ele><time>2026-05-03T09:18:07.524Z</time></trkpt><trkpt lat="43.7354094" lon="12.642832"><ele>306.0</ele><time>2026-05-03T09:18:08.515Z</time></trkpt><trkpt lat="43.7353444" lon="12.6429216"><ele>306.0</ele><time>2026-05-03T09:18:09.516Z</time></trkpt><trkpt lat="43.7352575" lon="12.6429706"><ele>306.0</ele><time>2026-05-03T09:18:10.515Z</time></trkpt><trkpt lat="43.735163" lon="12.6430269"><ele>306.0</ele><time>2026-05-03T09:18:11.514Z</time></trkpt><trkpt lat="43.7350672" lon="12.643048"><ele>307.25</ele><time>2026-05-03T09:18:12.514Z</time></trkpt><trkpt lat="43.7349583" lon="12.6430656"><ele>308.5</ele><time>2026-05-03T09:18:13.515Z</time></trkpt><trkpt lat="43.7348393" lon="12.643073"><ele>309.75</ele><time>2026-05-03T09:18:14.518Z</time></trkpt><trkpt lat="43.7347072" lon="12.6430685"><ele>311.0</ele><time>2026-05-03T09:18:15.513Z</time></trkpt><trkpt lat="43.7345644" lon="12.6430639"><ele>311.0</ele><time>2026-05-03T09:18:16.516Z</time></trkpt><trkpt lat="43.7344164" lon="12.6430475"><ele>311.0</ele><time>2026-05-03T09:18:17.509Z</time></trkpt><trkpt lat="43.7342595" lon="12.6430237"><ele>311.0</ele><time>2026-05-03T09:18:18.516Z</time></trkpt><trkpt lat="43.734095" lon="12.6429948"><ele>314.6666666666667</ele><time>2026-05-03T09:18:19.515Z</time></trkpt><trkpt lat="43.73391" lon="12.6429425"><ele>318.3333333333333</ele><time>2026-05-03T09:18:20.515Z</time></trkpt><trkpt lat="43.7337307" lon="12.6429014"><ele>322.0</ele><time>2026-05-03T09:18:21.514Z</time></trkpt><trkpt lat="43.7335625" lon="12.6428533"><ele>321.3333333333333</ele><time>2026-05-03T09:18:22.516Z</time></trkpt><trkpt lat="43.7334014" lon="12.642796"><ele>320.6666666666667</ele><time>2026-05-03T09:18:23.517Z</time></trkpt><trkpt lat="43.7332574" lon="12.6427098"><ele>320.0</ele><time>2026-05-03T09:18:24.515Z</time></trkpt><trkpt lat="43.7331198" lon="12.6426171"><ele>320.0</ele><time>2026-05-03T09:18:25.516Z</time></trkpt><trkpt lat="43.7329942" lon="12.6425173"><ele>320.0</ele><time>2026-05-03T09:18:26.515Z</time></trkpt><trkpt lat="43.7328718" lon="12.6423993"><ele>320.0</ele><time>2026-05-03T09:18:27.518Z</time></trkpt><trkpt lat="43.732767" lon="12.6422649"><ele>320.0</ele><time>2026-05-03T09:18:28.517Z</time></trkpt><trkpt lat="43.7326672" lon="12.6421185"><ele>321.0</ele><time>2026-05-03T09:18:29.515Z</time></trkpt><trkpt lat="43.7325701" lon="12.6419654"><ele>322.0</ele><time>2026-05-03T09:18:30.515Z</time></trkpt><trkpt lat="43.7324791" lon="12.6418128"><ele>323.0</ele><time>2026-05-03T09:18:31.514Z</time></trkpt><trkpt lat="43.7323893" lon="12.6416519"><ele>324.0</ele><time>2026-05-03T09:18:32.508Z</time></trkpt><trkpt lat="43.732296" lon="12.6414829"><ele>324.0</ele><time>2026-05-03T09:18:33.515Z</time></trkpt><trkpt lat="43.7322005" lon="12.6413179"><ele>324.0</ele><time>2026-05-03T09:18:34.515Z</time></trkpt><trkpt lat="43.7320986" lon="12.6411593"><ele>324.0</ele><time>2026-05-03T09:18:35.515Z</time></trkpt><trkpt lat="43.7319892" lon="12.6410092"><ele>325.0</ele><time>2026-05-03T09:18:36.515Z</time></trkpt><trkpt lat="43.7318611" lon="12.6408775"><ele>326.0</ele><time>2026-05-03T09:18:37.512Z</time></trkpt><trkpt lat="43.731668" lon="12.6408961"><ele>327.0</ele><time>2026-05-03T09:18:38.516Z</time></trkpt><trkpt lat="43.731494" lon="12.6408698"><ele>327.0</ele><time>2026-05-03T09:18:39.517Z</time></trkpt><trkpt lat="43.7313205" lon="12.6408815"><ele>327.0</ele><time>2026-05-03T09:18:40.515Z</time></trkpt><trkpt lat="43.7311384" lon="12.6409025"><ele>327.0</ele><time>2026-05-03T09:18:41.516Z</time></trkpt><trkpt lat="43.7309559" lon="12.6409203"><ele>328.6666666666667</ele><time>2026-05-03T09:18:42.517Z</time></trkpt><trkpt lat="43.7307812" lon="12.6409421"><ele>330.33333333333337</ele><time>2026-05-03T09:18:43.516Z</time></trkpt><trkpt lat="43.7306076" lon="12.6409611"><ele>332.0</ele><time>2026-05-03T09:18:44.518Z</time></trkpt><trkpt lat="43.7304423" lon="12.6409813"><ele>332.0</ele><time>2026-05-03T09:18:45.515Z</time></trkpt><trkpt lat="43.7302886" lon="12.6410066"><ele>332.0</ele><time>2026-05-03T09:18:46.515Z</time></trkpt><trkpt lat="43.7301205" lon="12.6410178"><ele>332.0</ele><time>2026-05-03T09:18:47.514Z</time></trkpt><trkpt lat="43.7299888" lon="12.6410357"><ele>333.5</ele><time>2026-05-03T09:18:48.517Z</time></trkpt><trkpt lat="43.7298613" lon="12.6410484"><ele>335.0</ele><time>2026-05-03T09:18:49.516Z</time></trkpt><trkpt lat="43.7296947" lon="12.6410594"><ele>336.5</ele><time>2026-05-03T09:18:50.516Z</time></trkpt><trkpt lat="43.7295571" lon="12.641065"><ele>338.0</ele><time>2026-05-03T09:18:51.516Z</time></trkpt><trkpt lat="43.7294327" lon="12.64107"><ele>340.0</ele><time>2026-05-03T09:18:52.514Z</time></trkpt><trkpt lat="43.7293066" lon="12.6410904"><ele>342.0</ele><time>2026-05-03T09:18:53.515Z</time></trkpt><trkpt lat="43.7292106" lon="12.6410826"><ele>344.0</ele><time>2026-05-03T09:18:54.511Z</time></trkpt><trkpt lat="43.7290882" lon="12.6410889"><ele>346.0</ele><time>2026-05-03T09:18:55.515Z</time></trkpt><trkpt lat="43.7289771" lon="12.6410783"><ele>346.0</ele><time>2026-05-03T09:18:56.515Z</time></trkpt><trkpt lat="43.7288617" lon="12.6410565"><ele>346.0</ele><time>2026-05-03T09:18:57.515Z</time></trkpt><trkpt lat="43.7287468" lon="12.6410304"><ele>346.0</ele><time>2026-05-03T09:18:58.515Z</time></trkpt><trkpt lat="43.7286346" lon="12.6409984"><ele>346.0</ele><time>2026-05-03T09:18:59.516Z</time></trkpt><trkpt lat="43.7285243" lon="12.6409558"><ele>347.8</ele><time>2026-05-03T09:19:00.516Z</time></trkpt><trkpt lat="43.7284227" lon="12.6409078"><ele>349.6</ele><time>2026-05-03T09:19:01.515Z</time></trkpt><trkpt lat="43.7283233" lon="12.6408553"><ele>351.4</ele><time>2026-05-03T09:19:02.515Z</time></trkpt><trkpt lat="43.72823" lon="12.6408134"><ele>353.2</ele><time>2026-05-03T09:19:03.515Z</time></trkpt><trkpt lat="43.7281438" lon="12.6407883"><ele>355.0</ele><time>2026-05-03T09:19:04.514Z</time></trkpt><trkpt lat="43.7280619" lon="12.6407915"><ele>355.0</ele><time>2026-05-03T09:19:05.514Z</time></trkpt><trkpt lat="43.7279784" lon="12.6408359"><ele>355.0</ele><time>2026-05-03T09:19:06.513Z</time></trkpt><trkpt lat="43.7279166" lon="12.6409111"><ele>355.0</ele><time>2026-05-03T09:19:07.516Z</time></trkpt><trkpt lat="43.7278782" lon="12.6410191"><ele>355.0</ele><time>2026-05-03T09:19:08.512Z</time></trkpt><trkpt lat="43.7278687" lon="12.6411341"><ele>355.0</ele><time>2026-05-03T09:19:09.515Z</time></trkpt><trkpt lat="43.7279023" lon="12.6412557"><ele>355.0</ele><time>2026-05-03T09:19:10.518Z</time></trkpt><trkpt lat="43.7279514" lon="12.6413754"><ele>357.0</ele><time>2026-05-03T09:19:11.517Z</time></trkpt><trkpt lat="43.7280319" lon="12.6414286"><ele>359.0</ele><time>2026-05-03T09:19:12.516Z</time></trkpt><trkpt lat="43.7281184" lon="12.6414465"><ele>361.0</ele><time>2026-05-03T09:19:13.515Z</time></trkpt><trkpt lat="43.7282138" lon="12.6414548"><ele>363.0</ele><time>2026-05-03T09:19:14.516Z</time></trkpt><trkpt lat="43.7283081" lon="12.6414603"><ele>365.0</ele><time>2026-05-03T09:19:15.515Z</time></trkpt><trkpt lat="43.7284052" lon="12.6414667"><ele>365.0</ele><time>2026-05-03T09:19:16.518Z</time></trkpt><trkpt lat="43.728504" lon="12.641464"><ele>365.0</ele><time>2026-05-03T09:19:17.518Z</time></trkpt><trkpt lat="43.728599" lon="12.6414724"><ele>365.0</ele><time>2026-05-03T09:19:18.516Z</time></trkpt><trkpt lat="43.7286755" lon="12.6415129"><ele>365.0</ele><time>2026-05-03T09:19:19.516Z</time></trkpt><trkpt lat="43.7287349" lon="12.641593"><ele>365.0</ele><time>2026-05-03T09:19:20.516Z</time></trkpt><trkpt lat="43.7287667" lon="12.641692"><ele>365.0</ele><time>2026-05-03T09:19:21.517Z</time></trkpt><trkpt lat="43.7287587" lon="12.6417873"><ele>365.0</ele><time>2026-05-03T09:19:22.515Z</time></trkpt><trkpt lat="43.7287174" lon="12.6418812"><ele>365.0</ele><time>2026-05-03T09:19:23.511Z</time></trkpt><trkpt lat="43.7286783" lon="12.641976"><ele>365.0</ele><time>2026-05-03T09:19:24.517Z</time></trkpt><trkpt lat="43.7286239" lon="12.6420576"><ele>365.0</ele><time>2026-05-03T09:19:25.516Z</time></trkpt><trkpt lat="43.7284788" lon="12.6420338"><ele>365.0</ele><time>2026-05-03T09:19:27.514Z</time></trkpt><trkpt lat="43.728332" lon="12.6418943"><ele>365.0</ele><time>2026-05-03T09:19:28.526Z</time></trkpt><trkpt lat="43.7281994" lon="12.6418317"><ele>365.0</ele><time>2026-05-03T09:19:29.515Z</time></trkpt><trkpt lat="43.7279972" lon="12.6417182"><ele>365.0</ele><time>2026-05-03T09:19:30.517Z</time></trkpt><trkpt lat="43.7278367" lon="12.6416544"><ele>367.0</ele><time>2026-05-03T09:19:31.518Z</time></trkpt><trkpt lat="43.7276875" lon="12.6416022"><ele>369.0</ele><time>2026-05-03T09:19:32.515Z</time></trkpt><trkpt lat="43.7275131" lon="12.6415675"><ele>371.0</ele><time>2026-05-03T09:19:33.516Z</time></trkpt><trkpt lat="43.727313" lon="12.6415222"><ele>371.0</ele><time>2026-05-03T09:19:34.516Z</time></trkpt><trkpt lat="43.7271374" lon="12.6414678"><ele>371.0</ele><time>2026-05-03T09:19:35.516Z</time></trkpt><trkpt lat="43.726949" lon="12.6414277"><ele>371.0</ele><time>2026-05-03T09:19:36.514Z</time></trkpt><trkpt lat="43.726788" lon="12.6413914"><ele>373.75</ele><time>2026-05-03T09:19:37.517Z</time></trkpt><trkpt lat="43.7266413" lon="12.6413549"><ele>376.5</ele><time>2026-05-03T09:19:38.516Z</time></trkpt><trkpt lat="43.726494" lon="12.6413131"><ele>379.25</ele><time>2026-05-03T09:19:39.518Z</time></trkpt><trkpt lat="43.7263709" lon="12.6412934"><ele>382.0</ele><time>2026-05-03T09:19:40.517Z</time></trkpt><trkpt lat="43.7262627" lon="12.6412724"><ele>382.0</ele><time>2026-05-03T09:19:41.517Z</time></trkpt><trkpt lat="43.7261765" lon="12.6412468"><ele>382.0</ele><time>2026-05-03T09:19:42.517Z</time></trkpt><trkpt lat="43.7260912" lon="12.6412064"><ele>382.0</ele><time>2026-05-03T09:19:44.514Z</time></trkpt><trkpt lat="43.7260404" lon="12.641149"><ele>382.0</ele><time>2026-05-03T09:19:47.515Z</time></trkpt><trkpt lat="43.7259755" lon="12.6410185"><ele>382.0</ele><time>2026-05-03T09:19:49.523Z</time></trkpt><trkpt lat="43.7259217" lon="12.6409491"><ele>382.0</ele><time>2026-05-03T09:19:50.516Z</time></trkpt><trkpt lat="43.7258596" lon="12.6409131"><ele>382.20000000000005</ele><time>2026-05-03T09:19:51.512Z</time></trkpt><trkpt lat="43.7257863" lon="12.6409069"><ele>382.4</ele><time>2026-05-03T09:19:52.515Z</time></trkpt><trkpt lat="43.7257103" lon="12.6409464"><ele>382.6</ele><time>2026-05-03T09:19:53.515Z</time></trkpt><trkpt lat="43.7256489" lon="12.6410397"><ele>382.79999999999995</ele><time>2026-05-03T09:19:54.514Z</time></trkpt><trkpt lat="43.725589" lon="12.6411415"><ele>383.0</ele><time>2026-05-03T09:19:55.514Z</time></trkpt><trkpt lat="43.7255605" lon="12.6413031"><ele>383.0</ele><time>2026-05-03T09:19:56.515Z</time></trkpt><trkpt lat="43.7255184" lon="12.6414529"><ele>383.0</ele><time>2026-05-03T09:19:57.516Z</time></trkpt><trkpt lat="43.7254683" lon="12.6416221"><ele>383.0</ele><time>2026-05-03T09:19:58.514Z</time></trkpt><trkpt lat="43.7254086" lon="12.641787"><ele>383.0</ele><time>2026-05-03T09:19:59.515Z</time></trkpt><trkpt lat="43.7253476" lon="12.6419458"><ele>384.75</ele><time>2026-05-03T09:20:00.515Z</time></trkpt><trkpt lat="43.7252811" lon="12.6421034"><ele>386.5</ele><time>2026-05-03T09:20:01.516Z</time></trkpt><trkpt lat="43.7252112" lon="12.642263"><ele>388.25</ele><time>2026-05-03T09:20:02.515Z</time></trkpt><trkpt lat="43.7251434" lon="12.64243"><ele>390.0</ele><time>2026-05-03T09:20:03.516Z</time></trkpt><trkpt lat="43.7250699" lon="12.6426016"><ele>386.5</ele><time>2026-05-03T09:20:04.516Z</time></trkpt><trkpt lat="43.725003" lon="12.6427752"><ele>383.0</ele><time>2026-05-03T09:20:05.516Z</time></trkpt><trkpt lat="43.7249507" lon="12.6429518"><ele>379.5</ele><time>2026-05-03T09:20:06.515Z</time></trkpt><trkpt lat="43.7249459" lon="12.6431495"><ele>376.0</ele><time>2026-05-03T09:20:07.509Z</time></trkpt><trkpt lat="43.724974" lon="12.6433549"><ele>376.3333333333333</ele><time>2026-05-03T09:20:08.514Z</time></trkpt><trkpt lat="43.7250408" lon="12.6435476"><ele>376.6666666666667</ele><time>2026-05-03T09:20:09.516Z</time></trkpt><trkpt lat="43.7251395" lon="12.6437347"><ele>377.0</ele><time>2026-05-03T09:20:10.514Z</time></trkpt><trkpt lat="43.7252591" lon="12.6439044"><ele>377.0</ele><time>2026-05-03T09:20:11.515Z</time></trkpt><trkpt lat="43.7253613" lon="12.6440777"><ele>377.0</ele><time>2026-05-03T09:20:12.515Z</time></trkpt><trkpt lat="43.7254493" lon="12.644255"><ele>377.0</ele><time>2026-05-03T09:20:13.516Z</time></trkpt><trkpt lat="43.7255145" lon="12.6444323"><ele>376.5</ele><time>2026-05-03T09:20:14.517Z</time></trkpt><trkpt lat="43.7255338" lon="12.6446197"><ele>376.0</ele><time>2026-05-03T09:20:15.516Z</time></trkpt><trkpt lat="43.7255085" lon="12.6447885"><ele>375.5</ele><time>2026-05-03T09:20:16.516Z</time></trkpt><trkpt lat="43.72544" lon="12.6449373"><ele>375.0</ele><time>2026-05-03T09:20:17.516Z</time></trkpt><trkpt lat="43.7252698" lon="12.6450965"><ele>372.0</ele><time>2026-05-03T09:20:18.516Z</time></trkpt><trkpt lat="43.7251502" lon="12.6452651"><ele>369.0</ele><time>2026-05-03T09:20:19.517Z</time></trkpt><trkpt lat="43.7250576" lon="12.6454465"><ele>366.0</ele><time>2026-05-03T09:20:20.515Z</time></trkpt><trkpt lat="43.724973" lon="12.6456278"><ele>366.0</ele><time>2026-05-03T09:20:21.516Z</time></trkpt><trkpt lat="43.7248973" lon="12.645808"><ele>366.0</ele><time>2026-05-03T09:20:22.515Z</time></trkpt><trkpt lat="43.7248255" lon="12.6459889"><ele>366.0</ele><time>2026-05-03T09:20:23.515Z</time></trkpt><trkpt lat="43.7247466" lon="12.6461726"><ele>366.25</ele><time>2026-05-03T09:20:24.515Z</time></trkpt><trkpt lat="43.7246679" lon="12.6463333"><ele>366.5</ele><time>2026-05-03T09:20:25.516Z</time></trkpt><trkpt lat="43.7245207" lon="12.6464064"><ele>366.75</ele><time>2026-05-03T09:20:26.512Z</time></trkpt><trkpt lat="43.7243798" lon="12.6464647"><ele>367.0</ele><time>2026-05-03T09:20:27.515Z</time></trkpt><trkpt lat="43.7242232" lon="12.6464693"><ele>364.66666666666663</ele><time>2026-05-03T09:20:28.515Z</time></trkpt><trkpt lat="43.724052" lon="12.6464353"><ele>362.3333333333333</ele><time>2026-05-03T09:20:29.515Z</time></trkpt><trkpt lat="43.7239012" lon="12.6463616"><ele>360.0</ele><time>2026-05-03T09:20:30.515Z</time></trkpt><trkpt lat="43.723772" lon="12.6462365"><ele>358.3333333333333</ele><time>2026-05-03T09:20:31.515Z</time></trkpt><trkpt lat="43.7236778" lon="12.6460588"><ele>356.66666666666663</ele><time>2026-05-03T09:20:32.515Z</time></trkpt><trkpt lat="43.7235767" lon="12.6458831"><ele>355.0</ele><time>2026-05-03T09:20:33.516Z</time></trkpt><trkpt lat="43.7235128" lon="12.6456904"><ele>355.0</ele><time>2026-05-03T09:20:34.514Z</time></trkpt><trkpt lat="43.7234234" lon="12.6454571"><ele>355.0</ele><time>2026-05-03T09:20:35.515Z</time></trkpt><trkpt lat="43.723329" lon="12.6452321"><ele>355.0</ele><time>2026-05-03T09:20:36.514Z</time></trkpt><trkpt lat="43.7232317" lon="12.6450327"><ele>355.3333333333333</ele><time>2026-05-03T09:20:37.516Z</time></trkpt><trkpt lat="43.7230312" lon="12.6449097"><ele>355.6666666666667</ele><time>2026-05-03T09:20:38.515Z</time></trkpt><trkpt lat="43.7228828" lon="12.6447294"><ele>356.0</ele><time>2026-05-03T09:20:39.512Z</time></trkpt><trkpt lat="43.7227302" lon="12.6445721"><ele>351.0</ele><time>2026-05-03T09:20:40.515Z</time></trkpt><trkpt lat="43.7225747" lon="12.644397"><ele>346.0</ele><time>2026-05-03T09:20:41.506Z</time></trkpt><trkpt lat="43.7224509" lon="12.6442358"><ele>341.0</ele><time>2026-05-03T09:20:42.515Z</time></trkpt><trkpt lat="43.7223229" lon="12.6440766"><ele>341.0</ele><time>2026-05-03T09:20:43.515Z</time></trkpt><trkpt lat="43.7221886" lon="12.643924"><ele>341.0</ele><time>2026-05-03T09:20:44.516Z</time></trkpt><trkpt lat="43.7220394" lon="12.6438148"><ele>341.0</ele><time>2026-05-03T09:20:45.514Z</time></trkpt><trkpt lat="43.7218895" lon="12.6436765"><ele>337.6666666666667</ele><time>2026-05-03T09:20:46.526Z</time></trkpt><trkpt lat="43.7217542" lon="12.6434851"><ele>334.3333333333333</ele><time>2026-05-03T09:20:47.514Z</time></trkpt><trkpt lat="43.7216161" lon="12.6433079"><ele>331.0</ele><time>2026-05-03T09:20:48.515Z</time></trkpt><trkpt lat="43.7214941" lon="12.6430749"><ele>331.0</ele><time>2026-05-03T09:20:49.515Z</time></trkpt><trkpt lat="43.7213474" lon="12.6429103"><ele>331.0</ele><time>2026-05-03T09:20:50.512Z</time></trkpt><trkpt lat="43.7211832" lon="12.6427792"><ele>331.0</ele><time>2026-05-03T09:20:51.515Z</time></trkpt><trkpt lat="43.7210049" lon="12.6426294"><ele>328.66666666666663</ele><time>2026-05-03T09:20:52.517Z</time></trkpt><trkpt lat="43.7208377" lon="12.6424319"><ele>326.3333333333333</ele><time>2026-05-03T09:20:53.516Z</time></trkpt><trkpt lat="43.7206881" lon="12.6422392"><ele>324.0</ele><time>2026-05-03T09:20:54.517Z</time></trkpt><trkpt lat="43.7205593" lon="12.6420638"><ele>322.3333333333333</ele><time>2026-05-03T09:20:55.513Z</time></trkpt><trkpt lat="43.7204501" lon="12.6418726"><ele>320.66666666666663</ele><time>2026-05-03T09:20:56.517Z</time></trkpt><trkpt lat="43.7203853" lon="12.6416627"><ele>319.0</ele><time>2026-05-03T09:20:57.509Z</time></trkpt><trkpt lat="43.7203273" lon="12.6414433"><ele>319.0</ele><time>2026-05-03T09:20:58.518Z</time></trkpt><trkpt lat="43.720259" lon="12.6412219"><ele>319.0</ele><time>2026-05-03T09:20:59.516Z</time></trkpt><trkpt lat="43.7201602" lon="12.6409833"><ele>319.0</ele><time>2026-05-03T09:21:00.514Z</time></trkpt><trkpt lat="43.7200307" lon="12.640834"><ele>320.66666666666663</ele><time>2026-05-03T09:21:01.519Z</time></trkpt><trkpt lat="43.7198985" lon="12.6406941"><ele>322.3333333333333</ele><time>2026-05-03T09:21:02.514Z</time></trkpt><trkpt lat="43.719769" lon="12.6405662"><ele>324.0</ele><time>2026-05-03T09:21:03.515Z</time></trkpt><trkpt lat="43.7196224" lon="12.6404764"><ele>324.0</ele><time>2026-05-03T09:21:04.517Z</time></trkpt><trkpt lat="43.7194738" lon="12.6404273"><ele>324.0</ele><time>2026-05-03T09:21:05.514Z</time></trkpt><trkpt lat="43.7193265" lon="12.6404028"><ele>324.0</ele><time>2026-05-03T09:21:06.517Z</time></trkpt><trkpt lat="43.7191746" lon="12.6404121"><ele>324.25</ele><time>2026-05-03T09:21:07.516Z</time></trkpt><trkpt lat="43.7190288" lon="12.6404203"><ele>324.5</ele><time>2026-05-03T09:21:08.516Z</time></trkpt><trkpt lat="43.7188836" lon="12.6404217"><ele>324.75</ele><time>2026-05-03T09:21:09.516Z</time></trkpt><trkpt lat="43.7187381" lon="12.6404273"><ele>325.0</ele><time>2026-05-03T09:21:10.516Z</time></trkpt><trkpt lat="43.7185952" lon="12.6404404"><ele>323.25</ele><time>2026-05-03T09:21:11.518Z</time></trkpt><trkpt lat="43.718448" lon="12.6404826"><ele>321.5</ele><time>2026-05-03T09:21:12.517Z</time></trkpt><trkpt lat="43.7183106" lon="12.6405467"><ele>319.75</ele><time>2026-05-03T09:21:13.517Z</time></trkpt><trkpt lat="43.7181804" lon="12.6406342"><ele>318.0</ele><time>2026-05-03T09:21:14.516Z</time></trkpt><trkpt lat="43.7180453" lon="12.6407085"><ele>318.0</ele><time>2026-05-03T09:21:15.517Z</time></trkpt><trkpt lat="43.7179148" lon="12.6407732"><ele>318.0</ele><time>2026-05-03T09:21:16.512Z</time></trkpt><trkpt lat="43.7177934" lon="12.6408225"><ele>318.0</ele><time>2026-05-03T09:21:17.518Z</time></trkpt><trkpt lat="43.7176716" lon="12.640847"><ele>318.0</ele><time>2026-05-03T09:21:18.517Z</time></trkpt><trkpt lat="43.7175388" lon="12.6408408"><ele>313.0</ele><time>2026-05-03T09:21:19.517Z</time></trkpt><trkpt lat="43.7173854" lon="12.6408142"><ele>308.0</ele><time>2026-05-03T09:21:20.516Z</time></trkpt><trkpt lat="43.7172417" lon="12.6408002"><ele>303.0</ele><time>2026-05-03T09:21:21.516Z</time></trkpt><trkpt lat="43.7170822" lon="12.6407777"><ele>303.0</ele><time>2026-05-03T09:21:22.518Z</time></trkpt><trkpt lat="43.7169171" lon="12.6407551"><ele>303.0</ele><time>2026-05-03T09:21:23.516Z</time></trkpt><trkpt lat="43.7167425" lon="12.6407211"><ele>303.0</ele><time>2026-05-03T09:21:24.516Z</time></trkpt><trkpt lat="43.7165593" lon="12.640696"><ele>302.0</ele><time>2026-05-03T09:21:25.515Z</time></trkpt><trkpt lat="43.7163819" lon="12.6406704"><ele>301.0</ele><time>2026-05-03T09:21:26.517Z</time></trkpt><trkpt lat="43.7161987" lon="12.6406427"><ele>300.0</ele><time>2026-05-03T09:21:27.516Z</time></trkpt><trkpt lat="43.7160314" lon="12.6406143"><ele>300.0</ele><time>2026-05-03T09:21:28.514Z</time></trkpt><trkpt lat="43.715853" lon="12.6405819"><ele>300.0</ele><time>2026-05-03T09:21:29.515Z</time></trkpt><trkpt lat="43.715676" lon="12.6405442"><ele>300.0</ele><time>2026-05-03T09:21:30.514Z</time></trkpt><trkpt lat="43.7154872" lon="12.6405017"><ele>300.0</ele><time>2026-05-03T09:21:31.513Z</time></trkpt><trkpt lat="43.7152989" lon="12.6404636"><ele>300.0</ele><time>2026-05-03T09:21:32.513Z</time></trkpt><trkpt lat="43.7076065" lon="12.6413265"><ele>279.3333333333333</ele><time>2026-05-03T09:22:08.506Z</time></trkpt><trkpt lat="43.7074534" lon="12.6414916"><ele>258.66666666666663</ele><time>2026-05-03T09:22:09.509Z</time></trkpt><trkpt lat="43.707295" lon="12.6416559"><ele>238.0</ele><time>2026-05-03T09:22:10.517Z</time></trkpt><trkpt lat="43.7071359" lon="12.6418152"><ele>237.33333333333331</ele><time>2026-05-03T09:22:11.511Z</time></trkpt><trkpt lat="43.706985" lon="12.6419961"><ele>236.66666666666669</ele><time>2026-05-03T09:22:12.513Z</time></trkpt><trkpt lat="43.7068299" lon="12.6421821"><ele>236.0</ele><time>2026-05-03T09:22:13.511Z</time></trkpt><trkpt lat="43.706699" lon="12.6423892"><ele>232.0</ele><time>2026-05-03T09:22:14.512Z</time></trkpt><trkpt lat="43.7065609" lon="12.6425945"><ele>228.0</ele><time>2026-05-03T09:22:15.511Z</time></trkpt><trkpt lat="43.7064227" lon="12.6428149"><ele>224.0</ele><time>2026-05-03T09:22:16.511Z</time></trkpt><trkpt lat="43.7062968" lon="12.6430513"><ele>223.66666666666669</ele><time>2026-05-03T09:22:17.512Z</time></trkpt><trkpt lat="43.7061735" lon="12.6432884"><ele>223.33333333333331</ele><time>2026-05-03T09:22:18.51Z</time></trkpt><trkpt lat="43.7060628" lon="12.6435272"><ele>223.0</ele><time>2026-05-03T09:22:19.515Z</time></trkpt><trkpt lat="43.7059553" lon="12.6437709"><ele>226.0</ele><time>2026-05-03T09:22:20.515Z</time></trkpt><trkpt lat="43.7058555" lon="12.6440254"><ele>229.0</ele><time>2026-05-03T09:22:21.515Z</time></trkpt><trkpt lat="43.7057703" lon="12.6442921"><ele>232.0</ele><time>2026-05-03T09:22:22.518Z</time></trkpt><trkpt lat="43.7056928" lon="12.6445665"><ele>232.0</ele><time>2026-05-03T09:22:23.509Z</time></trkpt><trkpt lat="43.7056357" lon="12.6448451"><ele>232.0</ele><time>2026-05-03T09:22:24.516Z</time></trkpt><trkpt lat="43.7055832" lon="12.6451287"><ele>232.0</ele><time>2026-05-03T09:22:25.516Z</time></trkpt><trkpt lat="43.7055307" lon="12.6454158"><ele>231.66666666666666</ele><time>2026-05-03T09:22:26.513Z</time></trkpt><trkpt lat="43.7054806" lon="12.6457148"><ele>231.33333333333331</ele><time>2026-05-03T09:22:27.516Z</time></trkpt><trkpt lat="43.7054548" lon="12.6460034"><ele>231.0</ele><time>2026-05-03T09:22:28.516Z</time></trkpt><trkpt lat="43.7054502" lon="12.64631"><ele>231.0</ele><time>2026-05-03T09:22:29.516Z</time></trkpt><trkpt lat="43.7054564" lon="12.6466168"><ele>231.0</ele><time>2026-05-03T09:22:30.515Z</time></trkpt><trkpt lat="43.7054952" lon="12.6469225"><ele>231.0</ele><time>2026-05-03T09:22:31.516Z</time></trkpt><trkpt lat="43.7055284" lon="12.6472424"><ele>226.5</ele><time>2026-05-03T09:22:32.517Z</time></trkpt><trkpt lat="43.7055839" lon="12.6475548"><ele>222.0</ele><time>2026-05-03T09:22:33.517Z</time></trkpt><trkpt lat="43.7056389" lon="12.6478635"><ele>218.5</ele><time>2026-05-03T09:22:34.517Z</time></trkpt><trkpt lat="43.7057041" lon="12.6481754"><ele>215.0</ele><time>2026-05-03T09:22:35.516Z</time></trkpt><trkpt lat="43.7057724" lon="12.6484847"><ele>213.0</ele><time>2026-05-03T09:22:36.516Z</time></trkpt><trkpt lat="43.7058385" lon="12.6487911"><ele>211.0</ele><time>2026-05-03T09:22:37.517Z</time></trkpt><trkpt lat="43.705908" lon="12.6490957"><ele>211.0</ele><time>2026-05-03T09:22:38.517Z</time></trkpt><trkpt lat="43.705966" lon="12.6493927"><ele>211.0</ele><time>2026-05-03T09:22:39.507Z</time></trkpt><trkpt lat="43.7060339" lon="12.6496904"><ele>211.0</ele><time>2026-05-03T09:22:40.518Z</time></trkpt><trkpt lat="43.7060951" lon="12.6499888"><ele>212.66666666666666</ele><time>2026-05-03T09:22:41.518Z</time></trkpt><trkpt lat="43.7061604" lon="12.6502786"><ele>214.33333333333331</ele><time>2026-05-03T09:22:42.515Z</time></trkpt><trkpt lat="43.706225" lon="12.6505785"><ele>216.0</ele><time>2026-05-03T09:22:43.516Z</time></trkpt><trkpt lat="43.7062931" lon="12.6508827"><ele>215.0</ele><time>2026-05-03T09:22:44.516Z</time></trkpt><trkpt lat="43.7063578" lon="12.651181"><ele>214.0</ele><time>2026-05-03T09:22:45.518Z</time></trkpt><trkpt lat="43.7064286" lon="12.6514752"><ele>213.0</ele><time>2026-05-03T09:22:46.517Z</time></trkpt><trkpt lat="43.7064968" lon="12.6517847"><ele>211.0</ele><time>2026-05-03T09:22:47.519Z</time></trkpt><trkpt lat="43.7065477" lon="12.6520994"><ele>209.0</ele><time>2026-05-03T09:22:48.518Z</time></trkpt><trkpt lat="43.7065973" lon="12.6524115"><ele>209.0</ele><time>2026-05-03T09:22:49.518Z</time></trkpt><trkpt lat="43.7066427" lon="12.652727"><ele>209.0</ele><time>2026-05-03T09:22:50.519Z</time></trkpt><trkpt lat="43.7066787" lon="12.6530434"><ele>208.0</ele><time>2026-05-03T09:22:51.517Z</time></trkpt><trkpt lat="43.7067067" lon="12.6533663"><ele>207.0</ele><time>2026-05-03T09:22:52.517Z</time></trkpt><trkpt lat="43.7067382" lon="12.6536776"><ele>206.5</ele><time>2026-05-03T09:22:53.515Z</time></trkpt><trkpt lat="43.7067417" lon="12.6539944"><ele>206.0</ele><time>2026-05-03T09:22:54.516Z</time></trkpt><trkpt lat="43.7066917" lon="12.6543372"><ele>204.0</ele><time>2026-05-03T09:22:55.512Z</time></trkpt><trkpt lat="43.7066715" lon="12.6546715"><ele>202.0</ele><time>2026-05-03T09:22:56.518Z</time></trkpt><trkpt lat="43.7066322" lon="12.654996"><ele>204.5</ele><time>2026-05-03T09:22:57.516Z</time></trkpt><trkpt lat="43.7065734" lon="12.6553227"><ele>207.0</ele><time>2026-05-03T09:22:58.519Z</time></trkpt><trkpt lat="43.7065159" lon="12.6556432"><ele>207.0</ele><time>2026-05-03T09:22:59.519Z</time></trkpt><trkpt lat="43.7064419" lon="12.6559551"><ele>207.0</ele><time>2026-05-03T09:23:00.516Z</time></trkpt><trkpt lat="43.7063731" lon="12.6562615"><ele>208.5</ele><time>2026-05-03T09:23:01.517Z</time></trkpt><trkpt lat="43.7062456" lon="12.6565576"><ele>210.0</ele><time>2026-05-03T09:23:02.517Z</time></trkpt><trkpt lat="43.7061399" lon="12.6568553"><ele>207.5</ele><time>2026-05-03T09:23:03.514Z</time></trkpt><trkpt lat="43.7060153" lon="12.6571402"><ele>205.0</ele><time>2026-05-03T09:23:04.518Z</time></trkpt><trkpt lat="43.7058897" lon="12.6574242"><ele>205.0</ele><time>2026-05-03T09:23:05.519Z</time></trkpt><trkpt lat="43.7057526" lon="12.6576965"><ele>205.0</ele><time>2026-05-03T09:23:06.516Z</time></trkpt><trkpt lat="43.7056147" lon="12.6579587"><ele>207.5</ele><time>2026-05-03T09:23:07.518Z</time></trkpt><trkpt lat="43.7054767" lon="12.6582119"><ele>210.0</ele><time>2026-05-03T09:23:08.519Z</time></trkpt><trkpt lat="43.7053378" lon="12.6584593"><ele>207.5</ele><time>2026-05-03T09:23:09.515Z</time></trkpt><trkpt lat="43.7051946" lon="12.6587039"><ele>205.0</ele><time>2026-05-03T09:23:10.519Z</time></trkpt><trkpt lat="43.7050531" lon="12.6589473"><ele>205.0</ele><time>2026-05-03T09:23:11.513Z</time></trkpt><trkpt lat="43.7049171" lon="12.6591832"><ele>205.0</ele><time>2026-05-03T09:23:12.515Z</time></trkpt><trkpt lat="43.7047839" lon="12.6594125"><ele>205.0</ele><time>2026-05-03T09:23:13.517Z</time></trkpt><trkpt lat="43.7046504" lon="12.6596396"><ele>205.0</ele><time>2026-05-03T09:23:14.518Z</time></trkpt><trkpt lat="43.7045289" lon="12.6598639"><ele>205.0</ele><time>2026-05-03T09:23:15.515Z</time></trkpt><trkpt lat="43.7044056" lon="12.6600886"><ele>205.0</ele><time>2026-05-03T09:23:16.519Z</time></trkpt><trkpt lat="43.7042975" lon="12.6603245"><ele>206.33333333333331</ele><time>2026-05-03T09:23:17.518Z</time></trkpt><trkpt lat="43.7042238" lon="12.6605689"><ele>207.66666666666669</ele><time>2026-05-03T09:23:18.516Z</time></trkpt><trkpt lat="43.7042011" lon="12.6608517"><ele>209.0</ele><time>2026-05-03T09:23:19.519Z</time></trkpt><trkpt lat="43.7041762" lon="12.661107"><ele>210.0</ele><time>2026-05-03T09:23:20.512Z</time></trkpt><trkpt lat="43.7041517" lon="12.661368"><ele>211.0</ele><time>2026-05-03T09:23:21.511Z</time></trkpt><trkpt lat="43.7041292" lon="12.6615964"><ele>212.0</ele><time>2026-05-03T09:23:22.515Z</time></trkpt><trkpt lat="43.7040585" lon="12.6618235"><ele>212.33333333333334</ele><time>2026-05-03T09:23:23.514Z</time></trkpt><trkpt lat="43.7039529" lon="12.6620361"><ele>212.66666666666669</ele><time>2026-05-03T09:23:24.514Z</time></trkpt><trkpt lat="43.7038235" lon="12.6622483"><ele>213.0</ele><time>2026-05-03T09:23:25.512Z</time></trkpt><trkpt lat="43.7036582" lon="12.6624296"><ele>211.33333333333331</ele><time>2026-05-03T09:23:26.515Z</time></trkpt><trkpt lat="43.7034834" lon="12.6626078"><ele>209.66666666666666</ele><time>2026-05-03T09:23:27.509Z</time></trkpt><trkpt lat="43.7032905" lon="12.6627792"><ele>208.0</ele><time>2026-05-03T09:23:28.507Z</time></trkpt><trkpt lat="43.7030834" lon="12.6629286"><ele>208.0</ele><time>2026-05-03T09:23:29.516Z</time></trkpt><trkpt lat="43.7029161" lon="12.663099"><ele>208.0</ele><time>2026-05-03T09:23:30.517Z</time></trkpt><trkpt lat="43.7027516" lon="12.6632694"><ele>208.0</ele><time>2026-05-03T09:23:31.517Z</time></trkpt><trkpt lat="43.702592" lon="12.6634399"><ele>209.33333333333331</ele><time>2026-05-03T09:23:32.519Z</time></trkpt><trkpt lat="43.702425" lon="12.6636049"><ele>210.66666666666669</ele><time>2026-05-03T09:23:33.519Z</time></trkpt><trkpt lat="43.7022633" lon="12.6637571"><ele>212.0</ele><time>2026-05-03T09:23:34.519Z</time></trkpt><trkpt lat="43.7020972" lon="12.6638742"><ele>212.0</ele><time>2026-05-03T09:23:35.518Z</time></trkpt><trkpt lat="43.7019233" lon="12.6638193"><ele>212.0</ele><time>2026-05-03T09:23:36.515Z</time></trkpt><trkpt lat="43.7017288" lon="12.6638425"><ele>212.0</ele><time>2026-05-03T09:23:37.517Z</time></trkpt><trkpt lat="43.701546" lon="12.6637923"><ele>207.0</ele><time>2026-05-03T09:23:38.519Z</time></trkpt><trkpt lat="43.7013644" lon="12.6637313"><ele>202.0</ele><time>2026-05-03T09:23:39.515Z</time></trkpt><trkpt lat="43.7011889" lon="12.6636274"><ele>197.0</ele><time>2026-05-03T09:23:40.518Z</time></trkpt><trkpt lat="43.701015" lon="12.6635006"><ele>197.0</ele><time>2026-05-03T09:23:41.517Z</time></trkpt><trkpt lat="43.7008677" lon="12.6633659"><ele>197.0</ele><time>2026-05-03T09:23:42.513Z</time></trkpt><trkpt lat="43.7007145" lon="12.6632448"><ele>197.0</ele><time>2026-05-03T09:23:43.516Z</time></trkpt><trkpt lat="43.700572" lon="12.663156"><ele>197.0</ele><time>2026-05-03T09:23:44.52Z</time></trkpt><trkpt lat="43.7004365" lon="12.6631087"><ele>197.0</ele><time>2026-05-03T09:23:45.516Z</time></trkpt><trkpt lat="43.7003182" lon="12.6630951"><ele>197.0</ele><time>2026-05-03T09:23:46.519Z</time></trkpt><trkpt lat="43.7002128" lon="12.6630939"><ele>197.0</ele><time>2026-05-03T09:23:47.516Z</time></trkpt><trkpt lat="43.7001154" lon="12.6630817"><ele>197.2</ele><time>2026-05-03T09:23:48.519Z</time></trkpt><trkpt lat="43.700016" lon="12.6630501"><ele>197.39999999999998</ele><time>2026-05-03T09:23:49.516Z</time></trkpt><trkpt lat="43.6999182" lon="12.6629965"><ele>197.60000000000002</ele><time>2026-05-03T09:23:50.518Z</time></trkpt><trkpt lat="43.6998269" lon="12.6629061"><ele>197.8</ele><time>2026-05-03T09:23:51.518Z</time></trkpt><trkpt lat="43.6997606" lon="12.6627932"><ele>198.0</ele><time>2026-05-03T09:23:52.511Z</time></trkpt><trkpt lat="43.6997063" lon="12.6626617"><ele>198.0</ele><time>2026-05-03T09:23:53.515Z</time></trkpt><trkpt lat="43.6996519" lon="12.662515"><ele>198.0</ele><time>2026-05-03T09:23:54.517Z</time></trkpt><trkpt lat="43.6996106" lon="12.6623493"><ele>198.0</ele><time>2026-05-03T09:23:55.515Z</time></trkpt><trkpt lat="43.6995791" lon="12.6621763"><ele>198.0</ele><time>2026-05-03T09:23:56.517Z</time></trkpt><trkpt lat="43.6995592" lon="12.6620104"><ele>198.4</ele><time>2026-05-03T09:23:57.515Z</time></trkpt><trkpt lat="43.699537" lon="12.661858"><ele>198.8</ele><time>2026-05-03T09:23:58.515Z</time></trkpt><trkpt lat="43.6995069" lon="12.6617252"><ele>199.2</ele><time>2026-05-03T09:23:59.519Z</time></trkpt><trkpt lat="43.6994721" lon="12.6616066"><ele>199.6</ele><time>2026-05-03T09:24:00.517Z</time></trkpt><trkpt lat="43.6994446" lon="12.6614985"><ele>200.0</ele><time>2026-05-03T09:24:01.516Z</time></trkpt><trkpt lat="43.6994154" lon="12.6614024"><ele>198.25</ele><time>2026-05-03T09:24:02.516Z</time></trkpt><trkpt lat="43.6993661" lon="12.6613446"><ele>196.5</ele><time>2026-05-03T09:24:03.515Z</time></trkpt><trkpt lat="43.6992157" lon="12.6613916"><ele>194.75</ele><time>2026-05-03T09:24:05.517Z</time></trkpt><trkpt lat="43.6991106" lon="12.6614625"><ele>193.0</ele><time>2026-05-03T09:24:06.518Z</time></trkpt><trkpt lat="43.6989926" lon="12.6615169"><ele>193.0</ele><time>2026-05-03T09:24:07.516Z</time></trkpt><trkpt lat="43.6988774" lon="12.6615867"><ele>193.0</ele><time>2026-05-03T09:24:08.514Z</time></trkpt><trkpt lat="43.6987701" lon="12.6616655"><ele>193.0</ele><time>2026-05-03T09:24:09.518Z</time></trkpt><trkpt lat="43.6986586" lon="12.6617316"><ele>193.0</ele><time>2026-05-03T09:24:10.508Z</time></trkpt><trkpt lat="43.6985354" lon="12.6617951"><ele>192.75</ele><time>2026-05-03T09:24:11.518Z</time></trkpt><trkpt lat="43.6984184" lon="12.6618666"><ele>192.5</ele><time>2026-05-03T09:24:12.518Z</time></trkpt><trkpt lat="43.6982895" lon="12.6619377"><ele>192.25</ele><time>2026-05-03T09:24:13.516Z</time></trkpt><trkpt lat="43.698163" lon="12.661997"><ele>192.0</ele><time>2026-05-03T09:24:14.52Z</time></trkpt><trkpt lat="43.6980586" lon="12.6620558"><ele>191.0</ele><time>2026-05-03T09:24:15.516Z</time></trkpt><trkpt lat="43.6979005" lon="12.6621539"><ele>190.0</ele><time>2026-05-03T09:24:16.516Z</time></trkpt><trkpt lat="43.6977686" lon="12.6622336"><ele>189.0</ele><time>2026-05-03T09:24:17.515Z</time></trkpt><trkpt lat="43.6976298" lon="12.6623113"><ele>188.66666666666666</ele><time>2026-05-03T09:24:18.514Z</time></trkpt><trkpt lat="43.6974885" lon="12.6623911"><ele>188.33333333333331</ele><time>2026-05-03T09:24:19.514Z</time></trkpt><trkpt lat="43.6973459" lon="12.662473"><ele>188.0</ele><time>2026-05-03T09:24:20.515Z</time></trkpt><trkpt lat="43.6972052" lon="12.6625551"><ele>188.0</ele><time>2026-05-03T09:24:21.517Z</time></trkpt><trkpt lat="43.6970557" lon="12.6626405"><ele>188.0</ele><time>2026-05-03T09:24:22.514Z</time></trkpt><trkpt lat="43.696912" lon="12.6627268"><ele>188.0</ele><time>2026-05-03T09:24:23.516Z</time></trkpt><trkpt lat="43.6967664" lon="12.6628144"><ele>187.5</ele><time>2026-05-03T09:24:24.509Z</time></trkpt><trkpt lat="43.6966358" lon="12.6628853"><ele>187.0</ele><time>2026-05-03T09:24:25.51Z</time></trkpt><trkpt lat="43.6964909" lon="12.6629471"><ele>186.5</ele><time>2026-05-03T09:24:26.517Z</time></trkpt><trkpt lat="43.6963352" lon="12.6629794"><ele>186.0</ele><time>2026-05-03T09:24:27.518Z</time></trkpt><trkpt lat="43.6961772" lon="12.6629827"><ele>185.66666666666666</ele><time>2026-05-03T09:24:28.519Z</time></trkpt><trkpt lat="43.6960144" lon="12.6629391"><ele>185.33333333333331</ele><time>2026-05-03T09:24:29.517Z</time></trkpt><trkpt lat="43.6958585" lon="12.6628459"><ele>185.0</ele><time>2026-05-03T09:24:30.52Z</time></trkpt><trkpt lat="43.6957208" lon="12.6627165"><ele>185.0</ele><time>2026-05-03T09:24:31.516Z</time></trkpt><trkpt lat="43.6955961" lon="12.6625474"><ele>185.0</ele><time>2026-05-03T09:24:32.518Z</time></trkpt><trkpt lat="43.6954809" lon="12.662371"><ele>185.0</ele><time>2026-05-03T09:24:33.518Z</time></trkpt><trkpt lat="43.6953711" lon="12.6621869"><ele>185.0</ele><time>2026-05-03T09:24:34.516Z</time></trkpt><trkpt lat="43.6952629" lon="12.6619967"><ele>185.0</ele><time>2026-05-03T09:24:35.518Z</time></trkpt><trkpt lat="43.6951558" lon="12.661805"><ele>185.0</ele><time>2026-05-03T09:24:36.52Z</time></trkpt><trkpt lat="43.6950488" lon="12.6616081"><ele>185.0</ele><time>2026-05-03T09:24:37.516Z</time></trkpt><trkpt lat="43.6949414" lon="12.6614121"><ele>185.0</ele><time>2026-05-03T09:24:38.519Z</time></trkpt><trkpt lat="43.6948349" lon="12.6612224"><ele>185.0</ele><time>2026-05-03T09:24:39.518Z</time></trkpt><trkpt lat="43.6947314" lon="12.6610389"><ele>185.0</ele><time>2026-05-03T09:24:40.516Z</time></trkpt><trkpt lat="43.6946301" lon="12.6608641"><ele>185.0</ele><time>2026-05-03T09:24:41.519Z</time></trkpt><trkpt lat="43.6945333" lon="12.6606901"><ele>185.0</ele><time>2026-05-03T09:24:42.518Z</time></trkpt><trkpt lat="43.6944367" lon="12.6605178"><ele>185.66666666666666</ele><time>2026-05-03T09:24:43.515Z</time></trkpt><trkpt lat="43.6943414" lon="12.6603496"><ele>186.33333333333334</ele><time>2026-05-03T09:24:44.519Z</time></trkpt><trkpt lat="43.6942419" lon="12.6601807"><ele>187.0</ele><time>2026-05-03T09:24:45.518Z</time></trkpt><trkpt lat="43.6941462" lon="12.6600115"><ele>187.0</ele><time>2026-05-03T09:24:46.516Z</time></trkpt><trkpt lat="43.6940487" lon="12.6598286"><ele>187.0</ele><time>2026-05-03T09:24:47.517Z</time></trkpt><trkpt lat="43.6939585" lon="12.6596337"><ele>187.0</ele><time>2026-05-03T09:24:48.518Z</time></trkpt><trkpt lat="43.6938735" lon="12.6594233"><ele>187.33333333333334</ele><time>2026-05-03T09:24:49.519Z</time></trkpt><trkpt lat="43.6937898" lon="12.6592057"><ele>187.66666666666666</ele><time>2026-05-03T09:24:50.519Z</time></trkpt><trkpt lat="43.6937108" lon="12.6589859"><ele>188.0</ele><time>2026-05-03T09:24:51.517Z</time></trkpt><trkpt lat="43.6936396" lon="12.6587816"><ele>186.33333333333331</ele><time>2026-05-03T09:24:52.517Z</time></trkpt><trkpt lat="43.693572" lon="12.6585814"><ele>184.66666666666666</ele><time>2026-05-03T09:24:53.516Z</time></trkpt><trkpt lat="43.6935018" lon="12.6583895"><ele>183.0</ele><time>2026-05-03T09:24:54.516Z</time></trkpt><trkpt lat="43.6934331" lon="12.6581919"><ele>183.0</ele><time>2026-05-03T09:24:55.518Z</time></trkpt><trkpt lat="43.6933637" lon="12.6580215"><ele>183.0</ele><time>2026-05-03T09:24:56.515Z</time></trkpt><trkpt lat="43.6933067" lon="12.6578369"><ele>183.0</ele><time>2026-05-03T09:24:57.518Z</time></trkpt><trkpt lat="43.6932317" lon="12.6576459"><ele>183.0</ele><time>2026-05-03T09:24:58.518Z</time></trkpt><trkpt lat="43.6931402" lon="12.6574641"><ele>184.0</ele><time>2026-05-03T09:24:59.516Z</time></trkpt><trkpt lat="43.6930346" lon="12.6572785"><ele>185.0</ele><time>2026-05-03T09:25:00.518Z</time></trkpt><trkpt lat="43.6929188" lon="12.6570939"><ele>186.0</ele><time>2026-05-03T09:25:01.519Z</time></trkpt><trkpt lat="43.6927841" lon="12.6568999"><ele>184.66666666666666</ele><time>2026-05-03T09:25:02.51Z</time></trkpt><trkpt lat="43.6926499" lon="12.6566983"><ele>183.33333333333331</ele><time>2026-05-03T09:25:03.519Z</time></trkpt><trkpt lat="43.6925149" lon="12.6564986"><ele>182.0</ele><time>2026-05-03T09:25:04.516Z</time></trkpt><trkpt lat="43.6923717" lon="12.6562667"><ele>183.33333333333331</ele><time>2026-05-03T09:25:05.52Z</time></trkpt><trkpt lat="43.6922363" lon="12.6560586"><ele>184.66666666666666</ele><time>2026-05-03T09:25:06.518Z</time></trkpt><trkpt lat="43.6920988" lon="12.6558463"><ele>186.0</ele><time>2026-05-03T09:25:07.516Z</time></trkpt><trkpt lat="43.6919608" lon="12.6556355"><ele>185.66666666666666</ele><time>2026-05-03T09:25:08.52Z</time></trkpt><trkpt lat="43.6918228" lon="12.6554323"><ele>185.33333333333331</ele><time>2026-05-03T09:25:09.519Z</time></trkpt><trkpt lat="43.6916906" lon="12.6552243"><ele>185.0</ele><time>2026-05-03T09:25:10.518Z</time></trkpt><trkpt lat="43.691566" lon="12.6550178"><ele>185.0</ele><time>2026-05-03T09:25:11.517Z</time></trkpt><trkpt lat="43.6914388" lon="12.6548079"><ele>185.0</ele><time>2026-05-03T09:25:12.517Z</time></trkpt><trkpt lat="43.6913145" lon="12.6546063"><ele>185.0</ele><time>2026-05-03T09:25:13.518Z</time></trkpt><trkpt lat="43.6911867" lon="12.6544086"><ele>184.66666666666666</ele><time>2026-05-03T09:25:14.512Z</time></trkpt><trkpt lat="43.6910609" lon="12.6542089"><ele>184.33333333333334</ele><time>2026-05-03T09:25:15.518Z</time></trkpt><trkpt lat="43.690949" lon="12.6540085"><ele>184.0</ele><time>2026-05-03T09:25:16.516Z</time></trkpt><trkpt lat="43.6908474" lon="12.6537925"><ele>184.33333333333334</ele><time>2026-05-03T09:25:17.517Z</time></trkpt><trkpt lat="43.6907562" lon="12.6535703"><ele>184.66666666666666</ele><time>2026-05-03T09:25:18.518Z</time></trkpt><trkpt lat="43.6906783" lon="12.6533404"><ele>185.0</ele><time>2026-05-03T09:25:19.517Z</time></trkpt><trkpt lat="43.6906143" lon="12.6531058"><ele>185.0</ele><time>2026-05-03T09:25:20.519Z</time></trkpt><trkpt lat="43.6905575" lon="12.6528732"><ele>185.0</ele><time>2026-05-03T09:25:21.518Z</time></trkpt><trkpt lat="43.6905089" lon="12.6526281"><ele>185.0</ele><time>2026-05-03T09:25:22.516Z</time></trkpt><trkpt lat="43.6904652" lon="12.6523742"><ele>186.0</ele><time>2026-05-03T09:25:23.518Z</time></trkpt><trkpt lat="43.6904281" lon="12.6521285"><ele>187.0</ele><time>2026-05-03T09:25:24.519Z</time></trkpt><trkpt lat="43.6903953" lon="12.651894"><ele>188.0</ele><time>2026-05-03T09:25:25.517Z</time></trkpt><trkpt lat="43.6903626" lon="12.6516645"><ele>188.0</ele><time>2026-05-03T09:25:26.521Z</time></trkpt><trkpt lat="43.6903224" lon="12.6514502"><ele>188.0</ele><time>2026-05-03T09:25:27.519Z</time></trkpt><trkpt lat="43.6902936" lon="12.6512416"><ele>188.0</ele><time>2026-05-03T09:25:28.515Z</time></trkpt><trkpt lat="43.6902042" lon="12.6510103"><ele>187.33333333333331</ele><time>2026-05-03T09:25:29.519Z</time></trkpt><trkpt lat="43.6901423" lon="12.6507959"><ele>186.66666666666666</ele><time>2026-05-03T09:25:30.515Z</time></trkpt><trkpt lat="43.6900121" lon="12.6506002"><ele>186.0</ele><time>2026-05-03T09:25:31.516Z</time></trkpt><trkpt lat="43.6898822" lon="12.6504199"><ele>186.0</ele><time>2026-05-03T09:25:32.52Z</time></trkpt><trkpt lat="43.6896793" lon="12.6503599"><ele>186.0</ele><time>2026-05-03T09:25:33.519Z</time></trkpt><trkpt lat="43.689521" lon="12.6502322"><ele>186.0</ele><time>2026-05-03T09:25:34.517Z</time></trkpt><trkpt lat="43.6893678" lon="12.650103"><ele>185.66666666666666</ele><time>2026-05-03T09:25:35.519Z</time></trkpt><trkpt lat="43.6891828" lon="12.6499736"><ele>185.33333333333331</ele><time>2026-05-03T09:25:36.518Z</time></trkpt><trkpt lat="43.6889803" lon="12.6499544"><ele>185.0</ele><time>2026-05-03T09:25:37.517Z</time></trkpt><trkpt lat="43.6887892" lon="12.6498959"><ele>183.33333333333331</ele><time>2026-05-03T09:25:38.52Z</time></trkpt><trkpt lat="43.688573" lon="12.6498708"><ele>181.66666666666666</ele><time>2026-05-03T09:25:39.519Z</time></trkpt><trkpt lat="43.6883575" lon="12.6498497"><ele>180.0</ele><time>2026-05-03T09:25:40.517Z</time></trkpt><trkpt lat="43.6881611" lon="12.649827"><ele>180.0</ele><time>2026-05-03T09:25:41.52Z</time></trkpt><trkpt lat="43.6879499" lon="12.6497977"><ele>180.0</ele><time>2026-05-03T09:25:42.518Z</time></trkpt><trkpt lat="43.6877383" lon="12.6497666"><ele>180.0</ele><time>2026-05-03T09:25:43.518Z</time></trkpt><trkpt lat="43.687526" lon="12.6497372"><ele>179.33333333333334</ele><time>2026-05-03T09:25:44.519Z</time></trkpt><trkpt lat="43.6873167" lon="12.6497093"><ele>178.66666666666669</ele><time>2026-05-03T09:25:45.516Z</time></trkpt><trkpt lat="43.6871083" lon="12.6496745"><ele>178.0</ele><time>2026-05-03T09:25:46.514Z</time></trkpt><trkpt lat="43.6868991" lon="12.6496481"><ele>177.66666666666669</ele><time>2026-05-03T09:25:47.516Z</time></trkpt><trkpt lat="43.6866866" lon="12.6496283"><ele>177.33333333333334</ele><time>2026-05-03T09:25:48.516Z</time></trkpt><trkpt lat="43.6864736" lon="12.6495996"><ele>177.0</ele><time>2026-05-03T09:25:49.518Z</time></trkpt><trkpt lat="43.6862622" lon="12.6495686"><ele>176.66666666666666</ele><time>2026-05-03T09:25:50.515Z</time></trkpt><trkpt lat="43.6860524" lon="12.6495379"><ele>176.33333333333331</ele><time>2026-05-03T09:25:51.519Z</time></trkpt><trkpt lat="43.68585" lon="12.649498"><ele>176.0</ele><time>2026-05-03T09:25:52.514Z</time></trkpt><trkpt lat="43.685649" lon="12.6494693"><ele>177.66666666666666</ele><time>2026-05-03T09:25:53.516Z</time></trkpt><trkpt lat="43.6854611" lon="12.6494405"><ele>179.33333333333334</ele><time>2026-05-03T09:25:54.518Z</time></trkpt><trkpt lat="43.6852885" lon="12.6494194"><ele>181.0</ele><time>2026-05-03T09:25:55.519Z</time></trkpt><trkpt lat="43.6851207" lon="12.6493989"><ele>182.0</ele><time>2026-05-03T09:25:56.514Z</time></trkpt><trkpt lat="43.6849704" lon="12.6493806"><ele>183.0</ele><time>2026-05-03T09:25:57.518Z</time></trkpt><trkpt lat="43.6848144" lon="12.649364"><ele>184.0</ele><time>2026-05-03T09:25:58.518Z</time></trkpt><trkpt lat="43.6846605" lon="12.6493409"><ele>184.0</ele><time>2026-05-03T09:25:59.517Z</time></trkpt><trkpt lat="43.684505" lon="12.6493129"><ele>184.0</ele><time>2026-05-03T09:26:00.519Z</time></trkpt><trkpt lat="43.6843421" lon="12.6492832"><ele>184.0</ele><time>2026-05-03T09:26:01.519Z</time></trkpt><trkpt lat="43.6841689" lon="12.6492548"><ele>185.0</ele><time>2026-05-03T09:26:02.515Z</time></trkpt><trkpt lat="43.6839875" lon="12.6492287"><ele>186.0</ele><time>2026-05-03T09:26:03.517Z</time></trkpt><trkpt lat="43.6837965" lon="12.6492013"><ele>187.0</ele><time>2026-05-03T09:26:04.517Z</time></trkpt><trkpt lat="43.6836056" lon="12.6491738"><ele>187.33333333333334</ele><time>2026-05-03T09:26:05.516Z</time></trkpt><trkpt lat="43.683414" lon="12.6491488"><ele>187.66666666666666</ele><time>2026-05-03T09:26:06.518Z</time></trkpt><trkpt lat="43.6832166" lon="12.649111"><ele>188.0</ele><time>2026-05-03T09:26:07.515Z</time></trkpt><trkpt lat="43.6830248" lon="12.6490485"><ele>188.0</ele><time>2026-05-03T09:26:08.517Z</time></trkpt><trkpt lat="43.6828411" lon="12.6489651"><ele>188.0</ele><time>2026-05-03T09:26:09.516Z</time></trkpt><trkpt lat="43.6826692" lon="12.648865"><ele>188.0</ele><time>2026-05-03T09:26:10.517Z</time></trkpt><trkpt lat="43.6825068" lon="12.6487503"><ele>189.0</ele><time>2026-05-03T09:26:11.517Z</time></trkpt><trkpt lat="43.6823468" lon="12.6486237"><ele>190.0</ele><time>2026-05-03T09:26:12.517Z</time></trkpt><trkpt lat="43.6821906" lon="12.6484837"><ele>191.0</ele><time>2026-05-03T09:26:13.519Z</time></trkpt><trkpt lat="43.6820491" lon="12.6483569"><ele>190.25</ele><time>2026-05-03T09:26:14.518Z</time></trkpt><trkpt lat="43.6819147" lon="12.6482422"><ele>189.5</ele><time>2026-05-03T09:26:15.518Z</time></trkpt><trkpt lat="43.6817967" lon="12.6481383"><ele>188.75</ele><time>2026-05-03T09:26:16.518Z</time></trkpt><trkpt lat="43.6817004" lon="12.6480567"><ele>188.0</ele><time>2026-05-03T09:26:17.517Z</time></trkpt><trkpt lat="43.681625" lon="12.6479924"><ele>188.0</ele><time>2026-05-03T09:26:18.518Z</time></trkpt><trkpt lat="43.6815663" lon="12.6479312"><ele>188.0</ele><time>2026-05-03T09:26:19.519Z</time></trkpt><trkpt lat="43.6814864" lon="12.6478333"><ele>188.0</ele><time>2026-05-03T09:26:21.516Z</time></trkpt><trkpt lat="43.6814848" lon="12.6477136"><ele>188.0</ele><time>2026-05-03T09:26:23.515Z</time></trkpt><trkpt lat="43.6814736" lon="12.6476271"><ele>188.0</ele><time>2026-05-03T09:26:24.518Z</time></trkpt><trkpt lat="43.6813884" lon="12.6475393"><ele>188.0</ele><time>2026-05-03T09:26:26.516Z</time></trkpt><trkpt lat="43.6813132" lon="12.6475453"><ele>188.8</ele><time>2026-05-03T09:26:27.517Z</time></trkpt><trkpt lat="43.6812279" lon="12.6475507"><ele>189.60000000000002</ele><time>2026-05-03T09:26:28.517Z</time></trkpt><trkpt lat="43.6811255" lon="12.6475509"><ele>190.39999999999998</ele><time>2026-05-03T09:26:29.513Z</time></trkpt><trkpt lat="43.681011" lon="12.6474851"><ele>191.2</ele><time>2026-05-03T09:26:30.518Z</time></trkpt><trkpt lat="43.6808938" lon="12.6474327"><ele>192.0</ele><time>2026-05-03T09:26:31.517Z</time></trkpt><trkpt lat="43.680758" lon="12.6474008"><ele>192.0</ele><time>2026-05-03T09:26:32.515Z</time></trkpt><trkpt lat="43.6806108" lon="12.6473969"><ele>192.0</ele><time>2026-05-03T09:26:33.519Z</time></trkpt><trkpt lat="43.6804688" lon="12.6473789"><ele>192.0</ele><time>2026-05-03T09:26:34.518Z</time></trkpt><trkpt lat="43.680308" lon="12.6474064"><ele>191.66666666666666</ele><time>2026-05-03T09:26:35.516Z</time></trkpt><trkpt lat="43.680154" lon="12.64742"><ele>191.33333333333331</ele><time>2026-05-03T09:26:36.518Z</time></trkpt><trkpt lat="43.6800002" lon="12.6474343"><ele>191.0</ele><time>2026-05-03T09:26:37.518Z</time></trkpt><trkpt lat="43.6798436" lon="12.6474402"><ele>191.0</ele><time>2026-05-03T09:26:38.516Z</time></trkpt><trkpt lat="43.679686" lon="12.6474095"><ele>191.0</ele><time>2026-05-03T09:26:39.513Z</time></trkpt><trkpt lat="43.6795213" lon="12.6473567"><ele>191.0</ele><time>2026-05-03T09:26:40.517Z</time></trkpt><trkpt lat="43.6793607" lon="12.647284"><ele>193.33333333333331</ele><time>2026-05-03T09:26:41.516Z</time></trkpt><trkpt lat="43.6792011" lon="12.6471995"><ele>195.66666666666666</ele><time>2026-05-03T09:26:42.519Z</time></trkpt><trkpt lat="43.6790423" lon="12.6471233"><ele>198.0</ele><time>2026-05-03T09:26:43.518Z</time></trkpt><trkpt lat="43.6788722" lon="12.6470633"><ele>198.0</ele><time>2026-05-03T09:26:44.517Z</time></trkpt><trkpt lat="43.6786997" lon="12.6470293"><ele>198.0</ele><time>2026-05-03T09:26:45.518Z</time></trkpt><trkpt lat="43.6785288" lon="12.6470151"><ele>198.0</ele><time>2026-05-03T09:26:46.519Z</time></trkpt><trkpt lat="43.6783581" lon="12.6470352"><ele>199.33333333333331</ele><time>2026-05-03T09:26:47.514Z</time></trkpt><trkpt lat="43.6781894" lon="12.6470896"><ele>200.66666666666666</ele><time>2026-05-03T09:26:48.519Z</time></trkpt><trkpt lat="43.6780245" lon="12.6471714"><ele>202.0</ele><time>2026-05-03T09:26:49.519Z</time></trkpt><trkpt lat="43.6778692" lon="12.6472649"><ele>199.0</ele><time>2026-05-03T09:26:50.517Z</time></trkpt><trkpt lat="43.6777075" lon="12.6473717"><ele>196.0</ele><time>2026-05-03T09:26:51.518Z</time></trkpt><trkpt lat="43.6775409" lon="12.6474877"><ele>193.0</ele><time>2026-05-03T09:26:52.519Z</time></trkpt><trkpt lat="43.6773709" lon="12.6476049"><ele>193.0</ele><time>2026-05-03T09:26:53.515Z</time></trkpt><trkpt lat="43.6771979" lon="12.6477252"><ele>193.0</ele><time>2026-05-03T09:26:54.518Z</time></trkpt><trkpt lat="43.6770262" lon="12.6478436"><ele>193.0</ele><time>2026-05-03T09:26:55.511Z</time></trkpt><trkpt lat="43.6768628" lon="12.647957"><ele>195.0</ele><time>2026-05-03T09:26:56.518Z</time></trkpt><trkpt lat="43.6767028" lon="12.6480603"><ele>197.0</ele><time>2026-05-03T09:26:57.631Z</time></trkpt><trkpt lat="43.6763718" lon="12.648213"><ele>197.0</ele><time>2026-05-03T09:26:59.517Z</time></trkpt><trkpt lat="43.6762015" lon="12.6482641"><ele>197.0</ele><time>2026-05-03T09:27:00.519Z</time></trkpt><trkpt lat="43.6760224" lon="12.6482887"><ele>197.0</ele><time>2026-05-03T09:27:01.519Z</time></trkpt><trkpt lat="43.675835" lon="12.6482795"><ele>196.75</ele><time>2026-05-03T09:27:02.515Z</time></trkpt><trkpt lat="43.6756939" lon="12.6482382"><ele>196.5</ele><time>2026-05-03T09:27:03.517Z</time></trkpt><trkpt lat="43.6755632" lon="12.6481957"><ele>196.25</ele><time>2026-05-03T09:27:04.516Z</time></trkpt><trkpt lat="43.6754611" lon="12.6481632"><ele>196.0</ele><time>2026-05-03T09:27:05.512Z</time></trkpt><trkpt lat="43.675389" lon="12.6481477"><ele>195.99999999999997</ele><time>2026-05-03T09:27:06.514Z</time></trkpt><trkpt lat="43.6753205" lon="12.6481153"><ele>196.0</ele><time>2026-05-03T09:27:07.514Z</time></trkpt><trkpt lat="43.675238" lon="12.6481054"><ele>196.0</ele><time>2026-05-03T09:27:32.521Z</time></trkpt><trkpt lat="43.6751331" lon="12.6480776"><ele>196.0</ele><time>2026-05-03T09:27:34.517Z</time></trkpt><trkpt lat="43.6750342" lon="12.6480033"><ele>195.99999999999997</ele><time>2026-05-03T09:27:36.513Z</time></trkpt><trkpt lat="43.6749907" lon="12.6479204"><ele>196.0</ele><time>2026-05-03T09:27:37.519Z</time></trkpt><trkpt lat="43.6749497" lon="12.6478282"><ele>196.0</ele><time>2026-05-03T09:27:38.509Z</time></trkpt><trkpt lat="43.6749186" lon="12.6477247"><ele>196.0</ele><time>2026-05-03T09:27:39.517Z</time></trkpt><trkpt lat="43.6749076" lon="12.6476178"><ele>196.0</ele><time>2026-05-03T09:27:40.515Z</time></trkpt><trkpt lat="43.6749117" lon="12.6475096"><ele>196.0</ele><time>2026-05-03T09:27:41.517Z</time></trkpt><trkpt lat="43.6749391" lon="12.6474248"><ele>196.0</ele><time>2026-05-03T09:27:42.516Z</time></trkpt><trkpt lat="43.6749649" lon="12.6473417"><ele>196.0</ele><time>2026-05-03T09:27:43.508Z</time></trkpt><trkpt lat="43.6749946" lon="12.6472464"><ele>196.0</ele><time>2026-05-03T09:27:44.516Z</time></trkpt><trkpt lat="43.6750176" lon="12.6471602"><ele>196.0</ele><time>2026-05-03T09:27:45.506Z</time></trkpt><trkpt lat="43.6750354" lon="12.6470733"><ele>196.0</ele><time>2026-05-03T09:27:46.517Z</time></trkpt><trkpt lat="43.6750492" lon="12.6469876"><ele>196.0</ele><time>2026-05-03T09:27:47.501Z</time></trkpt><trkpt lat="43.6750778" lon="12.6468708"><ele>196.0</ele><time>2026-05-03T09:27:49.511Z</time></trkpt><trkpt lat="43.6751148" lon="12.646797"><ele>196.0</ele><time>2026-05-03T09:27:51.509Z</time></trkpt><trkpt lat="43.6750776" lon="12.646706"><ele>196.0</ele><time>2026-05-03T09:28:09.518Z</time></trkpt><trkpt lat="43.6751015" lon="12.6468215"><ele>196.0</ele><time>2026-05-03T09:28:12.515Z</time></trkpt><trkpt lat="43.675158" lon="12.646779"><ele>197.0</ele><time>2026-05-03T09:42:25.507Z</time></trkpt><trkpt lat="43.675145" lon="12.6468733"><ele>197.0</ele><time>2026-05-03T09:42:29.514Z</time></trkpt></trkseg><trkseg><trkpt lat="43.6741738" lon="12.6478838"><ele>208.0</ele><time>2026-05-03T09:57:55.488Z</time></trkpt><trkpt lat="43.6738808" lon="12.6478273"><ele>208.0</ele><time>2026-05-03T09:57:58.49Z</time></trkpt><trkpt lat="43.6737842" lon="12.6477996"><ele>208.0</ele><time>2026-05-03T09:57:59.495Z</time></trkpt><trkpt lat="43.6736971" lon="12.6477812"><ele>207.33333333333331</ele><time>2026-05-03T09:58:00.495Z</time></trkpt><trkpt lat="43.6736199" lon="12.6477668"><ele>206.66666666666666</ele><time>2026-05-03T09:58:01.494Z</time></trkpt><trkpt lat="43.6735414" lon="12.6477502"><ele>206.0</ele><time>2026-05-03T09:58:02.496Z</time></trkpt><trkpt lat="43.6734676" lon="12.6477398"><ele>205.33333333333331</ele><time>2026-05-03T09:58:03.493Z</time></trkpt><trkpt lat="43.6733962" lon="12.6477231"><ele>204.66666666666666</ele><time>2026-05-03T09:58:04.493Z</time></trkpt><trkpt lat="43.6733332" lon="12.6477058"><ele>204.0</ele><time>2026-05-03T09:58:05.495Z</time></trkpt><trkpt lat="43.673223" lon="12.6476574"><ele>204.0</ele><time>2026-05-03T09:58:07.496Z</time></trkpt><trkpt lat="43.673096" lon="12.647654"><ele>204.0</ele><time>2026-05-03T09:58:09.495Z</time></trkpt><trkpt lat="43.673019" lon="12.6476949"><ele>204.0</ele><time>2026-05-03T09:58:10.498Z</time></trkpt><trkpt lat="43.6729365" lon="12.6477633"><ele>204.0</ele><time>2026-05-03T09:58:11.496Z</time></trkpt><trkpt lat="43.6728538" lon="12.6478572"><ele>204.0</ele><time>2026-05-03T09:58:12.495Z</time></trkpt><trkpt lat="43.6727569" lon="12.6479398"><ele>207.25</ele><time>2026-05-03T09:58:13.498Z</time></trkpt><trkpt lat="43.6726514" lon="12.6480064"><ele>210.5</ele><time>2026-05-03T09:58:14.492Z</time></trkpt><trkpt lat="43.6725384" lon="12.6480638"><ele>213.75</ele><time>2026-05-03T09:58:15.497Z</time></trkpt><trkpt lat="43.6724187" lon="12.6481185"><ele>217.0</ele><time>2026-05-03T09:58:16.494Z</time></trkpt><trkpt lat="43.6722941" lon="12.6481743"><ele>217.0</ele><time>2026-05-03T09:58:17.495Z</time></trkpt><trkpt lat="43.672174" lon="12.6482351"><ele>217.0</ele><time>2026-05-03T09:58:18.495Z</time></trkpt><trkpt lat="43.6720598" lon="12.6483092"><ele>217.0</ele><time>2026-05-03T09:58:19.496Z</time></trkpt><trkpt lat="43.6719526" lon="12.6483835"><ele>217.0</ele><time>2026-05-03T09:58:20.495Z</time></trkpt><trkpt lat="43.6718606" lon="12.6484877"><ele>216.75</ele><time>2026-05-03T09:58:21.495Z</time></trkpt><trkpt lat="43.6717659" lon="12.6485908"><ele>216.5</ele><time>2026-05-03T09:58:22.496Z</time></trkpt><trkpt lat="43.6716726" lon="12.6487251"><ele>216.25</ele><time>2026-05-03T09:58:23.495Z</time></trkpt><trkpt lat="43.6716371" lon="12.6488823"><ele>216.0</ele><time>2026-05-03T09:58:24.5Z</time></trkpt><trkpt lat="43.67157" lon="12.6490134"><ele>217.75</ele><time>2026-05-03T09:58:25.496Z</time></trkpt><trkpt lat="43.6715643" lon="12.6491999"><ele>219.5</ele><time>2026-05-03T09:58:26.494Z</time></trkpt><trkpt lat="43.6715492" lon="12.6493639"><ele>221.25</ele><time>2026-05-03T09:58:27.496Z</time></trkpt><trkpt lat="43.6715218" lon="12.6495086"><ele>223.0</ele><time>2026-05-03T09:58:28.496Z</time></trkpt><trkpt lat="43.671503" lon="12.6496473"><ele>224.5</ele><time>2026-05-03T09:58:29.497Z</time></trkpt><trkpt lat="43.6714836" lon="12.6498151"><ele>226.0</ele><time>2026-05-03T09:58:30.492Z</time></trkpt><trkpt lat="43.6714534" lon="12.6499538"><ele>227.5</ele><time>2026-05-03T09:58:31.496Z</time></trkpt><trkpt lat="43.6713718" lon="12.6500929"><ele>229.0</ele><time>2026-05-03T09:58:32.494Z</time></trkpt><trkpt lat="43.6712783" lon="12.6501853"><ele>229.0</ele><time>2026-05-03T09:58:33.495Z</time></trkpt><trkpt lat="43.671168" lon="12.6502614"><ele>229.0</ele><time>2026-05-03T09:58:34.495Z</time></trkpt><trkpt lat="43.6710472" lon="12.6503054"><ele>229.0</ele><time>2026-05-03T09:58:35.494Z</time></trkpt><trkpt lat="43.6709252" lon="12.650347"><ele>229.0</ele><time>2026-05-03T09:58:36.494Z</time></trkpt><trkpt lat="43.6708149" lon="12.6503322"><ele>229.0</ele><time>2026-05-03T09:58:37.495Z</time></trkpt><trkpt lat="43.6706484" lon="12.6501828"><ele>229.0</ele><time>2026-05-03T09:58:38.496Z</time></trkpt><trkpt lat="43.6705232" lon="12.6500782"><ele>229.0</ele><time>2026-05-03T09:58:39.496Z</time></trkpt><trkpt lat="43.6704266" lon="12.6499071"><ele>229.0</ele><time>2026-05-03T09:58:40.495Z</time></trkpt><trkpt lat="43.670323" lon="12.6497725"><ele>229.0</ele><time>2026-05-03T09:58:41.496Z</time></trkpt><trkpt lat="43.6702151" lon="12.6496177"><ele>229.0</ele><time>2026-05-03T09:58:42.495Z</time></trkpt><trkpt lat="43.6701125" lon="12.6494801"><ele>229.0</ele><time>2026-05-03T09:58:43.495Z</time></trkpt><trkpt lat="43.6700103" lon="12.6493794"><ele>230.75</ele><time>2026-05-03T09:58:44.496Z</time></trkpt><trkpt lat="43.6699067" lon="12.6492873"><ele>232.5</ele><time>2026-05-03T09:58:45.496Z</time></trkpt><trkpt lat="43.6697721" lon="12.6492092"><ele>234.25</ele><time>2026-05-03T09:58:46.496Z</time></trkpt><trkpt lat="43.6695942" lon="12.6491727"><ele>236.0</ele><time>2026-05-03T09:58:47.495Z</time></trkpt><trkpt lat="43.6694346" lon="12.6491441"><ele>237.0</ele><time>2026-05-03T09:58:48.495Z</time></trkpt><trkpt lat="43.6692742" lon="12.6491553"><ele>238.0</ele><time>2026-05-03T09:58:49.495Z</time></trkpt><trkpt lat="43.6691161" lon="12.6491911"><ele>239.0</ele><time>2026-05-03T09:58:50.495Z</time></trkpt><trkpt lat="43.6689638" lon="12.6492364"><ele>239.0</ele><time>2026-05-03T09:58:51.498Z</time></trkpt><trkpt lat="43.6688226" lon="12.6493075"><ele>239.0</ele><time>2026-05-03T09:58:52.495Z</time></trkpt><trkpt lat="43.6686958" lon="12.6494227"><ele>239.0</ele><time>2026-05-03T09:58:53.494Z</time></trkpt><trkpt lat="43.668571" lon="12.6495292"><ele>239.0</ele><time>2026-05-03T09:58:54.495Z</time></trkpt><trkpt lat="43.6684418" lon="12.6496445"><ele>243.33333333333334</ele><time>2026-05-03T09:58:55.496Z</time></trkpt><trkpt lat="43.6684328" lon="12.6499719"><ele>247.66666666666669</ele><time>2026-05-03T09:58:56.492Z</time></trkpt><trkpt lat="43.6683609" lon="12.6501849"><ele>252.0</ele><time>2026-05-03T09:58:57.493Z</time></trkpt><trkpt lat="43.6682993" lon="12.6504659"><ele>256.6666666666667</ele><time>2026-05-03T09:58:58.495Z</time></trkpt><trkpt lat="43.6682253" lon="12.6507279"><ele>261.33333333333337</ele><time>2026-05-03T09:58:59.495Z</time></trkpt><trkpt lat="43.6681517" lon="12.650983"><ele>266.0</ele><time>2026-05-03T09:59:00.495Z</time></trkpt><trkpt lat="43.6680861" lon="12.6512577"><ele>268.0</ele><time>2026-05-03T09:59:01.498Z</time></trkpt><trkpt lat="43.6680178" lon="12.6515218"><ele>270.0</ele><time>2026-05-03T09:59:02.499Z</time></trkpt><trkpt lat="43.6679524" lon="12.6517881"><ele>272.0</ele><time>2026-05-03T09:59:03.496Z</time></trkpt><trkpt lat="43.6678825" lon="12.6520554"><ele>271.6666666666667</ele><time>2026-05-03T09:59:04.498Z</time></trkpt><trkpt lat="43.6678057" lon="12.6523225"><ele>271.3333333333333</ele><time>2026-05-03T09:59:05.494Z</time></trkpt><trkpt lat="43.6677281" lon="12.652583"><ele>271.0</ele><time>2026-05-03T09:59:06.494Z</time></trkpt><trkpt lat="43.6676476" lon="12.652811"><ele>271.0</ele><time>2026-05-03T09:59:07.496Z</time></trkpt><trkpt lat="43.667579" lon="12.6530512"><ele>271.0</ele><time>2026-05-03T09:59:08.495Z</time></trkpt><trkpt lat="43.667518" lon="12.6532756"><ele>271.0</ele><time>2026-05-03T09:59:09.492Z</time></trkpt><trkpt lat="43.6674513" lon="12.6535021"><ele>274.0</ele><time>2026-05-03T09:59:10.493Z</time></trkpt><trkpt lat="43.6673891" lon="12.6536798"><ele>277.0</ele><time>2026-05-03T09:59:11.499Z</time></trkpt><trkpt lat="43.6673194" lon="12.6538795"><ele>280.0</ele><time>2026-05-03T09:59:12.493Z</time></trkpt><trkpt lat="43.6672506" lon="12.6540708"><ele>280.0</ele><time>2026-05-03T09:59:13.493Z</time></trkpt><trkpt lat="43.6671336" lon="12.6542463"><ele>280.0</ele><time>2026-05-03T09:59:14.493Z</time></trkpt><trkpt lat="43.6670257" lon="12.654419"><ele>280.0</ele><time>2026-05-03T09:59:15.494Z</time></trkpt><trkpt lat="43.6669197" lon="12.6545762"><ele>279.0</ele><time>2026-05-03T09:59:16.492Z</time></trkpt><trkpt lat="43.666793" lon="12.6547071"><ele>278.0</ele><time>2026-05-03T09:59:17.493Z</time></trkpt><trkpt lat="43.6666524" lon="12.6548034"><ele>277.0</ele><time>2026-05-03T09:59:18.494Z</time></trkpt><trkpt lat="43.6664959" lon="12.6548594"><ele>277.0</ele><time>2026-05-03T09:59:19.496Z</time></trkpt><trkpt lat="43.6663309" lon="12.6548925"><ele>277.0</ele><time>2026-05-03T09:59:20.494Z</time></trkpt><trkpt lat="43.6661646" lon="12.6549528"><ele>277.0</ele><time>2026-05-03T09:59:21.485Z</time></trkpt><trkpt lat="43.6660117" lon="12.6550439"><ele>278.66666666666663</ele><time>2026-05-03T09:59:22.495Z</time></trkpt><trkpt lat="43.6658602" lon="12.6551695"><ele>280.3333333333333</ele><time>2026-05-03T09:59:23.494Z</time></trkpt><trkpt lat="43.6657197" lon="12.6553279"><ele>282.0</ele><time>2026-05-03T09:59:24.494Z</time></trkpt><trkpt lat="43.6655769" lon="12.6555078"><ele>282.0</ele><time>2026-05-03T09:59:25.496Z</time></trkpt><trkpt lat="43.665457" lon="12.6557143"><ele>282.0</ele><time>2026-05-03T09:59:26.495Z</time></trkpt><trkpt lat="43.6653567" lon="12.6559282"><ele>282.0</ele><time>2026-05-03T09:59:27.494Z</time></trkpt><trkpt lat="43.6652671" lon="12.6561544"><ele>280.0</ele><time>2026-05-03T09:59:28.496Z</time></trkpt><trkpt lat="43.6651858" lon="12.656361"><ele>278.0</ele><time>2026-05-03T09:59:29.494Z</time></trkpt><trkpt lat="43.6650954" lon="12.6565445"><ele>276.0</ele><time>2026-05-03T09:59:30.496Z</time></trkpt><trkpt lat="43.6649941" lon="12.6567044"><ele>276.0</ele><time>2026-05-03T09:59:31.494Z</time></trkpt><trkpt lat="43.6648816" lon="12.6568512"><ele>276.0</ele><time>2026-05-03T09:59:32.494Z</time></trkpt><trkpt lat="43.6647521" lon="12.656973"><ele>276.0</ele><time>2026-05-03T09:59:33.494Z</time></trkpt><trkpt lat="43.6646124" lon="12.6570759"><ele>276.6666666666667</ele><time>2026-05-03T09:59:34.499Z</time></trkpt><trkpt lat="43.6644646" lon="12.6571528"><ele>277.33333333333337</ele><time>2026-05-03T09:59:35.499Z</time></trkpt><trkpt lat="43.6643128" lon="12.6572237"><ele>278.0</ele><time>2026-05-03T09:59:36.497Z</time></trkpt><trkpt lat="43.6641595" lon="12.6572895"><ele>278.0</ele><time>2026-05-03T09:59:37.496Z</time></trkpt><trkpt lat="43.6640004" lon="12.6573541"><ele>278.0</ele><time>2026-05-03T09:59:38.495Z</time></trkpt><trkpt lat="43.6638418" lon="12.657427"><ele>278.0</ele><time>2026-05-03T09:59:39.494Z</time></trkpt><trkpt lat="43.6636799" lon="12.6575093"><ele>278.33333333333337</ele><time>2026-05-03T09:59:40.493Z</time></trkpt><trkpt lat="43.6635151" lon="12.6576073"><ele>278.6666666666667</ele><time>2026-05-03T09:59:41.494Z</time></trkpt><trkpt lat="43.6633575" lon="12.6577278"><ele>279.0</ele><time>2026-05-03T09:59:42.494Z</time></trkpt><trkpt lat="43.6632162" lon="12.657876"><ele>279.0</ele><time>2026-05-03T09:59:43.495Z</time></trkpt><trkpt lat="43.6630969" lon="12.6580508"><ele>279.0</ele><time>2026-05-03T09:59:44.495Z</time></trkpt><trkpt lat="43.662993" lon="12.6582445"><ele>279.0</ele><time>2026-05-03T09:59:45.494Z</time></trkpt><trkpt lat="43.6628921" lon="12.6584524"><ele>277.6666666666667</ele><time>2026-05-03T09:59:46.495Z</time></trkpt><trkpt lat="43.6627889" lon="12.6586614"><ele>276.33333333333337</ele><time>2026-05-03T09:59:47.494Z</time></trkpt><trkpt lat="43.6626864" lon="12.6588593"><ele>275.0</ele><time>2026-05-03T09:59:48.494Z</time></trkpt><trkpt lat="43.662576" lon="12.6590424"><ele>275.0</ele><time>2026-05-03T09:59:49.493Z</time></trkpt><trkpt lat="43.6624621" lon="12.6592197"><ele>275.0</ele><time>2026-05-03T09:59:50.493Z</time></trkpt><trkpt lat="43.6623438" lon="12.6593867"><ele>275.0</ele><time>2026-05-03T09:59:51.492Z</time></trkpt><trkpt lat="43.6622215" lon="12.6595551"><ele>272.6666666666667</ele><time>2026-05-03T09:59:52.49Z</time></trkpt><trkpt lat="43.6620963" lon="12.6597261"><ele>270.3333333333333</ele><time>2026-05-03T09:59:53.489Z</time></trkpt><trkpt lat="43.661976" lon="12.6598941"><ele>268.0</ele><time>2026-05-03T09:59:54.493Z</time></trkpt><trkpt lat="43.6618719" lon="12.6600691"><ele>268.0</ele><time>2026-05-03T09:59:55.494Z</time></trkpt><trkpt lat="43.6617874" lon="12.6602553"><ele>268.0</ele><time>2026-05-03T09:59:56.495Z</time></trkpt><trkpt lat="43.6617195" lon="12.66046"><ele>268.0</ele><time>2026-05-03T09:59:57.494Z</time></trkpt><trkpt lat="43.6616619" lon="12.6606676"><ele>273.0</ele><time>2026-05-03T09:59:58.494Z</time></trkpt><trkpt lat="43.6616054" lon="12.6608758"><ele>278.0</ele><time>2026-05-03T09:59:59.494Z</time></trkpt><trkpt lat="43.6615418" lon="12.6610793"><ele>283.0</ele><time>2026-05-03T10:00:00.498Z</time></trkpt><trkpt lat="43.6614701" lon="12.6612803"><ele>286.3333333333333</ele><time>2026-05-03T10:00:01.494Z</time></trkpt><trkpt lat="43.6613976" lon="12.6614661"><ele>289.6666666666667</ele><time>2026-05-03T10:00:02.495Z</time></trkpt><trkpt lat="43.6613193" lon="12.6616487"><ele>293.0</ele><time>2026-05-03T10:00:03.495Z</time></trkpt><trkpt lat="43.6612544" lon="12.6618436"><ele>294.0</ele><time>2026-05-03T10:00:04.492Z</time></trkpt><trkpt lat="43.6612127" lon="12.6620427"><ele>295.0</ele><time>2026-05-03T10:00:05.493Z</time></trkpt><trkpt lat="43.6611959" lon="12.6622382"><ele>296.0</ele><time>2026-05-03T10:00:06.488Z</time></trkpt><trkpt lat="43.6611945" lon="12.6624171"><ele>297.0</ele><time>2026-05-03T10:00:07.49Z</time></trkpt><trkpt lat="43.6611783" lon="12.662584"><ele>297.0</ele><time>2026-05-03T10:00:08.498Z</time></trkpt><trkpt lat="43.6611256" lon="12.662755"><ele>297.0</ele><time>2026-05-03T10:00:09.491Z</time></trkpt><trkpt lat="43.6610483" lon="12.6629207"><ele>297.0</ele><time>2026-05-03T10:00:10.493Z</time></trkpt><trkpt lat="43.6609435" lon="12.6630533"><ele>297.0</ele><time>2026-05-03T10:00:11.494Z</time></trkpt><trkpt lat="43.6608523" lon="12.6631817"><ele>293.75</ele><time>2026-05-03T10:00:12.488Z</time></trkpt><trkpt lat="43.6607538" lon="12.663308"><ele>290.5</ele><time>2026-05-03T10:00:13.495Z</time></trkpt><trkpt lat="43.6606514" lon="12.6634362"><ele>287.25</ele><time>2026-05-03T10:00:14.495Z</time></trkpt><trkpt lat="43.6605412" lon="12.6635694"><ele>284.0</ele><time>2026-05-03T10:00:15.494Z</time></trkpt><trkpt lat="43.6604333" lon="12.6637104"><ele>284.0</ele><time>2026-05-03T10:00:16.496Z</time></trkpt><trkpt lat="43.6603303" lon="12.6638349"><ele>284.0</ele><time>2026-05-03T10:00:17.495Z</time></trkpt><trkpt lat="43.6602521" lon="12.663962"><ele>284.0</ele><time>2026-05-03T10:00:18.496Z</time></trkpt><trkpt lat="43.6601944" lon="12.6641137"><ele>284.0</ele><time>2026-05-03T10:00:19.496Z</time></trkpt><trkpt lat="43.6601819" lon="12.6642692"><ele>284.59999999999997</ele><time>2026-05-03T10:00:20.493Z</time></trkpt><trkpt lat="43.6602113" lon="12.6644051"><ele>285.2</ele><time>2026-05-03T10:00:21.494Z</time></trkpt><trkpt lat="43.660284" lon="12.6645113"><ele>285.79999999999995</ele><time>2026-05-03T10:00:22.495Z</time></trkpt><trkpt lat="43.6603838" lon="12.6645811"><ele>286.4</ele><time>2026-05-03T10:00:23.489Z</time></trkpt><trkpt lat="43.6605042" lon="12.6645824"><ele>287.0</ele><time>2026-05-03T10:00:24.495Z</time></trkpt><trkpt lat="43.6606249" lon="12.6645248"><ele>286.4</ele><time>2026-05-03T10:00:25.495Z</time></trkpt><trkpt lat="43.6607421" lon="12.664455"><ele>285.79999999999995</ele><time>2026-05-03T10:00:26.495Z</time></trkpt><trkpt lat="43.6608563" lon="12.6644304"><ele>285.2</ele><time>2026-05-03T10:00:27.494Z</time></trkpt><trkpt lat="43.6609639" lon="12.6644448"><ele>284.59999999999997</ele><time>2026-05-03T10:00:28.494Z</time></trkpt><trkpt lat="43.6610425" lon="12.6645188"><ele>284.0</ele><time>2026-05-03T10:00:29.495Z</time></trkpt><trkpt lat="43.6610891" lon="12.6646293"><ele>287.0</ele><time>2026-05-03T10:00:30.494Z</time></trkpt><trkpt lat="43.6610923" lon="12.6647618"><ele>290.0</ele><time>2026-05-03T10:00:31.495Z</time></trkpt><trkpt lat="43.661067" lon="12.6649089"><ele>293.0</ele><time>2026-05-03T10:00:32.495Z</time></trkpt><trkpt lat="43.6610171" lon="12.6650636"><ele>296.0</ele><time>2026-05-03T10:00:33.494Z</time></trkpt><trkpt lat="43.6609454" lon="12.6652306"><ele>300.0</ele><time>2026-05-03T10:00:34.493Z</time></trkpt><trkpt lat="43.6608546" lon="12.6653808"><ele>304.0</ele><time>2026-05-03T10:00:35.495Z</time></trkpt><trkpt lat="43.6607662" lon="12.665507"><ele>308.0</ele><time>2026-05-03T10:00:36.494Z</time></trkpt><trkpt lat="43.6606852" lon="12.6656166"><ele>312.0</ele><time>2026-05-03T10:00:37.496Z</time></trkpt><trkpt lat="43.6605991" lon="12.6657049"><ele>312.0</ele><time>2026-05-03T10:00:38.495Z</time></trkpt><trkpt lat="43.6604976" lon="12.665753"><ele>312.0</ele><time>2026-05-03T10:00:39.49Z</time></trkpt><trkpt lat="43.660384" lon="12.665752"><ele>312.0</ele><time>2026-05-03T10:00:40.495Z</time></trkpt><trkpt lat="43.6602648" lon="12.6657153"><ele>312.0</ele><time>2026-05-03T10:00:41.494Z</time></trkpt><trkpt lat="43.6601385" lon="12.6656473"><ele>313.25</ele><time>2026-05-03T10:00:42.494Z</time></trkpt><trkpt lat="43.6600095" lon="12.6655582"><ele>314.5</ele><time>2026-05-03T10:00:43.494Z</time></trkpt><trkpt lat="43.6598804" lon="12.6654628"><ele>315.75</ele><time>2026-05-03T10:00:44.491Z</time></trkpt><trkpt lat="43.6597567" lon="12.6653871"><ele>317.0</ele><time>2026-05-03T10:00:45.493Z</time></trkpt><trkpt lat="43.6596265" lon="12.6653327"><ele>317.0</ele><time>2026-05-03T10:00:46.494Z</time></trkpt><trkpt lat="43.6594953" lon="12.6653228"><ele>317.0</ele><time>2026-05-03T10:00:47.491Z</time></trkpt><trkpt lat="43.6593581" lon="12.6653539"><ele>317.0</ele><time>2026-05-03T10:00:48.493Z</time></trkpt><trkpt lat="43.6592213" lon="12.6654295"><ele>317.0</ele><time>2026-05-03T10:00:49.493Z</time></trkpt><trkpt lat="43.6590925" lon="12.6655361"><ele>318.6666666666667</ele><time>2026-05-03T10:00:50.493Z</time></trkpt><trkpt lat="43.6589737" lon="12.6656642"><ele>320.3333333333333</ele><time>2026-05-03T10:00:51.493Z</time></trkpt><trkpt lat="43.6588645" lon="12.6658155"><ele>322.0</ele><time>2026-05-03T10:00:52.494Z</time></trkpt><trkpt lat="43.6587646" lon="12.665993"><ele>323.3333333333333</ele><time>2026-05-03T10:00:53.493Z</time></trkpt><trkpt lat="43.6586662" lon="12.666181"><ele>324.6666666666667</ele><time>2026-05-03T10:00:54.495Z</time></trkpt><trkpt lat="43.6585707" lon="12.6663524"><ele>326.0</ele><time>2026-05-03T10:00:55.488Z</time></trkpt><trkpt lat="43.658478" lon="12.666526"><ele>326.0</ele><time>2026-05-03T10:00:56.49Z</time></trkpt><trkpt lat="43.6583903" lon="12.6666967"><ele>326.0</ele><time>2026-05-03T10:00:57.489Z</time></trkpt><trkpt lat="43.6582861" lon="12.6668532"><ele>326.0</ele><time>2026-05-03T10:00:58.495Z</time></trkpt><trkpt lat="43.6581629" lon="12.666997"><ele>330.6666666666667</ele><time>2026-05-03T10:00:59.494Z</time></trkpt><trkpt lat="43.6580163" lon="12.667126"><ele>335.3333333333333</ele><time>2026-05-03T10:01:00.492Z</time></trkpt><trkpt lat="43.6578602" lon="12.6672616"><ele>340.0</ele><time>2026-05-03T10:01:01.493Z</time></trkpt><trkpt lat="43.6576953" lon="12.6674005"><ele>340.0</ele><time>2026-05-03T10:01:02.492Z</time></trkpt><trkpt lat="43.6575259" lon="12.667541"><ele>340.0</ele><time>2026-05-03T10:01:03.493Z</time></trkpt><trkpt lat="43.6573511" lon="12.6676633"><ele>340.0</ele><time>2026-05-03T10:01:04.493Z</time></trkpt><trkpt lat="43.6571725" lon="12.6677792"><ele>343.66666666666663</ele><time>2026-05-03T10:01:05.495Z</time></trkpt><trkpt lat="43.6569959" lon="12.6678952"><ele>347.3333333333333</ele><time>2026-05-03T10:01:06.493Z</time></trkpt><trkpt lat="43.6568335" lon="12.6679979"><ele>351.0</ele><time>2026-05-03T10:01:07.492Z</time></trkpt><trkpt lat="43.656678" lon="12.6680891"><ele>351.0</ele><time>2026-05-03T10:01:08.494Z</time></trkpt><trkpt lat="43.6565226" lon="12.6681795"><ele>351.0</ele><time>2026-05-03T10:01:09.492Z</time></trkpt><trkpt lat="43.6563801" lon="12.6682601"><ele>351.0</ele><time>2026-05-03T10:01:10.491Z</time></trkpt><trkpt lat="43.6562408" lon="12.6683496"><ele>349.5</ele><time>2026-05-03T10:01:11.49Z</time></trkpt><trkpt lat="43.6561107" lon="12.6684384"><ele>348.0</ele><time>2026-05-03T10:01:12.496Z</time></trkpt><trkpt lat="43.6559786" lon="12.6685316"><ele>346.5</ele><time>2026-05-03T10:01:13.63Z</time></trkpt><trkpt lat="43.6558497" lon="12.6686316"><ele>345.0</ele><time>2026-05-03T10:01:14.494Z</time></trkpt><trkpt lat="43.6557209" lon="12.6687296"><ele>348.25</ele><time>2026-05-03T10:01:15.495Z</time></trkpt><trkpt lat="43.6555926" lon="12.6688327"><ele>351.5</ele><time>2026-05-03T10:01:16.494Z</time></trkpt><trkpt lat="43.655475" lon="12.6689518"><ele>354.75</ele><time>2026-05-03T10:01:17.496Z</time></trkpt><trkpt lat="43.65536" lon="12.6690851"><ele>358.0</ele><time>2026-05-03T10:01:18.497Z</time></trkpt><trkpt lat="43.6552674" lon="12.66923"><ele>359.0</ele><time>2026-05-03T10:01:19.495Z</time></trkpt><trkpt lat="43.6551932" lon="12.6693866"><ele>360.0</ele><time>2026-05-03T10:01:20.493Z</time></trkpt><trkpt lat="43.6551343" lon="12.6695601"><ele>361.0</ele><time>2026-05-03T10:01:21.493Z</time></trkpt><trkpt lat="43.6550904" lon="12.6697346"><ele>362.0</ele><time>2026-05-03T10:01:22.492Z</time></trkpt><trkpt lat="43.655057" lon="12.6698967"><ele>363.6</ele><time>2026-05-03T10:01:23.494Z</time></trkpt><trkpt lat="43.6550287" lon="12.6700477"><ele>365.20000000000005</ele><time>2026-05-03T10:01:24.495Z</time></trkpt><trkpt lat="43.6550018" lon="12.6701863"><ele>366.8</ele><time>2026-05-03T10:01:25.494Z</time></trkpt><trkpt lat="43.6549758" lon="12.6703221"><ele>368.4</ele><time>2026-05-03T10:01:26.495Z</time></trkpt><trkpt lat="43.6549447" lon="12.6704571"><ele>370.0</ele><time>2026-05-03T10:01:27.494Z</time></trkpt><trkpt lat="43.6549082" lon="12.6705909"><ele>372.0</ele><time>2026-05-03T10:01:28.493Z</time></trkpt><trkpt lat="43.6548543" lon="12.6707178"><ele>374.0</ele><time>2026-05-03T10:01:29.495Z</time></trkpt><trkpt lat="43.6547821" lon="12.6708339"><ele>376.0</ele><time>2026-05-03T10:01:30.492Z</time></trkpt><trkpt lat="43.6546979" lon="12.6709305"><ele>378.0</ele><time>2026-05-03T10:01:31.497Z</time></trkpt><trkpt lat="43.6546046" lon="12.6710053"><ele>380.0</ele><time>2026-05-03T10:01:32.495Z</time></trkpt><trkpt lat="43.6545032" lon="12.6710551"><ele>378.25</ele><time>2026-05-03T10:01:33.492Z</time></trkpt><trkpt lat="43.6543942" lon="12.6710812"><ele>376.5</ele><time>2026-05-03T10:01:34.495Z</time></trkpt><trkpt lat="43.6542801" lon="12.6710804"><ele>374.75</ele><time>2026-05-03T10:01:35.494Z</time></trkpt><trkpt lat="43.6541665" lon="12.6710449"><ele>373.0</ele><time>2026-05-03T10:01:36.494Z</time></trkpt><trkpt lat="43.6540598" lon="12.6709865"><ele>373.0</ele><time>2026-05-03T10:01:37.493Z</time></trkpt><trkpt lat="43.6539482" lon="12.6709144"><ele>373.0</ele><time>2026-05-03T10:01:38.492Z</time></trkpt><trkpt lat="43.6538311" lon="12.6708404"><ele>373.0</ele><time>2026-05-03T10:01:39.495Z</time></trkpt><trkpt lat="43.6537066" lon="12.670771"><ele>373.0</ele><time>2026-05-03T10:01:40.493Z</time></trkpt><trkpt lat="43.653536" lon="12.6707293"><ele>375.66666666666663</ele><time>2026-05-03T10:01:41.493Z</time></trkpt><trkpt lat="43.653339" lon="12.6707036"><ele>378.3333333333333</ele><time>2026-05-03T10:01:42.493Z</time></trkpt><trkpt lat="43.653144" lon="12.670676"><ele>381.0</ele><time>2026-05-03T10:01:43.494Z</time></trkpt><trkpt lat="43.6529678" lon="12.6706458"><ele>381.0</ele><time>2026-05-03T10:01:44.489Z</time></trkpt><trkpt lat="43.6527949" lon="12.670608"><ele>381.0</ele><time>2026-05-03T10:01:45.491Z</time></trkpt><trkpt lat="43.6526389" lon="12.6705563"><ele>381.0</ele><time>2026-05-03T10:01:46.494Z</time></trkpt><trkpt lat="43.6524867" lon="12.6704891"><ele>382.33333333333337</ele><time>2026-05-03T10:01:47.492Z</time></trkpt><trkpt lat="43.6523286" lon="12.6704097"><ele>383.6666666666667</ele><time>2026-05-03T10:01:48.493Z</time></trkpt><trkpt lat="43.6521551" lon="12.6703164"><ele>385.0</ele><time>2026-05-03T10:01:49.493Z</time></trkpt><trkpt lat="43.651984" lon="12.6702106"><ele>381.0</ele><time>2026-05-03T10:01:50.492Z</time></trkpt><trkpt lat="43.6518206" lon="12.6700917"><ele>377.0</ele><time>2026-05-03T10:01:51.494Z</time></trkpt><trkpt lat="43.651656" lon="12.6699538"><ele>373.0</ele><time>2026-05-03T10:01:52.493Z</time></trkpt><trkpt lat="43.6514892" lon="12.6698101"><ele>373.0</ele><time>2026-05-03T10:01:53.493Z</time></trkpt><trkpt lat="43.6513257" lon="12.6696746"><ele>373.0</ele><time>2026-05-03T10:01:54.494Z</time></trkpt><trkpt lat="43.6511643" lon="12.6695492"><ele>373.0</ele><time>2026-05-03T10:01:55.494Z</time></trkpt><trkpt lat="43.650993" lon="12.6694357"><ele>373.66666666666663</ele><time>2026-05-03T10:01:56.494Z</time></trkpt><trkpt lat="43.6508113" lon="12.6693368"><ele>374.3333333333333</ele><time>2026-05-03T10:01:57.494Z</time></trkpt><trkpt lat="43.6506266" lon="12.6692398"><ele>375.0</ele><time>2026-05-03T10:01:58.494Z</time></trkpt><trkpt lat="43.6504261" lon="12.6691646"><ele>375.6666666666667</ele><time>2026-05-03T10:01:59.491Z</time></trkpt><trkpt lat="43.6502365" lon="12.6690865"><ele>376.33333333333337</ele><time>2026-05-03T10:02:00.494Z</time></trkpt><trkpt lat="43.6500505" lon="12.6690151"><ele>377.0</ele><time>2026-05-03T10:02:01.491Z</time></trkpt><trkpt lat="43.6498771" lon="12.6689494"><ele>377.0</ele><time>2026-05-03T10:02:02.494Z</time></trkpt><trkpt lat="43.6497114" lon="12.6688869"><ele>377.0</ele><time>2026-05-03T10:02:03.493Z</time></trkpt><trkpt lat="43.6495416" lon="12.6688242"><ele>377.0</ele><time>2026-05-03T10:02:04.489Z</time></trkpt><trkpt lat="43.6493723" lon="12.6687538"><ele>376.0</ele><time>2026-05-03T10:02:05.492Z</time></trkpt><trkpt lat="43.6491997" lon="12.6686817"><ele>375.0</ele><time>2026-05-03T10:02:06.494Z</time></trkpt><trkpt lat="43.6490296" lon="12.6685941"><ele>374.0</ele><time>2026-05-03T10:02:07.494Z</time></trkpt><trkpt lat="43.6488691" lon="12.6685062"><ele>374.0</ele><time>2026-05-03T10:02:08.496Z</time></trkpt><trkpt lat="43.6487191" lon="12.6684277"><ele>374.0</ele><time>2026-05-03T10:02:09.492Z</time></trkpt><trkpt lat="43.6485679" lon="12.6683434"><ele>374.0</ele><time>2026-05-03T10:02:10.494Z</time></trkpt><trkpt lat="43.6484183" lon="12.6682567"><ele>375.33333333333337</ele><time>2026-05-03T10:02:11.491Z</time></trkpt><trkpt lat="43.6482611" lon="12.668179"><ele>376.6666666666667</ele><time>2026-05-03T10:02:12.495Z</time></trkpt><trkpt lat="43.6481086" lon="12.6681196"><ele>378.0</ele><time>2026-05-03T10:02:13.495Z</time></trkpt><trkpt lat="43.6479594" lon="12.6680893"><ele>378.0</ele><time>2026-05-03T10:02:14.495Z</time></trkpt><trkpt lat="43.6478036" lon="12.66811"><ele>378.0</ele><time>2026-05-03T10:02:15.493Z</time></trkpt><trkpt lat="43.6476452" lon="12.6681686"><ele>378.0</ele><time>2026-05-03T10:02:16.492Z</time></trkpt><trkpt lat="43.6474844" lon="12.6682643"><ele>380.0</ele><time>2026-05-03T10:02:17.491Z</time></trkpt><trkpt lat="43.6473259" lon="12.6683774"><ele>382.0</ele><time>2026-05-03T10:02:18.495Z</time></trkpt><trkpt lat="43.647173" lon="12.6684825"><ele>384.0</ele><time>2026-05-03T10:02:19.494Z</time></trkpt><trkpt lat="43.6470144" lon="12.6685788"><ele>384.0</ele><time>2026-05-03T10:02:20.49Z</time></trkpt><trkpt lat="43.6468673" lon="12.6686649"><ele>384.0</ele><time>2026-05-03T10:02:21.494Z</time></trkpt><trkpt lat="43.6467393" lon="12.6687508"><ele>384.0</ele><time>2026-05-03T10:02:22.495Z</time></trkpt><trkpt lat="43.646635" lon="12.6688494"><ele>384.0</ele><time>2026-05-03T10:02:23.493Z</time></trkpt><trkpt lat="43.6465602" lon="12.6689793"><ele>384.0</ele><time>2026-05-03T10:02:24.496Z</time></trkpt><trkpt lat="43.6465222" lon="12.6691449"><ele>384.0</ele><time>2026-05-03T10:02:25.494Z</time></trkpt><trkpt lat="43.6465259" lon="12.6693319"><ele>384.0</ele><time>2026-05-03T10:02:26.493Z</time></trkpt><trkpt lat="43.6465573" lon="12.669516"><ele>384.0</ele><time>2026-05-03T10:02:27.494Z</time></trkpt><trkpt lat="43.6465822" lon="12.6697054"><ele>382.0</ele><time>2026-05-03T10:02:28.495Z</time></trkpt><trkpt lat="43.646583" lon="12.6698919"><ele>380.0</ele><time>2026-05-03T10:02:29.494Z</time></trkpt><trkpt lat="43.6465546" lon="12.6700722"><ele>378.0</ele><time>2026-05-03T10:02:30.494Z</time></trkpt><trkpt lat="43.6465192" lon="12.6702421"><ele>376.0</ele><time>2026-05-03T10:02:31.492Z</time></trkpt><trkpt lat="43.6465053" lon="12.670426"><ele>375.5</ele><time>2026-05-03T10:02:32.492Z</time></trkpt><trkpt lat="43.6465263" lon="12.6706155"><ele>375.0</ele><time>2026-05-03T10:02:33.493Z</time></trkpt><trkpt lat="43.6465624" lon="12.6707957"><ele>374.5</ele><time>2026-05-03T10:02:34.493Z</time></trkpt><trkpt lat="43.6466043" lon="12.6709682"><ele>374.0</ele><time>2026-05-03T10:02:35.495Z</time></trkpt><trkpt lat="43.6466486" lon="12.6711334"><ele>372.75</ele><time>2026-05-03T10:02:36.493Z</time></trkpt><trkpt lat="43.6466896" lon="12.6712965"><ele>371.5</ele><time>2026-05-03T10:02:37.494Z</time></trkpt><trkpt lat="43.6467233" lon="12.6714602"><ele>370.25</ele><time>2026-05-03T10:02:38.494Z</time></trkpt><trkpt lat="43.6467311" lon="12.6716233"><ele>369.0</ele><time>2026-05-03T10:02:39.494Z</time></trkpt><trkpt lat="43.6466968" lon="12.6717732"><ele>369.0</ele><time>2026-05-03T10:02:40.496Z</time></trkpt><trkpt lat="43.6466292" lon="12.671896"><ele>369.0</ele><time>2026-05-03T10:02:41.494Z</time></trkpt><trkpt lat="43.6465315" lon="12.6719693"><ele>369.0</ele><time>2026-05-03T10:02:42.494Z</time></trkpt><trkpt lat="43.6464111" lon="12.671987"><ele>369.0</ele><time>2026-05-03T10:02:43.494Z</time></trkpt><trkpt lat="43.6462639" lon="12.6719815"><ele>363.6666666666667</ele><time>2026-05-03T10:02:44.494Z</time></trkpt><trkpt lat="43.6460968" lon="12.6719993"><ele>358.33333333333337</ele><time>2026-05-03T10:02:45.488Z</time></trkpt><trkpt lat="43.6459241" lon="12.6720372"><ele>353.0</ele><time>2026-05-03T10:02:46.495Z</time></trkpt><trkpt lat="43.6457625" lon="12.6720672"><ele>353.0</ele><time>2026-05-03T10:02:47.494Z</time></trkpt><trkpt lat="43.6456214" lon="12.6720918"><ele>353.0</ele><time>2026-05-03T10:02:48.495Z</time></trkpt><trkpt lat="43.6454914" lon="12.6720967"><ele>353.0</ele><time>2026-05-03T10:02:49.49Z</time></trkpt><trkpt lat="43.6453681" lon="12.6720689"><ele>353.0</ele><time>2026-05-03T10:02:50.495Z</time></trkpt><trkpt lat="43.6452483" lon="12.6719886"><ele>355.0</ele><time>2026-05-03T10:02:51.494Z</time></trkpt><trkpt lat="43.645142" lon="12.6718806"><ele>357.0</ele><time>2026-05-03T10:02:52.496Z</time></trkpt><trkpt lat="43.6450386" lon="12.6717749"><ele>359.0</ele><time>2026-05-03T10:02:53.493Z</time></trkpt><trkpt lat="43.6449448" lon="12.6716753"><ele>361.0</ele><time>2026-05-03T10:02:54.492Z</time></trkpt><trkpt lat="43.6448587" lon="12.6715872"><ele>361.0</ele><time>2026-05-03T10:02:55.493Z</time></trkpt><trkpt lat="43.644775" lon="12.6715115"><ele>361.0</ele><time>2026-05-03T10:02:56.496Z</time></trkpt><trkpt lat="43.644684" lon="12.6714732"><ele>361.0</ele><time>2026-05-03T10:02:57.558Z</time></trkpt><trkpt lat="43.6445995" lon="12.671494"><ele>361.0</ele><time>2026-05-03T10:02:58.493Z</time></trkpt><trkpt lat="43.6445298" lon="12.671556"><ele>361.0</ele><time>2026-05-03T10:02:59.494Z</time></trkpt><trkpt lat="43.6444923" lon="12.6716582"><ele>361.0</ele><time>2026-05-03T10:03:00.495Z</time></trkpt><trkpt lat="43.6444945" lon="12.6717702"><ele>361.0</ele><time>2026-05-03T10:03:01.494Z</time></trkpt><trkpt lat="43.644539" lon="12.6718761"><ele>361.0</ele><time>2026-05-03T10:03:02.489Z</time></trkpt><trkpt lat="43.644607" lon="12.6719797"><ele>361.0</ele><time>2026-05-03T10:03:03.493Z</time></trkpt><trkpt lat="43.6446819" lon="12.6720921"><ele>361.0</ele><time>2026-05-03T10:03:04.491Z</time></trkpt><trkpt lat="43.6447795" lon="12.6722114"><ele>361.0</ele><time>2026-05-03T10:03:05.489Z</time></trkpt><trkpt lat="43.6448632" lon="12.6723181"><ele>358.4</ele><time>2026-05-03T10:03:06.494Z</time></trkpt><trkpt lat="43.6449454" lon="12.6724182"><ele>355.8</ele><time>2026-05-03T10:03:07.495Z</time></trkpt><trkpt lat="43.6450215" lon="12.6725079"><ele>353.2</ele><time>2026-05-03T10:03:08.495Z</time></trkpt><trkpt lat="43.6450779" lon="12.6726124"><ele>350.59999999999997</ele><time>2026-05-03T10:03:09.494Z</time></trkpt><trkpt lat="43.6450922" lon="12.6727404"><ele>348.0</ele><time>2026-05-03T10:03:10.493Z</time></trkpt><trkpt lat="43.6450564" lon="12.6728538"><ele>348.0</ele><time>2026-05-03T10:03:11.495Z</time></trkpt><trkpt lat="43.6449836" lon="12.6729201"><ele>348.0</ele><time>2026-05-03T10:03:12.495Z</time></trkpt><trkpt lat="43.6448928" lon="12.672921"><ele>348.0</ele><time>2026-05-03T10:03:13.494Z</time></trkpt><trkpt lat="43.6447978" lon="12.6728455"><ele>348.0</ele><time>2026-05-03T10:03:14.494Z</time></trkpt><trkpt lat="43.6446869" lon="12.6727033"><ele>348.0</ele><time>2026-05-03T10:03:15.493Z</time></trkpt><trkpt lat="43.6445362" lon="12.6724862"><ele>341.0</ele><time>2026-05-03T10:03:16.493Z</time></trkpt><trkpt lat="43.644383" lon="12.6722405"><ele>334.0</ele><time>2026-05-03T10:03:17.491Z</time></trkpt><trkpt lat="43.6442424" lon="12.6720079"><ele>337.66666666666663</ele><time>2026-05-03T10:03:18.491Z</time></trkpt><trkpt lat="43.6441139" lon="12.671807"><ele>341.3333333333333</ele><time>2026-05-03T10:03:19.522Z</time></trkpt><trkpt lat="43.6439858" lon="12.6716434"><ele>345.0</ele><time>2026-05-03T10:03:20.492Z</time></trkpt><trkpt lat="43.6438401" lon="12.6715295"><ele>345.0</ele><time>2026-05-03T10:03:21.492Z</time></trkpt><trkpt lat="43.6436796" lon="12.6714686"><ele>345.0</ele><time>2026-05-03T10:03:22.488Z</time></trkpt><trkpt lat="43.6435181" lon="12.6714249"><ele>345.0</ele><time>2026-05-03T10:03:23.495Z</time></trkpt><trkpt lat="43.6432846" lon="12.6715183"><ele>342.6666666666667</ele><time>2026-05-03T10:03:24.498Z</time></trkpt><trkpt lat="43.6430694" lon="12.6715537"><ele>340.33333333333337</ele><time>2026-05-03T10:03:25.497Z</time></trkpt><trkpt lat="43.6428869" lon="12.671603"><ele>338.0</ele><time>2026-05-03T10:03:26.495Z</time></trkpt><trkpt lat="43.6427254" lon="12.6716746"><ele>337.33333333333337</ele><time>2026-05-03T10:03:27.495Z</time></trkpt><trkpt lat="43.6425807" lon="12.6717858"><ele>336.6666666666667</ele><time>2026-05-03T10:03:28.494Z</time></trkpt><trkpt lat="43.642448" lon="12.6719575"><ele>336.0</ele><time>2026-05-03T10:03:29.494Z</time></trkpt><trkpt lat="43.642322" lon="12.672197"><ele>333.0</ele><time>2026-05-03T10:03:30.495Z</time></trkpt><trkpt lat="43.6421849" lon="12.6724295"><ele>330.0</ele><time>2026-05-03T10:03:31.494Z</time></trkpt><trkpt lat="43.6420713" lon="12.6726292"><ele>327.0</ele><time>2026-05-03T10:03:32.493Z</time></trkpt><trkpt lat="43.6419805" lon="12.672805"><ele>324.5</ele><time>2026-05-03T10:03:33.495Z</time></trkpt><trkpt lat="43.6418798" lon="12.672926"><ele>322.0</ele><time>2026-05-03T10:03:34.493Z</time></trkpt><trkpt lat="43.6417748" lon="12.6729771"><ele>319.5</ele><time>2026-05-03T10:03:35.494Z</time></trkpt><trkpt lat="43.6416724" lon="12.6729492"><ele>317.0</ele><time>2026-05-03T10:03:36.496Z</time></trkpt><trkpt lat="43.6415704" lon="12.672893"><ele>319.33333333333337</ele><time>2026-05-03T10:03:37.491Z</time></trkpt><trkpt lat="43.6415367" lon="12.6726734"><ele>321.6666666666667</ele><time>2026-05-03T10:03:38.496Z</time></trkpt><trkpt lat="43.6415128" lon="12.6724548"><ele>324.0</ele><time>2026-05-03T10:03:39.49Z</time></trkpt><trkpt lat="43.6414906" lon="12.672163"><ele>326.6666666666667</ele><time>2026-05-03T10:03:40.494Z</time></trkpt><trkpt lat="43.6414724" lon="12.671872"><ele>329.33333333333337</ele><time>2026-05-03T10:03:41.522Z</time></trkpt><trkpt lat="43.6414496" lon="12.6716335"><ele>332.0</ele><time>2026-05-03T10:03:42.493Z</time></trkpt><trkpt lat="43.6414051" lon="12.6714002"><ele>332.0</ele><time>2026-05-03T10:03:43.494Z</time></trkpt><trkpt lat="43.6413203" lon="12.6711892"><ele>332.0</ele><time>2026-05-03T10:03:44.495Z</time></trkpt><trkpt lat="43.6412021" lon="12.6710139"><ele>332.0</ele><time>2026-05-03T10:03:45.498Z</time></trkpt><trkpt lat="43.6410673" lon="12.6708851"><ele>327.6666666666667</ele><time>2026-05-03T10:03:46.494Z</time></trkpt><trkpt lat="43.6409187" lon="12.6708054"><ele>323.3333333333333</ele><time>2026-05-03T10:03:47.495Z</time></trkpt><trkpt lat="43.6407594" lon="12.670799"><ele>319.0</ele><time>2026-05-03T10:03:48.494Z</time></trkpt><trkpt lat="43.6405929" lon="12.6708534"><ele>319.0</ele><time>2026-05-03T10:03:49.494Z</time></trkpt><trkpt lat="43.6404339" lon="12.6709549"><ele>319.0</ele><time>2026-05-03T10:03:50.491Z</time></trkpt><trkpt lat="43.6402882" lon="12.6710683"><ele>319.0</ele><time>2026-05-03T10:03:51.492Z</time></trkpt><trkpt lat="43.640149" lon="12.6711494"><ele>317.0</ele><time>2026-05-03T10:03:52.494Z</time></trkpt><trkpt lat="43.6400145" lon="12.6711742"><ele>315.0</ele><time>2026-05-03T10:03:53.492Z</time></trkpt><trkpt lat="43.6398836" lon="12.6711283"><ele>313.0</ele><time>2026-05-03T10:03:54.494Z</time></trkpt><trkpt lat="43.6397459" lon="12.6710113"><ele>311.0</ele><time>2026-05-03T10:03:55.495Z</time></trkpt><trkpt lat="43.639625" lon="12.6708604"><ele>311.0</ele><time>2026-05-03T10:03:56.495Z</time></trkpt><trkpt lat="43.6395137" lon="12.6707176"><ele>311.0</ele><time>2026-05-03T10:03:57.493Z</time></trkpt><trkpt lat="43.639393" lon="12.6705948"><ele>311.0</ele><time>2026-05-03T10:03:58.492Z</time></trkpt><trkpt lat="43.6392645" lon="12.6705285"><ele>311.0</ele><time>2026-05-03T10:03:59.493Z</time></trkpt><trkpt lat="43.6391378" lon="12.6705171"><ele>310.0</ele><time>2026-05-03T10:04:00.5Z</time></trkpt><trkpt lat="43.639031" lon="12.6705521"><ele>309.0</ele><time>2026-05-03T10:04:01.493Z</time></trkpt><trkpt lat="43.6389391" lon="12.6706671"><ele>308.0</ele><time>2026-05-03T10:04:02.495Z</time></trkpt><trkpt lat="43.638867" lon="12.6708391"><ele>307.0</ele><time>2026-05-03T10:04:03.494Z</time></trkpt><trkpt lat="43.6388374" lon="12.6710324"><ele>304.25</ele><time>2026-05-03T10:04:04.492Z</time></trkpt><trkpt lat="43.6388421" lon="12.671236"><ele>301.5</ele><time>2026-05-03T10:04:05.49Z</time></trkpt><trkpt lat="43.6388596" lon="12.671426"><ele>298.75</ele><time>2026-05-03T10:04:06.491Z</time></trkpt><trkpt lat="43.6388697" lon="12.6716073"><ele>296.0</ele><time>2026-05-03T10:04:07.493Z</time></trkpt><trkpt lat="43.6388584" lon="12.6717774"><ele>296.0</ele><time>2026-05-03T10:04:08.497Z</time></trkpt><trkpt lat="43.6388221" lon="12.6719237"><ele>296.0</ele><time>2026-05-03T10:04:09.492Z</time></trkpt><trkpt lat="43.6387644" lon="12.6720427"><ele>296.0</ele><time>2026-05-03T10:04:10.493Z</time></trkpt><trkpt lat="43.6386943" lon="12.6721312"><ele>296.0</ele><time>2026-05-03T10:04:11.492Z</time></trkpt><trkpt lat="43.6386196" lon="12.6721931"><ele>296.0</ele><time>2026-05-03T10:04:12.495Z</time></trkpt><trkpt lat="43.6385404" lon="12.6722457"><ele>296.0</ele><time>2026-05-03T10:04:13.491Z</time></trkpt><trkpt lat="43.6384564" lon="12.6722414"><ele>296.0</ele><time>2026-05-03T10:04:14.493Z</time></trkpt><trkpt lat="43.6383751" lon="12.6722347"><ele>296.0</ele><time>2026-05-03T10:04:15.493Z</time></trkpt><trkpt lat="43.6382936" lon="12.6722197"><ele>296.0</ele><time>2026-05-03T10:04:16.493Z</time></trkpt><trkpt lat="43.6382073" lon="12.6721827"><ele>296.0</ele><time>2026-05-03T10:04:17.49Z</time></trkpt><trkpt lat="43.6381229" lon="12.6721629"><ele>296.0</ele><time>2026-05-03T10:04:18.491Z</time></trkpt><trkpt lat="43.6380419" lon="12.6721422"><ele>296.0</ele><time>2026-05-03T10:04:19.493Z</time></trkpt><trkpt lat="43.6379571" lon="12.6721289"><ele>296.0</ele><time>2026-05-03T10:04:20.496Z</time></trkpt><trkpt lat="43.637869" lon="12.6721163"><ele>296.0</ele><time>2026-05-03T10:04:21.494Z</time></trkpt><trkpt lat="43.6377775" lon="12.6721262"><ele>296.0</ele><time>2026-05-03T10:04:22.494Z</time></trkpt><trkpt lat="43.6376801" lon="12.6721551"><ele>296.0</ele><time>2026-05-03T10:04:23.492Z</time></trkpt><trkpt lat="43.6375902" lon="12.6722114"><ele>297.2</ele><time>2026-05-03T10:04:24.493Z</time></trkpt><trkpt lat="43.6375135" lon="12.6722912"><ele>298.40000000000003</ele><time>2026-05-03T10:04:25.494Z</time></trkpt><trkpt lat="43.6374422" lon="12.6723878"><ele>299.6</ele><time>2026-05-03T10:04:26.494Z</time></trkpt><trkpt lat="43.6373739" lon="12.6725103"><ele>300.8</ele><time>2026-05-03T10:04:27.49Z</time></trkpt><trkpt lat="43.6373075" lon="12.6726583"><ele>302.0</ele><time>2026-05-03T10:04:28.492Z</time></trkpt><trkpt lat="43.6372423" lon="12.6728162"><ele>302.0</ele><time>2026-05-03T10:04:29.493Z</time></trkpt><trkpt lat="43.6371778" lon="12.6729651"><ele>302.0</ele><time>2026-05-03T10:04:30.491Z</time></trkpt><trkpt lat="43.637107" lon="12.673123"><ele>302.0</ele><time>2026-05-03T10:04:31.493Z</time></trkpt><trkpt lat="43.6370367" lon="12.6732786"><ele>302.0</ele><time>2026-05-03T10:04:32.488Z</time></trkpt><trkpt lat="43.636961" lon="12.6734418"><ele>304.75</ele><time>2026-05-03T10:04:33.491Z</time></trkpt><trkpt lat="43.6368886" lon="12.6736048"><ele>307.5</ele><time>2026-05-03T10:04:34.493Z</time></trkpt><trkpt lat="43.6368128" lon="12.6737637"><ele>310.25</ele><time>2026-05-03T10:04:35.491Z</time></trkpt><trkpt lat="43.6367361" lon="12.6739237"><ele>313.0</ele><time>2026-05-03T10:04:36.493Z</time></trkpt><trkpt lat="43.6366649" lon="12.6740764"><ele>313.0</ele><time>2026-05-03T10:04:37.493Z</time></trkpt><trkpt lat="43.6365923" lon="12.6742319"><ele>313.0</ele><time>2026-05-03T10:04:38.492Z</time></trkpt><trkpt lat="43.6365165" lon="12.6743882"><ele>313.0</ele><time>2026-05-03T10:04:39.492Z</time></trkpt><trkpt lat="43.6364377" lon="12.6745375"><ele>313.0</ele><time>2026-05-03T10:04:40.489Z</time></trkpt><trkpt lat="43.6363588" lon="12.6746811"><ele>315.25</ele><time>2026-05-03T10:04:41.491Z</time></trkpt><trkpt lat="43.6362547" lon="12.6747998"><ele>317.5</ele><time>2026-05-03T10:04:42.495Z</time></trkpt><trkpt lat="43.6361455" lon="12.6749026"><ele>319.75</ele><time>2026-05-03T10:04:43.487Z</time></trkpt><trkpt lat="43.6360295" lon="12.6749978"><ele>322.0</ele><time>2026-05-03T10:04:44.491Z</time></trkpt><trkpt lat="43.6359083" lon="12.6750937"><ele>322.0</ele><time>2026-05-03T10:04:45.492Z</time></trkpt><trkpt lat="43.6357847" lon="12.6751927"><ele>322.0</ele><time>2026-05-03T10:04:46.492Z</time></trkpt><trkpt lat="43.6356556" lon="12.6752895"><ele>322.0</ele><time>2026-05-03T10:04:47.493Z</time></trkpt><trkpt lat="43.6355179" lon="12.6753821"><ele>322.0</ele><time>2026-05-03T10:04:48.496Z</time></trkpt><trkpt lat="43.6353818" lon="12.6754762"><ele>320.0</ele><time>2026-05-03T10:04:49.493Z</time></trkpt><trkpt lat="43.6352573" lon="12.6755591"><ele>318.0</ele><time>2026-05-03T10:04:50.494Z</time></trkpt><trkpt lat="43.6351322" lon="12.6756435"><ele>316.0</ele><time>2026-05-03T10:04:51.543Z</time></trkpt><trkpt lat="43.6350133" lon="12.6757542"><ele>314.0</ele><time>2026-05-03T10:04:52.496Z</time></trkpt><trkpt lat="43.6349098" lon="12.675874"><ele>314.0</ele><time>2026-05-03T10:04:53.493Z</time></trkpt><trkpt lat="43.634847" lon="12.6760292"><ele>314.0</ele><time>2026-05-03T10:04:54.493Z</time></trkpt><trkpt lat="43.6347799" lon="12.6762005"><ele>314.0</ele><time>2026-05-03T10:04:55.494Z</time></trkpt><trkpt lat="43.6347205" lon="12.6763927"><ele>314.0</ele><time>2026-05-03T10:04:56.493Z</time></trkpt><trkpt lat="43.6346665" lon="12.6765796"><ele>309.75</ele><time>2026-05-03T10:04:57.494Z</time></trkpt><trkpt lat="43.6346091" lon="12.6767579"><ele>305.5</ele><time>2026-05-03T10:04:58.495Z</time></trkpt><trkpt lat="43.6345539" lon="12.6769359"><ele>301.25</ele><time>2026-05-03T10:04:59.495Z</time></trkpt><trkpt lat="43.6344912" lon="12.6770932"><ele>297.0</ele><time>2026-05-03T10:05:00.49Z</time></trkpt><trkpt lat="43.6344071" lon="12.6772109"><ele>296.4</ele><time>2026-05-03T10:05:01.52Z</time></trkpt><trkpt lat="43.6343059" lon="12.6772621"><ele>295.79999999999995</ele><time>2026-05-03T10:05:02.494Z</time></trkpt><trkpt lat="43.6341998" lon="12.6772335"><ele>295.2</ele><time>2026-05-03T10:05:03.497Z</time></trkpt><trkpt lat="43.6341082" lon="12.6771576"><ele>294.59999999999997</ele><time>2026-05-03T10:05:04.494Z</time></trkpt><trkpt lat="43.634032" lon="12.6770454"><ele>294.0</ele><time>2026-05-03T10:05:05.522Z</time></trkpt><trkpt lat="43.6339591" lon="12.6769312"><ele>296.0</ele><time>2026-05-03T10:05:06.494Z</time></trkpt><trkpt lat="43.6338905" lon="12.6768103"><ele>298.0</ele><time>2026-05-03T10:05:07.521Z</time></trkpt><trkpt lat="43.6338317" lon="12.676682"><ele>300.0</ele><time>2026-05-03T10:05:08.494Z</time></trkpt><trkpt lat="43.6337878" lon="12.6765386"><ele>302.0</ele><time>2026-05-03T10:05:09.494Z</time></trkpt><trkpt lat="43.6337671" lon="12.6763843"><ele>304.0</ele><time>2026-05-03T10:05:10.494Z</time></trkpt><trkpt lat="43.6337472" lon="12.6762259"><ele>306.75</ele><time>2026-05-03T10:05:11.494Z</time></trkpt><trkpt lat="43.6337224" lon="12.6760683"><ele>309.5</ele><time>2026-05-03T10:05:12.493Z</time></trkpt><trkpt lat="43.6336971" lon="12.6759117"><ele>312.25</ele><time>2026-05-03T10:05:13.494Z</time></trkpt><trkpt lat="43.6336417" lon="12.6757625"><ele>315.0</ele><time>2026-05-03T10:05:14.49Z</time></trkpt><trkpt lat="43.6335805" lon="12.6756137"><ele>308.25</ele><time>2026-05-03T10:05:15.489Z</time></trkpt><trkpt lat="43.6334561" lon="12.6755026"><ele>301.5</ele><time>2026-05-03T10:05:16.488Z</time></trkpt><trkpt lat="43.6333219" lon="12.6754328"><ele>294.75</ele><time>2026-05-03T10:05:17.496Z</time></trkpt><trkpt lat="43.6331918" lon="12.6753752"><ele>288.0</ele><time>2026-05-03T10:05:18.492Z</time></trkpt><trkpt lat="43.6330632" lon="12.675322"><ele>288.0</ele><time>2026-05-03T10:05:19.494Z</time></trkpt><trkpt lat="43.6329305" lon="12.6752728"><ele>288.0</ele><time>2026-05-03T10:05:20.496Z</time></trkpt><trkpt lat="43.6327952" lon="12.6752362"><ele>288.0</ele><time>2026-05-03T10:05:21.494Z</time></trkpt><trkpt lat="43.6326635" lon="12.6752074"><ele>288.0</ele><time>2026-05-03T10:05:22.522Z</time></trkpt><trkpt lat="43.6325337" lon="12.6751828"><ele>286.75</ele><time>2026-05-03T10:05:23.496Z</time></trkpt><trkpt lat="43.6324031" lon="12.6751812"><ele>285.5</ele><time>2026-05-03T10:05:24.495Z</time></trkpt><trkpt lat="43.6322785" lon="12.6752009"><ele>284.25</ele><time>2026-05-03T10:05:25.494Z</time></trkpt><trkpt lat="43.6321551" lon="12.675229"><ele>283.0</ele><time>2026-05-03T10:05:26.522Z</time></trkpt><trkpt lat="43.6320358" lon="12.6752278"><ele>280.2</ele><time>2026-05-03T10:05:27.494Z</time></trkpt><trkpt lat="43.6319239" lon="12.6751965"><ele>277.4</ele><time>2026-05-03T10:05:28.494Z</time></trkpt><trkpt lat="43.6318156" lon="12.6751569"><ele>274.59999999999997</ele><time>2026-05-03T10:05:29.494Z</time></trkpt><trkpt lat="43.6317251" lon="12.6751243"><ele>271.8</ele><time>2026-05-03T10:05:30.488Z</time></trkpt><trkpt lat="43.6316403" lon="12.675098"><ele>269.0</ele><time>2026-05-03T10:05:31.493Z</time></trkpt><trkpt lat="43.6315572" lon="12.6750892"><ele>269.0</ele><time>2026-05-03T10:05:32.523Z</time></trkpt><trkpt lat="43.631467" lon="12.6751065"><ele>269.0</ele><time>2026-05-03T10:05:33.494Z</time></trkpt><trkpt lat="43.631369" lon="12.6751526"><ele>269.0</ele><time>2026-05-03T10:05:34.499Z</time></trkpt><trkpt lat="43.6312736" lon="12.6752099"><ele>269.0</ele><time>2026-05-03T10:05:35.494Z</time></trkpt><trkpt lat="43.6311793" lon="12.6752771"><ele>269.0</ele><time>2026-05-03T10:05:36.525Z</time></trkpt><trkpt lat="43.6310785" lon="12.6753343"><ele>267.4</ele><time>2026-05-03T10:05:37.496Z</time></trkpt><trkpt lat="43.6309939" lon="12.6754144"><ele>265.79999999999995</ele><time>2026-05-03T10:05:38.495Z</time></trkpt><trkpt lat="43.6309123" lon="12.6754805"><ele>264.20000000000005</ele><time>2026-05-03T10:05:39.494Z</time></trkpt><trkpt lat="43.6308268" lon="12.6755322"><ele>262.6</ele><time>2026-05-03T10:05:40.524Z</time></trkpt><trkpt lat="43.6307369" lon="12.6755716"><ele>261.0</ele><time>2026-05-03T10:05:41.493Z</time></trkpt><trkpt lat="43.6306423" lon="12.6755725"><ele>261.0</ele><time>2026-05-03T10:05:42.525Z</time></trkpt><trkpt lat="43.6305448" lon="12.6755576"><ele>261.0</ele><time>2026-05-03T10:05:43.493Z</time></trkpt><trkpt lat="43.6304519" lon="12.6755366"><ele>261.0</ele><time>2026-05-03T10:05:44.492Z</time></trkpt><trkpt lat="43.6303608" lon="12.675521"><ele>261.0</ele><time>2026-05-03T10:05:45.493Z</time></trkpt><trkpt lat="43.6302725" lon="12.675481"><ele>261.0</ele><time>2026-05-03T10:05:46.487Z</time></trkpt><trkpt lat="43.6302107" lon="12.6754153"><ele>261.0</ele><time>2026-05-03T10:05:47.515Z</time></trkpt><trkpt lat="43.630187" lon="12.6753185"><ele>261.0</ele><time>2026-05-03T10:05:48.494Z</time></trkpt><trkpt lat="43.6301982" lon="12.6752134"><ele>261.0</ele><time>2026-05-03T10:05:49.52Z</time></trkpt><trkpt lat="43.6302232" lon="12.6751093"><ele>261.0</ele><time>2026-05-03T10:05:50.492Z</time></trkpt><trkpt lat="43.6303111" lon="12.6750375"><ele>261.0</ele><time>2026-05-03T10:05:51.492Z</time></trkpt><trkpt lat="43.6303835" lon="12.6749647"><ele>261.0</ele><time>2026-05-03T10:05:52.495Z</time></trkpt><trkpt lat="43.6304581" lon="12.674901"><ele>261.0</ele><time>2026-05-03T10:05:53.494Z</time></trkpt><trkpt lat="43.6305334" lon="12.6748354"><ele>261.0</ele><time>2026-05-03T10:05:54.525Z</time></trkpt><trkpt lat="43.6305966" lon="12.6747588"><ele>261.0</ele><time>2026-05-03T10:05:55.493Z</time></trkpt><trkpt lat="43.6306347" lon="12.6746698"><ele>261.0</ele><time>2026-05-03T10:05:56.493Z</time></trkpt><trkpt lat="43.6306519" lon="12.6745781"><ele>261.0</ele><time>2026-05-03T10:05:57.493Z</time></trkpt><trkpt lat="43.6306409" lon="12.6744827"><ele>261.0</ele><time>2026-05-03T10:05:58.493Z</time></trkpt><trkpt lat="43.6306085" lon="12.6743975"><ele>260.6666666666667</ele><time>2026-05-03T10:05:59.493Z</time></trkpt><trkpt lat="43.630554" lon="12.6743398"><ele>260.3333333333333</ele><time>2026-05-03T10:06:00.491Z</time></trkpt><trkpt lat="43.6304792" lon="12.6743151"><ele>260.0</ele><time>2026-05-03T10:06:01.493Z</time></trkpt><trkpt lat="43.6303994" lon="12.6743379"><ele>259.66666666666663</ele><time>2026-05-03T10:06:02.487Z</time></trkpt><trkpt lat="43.6303226" lon="12.6743943"><ele>259.3333333333333</ele><time>2026-05-03T10:06:03.489Z</time></trkpt><trkpt lat="43.6302553" lon="12.6744744"><ele>259.0</ele><time>2026-05-03T10:06:04.494Z</time></trkpt><trkpt lat="43.6301882" lon="12.6745601"><ele>257.16666666666663</ele><time>2026-05-03T10:06:05.494Z</time></trkpt><trkpt lat="43.6301161" lon="12.6746381"><ele>255.33333333333331</ele><time>2026-05-03T10:06:06.519Z</time></trkpt><trkpt lat="43.6300402" lon="12.6746989"><ele>253.5</ele><time>2026-05-03T10:06:07.495Z</time></trkpt><trkpt lat="43.6299629" lon="12.6747397"><ele>251.66666666666669</ele><time>2026-05-03T10:06:08.494Z</time></trkpt><trkpt lat="43.629888" lon="12.6747435"><ele>249.83333333333334</ele><time>2026-05-03T10:06:09.524Z</time></trkpt><trkpt lat="43.6298185" lon="12.6747257"><ele>248.0</ele><time>2026-05-03T10:06:10.495Z</time></trkpt><trkpt lat="43.6297562" lon="12.6746814"><ele>248.00000000000003</ele><time>2026-05-03T10:06:11.495Z</time></trkpt><trkpt lat="43.6296968" lon="12.6746086"><ele>248.0</ele><time>2026-05-03T10:06:12.496Z</time></trkpt><trkpt lat="43.629653" lon="12.6745202"><ele>248.0</ele><time>2026-05-03T10:06:13.521Z</time></trkpt><trkpt lat="43.6296284" lon="12.6744158"><ele>248.0</ele><time>2026-05-03T10:06:14.523Z</time></trkpt><trkpt lat="43.6296194" lon="12.6743036"><ele>248.00000000000003</ele><time>2026-05-03T10:06:15.494Z</time></trkpt><trkpt lat="43.6296167" lon="12.6741895"><ele>248.0</ele><time>2026-05-03T10:06:16.492Z</time></trkpt><trkpt lat="43.629602" lon="12.6740726"><ele>247.33333333333334</ele><time>2026-05-03T10:06:17.493Z</time></trkpt><trkpt lat="43.6295687" lon="12.6739634"><ele>246.66666666666669</ele><time>2026-05-03T10:06:18.492Z</time></trkpt><trkpt lat="43.6295156" lon="12.673878"><ele>246.0</ele><time>2026-05-03T10:06:19.515Z</time></trkpt><trkpt lat="43.629448" lon="12.6738199"><ele>245.33333333333331</ele><time>2026-05-03T10:06:20.488Z</time></trkpt><trkpt lat="43.6293771" lon="12.6738041"><ele>244.66666666666666</ele><time>2026-05-03T10:06:21.494Z</time></trkpt><trkpt lat="43.6293011" lon="12.6738119"><ele>244.0</ele><time>2026-05-03T10:06:22.493Z</time></trkpt><trkpt lat="43.6292272" lon="12.6738521"><ele>242.16666666666666</ele><time>2026-05-03T10:06:23.522Z</time></trkpt><trkpt lat="43.629169" lon="12.6739215"><ele>240.33333333333331</ele><time>2026-05-03T10:06:24.522Z</time></trkpt><trkpt lat="43.6291164" lon="12.6739924"><ele>238.5</ele><time>2026-05-03T10:06:25.52Z</time></trkpt><trkpt lat="43.6290825" lon="12.6741023"><ele>236.66666666666669</ele><time>2026-05-03T10:06:26.493Z</time></trkpt><trkpt lat="43.6290478" lon="12.6742008"><ele>234.83333333333334</ele><time>2026-05-03T10:06:27.496Z</time></trkpt><trkpt lat="43.6290221" lon="12.6743004"><ele>233.0</ele><time>2026-05-03T10:06:28.491Z</time></trkpt><trkpt lat="43.6289781" lon="12.6743863"><ele>233.00000000000003</ele><time>2026-05-03T10:06:29.494Z</time></trkpt><trkpt lat="43.6289213" lon="12.6744447"><ele>233.0</ele><time>2026-05-03T10:06:30.497Z</time></trkpt><trkpt lat="43.6288492" lon="12.6744591"><ele>233.0</ele><time>2026-05-03T10:06:31.522Z</time></trkpt><trkpt lat="43.6287757" lon="12.6744163"><ele>233.0</ele><time>2026-05-03T10:06:32.492Z</time></trkpt><trkpt lat="43.6287265" lon="12.6743308"><ele>233.00000000000003</ele><time>2026-05-03T10:06:33.493Z</time></trkpt><trkpt lat="43.6287169" lon="12.6742208"><ele>233.0</ele><time>2026-05-03T10:06:34.492Z</time></trkpt><trkpt lat="43.6287426" lon="12.6741206"><ele>233.0</ele><time>2026-05-03T10:06:35.524Z</time></trkpt><trkpt lat="43.6287977" lon="12.6740544"><ele>233.0</ele><time>2026-05-03T10:06:36.492Z</time></trkpt><trkpt lat="43.6288552" lon="12.6740077"><ele>233.0</ele><time>2026-05-03T10:06:37.493Z</time></trkpt><trkpt lat="43.628908" lon="12.6739495"><ele>233.0</ele><time>2026-05-03T10:06:38.493Z</time></trkpt><trkpt lat="43.6289605" lon="12.6738848"><ele>233.0</ele><time>2026-05-03T10:06:39.52Z</time></trkpt><trkpt lat="43.6290008" lon="12.6738052"><ele>233.0</ele><time>2026-05-03T10:06:40.492Z</time></trkpt><trkpt lat="43.6290257" lon="12.6737099"><ele>233.0</ele><time>2026-05-03T10:06:41.492Z</time></trkpt><trkpt lat="43.6290325" lon="12.6736125"><ele>232.85714285714286</ele><time>2026-05-03T10:06:42.523Z</time></trkpt><trkpt lat="43.6290266" lon="12.6735156"><ele>232.71428571428572</ele><time>2026-05-03T10:06:43.496Z</time></trkpt><trkpt lat="43.6290136" lon="12.6734226"><ele>232.57142857142858</ele><time>2026-05-03T10:06:44.492Z</time></trkpt><trkpt lat="43.6289925" lon="12.673333"><ele>232.42857142857144</ele><time>2026-05-03T10:06:45.492Z</time></trkpt><trkpt lat="43.6289453" lon="12.6732651"><ele>232.28571428571428</ele><time>2026-05-03T10:06:46.525Z</time></trkpt><trkpt lat="43.6288833" lon="12.6732223"><ele>232.14285714285717</ele><time>2026-05-03T10:06:47.494Z</time></trkpt><trkpt lat="43.6288054" lon="12.6732088"><ele>232.00000000000003</ele><time>2026-05-03T10:06:48.493Z</time></trkpt><trkpt lat="43.6287265" lon="12.6732113"><ele>230.8</ele><time>2026-05-03T10:06:49.498Z</time></trkpt><trkpt lat="43.6286287" lon="12.6732618"><ele>229.6</ele><time>2026-05-03T10:06:50.52Z</time></trkpt><trkpt lat="43.6285465" lon="12.6733226"><ele>228.40000000000003</ele><time>2026-05-03T10:06:51.493Z</time></trkpt><trkpt lat="43.6284753" lon="12.6733809"><ele>227.20000000000002</ele><time>2026-05-03T10:06:52.489Z</time></trkpt><trkpt lat="43.6284046" lon="12.6734743"><ele>226.0</ele><time>2026-05-03T10:06:53.52Z</time></trkpt><trkpt lat="43.6283493" lon="12.6735507"><ele>225.16666666666666</ele><time>2026-05-03T10:06:54.523Z</time></trkpt><trkpt lat="43.628295" lon="12.67364"><ele>224.33333333333331</ele><time>2026-05-03T10:06:55.494Z</time></trkpt><trkpt lat="43.6282442" lon="12.6737274"><ele>223.5</ele><time>2026-05-03T10:06:56.521Z</time></trkpt><trkpt lat="43.6281902" lon="12.6738251"><ele>222.66666666666669</ele><time>2026-05-03T10:06:57.492Z</time></trkpt><trkpt lat="43.6281317" lon="12.6739334"><ele>221.83333333333334</ele><time>2026-05-03T10:06:58.493Z</time></trkpt><trkpt lat="43.6280709" lon="12.6740371"><ele>221.0</ele><time>2026-05-03T10:06:59.494Z</time></trkpt><trkpt lat="43.6280082" lon="12.674137"><ele>221.0</ele><time>2026-05-03T10:07:00.493Z</time></trkpt><trkpt lat="43.6279305" lon="12.674222"><ele>221.00000000000003</ele><time>2026-05-03T10:07:01.492Z</time></trkpt><trkpt lat="43.6278298" lon="12.674266"><ele>221.00000000000003</ele><time>2026-05-03T10:07:02.493Z</time></trkpt><trkpt lat="43.6277276" lon="12.6742761"><ele>221.0</ele><time>2026-05-03T10:07:03.492Z</time></trkpt><trkpt lat="43.6276252" lon="12.6742566"><ele>221.0</ele><time>2026-05-03T10:07:04.491Z</time></trkpt><trkpt lat="43.627527" lon="12.674197"><ele>220.20000000000002</ele><time>2026-05-03T10:07:05.492Z</time></trkpt><trkpt lat="43.6274295" lon="12.6741362"><ele>219.40000000000003</ele><time>2026-05-03T10:07:06.518Z</time></trkpt><trkpt lat="43.6273272" lon="12.6740723"><ele>218.6</ele><time>2026-05-03T10:07:07.494Z</time></trkpt><trkpt lat="43.6272233" lon="12.6740091"><ele>217.8</ele><time>2026-05-03T10:07:08.492Z</time></trkpt><trkpt lat="43.6271223" lon="12.6739486"><ele>217.0</ele><time>2026-05-03T10:07:09.494Z</time></trkpt><trkpt lat="43.6270159" lon="12.6738936"><ele>217.2</ele><time>2026-05-03T10:07:10.524Z</time></trkpt><trkpt lat="43.6269191" lon="12.6738304"><ele>217.39999999999998</ele><time>2026-05-03T10:07:11.521Z</time></trkpt><trkpt lat="43.6268173" lon="12.6737642"><ele>217.60000000000002</ele><time>2026-05-03T10:07:12.495Z</time></trkpt><trkpt lat="43.6267139" lon="12.6737003"><ele>217.8</ele><time>2026-05-03T10:07:13.492Z</time></trkpt><trkpt lat="43.6266104" lon="12.6736366"><ele>218.0</ele><time>2026-05-03T10:07:14.493Z</time></trkpt><trkpt lat="43.6265071" lon="12.6735711"><ele>218.0</ele><time>2026-05-03T10:07:15.52Z</time></trkpt><trkpt lat="43.6264011" lon="12.6734972"><ele>218.0</ele><time>2026-05-03T10:07:16.494Z</time></trkpt><trkpt lat="43.6262939" lon="12.6734314"><ele>218.0</ele><time>2026-05-03T10:07:17.52Z</time></trkpt><trkpt lat="43.6261858" lon="12.6733681"><ele>218.0</ele><time>2026-05-03T10:07:18.493Z</time></trkpt><trkpt lat="43.6260782" lon="12.6733077"><ele>216.4</ele><time>2026-05-03T10:07:19.524Z</time></trkpt><trkpt lat="43.6259707" lon="12.6732405"><ele>214.8</ele><time>2026-05-03T10:07:20.495Z</time></trkpt><trkpt lat="43.625868" lon="12.6731803"><ele>213.2</ele><time>2026-05-03T10:07:21.492Z</time></trkpt><trkpt lat="43.6257681" lon="12.6731164"><ele>211.6</ele><time>2026-05-03T10:07:22.523Z</time></trkpt><trkpt lat="43.6256758" lon="12.6730507"><ele>210.0</ele><time>2026-05-03T10:07:23.493Z</time></trkpt><trkpt lat="43.6255843" lon="12.6729924"><ele>210.0</ele><time>2026-05-03T10:07:24.491Z</time></trkpt><trkpt lat="43.625486" lon="12.6729396"><ele>210.0</ele><time>2026-05-03T10:07:25.523Z</time></trkpt><trkpt lat="43.6253845" lon="12.6728936"><ele>210.0</ele><time>2026-05-03T10:07:26.493Z</time></trkpt><trkpt lat="43.6252758" lon="12.6728651"><ele>210.0</ele><time>2026-05-03T10:07:27.523Z</time></trkpt><trkpt lat="43.6251698" lon="12.6728327"><ele>210.0</ele><time>2026-05-03T10:07:28.494Z</time></trkpt><trkpt lat="43.6250448" lon="12.6728232"><ele>209.2</ele><time>2026-05-03T10:07:29.494Z</time></trkpt><trkpt lat="43.6249292" lon="12.6728238"><ele>208.4</ele><time>2026-05-03T10:07:30.524Z</time></trkpt><trkpt lat="43.6248158" lon="12.6728271"><ele>207.60000000000002</ele><time>2026-05-03T10:07:31.494Z</time></trkpt><trkpt lat="43.6247152" lon="12.6728361"><ele>206.8</ele><time>2026-05-03T10:07:32.494Z</time></trkpt><trkpt lat="43.624619" lon="12.672846"><ele>206.0</ele><time>2026-05-03T10:07:33.494Z</time></trkpt><trkpt lat="43.6245269" lon="12.6728335"><ele>206.0</ele><time>2026-05-03T10:07:34.495Z</time></trkpt><trkpt lat="43.6244388" lon="12.6728116"><ele>206.0</ele><time>2026-05-03T10:07:35.524Z</time></trkpt><trkpt lat="43.6243389" lon="12.6728113"><ele>206.0</ele><time>2026-05-03T10:07:36.493Z</time></trkpt><trkpt lat="43.6242323" lon="12.6728281"><ele>206.0</ele><time>2026-05-03T10:07:37.492Z</time></trkpt><trkpt lat="43.6241118" lon="12.6728388"><ele>206.0</ele><time>2026-05-03T10:07:38.494Z</time></trkpt><trkpt lat="43.623983" lon="12.6728448"><ele>206.0</ele><time>2026-05-03T10:07:39.495Z</time></trkpt><trkpt lat="43.6238441" lon="12.6728502"><ele>206.0</ele><time>2026-05-03T10:07:40.495Z</time></trkpt><trkpt lat="43.6236995" lon="12.6728534"><ele>206.0</ele><time>2026-05-03T10:07:41.522Z</time></trkpt><trkpt lat="43.6235512" lon="12.6728654"><ele>206.0</ele><time>2026-05-03T10:07:42.493Z</time></trkpt><trkpt lat="43.6233905" lon="12.6728622"><ele>205.33333333333334</ele><time>2026-05-03T10:07:43.492Z</time></trkpt><trkpt lat="43.6232368" lon="12.6728715"><ele>204.66666666666669</ele><time>2026-05-03T10:07:44.498Z</time></trkpt><trkpt lat="43.6230748" lon="12.6728742"><ele>204.0</ele><time>2026-05-03T10:07:45.494Z</time></trkpt><trkpt lat="43.6229155" lon="12.6728829"><ele>203.0</ele><time>2026-05-03T10:07:46.494Z</time></trkpt><trkpt lat="43.6227643" lon="12.6728877"><ele>202.0</ele><time>2026-05-03T10:07:47.494Z</time></trkpt><trkpt lat="43.6226123" lon="12.6728903"><ele>201.0</ele><time>2026-05-03T10:07:48.492Z</time></trkpt><trkpt lat="43.6224536" lon="12.6728906"><ele>201.0</ele><time>2026-05-03T10:07:49.493Z</time></trkpt><trkpt lat="43.6222962" lon="12.6728773"><ele>201.0</ele><time>2026-05-03T10:07:50.493Z</time></trkpt><trkpt lat="43.6221305" lon="12.6728329"><ele>201.0</ele><time>2026-05-03T10:07:51.492Z</time></trkpt><trkpt lat="43.6219746" lon="12.6727775"><ele>202.33333333333331</ele><time>2026-05-03T10:07:52.493Z</time></trkpt><trkpt lat="43.6218167" lon="12.6727394"><ele>203.66666666666666</ele><time>2026-05-03T10:07:53.494Z</time></trkpt><trkpt lat="43.6216678" lon="12.6727268"><ele>205.0</ele><time>2026-05-03T10:07:54.497Z</time></trkpt><trkpt lat="43.6215227" lon="12.6727174"><ele>205.0</ele><time>2026-05-03T10:07:55.49Z</time></trkpt><trkpt lat="43.6213732" lon="12.6727152"><ele>205.0</ele><time>2026-05-03T10:07:56.495Z</time></trkpt><trkpt lat="43.6212214" lon="12.672717"><ele>205.0</ele><time>2026-05-03T10:07:57.493Z</time></trkpt><trkpt lat="43.6210573" lon="12.6727253"><ele>204.33333333333331</ele><time>2026-05-03T10:07:58.494Z</time></trkpt><trkpt lat="43.6208981" lon="12.6727453"><ele>203.66666666666669</ele><time>2026-05-03T10:07:59.493Z</time></trkpt><trkpt lat="43.620743" lon="12.6727842"><ele>203.0</ele><time>2026-05-03T10:08:00.493Z</time></trkpt><trkpt lat="43.6205871" lon="12.6728423"><ele>202.66666666666669</ele><time>2026-05-03T10:08:01.494Z</time></trkpt><trkpt lat="43.6204134" lon="12.672908"><ele>202.33333333333331</ele><time>2026-05-03T10:08:02.496Z</time></trkpt><trkpt lat="43.620257" lon="12.672964"><ele>202.0</ele><time>2026-05-03T10:08:03.496Z</time></trkpt><trkpt lat="43.6201052" lon="12.6730183"><ele>202.0</ele><time>2026-05-03T10:08:04.495Z</time></trkpt><trkpt lat="43.6199616" lon="12.673059"><ele>202.0</ele><time>2026-05-03T10:08:05.492Z</time></trkpt><trkpt lat="43.6198327" lon="12.6730995"><ele>202.0</ele><time>2026-05-03T10:08:06.493Z</time></trkpt><trkpt lat="43.6197223" lon="12.6731381"><ele>202.0</ele><time>2026-05-03T10:08:07.493Z</time></trkpt><trkpt lat="43.6196308" lon="12.673176"><ele>202.0</ele><time>2026-05-03T10:08:08.495Z</time></trkpt><trkpt lat="43.6195652" lon="12.6731959"><ele>202.0</ele><time>2026-05-03T10:08:09.496Z</time></trkpt><trkpt lat="43.6194571" lon="12.6732329"><ele>202.0</ele><time>2026-05-03T10:08:11.487Z</time></trkpt><trkpt lat="43.6193919" lon="12.6732405"><ele>202.0</ele><time>2026-05-03T10:08:12.52Z</time></trkpt><trkpt lat="43.6193002" lon="12.6732064"><ele>202.0</ele><time>2026-05-03T10:08:13.494Z</time></trkpt><trkpt lat="43.6191855" lon="12.673154"><ele>202.0</ele><time>2026-05-03T10:08:14.494Z</time></trkpt><trkpt lat="43.6190669" lon="12.6730932"><ele>202.0</ele><time>2026-05-03T10:08:15.492Z</time></trkpt><trkpt lat="43.6189405" lon="12.6730403"><ele>202.0</ele><time>2026-05-03T10:08:16.522Z</time></trkpt><trkpt lat="43.618799" lon="12.6729706"><ele>202.0</ele><time>2026-05-03T10:08:17.494Z</time></trkpt><trkpt lat="43.618673" lon="12.6729144"><ele>201.5</ele><time>2026-05-03T10:08:18.492Z</time></trkpt><trkpt lat="43.618548" lon="12.6728734"><ele>201.0</ele><time>2026-05-03T10:08:19.493Z</time></trkpt><trkpt lat="43.6184189" lon="12.6728366"><ele>200.5</ele><time>2026-05-03T10:08:20.492Z</time></trkpt><trkpt lat="43.6182955" lon="12.6728187"><ele>200.0</ele><time>2026-05-03T10:08:21.492Z</time></trkpt><trkpt lat="43.6181599" lon="12.6727989"><ele>200.0</ele><time>2026-05-03T10:08:22.494Z</time></trkpt><trkpt lat="43.6180252" lon="12.6727916"><ele>200.0</ele><time>2026-05-03T10:08:23.494Z</time></trkpt><trkpt lat="43.6178903" lon="12.6727809"><ele>200.0</ele><time>2026-05-03T10:08:24.495Z</time></trkpt><trkpt lat="43.6177526" lon="12.6727751"><ele>200.0</ele><time>2026-05-03T10:08:25.493Z</time></trkpt><trkpt lat="43.6176114" lon="12.6727703"><ele>200.0</ele><time>2026-05-03T10:08:26.495Z</time></trkpt><trkpt lat="43.6174721" lon="12.6727739"><ele>200.0</ele><time>2026-05-03T10:08:27.49Z</time></trkpt><trkpt lat="43.6173423" lon="12.672766"><ele>200.0</ele><time>2026-05-03T10:08:28.494Z</time></trkpt><trkpt lat="43.6172172" lon="12.6727656"><ele>200.0</ele><time>2026-05-03T10:08:29.494Z</time></trkpt><trkpt lat="43.6170989" lon="12.6727675"><ele>200.0</ele><time>2026-05-03T10:08:30.496Z</time></trkpt><trkpt lat="43.6169862" lon="12.6727777"><ele>200.0</ele><time>2026-05-03T10:08:31.497Z</time></trkpt><trkpt lat="43.6168715" lon="12.6727786"><ele>200.0</ele><time>2026-05-03T10:08:32.495Z</time></trkpt><trkpt lat="43.6167557" lon="12.6727651"><ele>200.0</ele><time>2026-05-03T10:08:33.493Z</time></trkpt><trkpt lat="43.6166382" lon="12.6727629"><ele>200.75</ele><time>2026-05-03T10:08:34.494Z</time></trkpt><trkpt lat="43.616513" lon="12.6727609"><ele>201.5</ele><time>2026-05-03T10:08:35.494Z</time></trkpt><trkpt lat="43.616384" lon="12.6727603"><ele>202.25</ele><time>2026-05-03T10:08:36.492Z</time></trkpt><trkpt lat="43.6162672" lon="12.6727412"><ele>203.0</ele><time>2026-05-03T10:08:37.493Z</time></trkpt><trkpt lat="43.616154" lon="12.6727139"><ele>201.75</ele><time>2026-05-03T10:08:38.496Z</time></trkpt><trkpt lat="43.6160452" lon="12.672679"><ele>200.5</ele><time>2026-05-03T10:08:39.494Z</time></trkpt><trkpt lat="43.6159378" lon="12.6726558"><ele>199.25</ele><time>2026-05-03T10:08:40.496Z</time></trkpt><trkpt lat="43.6158214" lon="12.6726353"><ele>198.0</ele><time>2026-05-03T10:08:41.493Z</time></trkpt><trkpt lat="43.6156928" lon="12.6726277"><ele>198.0</ele><time>2026-05-03T10:08:42.493Z</time></trkpt><trkpt lat="43.615559" lon="12.6726143"><ele>198.0</ele><time>2026-05-03T10:08:43.49Z</time></trkpt><trkpt lat="43.6154212" lon="12.6725995"><ele>198.0</ele><time>2026-05-03T10:08:44.493Z</time></trkpt><trkpt lat="43.6152824" lon="12.67259"><ele>198.0</ele><time>2026-05-03T10:08:45.491Z</time></trkpt><trkpt lat="43.6151469" lon="12.6725777"><ele>199.0</ele><time>2026-05-03T10:08:46.495Z</time></trkpt><trkpt lat="43.6150107" lon="12.6725673"><ele>200.0</ele><time>2026-05-03T10:08:47.493Z</time></trkpt><trkpt lat="43.6148678" lon="12.6725445"><ele>201.0</ele><time>2026-05-03T10:08:48.493Z</time></trkpt><trkpt lat="43.6147188" lon="12.672502"><ele>202.0</ele><time>2026-05-03T10:08:49.494Z</time></trkpt><trkpt lat="43.6145706" lon="12.6724486"><ele>203.66666666666666</ele><time>2026-05-03T10:08:50.493Z</time></trkpt><trkpt lat="43.6144225" lon="12.6723901"><ele>205.33333333333331</ele><time>2026-05-03T10:08:51.495Z</time></trkpt><trkpt lat="43.614267" lon="12.6723288"><ele>207.0</ele><time>2026-05-03T10:08:52.494Z</time></trkpt><trkpt lat="43.6141092" lon="12.6722668"><ele>207.0</ele><time>2026-05-03T10:08:53.494Z</time></trkpt><trkpt lat="43.6139465" lon="12.6722047"><ele>207.0</ele><time>2026-05-03T10:08:54.493Z</time></trkpt><trkpt lat="43.6137813" lon="12.6721363"><ele>207.0</ele><time>2026-05-03T10:08:55.494Z</time></trkpt><trkpt lat="43.613615" lon="12.6720765"><ele>207.33333333333331</ele><time>2026-05-03T10:08:56.494Z</time></trkpt><trkpt lat="43.6134448" lon="12.672042"><ele>207.66666666666666</ele><time>2026-05-03T10:08:57.493Z</time></trkpt><trkpt lat="43.613266" lon="12.6720444"><ele>208.0</ele><time>2026-05-03T10:08:58.496Z</time></trkpt><trkpt lat="43.6130862" lon="12.6720787"><ele>208.0</ele><time>2026-05-03T10:08:59.491Z</time></trkpt><trkpt lat="43.6129044" lon="12.6721429"><ele>208.0</ele><time>2026-05-03T10:09:00.495Z</time></trkpt><trkpt lat="43.6127188" lon="12.6722204"><ele>208.0</ele><time>2026-05-03T10:09:01.493Z</time></trkpt><trkpt lat="43.6125366" lon="12.6723015"><ele>208.33333333333331</ele><time>2026-05-03T10:09:02.497Z</time></trkpt><trkpt lat="43.6123457" lon="12.6723906"><ele>208.66666666666669</ele><time>2026-05-03T10:09:03.494Z</time></trkpt><trkpt lat="43.6121327" lon="12.6724948"><ele>209.0</ele><time>2026-05-03T10:09:04.495Z</time></trkpt><trkpt lat="43.6119109" lon="12.6726126"><ele>208.5</ele><time>2026-05-03T10:09:05.494Z</time></trkpt><trkpt lat="43.6116877" lon="12.6727199"><ele>208.0</ele><time>2026-05-03T10:09:06.494Z</time></trkpt><trkpt lat="43.6114757" lon="12.6728143"><ele>208.0</ele><time>2026-05-03T10:09:07.494Z</time></trkpt><trkpt lat="43.6112562" lon="12.672907"><ele>208.0</ele><time>2026-05-03T10:09:08.494Z</time></trkpt><trkpt lat="43.611043" lon="12.6729976"><ele>208.33333333333331</ele><time>2026-05-03T10:09:09.495Z</time></trkpt><trkpt lat="43.6108341" lon="12.673094"><ele>208.66666666666669</ele><time>2026-05-03T10:09:10.493Z</time></trkpt><trkpt lat="43.6106279" lon="12.673191"><ele>209.0</ele><time>2026-05-03T10:09:11.493Z</time></trkpt><trkpt lat="43.6104193" lon="12.6732837"><ele>209.66666666666669</ele><time>2026-05-03T10:09:12.494Z</time></trkpt><trkpt lat="43.610208" lon="12.673383"><ele>210.33333333333331</ele><time>2026-05-03T10:09:13.493Z</time></trkpt><trkpt lat="43.6099933" lon="12.673478"><ele>211.0</ele><time>2026-05-03T10:09:14.495Z</time></trkpt><trkpt lat="43.6097813" lon="12.6735738"><ele>209.33333333333331</ele><time>2026-05-03T10:09:15.493Z</time></trkpt><trkpt lat="43.60957" lon="12.6736649"><ele>207.66666666666669</ele><time>2026-05-03T10:09:16.493Z</time></trkpt><trkpt lat="43.6093656" lon="12.6737571"><ele>206.0</ele><time>2026-05-03T10:09:17.49Z</time></trkpt><trkpt lat="43.6091605" lon="12.6738522"><ele>206.0</ele><time>2026-05-03T10:09:18.522Z</time></trkpt><trkpt lat="43.6089533" lon="12.6739462"><ele>206.0</ele><time>2026-05-03T10:09:19.493Z</time></trkpt><trkpt lat="43.608742" lon="12.6740362"><ele>206.0</ele><time>2026-05-03T10:09:20.493Z</time></trkpt><trkpt lat="43.6085273" lon="12.674126"><ele>208.0</ele><time>2026-05-03T10:09:21.494Z</time></trkpt><trkpt lat="43.6083075" lon="12.6742191"><ele>210.0</ele><time>2026-05-03T10:09:22.493Z</time></trkpt><trkpt lat="43.6080861" lon="12.6743023"><ele>210.0</ele><time>2026-05-03T10:09:23.492Z</time></trkpt><trkpt lat="43.6078613" lon="12.6743858"><ele>210.0</ele><time>2026-05-03T10:09:24.493Z</time></trkpt><trkpt lat="43.6076331" lon="12.6744621"><ele>209.0</ele><time>2026-05-03T10:09:25.493Z</time></trkpt><trkpt lat="43.6074016" lon="12.6745337"><ele>208.0</ele><time>2026-05-03T10:09:26.493Z</time></trkpt><trkpt lat="43.6071659" lon="12.6745992"><ele>208.0</ele><time>2026-05-03T10:09:27.494Z</time></trkpt><trkpt lat="43.6069284" lon="12.6746695"><ele>208.0</ele><time>2026-05-03T10:09:28.494Z</time></trkpt><trkpt lat="43.6066942" lon="12.6747448"><ele>208.0</ele><time>2026-05-03T10:09:29.488Z</time></trkpt><trkpt lat="43.6064634" lon="12.6748251"><ele>208.0</ele><time>2026-05-03T10:09:30.494Z</time></trkpt><trkpt lat="43.606232" lon="12.6749"><ele>209.0</ele><time>2026-05-03T10:09:31.493Z</time></trkpt><trkpt lat="43.6059989" lon="12.67498"><ele>210.0</ele><time>2026-05-03T10:09:32.498Z</time></trkpt><trkpt lat="43.6057701" lon="12.6750562"><ele>210.0</ele><time>2026-05-03T10:09:33.494Z</time></trkpt><trkpt lat="43.6055399" lon="12.6751391"><ele>210.0</ele><time>2026-05-03T10:09:34.494Z</time></trkpt><trkpt lat="43.6053091" lon="12.6752277"><ele>209.0</ele><time>2026-05-03T10:09:35.495Z</time></trkpt><trkpt lat="43.6050882" lon="12.6753022"><ele>208.0</ele><time>2026-05-03T10:09:36.488Z</time></trkpt><trkpt lat="43.6048777" lon="12.6753777"><ele>207.0</ele><time>2026-05-03T10:09:37.494Z</time></trkpt><trkpt lat="43.6046754" lon="12.6754527"><ele>208.33333333333331</ele><time>2026-05-03T10:09:38.493Z</time></trkpt><trkpt lat="43.6044782" lon="12.6755189"><ele>209.66666666666666</ele><time>2026-05-03T10:09:39.493Z</time></trkpt><trkpt lat="43.604293" lon="12.6755808"><ele>211.0</ele><time>2026-05-03T10:09:40.494Z</time></trkpt><trkpt lat="43.6041184" lon="12.675644"><ele>211.0</ele><time>2026-05-03T10:09:41.519Z</time></trkpt><trkpt lat="43.6039476" lon="12.6756942"><ele>211.0</ele><time>2026-05-03T10:09:42.493Z</time></trkpt><trkpt lat="43.6038011" lon="12.6757365"><ele>211.0</ele><time>2026-05-03T10:09:43.494Z</time></trkpt><trkpt lat="43.6036564" lon="12.6757783"><ele>211.0</ele><time>2026-05-03T10:09:44.494Z</time></trkpt><trkpt lat="43.6035218" lon="12.6758151"><ele>211.0</ele><time>2026-05-03T10:09:45.493Z</time></trkpt><trkpt lat="43.6033839" lon="12.6758481"><ele>211.0</ele><time>2026-05-03T10:09:46.495Z</time></trkpt><trkpt lat="43.6032325" lon="12.6758801"><ele>211.0</ele><time>2026-05-03T10:09:47.493Z</time></trkpt><trkpt lat="43.6030659" lon="12.6759089"><ele>211.0</ele><time>2026-05-03T10:09:48.493Z</time></trkpt><trkpt lat="43.6028915" lon="12.6759333"><ele>211.0</ele><time>2026-05-03T10:09:49.491Z</time></trkpt><trkpt lat="43.6027065" lon="12.6759547"><ele>211.0</ele><time>2026-05-03T10:09:50.493Z</time></trkpt><trkpt lat="43.6025011" lon="12.6759625"><ele>210.66666666666666</ele><time>2026-05-03T10:09:51.496Z</time></trkpt><trkpt lat="43.6022835" lon="12.6759685"><ele>210.33333333333331</ele><time>2026-05-03T10:09:52.493Z</time></trkpt><trkpt lat="43.6020552" lon="12.6759752"><ele>210.0</ele><time>2026-05-03T10:09:53.493Z</time></trkpt><trkpt lat="43.601828" lon="12.6759771"><ele>211.0</ele><time>2026-05-03T10:09:54.492Z</time></trkpt><trkpt lat="43.6016002" lon="12.6759828"><ele>212.0</ele><time>2026-05-03T10:09:55.493Z</time></trkpt><trkpt lat="43.6013757" lon="12.6759869"><ele>212.66666666666669</ele><time>2026-05-03T10:09:56.492Z</time></trkpt><trkpt lat="43.6011565" lon="12.6759933"><ele>213.33333333333331</ele><time>2026-05-03T10:09:57.493Z</time></trkpt><trkpt lat="43.6009479" lon="12.6759951"><ele>214.0</ele><time>2026-05-03T10:09:58.493Z</time></trkpt><trkpt lat="43.600743" lon="12.6759981"><ele>214.0</ele><time>2026-05-03T10:09:59.494Z</time></trkpt><trkpt lat="43.6005379" lon="12.6760045"><ele>214.0</ele><time>2026-05-03T10:10:00.495Z</time></trkpt><trkpt lat="43.6003297" lon="12.6760102"><ele>214.0</ele><time>2026-05-03T10:10:01.498Z</time></trkpt><trkpt lat="43.6001217" lon="12.6760111"><ele>214.33333333333331</ele><time>2026-05-03T10:10:02.493Z</time></trkpt><trkpt lat="43.5999186" lon="12.6760199"><ele>214.66666666666669</ele><time>2026-05-03T10:10:03.494Z</time></trkpt><trkpt lat="43.5997161" lon="12.6760234"><ele>215.0</ele><time>2026-05-03T10:10:04.492Z</time></trkpt><trkpt lat="43.5995124" lon="12.6760292"><ele>215.0</ele><time>2026-05-03T10:10:05.493Z</time></trkpt><trkpt lat="43.5993146" lon="12.6760333"><ele>215.0</ele><time>2026-05-03T10:10:06.52Z</time></trkpt><trkpt lat="43.5991161" lon="12.6760324"><ele>215.0</ele><time>2026-05-03T10:10:07.588Z</time></trkpt><trkpt lat="43.5989203" lon="12.6760352"><ele>215.0</ele><time>2026-05-03T10:10:08.493Z</time></trkpt><trkpt lat="43.5987278" lon="12.6760326"><ele>215.0</ele><time>2026-05-03T10:10:09.493Z</time></trkpt><trkpt lat="43.5985323" lon="12.6760398"><ele>215.0</ele><time>2026-05-03T10:10:10.493Z</time></trkpt><trkpt lat="43.5983387" lon="12.6760417"><ele>215.66666666666669</ele><time>2026-05-03T10:10:11.494Z</time></trkpt><trkpt lat="43.5981439" lon="12.6760496"><ele>216.33333333333331</ele><time>2026-05-03T10:10:12.493Z</time></trkpt><trkpt lat="43.5979471" lon="12.6760552"><ele>217.0</ele><time>2026-05-03T10:10:13.493Z</time></trkpt><trkpt lat="43.5977529" lon="12.6760559"><ele>217.66666666666666</ele><time>2026-05-03T10:10:14.493Z</time></trkpt><trkpt lat="43.5975553" lon="12.6760607"><ele>218.33333333333331</ele><time>2026-05-03T10:10:15.498Z</time></trkpt><trkpt lat="43.5973536" lon="12.6760661"><ele>219.0</ele><time>2026-05-03T10:10:16.493Z</time></trkpt><trkpt lat="43.5971529" lon="12.6760724"><ele>219.66666666666669</ele><time>2026-05-03T10:10:17.493Z</time></trkpt><trkpt lat="43.5969508" lon="12.676077"><ele>220.33333333333334</ele><time>2026-05-03T10:10:18.492Z</time></trkpt><trkpt lat="43.5967536" lon="12.6760791"><ele>221.0</ele><time>2026-05-03T10:10:19.492Z</time></trkpt><trkpt lat="43.5965542" lon="12.6760804"><ele>221.0</ele><time>2026-05-03T10:10:20.494Z</time></trkpt><trkpt lat="43.5963577" lon="12.6760803"><ele>221.0</ele><time>2026-05-03T10:10:21.521Z</time></trkpt><trkpt lat="43.5961629" lon="12.6760785"><ele>221.0</ele><time>2026-05-03T10:10:22.494Z</time></trkpt><trkpt lat="43.5959693" lon="12.6760834"><ele>222.33333333333334</ele><time>2026-05-03T10:10:23.495Z</time></trkpt><trkpt lat="43.5957722" lon="12.6760864"><ele>223.66666666666669</ele><time>2026-05-03T10:10:24.495Z</time></trkpt><trkpt lat="43.5955811" lon="12.6760888"><ele>225.0</ele><time>2026-05-03T10:10:25.493Z</time></trkpt><trkpt lat="43.5953885" lon="12.676094"><ele>225.0</ele><time>2026-05-03T10:10:26.495Z</time></trkpt><trkpt lat="43.595196" lon="12.6760996"><ele>225.0</ele><time>2026-05-03T10:10:27.496Z</time></trkpt><trkpt lat="43.5950032" lon="12.6760992"><ele>225.0</ele><time>2026-05-03T10:10:28.495Z</time></trkpt><trkpt lat="43.5948153" lon="12.6761017"><ele>223.66666666666669</ele><time>2026-05-03T10:10:29.495Z</time></trkpt><trkpt lat="43.5946392" lon="12.6761062"><ele>222.33333333333334</ele><time>2026-05-03T10:10:30.495Z</time></trkpt><trkpt lat="43.5944687" lon="12.6761131"><ele>221.0</ele><time>2026-05-03T10:10:31.494Z</time></trkpt><trkpt lat="43.5943027" lon="12.6761176"><ele>220.33333333333334</ele><time>2026-05-03T10:10:32.496Z</time></trkpt><trkpt lat="43.5941353" lon="12.676121"><ele>219.66666666666669</ele><time>2026-05-03T10:10:33.493Z</time></trkpt><trkpt lat="43.5939687" lon="12.6761229"><ele>219.0</ele><time>2026-05-03T10:10:34.495Z</time></trkpt><trkpt lat="43.5938005" lon="12.6761263"><ele>218.33333333333331</ele><time>2026-05-03T10:10:35.495Z</time></trkpt><trkpt lat="43.5936361" lon="12.6761277"><ele>217.66666666666666</ele><time>2026-05-03T10:10:36.49Z</time></trkpt><trkpt lat="43.5934733" lon="12.6761318"><ele>217.0</ele><time>2026-05-03T10:10:37.494Z</time></trkpt><trkpt lat="43.5933065" lon="12.6761268"><ele>217.0</ele><time>2026-05-03T10:10:38.489Z</time></trkpt><trkpt lat="43.5931362" lon="12.6761193"><ele>217.0</ele><time>2026-05-03T10:10:39.495Z</time></trkpt><trkpt lat="43.5929721" lon="12.6761066"><ele>217.0</ele><time>2026-05-03T10:10:40.494Z</time></trkpt><trkpt lat="43.5928113" lon="12.6760866"><ele>218.33333333333331</ele><time>2026-05-03T10:10:41.494Z</time></trkpt><trkpt lat="43.5926528" lon="12.6760586"><ele>219.66666666666669</ele><time>2026-05-03T10:10:42.495Z</time></trkpt><trkpt lat="43.5924914" lon="12.6760266"><ele>221.0</ele><time>2026-05-03T10:10:43.495Z</time></trkpt><trkpt lat="43.5923325" lon="12.6759886"><ele>221.0</ele><time>2026-05-03T10:10:44.494Z</time></trkpt><trkpt lat="43.5921681" lon="12.6759429"><ele>221.0</ele><time>2026-05-03T10:10:45.495Z</time></trkpt><trkpt lat="43.5920055" lon="12.6758929"><ele>221.0</ele><time>2026-05-03T10:10:46.493Z</time></trkpt><trkpt lat="43.5918417" lon="12.6758402"><ele>221.66666666666669</ele><time>2026-05-03T10:10:47.491Z</time></trkpt><trkpt lat="43.5916735" lon="12.675781"><ele>222.33333333333331</ele><time>2026-05-03T10:10:48.492Z</time></trkpt><trkpt lat="43.591502" lon="12.6757179"><ele>223.0</ele><time>2026-05-03T10:10:49.493Z</time></trkpt><trkpt lat="43.5913248" lon="12.6756589"><ele>221.66666666666666</ele><time>2026-05-03T10:10:50.492Z</time></trkpt><trkpt lat="43.5911536" lon="12.6755975"><ele>220.33333333333331</ele><time>2026-05-03T10:10:51.492Z</time></trkpt><trkpt lat="43.5909816" lon="12.6755394"><ele>219.0</ele><time>2026-05-03T10:10:52.486Z</time></trkpt><trkpt lat="43.5908109" lon="12.6754807"><ele>219.0</ele><time>2026-05-03T10:10:53.492Z</time></trkpt><trkpt lat="43.5906396" lon="12.6754173"><ele>219.0</ele><time>2026-05-03T10:10:54.487Z</time></trkpt><trkpt lat="43.5904726" lon="12.6753579"><ele>219.0</ele><time>2026-05-03T10:10:55.491Z</time></trkpt><trkpt lat="43.5903081" lon="12.6752933"><ele>221.66666666666669</ele><time>2026-05-03T10:10:56.494Z</time></trkpt><trkpt lat="43.5901353" lon="12.6752275"><ele>224.33333333333334</ele><time>2026-05-03T10:10:57.493Z</time></trkpt><trkpt lat="43.5899662" lon="12.6751624"><ele>227.0</ele><time>2026-05-03T10:10:58.492Z</time></trkpt><trkpt lat="43.5897996" lon="12.6750962"><ele>227.0</ele><time>2026-05-03T10:10:59.492Z</time></trkpt><trkpt lat="43.5896317" lon="12.6750327"><ele>227.0</ele><time>2026-05-03T10:11:00.492Z</time></trkpt><trkpt lat="43.5894654" lon="12.674974"><ele>227.0</ele><time>2026-05-03T10:11:01.489Z</time></trkpt><trkpt lat="43.5892947" lon="12.6749071"><ele>227.0</ele><time>2026-05-03T10:11:02.494Z</time></trkpt><trkpt lat="43.5891178" lon="12.6748383"><ele>227.0</ele><time>2026-05-03T10:11:03.49Z</time></trkpt><trkpt lat="43.5889386" lon="12.6747672"><ele>227.0</ele><time>2026-05-03T10:11:04.492Z</time></trkpt><trkpt lat="43.5887477" lon="12.6746965"><ele>223.66666666666669</ele><time>2026-05-03T10:11:05.495Z</time></trkpt><trkpt lat="43.5885465" lon="12.6746229"><ele>220.33333333333331</ele><time>2026-05-03T10:11:06.495Z</time></trkpt><trkpt lat="43.5883366" lon="12.6745493"><ele>217.0</ele><time>2026-05-03T10:11:07.494Z</time></trkpt><trkpt lat="43.5881202" lon="12.6744751"><ele>222.5</ele><time>2026-05-03T10:11:08.492Z</time></trkpt><trkpt lat="43.587899" lon="12.6743981"><ele>228.0</ele><time>2026-05-03T10:11:09.493Z</time></trkpt><trkpt lat="43.5876758" lon="12.6743143"><ele>228.0</ele><time>2026-05-03T10:11:10.489Z</time></trkpt><trkpt lat="43.5874502" lon="12.674229"><ele>228.0</ele><time>2026-05-03T10:11:11.494Z</time></trkpt><trkpt lat="43.5872273" lon="12.6741473"><ele>225.0</ele><time>2026-05-03T10:11:12.494Z</time></trkpt><trkpt lat="43.5870005" lon="12.6740638"><ele>222.0</ele><time>2026-05-03T10:11:13.492Z</time></trkpt><trkpt lat="43.5867797" lon="12.6739856"><ele>222.0</ele><time>2026-05-03T10:11:14.493Z</time></trkpt><trkpt lat="43.5865635" lon="12.6739094"><ele>222.0</ele><time>2026-05-03T10:11:15.492Z</time></trkpt><trkpt lat="43.5863554" lon="12.6738318"><ele>222.0</ele><time>2026-05-03T10:11:16.493Z</time></trkpt><trkpt lat="43.5861455" lon="12.6737516"><ele>223.66666666666669</ele><time>2026-05-03T10:11:17.492Z</time></trkpt><trkpt lat="43.5859355" lon="12.6736757"><ele>225.33333333333334</ele><time>2026-05-03T10:11:18.495Z</time></trkpt><trkpt lat="43.5857281" lon="12.6736015"><ele>227.0</ele><time>2026-05-03T10:11:19.493Z</time></trkpt><trkpt lat="43.5855167" lon="12.673521"><ele>227.0</ele><time>2026-05-03T10:11:20.494Z</time></trkpt><trkpt lat="43.5853056" lon="12.6734431"><ele>227.0</ele><time>2026-05-03T10:11:21.493Z</time></trkpt><trkpt lat="43.5850931" lon="12.6733634"><ele>227.0</ele><time>2026-05-03T10:11:22.495Z</time></trkpt><trkpt lat="43.58488" lon="12.6732815"><ele>227.0</ele><time>2026-05-03T10:11:23.494Z</time></trkpt><trkpt lat="43.5846656" lon="12.6731902"><ele>227.0</ele><time>2026-05-03T10:11:24.491Z</time></trkpt><trkpt lat="43.5844575" lon="12.6730918"><ele>227.0</ele><time>2026-05-03T10:11:25.493Z</time></trkpt><trkpt lat="43.5842434" lon="12.6729877"><ele>227.0</ele><time>2026-05-03T10:11:26.493Z</time></trkpt><trkpt lat="43.5840335" lon="12.6728799"><ele>227.0</ele><time>2026-05-03T10:11:27.499Z</time></trkpt><trkpt lat="43.5838256" lon="12.6727623"><ele>227.0</ele><time>2026-05-03T10:11:28.496Z</time></trkpt><trkpt lat="43.5836165" lon="12.6726398"><ele>228.5</ele><time>2026-05-03T10:11:29.493Z</time></trkpt><trkpt lat="43.5834108" lon="12.6725082"><ele>230.0</ele><time>2026-05-03T10:11:30.496Z</time></trkpt><trkpt lat="43.5832085" lon="12.6723727"><ele>230.0</ele><time>2026-05-03T10:11:31.497Z</time></trkpt><trkpt lat="43.5830072" lon="12.6722261"><ele>230.0</ele><time>2026-05-03T10:11:32.492Z</time></trkpt><trkpt lat="43.5828083" lon="12.6720763"><ele>230.66666666666669</ele><time>2026-05-03T10:11:33.494Z</time></trkpt><trkpt lat="43.5826093" lon="12.6719292"><ele>231.33333333333331</ele><time>2026-05-03T10:11:34.496Z</time></trkpt><trkpt lat="43.5824143" lon="12.6717842"><ele>232.0</ele><time>2026-05-03T10:11:35.524Z</time></trkpt><trkpt lat="43.5822176" lon="12.6716343"><ele>230.5</ele><time>2026-05-03T10:11:36.493Z</time></trkpt><trkpt lat="43.5820141" lon="12.6714785"><ele>229.0</ele><time>2026-05-03T10:11:37.493Z</time></trkpt><trkpt lat="43.5818012" lon="12.6713129"><ele>229.0</ele><time>2026-05-03T10:11:38.494Z</time></trkpt><trkpt lat="43.5815825" lon="12.671146"><ele>229.0</ele><time>2026-05-03T10:11:39.495Z</time></trkpt><trkpt lat="43.5813594" lon="12.6709801"><ele>230.0</ele><time>2026-05-03T10:11:40.493Z</time></trkpt><trkpt lat="43.5811314" lon="12.6708114"><ele>231.0</ele><time>2026-05-03T10:11:41.494Z</time></trkpt><trkpt lat="43.5808983" lon="12.6706376"><ele>231.0</ele><time>2026-05-03T10:11:42.495Z</time></trkpt><trkpt lat="43.5806711" lon="12.6704734"><ele>231.0</ele><time>2026-05-03T10:11:43.494Z</time></trkpt><trkpt lat="43.5804428" lon="12.6703047"><ele>232.0</ele><time>2026-05-03T10:11:44.494Z</time></trkpt><trkpt lat="43.5802216" lon="12.6701411"><ele>233.0</ele><time>2026-05-03T10:11:45.493Z</time></trkpt><trkpt lat="43.5800031" lon="12.669976"><ele>233.0</ele><time>2026-05-03T10:11:46.496Z</time></trkpt><trkpt lat="43.5797884" lon="12.6698141"><ele>233.0</ele><time>2026-05-03T10:11:47.495Z</time></trkpt><trkpt lat="43.5795785" lon="12.6696551"><ele>234.0</ele><time>2026-05-03T10:11:48.494Z</time></trkpt><trkpt lat="43.5793722" lon="12.6694999"><ele>235.0</ele><time>2026-05-03T10:11:49.494Z</time></trkpt><trkpt lat="43.5791741" lon="12.6693481"><ele>234.5</ele><time>2026-05-03T10:11:50.495Z</time></trkpt><trkpt lat="43.5789701" lon="12.6691971"><ele>234.0</ele><time>2026-05-03T10:11:51.599Z</time></trkpt><trkpt lat="43.5785688" lon="12.6689003"><ele>234.0</ele><time>2026-05-03T10:11:53.493Z</time></trkpt><trkpt lat="43.5783827" lon="12.6687599"><ele>234.0</ele><time>2026-05-03T10:11:54.495Z</time></trkpt><trkpt lat="43.5782026" lon="12.6686262"><ele>234.0</ele><time>2026-05-03T10:11:55.494Z</time></trkpt><trkpt lat="43.5780289" lon="12.6684903"><ele>234.0</ele><time>2026-05-03T10:11:56.497Z</time></trkpt><trkpt lat="43.5778455" lon="12.6683553"><ele>234.0</ele><time>2026-05-03T10:11:57.494Z</time></trkpt><trkpt lat="43.5776479" lon="12.668204"><ele>234.0</ele><time>2026-05-03T10:11:58.493Z</time></trkpt><trkpt lat="43.5774433" lon="12.6680493"><ele>234.0</ele><time>2026-05-03T10:11:59.491Z</time></trkpt><trkpt lat="43.5772264" lon="12.6678841"><ele>234.0</ele><time>2026-05-03T10:12:00.493Z</time></trkpt><trkpt lat="43.5769959" lon="12.667708"><ele>235.0</ele><time>2026-05-03T10:12:01.494Z</time></trkpt><trkpt lat="43.576758" lon="12.6675268"><ele>236.0</ele><time>2026-05-03T10:12:02.495Z</time></trkpt><trkpt lat="43.57651" lon="12.6673412"><ele>236.0</ele><time>2026-05-03T10:12:03.492Z</time></trkpt><trkpt lat="43.5762623" lon="12.6671514"><ele>236.0</ele><time>2026-05-03T10:12:04.494Z</time></trkpt><trkpt lat="43.5760094" lon="12.6669592"><ele>237.5</ele><time>2026-05-03T10:12:05.494Z</time></trkpt><trkpt lat="43.5757567" lon="12.6667685"><ele>239.0</ele><time>2026-05-03T10:12:06.495Z</time></trkpt><trkpt lat="43.5755027" lon="12.6665806"><ele>237.5</ele><time>2026-05-03T10:12:07.493Z</time></trkpt><trkpt lat="43.5752614" lon="12.6664007"><ele>236.0</ele><time>2026-05-03T10:12:08.493Z</time></trkpt><trkpt lat="43.575027" lon="12.6662266"><ele>238.5</ele><time>2026-05-03T10:12:09.494Z</time></trkpt><trkpt lat="43.5748004" lon="12.6660531"><ele>241.0</ele><time>2026-05-03T10:12:10.494Z</time></trkpt><trkpt lat="43.5745827" lon="12.6658935"><ele>239.5</ele><time>2026-05-03T10:12:11.494Z</time></trkpt><trkpt lat="43.5743785" lon="12.6657412"><ele>238.0</ele><time>2026-05-03T10:12:12.494Z</time></trkpt><trkpt lat="43.5741751" lon="12.6655945"><ele>238.0</ele><time>2026-05-03T10:12:13.493Z</time></trkpt><trkpt lat="43.5739733" lon="12.6654369"><ele>238.0</ele><time>2026-05-03T10:12:14.495Z</time></trkpt><trkpt lat="43.5737671" lon="12.66528"><ele>235.5</ele><time>2026-05-03T10:12:15.493Z</time></trkpt><trkpt lat="43.5735534" lon="12.6651205"><ele>233.0</ele><time>2026-05-03T10:12:16.496Z</time></trkpt><trkpt lat="43.5733376" lon="12.664956"><ele>233.0</ele><time>2026-05-03T10:12:17.494Z</time></trkpt><trkpt lat="43.5731241" lon="12.664794"><ele>233.0</ele><time>2026-05-03T10:12:18.494Z</time></trkpt><trkpt lat="43.5729081" lon="12.6646312"><ele>233.5</ele><time>2026-05-03T10:12:19.494Z</time></trkpt><trkpt lat="43.5727026" lon="12.6644748"><ele>234.0</ele><time>2026-05-03T10:12:20.495Z</time></trkpt><trkpt lat="43.5724955" lon="12.6643205"><ele>237.0</ele><time>2026-05-03T10:12:21.496Z</time></trkpt><trkpt lat="43.5722896" lon="12.6641692"><ele>240.0</ele><time>2026-05-03T10:12:22.495Z</time></trkpt><trkpt lat="43.5720791" lon="12.6640154"><ele>240.0</ele><time>2026-05-03T10:12:23.494Z</time></trkpt><trkpt lat="43.5718593" lon="12.6638593"><ele>240.0</ele><time>2026-05-03T10:12:24.497Z</time></trkpt><trkpt lat="43.5716247" lon="12.6636919"><ele>240.5</ele><time>2026-05-03T10:12:25.493Z</time></trkpt><trkpt lat="43.5713889" lon="12.6635171"><ele>241.0</ele><time>2026-05-03T10:12:26.494Z</time></trkpt><trkpt lat="43.5711507" lon="12.6633387"><ele>241.0</ele><time>2026-05-03T10:12:27.494Z</time></trkpt><trkpt lat="43.5709114" lon="12.6631562"><ele>241.0</ele><time>2026-05-03T10:12:28.496Z</time></trkpt><trkpt lat="43.5706788" lon="12.6629745"><ele>241.0</ele><time>2026-05-03T10:12:29.493Z</time></trkpt><trkpt lat="43.5704517" lon="12.6627983"><ele>241.0</ele><time>2026-05-03T10:12:30.494Z</time></trkpt><trkpt lat="43.5702297" lon="12.6626342"><ele>243.5</ele><time>2026-05-03T10:12:31.493Z</time></trkpt><trkpt lat="43.5700002" lon="12.6624668"><ele>246.0</ele><time>2026-05-03T10:12:32.494Z</time></trkpt><trkpt lat="43.5697757" lon="12.6623026"><ele>246.0</ele><time>2026-05-03T10:12:33.492Z</time></trkpt><trkpt lat="43.5695476" lon="12.6621327"><ele>246.0</ele><time>2026-05-03T10:12:34.495Z</time></trkpt><trkpt lat="43.569324" lon="12.6619702"><ele>246.5</ele><time>2026-05-03T10:12:35.495Z</time></trkpt><trkpt lat="43.5691127" lon="12.6618097"><ele>247.0</ele><time>2026-05-03T10:12:36.494Z</time></trkpt><trkpt lat="43.5689006" lon="12.66165"><ele>246.5</ele><time>2026-05-03T10:12:37.493Z</time></trkpt><trkpt lat="43.5686836" lon="12.6614925"><ele>246.0</ele><time>2026-05-03T10:12:38.494Z</time></trkpt><trkpt lat="43.5684725" lon="12.6613425"><ele>246.0</ele><time>2026-05-03T10:12:39.495Z</time></trkpt><trkpt lat="43.5682584" lon="12.6611938"><ele>246.0</ele><time>2026-05-03T10:12:40.497Z</time></trkpt><trkpt lat="43.5680542" lon="12.6610526"><ele>247.5</ele><time>2026-05-03T10:12:41.494Z</time></trkpt><trkpt lat="43.5678457" lon="12.6609184"><ele>249.0</ele><time>2026-05-03T10:12:42.495Z</time></trkpt><trkpt lat="43.5676354" lon="12.6607785"><ele>249.0</ele><time>2026-05-03T10:12:43.494Z</time></trkpt><trkpt lat="43.5674279" lon="12.660644"><ele>249.0</ele><time>2026-05-03T10:12:44.495Z</time></trkpt><trkpt lat="43.5672309" lon="12.660512"><ele>249.0</ele><time>2026-05-03T10:12:45.492Z</time></trkpt><trkpt lat="43.5670347" lon="12.6603878"><ele>250.33333333333331</ele><time>2026-05-03T10:12:46.495Z</time></trkpt><trkpt lat="43.5668356" lon="12.6602595"><ele>251.66666666666666</ele><time>2026-05-03T10:12:47.49Z</time></trkpt><trkpt lat="43.5666379" lon="12.6601297"><ele>253.0</ele><time>2026-05-03T10:12:48.494Z</time></trkpt><trkpt lat="43.5664356" lon="12.6600003"><ele>253.0</ele><time>2026-05-03T10:12:49.494Z</time></trkpt><trkpt lat="43.5662335" lon="12.6598688"><ele>253.0</ele><time>2026-05-03T10:12:50.495Z</time></trkpt><trkpt lat="43.5660294" lon="12.6597364"><ele>253.0</ele><time>2026-05-03T10:12:51.494Z</time></trkpt><trkpt lat="43.565821" lon="12.6596049"><ele>252.0</ele><time>2026-05-03T10:12:52.494Z</time></trkpt><trkpt lat="43.5656116" lon="12.6594682"><ele>251.0</ele><time>2026-05-03T10:12:53.494Z</time></trkpt><trkpt lat="43.5654002" lon="12.6593225"><ele>251.0</ele><time>2026-05-03T10:12:54.495Z</time></trkpt><trkpt lat="43.5651967" lon="12.6591795"><ele>251.0</ele><time>2026-05-03T10:12:55.496Z</time></trkpt><trkpt lat="43.5650093" lon="12.6590345"><ele>251.0</ele><time>2026-05-03T10:12:56.497Z</time></trkpt><trkpt lat="43.5648294" lon="12.6588785"><ele>251.0</ele><time>2026-05-03T10:12:57.495Z</time></trkpt><trkpt lat="43.5646573" lon="12.6587136"><ele>251.0</ele><time>2026-05-03T10:12:58.494Z</time></trkpt><trkpt lat="43.5644954" lon="12.6585448"><ele>251.0</ele><time>2026-05-03T10:12:59.495Z</time></trkpt><trkpt lat="43.5643441" lon="12.6583626"><ele>251.0</ele><time>2026-05-03T10:13:00.496Z</time></trkpt><trkpt lat="43.5641945" lon="12.6581727"><ele>251.0</ele><time>2026-05-03T10:13:01.489Z</time></trkpt><trkpt lat="43.5640515" lon="12.6579629"><ele>251.0</ele><time>2026-05-03T10:13:02.495Z</time></trkpt><trkpt lat="43.5639214" lon="12.6577339"><ele>251.33333333333334</ele><time>2026-05-03T10:13:03.489Z</time></trkpt><trkpt lat="43.5638125" lon="12.6574883"><ele>251.66666666666669</ele><time>2026-05-03T10:13:04.496Z</time></trkpt><trkpt lat="43.5637202" lon="12.6572231"><ele>252.0</ele><time>2026-05-03T10:13:05.494Z</time></trkpt><trkpt lat="43.5636422" lon="12.6569536"><ele>250.0</ele><time>2026-05-03T10:13:06.499Z</time></trkpt><trkpt lat="43.563573" lon="12.6566896"><ele>248.0</ele><time>2026-05-03T10:13:07.495Z</time></trkpt><trkpt lat="43.5635135" lon="12.6564102"><ele>246.0</ele><time>2026-05-03T10:13:08.494Z</time></trkpt><trkpt lat="43.5634631" lon="12.6561347"><ele>245.33333333333331</ele><time>2026-05-03T10:13:09.495Z</time></trkpt><trkpt lat="43.5634141" lon="12.6558631"><ele>244.66666666666666</ele><time>2026-05-03T10:13:10.495Z</time></trkpt><trkpt lat="43.5633557" lon="12.6555914"><ele>244.0</ele><time>2026-05-03T10:13:11.493Z</time></trkpt><trkpt lat="43.5632877" lon="12.6553229"><ele>244.33333333333331</ele><time>2026-05-03T10:13:12.494Z</time></trkpt><trkpt lat="43.5632049" lon="12.6550642"><ele>244.66666666666669</ele><time>2026-05-03T10:13:13.493Z</time></trkpt><trkpt lat="43.5631099" lon="12.6548107"><ele>245.0</ele><time>2026-05-03T10:13:14.497Z</time></trkpt><trkpt lat="43.5629997" lon="12.6545677"><ele>247.33333333333334</ele><time>2026-05-03T10:13:15.495Z</time></trkpt><trkpt lat="43.5628748" lon="12.6543366"><ele>249.66666666666669</ele><time>2026-05-03T10:13:16.498Z</time></trkpt><trkpt lat="43.5627386" lon="12.6541156"><ele>252.0</ele><time>2026-05-03T10:13:17.49Z</time></trkpt><trkpt lat="43.5625923" lon="12.6539058"><ele>252.0</ele><time>2026-05-03T10:13:18.497Z</time></trkpt><trkpt lat="43.5624326" lon="12.6537075"><ele>252.0</ele><time>2026-05-03T10:13:19.488Z</time></trkpt><trkpt lat="43.5622608" lon="12.6535156"><ele>252.0</ele><time>2026-05-03T10:13:20.494Z</time></trkpt><trkpt lat="43.5620719" lon="12.6533261"><ele>253.5</ele><time>2026-05-03T10:13:21.495Z</time></trkpt><trkpt lat="43.5618725" lon="12.6531444"><ele>255.0</ele><time>2026-05-03T10:13:22.494Z</time></trkpt><trkpt lat="43.5616633" lon="12.6529671"><ele>258.0</ele><time>2026-05-03T10:13:23.494Z</time></trkpt><trkpt lat="43.5614469" lon="12.6527861"><ele>261.0</ele><time>2026-05-03T10:13:24.495Z</time></trkpt><trkpt lat="43.5612327" lon="12.6526102"><ele>260.0</ele><time>2026-05-03T10:13:25.495Z</time></trkpt><trkpt lat="43.5610166" lon="12.6524346"><ele>259.0</ele><time>2026-05-03T10:13:26.494Z</time></trkpt><trkpt lat="43.5608008" lon="12.6522616"><ele>259.0</ele><time>2026-05-03T10:13:27.494Z</time></trkpt><trkpt lat="43.5605897" lon="12.652093"><ele>259.0</ele><time>2026-05-03T10:13:28.496Z</time></trkpt><trkpt lat="43.560386" lon="12.6519262"><ele>263.5</ele><time>2026-05-03T10:13:29.494Z</time></trkpt><trkpt lat="43.5601924" lon="12.6517494"><ele>268.0</ele><time>2026-05-03T10:13:30.495Z</time></trkpt><trkpt lat="43.5600063" lon="12.6515681"><ele>268.0</ele><time>2026-05-03T10:13:31.494Z</time></trkpt><trkpt lat="43.5598322" lon="12.6513856"><ele>268.0</ele><time>2026-05-03T10:13:32.495Z</time></trkpt><trkpt lat="43.5596643" lon="12.6511961"><ele>268.0</ele><time>2026-05-03T10:13:33.491Z</time></trkpt><trkpt lat="43.559494" lon="12.6510036"><ele>268.3333333333333</ele><time>2026-05-03T10:13:34.495Z</time></trkpt><trkpt lat="43.559333" lon="12.6508062"><ele>268.6666666666667</ele><time>2026-05-03T10:13:35.494Z</time></trkpt><trkpt lat="43.5591746" lon="12.6506059"><ele>269.0</ele><time>2026-05-03T10:13:36.494Z</time></trkpt><trkpt lat="43.5590195" lon="12.6504038"><ele>270.33333333333337</ele><time>2026-05-03T10:13:37.494Z</time></trkpt><trkpt lat="43.5588713" lon="12.6501972"><ele>271.6666666666667</ele><time>2026-05-03T10:13:38.495Z</time></trkpt><trkpt lat="43.5587281" lon="12.6499896"><ele>273.0</ele><time>2026-05-03T10:13:39.495Z</time></trkpt><trkpt lat="43.5585897" lon="12.6497814"><ele>273.0</ele><time>2026-05-03T10:13:40.495Z</time></trkpt><trkpt lat="43.5584498" lon="12.6495671"><ele>273.0</ele><time>2026-05-03T10:13:41.494Z</time></trkpt><trkpt lat="43.5583148" lon="12.6493514"><ele>273.0</ele><time>2026-05-03T10:13:42.496Z</time></trkpt><trkpt lat="43.558173" lon="12.6491327"><ele>274.6666666666667</ele><time>2026-05-03T10:13:43.494Z</time></trkpt><trkpt lat="43.5580333" lon="12.6489147"><ele>276.33333333333337</ele><time>2026-05-03T10:13:44.495Z</time></trkpt><trkpt lat="43.5578886" lon="12.6486995"><ele>278.0</ele><time>2026-05-03T10:13:45.494Z</time></trkpt><trkpt lat="43.5577417" lon="12.6484779"><ele>278.0</ele><time>2026-05-03T10:13:46.494Z</time></trkpt><trkpt lat="43.5576016" lon="12.6482647"><ele>278.0</ele><time>2026-05-03T10:13:47.494Z</time></trkpt><trkpt lat="43.5574675" lon="12.6480564"><ele>278.0</ele><time>2026-05-03T10:13:48.495Z</time></trkpt><trkpt lat="43.5573336" lon="12.6478486"><ele>278.6666666666667</ele><time>2026-05-03T10:13:49.492Z</time></trkpt><trkpt lat="43.5571994" lon="12.6476442"><ele>279.3333333333333</ele><time>2026-05-03T10:13:50.495Z</time></trkpt><trkpt lat="43.5570632" lon="12.6474423"><ele>280.0</ele><time>2026-05-03T10:13:51.494Z</time></trkpt><trkpt lat="43.5569215" lon="12.6472454"><ele>280.0</ele><time>2026-05-03T10:13:52.494Z</time></trkpt><trkpt lat="43.556764" lon="12.6470505"><ele>280.0</ele><time>2026-05-03T10:13:53.495Z</time></trkpt><trkpt lat="43.5565911" lon="12.6468692"><ele>280.0</ele><time>2026-05-03T10:13:54.495Z</time></trkpt><trkpt lat="43.5563996" lon="12.6466849"><ele>282.5</ele><time>2026-05-03T10:13:55.494Z</time></trkpt><trkpt lat="43.5561993" lon="12.6464932"><ele>285.0</ele><time>2026-05-03T10:13:56.494Z</time></trkpt><trkpt lat="43.5559799" lon="12.64628"><ele>294.0</ele><time>2026-05-03T10:13:57.546Z</time></trkpt><trkpt lat="43.5557657" lon="12.6460634"><ele>303.0</ele><time>2026-05-03T10:13:58.494Z</time></trkpt><trkpt lat="43.5555538" lon="12.6458541"><ele>291.5</ele><time>2026-05-03T10:13:59.494Z</time></trkpt><trkpt lat="43.5553382" lon="12.6456495"><ele>280.0</ele><time>2026-05-03T10:14:00.495Z</time></trkpt><trkpt lat="43.5551215" lon="12.6454562"><ele>283.5</ele><time>2026-05-03T10:14:01.493Z</time></trkpt><trkpt lat="43.5549037" lon="12.6452693"><ele>287.0</ele><time>2026-05-03T10:14:02.494Z</time></trkpt><trkpt lat="43.5546813" lon="12.6450916"><ele>281.5</ele><time>2026-05-03T10:14:03.495Z</time></trkpt><trkpt lat="43.5544608" lon="12.6449236"><ele>276.0</ele><time>2026-05-03T10:14:04.495Z</time></trkpt><trkpt lat="43.5542363" lon="12.6447615"><ele>276.0</ele><time>2026-05-03T10:14:05.493Z</time></trkpt><trkpt lat="43.5540072" lon="12.6446"><ele>276.0</ele><time>2026-05-03T10:14:06.495Z</time></trkpt><trkpt lat="43.55378" lon="12.6444354"><ele>276.0</ele><time>2026-05-03T10:14:07.494Z</time></trkpt><trkpt lat="43.5535517" lon="12.644277"><ele>276.0</ele><time>2026-05-03T10:14:08.494Z</time></trkpt><trkpt lat="43.5533265" lon="12.6441179"><ele>276.0</ele><time>2026-05-03T10:14:09.495Z</time></trkpt><trkpt lat="43.5531005" lon="12.6439622"><ele>276.0</ele><time>2026-05-03T10:14:10.495Z</time></trkpt><trkpt lat="43.5528757" lon="12.6438048"><ele>276.5</ele><time>2026-05-03T10:14:11.493Z</time></trkpt><trkpt lat="43.5526522" lon="12.6436471"><ele>277.0</ele><time>2026-05-03T10:14:12.494Z</time></trkpt><trkpt lat="43.5524299" lon="12.6434879"><ele>277.0</ele><time>2026-05-03T10:14:13.495Z</time></trkpt><trkpt lat="43.5522109" lon="12.6433323"><ele>277.0</ele><time>2026-05-03T10:14:14.494Z</time></trkpt><trkpt lat="43.5519886" lon="12.6431753"><ele>277.0</ele><time>2026-05-03T10:14:15.495Z</time></trkpt><trkpt lat="43.5517649" lon="12.6430127"><ele>277.0</ele><time>2026-05-03T10:14:16.494Z</time></trkpt><trkpt lat="43.5515382" lon="12.642854"><ele>276.5</ele><time>2026-05-03T10:14:17.494Z</time></trkpt><trkpt lat="43.551312" lon="12.642697"><ele>276.0</ele><time>2026-05-03T10:14:18.494Z</time></trkpt><trkpt lat="43.5510861" lon="12.6425354"><ele>276.0</ele><time>2026-05-03T10:14:19.494Z</time></trkpt><trkpt lat="43.5508537" lon="12.6423734"><ele>276.0</ele><time>2026-05-03T10:14:20.494Z</time></trkpt><trkpt lat="43.5506223" lon="12.6422085"><ele>276.0</ele><time>2026-05-03T10:14:21.493Z</time></trkpt><trkpt lat="43.5503904" lon="12.6420508"><ele>276.0</ele><time>2026-05-03T10:14:22.494Z</time></trkpt><trkpt lat="43.5501597" lon="12.6418865"><ele>277.0</ele><time>2026-05-03T10:14:23.494Z</time></trkpt><trkpt lat="43.5499267" lon="12.6417243"><ele>278.0</ele><time>2026-05-03T10:14:24.495Z</time></trkpt><trkpt lat="43.5496943" lon="12.6415598"><ele>275.5</ele><time>2026-05-03T10:14:25.495Z</time></trkpt><trkpt lat="43.549461" lon="12.6414"><ele>273.0</ele><time>2026-05-03T10:14:26.494Z</time></trkpt><trkpt lat="43.5492366" lon="12.6412449"><ele>275.0</ele><time>2026-05-03T10:14:27.493Z</time></trkpt><trkpt lat="43.5490197" lon="12.6410913"><ele>277.0</ele><time>2026-05-03T10:14:28.495Z</time></trkpt><trkpt lat="43.548807" lon="12.640939"><ele>274.0</ele><time>2026-05-03T10:14:29.495Z</time></trkpt><trkpt lat="43.5485885" lon="12.6407855"><ele>271.0</ele><time>2026-05-03T10:14:30.494Z</time></trkpt><trkpt lat="43.5483769" lon="12.6406389"><ele>271.0</ele><time>2026-05-03T10:14:31.494Z</time></trkpt><trkpt lat="43.5481699" lon="12.6404905"><ele>271.0</ele><time>2026-05-03T10:14:32.498Z</time></trkpt><trkpt lat="43.5479631" lon="12.6403371"><ele>272.5</ele><time>2026-05-03T10:14:33.494Z</time></trkpt><trkpt lat="43.5477631" lon="12.6401959"><ele>274.0</ele><time>2026-05-03T10:14:34.495Z</time></trkpt><trkpt lat="43.5475524" lon="12.6400538"><ele>274.0</ele><time>2026-05-03T10:14:35.492Z</time></trkpt><trkpt lat="43.5473404" lon="12.6399149"><ele>274.0</ele><time>2026-05-03T10:14:36.495Z</time></trkpt><trkpt lat="43.5471292" lon="12.6397915"><ele>271.0</ele><time>2026-05-03T10:14:37.495Z</time></trkpt><trkpt lat="43.5469163" lon="12.6396757"><ele>268.0</ele><time>2026-05-03T10:14:38.495Z</time></trkpt><trkpt lat="43.5467031" lon="12.6395686"><ele>268.0</ele><time>2026-05-03T10:14:39.495Z</time></trkpt><trkpt lat="43.546485" lon="12.6394757"><ele>268.0</ele><time>2026-05-03T10:14:40.495Z</time></trkpt><trkpt lat="43.5462649" lon="12.6394033"><ele>266.5</ele><time>2026-05-03T10:14:41.493Z</time></trkpt><trkpt lat="43.54604" lon="12.6393443"><ele>265.0</ele><time>2026-05-03T10:14:42.495Z</time></trkpt><trkpt lat="43.5458206" lon="12.6392996"><ele>265.0</ele><time>2026-05-03T10:14:43.494Z</time></trkpt><trkpt lat="43.5456003" lon="12.6392692"><ele>265.0</ele><time>2026-05-03T10:14:44.497Z</time></trkpt><trkpt lat="43.545379" lon="12.6392535"><ele>265.0</ele><time>2026-05-03T10:14:45.495Z</time></trkpt><trkpt lat="43.5451551" lon="12.6392531"><ele>265.0</ele><time>2026-05-03T10:14:46.493Z</time></trkpt><trkpt lat="43.5449322" lon="12.6392674"><ele>265.0</ele><time>2026-05-03T10:14:47.497Z</time></trkpt><trkpt lat="43.5447149" lon="12.6392947"><ele>265.0</ele><time>2026-05-03T10:14:48.498Z</time></trkpt><trkpt lat="43.544504" lon="12.6393366"><ele>265.0</ele><time>2026-05-03T10:14:49.497Z</time></trkpt><trkpt lat="43.5442965" lon="12.6393917"><ele>265.0</ele><time>2026-05-03T10:14:50.495Z</time></trkpt><trkpt lat="43.5440927" lon="12.6394578"><ele>265.0</ele><time>2026-05-03T10:14:51.494Z</time></trkpt><trkpt lat="43.5438859" lon="12.6395359"><ele>267.66666666666663</ele><time>2026-05-03T10:14:52.496Z</time></trkpt><trkpt lat="43.543688" lon="12.6396339"><ele>270.3333333333333</ele><time>2026-05-03T10:14:53.494Z</time></trkpt><trkpt lat="43.5434988" lon="12.6397445"><ele>273.0</ele><time>2026-05-03T10:14:54.496Z</time></trkpt><trkpt lat="43.5433136" lon="12.6398619"><ele>273.0</ele><time>2026-05-03T10:14:55.49Z</time></trkpt><trkpt lat="43.5431349" lon="12.63999"><ele>273.0</ele><time>2026-05-03T10:14:56.499Z</time></trkpt><trkpt lat="43.5429603" lon="12.6401247"><ele>273.0</ele><time>2026-05-03T10:14:57.495Z</time></trkpt><trkpt lat="43.542786" lon="12.6402699"><ele>270.3333333333333</ele><time>2026-05-03T10:14:58.494Z</time></trkpt><trkpt lat="43.5426171" lon="12.6404166"><ele>267.66666666666663</ele><time>2026-05-03T10:14:59.49Z</time></trkpt><trkpt lat="43.5424518" lon="12.6405695"><ele>265.0</ele><time>2026-05-03T10:15:00.491Z</time></trkpt><trkpt lat="43.5373394" lon="12.6460156"><ele>265.0</ele><time>2026-05-03T10:15:32.496Z</time></trkpt><trkpt lat="43.5371677" lon="12.6461024"><ele>265.0</ele><time>2026-05-03T10:15:33.495Z</time></trkpt><trkpt lat="43.5369925" lon="12.6461774"><ele>265.0</ele><time>2026-05-03T10:15:34.499Z</time></trkpt><trkpt lat="43.5368153" lon="12.6462612"><ele>270.3333333333333</ele><time>2026-05-03T10:15:35.495Z</time></trkpt><trkpt lat="43.5366425" lon="12.6463363"><ele>275.6666666666667</ele><time>2026-05-03T10:15:36.499Z</time></trkpt><trkpt lat="43.5364648" lon="12.6464102"><ele>281.0</ele><time>2026-05-03T10:15:37.498Z</time></trkpt><trkpt lat="43.5362859" lon="12.6464767"><ele>279.6666666666667</ele><time>2026-05-03T10:15:38.498Z</time></trkpt><trkpt lat="43.536096" lon="12.6465385"><ele>278.3333333333333</ele><time>2026-05-03T10:15:39.496Z</time></trkpt><trkpt lat="43.535896" lon="12.6465987"><ele>277.0</ele><time>2026-05-03T10:15:40.495Z</time></trkpt><trkpt lat="43.5356765" lon="12.6466585"><ele>277.0</ele><time>2026-05-03T10:15:41.496Z</time></trkpt><trkpt lat="43.5354356" lon="12.6466948"><ele>277.0</ele><time>2026-05-03T10:15:42.492Z</time></trkpt><trkpt lat="43.5351986" lon="12.6467218"><ele>278.0</ele><time>2026-05-03T10:15:43.496Z</time></trkpt><trkpt lat="43.5349682" lon="12.6467315"><ele>279.0</ele><time>2026-05-03T10:15:44.497Z</time></trkpt><trkpt lat="43.5347389" lon="12.6467229"><ele>278.0</ele><time>2026-05-03T10:15:45.496Z</time></trkpt><trkpt lat="43.5345084" lon="12.6467006"><ele>277.0</ele><time>2026-05-03T10:15:46.495Z</time></trkpt><trkpt lat="43.5342871" lon="12.6466633"><ele>277.0</ele><time>2026-05-03T10:15:47.496Z</time></trkpt><trkpt lat="43.5340717" lon="12.6466101"><ele>277.0</ele><time>2026-05-03T10:15:48.497Z</time></trkpt><trkpt lat="43.5338499" lon="12.646553"><ele>277.0</ele><time>2026-05-03T10:15:49.497Z</time></trkpt><trkpt lat="43.5336132" lon="12.646469"><ele>276.5</ele><time>2026-05-03T10:15:50.496Z</time></trkpt><trkpt lat="43.53337" lon="12.6463583"><ele>276.0</ele><time>2026-05-03T10:15:51.496Z</time></trkpt><trkpt lat="43.5331463" lon="12.6462348"><ele>281.5</ele><time>2026-05-03T10:15:52.496Z</time></trkpt><trkpt lat="43.5329326" lon="12.6460956"><ele>287.0</ele><time>2026-05-03T10:15:53.495Z</time></trkpt><trkpt lat="43.532729" lon="12.6459423"><ele>287.0</ele><time>2026-05-03T10:15:54.5Z</time></trkpt><trkpt lat="43.5325322" lon="12.6457814"><ele>287.0</ele><time>2026-05-03T10:15:55.495Z</time></trkpt><trkpt lat="43.5323405" lon="12.645604"><ele>287.0</ele><time>2026-05-03T10:15:56.495Z</time></trkpt><trkpt lat="43.5321492" lon="12.6454129"><ele>287.0</ele><time>2026-05-03T10:15:57.495Z</time></trkpt><trkpt lat="43.5319579" lon="12.6452122"><ele>290.0</ele><time>2026-05-03T10:15:58.494Z</time></trkpt><trkpt lat="43.5317702" lon="12.6450021"><ele>293.0</ele><time>2026-05-03T10:15:59.499Z</time></trkpt><trkpt lat="43.5315881" lon="12.6447892"><ele>293.0</ele><time>2026-05-03T10:16:00.495Z</time></trkpt><trkpt lat="43.5314074" lon="12.6445729"><ele>293.0</ele><time>2026-05-03T10:16:01.496Z</time></trkpt><trkpt lat="43.5312316" lon="12.6443574"><ele>292.5</ele><time>2026-05-03T10:16:02.495Z</time></trkpt><trkpt lat="43.5310511" lon="12.644141"><ele>292.0</ele><time>2026-05-03T10:16:03.496Z</time></trkpt><trkpt lat="43.5308754" lon="12.6439352"><ele>292.0</ele><time>2026-05-03T10:16:04.497Z</time></trkpt><trkpt lat="43.5306928" lon="12.6437381"><ele>292.0</ele><time>2026-05-03T10:16:05.497Z</time></trkpt><trkpt lat="43.5305007" lon="12.6435439"><ele>289.5</ele><time>2026-05-03T10:16:06.497Z</time></trkpt><trkpt lat="43.5303015" lon="12.6433611"><ele>287.0</ele><time>2026-05-03T10:16:07.497Z</time></trkpt><trkpt lat="43.5300808" lon="12.6431775"><ele>287.0</ele><time>2026-05-03T10:16:08.498Z</time></trkpt><trkpt lat="43.5298519" lon="12.6429934"><ele>287.0</ele><time>2026-05-03T10:16:09.496Z</time></trkpt><trkpt lat="43.5296174" lon="12.6427933"><ele>291.5</ele><time>2026-05-03T10:16:10.499Z</time></trkpt><trkpt lat="43.5293898" lon="12.6425885"><ele>296.0</ele><time>2026-05-03T10:16:11.496Z</time></trkpt><trkpt lat="43.5291744" lon="12.6423928"><ele>296.0</ele><time>2026-05-03T10:16:12.502Z</time></trkpt><trkpt lat="43.5289536" lon="12.6422022"><ele>296.0</ele><time>2026-05-03T10:16:13.498Z</time></trkpt><trkpt lat="43.5287348" lon="12.6420177"><ele>300.5</ele><time>2026-05-03T10:16:14.492Z</time></trkpt><trkpt lat="43.5285106" lon="12.6418379"><ele>305.0</ele><time>2026-05-03T10:16:15.498Z</time></trkpt><trkpt lat="43.5282924" lon="12.6416574"><ele>305.0</ele><time>2026-05-03T10:16:16.495Z</time></trkpt><trkpt lat="43.5280755" lon="12.6414809"><ele>305.0</ele><time>2026-05-03T10:16:17.493Z</time></trkpt><trkpt lat="43.5278593" lon="12.6413145"><ele>308.5</ele><time>2026-05-03T10:16:18.501Z</time></trkpt><trkpt lat="43.5276374" lon="12.6411621"><ele>312.0</ele><time>2026-05-03T10:16:19.494Z</time></trkpt><trkpt lat="43.5274075" lon="12.6410368"><ele>312.0</ele><time>2026-05-03T10:16:20.498Z</time></trkpt><trkpt lat="43.5271722" lon="12.6409435"><ele>312.0</ele><time>2026-05-03T10:16:21.497Z</time></trkpt><trkpt lat="43.5269342" lon="12.6408849"><ele>307.5</ele><time>2026-05-03T10:16:22.497Z</time></trkpt><trkpt lat="43.5266882" lon="12.6408604"><ele>303.0</ele><time>2026-05-03T10:16:23.498Z</time></trkpt><trkpt lat="43.5264447" lon="12.6408752"><ele>307.0</ele><time>2026-05-03T10:16:24.501Z</time></trkpt><trkpt lat="43.5262013" lon="12.6409274"><ele>311.0</ele><time>2026-05-03T10:16:25.497Z</time></trkpt><trkpt lat="43.5259622" lon="12.6410103"><ele>311.0</ele><time>2026-05-03T10:16:26.497Z</time></trkpt><trkpt lat="43.5257302" lon="12.6411321"><ele>311.0</ele><time>2026-05-03T10:16:27.498Z</time></trkpt><trkpt lat="43.5255076" lon="12.6412901"><ele>307.0</ele><time>2026-05-03T10:16:28.497Z</time></trkpt><trkpt lat="43.5252947" lon="12.641472"><ele>303.0</ele><time>2026-05-03T10:16:29.496Z</time></trkpt><trkpt lat="43.5250873" lon="12.641665"><ele>303.0</ele><time>2026-05-03T10:16:30.497Z</time></trkpt><trkpt lat="43.524882" lon="12.6418602"><ele>303.0</ele><time>2026-05-03T10:16:31.498Z</time></trkpt><trkpt lat="43.5246823" lon="12.6420525"><ele>306.0</ele><time>2026-05-03T10:16:32.493Z</time></trkpt><trkpt lat="43.5244858" lon="12.6422426"><ele>309.0</ele><time>2026-05-03T10:16:33.5Z</time></trkpt><trkpt lat="43.5242887" lon="12.6424319"><ele>309.0</ele><time>2026-05-03T10:16:34.495Z</time></trkpt><trkpt lat="43.5240913" lon="12.6426218"><ele>309.0</ele><time>2026-05-03T10:16:35.498Z</time></trkpt><trkpt lat="43.5234047" lon="12.6429913"><ele>302.0</ele><time>2026-05-03T10:16:38.499Z</time></trkpt><trkpt lat="43.5231655" lon="12.6430909"><ele>295.0</ele><time>2026-05-03T10:16:39.498Z</time></trkpt><trkpt lat="43.5229196" lon="12.643155"><ele>300.0</ele><time>2026-05-03T10:16:40.497Z</time></trkpt><trkpt lat="43.5226663" lon="12.6432071"><ele>305.0</ele><time>2026-05-03T10:16:41.498Z</time></trkpt><trkpt lat="43.5224179" lon="12.6432304"><ele>305.0</ele><time>2026-05-03T10:16:42.496Z</time></trkpt><trkpt lat="43.5221651" lon="12.6432253"><ele>305.0</ele><time>2026-05-03T10:16:43.497Z</time></trkpt><trkpt lat="43.5219155" lon="12.6431969"><ele>303.5</ele><time>2026-05-03T10:16:44.498Z</time></trkpt><trkpt lat="43.5216661" lon="12.6431484"><ele>302.0</ele><time>2026-05-03T10:16:45.498Z</time></trkpt><trkpt lat="43.5214229" lon="12.6430719"><ele>298.5</ele><time>2026-05-03T10:16:46.498Z</time></trkpt><trkpt lat="43.5211792" lon="12.6429723"><ele>295.0</ele><time>2026-05-03T10:16:47.49Z</time></trkpt><trkpt lat="43.5209366" lon="12.6428615"><ele>300.5</ele><time>2026-05-03T10:16:48.494Z</time></trkpt><trkpt lat="43.5206959" lon="12.6427353"><ele>306.0</ele><time>2026-05-03T10:16:49.497Z</time></trkpt><trkpt lat="43.5204623" lon="12.6425831"><ele>304.5</ele><time>2026-05-03T10:16:50.5Z</time></trkpt><trkpt lat="43.5202357" lon="12.6424076"><ele>303.0</ele><time>2026-05-03T10:16:51.497Z</time></trkpt><trkpt lat="43.5200052" lon="12.6422485"><ele>303.0</ele><time>2026-05-03T10:16:52.496Z</time></trkpt><trkpt lat="43.5197741" lon="12.6420829"><ele>303.0</ele><time>2026-05-03T10:16:53.492Z</time></trkpt><trkpt lat="43.5195464" lon="12.6419168"><ele>305.0</ele><time>2026-05-03T10:16:54.497Z</time></trkpt><trkpt lat="43.5193215" lon="12.6417453"><ele>307.0</ele><time>2026-05-03T10:16:55.497Z</time></trkpt><trkpt lat="43.5190954" lon="12.6415771"><ele>307.0</ele><time>2026-05-03T10:16:56.497Z</time></trkpt><trkpt lat="43.5188698" lon="12.64141"><ele>307.0</ele><time>2026-05-03T10:16:57.496Z</time></trkpt><trkpt lat="43.5186444" lon="12.6412461"><ele>303.5</ele><time>2026-05-03T10:16:58.498Z</time></trkpt><trkpt lat="43.5184191" lon="12.6410944"><ele>300.0</ele><time>2026-05-03T10:16:59.497Z</time></trkpt><trkpt lat="43.5181849" lon="12.6409504"><ele>300.0</ele><time>2026-05-03T10:17:00.497Z</time></trkpt><trkpt lat="43.5179559" lon="12.6408211"><ele>300.0</ele><time>2026-05-03T10:17:01.497Z</time></trkpt><trkpt lat="43.51772" lon="12.6407081"><ele>304.5</ele><time>2026-05-03T10:17:02.498Z</time></trkpt><trkpt lat="43.5174782" lon="12.6406042"><ele>309.0</ele><time>2026-05-03T10:17:03.496Z</time></trkpt><trkpt lat="43.5172405" lon="12.640512"><ele>311.0</ele><time>2026-05-03T10:17:04.499Z</time></trkpt><trkpt lat="43.5170039" lon="12.6404339"><ele>313.0</ele><time>2026-05-03T10:17:05.493Z</time></trkpt><trkpt lat="43.516766" lon="12.6403768"><ele>313.0</ele><time>2026-05-03T10:17:06.496Z</time></trkpt><trkpt lat="43.5165242" lon="12.6403263"><ele>313.0</ele><time>2026-05-03T10:17:07.496Z</time></trkpt><trkpt lat="43.5162803" lon="12.6402838"><ele>317.5</ele><time>2026-05-03T10:17:08.498Z</time></trkpt><trkpt lat="43.5160364" lon="12.6402393"><ele>322.0</ele><time>2026-05-03T10:17:09.497Z</time></trkpt><trkpt lat="43.5157929" lon="12.6401937"><ele>339.0</ele><time>2026-05-03T10:17:10.498Z</time></trkpt><trkpt lat="43.5137843" lon="12.6405063"><ele>337.5</ele><time>2026-05-03T10:17:18.497Z</time></trkpt><trkpt lat="43.5135083" lon="12.6405397"><ele>336.0</ele><time>2026-05-03T10:17:19.494Z</time></trkpt><trkpt lat="43.5132532" lon="12.6405418"><ele>336.0</ele><time>2026-05-03T10:17:20.494Z</time></trkpt><trkpt lat="43.5130214" lon="12.6405424"><ele>336.0</ele><time>2026-05-03T10:17:21.497Z</time></trkpt><trkpt lat="43.5127917" lon="12.6405242"><ele>337.5</ele><time>2026-05-03T10:17:22.498Z</time></trkpt><trkpt lat="43.5125643" lon="12.6404842"><ele>339.0</ele><time>2026-05-03T10:17:23.498Z</time></trkpt><trkpt lat="43.5123363" lon="12.6404214"><ele>339.0</ele><time>2026-05-03T10:17:24.499Z</time></trkpt><trkpt lat="43.5121016" lon="12.6403569"><ele>339.0</ele><time>2026-05-03T10:17:25.495Z</time></trkpt><trkpt lat="43.5118714" lon="12.6402618"><ele>327.0</ele><time>2026-05-03T10:17:26.5Z</time></trkpt><trkpt lat="43.5116485" lon="12.6401453"><ele>315.0</ele><time>2026-05-03T10:17:27.497Z</time></trkpt><trkpt lat="43.511431" lon="12.6400156"><ele>315.5</ele><time>2026-05-03T10:17:28.497Z</time></trkpt><trkpt lat="43.5112165" lon="12.6398711"><ele>316.0</ele><time>2026-05-03T10:17:29.496Z</time></trkpt><trkpt lat="43.5110224" lon="12.6397293"><ele>316.0</ele><time>2026-05-03T10:17:30.496Z</time></trkpt><trkpt lat="43.5108169" lon="12.6395475"><ele>316.0</ele><time>2026-05-03T10:17:31.497Z</time></trkpt><trkpt lat="43.5106266" lon="12.6393809"><ele>315.66666666666663</ele><time>2026-05-03T10:17:32.498Z</time></trkpt><trkpt lat="43.5104362" lon="12.6392139"><ele>315.3333333333333</ele><time>2026-05-03T10:17:33.498Z</time></trkpt><trkpt lat="43.5102533" lon="12.639051"><ele>315.0</ele><time>2026-05-03T10:17:34.498Z</time></trkpt><trkpt lat="43.5100776" lon="12.6388886"><ele>315.0</ele><time>2026-05-03T10:17:35.497Z</time></trkpt><trkpt lat="43.5099086" lon="12.6387312"><ele>315.0</ele><time>2026-05-03T10:17:36.498Z</time></trkpt><trkpt lat="43.509742" lon="12.638574"><ele>315.0</ele><time>2026-05-03T10:17:37.499Z</time></trkpt><trkpt lat="43.5095673" lon="12.6384223"><ele>316.0</ele><time>2026-05-03T10:17:38.496Z</time></trkpt><trkpt lat="43.5093946" lon="12.6382671"><ele>317.0</ele><time>2026-05-03T10:17:39.495Z</time></trkpt><trkpt lat="43.5092122" lon="12.6381136"><ele>318.0</ele><time>2026-05-03T10:17:40.496Z</time></trkpt><trkpt lat="43.5090206" lon="12.6379577"><ele>320.0</ele><time>2026-05-03T10:17:41.496Z</time></trkpt><trkpt lat="43.5088233" lon="12.6377975"><ele>322.0</ele><time>2026-05-03T10:17:42.497Z</time></trkpt><trkpt lat="43.5086148" lon="12.6376408"><ele>322.0</ele><time>2026-05-03T10:17:43.497Z</time></trkpt><trkpt lat="43.5083859" lon="12.6374806"><ele>322.0</ele><time>2026-05-03T10:17:44.499Z</time></trkpt><trkpt lat="43.5081491" lon="12.6373206"><ele>322.0</ele><time>2026-05-03T10:17:45.495Z</time></trkpt><trkpt lat="43.5079249" lon="12.6371655"><ele>322.0</ele><time>2026-05-03T10:17:46.498Z</time></trkpt><trkpt lat="43.5076936" lon="12.6370136"><ele>325.5</ele><time>2026-05-03T10:17:47.496Z</time></trkpt><trkpt lat="43.5074643" lon="12.6368771"><ele>329.0</ele><time>2026-05-03T10:17:48.498Z</time></trkpt><trkpt lat="43.5072331" lon="12.6367586"><ele>325.0</ele><time>2026-05-03T10:17:49.498Z</time></trkpt><trkpt lat="43.5070034" lon="12.6366431"><ele>321.0</ele><time>2026-05-03T10:17:50.497Z</time></trkpt><trkpt lat="43.5067624" lon="12.6365379"><ele>321.0</ele><time>2026-05-03T10:17:51.612Z</time></trkpt><trkpt lat="43.5062747" lon="12.6363572"><ele>324.5</ele><time>2026-05-03T10:17:53.494Z</time></trkpt><trkpt lat="43.5060285" lon="12.6362777"><ele>328.0</ele><time>2026-05-03T10:17:54.499Z</time></trkpt><trkpt lat="43.5057834" lon="12.6362013"><ele>325.5</ele><time>2026-05-03T10:17:55.497Z</time></trkpt><trkpt lat="43.5055408" lon="12.6361251"><ele>323.0</ele><time>2026-05-03T10:17:56.495Z</time></trkpt><trkpt lat="43.5052938" lon="12.6360566"><ele>323.0</ele><time>2026-05-03T10:17:57.496Z</time></trkpt><trkpt lat="43.5050479" lon="12.6359874"><ele>323.0</ele><time>2026-05-03T10:17:58.498Z</time></trkpt><trkpt lat="43.5048053" lon="12.6359277"><ele>324.0</ele><time>2026-05-03T10:17:59.496Z</time></trkpt><trkpt lat="43.50456" lon="12.635863"><ele>325.0</ele><time>2026-05-03T10:18:00.498Z</time></trkpt><trkpt lat="43.5043143" lon="12.6357984"><ele>325.0</ele><time>2026-05-03T10:18:01.498Z</time></trkpt><trkpt lat="43.5040724" lon="12.6357309"><ele>325.0</ele><time>2026-05-03T10:18:02.498Z</time></trkpt><trkpt lat="43.5038324" lon="12.6356495"><ele>326.5</ele><time>2026-05-03T10:18:03.495Z</time></trkpt><trkpt lat="43.5035988" lon="12.6355608"><ele>328.0</ele><time>2026-05-03T10:18:04.499Z</time></trkpt><trkpt lat="43.5033664" lon="12.635466"><ele>328.0</ele><time>2026-05-03T10:18:05.496Z</time></trkpt><trkpt lat="43.5031394" lon="12.6353467"><ele>328.0</ele><time>2026-05-03T10:18:06.496Z</time></trkpt><trkpt lat="43.5029191" lon="12.6352112"><ele>328.0</ele><time>2026-05-03T10:18:07.499Z</time></trkpt><trkpt lat="43.5026996" lon="12.6350579"><ele>328.0</ele><time>2026-05-03T10:18:08.493Z</time></trkpt><trkpt lat="43.5024866" lon="12.6348822"><ele>328.0</ele><time>2026-05-03T10:18:09.494Z</time></trkpt><trkpt lat="43.5022834" lon="12.6346776"><ele>328.0</ele><time>2026-05-03T10:18:10.495Z</time></trkpt><trkpt lat="43.5020839" lon="12.6344495"><ele>330.5</ele><time>2026-05-03T10:18:11.496Z</time></trkpt><trkpt lat="43.501895" lon="12.6342026"><ele>333.0</ele><time>2026-05-03T10:18:12.496Z</time></trkpt><trkpt lat="43.5017233" lon="12.6339364"><ele>333.0</ele><time>2026-05-03T10:18:13.494Z</time></trkpt><trkpt lat="43.5015661" lon="12.6336484"><ele>333.0</ele><time>2026-05-03T10:18:14.496Z</time></trkpt><trkpt lat="43.5014197" lon="12.6333471"><ele>332.0</ele><time>2026-05-03T10:18:15.499Z</time></trkpt><trkpt lat="43.5012797" lon="12.6330286"><ele>331.0</ele><time>2026-05-03T10:18:16.498Z</time></trkpt><trkpt lat="43.5011519" lon="12.6327085"><ele>331.0</ele><time>2026-05-03T10:18:17.501Z</time></trkpt><trkpt lat="43.5010236" lon="12.6323845"><ele>331.0</ele><time>2026-05-03T10:18:18.498Z</time></trkpt><trkpt lat="43.5008983" lon="12.6320646"><ele>333.0</ele><time>2026-05-03T10:18:19.496Z</time></trkpt><trkpt lat="43.5007754" lon="12.6317651"><ele>335.0</ele><time>2026-05-03T10:18:20.496Z</time></trkpt><trkpt lat="43.5006442" lon="12.6314802"><ele>335.0</ele><time>2026-05-03T10:18:21.496Z</time></trkpt><trkpt lat="43.5005192" lon="12.631194"><ele>335.0</ele><time>2026-05-03T10:18:22.496Z</time></trkpt><trkpt lat="43.5003915" lon="12.6309193"><ele>337.0</ele><time>2026-05-03T10:18:23.495Z</time></trkpt><trkpt lat="43.5002778" lon="12.6306436"><ele>339.0</ele><time>2026-05-03T10:18:24.493Z</time></trkpt><trkpt lat="43.500019" lon="12.6304906"><ele>335.0</ele><time>2026-05-03T10:18:25.496Z</time></trkpt><trkpt lat="43.4998395" lon="12.6302833"><ele>331.0</ele><time>2026-05-03T10:18:26.49Z</time></trkpt><trkpt lat="43.4996647" lon="12.6300925"><ele>336.0</ele><time>2026-05-03T10:18:27.496Z</time></trkpt><trkpt lat="43.4994895" lon="12.629935"><ele>341.0</ele><time>2026-05-03T10:18:28.499Z</time></trkpt><trkpt lat="43.499309" lon="12.6297912"><ele>346.0</ele><time>2026-05-03T10:18:29.499Z</time></trkpt><trkpt lat="43.4991265" lon="12.6296632"><ele>346.0</ele><time>2026-05-03T10:18:30.496Z</time></trkpt><trkpt lat="43.4989361" lon="12.6295391"><ele>346.0</ele><time>2026-05-03T10:18:31.496Z</time></trkpt><trkpt lat="43.4987471" lon="12.629424"><ele>346.0</ele><time>2026-05-03T10:18:32.497Z</time></trkpt><trkpt lat="43.4985493" lon="12.6293212"><ele>347.0</ele><time>2026-05-03T10:18:33.496Z</time></trkpt><trkpt lat="43.4983539" lon="12.629219"><ele>348.0</ele><time>2026-05-03T10:18:34.498Z</time></trkpt><trkpt lat="43.4981607" lon="12.6291205"><ele>349.0</ele><time>2026-05-03T10:18:35.497Z</time></trkpt><trkpt lat="43.4979634" lon="12.6290088"><ele>346.0</ele><time>2026-05-03T10:18:36.5Z</time></trkpt><trkpt lat="43.4977682" lon="12.6288991"><ele>343.0</ele><time>2026-05-03T10:18:37.497Z</time></trkpt><trkpt lat="43.4975751" lon="12.6287844"><ele>340.0</ele><time>2026-05-03T10:18:38.498Z</time></trkpt><trkpt lat="43.4973876" lon="12.6286718"><ele>341.3333333333333</ele><time>2026-05-03T10:18:39.495Z</time></trkpt><trkpt lat="43.4972038" lon="12.6285651"><ele>342.6666666666667</ele><time>2026-05-03T10:18:40.492Z</time></trkpt><trkpt lat="43.4970237" lon="12.6284542"><ele>344.0</ele><time>2026-05-03T10:18:41.489Z</time></trkpt><trkpt lat="43.4968469" lon="12.6283459"><ele>361.0</ele><time>2026-05-03T10:18:42.502Z</time></trkpt><trkpt lat="43.495375" lon="12.626747"><ele>361.0</ele><time>2026-05-03T10:18:53.497Z</time></trkpt><trkpt lat="43.4952439" lon="12.626543"><ele>361.0</ele><time>2026-05-03T10:18:54.498Z</time></trkpt><trkpt lat="43.4951396" lon="12.6263347"><ele>361.0</ele><time>2026-05-03T10:18:55.494Z</time></trkpt><trkpt lat="43.4950232" lon="12.6261385"><ele>356.3333333333333</ele><time>2026-05-03T10:18:56.492Z</time></trkpt><trkpt lat="43.4949199" lon="12.6259443"><ele>351.6666666666667</ele><time>2026-05-03T10:18:57.489Z</time></trkpt><trkpt lat="43.4948144" lon="12.6257612"><ele>347.0</ele><time>2026-05-03T10:18:58.496Z</time></trkpt><trkpt lat="43.4947052" lon="12.6255724"><ele>347.0</ele><time>2026-05-03T10:18:59.497Z</time></trkpt><trkpt lat="43.4945931" lon="12.6253669"><ele>347.0</ele><time>2026-05-03T10:19:00.499Z</time></trkpt><trkpt lat="43.4944789" lon="12.6251692"><ele>347.0</ele><time>2026-05-03T10:19:01.496Z</time></trkpt><trkpt lat="43.4943719" lon="12.6249725"><ele>347.6666666666667</ele><time>2026-05-03T10:19:02.498Z</time></trkpt><trkpt lat="43.4942591" lon="12.6247884"><ele>348.3333333333333</ele><time>2026-05-03T10:19:03.499Z</time></trkpt><trkpt lat="43.4941439" lon="12.6246163"><ele>349.0</ele><time>2026-05-03T10:19:04.499Z</time></trkpt><trkpt lat="43.494028" lon="12.624447"><ele>349.66666666666663</ele><time>2026-05-03T10:19:05.496Z</time></trkpt><trkpt lat="43.493912" lon="12.6242835"><ele>350.3333333333333</ele><time>2026-05-03T10:19:06.497Z</time></trkpt><trkpt lat="43.4937792" lon="12.6241287"><ele>351.0</ele><time>2026-05-03T10:19:07.498Z</time></trkpt><trkpt lat="43.4936476" lon="12.623977"><ele>350.3333333333333</ele><time>2026-05-03T10:19:08.496Z</time></trkpt><trkpt lat="43.4935036" lon="12.623835"><ele>349.66666666666663</ele><time>2026-05-03T10:19:09.496Z</time></trkpt><trkpt lat="43.4933578" lon="12.6237005"><ele>349.0</ele><time>2026-05-03T10:19:10.5Z</time></trkpt><trkpt lat="43.4932037" lon="12.6235747"><ele>349.0</ele><time>2026-05-03T10:19:11.497Z</time></trkpt><trkpt lat="43.4930419" lon="12.6234577"><ele>349.0</ele><time>2026-05-03T10:19:12.497Z</time></trkpt><trkpt lat="43.4928842" lon="12.6233562"><ele>349.0</ele><time>2026-05-03T10:19:13.498Z</time></trkpt><trkpt lat="43.4927218" lon="12.6232729"><ele>352.66666666666663</ele><time>2026-05-03T10:19:14.499Z</time></trkpt><trkpt lat="43.4925651" lon="12.6231981"><ele>356.3333333333333</ele><time>2026-05-03T10:19:15.498Z</time></trkpt><trkpt lat="43.4924071" lon="12.623138"><ele>360.0</ele><time>2026-05-03T10:19:16.496Z</time></trkpt><trkpt lat="43.4922488" lon="12.6230859"><ele>362.0</ele><time>2026-05-03T10:19:17.499Z</time></trkpt><trkpt lat="43.4920838" lon="12.6230447"><ele>364.0</ele><time>2026-05-03T10:19:18.498Z</time></trkpt><trkpt lat="43.491924" lon="12.6230028"><ele>366.0</ele><time>2026-05-03T10:19:19.499Z</time></trkpt><trkpt lat="43.4917559" lon="12.6229654"><ele>366.0</ele><time>2026-05-03T10:19:20.496Z</time></trkpt><trkpt lat="43.4915828" lon="12.6229316"><ele>366.0</ele><time>2026-05-03T10:19:21.657Z</time></trkpt><trkpt lat="43.4914095" lon="12.622896"><ele>366.0</ele><time>2026-05-03T10:19:22.493Z</time></trkpt><trkpt lat="43.491233" lon="12.6228607"><ele>372.0</ele><time>2026-05-03T10:19:23.497Z</time></trkpt><trkpt lat="43.4910537" lon="12.6228145"><ele>378.0</ele><time>2026-05-03T10:19:24.498Z</time></trkpt><trkpt lat="43.4908711" lon="12.6227645"><ele>384.0</ele><time>2026-05-03T10:19:25.496Z</time></trkpt><trkpt lat="43.490699" lon="12.6226846"><ele>376.3333333333333</ele><time>2026-05-03T10:19:26.496Z</time></trkpt><trkpt lat="43.4905303" lon="12.6225957"><ele>368.66666666666663</ele><time>2026-05-03T10:19:27.498Z</time></trkpt><trkpt lat="43.4903759" lon="12.622491"><ele>361.0</ele><time>2026-05-03T10:19:28.494Z</time></trkpt><trkpt lat="43.4902243" lon="12.6223812"><ele>361.0</ele><time>2026-05-03T10:19:29.496Z</time></trkpt><trkpt lat="43.4900759" lon="12.6222598"><ele>361.0</ele><time>2026-05-03T10:19:30.496Z</time></trkpt><trkpt lat="43.4899348" lon="12.6221345"><ele>361.0</ele><time>2026-05-03T10:19:31.496Z</time></trkpt><trkpt lat="43.4897897" lon="12.6219982"><ele>359.66666666666663</ele><time>2026-05-03T10:19:32.497Z</time></trkpt><trkpt lat="43.4896372" lon="12.621854"><ele>358.3333333333333</ele><time>2026-05-03T10:19:33.497Z</time></trkpt><trkpt lat="43.4894884" lon="12.621711"><ele>357.0</ele><time>2026-05-03T10:19:34.497Z</time></trkpt><trkpt lat="43.4893456" lon="12.6215665"><ele>357.0</ele><time>2026-05-03T10:19:35.496Z</time></trkpt><trkpt lat="43.4892014" lon="12.6214194"><ele>357.0</ele><time>2026-05-03T10:19:36.495Z</time></trkpt><trkpt lat="43.4890565" lon="12.6212766"><ele>357.0</ele><time>2026-05-03T10:19:37.497Z</time></trkpt><trkpt lat="43.4889077" lon="12.6211485"><ele>352.0</ele><time>2026-05-03T10:19:38.5Z</time></trkpt><trkpt lat="43.4887605" lon="12.6210227"><ele>347.0</ele><time>2026-05-03T10:19:39.494Z</time></trkpt><trkpt lat="43.4886087" lon="12.6209122"><ele>342.0</ele><time>2026-05-03T10:19:40.496Z</time></trkpt><trkpt lat="43.4884544" lon="12.6208011"><ele>341.6666666666667</ele><time>2026-05-03T10:19:41.497Z</time></trkpt><trkpt lat="43.4882966" lon="12.6206956"><ele>341.33333333333337</ele><time>2026-05-03T10:19:42.498Z</time></trkpt><trkpt lat="43.4881312" lon="12.6205937"><ele>341.0</ele><time>2026-05-03T10:19:43.496Z</time></trkpt><trkpt lat="43.487962" lon="12.6205038"><ele>341.0</ele><time>2026-05-03T10:19:44.498Z</time></trkpt><trkpt lat="43.4877942" lon="12.6204202"><ele>341.0</ele><time>2026-05-03T10:19:45.497Z</time></trkpt><trkpt lat="43.4876204" lon="12.6203429"><ele>341.0</ele><time>2026-05-03T10:19:46.494Z</time></trkpt><trkpt lat="43.4874528" lon="12.6202731"><ele>341.0</ele><time>2026-05-03T10:19:47.499Z</time></trkpt><trkpt lat="43.4872802" lon="12.6202185"><ele>341.0</ele><time>2026-05-03T10:19:48.495Z</time></trkpt><trkpt lat="43.4871027" lon="12.6201651"><ele>341.0</ele><time>2026-05-03T10:19:49.501Z</time></trkpt><trkpt lat="43.486923" lon="12.6201158"><ele>341.6666666666667</ele><time>2026-05-03T10:19:50.496Z</time></trkpt><trkpt lat="43.4867392" lon="12.6200794"><ele>342.3333333333333</ele><time>2026-05-03T10:19:51.498Z</time></trkpt><trkpt lat="43.4865489" lon="12.6200518"><ele>343.0</ele><time>2026-05-03T10:19:52.497Z</time></trkpt><trkpt lat="43.4863546" lon="12.6200271"><ele>342.66666666666663</ele><time>2026-05-03T10:19:53.497Z</time></trkpt><trkpt lat="43.4861644" lon="12.6200111"><ele>342.3333333333333</ele><time>2026-05-03T10:19:54.501Z</time></trkpt><trkpt lat="43.4859766" lon="12.6200002"><ele>342.0</ele><time>2026-05-03T10:19:55.497Z</time></trkpt><trkpt lat="43.4857886" lon="12.619996"><ele>342.0</ele><time>2026-05-03T10:19:56.5Z</time></trkpt><trkpt lat="43.485602" lon="12.619999"><ele>342.0</ele><time>2026-05-03T10:19:57.5Z</time></trkpt><trkpt lat="43.4854133" lon="12.6200124"><ele>342.0</ele><time>2026-05-03T10:19:58.497Z</time></trkpt><trkpt lat="43.4852237" lon="12.6200232"><ele>342.0</ele><time>2026-05-03T10:19:59.496Z</time></trkpt><trkpt lat="43.4850343" lon="12.6200422"><ele>342.0</ele><time>2026-05-03T10:20:00.498Z</time></trkpt><trkpt lat="43.4848461" lon="12.6200738"><ele>342.0</ele><time>2026-05-03T10:20:01.495Z</time></trkpt><trkpt lat="43.484659" lon="12.6201017"><ele>342.3333333333333</ele><time>2026-05-03T10:20:02.497Z</time></trkpt><trkpt lat="43.4844776" lon="12.6201379"><ele>342.66666666666663</ele><time>2026-05-03T10:20:03.495Z</time></trkpt><trkpt lat="43.4842918" lon="12.6201714"><ele>343.0</ele><time>2026-05-03T10:20:04.499Z</time></trkpt><trkpt lat="43.4841072" lon="12.620207"><ele>343.0</ele><time>2026-05-03T10:20:05.498Z</time></trkpt><trkpt lat="43.483926" lon="12.6202443"><ele>343.0</ele><time>2026-05-03T10:20:06.496Z</time></trkpt><trkpt lat="43.4837384" lon="12.6202886"><ele>343.0</ele><time>2026-05-03T10:20:07.497Z</time></trkpt><trkpt lat="43.4835475" lon="12.6203352"><ele>344.66666666666663</ele><time>2026-05-03T10:20:08.499Z</time></trkpt><trkpt lat="43.48335" lon="12.6203818"><ele>346.3333333333333</ele><time>2026-05-03T10:20:09.499Z</time></trkpt><trkpt lat="43.4831255" lon="12.6204436"><ele>348.0</ele><time>2026-05-03T10:20:10.49Z</time></trkpt><trkpt lat="43.4828761" lon="12.6205148"><ele>349.5</ele><time>2026-05-03T10:20:11.499Z</time></trkpt><trkpt lat="43.4826282" lon="12.6205711"><ele>351.0</ele><time>2026-05-03T10:20:12.497Z</time></trkpt><trkpt lat="43.482397" lon="12.6206309"><ele>351.0</ele><time>2026-05-03T10:20:13.495Z</time></trkpt><trkpt lat="43.4821689" lon="12.6206944"><ele>351.0</ele><time>2026-05-03T10:20:14.494Z</time></trkpt><trkpt lat="43.481938" lon="12.6207694"><ele>351.5</ele><time>2026-05-03T10:20:15.495Z</time></trkpt><trkpt lat="43.4817037" lon="12.6208416"><ele>352.0</ele><time>2026-05-03T10:20:16.499Z</time></trkpt><trkpt lat="43.4814543" lon="12.6209139"><ele>352.5</ele><time>2026-05-03T10:20:17.497Z</time></trkpt><trkpt lat="43.4812206" lon="12.6209873"><ele>353.0</ele><time>2026-05-03T10:20:18.498Z</time></trkpt><trkpt lat="43.4809908" lon="12.6210663"><ele>350.5</ele><time>2026-05-03T10:20:19.496Z</time></trkpt><trkpt lat="43.4807697" lon="12.6211557"><ele>348.0</ele><time>2026-05-03T10:20:20.496Z</time></trkpt><trkpt lat="43.480553" lon="12.6212494"><ele>349.0</ele><time>2026-05-03T10:20:21.496Z</time></trkpt><trkpt lat="43.4803402" lon="12.6213532"><ele>350.0</ele><time>2026-05-03T10:20:22.496Z</time></trkpt><trkpt lat="43.4801286" lon="12.6214593"><ele>350.0</ele><time>2026-05-03T10:20:23.495Z</time></trkpt><trkpt lat="43.479917" lon="12.6215726"><ele>350.0</ele><time>2026-05-03T10:20:24.497Z</time></trkpt><trkpt lat="43.4797003" lon="12.6217008"><ele>351.0</ele><time>2026-05-03T10:20:25.496Z</time></trkpt><trkpt lat="43.4794705" lon="12.6218461"><ele>352.0</ele><time>2026-05-03T10:20:26.496Z</time></trkpt><trkpt lat="43.4792417" lon="12.6220067"><ele>352.0</ele><time>2026-05-03T10:20:27.496Z</time></trkpt><trkpt lat="43.4790124" lon="12.6221709"><ele>352.0</ele><time>2026-05-03T10:20:28.495Z</time></trkpt><trkpt lat="43.478788" lon="12.6223448"><ele>352.5</ele><time>2026-05-03T10:20:29.496Z</time></trkpt><trkpt lat="43.4785634" lon="12.6225198"><ele>353.0</ele><time>2026-05-03T10:20:30.499Z</time></trkpt><trkpt lat="43.4783385" lon="12.6226914"><ele>353.0</ele><time>2026-05-03T10:20:31.498Z</time></trkpt><trkpt lat="43.4781285" lon="12.6228631"><ele>353.0</ele><time>2026-05-03T10:20:32.495Z</time></trkpt><trkpt lat="43.4779327" lon="12.6230295"><ele>353.6666666666667</ele><time>2026-05-03T10:20:33.496Z</time></trkpt><trkpt lat="43.4777456" lon="12.6231833"><ele>354.3333333333333</ele><time>2026-05-03T10:20:34.499Z</time></trkpt><trkpt lat="43.4775638" lon="12.623325"><ele>355.0</ele><time>2026-05-03T10:20:35.495Z</time></trkpt><trkpt lat="43.477386" lon="12.6234588"><ele>355.0</ele><time>2026-05-03T10:20:36.498Z</time></trkpt><trkpt lat="43.4772127" lon="12.6235889"><ele>355.0</ele><time>2026-05-03T10:20:37.494Z</time></trkpt><trkpt lat="43.4770353" lon="12.6237152"><ele>355.0</ele><time>2026-05-03T10:20:38.498Z</time></trkpt><trkpt lat="43.4768589" lon="12.6238346"><ele>355.0</ele><time>2026-05-03T10:20:39.491Z</time></trkpt><trkpt lat="43.476685" lon="12.6239571"><ele>355.0</ele><time>2026-05-03T10:20:40.499Z</time></trkpt><trkpt lat="43.476521" lon="12.6240721"><ele>355.0</ele><time>2026-05-03T10:20:41.496Z</time></trkpt><trkpt lat="43.476343" lon="12.6241238"><ele>356.66666666666663</ele><time>2026-05-03T10:20:42.495Z</time></trkpt><trkpt lat="43.4761693" lon="12.6241819"><ele>358.3333333333333</ele><time>2026-05-03T10:20:43.495Z</time></trkpt><trkpt lat="43.4760038" lon="12.6242295"><ele>360.0</ele><time>2026-05-03T10:20:44.496Z</time></trkpt><trkpt lat="43.4758461" lon="12.6242761"><ele>360.0</ele><time>2026-05-03T10:20:45.496Z</time></trkpt><trkpt lat="43.4756866" lon="12.6243141"><ele>360.0</ele><time>2026-05-03T10:20:46.495Z</time></trkpt><trkpt lat="43.4755394" lon="12.6243284"><ele>360.0</ele><time>2026-05-03T10:20:47.496Z</time></trkpt><trkpt lat="43.475394" lon="12.6243299"><ele>362.75</ele><time>2026-05-03T10:20:48.497Z</time></trkpt><trkpt lat="43.4752495" lon="12.6243295"><ele>365.5</ele><time>2026-05-03T10:20:49.496Z</time></trkpt><trkpt lat="43.475103" lon="12.6243212"><ele>368.25</ele><time>2026-05-03T10:20:50.493Z</time></trkpt><trkpt lat="43.4749493" lon="12.6243117"><ele>371.0</ele><time>2026-05-03T10:20:51.496Z</time></trkpt><trkpt lat="43.4747993" lon="12.6243008"><ele>371.0</ele><time>2026-05-03T10:20:52.5Z</time></trkpt><trkpt lat="43.4746493" lon="12.6242829"><ele>371.0</ele><time>2026-05-03T10:20:53.495Z</time></trkpt><trkpt lat="43.4732876" lon="12.624055"><ele>370.0</ele><time>2026-05-03T10:21:02.495Z</time></trkpt><trkpt lat="43.473153" lon="12.6240802"><ele>369.0</ele><time>2026-05-03T10:21:03.496Z</time></trkpt><trkpt lat="43.4730048" lon="12.6240798"><ele>368.0</ele><time>2026-05-03T10:21:04.498Z</time></trkpt><trkpt lat="43.4728508" lon="12.6240897"><ele>367.0</ele><time>2026-05-03T10:21:05.497Z</time></trkpt><trkpt lat="43.4727002" lon="12.6241147"><ele>366.66666666666663</ele><time>2026-05-03T10:21:06.493Z</time></trkpt><trkpt lat="43.472546" lon="12.6241449"><ele>366.3333333333333</ele><time>2026-05-03T10:21:07.499Z</time></trkpt><trkpt lat="43.4723989" lon="12.6241759"><ele>366.0</ele><time>2026-05-03T10:21:08.49Z</time></trkpt><trkpt lat="43.472251" lon="12.6242162"><ele>376.33333333333337</ele><time>2026-05-03T10:21:09.499Z</time></trkpt><trkpt lat="43.4721012" lon="12.6242674"><ele>386.6666666666667</ele><time>2026-05-03T10:21:10.498Z</time></trkpt><trkpt lat="43.4719511" lon="12.624329"><ele>397.0</ele><time>2026-05-03T10:21:11.498Z</time></trkpt><trkpt lat="43.4718061" lon="12.6243856"><ele>397.0</ele><time>2026-05-03T10:21:12.496Z</time></trkpt><trkpt lat="43.4716683" lon="12.6244555"><ele>397.0</ele><time>2026-05-03T10:21:13.499Z</time></trkpt><trkpt lat="43.4715222" lon="12.6245231"><ele>397.0</ele><time>2026-05-03T10:21:14.497Z</time></trkpt><trkpt lat="43.4713799" lon="12.6245912"><ele>389.5</ele><time>2026-05-03T10:21:15.496Z</time></trkpt><trkpt lat="43.4712371" lon="12.62466"><ele>382.0</ele><time>2026-05-03T10:21:16.496Z</time></trkpt><trkpt lat="43.4670558" lon="12.6272644"><ele>382.0</ele><time>2026-05-03T10:21:43.493Z</time></trkpt><trkpt lat="43.466883" lon="12.6273863"><ele>382.0</ele><time>2026-05-03T10:21:44.498Z</time></trkpt><trkpt lat="43.4666953" lon="12.6274683"><ele>382.0</ele><time>2026-05-03T10:21:45.497Z</time></trkpt><trkpt lat="43.4665061" lon="12.6275804"><ele>382.0</ele><time>2026-05-03T10:21:46.497Z</time></trkpt><trkpt lat="43.4663066" lon="12.6276666"><ele>382.0</ele><time>2026-05-03T10:21:47.498Z</time></trkpt><trkpt lat="43.4660973" lon="12.6277591"><ele>382.0</ele><time>2026-05-03T10:21:48.497Z</time></trkpt><trkpt lat="43.465872" lon="12.6278408"><ele>376.5</ele><time>2026-05-03T10:21:49.497Z</time></trkpt><trkpt lat="43.4656429" lon="12.6279129"><ele>371.0</ele><time>2026-05-03T10:21:50.499Z</time></trkpt><trkpt lat="43.4654062" lon="12.6279881"><ele>370.5</ele><time>2026-05-03T10:21:51.498Z</time></trkpt><trkpt lat="43.465182" lon="12.628045"><ele>370.0</ele><time>2026-05-03T10:21:52.497Z</time></trkpt><trkpt lat="43.4649601" lon="12.6280882"><ele>370.0</ele><time>2026-05-03T10:21:53.497Z</time></trkpt><trkpt lat="43.4647399" lon="12.6281183"><ele>370.0</ele><time>2026-05-03T10:21:54.493Z</time></trkpt><trkpt lat="43.4645228" lon="12.6281472"><ele>370.0</ele><time>2026-05-03T10:21:55.497Z</time></trkpt><trkpt lat="43.4643084" lon="12.6281759"><ele>370.3333333333333</ele><time>2026-05-03T10:21:56.497Z</time></trkpt><trkpt lat="43.4640853" lon="12.6281994"><ele>370.6666666666667</ele><time>2026-05-03T10:21:57.496Z</time></trkpt><trkpt lat="43.4638668" lon="12.6282161"><ele>371.0</ele><time>2026-05-03T10:21:58.496Z</time></trkpt><trkpt lat="43.4636435" lon="12.6282269"><ele>373.0</ele><time>2026-05-03T10:21:59.496Z</time></trkpt><trkpt lat="43.4634256" lon="12.6282267"><ele>375.0</ele><time>2026-05-03T10:22:00.5Z</time></trkpt><trkpt lat="43.4632186" lon="12.6282254"><ele>377.0</ele><time>2026-05-03T10:22:01.498Z</time></trkpt><trkpt lat="43.4630222" lon="12.6282088"><ele>379.0</ele><time>2026-05-03T10:22:02.499Z</time></trkpt><trkpt lat="43.4628327" lon="12.6281981"><ele>381.0</ele><time>2026-05-03T10:22:03.5Z</time></trkpt><trkpt lat="43.4626593" lon="12.6281728"><ele>383.0</ele><time>2026-05-03T10:22:04.496Z</time></trkpt><trkpt lat="43.4624756" lon="12.6281502"><ele>383.0</ele><time>2026-05-03T10:22:05.498Z</time></trkpt><trkpt lat="43.4622981" lon="12.6281205"><ele>383.0</ele><time>2026-05-03T10:22:06.499Z</time></trkpt><trkpt lat="43.462107" lon="12.6280843"><ele>383.0</ele><time>2026-05-03T10:22:07.498Z</time></trkpt><trkpt lat="43.4619051" lon="12.6280555"><ele>381.0</ele><time>2026-05-03T10:22:08.498Z</time></trkpt><trkpt lat="43.4616795" lon="12.6280121"><ele>379.0</ele><time>2026-05-03T10:22:09.5Z</time></trkpt><trkpt lat="43.4614427" lon="12.6279562"><ele>378.3333333333333</ele><time>2026-05-03T10:22:10.498Z</time></trkpt><trkpt lat="43.4612166" lon="12.6279081"><ele>377.6666666666667</ele><time>2026-05-03T10:22:11.5Z</time></trkpt><trkpt lat="43.4610022" lon="12.6278607"><ele>377.0</ele><time>2026-05-03T10:22:12.497Z</time></trkpt><trkpt lat="43.460793" lon="12.627829"><ele>376.6666666666667</ele><time>2026-05-03T10:22:13.499Z</time></trkpt><trkpt lat="43.4605839" lon="12.6277905"><ele>376.3333333333333</ele><time>2026-05-03T10:22:14.505Z</time></trkpt><trkpt lat="43.4603795" lon="12.6277628"><ele>376.0</ele><time>2026-05-03T10:22:15.498Z</time></trkpt><trkpt lat="43.4601753" lon="12.6277338"><ele>375.66666666666663</ele><time>2026-05-03T10:22:16.5Z</time></trkpt><trkpt lat="43.4599754" lon="12.6277214"><ele>375.3333333333333</ele><time>2026-05-03T10:22:17.496Z</time></trkpt><trkpt lat="43.4597722" lon="12.6277162"><ele>375.0</ele><time>2026-05-03T10:22:18.499Z</time></trkpt><trkpt lat="43.4595683" lon="12.6277235"><ele>375.0</ele><time>2026-05-03T10:22:19.498Z</time></trkpt><trkpt lat="43.459345" lon="12.6277437"><ele>375.0</ele><time>2026-05-03T10:22:20.496Z</time></trkpt><trkpt lat="43.4590972" lon="12.6277666"><ele>375.0</ele><time>2026-05-03T10:22:21.498Z</time></trkpt><trkpt lat="43.4588343" lon="12.6277883"><ele>375.0</ele><time>2026-05-03T10:22:22.497Z</time></trkpt><trkpt lat="43.4585868" lon="12.6278156"><ele>377.0</ele><time>2026-05-03T10:22:23.497Z</time></trkpt><trkpt lat="43.4583583" lon="12.6278605"><ele>379.0</ele><time>2026-05-03T10:22:24.5Z</time></trkpt><trkpt lat="43.4581342" lon="12.627918"><ele>380.0</ele><time>2026-05-03T10:22:25.497Z</time></trkpt><trkpt lat="43.4579245" lon="12.6279818"><ele>381.0</ele><time>2026-05-03T10:22:26.499Z</time></trkpt><trkpt lat="43.4577213" lon="12.6280471"><ele>382.0</ele><time>2026-05-03T10:22:27.497Z</time></trkpt><trkpt lat="43.4575281" lon="12.6281198"><ele>382.0</ele><time>2026-05-03T10:22:28.499Z</time></trkpt><trkpt lat="43.4573399" lon="12.6282008"><ele>382.0</ele><time>2026-05-03T10:22:29.499Z</time></trkpt><trkpt lat="43.4571468" lon="12.6283009"><ele>382.0</ele><time>2026-05-03T10:22:30.498Z</time></trkpt><trkpt lat="43.4569601" lon="12.628414"><ele>382.66666666666663</ele><time>2026-05-03T10:22:31.499Z</time></trkpt><trkpt lat="43.4567603" lon="12.6285303"><ele>383.3333333333333</ele><time>2026-05-03T10:22:32.497Z</time></trkpt><trkpt lat="43.4565561" lon="12.62865"><ele>384.0</ele><time>2026-05-03T10:22:33.498Z</time></trkpt><trkpt lat="43.4563619" lon="12.6287689"><ele>382.6666666666667</ele><time>2026-05-03T10:22:34.498Z</time></trkpt><trkpt lat="43.4561816" lon="12.6288832"><ele>381.33333333333337</ele><time>2026-05-03T10:22:35.498Z</time></trkpt><trkpt lat="43.4560148" lon="12.6290094"><ele>380.0</ele><time>2026-05-03T10:22:36.498Z</time></trkpt><trkpt lat="43.4558475" lon="12.6291518"><ele>380.0</ele><time>2026-05-03T10:22:37.565Z</time></trkpt><trkpt lat="43.4556696" lon="12.6293122"><ele>380.0</ele><time>2026-05-03T10:22:38.5Z</time></trkpt><trkpt lat="43.4554873" lon="12.6294779"><ele>380.0</ele><time>2026-05-03T10:22:39.499Z</time></trkpt><trkpt lat="43.4553039" lon="12.6296452"><ele>379.6666666666667</ele><time>2026-05-03T10:22:40.497Z</time></trkpt><trkpt lat="43.4551209" lon="12.629818"><ele>379.3333333333333</ele><time>2026-05-03T10:22:41.497Z</time></trkpt><trkpt lat="43.454955" lon="12.6299951"><ele>379.0</ele><time>2026-05-03T10:22:42.5Z</time></trkpt><trkpt lat="43.454784" lon="12.6301838"><ele>379.66666666666663</ele><time>2026-05-03T10:22:43.499Z</time></trkpt><trkpt lat="43.4546188" lon="12.6303711"><ele>380.3333333333333</ele><time>2026-05-03T10:22:44.499Z</time></trkpt><trkpt lat="43.4544575" lon="12.6305663"><ele>381.0</ele><time>2026-05-03T10:22:45.497Z</time></trkpt><trkpt lat="43.454291" lon="12.6307628"><ele>381.0</ele><time>2026-05-03T10:22:46.498Z</time></trkpt><trkpt lat="43.4541242" lon="12.6309686"><ele>381.0</ele><time>2026-05-03T10:22:47.498Z</time></trkpt><trkpt lat="43.4539503" lon="12.6311651"><ele>381.0</ele><time>2026-05-03T10:22:48.503Z</time></trkpt><trkpt lat="43.453777" lon="12.6313536"><ele>382.33333333333337</ele><time>2026-05-03T10:22:49.502Z</time></trkpt><trkpt lat="43.4536078" lon="12.6315371"><ele>383.6666666666667</ele><time>2026-05-03T10:22:50.503Z</time></trkpt><trkpt lat="43.4534577" lon="12.6317039"><ele>385.0</ele><time>2026-05-03T10:22:51.5Z</time></trkpt><trkpt lat="43.4532952" lon="12.631876"><ele>385.33333333333337</ele><time>2026-05-03T10:22:52.498Z</time></trkpt><trkpt lat="43.4531456" lon="12.6320454"><ele>385.66666666666663</ele><time>2026-05-03T10:22:53.498Z</time></trkpt><trkpt lat="43.4530192" lon="12.6321789"><ele>386.0</ele><time>2026-05-03T10:22:54.498Z</time></trkpt><trkpt lat="43.4528921" lon="12.632316"><ele>386.0</ele><time>2026-05-03T10:22:55.496Z</time></trkpt><trkpt lat="43.4527638" lon="12.6324539"><ele>386.0</ele><time>2026-05-03T10:22:56.498Z</time></trkpt><trkpt lat="43.452636" lon="12.6325903"><ele>386.0</ele><time>2026-05-03T10:22:57.497Z</time></trkpt><trkpt lat="43.4525036" lon="12.6327295"><ele>386.0</ele><time>2026-05-03T10:22:58.499Z</time></trkpt><trkpt lat="43.4523681" lon="12.6328513"><ele>386.0</ele><time>2026-05-03T10:22:59.496Z</time></trkpt><trkpt lat="43.4522282" lon="12.6329694"><ele>386.0</ele><time>2026-05-03T10:23:00.498Z</time></trkpt><trkpt lat="43.4520811" lon="12.6330877"><ele>386.0</ele><time>2026-05-03T10:23:01.5Z</time></trkpt><trkpt lat="43.4519355" lon="12.633202"><ele>386.0</ele><time>2026-05-03T10:23:02.503Z</time></trkpt><trkpt lat="43.4517907" lon="12.63332"><ele>386.0</ele><time>2026-05-03T10:23:03.498Z</time></trkpt><trkpt lat="43.4516407" lon="12.6334359"><ele>386.0</ele><time>2026-05-03T10:23:04.498Z</time></trkpt><trkpt lat="43.4514769" lon="12.6335457"><ele>386.0</ele><time>2026-05-03T10:23:05.499Z</time></trkpt><trkpt lat="43.4513092" lon="12.63365"><ele>386.0</ele><time>2026-05-03T10:23:06.499Z</time></trkpt><trkpt lat="43.4511362" lon="12.6337455"><ele>388.0</ele><time>2026-05-03T10:23:07.497Z</time></trkpt><trkpt lat="43.4509684" lon="12.6338415"><ele>390.0</ele><time>2026-05-03T10:23:08.497Z</time></trkpt><trkpt lat="43.4508024" lon="12.6339185"><ele>392.0</ele><time>2026-05-03T10:23:09.498Z</time></trkpt><trkpt lat="43.4506398" lon="12.6339865"><ele>392.0</ele><time>2026-05-03T10:23:10.496Z</time></trkpt><trkpt lat="43.4504787" lon="12.6340447"><ele>392.0</ele><time>2026-05-03T10:23:11.497Z</time></trkpt><trkpt lat="43.4503194" lon="12.6340934"><ele>392.0</ele><time>2026-05-03T10:23:12.498Z</time></trkpt><trkpt lat="43.450164" lon="12.6341326"><ele>390.0</ele><time>2026-05-03T10:23:13.498Z</time></trkpt><trkpt lat="43.4500046" lon="12.6341661"><ele>388.0</ele><time>2026-05-03T10:23:14.498Z</time></trkpt><trkpt lat="43.4498444" lon="12.6341887"><ele>386.0</ele><time>2026-05-03T10:23:15.501Z</time></trkpt><trkpt lat="43.4496786" lon="12.6342056"><ele>386.3333333333333</ele><time>2026-05-03T10:23:16.5Z</time></trkpt><trkpt lat="43.4495089" lon="12.6342063"><ele>386.66666666666663</ele><time>2026-05-03T10:23:17.498Z</time></trkpt><trkpt lat="43.4493352" lon="12.6341952"><ele>387.0</ele><time>2026-05-03T10:23:18.497Z</time></trkpt><trkpt lat="43.449159" lon="12.6341744"><ele>387.0</ele><time>2026-05-03T10:23:19.497Z</time></trkpt><trkpt lat="43.4489758" lon="12.6341535"><ele>387.0</ele><time>2026-05-03T10:23:20.499Z</time></trkpt><trkpt lat="43.4487897" lon="12.6341455"><ele>387.0</ele><time>2026-05-03T10:23:21.498Z</time></trkpt><trkpt lat="43.4486055" lon="12.6341477"><ele>387.66666666666663</ele><time>2026-05-03T10:23:22.498Z</time></trkpt><trkpt lat="43.4484276" lon="12.6341588"><ele>388.3333333333333</ele><time>2026-05-03T10:23:23.498Z</time></trkpt><trkpt lat="43.4482549" lon="12.6341716"><ele>389.0</ele><time>2026-05-03T10:23:24.501Z</time></trkpt><trkpt lat="43.4480806" lon="12.6341884"><ele>391.3333333333333</ele><time>2026-05-03T10:23:25.498Z</time></trkpt><trkpt lat="43.4479191" lon="12.6341894"><ele>393.66666666666663</ele><time>2026-05-03T10:23:26.5Z</time></trkpt><trkpt lat="43.4477486" lon="12.6341862"><ele>396.0</ele><time>2026-05-03T10:23:27.501Z</time></trkpt><trkpt lat="43.4475875" lon="12.6341641"><ele>396.0</ele><time>2026-05-03T10:23:28.498Z</time></trkpt><trkpt lat="43.4474263" lon="12.6341353"><ele>396.0</ele><time>2026-05-03T10:23:29.498Z</time></trkpt><trkpt lat="43.4472642" lon="12.6340933"><ele>396.0</ele><time>2026-05-03T10:23:30.499Z</time></trkpt><trkpt lat="43.4471058" lon="12.6340471"><ele>397.0</ele><time>2026-05-03T10:23:31.501Z</time></trkpt><trkpt lat="43.4469472" lon="12.6340022"><ele>398.0</ele><time>2026-05-03T10:23:32.497Z</time></trkpt><trkpt lat="43.4467845" lon="12.6339523"><ele>399.0</ele><time>2026-05-03T10:23:33.5Z</time></trkpt><trkpt lat="43.4466224" lon="12.6339034"><ele>399.0</ele><time>2026-05-03T10:23:34.499Z</time></trkpt><trkpt lat="43.4464567" lon="12.6338594"><ele>399.0</ele><time>2026-05-03T10:23:35.498Z</time></trkpt><trkpt lat="43.4462899" lon="12.6338221"><ele>399.0</ele><time>2026-05-03T10:23:36.497Z</time></trkpt><trkpt lat="43.4461266" lon="12.6337784"><ele>399.0</ele><time>2026-05-03T10:23:37.498Z</time></trkpt><trkpt lat="43.4459532" lon="12.633802"><ele>399.0</ele><time>2026-05-03T10:23:38.496Z</time></trkpt><trkpt lat="43.4457874" lon="12.6338334"><ele>399.0</ele><time>2026-05-03T10:23:39.499Z</time></trkpt><trkpt lat="43.4456326" lon="12.6338868"><ele>399.0</ele><time>2026-05-03T10:23:40.498Z</time></trkpt><trkpt lat="43.4454756" lon="12.6339419"><ele>399.0</ele><time>2026-05-03T10:23:41.498Z</time></trkpt><trkpt lat="43.4453312" lon="12.6340134"><ele>399.0</ele><time>2026-05-03T10:23:42.499Z</time></trkpt><trkpt lat="43.4451943" lon="12.6340985"><ele>398.5</ele><time>2026-05-03T10:23:43.498Z</time></trkpt><trkpt lat="43.4450622" lon="12.6341789"><ele>398.0</ele><time>2026-05-03T10:23:44.504Z</time></trkpt><trkpt lat="43.4449248" lon="12.6342503"><ele>397.5</ele><time>2026-05-03T10:23:45.497Z</time></trkpt><trkpt lat="43.4447788" lon="12.6342989"><ele>397.0</ele><time>2026-05-03T10:23:46.495Z</time></trkpt><trkpt lat="43.4446392" lon="12.6343453"><ele>397.25</ele><time>2026-05-03T10:23:47.498Z</time></trkpt><trkpt lat="43.4444965" lon="12.6343682"><ele>397.5</ele><time>2026-05-03T10:23:48.503Z</time></trkpt><trkpt lat="43.4443645" lon="12.6343802"><ele>397.75</ele><time>2026-05-03T10:23:49.498Z</time></trkpt><trkpt lat="43.4442402" lon="12.6343752"><ele>398.0</ele><time>2026-05-03T10:23:50.499Z</time></trkpt><trkpt lat="43.4441196" lon="12.6343651"><ele>398.0</ele><time>2026-05-03T10:23:51.497Z</time></trkpt><trkpt lat="43.4440051" lon="12.6343487"><ele>398.0</ele><time>2026-05-03T10:23:52.503Z</time></trkpt><trkpt lat="43.4438857" lon="12.6343347"><ele>398.0</ele><time>2026-05-03T10:23:53.497Z</time></trkpt><trkpt lat="43.4437667" lon="12.6342814"><ele>398.0</ele><time>2026-05-03T10:23:54.496Z</time></trkpt><trkpt lat="43.443652" lon="12.6342462"><ele>399.5</ele><time>2026-05-03T10:23:55.498Z</time></trkpt><trkpt lat="43.4435351" lon="12.6341795"><ele>401.0</ele><time>2026-05-03T10:23:56.498Z</time></trkpt><trkpt lat="43.4434367" lon="12.6341037"><ele>402.5</ele><time>2026-05-03T10:23:57.497Z</time></trkpt><trkpt lat="43.4433412" lon="12.6340302"><ele>404.0</ele><time>2026-05-03T10:23:58.498Z</time></trkpt><trkpt lat="43.4432547" lon="12.6339495"><ele>403.99999999999994</ele><time>2026-05-03T10:23:59.498Z</time></trkpt><trkpt lat="43.4431718" lon="12.6338833"><ele>404.0</ele><time>2026-05-03T10:24:00.498Z</time></trkpt><trkpt lat="43.4431174" lon="12.633813"><ele>404.0</ele><time>2026-05-03T10:24:01.497Z</time></trkpt><trkpt lat="43.4430558" lon="12.6337603"><ele>404.0</ele><time>2026-05-03T10:24:02.495Z</time></trkpt><trkpt lat="43.4429974" lon="12.6337001"><ele>403.99999999999994</ele><time>2026-05-03T10:24:03.499Z</time></trkpt><trkpt lat="43.4429347" lon="12.633625"><ele>404.0</ele><time>2026-05-03T10:24:04.493Z</time></trkpt><trkpt lat="43.4428707" lon="12.6335475"><ele>405.49999999999994</ele><time>2026-05-03T10:24:05.499Z</time></trkpt><trkpt lat="43.4428162" lon="12.6334643"><ele>407.0</ele><time>2026-05-03T10:24:06.497Z</time></trkpt><trkpt lat="43.4427726" lon="12.6333812"><ele>408.5</ele><time>2026-05-03T10:24:07.499Z</time></trkpt><trkpt lat="43.4427456" lon="12.6332965"><ele>410.0</ele><time>2026-05-03T10:24:08.498Z</time></trkpt><trkpt lat="43.4427073" lon="12.6331412"><ele>411.49999999999994</ele><time>2026-05-03T10:24:10.496Z</time></trkpt><trkpt lat="43.4426444" lon="12.633074"><ele>413.0</ele><time>2026-05-03T10:24:11.497Z</time></trkpt><trkpt lat="43.4425749" lon="12.6330449"><ele>413.0</ele><time>2026-05-03T10:24:12.497Z</time></trkpt><trkpt lat="43.4424946" lon="12.6330151"><ele>413.0</ele><time>2026-05-03T10:24:13.502Z</time></trkpt><trkpt lat="43.4424202" lon="12.6329394"><ele>413.0</ele><time>2026-05-03T10:24:14.498Z</time></trkpt><trkpt lat="43.4423466" lon="12.6328286"><ele>413.0</ele><time>2026-05-03T10:24:15.499Z</time></trkpt><trkpt lat="43.4422575" lon="12.6327124"><ele>413.0</ele><time>2026-05-03T10:24:16.497Z</time></trkpt><trkpt lat="43.4421637" lon="12.6325988"><ele>412.75</ele><time>2026-05-03T10:24:17.497Z</time></trkpt><trkpt lat="43.442053" lon="12.6324931"><ele>412.5</ele><time>2026-05-03T10:24:18.497Z</time></trkpt><trkpt lat="43.4419236" lon="12.6323969"><ele>412.25</ele><time>2026-05-03T10:24:19.497Z</time></trkpt><trkpt lat="43.4417784" lon="12.6323156"><ele>412.0</ele><time>2026-05-03T10:24:20.498Z</time></trkpt><trkpt lat="43.4416273" lon="12.6322678"><ele>412.0</ele><time>2026-05-03T10:24:21.497Z</time></trkpt><trkpt lat="43.4414678" lon="12.6322478"><ele>412.0</ele><time>2026-05-03T10:24:22.499Z</time></trkpt><trkpt lat="43.4413053" lon="12.6322645"><ele>412.0</ele><time>2026-05-03T10:24:23.499Z</time></trkpt><trkpt lat="43.4411418" lon="12.6323163"><ele>411.33333333333337</ele><time>2026-05-03T10:24:24.499Z</time></trkpt><trkpt lat="43.4409703" lon="12.632388"><ele>410.66666666666663</ele><time>2026-05-03T10:24:25.496Z</time></trkpt><trkpt lat="43.4407861" lon="12.6324694"><ele>410.0</ele><time>2026-05-03T10:24:26.498Z</time></trkpt><trkpt lat="43.4405997" lon="12.6325526"><ele>408.66666666666663</ele><time>2026-05-03T10:24:27.497Z</time></trkpt><trkpt lat="43.4404149" lon="12.6326349"><ele>407.33333333333337</ele><time>2026-05-03T10:24:28.499Z</time></trkpt><trkpt lat="43.440231" lon="12.6327239"><ele>406.0</ele><time>2026-05-03T10:24:29.498Z</time></trkpt><trkpt lat="43.4400529" lon="12.6328124"><ele>411.33333333333337</ele><time>2026-05-03T10:24:30.499Z</time></trkpt><trkpt lat="43.4398583" lon="12.6328922"><ele>416.66666666666663</ele><time>2026-05-03T10:24:31.496Z</time></trkpt><trkpt lat="43.4396621" lon="12.6329781"><ele>422.0</ele><time>2026-05-03T10:24:32.498Z</time></trkpt><trkpt lat="43.4394675" lon="12.6330657"><ele>422.0</ele><time>2026-05-03T10:24:33.496Z</time></trkpt><trkpt lat="43.4392664" lon="12.6331475"><ele>422.0</ele><time>2026-05-03T10:24:34.498Z</time></trkpt><trkpt lat="43.4390582" lon="12.6332143"><ele>422.0</ele><time>2026-05-03T10:24:35.498Z</time></trkpt><trkpt lat="43.4388493" lon="12.6332767"><ele>420.0</ele><time>2026-05-03T10:24:36.5Z</time></trkpt><trkpt lat="43.4386353" lon="12.6333213"><ele>418.0</ele><time>2026-05-03T10:24:37.498Z</time></trkpt><trkpt lat="43.4384228" lon="12.6333646"><ele>416.0</ele><time>2026-05-03T10:24:38.499Z</time></trkpt><trkpt lat="43.4382217" lon="12.6333961"><ele>416.0</ele><time>2026-05-03T10:24:39.498Z</time></trkpt><trkpt lat="43.4380253" lon="12.6334322"><ele>416.0</ele><time>2026-05-03T10:24:40.498Z</time></trkpt><trkpt lat="43.4378398" lon="12.6334691"><ele>416.0</ele><time>2026-05-03T10:24:41.497Z</time></trkpt><trkpt lat="43.4376571" lon="12.6335173"><ele>415.66666666666663</ele><time>2026-05-03T10:24:42.498Z</time></trkpt><trkpt lat="43.4374798" lon="12.6335869"><ele>415.33333333333337</ele><time>2026-05-03T10:24:43.496Z</time></trkpt><trkpt lat="43.4373058" lon="12.6336829"><ele>415.0</ele><time>2026-05-03T10:24:44.497Z</time></trkpt><trkpt lat="43.4371333" lon="12.633804"><ele>419.0</ele><time>2026-05-03T10:24:45.497Z</time></trkpt><trkpt lat="43.436959" lon="12.6339608"><ele>423.0</ele><time>2026-05-03T10:24:46.497Z</time></trkpt><trkpt lat="43.4367756" lon="12.6341579"><ele>427.0</ele><time>2026-05-03T10:24:47.496Z</time></trkpt><trkpt lat="43.436589" lon="12.6343676"><ele>426.33333333333337</ele><time>2026-05-03T10:24:48.499Z</time></trkpt><trkpt lat="43.4364167" lon="12.6345609"><ele>425.66666666666663</ele><time>2026-05-03T10:24:49.499Z</time></trkpt><trkpt lat="43.4362502" lon="12.6347626"><ele>425.0</ele><time>2026-05-03T10:24:50.496Z</time></trkpt><trkpt lat="43.4360676" lon="12.6349802"><ele>425.0</ele><time>2026-05-03T10:24:51.5Z</time></trkpt><trkpt lat="43.4358785" lon="12.6351936"><ele>425.0</ele><time>2026-05-03T10:24:52.493Z</time></trkpt><trkpt lat="43.4356934" lon="12.6354"><ele>425.0</ele><time>2026-05-03T10:24:53.497Z</time></trkpt><trkpt lat="43.4355219" lon="12.6355912"><ele>425.0</ele><time>2026-05-03T10:24:54.498Z</time></trkpt><trkpt lat="43.4353654" lon="12.6357977"><ele>425.0</ele><time>2026-05-03T10:24:55.5Z</time></trkpt><trkpt lat="43.4352809" lon="12.6358522"><ele>425.0</ele><time>2026-05-03T10:24:56.498Z</time></trkpt><trkpt lat="43.4351606" lon="12.6359731"><ele>425.0</ele><time>2026-05-03T10:24:57.497Z</time></trkpt><trkpt lat="43.4350576" lon="12.6360852"><ele>425.0</ele><time>2026-05-03T10:24:58.499Z</time></trkpt><trkpt lat="43.4349738" lon="12.6361833"><ele>425.0</ele><time>2026-05-03T10:24:59.499Z</time></trkpt><trkpt lat="43.4348999" lon="12.6362876"><ele>426.49999999999994</ele><time>2026-05-03T10:25:00.5Z</time></trkpt><trkpt lat="43.4348309" lon="12.636397"><ele>428.0</ele><time>2026-05-03T10:25:01.497Z</time></trkpt><trkpt lat="43.4347984" lon="12.6365111"><ele>429.5</ele><time>2026-05-03T10:25:02.498Z</time></trkpt><trkpt lat="43.4347617" lon="12.6366075"><ele>431.0</ele><time>2026-05-03T10:25:03.5Z</time></trkpt><trkpt lat="43.434728" lon="12.636701"><ele>432.49999999999994</ele><time>2026-05-03T10:25:04.497Z</time></trkpt><trkpt lat="43.4347073" lon="12.6367952"><ele>434.0</ele><time>2026-05-03T10:25:05.496Z</time></trkpt><trkpt lat="43.4347188" lon="12.636892"><ele>436.8333333333333</ele><time>2026-05-03T10:25:06.498Z</time></trkpt><trkpt lat="43.4347338" lon="12.6369831"><ele>439.66666666666663</ele><time>2026-05-03T10:25:07.497Z</time></trkpt><trkpt lat="43.4348228" lon="12.6370304"><ele>442.5</ele><time>2026-05-03T10:25:08.496Z</time></trkpt><trkpt lat="43.4348871" lon="12.6370805"><ele>445.33333333333337</ele><time>2026-05-03T10:25:09.498Z</time></trkpt><trkpt lat="43.4349475" lon="12.6371361"><ele>448.1666666666667</ele><time>2026-05-03T10:25:10.497Z</time></trkpt><trkpt lat="43.4350129" lon="12.6372015"><ele>451.0</ele><time>2026-05-03T10:25:11.497Z</time></trkpt><trkpt lat="43.4350724" lon="12.6372582"><ele>451.0</ele><time>2026-05-03T10:25:12.498Z</time></trkpt><trkpt lat="43.4351266" lon="12.637333"><ele>451.0</ele><time>2026-05-03T10:25:13.496Z</time></trkpt><trkpt lat="43.4351823" lon="12.6374173"><ele>451.0</ele><time>2026-05-03T10:25:14.499Z</time></trkpt><trkpt lat="43.4352048" lon="12.6375664"><ele>451.0</ele><time>2026-05-03T10:25:15.497Z</time></trkpt><trkpt lat="43.4352353" lon="12.6377037"><ele>451.0</ele><time>2026-05-03T10:25:16.496Z</time></trkpt><trkpt lat="43.435266" lon="12.6378507"><ele>452.20000000000005</ele><time>2026-05-03T10:25:17.496Z</time></trkpt><trkpt lat="43.4352857" lon="12.6379973"><ele>453.40000000000003</ele><time>2026-05-03T10:25:18.496Z</time></trkpt><trkpt lat="43.4353312" lon="12.6381213"><ele>454.6</ele><time>2026-05-03T10:25:19.495Z</time></trkpt><trkpt lat="43.4353453" lon="12.6382557"><ele>455.8</ele><time>2026-05-03T10:25:20.499Z</time></trkpt><trkpt lat="43.4353455" lon="12.6383701"><ele>457.0</ele><time>2026-05-03T10:25:21.495Z</time></trkpt><trkpt lat="43.435327" lon="12.6384724"><ele>457.0</ele><time>2026-05-03T10:25:22.498Z</time></trkpt><trkpt lat="43.4352675" lon="12.6385359"><ele>457.00000000000006</ele><time>2026-05-03T10:25:23.499Z</time></trkpt><trkpt lat="43.4351904" lon="12.6386059"><ele>457.00000000000006</ele><time>2026-05-03T10:25:24.493Z</time></trkpt><trkpt lat="43.4350776" lon="12.6386841"><ele>457.0</ele><time>2026-05-03T10:25:25.493Z</time></trkpt><trkpt lat="43.4349943" lon="12.6387852"><ele>457.0</ele><time>2026-05-03T10:25:26.488Z</time></trkpt><trkpt lat="43.4349149" lon="12.6388882"><ele>454.6</ele><time>2026-05-03T10:25:27.496Z</time></trkpt><trkpt lat="43.4348515" lon="12.6389853"><ele>452.20000000000005</ele><time>2026-05-03T10:25:28.498Z</time></trkpt><trkpt lat="43.4347924" lon="12.6390949"><ele>449.8</ele><time>2026-05-03T10:25:29.497Z</time></trkpt><trkpt lat="43.4347385" lon="12.6392044"><ele>447.4</ele><time>2026-05-03T10:25:30.498Z</time></trkpt><trkpt lat="43.4346581" lon="12.6393284"><ele>445.0</ele><time>2026-05-03T10:25:31.499Z</time></trkpt><trkpt lat="43.434574" lon="12.6394245"><ele>446.4</ele><time>2026-05-03T10:25:32.499Z</time></trkpt><trkpt lat="43.4344899" lon="12.6395099"><ele>447.8</ele><time>2026-05-03T10:25:33.501Z</time></trkpt><trkpt lat="43.4344126" lon="12.6395966"><ele>449.20000000000005</ele><time>2026-05-03T10:25:34.499Z</time></trkpt><trkpt lat="43.4343351" lon="12.6396752"><ele>450.6</ele><time>2026-05-03T10:25:35.499Z</time></trkpt><trkpt lat="43.4342575" lon="12.6397527"><ele>452.0</ele><time>2026-05-03T10:25:36.497Z</time></trkpt><trkpt lat="43.4341848" lon="12.639834"><ele>452.0</ele><time>2026-05-03T10:25:37.497Z</time></trkpt><trkpt lat="43.4341081" lon="12.6398904"><ele>452.00000000000006</ele><time>2026-05-03T10:25:38.494Z</time></trkpt><trkpt lat="43.4340269" lon="12.6399334"><ele>452.00000000000006</ele><time>2026-05-03T10:25:39.499Z</time></trkpt><trkpt lat="43.433942" lon="12.6399315"><ele>452.0</ele><time>2026-05-03T10:25:40.498Z</time></trkpt><trkpt lat="43.4338448" lon="12.6399043"><ele>452.0</ele><time>2026-05-03T10:25:41.499Z</time></trkpt><trkpt lat="43.4337468" lon="12.6398509"><ele>453.0</ele><time>2026-05-03T10:25:42.499Z</time></trkpt><trkpt lat="43.4336344" lon="12.6398241"><ele>454.00000000000006</ele><time>2026-05-03T10:25:43.495Z</time></trkpt><trkpt lat="43.4335291" lon="12.6398377"><ele>455.00000000000006</ele><time>2026-05-03T10:25:44.497Z</time></trkpt><trkpt lat="43.4334216" lon="12.6398919"><ele>456.0</ele><time>2026-05-03T10:25:45.502Z</time></trkpt><trkpt lat="43.4333282" lon="12.6399627"><ele>457.0</ele><time>2026-05-03T10:25:46.501Z</time></trkpt><trkpt lat="43.4332424" lon="12.6400764"><ele>457.0</ele><time>2026-05-03T10:25:47.498Z</time></trkpt><trkpt lat="43.4331662" lon="12.6401777"><ele>457.00000000000006</ele><time>2026-05-03T10:25:48.497Z</time></trkpt><trkpt lat="43.433098" lon="12.640277"><ele>457.00000000000006</ele><time>2026-05-03T10:25:49.498Z</time></trkpt><trkpt lat="43.433029" lon="12.6403604"><ele>457.0</ele><time>2026-05-03T10:25:50.499Z</time></trkpt><trkpt lat="43.4329643" lon="12.6404434"><ele>457.0</ele><time>2026-05-03T10:25:51.498Z</time></trkpt><trkpt lat="43.4329073" lon="12.6405191"><ele>457.6</ele><time>2026-05-03T10:25:52.502Z</time></trkpt><trkpt lat="43.4327954" lon="12.6405074"><ele>458.20000000000005</ele><time>2026-05-03T10:25:53.497Z</time></trkpt><trkpt lat="43.4327011" lon="12.6405179"><ele>458.8</ele><time>2026-05-03T10:25:54.493Z</time></trkpt><trkpt lat="43.4326064" lon="12.6405045"><ele>459.4</ele><time>2026-05-03T10:25:55.501Z</time></trkpt><trkpt lat="43.4325051" lon="12.6405019"><ele>460.0</ele><time>2026-05-03T10:25:56.5Z</time></trkpt><trkpt lat="43.4324041" lon="12.6404918"><ele>460.0</ele><time>2026-05-03T10:25:57.5Z</time></trkpt><trkpt lat="43.4323087" lon="12.6404796"><ele>460.0</ele><time>2026-05-03T10:25:58.501Z</time></trkpt><trkpt lat="43.4322131" lon="12.6404627"><ele>460.0</ele><time>2026-05-03T10:25:59.498Z</time></trkpt><trkpt lat="43.4321151" lon="12.6404398"><ele>460.0</ele><time>2026-05-03T10:26:00.499Z</time></trkpt><trkpt lat="43.4320219" lon="12.640408"><ele>460.0</ele><time>2026-05-03T10:26:01.494Z</time></trkpt><trkpt lat="43.4319237" lon="12.6403303"><ele>458.4</ele><time>2026-05-03T10:26:02.498Z</time></trkpt><trkpt lat="43.4318374" lon="12.6402607"><ele>456.8</ele><time>2026-05-03T10:26:03.496Z</time></trkpt><trkpt lat="43.4317654" lon="12.6401511"><ele>455.20000000000005</ele><time>2026-05-03T10:26:04.493Z</time></trkpt><trkpt lat="43.4316861" lon="12.6400578"><ele>453.6</ele><time>2026-05-03T10:26:05.496Z</time></trkpt><trkpt lat="43.4315974" lon="12.6399643"><ele>452.0</ele><time>2026-05-03T10:26:06.498Z</time></trkpt><trkpt lat="43.4314962" lon="12.6398874"><ele>452.0</ele><time>2026-05-03T10:26:07.497Z</time></trkpt><trkpt lat="43.4313865" lon="12.6398215"><ele>452.0</ele><time>2026-05-03T10:26:08.498Z</time></trkpt><trkpt lat="43.4312728" lon="12.6397761"><ele>452.0</ele><time>2026-05-03T10:26:09.496Z</time></trkpt><trkpt lat="43.4311599" lon="12.6397342"><ele>452.0</ele><time>2026-05-03T10:26:10.496Z</time></trkpt><trkpt lat="43.4310422" lon="12.6396979"><ele>450.75</ele><time>2026-05-03T10:26:11.498Z</time></trkpt><trkpt lat="43.4309254" lon="12.6396538"><ele>449.5</ele><time>2026-05-03T10:26:12.498Z</time></trkpt><trkpt lat="43.4308146" lon="12.6396261"><ele>448.25</ele><time>2026-05-03T10:26:13.5Z</time></trkpt><trkpt lat="43.4307013" lon="12.6396062"><ele>447.0</ele><time>2026-05-03T10:26:14.497Z</time></trkpt><trkpt lat="43.4305887" lon="12.6396018"><ele>447.0</ele><time>2026-05-03T10:26:15.499Z</time></trkpt><trkpt lat="43.4304762" lon="12.6396031"><ele>447.0</ele><time>2026-05-03T10:26:16.499Z</time></trkpt><trkpt lat="43.4303613" lon="12.6396393"><ele>447.0</ele><time>2026-05-03T10:26:17.497Z</time></trkpt><trkpt lat="43.4302351" lon="12.6397165"><ele>447.0</ele><time>2026-05-03T10:26:18.498Z</time></trkpt><trkpt lat="43.4300746" lon="12.6397988"><ele>447.33333333333337</ele><time>2026-05-03T10:26:19.502Z</time></trkpt><trkpt lat="43.4299193" lon="12.6398716"><ele>447.6666666666667</ele><time>2026-05-03T10:26:20.497Z</time></trkpt><trkpt lat="43.429779" lon="12.6399474"><ele>448.0</ele><time>2026-05-03T10:26:21.497Z</time></trkpt><trkpt lat="43.4296514" lon="12.640027"><ele>447.33333333333337</ele><time>2026-05-03T10:26:22.498Z</time></trkpt><trkpt lat="43.4295169" lon="12.6401092"><ele>446.66666666666663</ele><time>2026-05-03T10:26:23.496Z</time></trkpt><trkpt lat="43.4293649" lon="12.6402117"><ele>446.0</ele><time>2026-05-03T10:26:24.498Z</time></trkpt><trkpt lat="43.429177" lon="12.640331"><ele>446.0</ele><time>2026-05-03T10:26:25.5Z</time></trkpt><trkpt lat="43.4289458" lon="12.6404551"><ele>446.0</ele><time>2026-05-03T10:26:26.499Z</time></trkpt><trkpt lat="43.4287282" lon="12.6405678"><ele>447.3333333333333</ele><time>2026-05-03T10:26:27.498Z</time></trkpt><trkpt lat="43.4285292" lon="12.6406862"><ele>448.66666666666663</ele><time>2026-05-03T10:26:28.497Z</time></trkpt><trkpt lat="43.4283428" lon="12.6407977"><ele>450.0</ele><time>2026-05-03T10:26:29.497Z</time></trkpt><trkpt lat="43.4281762" lon="12.6409089"><ele>450.0</ele><time>2026-05-03T10:26:30.499Z</time></trkpt><trkpt lat="43.4280211" lon="12.6410196"><ele>450.0</ele><time>2026-05-03T10:26:31.497Z</time></trkpt><trkpt lat="43.42787" lon="12.6411325"><ele>450.0</ele><time>2026-05-03T10:26:32.498Z</time></trkpt><trkpt lat="43.4277234" lon="12.6412373"><ele>450.0</ele><time>2026-05-03T10:26:33.498Z</time></trkpt><trkpt lat="43.4275789" lon="12.6413482"><ele>450.0</ele><time>2026-05-03T10:26:34.499Z</time></trkpt><trkpt lat="43.4274319" lon="12.6414595"><ele>450.0</ele><time>2026-05-03T10:26:35.499Z</time></trkpt><trkpt lat="43.427301" lon="12.6415897"><ele>450.0</ele><time>2026-05-03T10:26:36.499Z</time></trkpt><trkpt lat="43.4271796" lon="12.6417285"><ele>450.0</ele><time>2026-05-03T10:26:37.497Z</time></trkpt><trkpt lat="43.4270656" lon="12.6418653"><ele>450.0</ele><time>2026-05-03T10:26:38.497Z</time></trkpt><trkpt lat="43.4269687" lon="12.6420147"><ele>453.5</ele><time>2026-05-03T10:26:39.497Z</time></trkpt><trkpt lat="43.4268966" lon="12.6421898"><ele>457.0</ele><time>2026-05-03T10:26:40.503Z</time></trkpt><trkpt lat="43.4268507" lon="12.6423739"><ele>460.5</ele><time>2026-05-03T10:26:41.498Z</time></trkpt><trkpt lat="43.4268223" lon="12.6425544"><ele>464.0</ele><time>2026-05-03T10:26:42.496Z</time></trkpt><trkpt lat="43.4267992" lon="12.6427306"><ele>463.75</ele><time>2026-05-03T10:26:43.498Z</time></trkpt><trkpt lat="43.4267815" lon="12.6429056"><ele>463.5</ele><time>2026-05-03T10:26:44.498Z</time></trkpt><trkpt lat="43.4267677" lon="12.6430686"><ele>463.25</ele><time>2026-05-03T10:26:45.5Z</time></trkpt><trkpt lat="43.4267622" lon="12.6432245"><ele>463.0</ele><time>2026-05-03T10:26:46.497Z</time></trkpt><trkpt lat="43.4267777" lon="12.6433843"><ele>463.0</ele><time>2026-05-03T10:26:47.497Z</time></trkpt><trkpt lat="43.4268065" lon="12.6435506"><ele>463.0</ele><time>2026-05-03T10:26:48.497Z</time></trkpt><trkpt lat="43.426844" lon="12.6437075"><ele>463.0</ele><time>2026-05-03T10:26:49.503Z</time></trkpt><trkpt lat="43.4268949" lon="12.6438558"><ele>463.0</ele><time>2026-05-03T10:26:50.497Z</time></trkpt><trkpt lat="43.4269427" lon="12.6440009"><ele>464.0</ele><time>2026-05-03T10:26:51.498Z</time></trkpt><trkpt lat="43.4269881" lon="12.6441388"><ele>464.99999999999994</ele><time>2026-05-03T10:26:52.499Z</time></trkpt><trkpt lat="43.4270066" lon="12.6442523"><ele>465.99999999999994</ele><time>2026-05-03T10:26:53.496Z</time></trkpt><trkpt lat="43.4270841" lon="12.6443575"><ele>467.0</ele><time>2026-05-03T10:26:54.497Z</time></trkpt><trkpt lat="43.4271161" lon="12.6444524"><ele>468.0</ele><time>2026-05-03T10:26:55.498Z</time></trkpt><trkpt lat="43.4271566" lon="12.6445408"><ele>468.5</ele><time>2026-05-03T10:26:56.498Z</time></trkpt><trkpt lat="43.4271075" lon="12.6446676"><ele>469.0</ele><time>2026-05-03T10:26:57.498Z</time></trkpt><trkpt lat="43.4269854" lon="12.6447505"><ele>469.5</ele><time>2026-05-03T10:26:58.496Z</time></trkpt><trkpt lat="43.4268922" lon="12.6448319"><ele>470.0</ele><time>2026-05-03T10:26:59.5Z</time></trkpt><trkpt lat="43.4267726" lon="12.6449046"><ele>470.0</ele><time>2026-05-03T10:27:00.497Z</time></trkpt><trkpt lat="43.426628" lon="12.644943"><ele>470.0</ele><time>2026-05-03T10:27:01.495Z</time></trkpt><trkpt lat="43.4264894" lon="12.6449889"><ele>470.0</ele><time>2026-05-03T10:27:02.497Z</time></trkpt><trkpt lat="43.4262908" lon="12.6450012"><ele>470.3333333333333</ele><time>2026-05-03T10:27:03.496Z</time></trkpt><trkpt lat="43.4260656" lon="12.6450197"><ele>470.66666666666663</ele><time>2026-05-03T10:27:04.498Z</time></trkpt><trkpt lat="43.4258828" lon="12.6450334"><ele>471.0</ele><time>2026-05-03T10:27:05.499Z</time></trkpt><trkpt lat="43.4257179" lon="12.6450581"><ele>471.0</ele><time>2026-05-03T10:27:06.496Z</time></trkpt><trkpt lat="43.4255695" lon="12.6450691"><ele>471.0</ele><time>2026-05-03T10:27:07.497Z</time></trkpt><trkpt lat="43.4254529" lon="12.6451188"><ele>471.0</ele><time>2026-05-03T10:27:08.502Z</time></trkpt><trkpt lat="43.425322" lon="12.6451442"><ele>471.0</ele><time>2026-05-03T10:27:09.497Z</time></trkpt><trkpt lat="43.4252177" lon="12.6452432"><ele>470.0</ele><time>2026-05-03T10:27:10.496Z</time></trkpt><trkpt lat="43.4251924" lon="12.6453619"><ele>469.0</ele><time>2026-05-03T10:27:11.501Z</time></trkpt><trkpt lat="43.4252045" lon="12.6455417"><ele>468.0</ele><time>2026-05-03T10:27:12.497Z</time></trkpt><trkpt lat="43.4252537" lon="12.6457346"><ele>467.0</ele><time>2026-05-03T10:27:13.507Z</time></trkpt><trkpt lat="43.4252651" lon="12.6459165"><ele>467.0</ele><time>2026-05-03T10:27:14.499Z</time></trkpt><trkpt lat="43.4252816" lon="12.6460751"><ele>467.0</ele><time>2026-05-03T10:27:15.498Z</time></trkpt><trkpt lat="43.425313" lon="12.6462484"><ele>467.0</ele><time>2026-05-03T10:27:16.496Z</time></trkpt><trkpt lat="43.4253924" lon="12.6463269"><ele>467.0</ele><time>2026-05-03T10:27:17.496Z</time></trkpt><trkpt lat="43.4254702" lon="12.6464294"><ele>477.0</ele><time>2026-05-03T10:27:18.501Z</time></trkpt><trkpt lat="43.4255476" lon="12.6465163"><ele>487.0</ele><time>2026-05-03T10:27:19.497Z</time></trkpt><trkpt lat="43.425704" lon="12.6463594"><ele>497.0</ele><time>2026-05-03T10:27:20.496Z</time></trkpt><trkpt lat="43.4258426" lon="12.6461896"><ele>489.3333333333333</ele><time>2026-05-03T10:27:21.497Z</time></trkpt><trkpt lat="43.4259778" lon="12.6460787"><ele>481.66666666666663</ele><time>2026-05-03T10:27:22.499Z</time></trkpt><trkpt lat="43.4261338" lon="12.6459492"><ele>474.0</ele><time>2026-05-03T10:27:23.497Z</time></trkpt><trkpt lat="43.4262839" lon="12.6458484"><ele>478.33333333333337</ele><time>2026-05-03T10:27:24.496Z</time></trkpt><trkpt lat="43.4264351" lon="12.6457797"><ele>482.6666666666667</ele><time>2026-05-03T10:27:25.498Z</time></trkpt><trkpt lat="43.4266081" lon="12.6457439"><ele>487.0</ele><time>2026-05-03T10:27:26.497Z</time></trkpt><trkpt lat="43.4267751" lon="12.6456827"><ele>487.0</ele><time>2026-05-03T10:27:27.496Z</time></trkpt><trkpt lat="43.4269316" lon="12.6456209"><ele>487.0</ele><time>2026-05-03T10:27:28.503Z</time></trkpt><trkpt lat="43.4271026" lon="12.6455442"><ele>487.0</ele><time>2026-05-03T10:27:29.496Z</time></trkpt><trkpt lat="43.4272483" lon="12.6454447"><ele>485.6666666666667</ele><time>2026-05-03T10:27:30.497Z</time></trkpt><trkpt lat="43.4274118" lon="12.6453746"><ele>484.33333333333337</ele><time>2026-05-03T10:27:31.498Z</time></trkpt><trkpt lat="43.4275602" lon="12.6452486"><ele>483.0</ele><time>2026-05-03T10:27:32.493Z</time></trkpt><trkpt lat="43.4277056" lon="12.6451031"><ele>483.0</ele><time>2026-05-03T10:27:33.498Z</time></trkpt><trkpt lat="43.4276954" lon="12.6448135"><ele>483.0</ele><time>2026-05-03T10:27:34.496Z</time></trkpt><trkpt lat="43.4277901" lon="12.6446256"><ele>483.0</ele><time>2026-05-03T10:27:35.497Z</time></trkpt><trkpt lat="43.4278831" lon="12.6444717"><ele>483.0</ele><time>2026-05-03T10:27:36.496Z</time></trkpt><trkpt lat="43.4279643" lon="12.6443087"><ele>482.99999999999994</ele><time>2026-05-03T10:27:37.495Z</time></trkpt><trkpt lat="43.4280246" lon="12.6441452"><ele>482.99999999999994</ele><time>2026-05-03T10:27:38.497Z</time></trkpt><trkpt lat="43.428081" lon="12.6440843"><ele>483.0</ele><time>2026-05-03T10:27:39.498Z</time></trkpt><trkpt lat="43.4281694" lon="12.6441401"><ele>483.0</ele><time>2026-05-03T10:27:41.494Z</time></trkpt><trkpt lat="43.4281978" lon="12.6442374"><ele>483.0</ele><time>2026-05-03T10:27:42.499Z</time></trkpt><trkpt lat="43.4282238" lon="12.6443248"><ele>483.0</ele><time>2026-05-03T10:27:43.495Z</time></trkpt><trkpt lat="43.428146" lon="12.6444259"><ele>483.0</ele><time>2026-05-03T10:27:44.499Z</time></trkpt><trkpt lat="43.42805" lon="12.6445364"><ele>483.0</ele><time>2026-05-03T10:27:45.497Z</time></trkpt><trkpt lat="43.4279344" lon="12.6446957"><ele>483.0</ele><time>2026-05-03T10:27:46.497Z</time></trkpt><trkpt lat="43.4278136" lon="12.6448574"><ele>483.0</ele><time>2026-05-03T10:27:47.496Z</time></trkpt><trkpt lat="43.427732" lon="12.6450522"><ele>483.0</ele><time>2026-05-03T10:27:48.498Z</time></trkpt><trkpt lat="43.427631" lon="12.6452484"><ele>492.33333333333337</ele><time>2026-05-03T10:27:49.495Z</time></trkpt><trkpt lat="43.4275104" lon="12.6453866"><ele>501.6666666666667</ele><time>2026-05-03T10:27:50.499Z</time></trkpt><trkpt lat="43.4273668" lon="12.6454991"><ele>511.0</ele><time>2026-05-03T10:27:51.496Z</time></trkpt><trkpt lat="43.4272254" lon="12.6456242"><ele>503.0</ele><time>2026-05-03T10:27:52.498Z</time></trkpt><trkpt lat="43.427116" lon="12.6457764"><ele>495.0</ele><time>2026-05-03T10:27:53.496Z</time></trkpt><trkpt lat="43.4270078" lon="12.6459445"><ele>487.0</ele><time>2026-05-03T10:27:54.497Z</time></trkpt><trkpt lat="43.4268787" lon="12.6460651"><ele>487.0</ele><time>2026-05-03T10:27:55.496Z</time></trkpt><trkpt lat="43.4267381" lon="12.6460949"><ele>487.0</ele><time>2026-05-03T10:27:56.497Z</time></trkpt><trkpt lat="43.4266147" lon="12.6461139"><ele>487.0</ele><time>2026-05-03T10:27:57.496Z</time></trkpt><trkpt lat="43.4264909" lon="12.64614"><ele>487.0</ele><time>2026-05-03T10:27:58.498Z</time></trkpt><trkpt lat="43.4263759" lon="12.6462282"><ele>490.33333333333337</ele><time>2026-05-03T10:27:59.496Z</time></trkpt><trkpt lat="43.4262425" lon="12.6463363"><ele>493.66666666666663</ele><time>2026-05-03T10:28:00.496Z</time></trkpt><trkpt lat="43.4261083" lon="12.6465011"><ele>497.0</ele><time>2026-05-03T10:28:01.496Z</time></trkpt><trkpt lat="43.4259824" lon="12.6466498"><ele>497.0</ele><time>2026-05-03T10:28:02.497Z</time></trkpt><trkpt lat="43.4258243" lon="12.6468357"><ele>497.0</ele><time>2026-05-03T10:28:03.496Z</time></trkpt><trkpt lat="43.4256528" lon="12.6469678"><ele>497.0</ele><time>2026-05-03T10:28:04.498Z</time></trkpt><trkpt lat="43.4254864" lon="12.6471024"><ele>505.3333333333333</ele><time>2026-05-03T10:28:05.498Z</time></trkpt><trkpt lat="43.4252794" lon="12.6472256"><ele>513.6666666666666</ele><time>2026-05-03T10:28:06.498Z</time></trkpt><trkpt lat="43.4251029" lon="12.6472658"><ele>522.0</ele><time>2026-05-03T10:28:07.497Z</time></trkpt><trkpt lat="43.4249337" lon="12.6472887"><ele>522.0</ele><time>2026-05-03T10:28:08.496Z</time></trkpt><trkpt lat="43.4247535" lon="12.647319"><ele>522.0</ele><time>2026-05-03T10:28:09.5Z</time></trkpt><trkpt lat="43.4245698" lon="12.6472568"><ele>522.0</ele><time>2026-05-03T10:28:10.501Z</time></trkpt><trkpt lat="43.4243964" lon="12.6472213"><ele>521.3333333333334</ele><time>2026-05-03T10:28:11.496Z</time></trkpt><trkpt lat="43.4242382" lon="12.6471976"><ele>520.6666666666667</ele><time>2026-05-03T10:28:12.496Z</time></trkpt><trkpt lat="43.4240729" lon="12.6471859"><ele>520.0</ele><time>2026-05-03T10:28:13.496Z</time></trkpt><trkpt lat="43.4239132" lon="12.6472014"><ele>514.0</ele><time>2026-05-03T10:28:14.499Z</time></trkpt><trkpt lat="43.4237864" lon="12.6474562"><ele>508.0</ele><time>2026-05-03T10:28:15.497Z</time></trkpt><trkpt lat="43.4236435" lon="12.6475928"><ele>502.0</ele><time>2026-05-03T10:28:16.501Z</time></trkpt><trkpt lat="43.4234948" lon="12.6477547"><ele>511.33333333333337</ele><time>2026-05-03T10:28:17.493Z</time></trkpt><trkpt lat="43.4233419" lon="12.6479264"><ele>520.6666666666666</ele><time>2026-05-03T10:28:18.496Z</time></trkpt><trkpt lat="43.4232112" lon="12.6481581"><ele>530.0</ele><time>2026-05-03T10:28:19.499Z</time></trkpt><trkpt lat="43.4230816" lon="12.6483912"><ele>527.3333333333333</ele><time>2026-05-03T10:28:20.499Z</time></trkpt><trkpt lat="43.4229716" lon="12.6486298"><ele>524.6666666666666</ele><time>2026-05-03T10:28:21.528Z</time></trkpt><trkpt lat="43.4228622" lon="12.6488651"><ele>522.0</ele><time>2026-05-03T10:28:22.496Z</time></trkpt><trkpt lat="43.4227608" lon="12.6491046"><ele>522.0</ele><time>2026-05-03T10:28:23.498Z</time></trkpt><trkpt lat="43.4226812" lon="12.6493376"><ele>522.0</ele><time>2026-05-03T10:28:24.499Z</time></trkpt><trkpt lat="43.4225743" lon="12.6495517"><ele>522.0</ele><time>2026-05-03T10:28:25.53Z</time></trkpt><trkpt lat="43.4224618" lon="12.649736"><ele>522.0</ele><time>2026-05-03T10:28:26.498Z</time></trkpt><trkpt lat="43.4223507" lon="12.6499159"><ele>522.0</ele><time>2026-05-03T10:28:27.499Z</time></trkpt><trkpt lat="43.422227" lon="12.6500963"><ele>522.0</ele><time>2026-05-03T10:28:28.497Z</time></trkpt><trkpt lat="43.4220686" lon="12.6502063"><ele>531.0</ele><time>2026-05-03T10:28:29.498Z</time></trkpt><trkpt lat="43.4219116" lon="12.6503629"><ele>540.0</ele><time>2026-05-03T10:28:30.499Z</time></trkpt><trkpt lat="43.421739" lon="12.6504495"><ele>549.0</ele><time>2026-05-03T10:28:31.498Z</time></trkpt><trkpt lat="43.4215892" lon="12.6505701"><ele>549.0</ele><time>2026-05-03T10:28:32.497Z</time></trkpt><trkpt lat="43.4214426" lon="12.6507031"><ele>549.0</ele><time>2026-05-03T10:28:33.502Z</time></trkpt><trkpt lat="43.4212827" lon="12.6508217"><ele>549.0</ele><time>2026-05-03T10:28:34.5Z</time></trkpt><trkpt lat="43.4211628" lon="12.6509785"><ele>550.0</ele><time>2026-05-03T10:28:35.49Z</time></trkpt><trkpt lat="43.420985" lon="12.6510916"><ele>551.0</ele><time>2026-05-03T10:28:36.499Z</time></trkpt><trkpt lat="43.4208147" lon="12.6512595"><ele>552.0</ele><time>2026-05-03T10:28:37.498Z</time></trkpt><trkpt lat="43.4206902" lon="12.6514558"><ele>552.0</ele><time>2026-05-03T10:28:38.497Z</time></trkpt><trkpt lat="43.4205286" lon="12.6516254"><ele>552.0</ele><time>2026-05-03T10:28:39.495Z</time></trkpt><trkpt lat="43.4203615" lon="12.6517583"><ele>552.0</ele><time>2026-05-03T10:28:40.494Z</time></trkpt><trkpt lat="43.4202033" lon="12.6518725"><ele>554.0</ele><time>2026-05-03T10:28:41.498Z</time></trkpt><trkpt lat="43.4200507" lon="12.6519809"><ele>556.0</ele><time>2026-05-03T10:28:42.495Z</time></trkpt><trkpt lat="43.4199054" lon="12.652096"><ele>558.0</ele><time>2026-05-03T10:28:43.496Z</time></trkpt><trkpt lat="43.419773" lon="12.6522126"><ele>549.0</ele><time>2026-05-03T10:28:44.497Z</time></trkpt><trkpt lat="43.4196465" lon="12.6523367"><ele>540.0</ele><time>2026-05-03T10:28:45.496Z</time></trkpt><trkpt lat="43.4195255" lon="12.6524731"><ele>531.0</ele><time>2026-05-03T10:28:46.496Z</time></trkpt><trkpt lat="43.4194104" lon="12.6526155"><ele>531.0</ele><time>2026-05-03T10:28:47.497Z</time></trkpt><trkpt lat="43.4192989" lon="12.6527686"><ele>531.0</ele><time>2026-05-03T10:28:48.498Z</time></trkpt><trkpt lat="43.4191914" lon="12.6529259"><ele>531.0</ele><time>2026-05-03T10:28:49.497Z</time></trkpt><trkpt lat="43.4190959" lon="12.6531019"><ele>536.0</ele><time>2026-05-03T10:28:50.499Z</time></trkpt><trkpt lat="43.4190016" lon="12.6532618"><ele>541.0</ele><time>2026-05-03T10:28:51.494Z</time></trkpt><trkpt lat="43.4189124" lon="12.6534098"><ele>546.0</ele><time>2026-05-03T10:28:52.499Z</time></trkpt><trkpt lat="43.4188197" lon="12.6535525"><ele>551.0</ele><time>2026-05-03T10:28:53.491Z</time></trkpt><trkpt lat="43.4186969" lon="12.6536919"><ele>551.0</ele><time>2026-05-03T10:28:54.496Z</time></trkpt><trkpt lat="43.4185824" lon="12.6538253"><ele>551.0</ele><time>2026-05-03T10:28:55.496Z</time></trkpt><trkpt lat="43.4184707" lon="12.6539528"><ele>551.0</ele><time>2026-05-03T10:28:56.498Z</time></trkpt><trkpt lat="43.4183848" lon="12.6540903"><ele>551.0</ele><time>2026-05-03T10:28:57.498Z</time></trkpt><trkpt lat="43.4183294" lon="12.6542399"><ele>551.0</ele><time>2026-05-03T10:28:58.498Z</time></trkpt><trkpt lat="43.4182818" lon="12.6544102"><ele>551.0</ele><time>2026-05-03T10:28:59.497Z</time></trkpt><trkpt lat="43.4182399" lon="12.6545976"><ele>551.0</ele><time>2026-05-03T10:29:00.497Z</time></trkpt><trkpt lat="43.4181913" lon="12.6547933"><ele>551.0</ele><time>2026-05-03T10:29:01.497Z</time></trkpt><trkpt lat="43.418126" lon="12.6549593"><ele>550.25</ele><time>2026-05-03T10:29:02.497Z</time></trkpt><trkpt lat="43.4180464" lon="12.6551031"><ele>549.5</ele><time>2026-05-03T10:29:03.498Z</time></trkpt><trkpt lat="43.41796" lon="12.6552323"><ele>548.75</ele><time>2026-05-03T10:29:04.495Z</time></trkpt><trkpt lat="43.4178621" lon="12.6553515"><ele>548.0</ele><time>2026-05-03T10:29:05.494Z</time></trkpt><trkpt lat="43.4177564" lon="12.6554581"><ele>551.25</ele><time>2026-05-03T10:29:06.496Z</time></trkpt><trkpt lat="43.417638" lon="12.6555322"><ele>554.5</ele><time>2026-05-03T10:29:07.498Z</time></trkpt><trkpt lat="43.4175121" lon="12.655586"><ele>557.75</ele><time>2026-05-03T10:29:08.502Z</time></trkpt><trkpt lat="43.4173829" lon="12.6556202"><ele>561.0</ele><time>2026-05-03T10:29:09.498Z</time></trkpt><trkpt lat="43.417262" lon="12.6556184"><ele>561.0</ele><time>2026-05-03T10:29:10.497Z</time></trkpt><trkpt lat="43.4171554" lon="12.6556047"><ele>561.0</ele><time>2026-05-03T10:29:11.494Z</time></trkpt><trkpt lat="43.4170577" lon="12.6555623"><ele>561.0</ele><time>2026-05-03T10:29:12.497Z</time></trkpt><trkpt lat="43.4169805" lon="12.6554779"><ele>561.0</ele><time>2026-05-03T10:29:13.496Z</time></trkpt><trkpt lat="43.4169323" lon="12.6553647"><ele>561.0</ele><time>2026-05-03T10:29:14.496Z</time></trkpt><trkpt lat="43.4168743" lon="12.6552533"><ele>561.0</ele><time>2026-05-03T10:29:15.496Z</time></trkpt><trkpt lat="43.416775" lon="12.6551847"><ele>561.0</ele><time>2026-05-03T10:29:16.498Z</time></trkpt><trkpt lat="43.4166953" lon="12.6551113"><ele>561.0</ele><time>2026-05-03T10:29:17.496Z</time></trkpt><trkpt lat="43.4165694" lon="12.6550995"><ele>561.0</ele><time>2026-05-03T10:29:18.498Z</time></trkpt><trkpt lat="43.4164687" lon="12.655061"><ele>561.0</ele><time>2026-05-03T10:29:19.497Z</time></trkpt><trkpt lat="43.4163345" lon="12.6549972"><ele>564.75</ele><time>2026-05-03T10:29:20.498Z</time></trkpt><trkpt lat="43.4162073" lon="12.6549481"><ele>568.5</ele><time>2026-05-03T10:29:21.497Z</time></trkpt><trkpt lat="43.4160781" lon="12.6549296"><ele>572.25</ele><time>2026-05-03T10:29:22.498Z</time></trkpt><trkpt lat="43.4159506" lon="12.6548968"><ele>576.0</ele><time>2026-05-03T10:29:23.497Z</time></trkpt><trkpt lat="43.4158205" lon="12.6549156"><ele>576.0</ele><time>2026-05-03T10:29:24.497Z</time></trkpt><trkpt lat="43.4156982" lon="12.6548822"><ele>576.0</ele><time>2026-05-03T10:29:25.495Z</time></trkpt><trkpt lat="43.4155899" lon="12.6548288"><ele>576.0</ele><time>2026-05-03T10:29:26.496Z</time></trkpt><trkpt lat="43.4154981" lon="12.654741"><ele>576.0</ele><time>2026-05-03T10:29:27.499Z</time></trkpt><trkpt lat="43.4154034" lon="12.6546431"><ele>578.75</ele><time>2026-05-03T10:29:28.5Z</time></trkpt><trkpt lat="43.4152997" lon="12.6545596"><ele>581.5</ele><time>2026-05-03T10:29:29.499Z</time></trkpt><trkpt lat="43.4151846" lon="12.6545135"><ele>584.25</ele><time>2026-05-03T10:29:30.5Z</time></trkpt><trkpt lat="43.4150633" lon="12.6545018"><ele>587.0</ele><time>2026-05-03T10:29:31.497Z</time></trkpt><trkpt lat="43.4149425" lon="12.6545248"><ele>587.0</ele><time>2026-05-03T10:29:32.499Z</time></trkpt><trkpt lat="43.4148157" lon="12.6545637"><ele>587.0</ele><time>2026-05-03T10:29:33.497Z</time></trkpt><trkpt lat="43.4146912" lon="12.6546142"><ele>587.0</ele><time>2026-05-03T10:29:34.499Z</time></trkpt><trkpt lat="43.4145585" lon="12.6546668"><ele>587.0</ele><time>2026-05-03T10:29:35.496Z</time></trkpt><trkpt lat="43.4144526" lon="12.6547393"><ele>587.0</ele><time>2026-05-03T10:29:36.497Z</time></trkpt><trkpt lat="43.414346" lon="12.6548007"><ele>587.0</ele><time>2026-05-03T10:29:37.496Z</time></trkpt><trkpt lat="43.414227" lon="12.6548377"><ele>587.0</ele><time>2026-05-03T10:29:38.496Z</time></trkpt><trkpt lat="43.4141164" lon="12.6548743"><ele>587.0</ele><time>2026-05-03T10:29:39.5Z</time></trkpt><trkpt lat="43.4139976" lon="12.6548744"><ele>587.0</ele><time>2026-05-03T10:29:40.499Z</time></trkpt><trkpt lat="43.4138778" lon="12.6548642"><ele>587.0</ele><time>2026-05-03T10:29:41.495Z</time></trkpt><trkpt lat="43.4137576" lon="12.6548629"><ele>587.0</ele><time>2026-05-03T10:29:42.502Z</time></trkpt><trkpt lat="43.4136438" lon="12.6548573"><ele>587.0</ele><time>2026-05-03T10:29:43.497Z</time></trkpt><trkpt lat="43.4135414" lon="12.6548704"><ele>588.6666666666666</ele><time>2026-05-03T10:29:44.498Z</time></trkpt><trkpt lat="43.4134466" lon="12.6548996"><ele>590.3333333333333</ele><time>2026-05-03T10:29:45.497Z</time></trkpt><trkpt lat="43.4133792" lon="12.6549744"><ele>592.0</ele><time>2026-05-03T10:29:46.5Z</time></trkpt><trkpt lat="43.4133466" lon="12.655076"><ele>593.6666666666666</ele><time>2026-05-03T10:29:47.499Z</time></trkpt><trkpt lat="43.4133529" lon="12.6551872"><ele>595.3333333333334</ele><time>2026-05-03T10:29:48.498Z</time></trkpt><trkpt lat="43.4133936" lon="12.6552818"><ele>597.0</ele><time>2026-05-03T10:29:49.496Z</time></trkpt><trkpt lat="43.4134759" lon="12.6553335"><ele>597.0</ele><time>2026-05-03T10:29:50.501Z</time></trkpt><trkpt lat="43.413576" lon="12.6553322"><ele>597.0</ele><time>2026-05-03T10:29:51.496Z</time></trkpt><trkpt lat="43.4136896" lon="12.6552794"><ele>597.0</ele><time>2026-05-03T10:29:52.496Z</time></trkpt><trkpt lat="43.4138148" lon="12.6552015"><ele>597.0</ele><time>2026-05-03T10:29:53.495Z</time></trkpt><trkpt lat="43.4139575" lon="12.6551681"><ele>594.5</ele><time>2026-05-03T10:29:54.499Z</time></trkpt><trkpt lat="43.4141013" lon="12.6551655"><ele>592.0</ele><time>2026-05-03T10:29:55.497Z</time></trkpt><trkpt lat="43.4142562" lon="12.6551749"><ele>589.5</ele><time>2026-05-03T10:29:56.498Z</time></trkpt><trkpt lat="43.4144036" lon="12.6551938"><ele>587.0</ele><time>2026-05-03T10:29:57.495Z</time></trkpt><trkpt lat="43.4145499" lon="12.6552037"><ele>587.0</ele><time>2026-05-03T10:29:58.495Z</time></trkpt><trkpt lat="43.4147495" lon="12.6552207"><ele>587.0</ele><time>2026-05-03T10:29:59.497Z</time></trkpt><trkpt lat="43.4149442" lon="12.6552817"><ele>587.0</ele><time>2026-05-03T10:30:00.496Z</time></trkpt><trkpt lat="43.4151038" lon="12.6553454"><ele>589.3333333333333</ele><time>2026-05-03T10:30:01.494Z</time></trkpt><trkpt lat="43.4152657" lon="12.6554179"><ele>591.6666666666666</ele><time>2026-05-03T10:30:02.497Z</time></trkpt><trkpt lat="43.4154071" lon="12.6554873"><ele>594.0</ele><time>2026-05-03T10:30:03.498Z</time></trkpt><trkpt lat="43.4155111" lon="12.6556047"><ele>594.0</ele><time>2026-05-03T10:30:04.495Z</time></trkpt><trkpt lat="43.4156255" lon="12.6557153"><ele>594.0</ele><time>2026-05-03T10:30:05.497Z</time></trkpt><trkpt lat="43.4156954" lon="12.6558818"><ele>594.0</ele><time>2026-05-03T10:30:06.498Z</time></trkpt><trkpt lat="43.4157599" lon="12.656014"><ele>594.0</ele><time>2026-05-03T10:30:07.496Z</time></trkpt><trkpt lat="43.4157964" lon="12.6561389"><ele>598.5</ele><time>2026-05-03T10:30:08.498Z</time></trkpt><trkpt lat="43.4158084" lon="12.6562573"><ele>603.0</ele><time>2026-05-03T10:30:09.492Z</time></trkpt><trkpt lat="43.4157648" lon="12.6563349"><ele>607.5</ele><time>2026-05-03T10:30:10.496Z</time></trkpt><trkpt lat="43.415702" lon="12.656382"><ele>612.0</ele><time>2026-05-03T10:30:11.497Z</time></trkpt><trkpt lat="43.4156434" lon="12.6564242"><ele>616.5</ele><time>2026-05-03T10:30:12.498Z</time></trkpt><trkpt lat="43.4155632" lon="12.6564191"><ele>621.0</ele><time>2026-05-03T10:30:13.496Z</time></trkpt><trkpt lat="43.4155069" lon="12.656219"><ele>618.25</ele><time>2026-05-03T10:30:14.496Z</time></trkpt><trkpt lat="43.4154373" lon="12.656101"><ele>615.5</ele><time>2026-05-03T10:30:15.496Z</time></trkpt><trkpt lat="43.4153294" lon="12.655918"><ele>612.75</ele><time>2026-05-03T10:30:16.498Z</time></trkpt><trkpt lat="43.4152255" lon="12.655813"><ele>610.0</ele><time>2026-05-03T10:30:17.496Z</time></trkpt><trkpt lat="43.4151077" lon="12.6556987"><ele>610.0</ele><time>2026-05-03T10:30:18.497Z</time></trkpt><trkpt lat="43.4149704" lon="12.6557134"><ele>610.0</ele><time>2026-05-03T10:30:19.497Z</time></trkpt><trkpt lat="43.4148278" lon="12.6556828"><ele>610.0</ele><time>2026-05-03T10:30:20.5Z</time></trkpt><trkpt lat="43.414673" lon="12.6557032"><ele>610.0</ele><time>2026-05-03T10:30:21.498Z</time></trkpt><trkpt lat="43.414503" lon="12.6557496"><ele>611.0</ele><time>2026-05-03T10:30:22.496Z</time></trkpt><trkpt lat="43.4143403" lon="12.6558374"><ele>612.0</ele><time>2026-05-03T10:30:23.495Z</time></trkpt><trkpt lat="43.4141631" lon="12.6559542"><ele>613.0</ele><time>2026-05-03T10:30:24.496Z</time></trkpt><trkpt lat="43.4139962" lon="12.6560761"><ele>615.0</ele><time>2026-05-03T10:30:25.497Z</time></trkpt><trkpt lat="43.4138254" lon="12.6562731"><ele>617.0</ele><time>2026-05-03T10:30:26.498Z</time></trkpt><trkpt lat="43.41366" lon="12.6564256"><ele>619.0</ele><time>2026-05-03T10:30:27.495Z</time></trkpt><trkpt lat="43.4134949" lon="12.6565948"><ele>619.0</ele><time>2026-05-03T10:30:28.494Z</time></trkpt><trkpt lat="43.4133171" lon="12.656764"><ele>619.0</ele><time>2026-05-03T10:30:29.496Z</time></trkpt><trkpt lat="43.4131579" lon="12.6569283"><ele>619.0</ele><time>2026-05-03T10:30:30.495Z</time></trkpt><trkpt lat="43.4129918" lon="12.657096"><ele>621.0</ele><time>2026-05-03T10:30:31.495Z</time></trkpt><trkpt lat="43.4128295" lon="12.6572682"><ele>623.0</ele><time>2026-05-03T10:30:32.495Z</time></trkpt><trkpt lat="43.4126702" lon="12.6574424"><ele>625.0</ele><time>2026-05-03T10:30:33.497Z</time></trkpt><trkpt lat="43.4125038" lon="12.657608"><ele>625.0</ele><time>2026-05-03T10:30:34.497Z</time></trkpt><trkpt lat="43.4123381" lon="12.6577807"><ele>625.0</ele><time>2026-05-03T10:30:35.498Z</time></trkpt><trkpt lat="43.412168" lon="12.6579389"><ele>625.0</ele><time>2026-05-03T10:30:36.496Z</time></trkpt><trkpt lat="43.4119924" lon="12.6581092"><ele>628.6666666666667</ele><time>2026-05-03T10:30:37.497Z</time></trkpt><trkpt lat="43.4118325" lon="12.6582702"><ele>632.3333333333334</ele><time>2026-05-03T10:30:38.498Z</time></trkpt><trkpt lat="43.4116769" lon="12.6584464"><ele>636.0</ele><time>2026-05-03T10:30:39.5Z</time></trkpt><trkpt lat="43.4115391" lon="12.6586272"><ele>637.6666666666666</ele><time>2026-05-03T10:30:40.496Z</time></trkpt><trkpt lat="43.4114156" lon="12.6587923"><ele>639.3333333333333</ele><time>2026-05-03T10:30:41.498Z</time></trkpt><trkpt lat="43.4112991" lon="12.658955"><ele>641.0</ele><time>2026-05-03T10:30:42.499Z</time></trkpt><trkpt lat="43.4111981" lon="12.6591024"><ele>641.0</ele><time>2026-05-03T10:30:43.497Z</time></trkpt><trkpt lat="43.4110854" lon="12.6592647"><ele>641.0</ele><time>2026-05-03T10:30:44.496Z</time></trkpt><trkpt lat="43.410981" lon="12.6594262"><ele>641.0</ele><time>2026-05-03T10:30:45.497Z</time></trkpt><trkpt lat="43.4108723" lon="12.6595837"><ele>640.0</ele><time>2026-05-03T10:30:46.493Z</time></trkpt><trkpt lat="43.4107605" lon="12.6597414"><ele>639.0</ele><time>2026-05-03T10:30:47.495Z</time></trkpt><trkpt lat="43.410645" lon="12.6599112"><ele>638.0</ele><time>2026-05-03T10:30:48.495Z</time></trkpt><trkpt lat="43.4105398" lon="12.6600761"><ele>638.25</ele><time>2026-05-03T10:30:49.498Z</time></trkpt><trkpt lat="43.4104366" lon="12.6602334"><ele>638.5</ele><time>2026-05-03T10:30:50.496Z</time></trkpt><trkpt lat="43.4103248" lon="12.6603732"><ele>638.75</ele><time>2026-05-03T10:30:51.497Z</time></trkpt><trkpt lat="43.4101955" lon="12.6604538"><ele>639.0</ele><time>2026-05-03T10:30:52.496Z</time></trkpt><trkpt lat="43.4100588" lon="12.6605301"><ele>639.0</ele><time>2026-05-03T10:30:53.495Z</time></trkpt><trkpt lat="43.4099256" lon="12.6606126"><ele>639.0</ele><time>2026-05-03T10:30:54.499Z</time></trkpt><trkpt lat="43.4097955" lon="12.6606766"><ele>639.0</ele><time>2026-05-03T10:30:55.497Z</time></trkpt><trkpt lat="43.4095356" lon="12.6607441"><ele>635.6666666666666</ele><time>2026-05-03T10:30:56.496Z</time></trkpt><trkpt lat="43.4093345" lon="12.6607997"><ele>632.3333333333333</ele><time>2026-05-03T10:30:57.495Z</time></trkpt><trkpt lat="43.4091484" lon="12.6608967"><ele>629.0</ele><time>2026-05-03T10:30:58.494Z</time></trkpt><trkpt lat="43.4089432" lon="12.6609873"><ele>628.3333333333333</ele><time>2026-05-03T10:30:59.496Z</time></trkpt><trkpt lat="43.4087682" lon="12.6610589"><ele>627.6666666666666</ele><time>2026-05-03T10:31:00.492Z</time></trkpt><trkpt lat="43.4085702" lon="12.6611225"><ele>627.0</ele><time>2026-05-03T10:31:01.496Z</time></trkpt><trkpt lat="43.4083686" lon="12.6611697"><ele>627.0</ele><time>2026-05-03T10:31:02.495Z</time></trkpt><trkpt lat="43.4081653" lon="12.6612326"><ele>627.0</ele><time>2026-05-03T10:31:03.496Z</time></trkpt><trkpt lat="43.4079804" lon="12.661305"><ele>627.0</ele><time>2026-05-03T10:31:04.498Z</time></trkpt><trkpt lat="43.4077962" lon="12.6613841"><ele>624.3333333333334</ele><time>2026-05-03T10:31:05.494Z</time></trkpt><trkpt lat="43.4075985" lon="12.661467"><ele>621.6666666666667</ele><time>2026-05-03T10:31:06.496Z</time></trkpt><trkpt lat="43.4074089" lon="12.6615877"><ele>619.0</ele><time>2026-05-03T10:31:07.498Z</time></trkpt><trkpt lat="43.4072486" lon="12.6617259"><ele>617.6666666666667</ele><time>2026-05-03T10:31:08.495Z</time></trkpt><trkpt lat="43.4070559" lon="12.6618709"><ele>616.3333333333334</ele><time>2026-05-03T10:31:09.494Z</time></trkpt><trkpt lat="43.406872" lon="12.6620199"><ele>615.0</ele><time>2026-05-03T10:31:10.497Z</time></trkpt><trkpt lat="43.40669" lon="12.6621745"><ele>615.0</ele><time>2026-05-03T10:31:11.495Z</time></trkpt><trkpt lat="43.4065053" lon="12.6623303"><ele>615.0</ele><time>2026-05-03T10:31:12.495Z</time></trkpt><trkpt lat="43.406315" lon="12.6624877"><ele>615.0</ele><time>2026-05-03T10:31:13.494Z</time></trkpt><trkpt lat="43.4061337" lon="12.662648"><ele>615.3333333333334</ele><time>2026-05-03T10:31:14.495Z</time></trkpt><trkpt lat="43.4059381" lon="12.6628133"><ele>615.6666666666667</ele><time>2026-05-03T10:31:15.497Z</time></trkpt><trkpt lat="43.4057516" lon="12.6629667"><ele>616.0</ele><time>2026-05-03T10:31:16.491Z</time></trkpt><trkpt lat="43.4055689" lon="12.6631126"><ele>610.6666666666667</ele><time>2026-05-03T10:31:17.497Z</time></trkpt><trkpt lat="43.405398" lon="12.6632531"><ele>605.3333333333334</ele><time>2026-05-03T10:31:18.489Z</time></trkpt><trkpt lat="43.4052271" lon="12.6634023"><ele>600.0</ele><time>2026-05-03T10:31:19.495Z</time></trkpt><trkpt lat="43.4050505" lon="12.6635444"><ele>600.0</ele><time>2026-05-03T10:31:20.499Z</time></trkpt><trkpt lat="43.4048807" lon="12.6636834"><ele>600.0</ele><time>2026-05-03T10:31:21.496Z</time></trkpt><trkpt lat="43.4047112" lon="12.6638218"><ele>600.0</ele><time>2026-05-03T10:31:22.497Z</time></trkpt><trkpt lat="43.4045383" lon="12.6639611"><ele>600.0</ele><time>2026-05-03T10:31:23.496Z</time></trkpt><trkpt lat="43.4043571" lon="12.6640897"><ele>600.0</ele><time>2026-05-03T10:31:24.496Z</time></trkpt><trkpt lat="43.4041674" lon="12.664192"><ele>600.0</ele><time>2026-05-03T10:31:25.494Z</time></trkpt><trkpt lat="43.4039804" lon="12.6642622"><ele>600.0</ele><time>2026-05-03T10:31:26.499Z</time></trkpt><trkpt lat="43.4037965" lon="12.6643224"><ele>600.0</ele><time>2026-05-03T10:31:27.586Z</time></trkpt><trkpt lat="43.403631" lon="12.6643936"><ele>600.0</ele><time>2026-05-03T10:31:28.495Z</time></trkpt><trkpt lat="43.4034806" lon="12.6644894"><ele>600.0</ele><time>2026-05-03T10:31:29.499Z</time></trkpt><trkpt lat="43.4033416" lon="12.6645939"><ele>600.0</ele><time>2026-05-03T10:31:30.497Z</time></trkpt><trkpt lat="43.4032516" lon="12.6647484"><ele>600.0</ele><time>2026-05-03T10:31:31.495Z</time></trkpt><trkpt lat="43.40315" lon="12.6648841"><ele>600.0</ele><time>2026-05-03T10:31:32.497Z</time></trkpt><trkpt lat="43.4030815" lon="12.6650454"><ele>599.3333333333334</ele><time>2026-05-03T10:31:33.499Z</time></trkpt><trkpt lat="43.4030396" lon="12.6652803"><ele>598.6666666666667</ele><time>2026-05-03T10:31:34.493Z</time></trkpt><trkpt lat="43.402989" lon="12.6654821"><ele>598.0</ele><time>2026-05-03T10:31:35.497Z</time></trkpt><trkpt lat="43.402955" lon="12.6656871"><ele>593.3333333333334</ele><time>2026-05-03T10:31:36.498Z</time></trkpt><trkpt lat="43.4029397" lon="12.6659009"><ele>588.6666666666666</ele><time>2026-05-03T10:31:37.495Z</time></trkpt><trkpt lat="43.4029403" lon="12.6661298"><ele>584.0</ele><time>2026-05-03T10:31:38.494Z</time></trkpt><trkpt lat="43.402935" lon="12.6663538"><ele>584.0</ele><time>2026-05-03T10:31:39.498Z</time></trkpt><trkpt lat="43.4029379" lon="12.6665634"><ele>584.0</ele><time>2026-05-03T10:31:40.495Z</time></trkpt><trkpt lat="43.4029366" lon="12.666763"><ele>584.0</ele><time>2026-05-03T10:31:41.496Z</time></trkpt><trkpt lat="43.4029441" lon="12.666956"><ele>584.0</ele><time>2026-05-03T10:31:42.496Z</time></trkpt><trkpt lat="43.4029488" lon="12.6671479"><ele>583.25</ele><time>2026-05-03T10:31:43.501Z</time></trkpt><trkpt lat="43.4029507" lon="12.6673404"><ele>582.5</ele><time>2026-05-03T10:31:44.498Z</time></trkpt><trkpt lat="43.4029445" lon="12.6675205"><ele>581.75</ele><time>2026-05-03T10:31:45.495Z</time></trkpt><trkpt lat="43.4029476" lon="12.6677057"><ele>581.0</ele><time>2026-05-03T10:31:46.499Z</time></trkpt><trkpt lat="43.4029359" lon="12.667905"><ele>580.0</ele><time>2026-05-03T10:31:47.497Z</time></trkpt><trkpt lat="43.402842" lon="12.6680376"><ele>579.0</ele><time>2026-05-03T10:31:48.495Z</time></trkpt><trkpt lat="43.4027955" lon="12.6682026"><ele>578.0</ele><time>2026-05-03T10:31:49.497Z</time></trkpt><trkpt lat="43.4027022" lon="12.6683514"><ele>577.0</ele><time>2026-05-03T10:31:50.491Z</time></trkpt><trkpt lat="43.4026177" lon="12.6684939"><ele>577.25</ele><time>2026-05-03T10:31:51.497Z</time></trkpt><trkpt lat="43.402537" lon="12.6686379"><ele>577.5</ele><time>2026-05-03T10:31:52.499Z</time></trkpt><trkpt lat="43.4024547" lon="12.6687868"><ele>577.75</ele><time>2026-05-03T10:31:53.495Z</time></trkpt><trkpt lat="43.4023768" lon="12.668933"><ele>578.0</ele><time>2026-05-03T10:31:54.499Z</time></trkpt><trkpt lat="43.4023006" lon="12.6690714"><ele>578.0</ele><time>2026-05-03T10:31:55.496Z</time></trkpt><trkpt lat="43.4022218" lon="12.6692109"><ele>578.0</ele><time>2026-05-03T10:31:56.497Z</time></trkpt><trkpt lat="43.4021457" lon="12.6693463"><ele>578.0</ele><time>2026-05-03T10:31:57.496Z</time></trkpt><trkpt lat="43.4020657" lon="12.6694786"><ele>578.0</ele><time>2026-05-03T10:31:58.497Z</time></trkpt><trkpt lat="43.4019797" lon="12.6695981"><ele>578.75</ele><time>2026-05-03T10:31:59.498Z</time></trkpt><trkpt lat="43.4018728" lon="12.6696934"><ele>579.5</ele><time>2026-05-03T10:32:00.497Z</time></trkpt><trkpt lat="43.4017541" lon="12.6697644"><ele>580.25</ele><time>2026-05-03T10:32:01.496Z</time></trkpt><trkpt lat="43.4016187" lon="12.6698169"><ele>581.0</ele><time>2026-05-03T10:32:02.497Z</time></trkpt><trkpt lat="43.4014737" lon="12.6698506"><ele>583.0</ele><time>2026-05-03T10:32:03.496Z</time></trkpt><trkpt lat="43.4013128" lon="12.6698746"><ele>585.0</ele><time>2026-05-03T10:32:04.497Z</time></trkpt><trkpt lat="43.4011413" lon="12.6698937"><ele>587.0</ele><time>2026-05-03T10:32:05.496Z</time></trkpt><trkpt lat="43.4009735" lon="12.6699183"><ele>587.0</ele><time>2026-05-03T10:32:06.492Z</time></trkpt><trkpt lat="43.4007971" lon="12.6699394"><ele>587.0</ele><time>2026-05-03T10:32:07.499Z</time></trkpt><trkpt lat="43.4006129" lon="12.6699571"><ele>587.0</ele><time>2026-05-03T10:32:08.497Z</time></trkpt><trkpt lat="43.4004229" lon="12.6699807"><ele>586.6666666666666</ele><time>2026-05-03T10:32:09.496Z</time></trkpt><trkpt lat="43.4002324" lon="12.6700026"><ele>586.3333333333334</ele><time>2026-05-03T10:32:10.499Z</time></trkpt><trkpt lat="43.400058" lon="12.6700217"><ele>586.0</ele><time>2026-05-03T10:32:11.497Z</time></trkpt><trkpt lat="43.3998951" lon="12.6700595"><ele>586.0</ele><time>2026-05-03T10:32:12.499Z</time></trkpt><trkpt lat="43.3997477" lon="12.6701155"><ele>586.0</ele><time>2026-05-03T10:32:13.495Z</time></trkpt><trkpt lat="43.3996086" lon="12.6702051"><ele>586.0</ele><time>2026-05-03T10:32:14.497Z</time></trkpt><trkpt lat="43.3994816" lon="12.6703264"><ele>587.6666666666667</ele><time>2026-05-03T10:32:15.498Z</time></trkpt><trkpt lat="43.399372" lon="12.670485"><ele>589.3333333333334</ele><time>2026-05-03T10:32:16.496Z</time></trkpt><trkpt lat="43.3992878" lon="12.6706792"><ele>591.0</ele><time>2026-05-03T10:32:17.497Z</time></trkpt><trkpt lat="43.3992208" lon="12.6708902"><ele>590.0</ele><time>2026-05-03T10:32:18.497Z</time></trkpt><trkpt lat="43.3991748" lon="12.6711226"><ele>589.0</ele><time>2026-05-03T10:32:19.496Z</time></trkpt><trkpt lat="43.3991588" lon="12.6713547"><ele>588.0</ele><time>2026-05-03T10:32:20.497Z</time></trkpt><trkpt lat="43.3991576" lon="12.6715926"><ele>588.0</ele><time>2026-05-03T10:32:21.499Z</time></trkpt><trkpt lat="43.3991525" lon="12.6718358"><ele>588.0</ele><time>2026-05-03T10:32:22.499Z</time></trkpt><trkpt lat="43.3991357" lon="12.6720809"><ele>588.0</ele><time>2026-05-03T10:32:23.497Z</time></trkpt><trkpt lat="43.3990985" lon="12.6723275"><ele>586.6666666666666</ele><time>2026-05-03T10:32:24.497Z</time></trkpt><trkpt lat="43.3990404" lon="12.6725757"><ele>585.3333333333333</ele><time>2026-05-03T10:32:25.494Z</time></trkpt><trkpt lat="43.3989706" lon="12.6728152"><ele>584.0</ele><time>2026-05-03T10:32:26.498Z</time></trkpt><trkpt lat="43.3989061" lon="12.673042"><ele>584.0</ele><time>2026-05-03T10:32:27.495Z</time></trkpt><trkpt lat="43.3988449" lon="12.6732601"><ele>584.0</ele><time>2026-05-03T10:32:28.5Z</time></trkpt><trkpt lat="43.3987696" lon="12.6734651"><ele>584.0</ele><time>2026-05-03T10:32:29.496Z</time></trkpt><trkpt lat="43.3986549" lon="12.6736502"><ele>581.6666666666666</ele><time>2026-05-03T10:32:30.494Z</time></trkpt><trkpt lat="43.3985253" lon="12.6738274"><ele>579.3333333333334</ele><time>2026-05-03T10:32:31.498Z</time></trkpt><trkpt lat="43.3983825" lon="12.6740021"><ele>577.0</ele><time>2026-05-03T10:32:32.495Z</time></trkpt><trkpt lat="43.3982397" lon="12.6741791"><ele>577.0</ele><time>2026-05-03T10:32:33.497Z</time></trkpt><trkpt lat="43.3981076" lon="12.6743545"><ele>577.0</ele><time>2026-05-03T10:32:34.498Z</time></trkpt><trkpt lat="43.3979868" lon="12.6745261"><ele>577.0</ele><time>2026-05-03T10:32:35.497Z</time></trkpt><trkpt lat="43.3978709" lon="12.6746727"><ele>575.75</ele><time>2026-05-03T10:32:36.496Z</time></trkpt><trkpt lat="43.3977625" lon="12.6748136"><ele>574.5</ele><time>2026-05-03T10:32:37.497Z</time></trkpt><trkpt lat="43.3976597" lon="12.6749397"><ele>573.25</ele><time>2026-05-03T10:32:38.498Z</time></trkpt><trkpt lat="43.3975597" lon="12.6750759"><ele>572.0</ele><time>2026-05-03T10:32:39.498Z</time></trkpt><trkpt lat="43.3974604" lon="12.6752086"><ele>568.6666666666666</ele><time>2026-05-03T10:32:40.499Z</time></trkpt><trkpt lat="43.3973469" lon="12.6753484"><ele>565.3333333333334</ele><time>2026-05-03T10:32:41.498Z</time></trkpt><trkpt lat="43.3972203" lon="12.6755198"><ele>562.0</ele><time>2026-05-03T10:32:42.496Z</time></trkpt><trkpt lat="43.3970862" lon="12.6757149"><ele>562.0</ele><time>2026-05-03T10:32:43.499Z</time></trkpt><trkpt lat="43.3969688" lon="12.6759148"><ele>562.0</ele><time>2026-05-03T10:32:44.499Z</time></trkpt><trkpt lat="43.396851" lon="12.6761053"><ele>562.0</ele><time>2026-05-03T10:32:45.495Z</time></trkpt><trkpt lat="43.3967346" lon="12.6762952"><ele>564.3333333333334</ele><time>2026-05-03T10:32:46.495Z</time></trkpt><trkpt lat="43.3966243" lon="12.6765027"><ele>566.6666666666666</ele><time>2026-05-03T10:32:47.496Z</time></trkpt><trkpt lat="43.3965288" lon="12.6767123"><ele>569.0</ele><time>2026-05-03T10:32:48.498Z</time></trkpt><trkpt lat="43.3964449" lon="12.6769259"><ele>571.3333333333333</ele><time>2026-05-03T10:32:49.496Z</time></trkpt><trkpt lat="43.3963547" lon="12.6771454"><ele>573.6666666666666</ele><time>2026-05-03T10:32:50.495Z</time></trkpt><trkpt lat="43.3962665" lon="12.6773653"><ele>576.0</ele><time>2026-05-03T10:32:51.496Z</time></trkpt><trkpt lat="43.3961778" lon="12.6775864"><ele>573.0</ele><time>2026-05-03T10:32:52.495Z</time></trkpt><trkpt lat="43.3960853" lon="12.6777952"><ele>570.0</ele><time>2026-05-03T10:32:53.498Z</time></trkpt><trkpt lat="43.3959837" lon="12.6779781"><ele>567.0</ele><time>2026-05-03T10:32:54.498Z</time></trkpt><trkpt lat="43.3958796" lon="12.678147"><ele>567.0</ele><time>2026-05-03T10:32:55.496Z</time></trkpt><trkpt lat="43.395773" lon="12.6782976"><ele>567.0</ele><time>2026-05-03T10:32:56.496Z</time></trkpt><trkpt lat="43.3956639" lon="12.6784404"><ele>567.0</ele><time>2026-05-03T10:32:57.501Z</time></trkpt><trkpt lat="43.395544" lon="12.6785774"><ele>566.3333333333334</ele><time>2026-05-03T10:32:58.501Z</time></trkpt><trkpt lat="43.3954162" lon="12.678719"><ele>565.6666666666667</ele><time>2026-05-03T10:32:59.497Z</time></trkpt><trkpt lat="43.3952811" lon="12.6788542"><ele>565.0</ele><time>2026-05-03T10:33:00.499Z</time></trkpt><trkpt lat="43.3951413" lon="12.6789932"><ele>565.0</ele><time>2026-05-03T10:33:01.497Z</time></trkpt><trkpt lat="43.3949899" lon="12.6791325"><ele>565.0</ele><time>2026-05-03T10:33:02.498Z</time></trkpt><trkpt lat="43.3948342" lon="12.6792745"><ele>565.0</ele><time>2026-05-03T10:33:03.499Z</time></trkpt><trkpt lat="43.3946749" lon="12.6794161"><ele>564.3333333333334</ele><time>2026-05-03T10:33:04.495Z</time></trkpt><trkpt lat="43.3945056" lon="12.679561"><ele>563.6666666666666</ele><time>2026-05-03T10:33:05.5Z</time></trkpt><trkpt lat="43.3943442" lon="12.6796998"><ele>563.0</ele><time>2026-05-03T10:33:06.496Z</time></trkpt><trkpt lat="43.3941866" lon="12.6798454"><ele>563.0</ele><time>2026-05-03T10:33:07.496Z</time></trkpt><trkpt lat="43.3940274" lon="12.6799848"><ele>563.0</ele><time>2026-05-03T10:33:08.496Z</time></trkpt><trkpt lat="43.3938729" lon="12.6801249"><ele>563.0</ele><time>2026-05-03T10:33:09.496Z</time></trkpt><trkpt lat="43.3937155" lon="12.6802664"><ele>561.3333333333333</ele><time>2026-05-03T10:33:10.497Z</time></trkpt><trkpt lat="43.3935561" lon="12.6804132"><ele>559.6666666666666</ele><time>2026-05-03T10:33:11.494Z</time></trkpt><trkpt lat="43.3933933" lon="12.6805661"><ele>558.0</ele><time>2026-05-03T10:33:12.495Z</time></trkpt><trkpt lat="43.3932302" lon="12.6807127"><ele>558.0</ele><time>2026-05-03T10:33:13.496Z</time></trkpt><trkpt lat="43.3930704" lon="12.6808559"><ele>558.0</ele><time>2026-05-03T10:33:14.499Z</time></trkpt><trkpt lat="43.3929089" lon="12.6809932"><ele>558.0</ele><time>2026-05-03T10:33:15.499Z</time></trkpt><trkpt lat="43.3927445" lon="12.681136"><ele>556.6666666666666</ele><time>2026-05-03T10:33:16.496Z</time></trkpt><trkpt lat="43.3925846" lon="12.6812796"><ele>555.3333333333333</ele><time>2026-05-03T10:33:17.496Z</time></trkpt><trkpt lat="43.3924244" lon="12.6814268"><ele>554.0</ele><time>2026-05-03T10:33:18.497Z</time></trkpt><trkpt lat="43.3922602" lon="12.6815703"><ele>550.0</ele><time>2026-05-03T10:33:19.498Z</time></trkpt><trkpt lat="43.3920876" lon="12.6817051"><ele>546.0</ele><time>2026-05-03T10:33:20.497Z</time></trkpt><trkpt lat="43.3919091" lon="12.6818279"><ele>542.0</ele><time>2026-05-03T10:33:21.495Z</time></trkpt><trkpt lat="43.391725" lon="12.6819266"><ele>542.6666666666666</ele><time>2026-05-03T10:33:22.493Z</time></trkpt><trkpt lat="43.391549" lon="12.6820099"><ele>543.3333333333334</ele><time>2026-05-03T10:33:23.495Z</time></trkpt><trkpt lat="43.3913851" lon="12.6820917"><ele>544.0</ele><time>2026-05-03T10:33:24.495Z</time></trkpt><trkpt lat="43.3912174" lon="12.6821785"><ele>544.0</ele><time>2026-05-03T10:33:25.491Z</time></trkpt><trkpt lat="43.3910595" lon="12.6822681"><ele>544.0</ele><time>2026-05-03T10:33:26.495Z</time></trkpt><trkpt lat="43.390899" lon="12.6823566"><ele>544.0</ele><time>2026-05-03T10:33:27.49Z</time></trkpt><trkpt lat="43.3907457" lon="12.68243"><ele>544.0</ele><time>2026-05-03T10:33:28.497Z</time></trkpt><trkpt lat="43.3905818" lon="12.6824769"><ele>544.0</ele><time>2026-05-03T10:33:29.497Z</time></trkpt><trkpt lat="43.390402" lon="12.6825025"><ele>544.0</ele><time>2026-05-03T10:33:30.499Z</time></trkpt><trkpt lat="43.3902093" lon="12.6825203"><ele>541.6666666666667</ele><time>2026-05-03T10:33:31.495Z</time></trkpt><trkpt lat="43.3900092" lon="12.6824733"><ele>539.3333333333334</ele><time>2026-05-03T10:33:32.5Z</time></trkpt><trkpt lat="43.3898126" lon="12.6824454"><ele>537.0</ele><time>2026-05-03T10:33:33.496Z</time></trkpt><trkpt lat="43.3896085" lon="12.6824171"><ele>536.6666666666666</ele><time>2026-05-03T10:33:34.495Z</time></trkpt><trkpt lat="43.3893963" lon="12.6823879"><ele>536.3333333333333</ele><time>2026-05-03T10:33:35.496Z</time></trkpt><trkpt lat="43.389181" lon="12.6823478"><ele>536.0</ele><time>2026-05-03T10:33:36.495Z</time></trkpt><trkpt lat="43.3889213" lon="12.6823034"><ele>536.0</ele><time>2026-05-03T10:33:37.492Z</time></trkpt><trkpt lat="43.3886628" lon="12.6822828"><ele>536.0</ele><time>2026-05-03T10:33:38.5Z</time></trkpt><trkpt lat="43.3883936" lon="12.6822711"><ele>536.0</ele><time>2026-05-03T10:33:39.497Z</time></trkpt><trkpt lat="43.3881717" lon="12.6822729"><ele>536.0</ele><time>2026-05-03T10:33:40.495Z</time></trkpt><trkpt lat="43.3879358" lon="12.6822141"><ele>535.0</ele><time>2026-05-03T10:33:41.489Z</time></trkpt><trkpt lat="43.3877442" lon="12.6821877"><ele>534.0</ele><time>2026-05-03T10:33:42.498Z</time></trkpt><trkpt lat="43.3875527" lon="12.6821514"><ele>533.0</ele><time>2026-05-03T10:33:43.495Z</time></trkpt><trkpt lat="43.387388" lon="12.6820963"><ele>533.0</ele><time>2026-05-03T10:33:44.5Z</time></trkpt><trkpt lat="43.3872224" lon="12.6820325"><ele>533.0</ele><time>2026-05-03T10:33:45.496Z</time></trkpt><trkpt lat="43.387077" lon="12.6819528"><ele>533.0</ele><time>2026-05-03T10:33:46.494Z</time></trkpt><trkpt lat="43.3869515" lon="12.6816915"><ele>538.0</ele><time>2026-05-03T10:33:47.497Z</time></trkpt><trkpt lat="43.3868096" lon="12.6815217"><ele>543.0</ele><time>2026-05-03T10:33:48.498Z</time></trkpt><trkpt lat="43.3866639" lon="12.6813127"><ele>548.0</ele><time>2026-05-03T10:33:49.495Z</time></trkpt><trkpt lat="43.386516" lon="12.6811094"><ele>550.3333333333333</ele><time>2026-05-03T10:33:50.497Z</time></trkpt><trkpt lat="43.3863577" lon="12.6809002"><ele>552.6666666666666</ele><time>2026-05-03T10:33:51.496Z</time></trkpt><trkpt lat="43.3862092" lon="12.6807018"><ele>555.0</ele><time>2026-05-03T10:33:52.496Z</time></trkpt><trkpt lat="43.386058" lon="12.6805104"><ele>555.0</ele><time>2026-05-03T10:33:53.497Z</time></trkpt><trkpt lat="43.385911" lon="12.6803272"><ele>555.0</ele><time>2026-05-03T10:33:54.497Z</time></trkpt><trkpt lat="43.3857786" lon="12.6801436"><ele>555.0</ele><time>2026-05-03T10:33:55.496Z</time></trkpt><trkpt lat="43.3856398" lon="12.6799784"><ele>554.6666666666666</ele><time>2026-05-03T10:33:56.498Z</time></trkpt><trkpt lat="43.3855114" lon="12.6798184"><ele>554.3333333333333</ele><time>2026-05-03T10:33:57.495Z</time></trkpt><trkpt lat="43.3853725" lon="12.6796747"><ele>554.0</ele><time>2026-05-03T10:33:58.496Z</time></trkpt><trkpt lat="43.3852247" lon="12.6795367"><ele>548.6666666666666</ele><time>2026-05-03T10:33:59.49Z</time></trkpt><trkpt lat="43.3850621" lon="12.6794313"><ele>543.3333333333334</ele><time>2026-05-03T10:34:00.498Z</time></trkpt><trkpt lat="43.384894" lon="12.6793653"><ele>538.0</ele><time>2026-05-03T10:34:01.496Z</time></trkpt><trkpt lat="43.3847201" lon="12.6792682"><ele>541.3333333333334</ele><time>2026-05-03T10:34:02.498Z</time></trkpt><trkpt lat="43.3845659" lon="12.6792045"><ele>544.6666666666666</ele><time>2026-05-03T10:34:03.499Z</time></trkpt><trkpt lat="43.3844059" lon="12.6791373"><ele>548.0</ele><time>2026-05-03T10:34:04.496Z</time></trkpt><trkpt lat="43.3842434" lon="12.6790645"><ele>548.0</ele><time>2026-05-03T10:34:05.496Z</time></trkpt><trkpt lat="43.3840838" lon="12.6790053"><ele>548.0</ele><time>2026-05-03T10:34:06.497Z</time></trkpt><trkpt lat="43.3839205" lon="12.6789381"><ele>548.0</ele><time>2026-05-03T10:34:07.497Z</time></trkpt><trkpt lat="43.3837632" lon="12.678884"><ele>550.6666666666666</ele><time>2026-05-03T10:34:08.499Z</time></trkpt><trkpt lat="43.3836146" lon="12.6788244"><ele>553.3333333333334</ele><time>2026-05-03T10:34:09.496Z</time></trkpt><trkpt lat="43.3834562" lon="12.6787677"><ele>556.0</ele><time>2026-05-03T10:34:10.5Z</time></trkpt><trkpt lat="43.3832886" lon="12.678743"><ele>556.0</ele><time>2026-05-03T10:34:11.495Z</time></trkpt><trkpt lat="43.383132" lon="12.6787216"><ele>556.0</ele><time>2026-05-03T10:34:12.498Z</time></trkpt><trkpt lat="43.3829903" lon="12.6786953"><ele>556.0</ele><time>2026-05-03T10:34:13.496Z</time></trkpt><trkpt lat="43.382853" lon="12.6786752"><ele>556.0</ele><time>2026-05-03T10:34:14.496Z</time></trkpt><trkpt lat="43.3827237" lon="12.6786566"><ele>555.0</ele><time>2026-05-03T10:34:15.49Z</time></trkpt><trkpt lat="43.3825855" lon="12.6786472"><ele>554.0</ele><time>2026-05-03T10:34:16.496Z</time></trkpt><trkpt lat="43.3824706" lon="12.6786343"><ele>553.0</ele><time>2026-05-03T10:34:17.496Z</time></trkpt><trkpt lat="43.3823682" lon="12.6786338"><ele>552.0</ele><time>2026-05-03T10:34:18.498Z</time></trkpt><trkpt lat="43.3822405" lon="12.678622"><ele>549.8000000000001</ele><time>2026-05-03T10:34:19.5Z</time></trkpt><trkpt lat="43.3821488" lon="12.6786832"><ele>547.6</ele><time>2026-05-03T10:34:20.495Z</time></trkpt><trkpt lat="43.3820568" lon="12.6787726"><ele>545.4000000000001</ele><time>2026-05-03T10:34:21.497Z</time></trkpt><trkpt lat="43.3819672" lon="12.6788588"><ele>543.2</ele><time>2026-05-03T10:34:22.496Z</time></trkpt><trkpt lat="43.381925" lon="12.6790159"><ele>541.0</ele><time>2026-05-03T10:34:23.496Z</time></trkpt><trkpt lat="43.3818738" lon="12.6791613"><ele>541.0</ele><time>2026-05-03T10:34:24.499Z</time></trkpt><trkpt lat="43.3818693" lon="12.6793183"><ele>541.0</ele><time>2026-05-03T10:34:25.498Z</time></trkpt><trkpt lat="43.3818773" lon="12.6794763"><ele>541.0</ele><time>2026-05-03T10:34:26.497Z</time></trkpt><trkpt lat="43.3819175" lon="12.6796375"><ele>541.0</ele><time>2026-05-03T10:34:27.497Z</time></trkpt><trkpt lat="43.3819761" lon="12.6798062"><ele>540.6666666666667</ele><time>2026-05-03T10:34:28.497Z</time></trkpt><trkpt lat="43.3821031" lon="12.680014"><ele>540.3333333333334</ele><time>2026-05-03T10:34:29.495Z</time></trkpt><trkpt lat="43.3822161" lon="12.6802564"><ele>540.0</ele><time>2026-05-03T10:34:30.496Z</time></trkpt><trkpt lat="43.382314" lon="12.6804969"><ele>543.0</ele><time>2026-05-03T10:34:31.496Z</time></trkpt><trkpt lat="43.3823752" lon="12.6807463"><ele>546.0</ele><time>2026-05-03T10:34:32.502Z</time></trkpt><trkpt lat="43.3823995" lon="12.6810273"><ele>549.0</ele><time>2026-05-03T10:34:33.495Z</time></trkpt><trkpt lat="43.3823778" lon="12.6813252"><ele>549.0</ele><time>2026-05-03T10:34:34.497Z</time></trkpt><trkpt lat="43.3823169" lon="12.6816105"><ele>549.0</ele><time>2026-05-03T10:34:35.496Z</time></trkpt><trkpt lat="43.3822263" lon="12.681901"><ele>549.0</ele><time>2026-05-03T10:34:36.499Z</time></trkpt><trkpt lat="43.3821115" lon="12.6821981"><ele>543.5</ele><time>2026-05-03T10:34:37.496Z</time></trkpt><trkpt lat="43.3819794" lon="12.6825004"><ele>538.0</ele><time>2026-05-03T10:34:38.497Z</time></trkpt><trkpt lat="43.3818485" lon="12.682812"><ele>538.0</ele><time>2026-05-03T10:34:39.495Z</time></trkpt><trkpt lat="43.3817094" lon="12.6831247"><ele>538.0</ele><time>2026-05-03T10:34:40.501Z</time></trkpt><trkpt lat="43.3815769" lon="12.6834364"><ele>537.5</ele><time>2026-05-03T10:34:41.497Z</time></trkpt><trkpt lat="43.3814256" lon="12.6837576"><ele>537.0</ele><time>2026-05-03T10:34:42.498Z</time></trkpt><trkpt lat="43.3812819" lon="12.6840828"><ele>534.5</ele><time>2026-05-03T10:34:43.495Z</time></trkpt><trkpt lat="43.3811425" lon="12.6843798"><ele>532.0</ele><time>2026-05-03T10:34:44.498Z</time></trkpt><trkpt lat="43.3810174" lon="12.6846741"><ele>532.0</ele><time>2026-05-03T10:34:45.496Z</time></trkpt><trkpt lat="43.3808918" lon="12.68496"><ele>532.0</ele><time>2026-05-03T10:34:46.496Z</time></trkpt><trkpt lat="43.3807648" lon="12.6852418"><ele>534.0</ele><time>2026-05-03T10:34:47.496Z</time></trkpt><trkpt lat="43.3806418" lon="12.6855167"><ele>536.0</ele><time>2026-05-03T10:34:48.497Z</time></trkpt><trkpt lat="43.380519" lon="12.6857866"><ele>535.6666666666666</ele><time>2026-05-03T10:34:49.496Z</time></trkpt><trkpt lat="43.3804016" lon="12.6860486"><ele>535.3333333333334</ele><time>2026-05-03T10:34:50.497Z</time></trkpt><trkpt lat="43.3802902" lon="12.6863055"><ele>535.0</ele><time>2026-05-03T10:34:51.5Z</time></trkpt><trkpt lat="43.3801736" lon="12.6865534"><ele>535.0</ele><time>2026-05-03T10:34:52.5Z</time></trkpt><trkpt lat="43.3800586" lon="12.6868037"><ele>535.0</ele><time>2026-05-03T10:34:53.497Z</time></trkpt><trkpt lat="43.3799471" lon="12.687051"><ele>535.0</ele><time>2026-05-03T10:34:54.496Z</time></trkpt><trkpt lat="43.3798383" lon="12.6872972"><ele>534.6666666666667</ele><time>2026-05-03T10:34:55.496Z</time></trkpt><trkpt lat="43.3797303" lon="12.6875438"><ele>534.3333333333334</ele><time>2026-05-03T10:34:56.499Z</time></trkpt><trkpt lat="43.3796227" lon="12.6877934"><ele>534.0</ele><time>2026-05-03T10:34:57.496Z</time></trkpt><trkpt lat="43.3795116" lon="12.6880423"><ele>534.0</ele><time>2026-05-03T10:34:58.494Z</time></trkpt><trkpt lat="43.3793953" lon="12.6882975"><ele>534.0</ele><time>2026-05-03T10:34:59.499Z</time></trkpt><trkpt lat="43.3792641" lon="12.6885338"><ele>534.0</ele><time>2026-05-03T10:35:00.495Z</time></trkpt><trkpt lat="43.3791148" lon="12.6887524"><ele>534.6666666666666</ele><time>2026-05-03T10:35:01.497Z</time></trkpt><trkpt lat="43.3789437" lon="12.6889564"><ele>535.3333333333333</ele><time>2026-05-03T10:35:02.499Z</time></trkpt><trkpt lat="43.3787731" lon="12.689151"><ele>536.0</ele><time>2026-05-03T10:35:03.496Z</time></trkpt><trkpt lat="43.3786098" lon="12.6893541"><ele>537.5</ele><time>2026-05-03T10:35:04.496Z</time></trkpt><trkpt lat="43.3784378" lon="12.6895745"><ele>539.0</ele><time>2026-05-03T10:35:05.495Z</time></trkpt><trkpt lat="43.3782693" lon="12.6897958"><ele>539.0</ele><time>2026-05-03T10:35:06.498Z</time></trkpt><trkpt lat="43.3781172" lon="12.6900035"><ele>539.0</ele><time>2026-05-03T10:35:07.496Z</time></trkpt><trkpt lat="43.3779751" lon="12.6902015"><ele>539.0</ele><time>2026-05-03T10:35:08.495Z</time></trkpt><trkpt lat="43.3778651" lon="12.6904079"><ele>538.6666666666666</ele><time>2026-05-03T10:35:09.496Z</time></trkpt><trkpt lat="43.3777793" lon="12.6906286"><ele>538.3333333333334</ele><time>2026-05-03T10:35:10.497Z</time></trkpt><trkpt lat="43.3777254" lon="12.6908651"><ele>538.0</ele><time>2026-05-03T10:35:11.495Z</time></trkpt><trkpt lat="43.3777041" lon="12.6911144"><ele>538.6666666666667</ele><time>2026-05-03T10:35:12.497Z</time></trkpt><trkpt lat="43.3777175" lon="12.6913738"><ele>539.3333333333334</ele><time>2026-05-03T10:35:13.499Z</time></trkpt><trkpt lat="43.3777593" lon="12.6916335"><ele>540.0</ele><time>2026-05-03T10:35:14.496Z</time></trkpt><trkpt lat="43.3778182" lon="12.691884"><ele>540.6666666666666</ele><time>2026-05-03T10:35:15.497Z</time></trkpt><trkpt lat="43.3778699" lon="12.6921121"><ele>541.3333333333333</ele><time>2026-05-03T10:35:16.498Z</time></trkpt><trkpt lat="43.3779072" lon="12.6923263"><ele>542.0</ele><time>2026-05-03T10:35:17.499Z</time></trkpt><trkpt lat="43.3779219" lon="12.6925107"><ele>542.0</ele><time>2026-05-03T10:35:18.496Z</time></trkpt><trkpt lat="43.3779226" lon="12.6926727"><ele>542.0</ele><time>2026-05-03T10:35:19.493Z</time></trkpt><trkpt lat="43.3779001" lon="12.6928199"><ele>542.0</ele><time>2026-05-03T10:35:20.499Z</time></trkpt><trkpt lat="43.3778444" lon="12.6929399"><ele>542.0</ele><time>2026-05-03T10:35:21.495Z</time></trkpt><trkpt lat="43.3777692" lon="12.6930312"><ele>542.0</ele><time>2026-05-03T10:35:22.495Z</time></trkpt><trkpt lat="43.3776817" lon="12.6930915"><ele>544.0</ele><time>2026-05-03T10:35:23.493Z</time></trkpt><trkpt lat="43.3775743" lon="12.6931245"><ele>546.0</ele><time>2026-05-03T10:35:24.495Z</time></trkpt><trkpt lat="43.3774555" lon="12.6931368"><ele>548.0</ele><time>2026-05-03T10:35:25.493Z</time></trkpt><trkpt lat="43.3773242" lon="12.693152"><ele>550.0</ele><time>2026-05-03T10:35:26.495Z</time></trkpt><trkpt lat="43.3771982" lon="12.6931874"><ele>551.75</ele><time>2026-05-03T10:35:27.498Z</time></trkpt><trkpt lat="43.3770744" lon="12.6932333"><ele>553.5</ele><time>2026-05-03T10:35:28.497Z</time></trkpt><trkpt lat="43.3769717" lon="12.6933413"><ele>555.25</ele><time>2026-05-03T10:35:29.496Z</time></trkpt><trkpt lat="43.3768455" lon="12.693435"><ele>557.0</ele><time>2026-05-03T10:35:30.495Z</time></trkpt><trkpt lat="43.3767418" lon="12.693544"><ele>556.0</ele><time>2026-05-03T10:35:31.495Z</time></trkpt><trkpt lat="43.376638" lon="12.6936311"><ele>555.0</ele><time>2026-05-03T10:35:32.498Z</time></trkpt><trkpt lat="43.376527" lon="12.6937236"><ele>554.0</ele><time>2026-05-03T10:35:33.495Z</time></trkpt><trkpt lat="43.3764196" lon="12.6938207"><ele>553.0</ele><time>2026-05-03T10:35:34.495Z</time></trkpt><trkpt lat="43.3763053" lon="12.6939307"><ele>553.0</ele><time>2026-05-03T10:35:35.496Z</time></trkpt><trkpt lat="43.3761819" lon="12.6940371"><ele>553.0</ele><time>2026-05-03T10:35:36.494Z</time></trkpt><trkpt lat="43.3760382" lon="12.6941537"><ele>553.0</ele><time>2026-05-03T10:35:37.496Z</time></trkpt><trkpt lat="43.3758791" lon="12.6942812"><ele>553.0</ele><time>2026-05-03T10:35:38.497Z</time></trkpt><trkpt lat="43.3757114" lon="12.6943901"><ele>553.0</ele><time>2026-05-03T10:35:39.496Z</time></trkpt><trkpt lat="43.3755293" lon="12.6944845"><ele>553.0</ele><time>2026-05-03T10:35:40.496Z</time></trkpt><trkpt lat="43.3753355" lon="12.6945729"><ele>554.0</ele><time>2026-05-03T10:35:41.5Z</time></trkpt><trkpt lat="43.375137" lon="12.6946641"><ele>555.0</ele><time>2026-05-03T10:35:42.498Z</time></trkpt><trkpt lat="43.3749442" lon="12.6947568"><ele>556.0</ele><time>2026-05-03T10:35:43.497Z</time></trkpt><trkpt lat="43.3747531" lon="12.6948485"><ele>551.6666666666667</ele><time>2026-05-03T10:35:44.497Z</time></trkpt><trkpt lat="43.3745614" lon="12.6949367"><ele>547.3333333333334</ele><time>2026-05-03T10:35:45.497Z</time></trkpt><trkpt lat="43.3743752" lon="12.6950282"><ele>543.0</ele><time>2026-05-03T10:35:46.496Z</time></trkpt><trkpt lat="43.3741733" lon="12.695123"><ele>543.0</ele><time>2026-05-03T10:35:47.499Z</time></trkpt><trkpt lat="43.3739828" lon="12.6952301"><ele>543.0</ele><time>2026-05-03T10:35:48.498Z</time></trkpt><trkpt lat="43.3737988" lon="12.6953529"><ele>543.0</ele><time>2026-05-03T10:35:49.498Z</time></trkpt><trkpt lat="43.3736101" lon="12.6954915"><ele>543.3333333333334</ele><time>2026-05-03T10:35:50.499Z</time></trkpt><trkpt lat="43.3734306" lon="12.6956339"><ele>543.6666666666667</ele><time>2026-05-03T10:35:51.495Z</time></trkpt><trkpt lat="43.3732525" lon="12.6957978"><ele>544.0</ele><time>2026-05-03T10:35:52.497Z</time></trkpt><trkpt lat="43.3730892" lon="12.6959683"><ele>544.3333333333334</ele><time>2026-05-03T10:35:53.496Z</time></trkpt><trkpt lat="43.3729005" lon="12.6961236"><ele>544.6666666666666</ele><time>2026-05-03T10:35:54.492Z</time></trkpt><trkpt lat="43.3727047" lon="12.6962814"><ele>545.0</ele><time>2026-05-03T10:35:55.495Z</time></trkpt><trkpt lat="43.372497" lon="12.6963989"><ele>545.0</ele><time>2026-05-03T10:35:56.496Z</time></trkpt><trkpt lat="43.3722955" lon="12.696541"><ele>545.0</ele><time>2026-05-03T10:35:57.496Z</time></trkpt><trkpt lat="43.3720913" lon="12.6966785"><ele>545.6666666666666</ele><time>2026-05-03T10:35:58.495Z</time></trkpt><trkpt lat="43.3718892" lon="12.6968148"><ele>546.3333333333334</ele><time>2026-05-03T10:35:59.496Z</time></trkpt><trkpt lat="43.3716954" lon="12.6969527"><ele>547.0</ele><time>2026-05-03T10:36:00.496Z</time></trkpt><trkpt lat="43.3715104" lon="12.697095"><ele>543.6666666666667</ele><time>2026-05-03T10:36:01.499Z</time></trkpt><trkpt lat="43.371326" lon="12.6972401"><ele>540.3333333333334</ele><time>2026-05-03T10:36:02.498Z</time></trkpt><trkpt lat="43.3711457" lon="12.6974072"><ele>537.0</ele><time>2026-05-03T10:36:03.496Z</time></trkpt><trkpt lat="43.3709699" lon="12.6975987"><ele>540.0</ele><time>2026-05-03T10:36:04.494Z</time></trkpt><trkpt lat="43.370801" lon="12.6978021"><ele>543.0</ele><time>2026-05-03T10:36:05.494Z</time></trkpt><trkpt lat="43.37063" lon="12.6980122"><ele>535.5</ele><time>2026-05-03T10:36:06.498Z</time></trkpt><trkpt lat="43.3704645" lon="12.6982345"><ele>528.0</ele><time>2026-05-03T10:36:07.496Z</time></trkpt><trkpt lat="43.3702953" lon="12.6984566"><ele>533.0</ele><time>2026-05-03T10:36:08.496Z</time></trkpt><trkpt lat="43.3701255" lon="12.6986753"><ele>538.0</ele><time>2026-05-03T10:36:09.496Z</time></trkpt><trkpt lat="43.3699591" lon="12.6988994"><ele>538.0</ele><time>2026-05-03T10:36:10.496Z</time></trkpt><trkpt lat="43.3697969" lon="12.6991265"><ele>538.0</ele><time>2026-05-03T10:36:11.493Z</time></trkpt><trkpt lat="43.3696254" lon="12.6993445"><ele>531.5</ele><time>2026-05-03T10:36:12.495Z</time></trkpt><trkpt lat="43.3694612" lon="12.6995777"><ele>525.0</ele><time>2026-05-03T10:36:13.496Z</time></trkpt><trkpt lat="43.3692795" lon="12.6998096"><ele>525.0</ele><time>2026-05-03T10:36:14.499Z</time></trkpt><trkpt lat="43.3691039" lon="12.7000485"><ele>525.0</ele><time>2026-05-03T10:36:15.493Z</time></trkpt><trkpt lat="43.3689245" lon="12.7002903"><ele>522.0</ele><time>2026-05-03T10:36:16.5Z</time></trkpt><trkpt lat="43.3687481" lon="12.7005166"><ele>519.0</ele><time>2026-05-03T10:36:17.496Z</time></trkpt><trkpt lat="43.3685764" lon="12.7007363"><ele>519.0</ele><time>2026-05-03T10:36:18.495Z</time></trkpt><trkpt lat="43.3684123" lon="12.7009378"><ele>519.0</ele><time>2026-05-03T10:36:19.495Z</time></trkpt><trkpt lat="43.3682506" lon="12.7011377"><ele>519.0</ele><time>2026-05-03T10:36:20.494Z</time></trkpt><trkpt lat="43.3680783" lon="12.7013361"><ele>520.0</ele><time>2026-05-03T10:36:21.492Z</time></trkpt><trkpt lat="43.3678932" lon="12.7015285"><ele>521.0</ele><time>2026-05-03T10:36:22.498Z</time></trkpt><trkpt lat="43.367703" lon="12.7017118"><ele>521.0</ele><time>2026-05-03T10:36:23.493Z</time></trkpt><trkpt lat="43.367505" lon="12.7018964"><ele>521.0</ele><time>2026-05-03T10:36:24.498Z</time></trkpt><trkpt lat="43.367305" lon="12.702082"><ele>523.5</ele><time>2026-05-03T10:36:25.499Z</time></trkpt><trkpt lat="43.3671049" lon="12.7022701"><ele>526.0</ele><time>2026-05-03T10:36:26.497Z</time></trkpt><trkpt lat="43.3668964" lon="12.702457"><ele>526.0</ele><time>2026-05-03T10:36:27.494Z</time></trkpt><trkpt lat="43.3666893" lon="12.7026459"><ele>526.0</ele><time>2026-05-03T10:36:28.499Z</time></trkpt><trkpt lat="43.3664855" lon="12.7028481"><ele>528.0</ele><time>2026-05-03T10:36:29.499Z</time></trkpt><trkpt lat="43.3662991" lon="12.7030648"><ele>530.0</ele><time>2026-05-03T10:36:30.496Z</time></trkpt><trkpt lat="43.3661246" lon="12.7032953"><ele>530.0</ele><time>2026-05-03T10:36:31.495Z</time></trkpt><trkpt lat="43.3659676" lon="12.7035327"><ele>530.0</ele><time>2026-05-03T10:36:32.501Z</time></trkpt><trkpt lat="43.3658056" lon="12.7037581"><ele>530.3333333333333</ele><time>2026-05-03T10:36:33.497Z</time></trkpt><trkpt lat="43.3656536" lon="12.7039716"><ele>530.6666666666666</ele><time>2026-05-03T10:36:34.497Z</time></trkpt><trkpt lat="43.3654987" lon="12.7041912"><ele>531.0</ele><time>2026-05-03T10:36:35.496Z</time></trkpt><trkpt lat="43.3653483" lon="12.7044104"><ele>529.6666666666666</ele><time>2026-05-03T10:36:36.496Z</time></trkpt><trkpt lat="43.3652046" lon="12.7046289"><ele>528.3333333333333</ele><time>2026-05-03T10:36:37.498Z</time></trkpt><trkpt lat="43.3650466" lon="12.7048434"><ele>527.0</ele><time>2026-05-03T10:36:38.496Z</time></trkpt><trkpt lat="43.3649003" lon="12.7050559"><ele>527.6666666666666</ele><time>2026-05-03T10:36:39.495Z</time></trkpt><trkpt lat="43.3647571" lon="12.7052615"><ele>528.3333333333334</ele><time>2026-05-03T10:36:40.495Z</time></trkpt><trkpt lat="43.3646184" lon="12.7054653"><ele>529.0</ele><time>2026-05-03T10:36:41.497Z</time></trkpt><trkpt lat="43.3644806" lon="12.7056654"><ele>529.0</ele><time>2026-05-03T10:36:42.496Z</time></trkpt><trkpt lat="43.3643493" lon="12.7058564"><ele>529.0</ele><time>2026-05-03T10:36:43.496Z</time></trkpt><trkpt lat="43.3642271" lon="12.7060437"><ele>529.0</ele><time>2026-05-03T10:36:44.498Z</time></trkpt><trkpt lat="43.3641072" lon="12.7062271"><ele>528.6666666666667</ele><time>2026-05-03T10:36:45.496Z</time></trkpt><trkpt lat="43.3639931" lon="12.7063949"><ele>528.3333333333334</ele><time>2026-05-03T10:36:46.496Z</time></trkpt><trkpt lat="43.3638855" lon="12.7065617"><ele>528.0</ele><time>2026-05-03T10:36:47.497Z</time></trkpt><trkpt lat="43.3637799" lon="12.7067338"><ele>528.0</ele><time>2026-05-03T10:36:48.498Z</time></trkpt><trkpt lat="43.3636709" lon="12.706906"><ele>528.0</ele><time>2026-05-03T10:36:49.497Z</time></trkpt><trkpt lat="43.3635548" lon="12.707079"><ele>528.0</ele><time>2026-05-03T10:36:50.496Z</time></trkpt><trkpt lat="43.3634249" lon="12.7072518"><ele>531.3333333333334</ele><time>2026-05-03T10:36:51.496Z</time></trkpt><trkpt lat="43.3632861" lon="12.7074421"><ele>534.6666666666667</ele><time>2026-05-03T10:36:52.495Z</time></trkpt><trkpt lat="43.3631325" lon="12.7076192"><ele>538.0</ele><time>2026-05-03T10:36:53.497Z</time></trkpt><trkpt lat="43.362988" lon="12.7077955"><ele>538.0</ele><time>2026-05-03T10:36:54.497Z</time></trkpt><trkpt lat="43.362841" lon="12.7079716"><ele>538.0</ele><time>2026-05-03T10:36:55.494Z</time></trkpt><trkpt lat="43.3626965" lon="12.7081452"><ele>538.0</ele><time>2026-05-03T10:36:56.498Z</time></trkpt><trkpt lat="43.3625384" lon="12.7083372"><ele>538.0</ele><time>2026-05-03T10:36:57.496Z</time></trkpt><trkpt lat="43.3623833" lon="12.7085351"><ele>538.0</ele><time>2026-05-03T10:36:58.497Z</time></trkpt><trkpt lat="43.3622178" lon="12.7087294"><ele>538.0</ele><time>2026-05-03T10:36:59.496Z</time></trkpt><trkpt lat="43.3620617" lon="12.7089306"><ele>539.3333333333334</ele><time>2026-05-03T10:37:00.495Z</time></trkpt><trkpt lat="43.3619046" lon="12.7091386"><ele>540.6666666666666</ele><time>2026-05-03T10:37:01.495Z</time></trkpt><trkpt lat="43.3617646" lon="12.7093465"><ele>542.0</ele><time>2026-05-03T10:37:02.496Z</time></trkpt><trkpt lat="43.3616411" lon="12.7095531"><ele>543.6666666666666</ele><time>2026-05-03T10:37:03.497Z</time></trkpt><trkpt lat="43.3615338" lon="12.7097556"><ele>545.3333333333334</ele><time>2026-05-03T10:37:04.494Z</time></trkpt><trkpt lat="43.3614341" lon="12.709952"><ele>547.0</ele><time>2026-05-03T10:37:05.499Z</time></trkpt><trkpt lat="43.3613468" lon="12.7101696"><ele>543.6666666666667</ele><time>2026-05-03T10:37:06.497Z</time></trkpt><trkpt lat="43.361282" lon="12.7103934"><ele>540.3333333333334</ele><time>2026-05-03T10:37:07.504Z</time></trkpt><trkpt lat="43.3612272" lon="12.7106265"><ele>537.0</ele><time>2026-05-03T10:37:08.498Z</time></trkpt><trkpt lat="43.3611723" lon="12.7108509"><ele>540.3333333333334</ele><time>2026-05-03T10:37:09.496Z</time></trkpt><trkpt lat="43.3611191" lon="12.7111062"><ele>543.6666666666667</ele><time>2026-05-03T10:37:10.495Z</time></trkpt><trkpt lat="43.3610723" lon="12.7113314"><ele>547.0</ele><time>2026-05-03T10:37:11.497Z</time></trkpt><trkpt lat="43.3610451" lon="12.7115392"><ele>547.0</ele><time>2026-05-03T10:37:12.494Z</time></trkpt><trkpt lat="43.3610126" lon="12.7117394"><ele>547.0</ele><time>2026-05-03T10:37:13.495Z</time></trkpt><trkpt lat="43.3609562" lon="12.7119644"><ele>547.0</ele><time>2026-05-03T10:37:14.496Z</time></trkpt><trkpt lat="43.360909" lon="12.7121925"><ele>546.6666666666667</ele><time>2026-05-03T10:37:15.496Z</time></trkpt><trkpt lat="43.3608632" lon="12.7124067"><ele>546.3333333333334</ele><time>2026-05-03T10:37:16.497Z</time></trkpt><trkpt lat="43.3608331" lon="12.7126683"><ele>546.0</ele><time>2026-05-03T10:37:17.496Z</time></trkpt><trkpt lat="43.3607999" lon="12.7129049"><ele>546.0</ele><time>2026-05-03T10:37:18.496Z</time></trkpt><trkpt lat="43.3606822" lon="12.7130945"><ele>546.0</ele><time>2026-05-03T10:37:19.497Z</time></trkpt><trkpt lat="43.3605507" lon="12.7132952"><ele>546.0</ele><time>2026-05-03T10:37:20.496Z</time></trkpt><trkpt lat="43.3603949" lon="12.7135186"><ele>542.3333333333334</ele><time>2026-05-03T10:37:21.495Z</time></trkpt><trkpt lat="43.3602422" lon="12.7137143"><ele>538.6666666666667</ele><time>2026-05-03T10:37:22.496Z</time></trkpt><trkpt lat="43.3600977" lon="12.7139057"><ele>535.0</ele><time>2026-05-03T10:37:23.494Z</time></trkpt><trkpt lat="43.3599486" lon="12.7141139"><ele>535.0</ele><time>2026-05-03T10:37:24.497Z</time></trkpt><trkpt lat="43.3598051" lon="12.7143253"><ele>535.0</ele><time>2026-05-03T10:37:25.5Z</time></trkpt><trkpt lat="43.3596487" lon="12.7145343"><ele>535.0</ele><time>2026-05-03T10:37:26.498Z</time></trkpt><trkpt lat="43.3594908" lon="12.7147437"><ele>532.5</ele><time>2026-05-03T10:37:27.496Z</time></trkpt><trkpt lat="43.3593192" lon="12.7149399"><ele>530.0</ele><time>2026-05-03T10:37:28.507Z</time></trkpt><trkpt lat="43.3591343" lon="12.7151309"><ele>527.5</ele><time>2026-05-03T10:37:29.497Z</time></trkpt><trkpt lat="43.3589511" lon="12.7153357"><ele>525.0</ele><time>2026-05-03T10:37:30.494Z</time></trkpt><trkpt lat="43.3587483" lon="12.7155094"><ele>525.0</ele><time>2026-05-03T10:37:31.495Z</time></trkpt><trkpt lat="43.3585547" lon="12.7156905"><ele>525.0</ele><time>2026-05-03T10:37:32.494Z</time></trkpt><trkpt lat="43.3583682" lon="12.7158622"><ele>525.0</ele><time>2026-05-03T10:37:33.496Z</time></trkpt><trkpt lat="43.3581585" lon="12.7160267"><ele>525.0</ele><time>2026-05-03T10:37:34.497Z</time></trkpt><trkpt lat="43.357946" lon="12.7162011"><ele>526.0</ele><time>2026-05-03T10:37:35.497Z</time></trkpt><trkpt lat="43.357737" lon="12.7163503"><ele>527.0</ele><time>2026-05-03T10:37:36.497Z</time></trkpt><trkpt lat="43.3575125" lon="12.7165051"><ele>527.0</ele><time>2026-05-03T10:37:37.496Z</time></trkpt><trkpt lat="43.3572702" lon="12.7166296"><ele>527.0</ele><time>2026-05-03T10:37:38.496Z</time></trkpt><trkpt lat="43.3570153" lon="12.7167802"><ele>529.0</ele><time>2026-05-03T10:37:39.495Z</time></trkpt><trkpt lat="43.3567509" lon="12.7169425"><ele>531.0</ele><time>2026-05-03T10:37:40.495Z</time></trkpt><trkpt lat="43.3565123" lon="12.7171195"><ele>526.5</ele><time>2026-05-03T10:37:41.495Z</time></trkpt><trkpt lat="43.3562901" lon="12.7173118"><ele>522.0</ele><time>2026-05-03T10:37:42.496Z</time></trkpt><trkpt lat="43.3560588" lon="12.7174953"><ele>522.0</ele><time>2026-05-03T10:37:43.494Z</time></trkpt><trkpt lat="43.3558222" lon="12.7176685"><ele>522.0</ele><time>2026-05-03T10:37:44.493Z</time></trkpt><trkpt lat="43.3556236" lon="12.7178745"><ele>520.5</ele><time>2026-05-03T10:37:45.496Z</time></trkpt><trkpt lat="43.355388" lon="12.7180477"><ele>519.0</ele><time>2026-05-03T10:37:46.496Z</time></trkpt><trkpt lat="43.3551616" lon="12.7182065"><ele>519.0</ele><time>2026-05-03T10:37:47.5Z</time></trkpt><trkpt lat="43.3549573" lon="12.7183616"><ele>519.0</ele><time>2026-05-03T10:37:48.492Z</time></trkpt><trkpt lat="43.3547555" lon="12.7185261"><ele>519.3333333333334</ele><time>2026-05-03T10:37:49.497Z</time></trkpt><trkpt lat="43.3545655" lon="12.7186861"><ele>519.6666666666667</ele><time>2026-05-03T10:37:50.489Z</time></trkpt><trkpt lat="43.3543894" lon="12.7188626"><ele>520.0</ele><time>2026-05-03T10:37:51.496Z</time></trkpt><trkpt lat="43.3542112" lon="12.7190263"><ele>520.0</ele><time>2026-05-03T10:37:52.497Z</time></trkpt><trkpt lat="43.354026" lon="12.7191959"><ele>520.0</ele><time>2026-05-03T10:37:53.497Z</time></trkpt><trkpt lat="43.3538389" lon="12.7193588"><ele>520.0</ele><time>2026-05-03T10:37:54.498Z</time></trkpt><trkpt lat="43.3536505" lon="12.7195229"><ele>516.5</ele><time>2026-05-03T10:37:55.495Z</time></trkpt><trkpt lat="43.3534528" lon="12.7197017"><ele>513.0</ele><time>2026-05-03T10:37:56.498Z</time></trkpt><trkpt lat="43.3532615" lon="12.7198866"><ele>513.0</ele><time>2026-05-03T10:37:57.496Z</time></trkpt><trkpt lat="43.3530679" lon="12.7200519"><ele>513.0</ele><time>2026-05-03T10:37:58.498Z</time></trkpt><trkpt lat="43.3528794" lon="12.7202281"><ele>512.5</ele><time>2026-05-03T10:37:59.498Z</time></trkpt><trkpt lat="43.3526822" lon="12.720404"><ele>512.0</ele><time>2026-05-03T10:38:00.494Z</time></trkpt><trkpt lat="43.3524857" lon="12.7205753"><ele>512.0</ele><time>2026-05-03T10:38:01.5Z</time></trkpt><trkpt lat="43.3522843" lon="12.7207393"><ele>512.0</ele><time>2026-05-03T10:38:02.496Z</time></trkpt><trkpt lat="43.3520841" lon="12.7208951"><ele>512.3333333333333</ele><time>2026-05-03T10:38:03.499Z</time></trkpt><trkpt lat="43.3518842" lon="12.7210523"><ele>512.6666666666666</ele><time>2026-05-03T10:38:04.494Z</time></trkpt><trkpt lat="43.351697" lon="12.7211973"><ele>513.0</ele><time>2026-05-03T10:38:05.497Z</time></trkpt><trkpt lat="43.3515192" lon="12.7213339"><ele>508.33333333333337</ele><time>2026-05-03T10:38:06.501Z</time></trkpt><trkpt lat="43.3513512" lon="12.7214886"><ele>503.6666666666667</ele><time>2026-05-03T10:38:07.498Z</time></trkpt><trkpt lat="43.351209" lon="12.7216745"><ele>499.0</ele><time>2026-05-03T10:38:08.495Z</time></trkpt><trkpt lat="43.3510937" lon="12.7218854"><ele>500.0</ele><time>2026-05-03T10:38:09.499Z</time></trkpt><trkpt lat="43.350999" lon="12.722112"><ele>501.0</ele><time>2026-05-03T10:38:10.498Z</time></trkpt><trkpt lat="43.3509133" lon="12.7223319"><ele>502.0</ele><time>2026-05-03T10:38:11.496Z</time></trkpt><trkpt lat="43.3508159" lon="12.7225332"><ele>502.0</ele><time>2026-05-03T10:38:12.495Z</time></trkpt><trkpt lat="43.3506942" lon="12.7226928"><ele>502.0</ele><time>2026-05-03T10:38:13.497Z</time></trkpt><trkpt lat="43.3505471" lon="12.7228043"><ele>502.0</ele><time>2026-05-03T10:38:14.493Z</time></trkpt><trkpt lat="43.3503816" lon="12.7228645"><ele>501.6666666666667</ele><time>2026-05-03T10:38:15.495Z</time></trkpt><trkpt lat="43.3502122" lon="12.7229292"><ele>501.33333333333337</ele><time>2026-05-03T10:38:16.497Z</time></trkpt><trkpt lat="43.3500231" lon="12.7229929"><ele>501.0</ele><time>2026-05-03T10:38:17.496Z</time></trkpt><trkpt lat="43.3498288" lon="12.7230681"><ele>500.66666666666663</ele><time>2026-05-03T10:38:18.499Z</time></trkpt><trkpt lat="43.3496432" lon="12.7231562"><ele>500.3333333333333</ele><time>2026-05-03T10:38:19.496Z</time></trkpt><trkpt lat="43.3494591" lon="12.7232578"><ele>500.0</ele><time>2026-05-03T10:38:20.498Z</time></trkpt><trkpt lat="43.3492746" lon="12.7233767"><ele>500.0</ele><time>2026-05-03T10:38:21.496Z</time></trkpt><trkpt lat="43.3490801" lon="12.723507"><ele>500.0</ele><time>2026-05-03T10:38:22.491Z</time></trkpt><trkpt lat="43.3488939" lon="12.723641"><ele>500.0</ele><time>2026-05-03T10:38:23.498Z</time></trkpt><trkpt lat="43.3487085" lon="12.7237828"><ele>500.3333333333333</ele><time>2026-05-03T10:38:24.496Z</time></trkpt><trkpt lat="43.3485187" lon="12.7239218"><ele>500.66666666666663</ele><time>2026-05-03T10:38:25.5Z</time></trkpt><trkpt lat="43.3483279" lon="12.7240669"><ele>501.0</ele><time>2026-05-03T10:38:26.495Z</time></trkpt><trkpt lat="43.3481262" lon="12.7242199"><ele>498.5</ele><time>2026-05-03T10:38:27.497Z</time></trkpt><trkpt lat="43.3479243" lon="12.7243761"><ele>496.0</ele><time>2026-05-03T10:38:28.498Z</time></trkpt><trkpt lat="43.3477211" lon="12.7245273"><ele>496.0</ele><time>2026-05-03T10:38:29.498Z</time></trkpt><trkpt lat="43.3475205" lon="12.724674"><ele>496.0</ele><time>2026-05-03T10:38:30.498Z</time></trkpt><trkpt lat="43.3473222" lon="12.7248271"><ele>492.5</ele><time>2026-05-03T10:38:31.495Z</time></trkpt><trkpt lat="43.3471162" lon="12.7249829"><ele>489.0</ele><time>2026-05-03T10:38:32.496Z</time></trkpt><trkpt lat="43.3469132" lon="12.7251356"><ele>493.0</ele><time>2026-05-03T10:38:33.496Z</time></trkpt><trkpt lat="43.3467" lon="12.7253017"><ele>497.0</ele><time>2026-05-03T10:38:34.498Z</time></trkpt><trkpt lat="43.3464923" lon="12.7254561"><ele>493.0</ele><time>2026-05-03T10:38:35.498Z</time></trkpt><trkpt lat="43.3462785" lon="12.7256146"><ele>489.0</ele><time>2026-05-03T10:38:36.494Z</time></trkpt><trkpt lat="43.3460729" lon="12.7257767"><ele>489.0</ele><time>2026-05-03T10:38:37.496Z</time></trkpt><trkpt lat="43.3458651" lon="12.7259304"><ele>489.0</ele><time>2026-05-03T10:38:38.496Z</time></trkpt><trkpt lat="43.3456502" lon="12.7260846"><ele>489.0</ele><time>2026-05-03T10:38:39.498Z</time></trkpt><trkpt lat="43.3454611" lon="12.7262285"><ele>489.0</ele><time>2026-05-03T10:38:40.496Z</time></trkpt><trkpt lat="43.3452666" lon="12.7263683"><ele>489.0</ele><time>2026-05-03T10:38:41.497Z</time></trkpt><trkpt lat="43.3450624" lon="12.7265181"><ele>489.0</ele><time>2026-05-03T10:38:42.502Z</time></trkpt><trkpt lat="43.3448627" lon="12.7266695"><ele>489.0</ele><time>2026-05-03T10:38:43.496Z</time></trkpt><trkpt lat="43.3446622" lon="12.7268237"><ele>488.5</ele><time>2026-05-03T10:38:44.5Z</time></trkpt><trkpt lat="43.3444575" lon="12.7269707"><ele>488.0</ele><time>2026-05-03T10:38:45.498Z</time></trkpt><trkpt lat="43.3442524" lon="12.7271204"><ele>488.0</ele><time>2026-05-03T10:38:46.498Z</time></trkpt><trkpt lat="43.3440417" lon="12.7272752"><ele>488.0</ele><time>2026-05-03T10:38:47.495Z</time></trkpt><trkpt lat="43.3438379" lon="12.7274242"><ele>487.0</ele><time>2026-05-03T10:38:48.495Z</time></trkpt><trkpt lat="43.3436294" lon="12.7275693"><ele>486.0</ele><time>2026-05-03T10:38:49.496Z</time></trkpt><trkpt lat="43.3434213" lon="12.7277137"><ele>487.5</ele><time>2026-05-03T10:38:50.494Z</time></trkpt><trkpt lat="43.3432165" lon="12.7278575"><ele>489.0</ele><time>2026-05-03T10:38:51.493Z</time></trkpt><trkpt lat="43.3430091" lon="12.7280034"><ele>489.0</ele><time>2026-05-03T10:38:52.497Z</time></trkpt><trkpt lat="43.3428125" lon="12.7281445"><ele>489.0</ele><time>2026-05-03T10:38:53.496Z</time></trkpt><trkpt lat="43.3426124" lon="12.7282894"><ele>489.0</ele><time>2026-05-03T10:38:54.498Z</time></trkpt><trkpt lat="43.3424119" lon="12.7284275"><ele>489.0</ele><time>2026-05-03T10:38:55.497Z</time></trkpt><trkpt lat="43.3422032" lon="12.7285751"><ele>489.0</ele><time>2026-05-03T10:38:56.496Z</time></trkpt><trkpt lat="43.342002" lon="12.7287231"><ele>489.0</ele><time>2026-05-03T10:38:57.495Z</time></trkpt><trkpt lat="43.341797" lon="12.7288805"><ele>489.0</ele><time>2026-05-03T10:38:58.495Z</time></trkpt><trkpt lat="43.3415954" lon="12.7290312"><ele>489.0</ele><time>2026-05-03T10:38:59.497Z</time></trkpt><trkpt lat="43.3413875" lon="12.7291833"><ele>489.0</ele><time>2026-05-03T10:39:00.498Z</time></trkpt><trkpt lat="43.3411801" lon="12.7293353"><ele>488.5</ele><time>2026-05-03T10:39:01.495Z</time></trkpt><trkpt lat="43.3409734" lon="12.7294878"><ele>488.0</ele><time>2026-05-03T10:39:02.497Z</time></trkpt><trkpt lat="43.3407638" lon="12.7296397"><ele>488.0</ele><time>2026-05-03T10:39:03.499Z</time></trkpt><trkpt lat="43.3405549" lon="12.7297862"><ele>488.0</ele><time>2026-05-03T10:39:04.495Z</time></trkpt><trkpt lat="43.3403446" lon="12.7299277"><ele>486.5</ele><time>2026-05-03T10:39:05.494Z</time></trkpt><trkpt lat="43.3401271" lon="12.7300651"><ele>485.0</ele><time>2026-05-03T10:39:06.498Z</time></trkpt><trkpt lat="43.3399137" lon="12.7302021"><ele>487.0</ele><time>2026-05-03T10:39:07.496Z</time></trkpt><trkpt lat="43.339696" lon="12.7303375"><ele>489.0</ele><time>2026-05-03T10:39:08.498Z</time></trkpt><trkpt lat="43.3394791" lon="12.7304721"><ele>489.0</ele><time>2026-05-03T10:39:09.497Z</time></trkpt><trkpt lat="43.3392606" lon="12.730611"><ele>489.0</ele><time>2026-05-03T10:39:10.497Z</time></trkpt><trkpt lat="43.3390476" lon="12.7307488"><ele>487.5</ele><time>2026-05-03T10:39:11.497Z</time></trkpt><trkpt lat="43.3388329" lon="12.7309121"><ele>486.0</ele><time>2026-05-03T10:39:12.497Z</time></trkpt><trkpt lat="43.3386265" lon="12.7310938"><ele>486.0</ele><time>2026-05-03T10:39:13.496Z</time></trkpt><trkpt lat="43.3384337" lon="12.7312841"><ele>486.0</ele><time>2026-05-03T10:39:14.497Z</time></trkpt><trkpt lat="43.3382543" lon="12.73148"><ele>486.0</ele><time>2026-05-03T10:39:15.496Z</time></trkpt><trkpt lat="43.3380775" lon="12.73168"><ele>486.0</ele><time>2026-05-03T10:39:16.498Z</time></trkpt><trkpt lat="43.337909" lon="12.731883"><ele>485.0</ele><time>2026-05-03T10:39:17.499Z</time></trkpt><trkpt lat="43.3377431" lon="12.7320865"><ele>484.0</ele><time>2026-05-03T10:39:18.495Z</time></trkpt><trkpt lat="43.3375739" lon="12.7322914"><ele>483.0</ele><time>2026-05-03T10:39:19.494Z</time></trkpt><trkpt lat="43.3374106" lon="12.7324947"><ele>483.0</ele><time>2026-05-03T10:39:20.496Z</time></trkpt><trkpt lat="43.3372312" lon="12.7327097"><ele>483.0</ele><time>2026-05-03T10:39:21.495Z</time></trkpt><trkpt lat="43.3370688" lon="12.7329086"><ele>481.5</ele><time>2026-05-03T10:39:22.497Z</time></trkpt><trkpt lat="43.3369026" lon="12.7331138"><ele>480.0</ele><time>2026-05-03T10:39:23.497Z</time></trkpt><trkpt lat="43.3367317" lon="12.7333229"><ele>480.0</ele><time>2026-05-03T10:39:24.502Z</time></trkpt><trkpt lat="43.336567" lon="12.7335261"><ele>480.0</ele><time>2026-05-03T10:39:25.496Z</time></trkpt><trkpt lat="43.3364017" lon="12.7337254"><ele>480.0</ele><time>2026-05-03T10:39:26.498Z</time></trkpt><trkpt lat="43.3362396" lon="12.7339234"><ele>480.0</ele><time>2026-05-03T10:39:27.497Z</time></trkpt><trkpt lat="43.336085" lon="12.7341227"><ele>480.0</ele><time>2026-05-03T10:39:28.498Z</time></trkpt><trkpt lat="43.3359316" lon="12.7343088"><ele>480.0</ele><time>2026-05-03T10:39:29.496Z</time></trkpt><trkpt lat="43.3358026" lon="12.7344792"><ele>480.0</ele><time>2026-05-03T10:39:30.499Z</time></trkpt><trkpt lat="43.3356723" lon="12.7346345"><ele>480.0</ele><time>2026-05-03T10:39:31.497Z</time></trkpt><trkpt lat="43.3355492" lon="12.7347811"><ele>480.0</ele><time>2026-05-03T10:39:32.497Z</time></trkpt><trkpt lat="43.3354365" lon="12.7349214"><ele>479.5</ele><time>2026-05-03T10:39:33.496Z</time></trkpt><trkpt lat="43.3353304" lon="12.7350485"><ele>479.0</ele><time>2026-05-03T10:39:34.499Z</time></trkpt><trkpt lat="43.3352298" lon="12.7351677"><ele>478.5</ele><time>2026-05-03T10:39:35.494Z</time></trkpt><trkpt lat="43.3351367" lon="12.73529"><ele>478.0</ele><time>2026-05-03T10:39:36.497Z</time></trkpt><trkpt lat="43.3350406" lon="12.735407"><ele>479.0</ele><time>2026-05-03T10:39:37.498Z</time></trkpt><trkpt lat="43.3349452" lon="12.7355244"><ele>480.0</ele><time>2026-05-03T10:39:38.497Z</time></trkpt><trkpt lat="43.3348527" lon="12.7356423"><ele>481.0</ele><time>2026-05-03T10:39:39.498Z</time></trkpt><trkpt lat="43.3347723" lon="12.7357396"><ele>482.0</ele><time>2026-05-03T10:39:40.498Z</time></trkpt><trkpt lat="43.3346879" lon="12.7358512"><ele>482.0</ele><time>2026-05-03T10:39:41.498Z</time></trkpt><trkpt lat="43.3346049" lon="12.7359611"><ele>482.0</ele><time>2026-05-03T10:39:42.497Z</time></trkpt><trkpt lat="43.3345187" lon="12.7360628"><ele>482.0</ele><time>2026-05-03T10:39:43.497Z</time></trkpt><trkpt lat="43.3344272" lon="12.7361742"><ele>482.0</ele><time>2026-05-03T10:39:44.498Z</time></trkpt><trkpt lat="43.3343345" lon="12.7362987"><ele>483.5</ele><time>2026-05-03T10:39:45.496Z</time></trkpt><trkpt lat="43.3342349" lon="12.7364273"><ele>485.0</ele><time>2026-05-03T10:39:46.498Z</time></trkpt><trkpt lat="43.334136" lon="12.7365576"><ele>486.5</ele><time>2026-05-03T10:39:47.497Z</time></trkpt><trkpt lat="43.3340363" lon="12.7366839"><ele>488.0</ele><time>2026-05-03T10:39:48.497Z</time></trkpt><trkpt lat="43.3339372" lon="12.7368157"><ele>489.3333333333333</ele><time>2026-05-03T10:39:49.499Z</time></trkpt><trkpt lat="43.3338383" lon="12.736956"><ele>490.66666666666663</ele><time>2026-05-03T10:39:50.498Z</time></trkpt><trkpt lat="43.3337331" lon="12.7370972"><ele>492.0</ele><time>2026-05-03T10:39:51.493Z</time></trkpt><trkpt lat="43.3336159" lon="12.7372571"><ele>492.0</ele><time>2026-05-03T10:39:52.497Z</time></trkpt><trkpt lat="43.3334983" lon="12.7374091"><ele>492.0</ele><time>2026-05-03T10:39:53.497Z</time></trkpt><trkpt lat="43.3334018" lon="12.7375595"><ele>492.0</ele><time>2026-05-03T10:39:54.498Z</time></trkpt><trkpt lat="43.3333083" lon="12.7377027"><ele>492.0</ele><time>2026-05-03T10:39:55.498Z</time></trkpt><trkpt lat="43.333218" lon="12.7378388"><ele>491.5</ele><time>2026-05-03T10:39:56.496Z</time></trkpt><trkpt lat="43.333128" lon="12.7379697"><ele>491.0</ele><time>2026-05-03T10:39:57.496Z</time></trkpt><trkpt lat="43.333045" lon="12.7381022"><ele>490.5</ele><time>2026-05-03T10:39:58.498Z</time></trkpt><trkpt lat="43.3329673" lon="12.7382342"><ele>490.0</ele><time>2026-05-03T10:39:59.5Z</time></trkpt><trkpt lat="43.3328901" lon="12.7383677"><ele>490.0</ele><time>2026-05-03T10:40:00.495Z</time></trkpt><trkpt lat="43.3328098" lon="12.7384953"><ele>490.0</ele><time>2026-05-03T10:40:01.496Z</time></trkpt><trkpt lat="43.3327332" lon="12.7386099"><ele>490.0</ele><time>2026-05-03T10:40:02.496Z</time></trkpt><trkpt lat="43.3326513" lon="12.7387321"><ele>490.0</ele><time>2026-05-03T10:40:03.496Z</time></trkpt><trkpt lat="43.3325745" lon="12.7388483"><ele>490.4</ele><time>2026-05-03T10:40:04.499Z</time></trkpt><trkpt lat="43.3325004" lon="12.7389631"><ele>490.8</ele><time>2026-05-03T10:40:05.496Z</time></trkpt><trkpt lat="43.3324278" lon="12.7390638"><ele>491.20000000000005</ele><time>2026-05-03T10:40:06.499Z</time></trkpt><trkpt lat="43.3323673" lon="12.7391616"><ele>491.6</ele><time>2026-05-03T10:40:07.491Z</time></trkpt><trkpt lat="43.3323047" lon="12.7392552"><ele>492.0</ele><time>2026-05-03T10:40:08.497Z</time></trkpt><trkpt lat="43.3322544" lon="12.7393389"><ele>491.8333333333333</ele><time>2026-05-03T10:40:09.495Z</time></trkpt><trkpt lat="43.3322143" lon="12.7394148"><ele>491.66666666666663</ele><time>2026-05-03T10:40:10.497Z</time></trkpt><trkpt lat="43.3321491" lon="12.7395189"><ele>491.5</ele><time>2026-05-03T10:40:12.494Z</time></trkpt><trkpt lat="43.3321004" lon="12.739596"><ele>491.3333333333333</ele><time>2026-05-03T10:40:14.498Z</time></trkpt><trkpt lat="43.3320429" lon="12.7396533"><ele>491.16666666666663</ele><time>2026-05-03T10:40:15.504Z</time></trkpt><trkpt lat="43.3319869" lon="12.7397226"><ele>491.0</ele><time>2026-05-03T10:40:16.526Z</time></trkpt><trkpt lat="43.3319286" lon="12.7397897"><ele>490.99999999999994</ele><time>2026-05-03T10:40:17.496Z</time></trkpt><trkpt lat="43.3318784" lon="12.7398723"><ele>491.0</ele><time>2026-05-03T10:40:18.496Z</time></trkpt><trkpt lat="43.3318294" lon="12.7399501"><ele>491.0</ele><time>2026-05-03T10:40:19.496Z</time></trkpt><trkpt lat="43.3317932" lon="12.7400324"><ele>491.0</ele><time>2026-05-03T10:40:20.498Z</time></trkpt><trkpt lat="43.3317526" lon="12.7401431"><ele>490.99999999999994</ele><time>2026-05-03T10:40:21.498Z</time></trkpt><trkpt lat="43.3317199" lon="12.7402343"><ele>491.0</ele><time>2026-05-03T10:40:22.496Z</time></trkpt><trkpt lat="43.3316476" lon="12.7403353"><ele>492.0</ele><time>2026-05-03T10:40:23.496Z</time></trkpt><trkpt lat="43.3316017" lon="12.7404324"><ele>493.0</ele><time>2026-05-03T10:40:24.496Z</time></trkpt><trkpt lat="43.3315419" lon="12.7405468"><ele>494.0</ele><time>2026-05-03T10:40:25.491Z</time></trkpt><trkpt lat="43.3314765" lon="12.7406513"><ele>495.0</ele><time>2026-05-03T10:40:26.497Z</time></trkpt><trkpt lat="43.331415" lon="12.7407627"><ele>496.0</ele><time>2026-05-03T10:40:27.496Z</time></trkpt><trkpt lat="43.3313554" lon="12.7408694"><ele>493.5</ele><time>2026-05-03T10:40:28.497Z</time></trkpt><trkpt lat="43.3312924" lon="12.7409972"><ele>491.0</ele><time>2026-05-03T10:40:29.497Z</time></trkpt><trkpt lat="43.3312751" lon="12.7411727"><ele>488.5</ele><time>2026-05-03T10:40:30.493Z</time></trkpt><trkpt lat="43.331245" lon="12.7413689"><ele>486.0</ele><time>2026-05-03T10:40:31.497Z</time></trkpt><trkpt lat="43.3312705" lon="12.7415718"><ele>485.5</ele><time>2026-05-03T10:40:32.497Z</time></trkpt><trkpt lat="43.3312583" lon="12.7417756"><ele>485.0</ele><time>2026-05-03T10:40:33.496Z</time></trkpt><trkpt lat="43.3312603" lon="12.741977"><ele>484.5</ele><time>2026-05-03T10:40:34.495Z</time></trkpt><trkpt lat="43.3312551" lon="12.7421725"><ele>484.0</ele><time>2026-05-03T10:40:35.496Z</time></trkpt><trkpt lat="43.3312349" lon="12.7423606"><ele>482.75</ele><time>2026-05-03T10:40:36.496Z</time></trkpt><trkpt lat="43.3311976" lon="12.7425393"><ele>481.5</ele><time>2026-05-03T10:40:37.497Z</time></trkpt><trkpt lat="43.3311203" lon="12.7426987"><ele>480.25</ele><time>2026-05-03T10:40:38.498Z</time></trkpt><trkpt lat="43.3310321" lon="12.7428428"><ele>479.0</ele><time>2026-05-03T10:40:39.494Z</time></trkpt><trkpt lat="43.3309242" lon="12.7429718"><ele>478.66666666666663</ele><time>2026-05-03T10:40:40.496Z</time></trkpt><trkpt lat="43.3308116" lon="12.7430821"><ele>478.33333333333337</ele><time>2026-05-03T10:40:41.488Z</time></trkpt><trkpt lat="43.3306776" lon="12.7431914"><ele>478.0</ele><time>2026-05-03T10:40:42.496Z</time></trkpt><trkpt lat="43.3305352" lon="12.7433327"><ele>477.6666666666667</ele><time>2026-05-03T10:40:43.498Z</time></trkpt><trkpt lat="43.3303943" lon="12.7434534"><ele>477.33333333333337</ele><time>2026-05-03T10:40:44.496Z</time></trkpt><trkpt lat="43.3302592" lon="12.7436103"><ele>477.0</ele><time>2026-05-03T10:40:45.497Z</time></trkpt><trkpt lat="43.3301227" lon="12.7437525"><ele>477.33333333333337</ele><time>2026-05-03T10:40:46.501Z</time></trkpt><trkpt lat="43.3299794" lon="12.7439078"><ele>477.6666666666667</ele><time>2026-05-03T10:40:47.497Z</time></trkpt><trkpt lat="43.3298375" lon="12.7440562"><ele>478.0</ele><time>2026-05-03T10:40:48.496Z</time></trkpt><trkpt lat="43.3296973" lon="12.7441952"><ele>478.0</ele><time>2026-05-03T10:40:49.497Z</time></trkpt><trkpt lat="43.3295695" lon="12.7443182"><ele>478.0</ele><time>2026-05-03T10:40:50.497Z</time></trkpt><trkpt lat="43.3294323" lon="12.7444223"><ele>478.0</ele><time>2026-05-03T10:40:51.495Z</time></trkpt><trkpt lat="43.3292849" lon="12.7444886"><ele>479.33333333333337</ele><time>2026-05-03T10:40:52.499Z</time></trkpt><trkpt lat="43.3291316" lon="12.7445196"><ele>480.66666666666663</ele><time>2026-05-03T10:40:53.499Z</time></trkpt><trkpt lat="43.328959" lon="12.7444972"><ele>482.0</ele><time>2026-05-03T10:40:54.499Z</time></trkpt><trkpt lat="43.3287713" lon="12.7444693"><ele>485.66666666666663</ele><time>2026-05-03T10:40:55.581Z</time></trkpt><trkpt lat="43.3285908" lon="12.7444358"><ele>489.33333333333337</ele><time>2026-05-03T10:40:56.5Z</time></trkpt><trkpt lat="43.3284119" lon="12.7444167"><ele>493.0</ele><time>2026-05-03T10:40:57.497Z</time></trkpt><trkpt lat="43.3282339" lon="12.7444081"><ele>494.33333333333337</ele><time>2026-05-03T10:40:58.495Z</time></trkpt><trkpt lat="43.3280549" lon="12.7444174"><ele>495.66666666666663</ele><time>2026-05-03T10:40:59.494Z</time></trkpt><trkpt lat="43.3278778" lon="12.744438"><ele>497.0</ele><time>2026-05-03T10:41:00.498Z</time></trkpt><trkpt lat="43.3277023" lon="12.744458"><ele>497.0</ele><time>2026-05-03T10:41:01.502Z</time></trkpt><trkpt lat="43.3275306" lon="12.744488"><ele>497.0</ele><time>2026-05-03T10:41:02.501Z</time></trkpt><trkpt lat="43.3273571" lon="12.7445157"><ele>497.0</ele><time>2026-05-03T10:41:03.497Z</time></trkpt><trkpt lat="43.3271901" lon="12.7445437"><ele>496.66666666666663</ele><time>2026-05-03T10:41:04.495Z</time></trkpt><trkpt lat="43.3270163" lon="12.7445654"><ele>496.33333333333337</ele><time>2026-05-03T10:41:05.493Z</time></trkpt><trkpt lat="43.3268395" lon="12.74459"><ele>496.0</ele><time>2026-05-03T10:41:06.496Z</time></trkpt><trkpt lat="43.3266554" lon="12.7446122"><ele>496.0</ele><time>2026-05-03T10:41:07.498Z</time></trkpt><trkpt lat="43.3264763" lon="12.7446378"><ele>496.0</ele><time>2026-05-03T10:41:08.498Z</time></trkpt><trkpt lat="43.3263025" lon="12.7446743"><ele>496.0</ele><time>2026-05-03T10:41:09.496Z</time></trkpt><trkpt lat="43.3261282" lon="12.7447352"><ele>494.6666666666667</ele><time>2026-05-03T10:41:10.496Z</time></trkpt><trkpt lat="43.3259715" lon="12.7448378"><ele>493.33333333333337</ele><time>2026-05-03T10:41:11.497Z</time></trkpt><trkpt lat="43.3258328" lon="12.744993"><ele>492.0</ele><time>2026-05-03T10:41:12.497Z</time></trkpt><trkpt lat="43.3257145" lon="12.7451893"><ele>492.33333333333337</ele><time>2026-05-03T10:41:13.497Z</time></trkpt><trkpt lat="43.3256139" lon="12.7454097"><ele>492.6666666666667</ele><time>2026-05-03T10:41:14.501Z</time></trkpt><trkpt lat="43.3255229" lon="12.7456533"><ele>493.0</ele><time>2026-05-03T10:41:15.498Z</time></trkpt><trkpt lat="43.3254376" lon="12.7458967"><ele>489.6666666666667</ele><time>2026-05-03T10:41:16.499Z</time></trkpt><trkpt lat="43.3253481" lon="12.7461326"><ele>486.33333333333337</ele><time>2026-05-03T10:41:17.497Z</time></trkpt><trkpt lat="43.3252503" lon="12.7463548"><ele>483.0</ele><time>2026-05-03T10:41:18.496Z</time></trkpt><trkpt lat="43.3251422" lon="12.746565"><ele>483.0</ele><time>2026-05-03T10:41:19.497Z</time></trkpt><trkpt lat="43.3250241" lon="12.7467702"><ele>483.0</ele><time>2026-05-03T10:41:20.498Z</time></trkpt><trkpt lat="43.3249028" lon="12.7469747"><ele>483.0</ele><time>2026-05-03T10:41:21.496Z</time></trkpt><trkpt lat="43.3247781" lon="12.747175"><ele>483.66666666666663</ele><time>2026-05-03T10:41:22.498Z</time></trkpt><trkpt lat="43.3246549" lon="12.7473817"><ele>484.3333333333333</ele><time>2026-05-03T10:41:23.497Z</time></trkpt><trkpt lat="43.3245386" lon="12.7475982"><ele>485.0</ele><time>2026-05-03T10:41:24.497Z</time></trkpt><trkpt lat="43.3244222" lon="12.7478147"><ele>486.66666666666663</ele><time>2026-05-03T10:41:25.496Z</time></trkpt><trkpt lat="43.3243041" lon="12.7480316"><ele>488.33333333333337</ele><time>2026-05-03T10:41:26.5Z</time></trkpt><trkpt lat="43.3241903" lon="12.7482499"><ele>490.0</ele><time>2026-05-03T10:41:27.495Z</time></trkpt><trkpt lat="43.3240722" lon="12.7484755"><ele>491.6666666666667</ele><time>2026-05-03T10:41:28.49Z</time></trkpt><trkpt lat="43.3239567" lon="12.7487066"><ele>493.33333333333337</ele><time>2026-05-03T10:41:29.497Z</time></trkpt><trkpt lat="43.32384" lon="12.7489476"><ele>495.0</ele><time>2026-05-03T10:41:30.498Z</time></trkpt><trkpt lat="43.3237218" lon="12.7491822"><ele>496.33333333333337</ele><time>2026-05-03T10:41:31.496Z</time></trkpt><trkpt lat="43.3236048" lon="12.7494045"><ele>497.6666666666667</ele><time>2026-05-03T10:41:32.498Z</time></trkpt><trkpt lat="43.3234799" lon="12.749619"><ele>499.0</ele><time>2026-05-03T10:41:33.492Z</time></trkpt><trkpt lat="43.3233425" lon="12.7498244"><ele>499.0</ele><time>2026-05-03T10:41:34.498Z</time></trkpt><trkpt lat="43.323192" lon="12.7500203"><ele>499.0</ele><time>2026-05-03T10:41:35.496Z</time></trkpt><trkpt lat="43.3230302" lon="12.7501946"><ele>499.0</ele><time>2026-05-03T10:41:36.497Z</time></trkpt><trkpt lat="43.3228591" lon="12.7503366"><ele>500.6666666666667</ele><time>2026-05-03T10:41:37.499Z</time></trkpt><trkpt lat="43.32269" lon="12.750455"><ele>502.33333333333337</ele><time>2026-05-03T10:41:38.526Z</time></trkpt><trkpt lat="43.3225225" lon="12.7505819"><ele>504.0</ele><time>2026-05-03T10:41:39.498Z</time></trkpt><trkpt lat="43.3223649" lon="12.7507178"><ele>502.66666666666663</ele><time>2026-05-03T10:41:40.497Z</time></trkpt><trkpt lat="43.3222124" lon="12.7508726"><ele>501.3333333333333</ele><time>2026-05-03T10:41:41.498Z</time></trkpt><trkpt lat="43.3220677" lon="12.7510386"><ele>500.0</ele><time>2026-05-03T10:41:42.499Z</time></trkpt><trkpt lat="43.321926" lon="12.7512172"><ele>500.0</ele><time>2026-05-03T10:41:43.496Z</time></trkpt><trkpt lat="43.3217943" lon="12.7514103"><ele>500.0</ele><time>2026-05-03T10:41:44.496Z</time></trkpt><trkpt lat="43.3216694" lon="12.7516084"><ele>500.0</ele><time>2026-05-03T10:41:45.493Z</time></trkpt><trkpt lat="43.3215512" lon="12.751812"><ele>500.3333333333333</ele><time>2026-05-03T10:41:46.498Z</time></trkpt><trkpt lat="43.3214377" lon="12.752016"><ele>500.66666666666663</ele><time>2026-05-03T10:41:47.497Z</time></trkpt><trkpt lat="43.3213232" lon="12.7522281"><ele>501.0</ele><time>2026-05-03T10:41:48.497Z</time></trkpt><trkpt lat="43.3212024" lon="12.7524331"><ele>501.33333333333337</ele><time>2026-05-03T10:41:49.495Z</time></trkpt><trkpt lat="43.3210595" lon="12.7526164"><ele>501.6666666666667</ele><time>2026-05-03T10:41:50.496Z</time></trkpt><trkpt lat="43.3209063" lon="12.7527622"><ele>502.0</ele><time>2026-05-03T10:41:51.497Z</time></trkpt><trkpt lat="43.3207424" lon="12.7528907"><ele>502.0</ele><time>2026-05-03T10:41:52.498Z</time></trkpt><trkpt lat="43.3205718" lon="12.753005"><ele>502.0</ele><time>2026-05-03T10:41:53.493Z</time></trkpt><trkpt lat="43.3203988" lon="12.7531236"><ele>502.0</ele><time>2026-05-03T10:41:54.496Z</time></trkpt><trkpt lat="43.3202191" lon="12.7532449"><ele>500.33333333333337</ele><time>2026-05-03T10:41:55.497Z</time></trkpt><trkpt lat="43.3200383" lon="12.753363"><ele>498.66666666666663</ele><time>2026-05-03T10:41:56.495Z</time></trkpt><trkpt lat="43.3198676" lon="12.7534756"><ele>497.0</ele><time>2026-05-03T10:41:57.497Z</time></trkpt><trkpt lat="43.3196827" lon="12.7535844"><ele>496.0</ele><time>2026-05-03T10:41:58.502Z</time></trkpt><trkpt lat="43.31953" lon="12.7537078"><ele>495.0</ele><time>2026-05-03T10:41:59.496Z</time></trkpt><trkpt lat="43.3193896" lon="12.7538525"><ele>494.0</ele><time>2026-05-03T10:42:00.498Z</time></trkpt><trkpt lat="43.3192592" lon="12.7540334"><ele>494.0</ele><time>2026-05-03T10:42:01.494Z</time></trkpt><trkpt lat="43.3191299" lon="12.7541957"><ele>494.0</ele><time>2026-05-03T10:42:02.498Z</time></trkpt><trkpt lat="43.3190432" lon="12.7544602"><ele>494.0</ele><time>2026-05-03T10:42:03.494Z</time></trkpt><trkpt lat="43.3189477" lon="12.7546918"><ele>493.3333333333333</ele><time>2026-05-03T10:42:04.493Z</time></trkpt><trkpt lat="43.3188498" lon="12.7549079"><ele>492.66666666666663</ele><time>2026-05-03T10:42:05.495Z</time></trkpt><trkpt lat="43.318751" lon="12.755132"><ele>492.0</ele><time>2026-05-03T10:42:06.498Z</time></trkpt><trkpt lat="43.3186597" lon="12.7553463"><ele>492.0</ele><time>2026-05-03T10:42:07.499Z</time></trkpt><trkpt lat="43.3185837" lon="12.75557"><ele>492.0</ele><time>2026-05-03T10:42:08.5Z</time></trkpt><trkpt lat="43.3185084" lon="12.755822"><ele>492.0</ele><time>2026-05-03T10:42:09.499Z</time></trkpt><trkpt lat="43.3184749" lon="12.7561309"><ele>492.66666666666663</ele><time>2026-05-03T10:42:10.496Z</time></trkpt><trkpt lat="43.3184347" lon="12.756401"><ele>493.3333333333333</ele><time>2026-05-03T10:42:11.496Z</time></trkpt><trkpt lat="43.3183941" lon="12.7566671"><ele>494.0</ele><time>2026-05-03T10:42:12.499Z</time></trkpt><trkpt lat="43.3183094" lon="12.7569274"><ele>494.66666666666663</ele><time>2026-05-03T10:42:13.498Z</time></trkpt><trkpt lat="43.3182747" lon="12.7571955"><ele>495.33333333333337</ele><time>2026-05-03T10:42:14.496Z</time></trkpt><trkpt lat="43.3182516" lon="12.7574603"><ele>496.0</ele><time>2026-05-03T10:42:15.503Z</time></trkpt><trkpt lat="43.3182474" lon="12.7577253"><ele>496.33333333333337</ele><time>2026-05-03T10:42:16.496Z</time></trkpt><trkpt lat="43.3182495" lon="12.7579819"><ele>496.66666666666663</ele><time>2026-05-03T10:42:17.494Z</time></trkpt><trkpt lat="43.318258" lon="12.7582044"><ele>497.0</ele><time>2026-05-03T10:42:18.499Z</time></trkpt><trkpt lat="43.3182703" lon="12.7584333"><ele>497.5</ele><time>2026-05-03T10:42:19.497Z</time></trkpt><trkpt lat="43.3182885" lon="12.7586012"><ele>498.0</ele><time>2026-05-03T10:42:20.496Z</time></trkpt><trkpt lat="43.3182768" lon="12.7587777"><ele>498.5</ele><time>2026-05-03T10:42:21.496Z</time></trkpt><trkpt lat="43.3182533" lon="12.7589399"><ele>499.0</ele><time>2026-05-03T10:42:22.494Z</time></trkpt><trkpt lat="43.3182122" lon="12.7590781"><ele>499.0</ele><time>2026-05-03T10:42:23.497Z</time></trkpt><trkpt lat="43.3180799" lon="12.7591597"><ele>499.0</ele><time>2026-05-03T10:42:24.495Z</time></trkpt><trkpt lat="43.3179342" lon="12.7592122"><ele>499.0</ele><time>2026-05-03T10:42:25.496Z</time></trkpt><trkpt lat="43.3178135" lon="12.7592595"><ele>499.0</ele><time>2026-05-03T10:42:26.496Z</time></trkpt><trkpt lat="43.3176827" lon="12.7592363"><ele>498.5</ele><time>2026-05-03T10:42:27.496Z</time></trkpt><trkpt lat="43.3175526" lon="12.7591634"><ele>498.0</ele><time>2026-05-03T10:42:28.495Z</time></trkpt><trkpt lat="43.3174225" lon="12.75907"><ele>497.5</ele><time>2026-05-03T10:42:29.497Z</time></trkpt><trkpt lat="43.3172908" lon="12.7589834"><ele>497.0</ele><time>2026-05-03T10:42:30.497Z</time></trkpt><trkpt lat="43.317154" lon="12.758882"><ele>497.75</ele><time>2026-05-03T10:42:31.496Z</time></trkpt><trkpt lat="43.3170195" lon="12.7587869"><ele>498.5</ele><time>2026-05-03T10:42:32.498Z</time></trkpt><trkpt lat="43.3168903" lon="12.7586945"><ele>499.25</ele><time>2026-05-03T10:42:33.495Z</time></trkpt><trkpt lat="43.3167614" lon="12.7586106"><ele>500.0</ele><time>2026-05-03T10:42:34.499Z</time></trkpt><trkpt lat="43.3166295" lon="12.7585331"><ele>500.0</ele><time>2026-05-03T10:42:35.497Z</time></trkpt><trkpt lat="43.3164987" lon="12.7584527"><ele>500.0</ele><time>2026-05-03T10:42:36.496Z</time></trkpt><trkpt lat="43.316364" lon="12.7583745"><ele>500.0</ele><time>2026-05-03T10:42:37.497Z</time></trkpt><trkpt lat="43.3162232" lon="12.7582967"><ele>500.0</ele><time>2026-05-03T10:42:38.493Z</time></trkpt><trkpt lat="43.3160773" lon="12.7582182"><ele>501.66666666666663</ele><time>2026-05-03T10:42:39.499Z</time></trkpt><trkpt lat="43.3159247" lon="12.7581471"><ele>503.33333333333337</ele><time>2026-05-03T10:42:40.496Z</time></trkpt><trkpt lat="43.3157675" lon="12.7580836"><ele>505.0</ele><time>2026-05-03T10:42:41.497Z</time></trkpt><trkpt lat="43.3156038" lon="12.758038"><ele>504.6666666666667</ele><time>2026-05-03T10:42:42.496Z</time></trkpt><trkpt lat="43.3154374" lon="12.7580065"><ele>504.33333333333337</ele><time>2026-05-03T10:42:43.497Z</time></trkpt><trkpt lat="43.3152731" lon="12.7580176"><ele>504.0</ele><time>2026-05-03T10:42:44.497Z</time></trkpt><trkpt lat="43.3151063" lon="12.7580242"><ele>504.0</ele><time>2026-05-03T10:42:45.497Z</time></trkpt><trkpt lat="43.3149303" lon="12.7580346"><ele>504.0</ele><time>2026-05-03T10:42:46.497Z</time></trkpt><trkpt lat="43.3147348" lon="12.7580495"><ele>504.0</ele><time>2026-05-03T10:42:47.496Z</time></trkpt><trkpt lat="43.3145466" lon="12.7580652"><ele>503.33333333333337</ele><time>2026-05-03T10:42:48.496Z</time></trkpt><trkpt lat="43.3143292" lon="12.7580688"><ele>502.6666666666667</ele><time>2026-05-03T10:42:49.496Z</time></trkpt><trkpt lat="43.314111" lon="12.7581252"><ele>502.0</ele><time>2026-05-03T10:42:50.5Z</time></trkpt><trkpt lat="43.3139072" lon="12.7581805"><ele>499.0</ele><time>2026-05-03T10:42:51.64Z</time></trkpt><trkpt lat="43.3134777" lon="12.7583022"><ele>496.0</ele><time>2026-05-03T10:42:53.495Z</time></trkpt><trkpt lat="43.3132784" lon="12.7583652"><ele>495.6666666666667</ele><time>2026-05-03T10:42:54.496Z</time></trkpt><trkpt lat="43.3130688" lon="12.7584256"><ele>495.33333333333337</ele><time>2026-05-03T10:42:55.497Z</time></trkpt><trkpt lat="43.3128505" lon="12.7584914"><ele>495.0</ele><time>2026-05-03T10:42:56.496Z</time></trkpt><trkpt lat="43.3126379" lon="12.7585509"><ele>495.0</ele><time>2026-05-03T10:42:57.498Z</time></trkpt><trkpt lat="43.3124258" lon="12.7586057"><ele>495.0</ele><time>2026-05-03T10:42:58.496Z</time></trkpt><trkpt lat="43.3122121" lon="12.7586576"><ele>495.0</ele><time>2026-05-03T10:42:59.496Z</time></trkpt><trkpt lat="43.3120069" lon="12.7587034"><ele>494.66666666666663</ele><time>2026-05-03T10:43:00.496Z</time></trkpt><trkpt lat="43.3117953" lon="12.7587533"><ele>494.3333333333333</ele><time>2026-05-03T10:43:01.5Z</time></trkpt><trkpt lat="43.3115849" lon="12.7588102"><ele>494.0</ele><time>2026-05-03T10:43:02.497Z</time></trkpt><trkpt lat="43.3113677" lon="12.7588658"><ele>492.5</ele><time>2026-05-03T10:43:03.496Z</time></trkpt><trkpt lat="43.3111458" lon="12.7589201"><ele>491.0</ele><time>2026-05-03T10:43:04.494Z</time></trkpt><trkpt lat="43.3109181" lon="12.7589709"><ele>491.0</ele><time>2026-05-03T10:43:05.493Z</time></trkpt><trkpt lat="43.3106875" lon="12.7590118"><ele>491.0</ele><time>2026-05-03T10:43:06.498Z</time></trkpt><trkpt lat="43.3104529" lon="12.7590513"><ele>492.5</ele><time>2026-05-03T10:43:07.497Z</time></trkpt><trkpt lat="43.3102008" lon="12.7590817"><ele>494.0</ele><time>2026-05-03T10:43:08.498Z</time></trkpt><trkpt lat="43.3099664" lon="12.7590909"><ele>494.0</ele><time>2026-05-03T10:43:09.496Z</time></trkpt><trkpt lat="43.3097463" lon="12.7591032"><ele>494.0</ele><time>2026-05-03T10:43:10.496Z</time></trkpt><trkpt lat="43.3095255" lon="12.7591143"><ele>494.0</ele><time>2026-05-03T10:43:11.495Z</time></trkpt><trkpt lat="43.3093044" lon="12.7591179"><ele>494.0</ele><time>2026-05-03T10:43:12.496Z</time></trkpt><trkpt lat="43.3090788" lon="12.7591027"><ele>494.0</ele><time>2026-05-03T10:43:13.496Z</time></trkpt><trkpt lat="43.3088536" lon="12.7590643"><ele>494.0</ele><time>2026-05-03T10:43:14.498Z</time></trkpt><trkpt lat="43.3086297" lon="12.7590046"><ele>494.0</ele><time>2026-05-03T10:43:15.497Z</time></trkpt><trkpt lat="43.3084123" lon="12.7589554"><ele>494.0</ele><time>2026-05-03T10:43:16.499Z</time></trkpt><trkpt lat="43.3081941" lon="12.7589087"><ele>491.0</ele><time>2026-05-03T10:43:17.497Z</time></trkpt><trkpt lat="43.3079765" lon="12.7588566"><ele>488.0</ele><time>2026-05-03T10:43:18.497Z</time></trkpt><trkpt lat="43.3077492" lon="12.7588139"><ele>488.0</ele><time>2026-05-03T10:43:19.501Z</time></trkpt><trkpt lat="43.3075209" lon="12.7587608"><ele>488.0</ele><time>2026-05-03T10:43:20.498Z</time></trkpt><trkpt lat="43.3072916" lon="12.7587192"><ele>485.5</ele><time>2026-05-03T10:43:21.498Z</time></trkpt><trkpt lat="43.3070547" lon="12.7586932"><ele>483.0</ele><time>2026-05-03T10:43:22.503Z</time></trkpt><trkpt lat="43.3068097" lon="12.7586847"><ele>483.0</ele><time>2026-05-03T10:43:23.495Z</time></trkpt><trkpt lat="43.3065619" lon="12.7586946"><ele>483.0</ele><time>2026-05-03T10:43:24.498Z</time></trkpt><trkpt lat="43.3063071" lon="12.758705"><ele>480.5</ele><time>2026-05-03T10:43:25.497Z</time></trkpt><trkpt lat="43.3060476" lon="12.7587104"><ele>478.0</ele><time>2026-05-03T10:43:26.496Z</time></trkpt><trkpt lat="43.3057872" lon="12.758722"><ele>476.0</ele><time>2026-05-03T10:43:27.498Z</time></trkpt><trkpt lat="43.3055317" lon="12.7587363"><ele>474.0</ele><time>2026-05-03T10:43:28.492Z</time></trkpt><trkpt lat="43.3052729" lon="12.7587524"><ele>474.0</ele><time>2026-05-03T10:43:29.497Z</time></trkpt><trkpt lat="43.3050181" lon="12.7587634"><ele>474.0</ele><time>2026-05-03T10:43:30.497Z</time></trkpt><trkpt lat="43.3047506" lon="12.758779"><ele>473.5</ele><time>2026-05-03T10:43:31.497Z</time></trkpt><trkpt lat="43.3045058" lon="12.7587985"><ele>473.0</ele><time>2026-05-03T10:43:32.5Z</time></trkpt><trkpt lat="43.3042588" lon="12.7588152"><ele>472.0</ele><time>2026-05-03T10:43:33.496Z</time></trkpt><trkpt lat="43.3037428" lon="12.7588349"><ele>472.0</ele><time>2026-05-03T10:43:35.499Z</time></trkpt><trkpt lat="43.3035188" lon="12.7588121"><ele>472.0</ele><time>2026-05-03T10:43:36.497Z</time></trkpt><trkpt lat="43.3032878" lon="12.7587588"><ele>473.0</ele><time>2026-05-03T10:43:37.497Z</time></trkpt><trkpt lat="43.3030552" lon="12.7587175"><ele>474.0</ele><time>2026-05-03T10:43:38.498Z</time></trkpt><trkpt lat="43.3028514" lon="12.7586237"><ele>475.0</ele><time>2026-05-03T10:43:39.5Z</time></trkpt><trkpt lat="43.302709" lon="12.7585882"><ele>474.5</ele><time>2026-05-03T10:43:40.5Z</time></trkpt><trkpt lat="43.3025533" lon="12.7585327"><ele>474.0</ele><time>2026-05-03T10:43:41.528Z</time></trkpt><trkpt lat="43.3024136" lon="12.7584969"><ele>473.5</ele><time>2026-05-03T10:43:42.497Z</time></trkpt><trkpt lat="43.3022789" lon="12.7584574"><ele>473.0</ele><time>2026-05-03T10:43:43.498Z</time></trkpt><trkpt lat="43.3021781" lon="12.7583671"><ele>473.0</ele><time>2026-05-03T10:43:44.498Z</time></trkpt><trkpt lat="43.3020582" lon="12.7582913"><ele>473.0</ele><time>2026-05-03T10:43:45.499Z</time></trkpt><trkpt lat="43.3019306" lon="12.7582144"><ele>473.0</ele><time>2026-05-03T10:43:46.497Z</time></trkpt><trkpt lat="43.3017788" lon="12.758129"><ele>473.0</ele><time>2026-05-03T10:43:47.5Z</time></trkpt><trkpt lat="43.3016214" lon="12.7580349"><ele>473.0</ele><time>2026-05-03T10:43:48.497Z</time></trkpt><trkpt lat="43.3014538" lon="12.7579365"><ele>473.0</ele><time>2026-05-03T10:43:49.498Z</time></trkpt><trkpt lat="43.301279" lon="12.7578351"><ele>473.0</ele><time>2026-05-03T10:43:50.498Z</time></trkpt><trkpt lat="43.3010973" lon="12.7577342"><ele>471.0</ele><time>2026-05-03T10:43:51.496Z</time></trkpt><trkpt lat="43.3009157" lon="12.7576208"><ele>469.0</ele><time>2026-05-03T10:43:52.497Z</time></trkpt><trkpt lat="43.3007311" lon="12.7575053"><ele>467.0</ele><time>2026-05-03T10:43:53.496Z</time></trkpt><trkpt lat="43.3005617" lon="12.7573973"><ele>464.66666666666663</ele><time>2026-05-03T10:43:54.497Z</time></trkpt><trkpt lat="43.3004131" lon="12.7572825"><ele>462.33333333333337</ele><time>2026-05-03T10:43:55.499Z</time></trkpt><trkpt lat="43.3002426" lon="12.7571806"><ele>460.0</ele><time>2026-05-03T10:43:56.499Z</time></trkpt><trkpt lat="43.3001123" lon="12.7570733"><ele>460.0</ele><time>2026-05-03T10:43:57.495Z</time></trkpt><trkpt lat="43.3000267" lon="12.756935"><ele>460.0</ele><time>2026-05-03T10:43:58.498Z</time></trkpt><trkpt lat="43.299957" lon="12.7568363"><ele>460.0</ele><time>2026-05-03T10:43:59.497Z</time></trkpt><trkpt lat="43.2998656" lon="12.7567575"><ele>460.0</ele><time>2026-05-03T10:44:00.496Z</time></trkpt><trkpt lat="43.2997724" lon="12.7567395"><ele>460.0</ele><time>2026-05-03T10:44:01.495Z</time></trkpt><trkpt lat="43.2996524" lon="12.7567424"><ele>458.5</ele><time>2026-05-03T10:44:02.5Z</time></trkpt><trkpt lat="43.2995243" lon="12.7566997"><ele>457.0</ele><time>2026-05-03T10:44:03.498Z</time></trkpt><trkpt lat="43.2994046" lon="12.7566305"><ele>455.5</ele><time>2026-05-03T10:44:04.495Z</time></trkpt><trkpt lat="43.2992685" lon="12.7565452"><ele>454.0</ele><time>2026-05-03T10:44:05.492Z</time></trkpt><trkpt lat="43.2991283" lon="12.7564554"><ele>454.0</ele><time>2026-05-03T10:44:06.494Z</time></trkpt><trkpt lat="43.2989837" lon="12.7563604"><ele>454.0</ele><time>2026-05-03T10:44:07.494Z</time></trkpt><trkpt lat="43.2988376" lon="12.7562651"><ele>454.0</ele><time>2026-05-03T10:44:08.497Z</time></trkpt><trkpt lat="43.2986657" lon="12.75616"><ele>452.33333333333337</ele><time>2026-05-03T10:44:09.495Z</time></trkpt><trkpt lat="43.2985075" lon="12.7560317"><ele>450.66666666666663</ele><time>2026-05-03T10:44:10.496Z</time></trkpt><trkpt lat="43.2983469" lon="12.7559086"><ele>449.0</ele><time>2026-05-03T10:44:11.493Z</time></trkpt><trkpt lat="43.2981701" lon="12.7557722"><ele>448.3333333333333</ele><time>2026-05-03T10:44:12.499Z</time></trkpt><trkpt lat="43.2980503" lon="12.7555533"><ele>447.66666666666663</ele><time>2026-05-03T10:44:13.496Z</time></trkpt><trkpt lat="43.2979069" lon="12.7553648"><ele>447.0</ele><time>2026-05-03T10:44:14.497Z</time></trkpt><trkpt lat="43.2977828" lon="12.7551569"><ele>446.66666666666663</ele><time>2026-05-03T10:44:15.497Z</time></trkpt><trkpt lat="43.2976413" lon="12.7549519"><ele>446.3333333333333</ele><time>2026-05-03T10:44:16.497Z</time></trkpt><trkpt lat="43.2974842" lon="12.7547552"><ele>446.0</ele><time>2026-05-03T10:44:17.496Z</time></trkpt><trkpt lat="43.2973275" lon="12.7545523"><ele>445.3333333333333</ele><time>2026-05-03T10:44:18.496Z</time></trkpt><trkpt lat="43.2971801" lon="12.7543556"><ele>444.66666666666663</ele><time>2026-05-03T10:44:19.496Z</time></trkpt><trkpt lat="43.2970243" lon="12.7541382"><ele>444.0</ele><time>2026-05-03T10:44:20.498Z</time></trkpt><trkpt lat="43.2968905" lon="12.7539326"><ele>444.0</ele><time>2026-05-03T10:44:21.498Z</time></trkpt><trkpt lat="43.2967727" lon="12.7536634"><ele>444.0</ele><time>2026-05-03T10:44:22.5Z</time></trkpt><trkpt lat="43.2966366" lon="12.7534126"><ele>444.0</ele><time>2026-05-03T10:44:23.495Z</time></trkpt><trkpt lat="43.2965004" lon="12.7531667"><ele>444.0</ele><time>2026-05-03T10:44:24.496Z</time></trkpt><trkpt lat="43.2963638" lon="12.7529195"><ele>443.66666666666663</ele><time>2026-05-03T10:44:25.496Z</time></trkpt><trkpt lat="43.2962232" lon="12.7526891"><ele>443.3333333333333</ele><time>2026-05-03T10:44:26.497Z</time></trkpt><trkpt lat="43.2960792" lon="12.7524735"><ele>443.0</ele><time>2026-05-03T10:44:27.499Z</time></trkpt><trkpt lat="43.2959355" lon="12.7522736"><ele>443.0</ele><time>2026-05-03T10:44:28.499Z</time></trkpt><trkpt lat="43.2957932" lon="12.7520923"><ele>443.0</ele><time>2026-05-03T10:44:29.5Z</time></trkpt><trkpt lat="43.2956602" lon="12.7519035"><ele>443.0</ele><time>2026-05-03T10:44:30.498Z</time></trkpt><trkpt lat="43.2955052" lon="12.7517651"><ele>444.0</ele><time>2026-05-03T10:44:31.496Z</time></trkpt><trkpt lat="43.2953674" lon="12.7515934"><ele>445.0</ele><time>2026-05-03T10:44:32.499Z</time></trkpt><trkpt lat="43.2952659" lon="12.7513716"><ele>446.0</ele><time>2026-05-03T10:44:33.496Z</time></trkpt><trkpt lat="43.2951458" lon="12.7511717"><ele>443.66666666666663</ele><time>2026-05-03T10:44:34.497Z</time></trkpt><trkpt lat="43.2950112" lon="12.7509762"><ele>441.33333333333337</ele><time>2026-05-03T10:44:35.496Z</time></trkpt><trkpt lat="43.2948736" lon="12.7507846"><ele>439.0</ele><time>2026-05-03T10:44:36.496Z</time></trkpt><trkpt lat="43.2947242" lon="12.7506142"><ele>439.0</ele><time>2026-05-03T10:44:37.498Z</time></trkpt><trkpt lat="43.2945707" lon="12.7504624"><ele>439.0</ele><time>2026-05-03T10:44:38.498Z</time></trkpt><trkpt lat="43.294423" lon="12.7503205"><ele>439.0</ele><time>2026-05-03T10:44:39.497Z</time></trkpt><trkpt lat="43.2942657" lon="12.7501877"><ele>437.0</ele><time>2026-05-03T10:44:40.495Z</time></trkpt><trkpt lat="43.2941168" lon="12.7501626"><ele>435.0</ele><time>2026-05-03T10:44:41.495Z</time></trkpt><trkpt lat="43.2939743" lon="12.7501595"><ele>433.0</ele><time>2026-05-03T10:44:42.496Z</time></trkpt><trkpt lat="43.2938196" lon="12.7501842"><ele>431.0</ele><time>2026-05-03T10:44:43.497Z</time></trkpt><trkpt lat="43.2936658" lon="12.7502179"><ele>431.0</ele><time>2026-05-03T10:44:44.496Z</time></trkpt><trkpt lat="43.2935176" lon="12.7502658"><ele>431.0</ele><time>2026-05-03T10:44:45.496Z</time></trkpt><trkpt lat="43.2933762" lon="12.7502987"><ele>431.0</ele><time>2026-05-03T10:44:46.495Z</time></trkpt><trkpt lat="43.2932375" lon="12.7503468"><ele>431.0</ele><time>2026-05-03T10:44:47.494Z</time></trkpt><trkpt lat="43.2930935" lon="12.7503885"><ele>430.3333333333333</ele><time>2026-05-03T10:44:48.494Z</time></trkpt><trkpt lat="43.2929424" lon="12.7504137"><ele>429.66666666666663</ele><time>2026-05-03T10:44:49.497Z</time></trkpt><trkpt lat="43.2927914" lon="12.7504068"><ele>429.0</ele><time>2026-05-03T10:44:50.495Z</time></trkpt><trkpt lat="43.2926419" lon="12.7503668"><ele>429.0</ele><time>2026-05-03T10:44:51.501Z</time></trkpt><trkpt lat="43.2925008" lon="12.7503035"><ele>429.0</ele><time>2026-05-03T10:44:52.497Z</time></trkpt><trkpt lat="43.2923533" lon="12.7502376"><ele>429.0</ele><time>2026-05-03T10:44:53.497Z</time></trkpt><trkpt lat="43.2922087" lon="12.7501792"><ele>427.5</ele><time>2026-05-03T10:44:54.5Z</time></trkpt><trkpt lat="43.2920675" lon="12.7501268"><ele>426.0</ele><time>2026-05-03T10:44:55.497Z</time></trkpt><trkpt lat="43.2919533" lon="12.7500898"><ele>424.5</ele><time>2026-05-03T10:44:56.502Z</time></trkpt><trkpt lat="43.2918099" lon="12.7500388"><ele>423.0</ele><time>2026-05-03T10:44:57.496Z</time></trkpt><trkpt lat="43.291729" lon="12.7500202"><ele>423.0</ele><time>2026-05-03T10:44:58.498Z</time></trkpt><trkpt lat="43.2916331" lon="12.7499924"><ele>423.0</ele><time>2026-05-03T10:44:59.499Z</time></trkpt><trkpt lat="43.29155" lon="12.7499816"><ele>423.0</ele><time>2026-05-03T10:45:00.497Z</time></trkpt><trkpt lat="43.2914804" lon="12.7499693"><ele>423.0</ele><time>2026-05-03T10:45:01.496Z</time></trkpt><trkpt lat="43.2913772" lon="12.7499571"><ele>423.0</ele><time>2026-05-03T10:45:03.495Z</time></trkpt><trkpt lat="43.291308" lon="12.7499453"><ele>423.0</ele><time>2026-05-03T10:45:06.524Z</time></trkpt><trkpt lat="43.2912421" lon="12.7499858"><ele>423.0</ele><time>2026-05-03T10:45:36.5Z</time></trkpt><trkpt lat="43.2911768" lon="12.7499672"><ele>423.0</ele><time>2026-05-03T10:45:37.496Z</time></trkpt><trkpt lat="43.2911169" lon="12.7499138"><ele>423.0</ele><time>2026-05-03T10:45:38.507Z</time></trkpt><trkpt lat="43.2910667" lon="12.7498067"><ele>423.0</ele><time>2026-05-03T10:45:39.496Z</time></trkpt><trkpt lat="43.2910291" lon="12.7496893"><ele>423.0</ele><time>2026-05-03T10:45:40.495Z</time></trkpt><trkpt lat="43.2910211" lon="12.749535"><ele>423.0</ele><time>2026-05-03T10:45:41.496Z</time></trkpt><trkpt lat="43.2910124" lon="12.7493764"><ele>423.25</ele><time>2026-05-03T10:45:42.494Z</time></trkpt><trkpt lat="43.291002" lon="12.7491947"><ele>423.5</ele><time>2026-05-03T10:45:43.5Z</time></trkpt><trkpt lat="43.2909943" lon="12.749017"><ele>423.75</ele><time>2026-05-03T10:45:44.501Z</time></trkpt><trkpt lat="43.2909924" lon="12.7488453"><ele>424.0</ele><time>2026-05-03T10:45:45.496Z</time></trkpt><trkpt lat="43.2909741" lon="12.7486927"><ele>424.0</ele><time>2026-05-03T10:45:46.497Z</time></trkpt><trkpt lat="43.2909595" lon="12.7485348"><ele>424.0</ele><time>2026-05-03T10:45:47.496Z</time></trkpt><trkpt lat="43.2909482" lon="12.7483706"><ele>424.0</ele><time>2026-05-03T10:45:48.495Z</time></trkpt><trkpt lat="43.2909329" lon="12.7481975"><ele>424.0</ele><time>2026-05-03T10:45:49.495Z</time></trkpt><trkpt lat="43.2909199" lon="12.7480088"><ele>424.0</ele><time>2026-05-03T10:45:50.5Z</time></trkpt><trkpt lat="43.2909112" lon="12.7478083"><ele>424.0</ele><time>2026-05-03T10:45:51.499Z</time></trkpt><trkpt lat="43.2908998" lon="12.7475959"><ele>424.0</ele><time>2026-05-03T10:45:52.496Z</time></trkpt><trkpt lat="43.2908832" lon="12.7473851"><ele>423.25</ele><time>2026-05-03T10:45:53.495Z</time></trkpt><trkpt lat="43.290871" lon="12.7471779"><ele>422.5</ele><time>2026-05-03T10:45:54.497Z</time></trkpt><trkpt lat="43.2908562" lon="12.7469723"><ele>421.75</ele><time>2026-05-03T10:45:55.495Z</time></trkpt><trkpt lat="43.2908431" lon="12.7467779"><ele>421.0</ele><time>2026-05-03T10:45:56.495Z</time></trkpt><trkpt lat="43.2908247" lon="12.7465749"><ele>421.0</ele><time>2026-05-03T10:45:57.498Z</time></trkpt><trkpt lat="43.2908069" lon="12.7463713"><ele>421.0</ele><time>2026-05-03T10:45:58.497Z</time></trkpt><trkpt lat="43.2907827" lon="12.7461579"><ele>421.0</ele><time>2026-05-03T10:45:59.496Z</time></trkpt><trkpt lat="43.2907628" lon="12.7459419"><ele>420.6666666666667</ele><time>2026-05-03T10:46:00.497Z</time></trkpt><trkpt lat="43.290724" lon="12.745711"><ele>420.33333333333337</ele><time>2026-05-03T10:46:01.498Z</time></trkpt><trkpt lat="43.2906686" lon="12.7454879"><ele>420.0</ele><time>2026-05-03T10:46:02.498Z</time></trkpt><trkpt lat="43.2906068" lon="12.7452503"><ele>419.0</ele><time>2026-05-03T10:46:03.497Z</time></trkpt><trkpt lat="43.2905395" lon="12.7450157"><ele>418.0</ele><time>2026-05-03T10:46:04.495Z</time></trkpt><trkpt lat="43.2904696" lon="12.7447824"><ele>417.0</ele><time>2026-05-03T10:46:05.497Z</time></trkpt><trkpt lat="43.2903926" lon="12.7445474"><ele>416.0</ele><time>2026-05-03T10:46:06.496Z</time></trkpt><trkpt lat="43.2903251" lon="12.7443152"><ele>415.0</ele><time>2026-05-03T10:46:07.494Z</time></trkpt><trkpt lat="43.2902542" lon="12.7440717"><ele>414.0</ele><time>2026-05-03T10:46:08.498Z</time></trkpt><trkpt lat="43.2901759" lon="12.7438253"><ele>414.0</ele><time>2026-05-03T10:46:09.493Z</time></trkpt><trkpt lat="43.2900975" lon="12.7435902"><ele>414.0</ele><time>2026-05-03T10:46:10.524Z</time></trkpt><trkpt lat="43.2900165" lon="12.7433505"><ele>414.0</ele><time>2026-05-03T10:46:11.497Z</time></trkpt><trkpt lat="43.2899376" lon="12.7431229"><ele>414.0</ele><time>2026-05-03T10:46:12.496Z</time></trkpt><trkpt lat="43.289863" lon="12.7429058"><ele>414.0</ele><time>2026-05-03T10:46:13.497Z</time></trkpt><trkpt lat="43.2897871" lon="12.7426927"><ele>414.0</ele><time>2026-05-03T10:46:14.497Z</time></trkpt><trkpt lat="43.2897161" lon="12.7424898"><ele>413.33333333333337</ele><time>2026-05-03T10:46:15.498Z</time></trkpt><trkpt lat="43.2896445" lon="12.7422892"><ele>412.6666666666667</ele><time>2026-05-03T10:46:16.497Z</time></trkpt><trkpt lat="43.289577" lon="12.7421048"><ele>412.0</ele><time>2026-05-03T10:46:17.497Z</time></trkpt><trkpt lat="43.2895112" lon="12.7419196"><ele>411.5</ele><time>2026-05-03T10:46:18.497Z</time></trkpt><trkpt lat="43.2894456" lon="12.7417464"><ele>411.0</ele><time>2026-05-03T10:46:19.503Z</time></trkpt><trkpt lat="43.2893827" lon="12.7415792"><ele>410.5</ele><time>2026-05-03T10:46:20.495Z</time></trkpt><trkpt lat="43.289331" lon="12.7414231"><ele>410.0</ele><time>2026-05-03T10:46:21.499Z</time></trkpt><trkpt lat="43.2892844" lon="12.7412764"><ele>410.0</ele><time>2026-05-03T10:46:22.498Z</time></trkpt><trkpt lat="43.2892643" lon="12.741128"><ele>410.0</ele><time>2026-05-03T10:46:23.497Z</time></trkpt><trkpt lat="43.2892711" lon="12.7409648"><ele>410.0</ele><time>2026-05-03T10:46:24.495Z</time></trkpt><trkpt lat="43.2892821" lon="12.7407826"><ele>410.0</ele><time>2026-05-03T10:46:25.495Z</time></trkpt><trkpt lat="43.2892768" lon="12.7406066"><ele>409.5</ele><time>2026-05-03T10:46:26.497Z</time></trkpt><trkpt lat="43.289247" lon="12.7404501"><ele>409.0</ele><time>2026-05-03T10:46:27.497Z</time></trkpt><trkpt lat="43.289215" lon="12.7402993"><ele>408.5</ele><time>2026-05-03T10:46:28.496Z</time></trkpt><trkpt lat="43.289149" lon="12.7401942"><ele>408.0</ele><time>2026-05-03T10:46:29.496Z</time></trkpt><trkpt lat="43.2890191" lon="12.7401523"><ele>407.25</ele><time>2026-05-03T10:46:30.495Z</time></trkpt><trkpt lat="43.2888938" lon="12.7401547"><ele>406.5</ele><time>2026-05-03T10:46:31.497Z</time></trkpt><trkpt lat="43.2887892" lon="12.7401955"><ele>405.75</ele><time>2026-05-03T10:46:32.496Z</time></trkpt><trkpt lat="43.2886948" lon="12.7402847"><ele>405.0</ele><time>2026-05-03T10:46:33.496Z</time></trkpt><trkpt lat="43.288619" lon="12.7403995"><ele>405.0</ele><time>2026-05-03T10:46:34.495Z</time></trkpt><trkpt lat="43.2885609" lon="12.7405345"><ele>405.0</ele><time>2026-05-03T10:46:35.499Z</time></trkpt><trkpt lat="43.2885382" lon="12.7407272"><ele>405.0</ele><time>2026-05-03T10:46:36.499Z</time></trkpt><trkpt lat="43.2884703" lon="12.7408942"><ele>405.0</ele><time>2026-05-03T10:46:37.497Z</time></trkpt><trkpt lat="43.2883911" lon="12.7410568"><ele>405.33333333333337</ele><time>2026-05-03T10:46:38.499Z</time></trkpt><trkpt lat="43.2882749" lon="12.7412462"><ele>405.6666666666667</ele><time>2026-05-03T10:46:39.497Z</time></trkpt><trkpt lat="43.2881496" lon="12.7414386"><ele>406.0</ele><time>2026-05-03T10:46:40.499Z</time></trkpt><trkpt lat="43.2880169" lon="12.7416354"><ele>406.0</ele><time>2026-05-03T10:46:41.495Z</time></trkpt><trkpt lat="43.287872" lon="12.7418392"><ele>406.0</ele><time>2026-05-03T10:46:42.499Z</time></trkpt><trkpt lat="43.2877454" lon="12.7420317"><ele>406.0</ele><time>2026-05-03T10:46:43.495Z</time></trkpt><trkpt lat="43.2876176" lon="12.7422385"><ele>405.75</ele><time>2026-05-03T10:46:44.499Z</time></trkpt><trkpt lat="43.2875501" lon="12.7423673"><ele>405.5</ele><time>2026-05-03T10:46:45.496Z</time></trkpt><trkpt lat="43.2874855" lon="12.7425349"><ele>405.25</ele><time>2026-05-03T10:46:46.496Z</time></trkpt><trkpt lat="43.2874212" lon="12.7426888"><ele>405.0</ele><time>2026-05-03T10:46:47.495Z</time></trkpt><trkpt lat="43.2873504" lon="12.7428482"><ele>405.2</ele><time>2026-05-03T10:46:48.496Z</time></trkpt><trkpt lat="43.2872687" lon="12.7430062"><ele>405.4</ele><time>2026-05-03T10:46:49.497Z</time></trkpt><trkpt lat="43.2872011" lon="12.7431275"><ele>405.6</ele><time>2026-05-03T10:46:50.496Z</time></trkpt><trkpt lat="43.2871417" lon="12.7432196"><ele>405.8</ele><time>2026-05-03T10:46:51.497Z</time></trkpt><trkpt lat="43.2870816" lon="12.743319"><ele>406.0</ele><time>2026-05-03T10:46:52.495Z</time></trkpt><trkpt lat="43.286988" lon="12.7434719"><ele>406.0</ele><time>2026-05-03T10:46:53.496Z</time></trkpt><trkpt lat="43.2868692" lon="12.7436388"><ele>406.0</ele><time>2026-05-03T10:46:54.5Z</time></trkpt><trkpt lat="43.2867636" lon="12.7438248"><ele>406.0</ele><time>2026-05-03T10:46:55.496Z</time></trkpt><trkpt lat="43.286618" lon="12.7440252"><ele>406.0</ele><time>2026-05-03T10:46:56.496Z</time></trkpt><trkpt lat="43.2864881" lon="12.7442295"><ele>406.0</ele><time>2026-05-03T10:46:57.496Z</time></trkpt><trkpt lat="43.2863616" lon="12.7444243"><ele>406.0</ele><time>2026-05-03T10:46:58.493Z</time></trkpt><trkpt lat="43.2861868" lon="12.74466"><ele>406.0</ele><time>2026-05-03T10:46:59.497Z</time></trkpt><trkpt lat="43.2860548" lon="12.7448892"><ele>406.0</ele><time>2026-05-03T10:47:00.495Z</time></trkpt><trkpt lat="43.2858969" lon="12.7451224"><ele>406.0</ele><time>2026-05-03T10:47:01.496Z</time></trkpt><trkpt lat="43.2857372" lon="12.7453527"><ele>406.0</ele><time>2026-05-03T10:47:02.495Z</time></trkpt><trkpt lat="43.2855785" lon="12.7455862"><ele>406.0</ele><time>2026-05-03T10:47:03.497Z</time></trkpt><trkpt lat="43.2854118" lon="12.745819"><ele>407.0</ele><time>2026-05-03T10:47:04.495Z</time></trkpt><trkpt lat="43.2852541" lon="12.7460555"><ele>408.0</ele><time>2026-05-03T10:47:05.498Z</time></trkpt><trkpt lat="43.2850928" lon="12.7462908"><ele>408.0</ele><time>2026-05-03T10:47:06.495Z</time></trkpt><trkpt lat="43.2849309" lon="12.746517"><ele>408.0</ele><time>2026-05-03T10:47:07.495Z</time></trkpt><trkpt lat="43.2847829" lon="12.7467443"><ele>407.33333333333337</ele><time>2026-05-03T10:47:08.496Z</time></trkpt><trkpt lat="43.2846315" lon="12.7469577"><ele>406.6666666666667</ele><time>2026-05-03T10:47:09.496Z</time></trkpt><trkpt lat="43.2844728" lon="12.7471744"><ele>406.0</ele><time>2026-05-03T10:47:10.495Z</time></trkpt><trkpt lat="43.2843054" lon="12.7473997"><ele>406.0</ele><time>2026-05-03T10:47:11.495Z</time></trkpt><trkpt lat="43.2841322" lon="12.7476191"><ele>406.0</ele><time>2026-05-03T10:47:12.5Z</time></trkpt><trkpt lat="43.2839504" lon="12.7478466"><ele>406.5</ele><time>2026-05-03T10:47:13.495Z</time></trkpt><trkpt lat="43.2837635" lon="12.7480701"><ele>407.0</ele><time>2026-05-03T10:47:14.494Z</time></trkpt><trkpt lat="43.2835722" lon="12.7482816"><ele>407.0</ele><time>2026-05-03T10:47:15.496Z</time></trkpt><trkpt lat="43.2833909" lon="12.7485048"><ele>407.0</ele><time>2026-05-03T10:47:16.496Z</time></trkpt><trkpt lat="43.2831987" lon="12.748711"><ele>408.0</ele><time>2026-05-03T10:47:17.495Z</time></trkpt><trkpt lat="43.2830087" lon="12.7488995"><ele>409.0</ele><time>2026-05-03T10:47:18.495Z</time></trkpt><trkpt lat="43.2828131" lon="12.7491049"><ele>409.0</ele><time>2026-05-03T10:47:19.494Z</time></trkpt><trkpt lat="43.2826182" lon="12.7493084"><ele>409.0</ele><time>2026-05-03T10:47:20.498Z</time></trkpt><trkpt lat="43.2823771" lon="12.7495224"><ele>408.0</ele><time>2026-05-03T10:47:21.501Z</time></trkpt><trkpt lat="43.2821401" lon="12.7497317"><ele>407.0</ele><time>2026-05-03T10:47:22.501Z</time></trkpt><trkpt lat="43.2818928" lon="12.7499294"><ele>407.0</ele><time>2026-05-03T10:47:23.492Z</time></trkpt><trkpt lat="43.2816525" lon="12.7501294"><ele>407.0</ele><time>2026-05-03T10:47:24.524Z</time></trkpt><trkpt lat="43.2814193" lon="12.7503182"><ele>406.5</ele><time>2026-05-03T10:47:25.496Z</time></trkpt><trkpt lat="43.281172" lon="12.7504999"><ele>406.0</ele><time>2026-05-03T10:47:26.5Z</time></trkpt><trkpt lat="43.2809248" lon="12.7506635"><ele>406.0</ele><time>2026-05-03T10:47:27.495Z</time></trkpt><trkpt lat="43.2806887" lon="12.7508336"><ele>406.0</ele><time>2026-05-03T10:47:28.496Z</time></trkpt><trkpt lat="43.2804313" lon="12.7509759"><ele>404.5</ele><time>2026-05-03T10:47:29.496Z</time></trkpt><trkpt lat="43.2801863" lon="12.7511239"><ele>403.0</ele><time>2026-05-03T10:47:30.496Z</time></trkpt><trkpt lat="43.2799466" lon="12.7512563"><ele>402.0</ele><time>2026-05-03T10:47:31.496Z</time></trkpt><trkpt lat="43.2797108" lon="12.7513782"><ele>401.0</ele><time>2026-05-03T10:47:32.496Z</time></trkpt><trkpt lat="43.2794654" lon="12.7514937"><ele>401.0</ele><time>2026-05-03T10:47:33.496Z</time></trkpt><trkpt lat="43.2792192" lon="12.7516069"><ele>401.0</ele><time>2026-05-03T10:47:34.496Z</time></trkpt><trkpt lat="43.2789691" lon="12.751711"><ele>400.0</ele><time>2026-05-03T10:47:35.496Z</time></trkpt><trkpt lat="43.27872" lon="12.751815"><ele>399.0</ele><time>2026-05-03T10:47:36.496Z</time></trkpt><trkpt lat="43.2784769" lon="12.7519098"><ele>401.5</ele><time>2026-05-03T10:47:37.495Z</time></trkpt><trkpt lat="43.2782368" lon="12.7520026"><ele>404.0</ele><time>2026-05-03T10:47:38.5Z</time></trkpt><trkpt lat="43.2779726" lon="12.7520844"><ele>404.0</ele><time>2026-05-03T10:47:39.491Z</time></trkpt><trkpt lat="43.2777139" lon="12.7521495"><ele>404.0</ele><time>2026-05-03T10:47:40.53Z</time></trkpt><trkpt lat="43.2774583" lon="12.7522264"><ele>403.5</ele><time>2026-05-03T10:47:41.49Z</time></trkpt><trkpt lat="43.2772057" lon="12.7523095"><ele>403.0</ele><time>2026-05-03T10:47:42.496Z</time></trkpt><trkpt lat="43.2769337" lon="12.7523452"><ele>403.0</ele><time>2026-05-03T10:47:43.496Z</time></trkpt><trkpt lat="43.2766738" lon="12.752409"><ele>403.0</ele><time>2026-05-03T10:47:44.497Z</time></trkpt><trkpt lat="43.2763968" lon="12.7524446"><ele>403.0</ele><time>2026-05-03T10:47:45.497Z</time></trkpt><trkpt lat="43.2761393" lon="12.7524725"><ele>403.0</ele><time>2026-05-03T10:47:46.496Z</time></trkpt><trkpt lat="43.2758807" lon="12.7525139"><ele>403.0</ele><time>2026-05-03T10:47:47.495Z</time></trkpt><trkpt lat="43.2756144" lon="12.7525402"><ele>403.0</ele><time>2026-05-03T10:47:48.498Z</time></trkpt><trkpt lat="43.2753503" lon="12.7525616"><ele>403.0</ele><time>2026-05-03T10:47:49.497Z</time></trkpt><trkpt lat="43.275084" lon="12.7525808"><ele>403.0</ele><time>2026-05-03T10:47:50.502Z</time></trkpt><trkpt lat="43.2748565" lon="12.7526074"><ele>402.5</ele><time>2026-05-03T10:47:51.496Z</time></trkpt><trkpt lat="43.2746028" lon="12.7526385"><ele>402.0</ele><time>2026-05-03T10:47:52.498Z</time></trkpt><trkpt lat="43.2743513" lon="12.7526664"><ele>402.0</ele><time>2026-05-03T10:47:53.496Z</time></trkpt><trkpt lat="43.2741048" lon="12.752695"><ele>402.0</ele><time>2026-05-03T10:47:54.498Z</time></trkpt><trkpt lat="43.2738565" lon="12.7527208"><ele>403.0</ele><time>2026-05-03T10:47:55.498Z</time></trkpt><trkpt lat="43.2736016" lon="12.7527504"><ele>404.0</ele><time>2026-05-03T10:47:56.496Z</time></trkpt><trkpt lat="43.2733464" lon="12.7527852"><ele>402.5</ele><time>2026-05-03T10:47:57.497Z</time></trkpt><trkpt lat="43.2730935" lon="12.7528176"><ele>401.0</ele><time>2026-05-03T10:47:58.498Z</time></trkpt><trkpt lat="43.2728422" lon="12.7528435"><ele>401.0</ele><time>2026-05-03T10:47:59.496Z</time></trkpt><trkpt lat="43.2725894" lon="12.7528699"><ele>401.0</ele><time>2026-05-03T10:48:00.493Z</time></trkpt><trkpt lat="43.27234" lon="12.7529021"><ele>402.0</ele><time>2026-05-03T10:48:01.523Z</time></trkpt><trkpt lat="43.2720909" lon="12.7529284"><ele>403.0</ele><time>2026-05-03T10:48:02.498Z</time></trkpt><trkpt lat="43.2718374" lon="12.7529597"><ele>403.0</ele><time>2026-05-03T10:48:03.495Z</time></trkpt><trkpt lat="43.2715854" lon="12.7529899"><ele>403.0</ele><time>2026-05-03T10:48:04.496Z</time></trkpt><trkpt lat="43.2713356" lon="12.7530155"><ele>401.5</ele><time>2026-05-03T10:48:05.497Z</time></trkpt><trkpt lat="43.271088" lon="12.7530435"><ele>400.0</ele><time>2026-05-03T10:48:06.497Z</time></trkpt><trkpt lat="43.2708417" lon="12.7530684"><ele>400.0</ele><time>2026-05-03T10:48:07.496Z</time></trkpt><trkpt lat="43.2703472" lon="12.753126"><ele>400.0</ele><time>2026-05-03T10:48:09.496Z</time></trkpt><trkpt lat="43.2701075" lon="12.7531568"><ele>400.0</ele><time>2026-05-03T10:48:10.497Z</time></trkpt><trkpt lat="43.2698592" lon="12.7531822"><ele>401.5</ele><time>2026-05-03T10:48:11.496Z</time></trkpt><trkpt lat="43.2696178" lon="12.7531977"><ele>403.0</ele><time>2026-05-03T10:48:12.5Z</time></trkpt><trkpt lat="43.2693682" lon="12.7532205"><ele>405.0</ele><time>2026-05-03T10:48:13.645Z</time></trkpt><trkpt lat="43.2688679" lon="12.7532769"><ele>405.0</ele><time>2026-05-03T10:48:15.499Z</time></trkpt><trkpt lat="43.2686061" lon="12.7533047"><ele>405.0</ele><time>2026-05-03T10:48:16.494Z</time></trkpt><trkpt lat="43.2683518" lon="12.7533337"><ele>405.5</ele><time>2026-05-03T10:48:17.497Z</time></trkpt><trkpt lat="43.2680943" lon="12.7533562"><ele>406.0</ele><time>2026-05-03T10:48:18.5Z</time></trkpt><trkpt lat="43.2678392" lon="12.7533908"><ele>406.0</ele><time>2026-05-03T10:48:19.496Z</time></trkpt><trkpt lat="43.2675818" lon="12.7534177"><ele>406.0</ele><time>2026-05-03T10:48:20.497Z</time></trkpt><trkpt lat="43.267327" lon="12.7534386"><ele>406.0</ele><time>2026-05-03T10:48:21.496Z</time></trkpt><trkpt lat="43.2670776" lon="12.7534641"><ele>406.0</ele><time>2026-05-03T10:48:22.498Z</time></trkpt><trkpt lat="43.2668221" lon="12.7534888"><ele>406.0</ele><time>2026-05-03T10:48:23.497Z</time></trkpt><trkpt lat="43.2665589" lon="12.7535144"><ele>406.0</ele><time>2026-05-03T10:48:24.496Z</time></trkpt><trkpt lat="43.2663036" lon="12.7535188"><ele>407.0</ele><time>2026-05-03T10:48:25.496Z</time></trkpt><trkpt lat="43.2660394" lon="12.7535221"><ele>408.0</ele><time>2026-05-03T10:48:26.501Z</time></trkpt><trkpt lat="43.2657736" lon="12.7535318"><ele>409.0</ele><time>2026-05-03T10:48:27.495Z</time></trkpt><trkpt lat="43.2655138" lon="12.7535361"><ele>410.0</ele><time>2026-05-03T10:48:28.497Z</time></trkpt><trkpt lat="43.2652503" lon="12.7535405"><ele>410.0</ele><time>2026-05-03T10:48:29.497Z</time></trkpt><trkpt lat="43.264991" lon="12.7535307"><ele>410.0</ele><time>2026-05-03T10:48:30.497Z</time></trkpt><trkpt lat="43.2647328" lon="12.753537"><ele>409.0</ele><time>2026-05-03T10:48:31.497Z</time></trkpt><trkpt lat="43.2644731" lon="12.7535295"><ele>408.0</ele><time>2026-05-03T10:48:32.496Z</time></trkpt><trkpt lat="43.2642136" lon="12.7535354"><ele>408.0</ele><time>2026-05-03T10:48:33.5Z</time></trkpt><trkpt lat="43.2639564" lon="12.7535291"><ele>408.0</ele><time>2026-05-03T10:48:34.497Z</time></trkpt><trkpt lat="43.2637079" lon="12.753529"><ele>408.5</ele><time>2026-05-03T10:48:35.495Z</time></trkpt><trkpt lat="43.2634628" lon="12.7535284"><ele>409.0</ele><time>2026-05-03T10:48:36.496Z</time></trkpt><trkpt lat="43.2632198" lon="12.7535188"><ele>411.0</ele><time>2026-05-03T10:48:37.501Z</time></trkpt><trkpt lat="43.2629754" lon="12.7535104"><ele>413.0</ele><time>2026-05-03T10:48:38.499Z</time></trkpt><trkpt lat="43.2627357" lon="12.7535083"><ele>413.0</ele><time>2026-05-03T10:48:39.497Z</time></trkpt><trkpt lat="43.2624907" lon="12.7535141"><ele>413.0</ele><time>2026-05-03T10:48:40.496Z</time></trkpt><trkpt lat="43.2622468" lon="12.7535105"><ele>413.5</ele><time>2026-05-03T10:48:41.5Z</time></trkpt><trkpt lat="43.2620006" lon="12.7535104"><ele>414.0</ele><time>2026-05-03T10:48:42.498Z</time></trkpt><trkpt lat="43.2617532" lon="12.7535072"><ele>414.0</ele><time>2026-05-03T10:48:43.497Z</time></trkpt><trkpt lat="43.261504" lon="12.7535103"><ele>414.0</ele><time>2026-05-03T10:48:44.498Z</time></trkpt><trkpt lat="43.2612491" lon="12.7535078"><ele>414.5</ele><time>2026-05-03T10:48:45.497Z</time></trkpt><trkpt lat="43.2609884" lon="12.7535066"><ele>415.0</ele><time>2026-05-03T10:48:46.497Z</time></trkpt><trkpt lat="43.2607314" lon="12.7535109"><ele>415.5</ele><time>2026-05-03T10:48:47.497Z</time></trkpt><trkpt lat="43.2604831" lon="12.7535141"><ele>416.0</ele><time>2026-05-03T10:48:48.498Z</time></trkpt><trkpt lat="43.2602309" lon="12.7535086"><ele>416.0</ele><time>2026-05-03T10:48:49.498Z</time></trkpt><trkpt lat="43.2599756" lon="12.7534997"><ele>416.0</ele><time>2026-05-03T10:48:50.497Z</time></trkpt><trkpt lat="43.2597214" lon="12.7535033"><ele>416.5</ele><time>2026-05-03T10:48:51.497Z</time></trkpt><trkpt lat="43.2594722" lon="12.7534989"><ele>417.0</ele><time>2026-05-03T10:48:52.496Z</time></trkpt><trkpt lat="43.2592264" lon="12.7535001"><ele>417.0</ele><time>2026-05-03T10:48:53.497Z</time></trkpt><trkpt lat="43.2589769" lon="12.753504"><ele>417.0</ele><time>2026-05-03T10:48:54.496Z</time></trkpt><trkpt lat="43.2587196" lon="12.7535003"><ele>415.5</ele><time>2026-05-03T10:48:55.496Z</time></trkpt><trkpt lat="43.2584619" lon="12.7534995"><ele>414.0</ele><time>2026-05-03T10:48:56.5Z</time></trkpt><trkpt lat="43.2582008" lon="12.7534941"><ele>414.0</ele><time>2026-05-03T10:48:57.497Z</time></trkpt><trkpt lat="43.2579424" lon="12.7534939"><ele>414.0</ele><time>2026-05-03T10:48:58.501Z</time></trkpt><trkpt lat="43.2576869" lon="12.7534953"><ele>414.0</ele><time>2026-05-03T10:48:59.495Z</time></trkpt><trkpt lat="43.2574314" lon="12.7534944"><ele>414.0</ele><time>2026-05-03T10:49:00.53Z</time></trkpt><trkpt lat="43.2571682" lon="12.7534906"><ele>415.5</ele><time>2026-05-03T10:49:01.496Z</time></trkpt><trkpt lat="43.2569109" lon="12.7534928"><ele>417.0</ele><time>2026-05-03T10:49:02.5Z</time></trkpt><trkpt lat="43.2566522" lon="12.7534933"><ele>416.0</ele><time>2026-05-03T10:49:03.496Z</time></trkpt><trkpt lat="43.256389" lon="12.7534974"><ele>415.0</ele><time>2026-05-03T10:49:04.495Z</time></trkpt><trkpt lat="43.25612" lon="12.7535084"><ele>415.0</ele><time>2026-05-03T10:49:05.495Z</time></trkpt><trkpt lat="43.2558501" lon="12.7535273"><ele>415.0</ele><time>2026-05-03T10:49:06.499Z</time></trkpt><trkpt lat="43.2555814" lon="12.7535571"><ele>417.0</ele><time>2026-05-03T10:49:07.5Z</time></trkpt><trkpt lat="43.2553069" lon="12.7535897"><ele>419.0</ele><time>2026-05-03T10:49:08.498Z</time></trkpt><trkpt lat="43.2550328" lon="12.7536287"><ele>419.5</ele><time>2026-05-03T10:49:09.523Z</time></trkpt><trkpt lat="43.254762" lon="12.7536664"><ele>420.0</ele><time>2026-05-03T10:49:10.495Z</time></trkpt><trkpt lat="43.2544865" lon="12.7537046"><ele>420.0</ele><time>2026-05-03T10:49:11.498Z</time></trkpt><trkpt lat="43.2542144" lon="12.7537447"><ele>420.0</ele><time>2026-05-03T10:49:12.496Z</time></trkpt><trkpt lat="43.2539513" lon="12.7537812"><ele>419.0</ele><time>2026-05-03T10:49:13.497Z</time></trkpt><trkpt lat="43.2536916" lon="12.7538238"><ele>418.0</ele><time>2026-05-03T10:49:14.499Z</time></trkpt><trkpt lat="43.2534311" lon="12.7538647"><ele>418.0</ele><time>2026-05-03T10:49:15.496Z</time></trkpt><trkpt lat="43.2531776" lon="12.7539031"><ele>418.0</ele><time>2026-05-03T10:49:16.497Z</time></trkpt><trkpt lat="43.2529197" lon="12.7539401"><ele>419.0</ele><time>2026-05-03T10:49:17.496Z</time></trkpt><trkpt lat="43.2526625" lon="12.753976"><ele>420.0</ele><time>2026-05-03T10:49:18.497Z</time></trkpt><trkpt lat="43.2524073" lon="12.7540138"><ele>420.5</ele><time>2026-05-03T10:49:19.496Z</time></trkpt><trkpt lat="43.2521591" lon="12.7540482"><ele>421.0</ele><time>2026-05-03T10:49:20.497Z</time></trkpt><trkpt lat="43.2519126" lon="12.7540808"><ele>421.0</ele><time>2026-05-03T10:49:21.497Z</time></trkpt><trkpt lat="43.2516663" lon="12.754116"><ele>421.0</ele><time>2026-05-03T10:49:22.494Z</time></trkpt><trkpt lat="43.2514126" lon="12.7541483"><ele>422.0</ele><time>2026-05-03T10:49:23.498Z</time></trkpt><trkpt lat="43.2511551" lon="12.7541842"><ele>423.0</ele><time>2026-05-03T10:49:24.499Z</time></trkpt><trkpt lat="43.2508962" lon="12.7542204"><ele>423.0</ele><time>2026-05-03T10:49:25.496Z</time></trkpt><trkpt lat="43.250641" lon="12.7542581"><ele>423.0</ele><time>2026-05-03T10:49:26.499Z</time></trkpt><trkpt lat="43.2503877" lon="12.7542884"><ele>422.0</ele><time>2026-05-03T10:49:27.496Z</time></trkpt><trkpt lat="43.2501387" lon="12.7543223"><ele>421.0</ele><time>2026-05-03T10:49:28.497Z</time></trkpt><trkpt lat="43.2498815" lon="12.7543352"><ele>423.5</ele><time>2026-05-03T10:49:29.498Z</time></trkpt><trkpt lat="43.2496255" lon="12.7543554"><ele>426.0</ele><time>2026-05-03T10:49:30.496Z</time></trkpt><trkpt lat="43.2493689" lon="12.7543635"><ele>426.0</ele><time>2026-05-03T10:49:31.496Z</time></trkpt><trkpt lat="43.2491109" lon="12.7543607"><ele>426.0</ele><time>2026-05-03T10:49:32.497Z</time></trkpt><trkpt lat="43.2488529" lon="12.7543586"><ele>427.0</ele><time>2026-05-03T10:49:33.498Z</time></trkpt><trkpt lat="43.2485982" lon="12.7543585"><ele>428.0</ele><time>2026-05-03T10:49:34.496Z</time></trkpt><trkpt lat="43.2483357" lon="12.7543461"><ele>426.5</ele><time>2026-05-03T10:49:35.496Z</time></trkpt><trkpt lat="43.2480849" lon="12.7543096"><ele>425.0</ele><time>2026-05-03T10:49:36.498Z</time></trkpt><trkpt lat="43.2478291" lon="12.7542789"><ele>425.0</ele><time>2026-05-03T10:49:37.496Z</time></trkpt><trkpt lat="43.2475742" lon="12.7542532"><ele>425.0</ele><time>2026-05-03T10:49:38.497Z</time></trkpt><trkpt lat="43.2473128" lon="12.7542312"><ele>426.0</ele><time>2026-05-03T10:49:39.496Z</time></trkpt><trkpt lat="43.2470519" lon="12.7542062"><ele>427.0</ele><time>2026-05-03T10:49:40.496Z</time></trkpt><trkpt lat="43.2467894" lon="12.7541827"><ele>427.0</ele><time>2026-05-03T10:49:41.499Z</time></trkpt><trkpt lat="43.2465256" lon="12.7541567"><ele>427.0</ele><time>2026-05-03T10:49:42.498Z</time></trkpt><trkpt lat="43.246266" lon="12.7541307"><ele>428.0</ele><time>2026-05-03T10:49:43.497Z</time></trkpt><trkpt lat="43.2460077" lon="12.7541091"><ele>429.0</ele><time>2026-05-03T10:49:44.5Z</time></trkpt><trkpt lat="43.2457479" lon="12.7540975"><ele>430.0</ele><time>2026-05-03T10:49:45.498Z</time></trkpt><trkpt lat="43.2454883" lon="12.75408"><ele>431.0</ele><time>2026-05-03T10:49:46.497Z</time></trkpt><trkpt lat="43.2452282" lon="12.7540751"><ele>431.0</ele><time>2026-05-03T10:49:47.497Z</time></trkpt><trkpt lat="43.2449712" lon="12.7540762"><ele>431.0</ele><time>2026-05-03T10:49:48.495Z</time></trkpt><trkpt lat="43.2447144" lon="12.7540837"><ele>430.0</ele><time>2026-05-03T10:49:49.496Z</time></trkpt><trkpt lat="43.2444577" lon="12.7540914"><ele>429.0</ele><time>2026-05-03T10:49:50.497Z</time></trkpt><trkpt lat="43.2442022" lon="12.7541104"><ele>429.5</ele><time>2026-05-03T10:49:51.496Z</time></trkpt><trkpt lat="43.2439499" lon="12.7541347"><ele>430.0</ele><time>2026-05-03T10:49:52.496Z</time></trkpt><trkpt lat="43.2436978" lon="12.7541691"><ele>430.0</ele><time>2026-05-03T10:49:53.497Z</time></trkpt><trkpt lat="43.2434459" lon="12.7542085"><ele>430.0</ele><time>2026-05-03T10:49:54.497Z</time></trkpt><trkpt lat="43.2431971" lon="12.7542519"><ele>433.0</ele><time>2026-05-03T10:49:55.496Z</time></trkpt><trkpt lat="43.2429565" lon="12.7543022"><ele>436.0</ele><time>2026-05-03T10:49:56.497Z</time></trkpt><trkpt lat="43.24271" lon="12.7543515"><ele>436.5</ele><time>2026-05-03T10:49:57.498Z</time></trkpt><trkpt lat="43.2424683" lon="12.7544042"><ele>437.0</ele><time>2026-05-03T10:49:58.496Z</time></trkpt><trkpt lat="43.2422246" lon="12.7544473"><ele>437.0</ele><time>2026-05-03T10:49:59.496Z</time></trkpt><trkpt lat="43.24198" lon="12.754501"><ele>437.0</ele><time>2026-05-03T10:50:00.498Z</time></trkpt><trkpt lat="43.2417386" lon="12.754552"><ele>437.0</ele><time>2026-05-03T10:50:01.498Z</time></trkpt><trkpt lat="43.2414967" lon="12.7545997"><ele>437.0</ele><time>2026-05-03T10:50:02.498Z</time></trkpt><trkpt lat="43.2412547" lon="12.7546488"><ele>439.5</ele><time>2026-05-03T10:50:03.496Z</time></trkpt><trkpt lat="43.2410163" lon="12.7547035"><ele>442.0</ele><time>2026-05-03T10:50:04.49Z</time></trkpt><trkpt lat="43.2407823" lon="12.7547523"><ele>442.0</ele><time>2026-05-03T10:50:05.498Z</time></trkpt><trkpt lat="43.2405434" lon="12.754802"><ele>442.0</ele><time>2026-05-03T10:50:06.501Z</time></trkpt><trkpt lat="43.2403091" lon="12.7548475"><ele>442.0</ele><time>2026-05-03T10:50:07.497Z</time></trkpt><trkpt lat="43.2400777" lon="12.7548996"><ele>442.0</ele><time>2026-05-03T10:50:08.498Z</time></trkpt><trkpt lat="43.2398413" lon="12.7549427"><ele>443.0</ele><time>2026-05-03T10:50:09.498Z</time></trkpt><trkpt lat="43.2396051" lon="12.754986"><ele>444.0</ele><time>2026-05-03T10:50:10.497Z</time></trkpt><trkpt lat="43.2393687" lon="12.7550209"><ele>444.0</ele><time>2026-05-03T10:50:11.498Z</time></trkpt><trkpt lat="43.2391259" lon="12.7550551"><ele>444.0</ele><time>2026-05-03T10:50:12.5Z</time></trkpt><trkpt lat="43.238874" lon="12.7550831"><ele>445.0</ele><time>2026-05-03T10:50:13.496Z</time></trkpt><trkpt lat="43.2386222" lon="12.7550994"><ele>446.0</ele><time>2026-05-03T10:50:14.497Z</time></trkpt><trkpt lat="43.238364" lon="12.7551079"><ele>446.5</ele><time>2026-05-03T10:50:15.497Z</time></trkpt><trkpt lat="43.2381043" lon="12.7551113"><ele>447.0</ele><time>2026-05-03T10:50:16.497Z</time></trkpt><trkpt lat="43.2378425" lon="12.7551064"><ele>447.0</ele><time>2026-05-03T10:50:17.502Z</time></trkpt><trkpt lat="43.237576" lon="12.7550895"><ele>447.0</ele><time>2026-05-03T10:50:18.498Z</time></trkpt><trkpt lat="43.2373097" lon="12.755069"><ele>447.0</ele><time>2026-05-03T10:50:19.496Z</time></trkpt><trkpt lat="43.2370452" lon="12.755052"><ele>447.0</ele><time>2026-05-03T10:50:20.493Z</time></trkpt><trkpt lat="43.2367711" lon="12.7550272"><ele>447.0</ele><time>2026-05-03T10:50:21.525Z</time></trkpt><trkpt lat="43.2364957" lon="12.7549979"><ele>447.0</ele><time>2026-05-03T10:50:22.496Z</time></trkpt><trkpt lat="43.2362263" lon="12.7549787"><ele>445.0</ele><time>2026-05-03T10:50:23.5Z</time></trkpt><trkpt lat="43.2359674" lon="12.7549595"><ele>443.0</ele><time>2026-05-03T10:50:24.498Z</time></trkpt><trkpt lat="43.2357183" lon="12.7549409"><ele>443.5</ele><time>2026-05-03T10:50:25.498Z</time></trkpt><trkpt lat="43.2354745" lon="12.7549199"><ele>444.0</ele><time>2026-05-03T10:50:26.529Z</time></trkpt><trkpt lat="43.2352266" lon="12.7549039"><ele>444.0</ele><time>2026-05-03T10:50:27.498Z</time></trkpt><trkpt lat="43.2349795" lon="12.7548937"><ele>444.0</ele><time>2026-05-03T10:50:28.499Z</time></trkpt><trkpt lat="43.2347268" lon="12.7548787"><ele>444.5</ele><time>2026-05-03T10:50:29.497Z</time></trkpt><trkpt lat="43.2344771" lon="12.75486"><ele>445.0</ele><time>2026-05-03T10:50:30.498Z</time></trkpt><trkpt lat="43.2342283" lon="12.7548381"><ele>445.0</ele><time>2026-05-03T10:50:31.499Z</time></trkpt><trkpt lat="43.2339771" lon="12.754816"><ele>445.0</ele><time>2026-05-03T10:50:32.499Z</time></trkpt><trkpt lat="43.2337252" lon="12.7548006"><ele>444.5</ele><time>2026-05-03T10:50:33.498Z</time></trkpt><trkpt lat="43.2334727" lon="12.7547808"><ele>444.0</ele><time>2026-05-03T10:50:34.498Z</time></trkpt><trkpt lat="43.2332224" lon="12.7547661"><ele>445.0</ele><time>2026-05-03T10:50:35.499Z</time></trkpt><trkpt lat="43.2329737" lon="12.7547457"><ele>446.0</ele><time>2026-05-03T10:50:36.498Z</time></trkpt><trkpt lat="43.2327256" lon="12.754725"><ele>446.0</ele><time>2026-05-03T10:50:37.498Z</time></trkpt><trkpt lat="43.2324762" lon="12.7547045"><ele>446.0</ele><time>2026-05-03T10:50:38.498Z</time></trkpt><trkpt lat="43.232225" lon="12.7546854"><ele>447.0</ele><time>2026-05-03T10:50:39.527Z</time></trkpt><trkpt lat="43.2319684" lon="12.7546668"><ele>448.0</ele><time>2026-05-03T10:50:40.497Z</time></trkpt><trkpt lat="43.2317039" lon="12.7546514"><ele>448.5</ele><time>2026-05-03T10:50:41.499Z</time></trkpt><trkpt lat="43.2314233" lon="12.7546267"><ele>449.0</ele><time>2026-05-03T10:50:42.496Z</time></trkpt><trkpt lat="43.2311324" lon="12.7546047"><ele>449.0</ele><time>2026-05-03T10:50:43.499Z</time></trkpt><trkpt lat="43.2308338" lon="12.7545815"><ele>449.0</ele><time>2026-05-03T10:50:44.499Z</time></trkpt><trkpt lat="43.2305366" lon="12.75456"><ele>448.5</ele><time>2026-05-03T10:50:45.5Z</time></trkpt><trkpt lat="43.2302402" lon="12.7545394"><ele>448.0</ele><time>2026-05-03T10:50:46.499Z</time></trkpt><trkpt lat="43.2299453" lon="12.754518"><ele>447.5</ele><time>2026-05-03T10:50:47.499Z</time></trkpt><trkpt lat="43.2296611" lon="12.7544966"><ele>447.0</ele><time>2026-05-03T10:50:48.498Z</time></trkpt><trkpt lat="43.229383" lon="12.7544685"><ele>447.0</ele><time>2026-05-03T10:50:49.498Z</time></trkpt><trkpt lat="43.229113" lon="12.7544488"><ele>447.0</ele><time>2026-05-03T10:50:50.499Z</time></trkpt><trkpt lat="43.2288539" lon="12.7544315"><ele>452.5</ele><time>2026-05-03T10:50:51.498Z</time></trkpt><trkpt lat="43.2285995" lon="12.7544192"><ele>458.0</ele><time>2026-05-03T10:50:52.499Z</time></trkpt><trkpt lat="43.2283442" lon="12.7544207"><ele>462.0</ele><time>2026-05-03T10:50:53.531Z</time></trkpt><trkpt lat="43.2280873" lon="12.7544291"><ele>466.0</ele><time>2026-05-03T10:50:54.498Z</time></trkpt><trkpt lat="43.2278335" lon="12.7544462"><ele>466.0</ele><time>2026-05-03T10:50:55.498Z</time></trkpt><trkpt lat="43.2275787" lon="12.7544669"><ele>466.0</ele><time>2026-05-03T10:50:56.498Z</time></trkpt><trkpt lat="43.2273255" lon="12.7545034"><ele>464.5</ele><time>2026-05-03T10:50:57.499Z</time></trkpt><trkpt lat="43.2270718" lon="12.7545495"><ele>463.0</ele><time>2026-05-03T10:50:58.498Z</time></trkpt><trkpt lat="43.2268132" lon="12.7545988"><ele>463.0</ele><time>2026-05-03T10:50:59.498Z</time></trkpt><trkpt lat="43.2265552" lon="12.7546602"><ele>463.0</ele><time>2026-05-03T10:51:00.498Z</time></trkpt><trkpt lat="43.2262989" lon="12.7547303"><ele>460.0</ele><time>2026-05-03T10:51:01.498Z</time></trkpt><trkpt lat="43.2260492" lon="12.754813"><ele>457.0</ele><time>2026-05-03T10:51:02.499Z</time></trkpt><trkpt lat="43.2258017" lon="12.7549081"><ele>456.5</ele><time>2026-05-03T10:51:03.499Z</time></trkpt><trkpt lat="43.2255582" lon="12.7550168"><ele>456.0</ele><time>2026-05-03T10:51:04.499Z</time></trkpt><trkpt lat="43.2253148" lon="12.7551286"><ele>462.0</ele><time>2026-05-03T10:51:05.525Z</time></trkpt><trkpt lat="43.2250752" lon="12.7552481"><ele>468.0</ele><time>2026-05-03T10:51:06.497Z</time></trkpt><trkpt lat="43.2248369" lon="12.755367"><ele>463.0</ele><time>2026-05-03T10:51:07.502Z</time></trkpt><trkpt lat="43.2245983" lon="12.7554855"><ele>458.0</ele><time>2026-05-03T10:51:08.497Z</time></trkpt><trkpt lat="43.22436" lon="12.7556041"><ele>458.0</ele><time>2026-05-03T10:51:09.498Z</time></trkpt><trkpt lat="43.224117" lon="12.7557242"><ele>458.0</ele><time>2026-05-03T10:51:10.492Z</time></trkpt><trkpt lat="43.2238827" lon="12.7558495"><ele>455.0</ele><time>2026-05-03T10:51:11.525Z</time></trkpt><trkpt lat="43.2236519" lon="12.7559709"><ele>452.0</ele><time>2026-05-03T10:51:12.498Z</time></trkpt><trkpt lat="43.2234317" lon="12.7560826"><ele>452.0</ele><time>2026-05-03T10:51:13.498Z</time></trkpt><trkpt lat="43.22321" lon="12.7561905"><ele>452.0</ele><time>2026-05-03T10:51:14.497Z</time></trkpt><trkpt lat="43.222993" lon="12.7562974"><ele>451.5</ele><time>2026-05-03T10:51:15.499Z</time></trkpt><trkpt lat="43.222774" lon="12.7564058"><ele>451.0</ele><time>2026-05-03T10:51:16.5Z</time></trkpt><trkpt lat="43.2225593" lon="12.7565116"><ele>451.0</ele><time>2026-05-03T10:51:17.498Z</time></trkpt><trkpt lat="43.2223391" lon="12.756618"><ele>451.0</ele><time>2026-05-03T10:51:18.498Z</time></trkpt><trkpt lat="43.2221159" lon="12.7567249"><ele>451.0</ele><time>2026-05-03T10:51:19.501Z</time></trkpt><trkpt lat="43.2218774" lon="12.7568337"><ele>451.0</ele><time>2026-05-03T10:51:20.499Z</time></trkpt><trkpt lat="43.2216376" lon="12.756934"><ele>452.5</ele><time>2026-05-03T10:51:21.529Z</time></trkpt><trkpt lat="43.2213945" lon="12.7570254"><ele>454.0</ele><time>2026-05-03T10:51:22.498Z</time></trkpt><trkpt lat="43.2211473" lon="12.7571045"><ele>454.0</ele><time>2026-05-03T10:51:23.528Z</time></trkpt><trkpt lat="43.2208979" lon="12.7571725"><ele>454.0</ele><time>2026-05-03T10:51:24.496Z</time></trkpt><trkpt lat="43.2206498" lon="12.7572312"><ele>457.5</ele><time>2026-05-03T10:51:25.499Z</time></trkpt><trkpt lat="43.2203989" lon="12.7572816"><ele>461.0</ele><time>2026-05-03T10:51:26.497Z</time></trkpt><trkpt lat="43.2201423" lon="12.7573107"><ele>461.0</ele><time>2026-05-03T10:51:27.497Z</time></trkpt><trkpt lat="43.2198883" lon="12.7573394"><ele>461.0</ele><time>2026-05-03T10:51:28.497Z</time></trkpt><trkpt lat="43.2196302" lon="12.7573682"><ele>462.0</ele><time>2026-05-03T10:51:29.497Z</time></trkpt><trkpt lat="43.2193666" lon="12.7573925"><ele>463.0</ele><time>2026-05-03T10:51:30.501Z</time></trkpt><trkpt lat="43.2190918" lon="12.7574153"><ele>465.0</ele><time>2026-05-03T10:51:31.497Z</time></trkpt><trkpt lat="43.2188158" lon="12.7574434"><ele>467.0</ele><time>2026-05-03T10:51:32.496Z</time></trkpt><trkpt lat="43.2185498" lon="12.7574591"><ele>467.0</ele><time>2026-05-03T10:51:33.527Z</time></trkpt><trkpt lat="43.2182869" lon="12.7574693"><ele>467.0</ele><time>2026-05-03T10:51:34.528Z</time></trkpt><trkpt lat="43.2180307" lon="12.7574783"><ele>465.0</ele><time>2026-05-03T10:51:35.498Z</time></trkpt><trkpt lat="43.217775" lon="12.7574809"><ele>463.0</ele><time>2026-05-03T10:51:36.498Z</time></trkpt><trkpt lat="43.2175264" lon="12.7575068"><ele>464.5</ele><time>2026-05-03T10:51:37.498Z</time></trkpt><trkpt lat="43.2172725" lon="12.7575291"><ele>466.0</ele><time>2026-05-03T10:51:38.497Z</time></trkpt><trkpt lat="43.2170205" lon="12.7575549"><ele>466.0</ele><time>2026-05-03T10:51:39.502Z</time></trkpt><trkpt lat="43.2167501" lon="12.7575883"><ele>466.0</ele><time>2026-05-03T10:51:40.499Z</time></trkpt><trkpt lat="43.2164926" lon="12.757614"><ele>466.5</ele><time>2026-05-03T10:51:41.498Z</time></trkpt><trkpt lat="43.2162299" lon="12.7576293"><ele>467.0</ele><time>2026-05-03T10:51:42.498Z</time></trkpt><trkpt lat="43.2159682" lon="12.7576359"><ele>467.0</ele><time>2026-05-03T10:51:43.498Z</time></trkpt><trkpt lat="43.2157066" lon="12.7576449"><ele>467.0</ele><time>2026-05-03T10:51:44.501Z</time></trkpt><trkpt lat="43.2154468" lon="12.7576594"><ele>468.0</ele><time>2026-05-03T10:51:45.499Z</time></trkpt><trkpt lat="43.2151824" lon="12.7576756"><ele>469.0</ele><time>2026-05-03T10:51:46.499Z</time></trkpt><trkpt lat="43.214914" lon="12.7576939"><ele>467.5</ele><time>2026-05-03T10:51:47.497Z</time></trkpt><trkpt lat="43.214643" lon="12.7577159"><ele>466.0</ele><time>2026-05-03T10:51:48.498Z</time></trkpt><trkpt lat="43.2143749" lon="12.7577386"><ele>466.0</ele><time>2026-05-03T10:51:49.498Z</time></trkpt><trkpt lat="43.2141079" lon="12.7577613"><ele>466.0</ele><time>2026-05-03T10:51:50.499Z</time></trkpt><trkpt lat="43.213846" lon="12.7577799"><ele>466.5</ele><time>2026-05-03T10:51:51.498Z</time></trkpt><trkpt lat="43.2135866" lon="12.7577997"><ele>467.0</ele><time>2026-05-03T10:51:52.499Z</time></trkpt><trkpt lat="43.2133252" lon="12.7578251"><ele>467.0</ele><time>2026-05-03T10:51:53.527Z</time></trkpt><trkpt lat="43.2130678" lon="12.7578542"><ele>467.0</ele><time>2026-05-03T10:51:54.499Z</time></trkpt><trkpt lat="43.2127986" lon="12.7578688"><ele>467.0</ele><time>2026-05-03T10:51:55.504Z</time></trkpt><trkpt lat="43.2125394" lon="12.7578973"><ele>467.0</ele><time>2026-05-03T10:51:56.5Z</time></trkpt><trkpt lat="43.2122803" lon="12.7579349"><ele>465.0</ele><time>2026-05-03T10:51:57.498Z</time></trkpt><trkpt lat="43.212008" lon="12.7580132"><ele>463.0</ele><time>2026-05-03T10:51:58.498Z</time></trkpt><trkpt lat="43.2117477" lon="12.7580758"><ele>463.0</ele><time>2026-05-03T10:51:59.5Z</time></trkpt><trkpt lat="43.2114921" lon="12.7581433"><ele>463.0</ele><time>2026-05-03T10:52:00.501Z</time></trkpt><trkpt lat="43.2112329" lon="12.7582096"><ele>465.0</ele><time>2026-05-03T10:52:01.496Z</time></trkpt><trkpt lat="43.2109779" lon="12.7582853"><ele>467.0</ele><time>2026-05-03T10:52:02.5Z</time></trkpt><trkpt lat="43.2107285" lon="12.7583685"><ele>468.0</ele><time>2026-05-03T10:52:03.497Z</time></trkpt><trkpt lat="43.2104814" lon="12.7584578"><ele>469.0</ele><time>2026-05-03T10:52:04.523Z</time></trkpt><trkpt lat="43.2102299" lon="12.758553"><ele>469.0</ele><time>2026-05-03T10:52:05.495Z</time></trkpt><trkpt lat="43.2099837" lon="12.7586549"><ele>469.0</ele><time>2026-05-03T10:52:06.499Z</time></trkpt><trkpt lat="43.2097367" lon="12.7587627"><ele>471.5</ele><time>2026-05-03T10:52:07.498Z</time></trkpt><trkpt lat="43.2094928" lon="12.7588877"><ele>474.0</ele><time>2026-05-03T10:52:08.498Z</time></trkpt><trkpt lat="43.2092538" lon="12.7590204"><ele>474.0</ele><time>2026-05-03T10:52:09.495Z</time></trkpt><trkpt lat="43.2090062" lon="12.7591476"><ele>474.0</ele><time>2026-05-03T10:52:10.503Z</time></trkpt><trkpt lat="43.2087659" lon="12.7592885"><ele>476.0</ele><time>2026-05-03T10:52:11.528Z</time></trkpt><trkpt lat="43.2085277" lon="12.759421"><ele>478.0</ele><time>2026-05-03T10:52:12.498Z</time></trkpt><trkpt lat="43.2082984" lon="12.7595787"><ele>485.5</ele><time>2026-05-03T10:52:13.498Z</time></trkpt><trkpt lat="43.2080649" lon="12.7597403"><ele>493.0</ele><time>2026-05-03T10:52:14.494Z</time></trkpt><trkpt lat="43.2078371" lon="12.7598958"><ele>493.0</ele><time>2026-05-03T10:52:15.498Z</time></trkpt><trkpt lat="43.207607" lon="12.7600528"><ele>493.0</ele><time>2026-05-03T10:52:16.498Z</time></trkpt><trkpt lat="43.2073769" lon="12.7602101"><ele>486.0</ele><time>2026-05-03T10:52:17.496Z</time></trkpt><trkpt lat="43.2064491" lon="12.7608594"><ele>484.0</ele><time>2026-05-03T10:52:21.497Z</time></trkpt><trkpt lat="43.2062141" lon="12.7610465"><ele>482.0</ele><time>2026-05-03T10:52:22.498Z</time></trkpt><trkpt lat="43.2059868" lon="12.761231"><ele>482.0</ele><time>2026-05-03T10:52:23.497Z</time></trkpt><trkpt lat="43.2057582" lon="12.7613941"><ele>482.0</ele><time>2026-05-03T10:52:24.498Z</time></trkpt><trkpt lat="43.2055357" lon="12.7615588"><ele>480.0</ele><time>2026-05-03T10:52:25.498Z</time></trkpt><trkpt lat="43.2053054" lon="12.7617319"><ele>478.0</ele><time>2026-05-03T10:52:26.504Z</time></trkpt><trkpt lat="43.2050818" lon="12.7618919"><ele>478.0</ele><time>2026-05-03T10:52:27.498Z</time></trkpt><trkpt lat="43.2048458" lon="12.7620569"><ele>478.0</ele><time>2026-05-03T10:52:28.497Z</time></trkpt><trkpt lat="43.2046067" lon="12.762223"><ele>476.5</ele><time>2026-05-03T10:52:29.499Z</time></trkpt><trkpt lat="43.2043774" lon="12.76238"><ele>475.0</ele><time>2026-05-03T10:52:30.498Z</time></trkpt><trkpt lat="43.2041445" lon="12.7625354"><ele>477.0</ele><time>2026-05-03T10:52:31.499Z</time></trkpt><trkpt lat="43.2039039" lon="12.7626758"><ele>479.0</ele><time>2026-05-03T10:52:32.498Z</time></trkpt><trkpt lat="43.2036648" lon="12.7628102"><ele>479.0</ele><time>2026-05-03T10:52:33.499Z</time></trkpt><trkpt lat="43.2034252" lon="12.7629269"><ele>479.0</ele><time>2026-05-03T10:52:34.531Z</time></trkpt><trkpt lat="43.2031866" lon="12.7630334"><ele>479.5</ele><time>2026-05-03T10:52:35.497Z</time></trkpt><trkpt lat="43.2029511" lon="12.7631342"><ele>480.0</ele><time>2026-05-03T10:52:36.499Z</time></trkpt><trkpt lat="43.2027119" lon="12.7632397"><ele>480.0</ele><time>2026-05-03T10:52:37.498Z</time></trkpt><trkpt lat="43.2024695" lon="12.7633331"><ele>480.0</ele><time>2026-05-03T10:52:38.506Z</time></trkpt><trkpt lat="43.2022186" lon="12.7634502"><ele>483.0</ele><time>2026-05-03T10:52:39.497Z</time></trkpt><trkpt lat="43.201976" lon="12.763554"><ele>486.0</ele><time>2026-05-03T10:52:40.497Z</time></trkpt><trkpt lat="43.2017234" lon="12.763669"><ele>484.5</ele><time>2026-05-03T10:52:41.5Z</time></trkpt><trkpt lat="43.2014821" lon="12.7637762"><ele>483.0</ele><time>2026-05-03T10:52:42.499Z</time></trkpt><trkpt lat="43.2012329" lon="12.7638937"><ele>483.0</ele><time>2026-05-03T10:52:43.498Z</time></trkpt><trkpt lat="43.200991" lon="12.7640125"><ele>483.0</ele><time>2026-05-03T10:52:44.498Z</time></trkpt><trkpt lat="43.2007458" lon="12.7641392"><ele>484.0</ele><time>2026-05-03T10:52:45.498Z</time></trkpt><trkpt lat="43.2004983" lon="12.7642727"><ele>485.0</ele><time>2026-05-03T10:52:46.498Z</time></trkpt><trkpt lat="43.2002598" lon="12.7644032"><ele>485.0</ele><time>2026-05-03T10:52:47.5Z</time></trkpt><trkpt lat="43.2000195" lon="12.7645479"><ele>485.0</ele><time>2026-05-03T10:52:48.497Z</time></trkpt><trkpt lat="43.1997784" lon="12.7647016"><ele>485.0</ele><time>2026-05-03T10:52:49.497Z</time></trkpt><trkpt lat="43.1995368" lon="12.7648577"><ele>485.0</ele><time>2026-05-03T10:52:50.496Z</time></trkpt><trkpt lat="43.1992961" lon="12.765021"><ele>485.0</ele><time>2026-05-03T10:52:51.502Z</time></trkpt><trkpt lat="43.1990602" lon="12.765187"><ele>485.0</ele><time>2026-05-03T10:52:52.499Z</time></trkpt><trkpt lat="43.1988235" lon="12.7653554"><ele>485.5</ele><time>2026-05-03T10:52:53.498Z</time></trkpt><trkpt lat="43.1985874" lon="12.7655258"><ele>486.0</ele><time>2026-05-03T10:52:54.499Z</time></trkpt><trkpt lat="43.1983543" lon="12.7657006"><ele>488.0</ele><time>2026-05-03T10:52:55.497Z</time></trkpt><trkpt lat="43.1981214" lon="12.7658789"><ele>490.0</ele><time>2026-05-03T10:52:56.497Z</time></trkpt><trkpt lat="43.1978908" lon="12.7660647"><ele>490.5</ele><time>2026-05-03T10:52:57.5Z</time></trkpt><trkpt lat="43.1976613" lon="12.7662535"><ele>491.0</ele><time>2026-05-03T10:52:58.497Z</time></trkpt><trkpt lat="43.1974313" lon="12.766456"><ele>493.0</ele><time>2026-05-03T10:52:59.498Z</time></trkpt><trkpt lat="43.1972053" lon="12.7666575"><ele>495.0</ele><time>2026-05-03T10:53:00.498Z</time></trkpt><trkpt lat="43.1969792" lon="12.7668644"><ele>495.0</ele><time>2026-05-03T10:53:01.495Z</time></trkpt><trkpt lat="43.1967572" lon="12.7670784"><ele>495.0</ele><time>2026-05-03T10:53:02.495Z</time></trkpt><trkpt lat="43.1965326" lon="12.7673001"><ele>496.0</ele><time>2026-05-03T10:53:03.524Z</time></trkpt><trkpt lat="43.1963172" lon="12.7675326"><ele>497.0</ele><time>2026-05-03T10:53:04.495Z</time></trkpt><trkpt lat="43.1960987" lon="12.7677564"><ele>495.5</ele><time>2026-05-03T10:53:05.497Z</time></trkpt><trkpt lat="43.1958841" lon="12.7679858"><ele>494.0</ele><time>2026-05-03T10:53:06.498Z</time></trkpt><trkpt lat="43.1956674" lon="12.7682169"><ele>494.0</ele><time>2026-05-03T10:53:07.5Z</time></trkpt><trkpt lat="43.1954578" lon="12.7684596"><ele>494.0</ele><time>2026-05-03T10:53:08.502Z</time></trkpt><trkpt lat="43.1952496" lon="12.7687026"><ele>493.5</ele><time>2026-05-03T10:53:09.5Z</time></trkpt><trkpt lat="43.1950398" lon="12.7689478"><ele>493.0</ele><time>2026-05-03T10:53:10.499Z</time></trkpt><trkpt lat="43.1948435" lon="12.7691952"><ele>494.5</ele><time>2026-05-03T10:53:11.498Z</time></trkpt><trkpt lat="43.194644" lon="12.7694403"><ele>496.0</ele><time>2026-05-03T10:53:12.497Z</time></trkpt><trkpt lat="43.1944477" lon="12.7696883"><ele>496.0</ele><time>2026-05-03T10:53:13.5Z</time></trkpt><trkpt lat="43.1942519" lon="12.7699365"><ele>496.0</ele><time>2026-05-03T10:53:14.5Z</time></trkpt><trkpt lat="43.1940548" lon="12.7701942"><ele>497.0</ele><time>2026-05-03T10:53:15.498Z</time></trkpt><trkpt lat="43.1938639" lon="12.7704449"><ele>498.0</ele><time>2026-05-03T10:53:16.498Z</time></trkpt><trkpt lat="43.1936732" lon="12.77069"><ele>498.0</ele><time>2026-05-03T10:53:17.496Z</time></trkpt><trkpt lat="43.1934807" lon="12.770937"><ele>498.0</ele><time>2026-05-03T10:53:18.499Z</time></trkpt><trkpt lat="43.1932885" lon="12.7711792"><ele>503.0</ele><time>2026-05-03T10:53:19.497Z</time></trkpt><trkpt lat="43.1930983" lon="12.7714229"><ele>508.0</ele><time>2026-05-03T10:53:20.495Z</time></trkpt><trkpt lat="43.192903" lon="12.77167"><ele>506.5</ele><time>2026-05-03T10:53:21.498Z</time></trkpt><trkpt lat="43.1927035" lon="12.7719159"><ele>505.0</ele><time>2026-05-03T10:53:22.498Z</time></trkpt><trkpt lat="43.1925107" lon="12.7721652"><ele>507.5</ele><time>2026-05-03T10:53:23.498Z</time></trkpt><trkpt lat="43.1923107" lon="12.7724073"><ele>510.0</ele><time>2026-05-03T10:53:24.498Z</time></trkpt><trkpt lat="43.1921056" lon="12.7726519"><ele>508.5</ele><time>2026-05-03T10:53:25.499Z</time></trkpt><trkpt lat="43.1918898" lon="12.7728924"><ele>507.0</ele><time>2026-05-03T10:53:26.499Z</time></trkpt><trkpt lat="43.1916682" lon="12.7731263"><ele>507.5</ele><time>2026-05-03T10:53:27.497Z</time></trkpt><trkpt lat="43.1914472" lon="12.7733452"><ele>508.0</ele><time>2026-05-03T10:53:28.525Z</time></trkpt><trkpt lat="43.1912164" lon="12.773551"><ele>508.0</ele><time>2026-05-03T10:53:29.499Z</time></trkpt><trkpt lat="43.1909767" lon="12.773743"><ele>508.0</ele><time>2026-05-03T10:53:30.5Z</time></trkpt><trkpt lat="43.1907352" lon="12.7739219"><ele>509.0</ele><time>2026-05-03T10:53:31.529Z</time></trkpt><trkpt lat="43.190497" lon="12.7740813"><ele>510.0</ele><time>2026-05-03T10:53:32.5Z</time></trkpt><trkpt lat="43.1902548" lon="12.7742187"><ele>510.0</ele><time>2026-05-03T10:53:33.498Z</time></trkpt><trkpt lat="43.1900168" lon="12.7743442"><ele>510.0</ele><time>2026-05-03T10:53:34.498Z</time></trkpt><trkpt lat="43.1897779" lon="12.774443"><ele>506.0</ele><time>2026-05-03T10:53:35.499Z</time></trkpt><trkpt lat="43.189541" lon="12.7745289"><ele>502.0</ele><time>2026-05-03T10:53:36.496Z</time></trkpt><trkpt lat="43.1892989" lon="12.7746061"><ele>502.0</ele><time>2026-05-03T10:53:37.5Z</time></trkpt><trkpt lat="43.1890579" lon="12.7746803"><ele>502.0</ele><time>2026-05-03T10:53:38.528Z</time></trkpt><trkpt lat="43.1888032" lon="12.7747333"><ele>500.0</ele><time>2026-05-03T10:53:39.498Z</time></trkpt><trkpt lat="43.1885503" lon="12.7747798"><ele>498.0</ele><time>2026-05-03T10:53:40.498Z</time></trkpt><trkpt lat="43.1883016" lon="12.7748083"><ele>496.5</ele><time>2026-05-03T10:53:41.498Z</time></trkpt><trkpt lat="43.1880492" lon="12.7748224"><ele>495.0</ele><time>2026-05-03T10:53:42.498Z</time></trkpt><trkpt lat="43.1877933" lon="12.774821"><ele>495.0</ele><time>2026-05-03T10:53:43.498Z</time></trkpt><trkpt lat="43.1875382" lon="12.7748074"><ele>495.0</ele><time>2026-05-03T10:53:44.5Z</time></trkpt><trkpt lat="43.187284" lon="12.7747891"><ele>493.5</ele><time>2026-05-03T10:53:45.497Z</time></trkpt><trkpt lat="43.1870277" lon="12.7747733"><ele>492.0</ele><time>2026-05-03T10:53:46.498Z</time></trkpt><trkpt lat="43.186776" lon="12.7747549"><ele>492.0</ele><time>2026-05-03T10:53:47.499Z</time></trkpt><trkpt lat="43.1865203" lon="12.7747399"><ele>492.0</ele><time>2026-05-03T10:53:48.497Z</time></trkpt><trkpt lat="43.1862613" lon="12.7747271"><ele>490.5</ele><time>2026-05-03T10:53:49.496Z</time></trkpt><trkpt lat="43.1860072" lon="12.7747168"><ele>489.0</ele><time>2026-05-03T10:53:50.529Z</time></trkpt><trkpt lat="43.1857507" lon="12.7747148"><ele>488.0</ele><time>2026-05-03T10:53:51.498Z</time></trkpt><trkpt lat="43.1854993" lon="12.7747301"><ele>487.0</ele><time>2026-05-03T10:53:52.497Z</time></trkpt><trkpt lat="43.1852386" lon="12.7747407"><ele>487.0</ele><time>2026-05-03T10:53:53.497Z</time></trkpt><trkpt lat="43.1850043" lon="12.774781"><ele>487.0</ele><time>2026-05-03T10:53:54.496Z</time></trkpt><trkpt lat="43.1847594" lon="12.7748212"><ele>486.5</ele><time>2026-05-03T10:53:55.528Z</time></trkpt><trkpt lat="43.1845102" lon="12.774875"><ele>486.0</ele><time>2026-05-03T10:53:56.499Z</time></trkpt><trkpt lat="43.1842631" lon="12.7749437"><ele>486.0</ele><time>2026-05-03T10:53:57.499Z</time></trkpt><trkpt lat="43.1840163" lon="12.7750267"><ele>486.0</ele><time>2026-05-03T10:53:58.5Z</time></trkpt><trkpt lat="43.1837648" lon="12.7751245"><ele>483.5</ele><time>2026-05-03T10:53:59.501Z</time></trkpt><trkpt lat="43.1835116" lon="12.7752306"><ele>481.0</ele><time>2026-05-03T10:54:00.498Z</time></trkpt><trkpt lat="43.1832618" lon="12.7753334"><ele>481.0</ele><time>2026-05-03T10:54:01.498Z</time></trkpt><trkpt lat="43.183011" lon="12.7754552"><ele>481.0</ele><time>2026-05-03T10:54:02.498Z</time></trkpt><trkpt lat="43.1827632" lon="12.7755752"><ele>481.0</ele><time>2026-05-03T10:54:03.502Z</time></trkpt><trkpt lat="43.1825162" lon="12.7756974"><ele>481.0</ele><time>2026-05-03T10:54:04.526Z</time></trkpt><trkpt lat="43.1822742" lon="12.7758197"><ele>481.0</ele><time>2026-05-03T10:54:05.49Z</time></trkpt><trkpt lat="43.18203" lon="12.7759386"><ele>481.0</ele><time>2026-05-03T10:54:06.526Z</time></trkpt><trkpt lat="43.1817896" lon="12.7760648"><ele>481.0</ele><time>2026-05-03T10:54:07.494Z</time></trkpt><trkpt lat="43.1815435" lon="12.7761821"><ele>481.0</ele><time>2026-05-03T10:54:08.525Z</time></trkpt><trkpt lat="43.1812935" lon="12.776291"><ele>481.0</ele><time>2026-05-03T10:54:09.496Z</time></trkpt><trkpt lat="43.1810489" lon="12.7764016"><ele>481.0</ele><time>2026-05-03T10:54:10.496Z</time></trkpt><trkpt lat="43.1807779" lon="12.7764773"><ele>482.0</ele><time>2026-05-03T10:54:11.498Z</time></trkpt><trkpt lat="43.1805126" lon="12.7765729"><ele>483.0</ele><time>2026-05-03T10:54:12.497Z</time></trkpt><trkpt lat="43.1802427" lon="12.7766453"><ele>483.0</ele><time>2026-05-03T10:54:13.526Z</time></trkpt><trkpt lat="43.1799571" lon="12.7767157"><ele>483.0</ele><time>2026-05-03T10:54:14.499Z</time></trkpt><trkpt lat="43.1796668" lon="12.7767802"><ele>483.5</ele><time>2026-05-03T10:54:15.498Z</time></trkpt><trkpt lat="43.1793864" lon="12.7768431"><ele>484.0</ele><time>2026-05-03T10:54:16.497Z</time></trkpt><trkpt lat="43.1791086" lon="12.7769031"><ele>481.5</ele><time>2026-05-03T10:54:17.497Z</time></trkpt><trkpt lat="43.1788381" lon="12.7769658"><ele>479.0</ele><time>2026-05-03T10:54:18.497Z</time></trkpt><trkpt lat="43.1785693" lon="12.7770178"><ele>479.0</ele><time>2026-05-03T10:54:19.524Z</time></trkpt><trkpt lat="43.1782974" lon="12.7770807"><ele>479.0</ele><time>2026-05-03T10:54:20.499Z</time></trkpt><trkpt lat="43.1780368" lon="12.7771388"><ele>477.5</ele><time>2026-05-03T10:54:21.498Z</time></trkpt><trkpt lat="43.1777865" lon="12.7771979"><ele>476.0</ele><time>2026-05-03T10:54:22.499Z</time></trkpt><trkpt lat="43.177532" lon="12.7772547"><ele>475.0</ele><time>2026-05-03T10:54:23.492Z</time></trkpt><trkpt lat="43.1772798" lon="12.7773181"><ele>474.0</ele><time>2026-05-03T10:54:24.531Z</time></trkpt><trkpt lat="43.1770294" lon="12.7773748"><ele>474.0</ele><time>2026-05-03T10:54:25.526Z</time></trkpt><trkpt lat="43.1767743" lon="12.7774346"><ele>474.0</ele><time>2026-05-03T10:54:26.496Z</time></trkpt><trkpt lat="43.1765133" lon="12.7774887"><ele>471.0</ele><time>2026-05-03T10:54:27.498Z</time></trkpt><trkpt lat="43.1762548" lon="12.7775509"><ele>468.0</ele><time>2026-05-03T10:54:28.528Z</time></trkpt><trkpt lat="43.1760076" lon="12.7776157"><ele>468.0</ele><time>2026-05-03T10:54:29.497Z</time></trkpt><trkpt lat="43.175739" lon="12.777675"><ele>468.0</ele><time>2026-05-03T10:54:30.497Z</time></trkpt><trkpt lat="43.1754747" lon="12.7777379"><ele>470.5</ele><time>2026-05-03T10:54:31.498Z</time></trkpt><trkpt lat="43.1752082" lon="12.7778018"><ele>473.0</ele><time>2026-05-03T10:54:32.499Z</time></trkpt><trkpt lat="43.1749389" lon="12.7778625"><ele>474.5</ele><time>2026-05-03T10:54:33.497Z</time></trkpt><trkpt lat="43.1746739" lon="12.7779292"><ele>476.0</ele><time>2026-05-03T10:54:34.497Z</time></trkpt><trkpt lat="43.1744037" lon="12.7779864"><ele>476.0</ele><time>2026-05-03T10:54:35.531Z</time></trkpt><trkpt lat="43.1741329" lon="12.7780447"><ele>476.0</ele><time>2026-05-03T10:54:36.498Z</time></trkpt><trkpt lat="43.1738718" lon="12.7780898"><ele>476.0</ele><time>2026-05-03T10:54:37.497Z</time></trkpt><trkpt lat="43.17361" lon="12.7781624"><ele>476.0</ele><time>2026-05-03T10:54:38.502Z</time></trkpt><trkpt lat="43.1733554" lon="12.7782144"><ele>476.0</ele><time>2026-05-03T10:54:39.493Z</time></trkpt><trkpt lat="43.173102" lon="12.7782677"><ele>476.0</ele><time>2026-05-03T10:54:40.496Z</time></trkpt><trkpt lat="43.1728496" lon="12.7783224"><ele>476.0</ele><time>2026-05-03T10:54:41.502Z</time></trkpt><trkpt lat="43.1725975" lon="12.7783737"><ele>476.0</ele><time>2026-05-03T10:54:42.498Z</time></trkpt><trkpt lat="43.172348" lon="12.7784267"><ele>473.5</ele><time>2026-05-03T10:54:43.532Z</time></trkpt><trkpt lat="43.1721039" lon="12.7784809"><ele>471.0</ele><time>2026-05-03T10:54:44.499Z</time></trkpt><trkpt lat="43.1718537" lon="12.7785392"><ele>471.0</ele><time>2026-05-03T10:54:45.496Z</time></trkpt><trkpt lat="43.1715957" lon="12.778599"><ele>471.0</ele><time>2026-05-03T10:54:46.498Z</time></trkpt><trkpt lat="43.1713483" lon="12.7786569"><ele>469.5</ele><time>2026-05-03T10:54:47.499Z</time></trkpt><trkpt lat="43.1710919" lon="12.7787139"><ele>468.0</ele><time>2026-05-03T10:54:48.499Z</time></trkpt><trkpt lat="43.1708402" lon="12.7787738"><ele>467.5</ele><time>2026-05-03T10:54:49.529Z</time></trkpt><trkpt lat="43.1705865" lon="12.7788311"><ele>467.0</ele><time>2026-05-03T10:54:50.499Z</time></trkpt><trkpt lat="43.1703319" lon="12.7788912"><ele>467.0</ele><time>2026-05-03T10:54:51.5Z</time></trkpt><trkpt lat="43.1700754" lon="12.7789467"><ele>467.0</ele><time>2026-05-03T10:54:52.498Z</time></trkpt><trkpt lat="43.1698215" lon="12.7789978"><ele>466.5</ele><time>2026-05-03T10:54:53.497Z</time></trkpt><trkpt lat="43.1695654" lon="12.7790468"><ele>466.0</ele><time>2026-05-03T10:54:54.499Z</time></trkpt><trkpt lat="43.169314" lon="12.7790956"><ele>466.0</ele><time>2026-05-03T10:54:55.499Z</time></trkpt><trkpt lat="43.169061" lon="12.779127"><ele>466.0</ele><time>2026-05-03T10:54:56.497Z</time></trkpt><trkpt lat="43.1688093" lon="12.7791516"><ele>465.0</ele><time>2026-05-03T10:54:57.5Z</time></trkpt><trkpt lat="43.1685609" lon="12.7791668"><ele>464.0</ele><time>2026-05-03T10:54:58.527Z</time></trkpt><trkpt lat="43.168314" lon="12.7791724"><ele>463.5</ele><time>2026-05-03T10:54:59.502Z</time></trkpt><trkpt lat="43.1680661" lon="12.7791724"><ele>463.0</ele><time>2026-05-03T10:55:00.5Z</time></trkpt><trkpt lat="43.1678129" lon="12.7791632"><ele>463.0</ele><time>2026-05-03T10:55:01.495Z</time></trkpt><trkpt lat="43.1675594" lon="12.7791573"><ele>463.0</ele><time>2026-05-03T10:55:02.497Z</time></trkpt><trkpt lat="43.1673041" lon="12.7791489"><ele>462.5</ele><time>2026-05-03T10:55:03.499Z</time></trkpt><trkpt lat="43.1670483" lon="12.7791362"><ele>462.0</ele><time>2026-05-03T10:55:04.497Z</time></trkpt><trkpt lat="43.1667802" lon="12.7791281"><ele>461.0</ele><time>2026-05-03T10:55:05.528Z</time></trkpt><trkpt lat="43.1665067" lon="12.7791115"><ele>460.0</ele><time>2026-05-03T10:55:06.501Z</time></trkpt><trkpt lat="43.1662348" lon="12.7791039"><ele>460.0</ele><time>2026-05-03T10:55:07.501Z</time></trkpt><trkpt lat="43.1659733" lon="12.7790918"><ele>460.0</ele><time>2026-05-03T10:55:08.5Z</time></trkpt><trkpt lat="43.1657092" lon="12.7790758"><ele>459.0</ele><time>2026-05-03T10:55:09.503Z</time></trkpt><trkpt lat="43.1654472" lon="12.7790617"><ele>458.0</ele><time>2026-05-03T10:55:10.495Z</time></trkpt><trkpt lat="43.1651899" lon="12.7790608"><ele>458.0</ele><time>2026-05-03T10:55:11.529Z</time></trkpt><trkpt lat="43.1649314" lon="12.7790747"><ele>458.0</ele><time>2026-05-03T10:55:12.499Z</time></trkpt><trkpt lat="43.1646723" lon="12.779101"><ele>458.0</ele><time>2026-05-03T10:55:13.499Z</time></trkpt><trkpt lat="43.1644156" lon="12.779144"><ele>458.0</ele><time>2026-05-03T10:55:14.499Z</time></trkpt><trkpt lat="43.1641563" lon="12.7791994"><ele>459.5</ele><time>2026-05-03T10:55:15.498Z</time></trkpt><trkpt lat="43.1639003" lon="12.7792487"><ele>461.0</ele><time>2026-05-03T10:55:16.498Z</time></trkpt><trkpt lat="43.1636441" lon="12.7793023"><ele>463.0</ele><time>2026-05-03T10:55:17.498Z</time></trkpt><trkpt lat="43.1633809" lon="12.779354"><ele>465.0</ele><time>2026-05-03T10:55:18.498Z</time></trkpt><trkpt lat="43.1631207" lon="12.779413"><ele>465.0</ele><time>2026-05-03T10:55:19.499Z</time></trkpt><trkpt lat="43.1628582" lon="12.7794667"><ele>465.0</ele><time>2026-05-03T10:55:20.502Z</time></trkpt><trkpt lat="43.1625919" lon="12.7795236"><ele>462.5</ele><time>2026-05-03T10:55:21.498Z</time></trkpt><trkpt lat="43.1623282" lon="12.7795788"><ele>460.0</ele><time>2026-05-03T10:55:22.498Z</time></trkpt><trkpt lat="43.1620654" lon="12.7796404"><ele>460.0</ele><time>2026-05-03T10:55:23.497Z</time></trkpt><trkpt lat="43.161803" lon="12.7796983"><ele>460.0</ele><time>2026-05-03T10:55:24.498Z</time></trkpt><trkpt lat="43.1615478" lon="12.7797535"><ele>462.0</ele><time>2026-05-03T10:55:25.498Z</time></trkpt><trkpt lat="43.1612947" lon="12.7798074"><ele>464.0</ele><time>2026-05-03T10:55:26.498Z</time></trkpt><trkpt lat="43.161039" lon="12.7798603"><ele>464.0</ele><time>2026-05-03T10:55:27.499Z</time></trkpt><trkpt lat="43.1607901" lon="12.7799178"><ele>464.0</ele><time>2026-05-03T10:55:28.498Z</time></trkpt><trkpt lat="43.1605418" lon="12.7799721"><ele>467.0</ele><time>2026-05-03T10:55:29.497Z</time></trkpt><trkpt lat="43.1602913" lon="12.7800256"><ele>470.0</ele><time>2026-05-03T10:55:30.496Z</time></trkpt><trkpt lat="43.1600367" lon="12.7800823"><ele>468.5</ele><time>2026-05-03T10:55:31.5Z</time></trkpt><trkpt lat="43.1597739" lon="12.7801373"><ele>467.0</ele><time>2026-05-03T10:55:32.499Z</time></trkpt><trkpt lat="43.1594969" lon="12.7801991"><ele>466.0</ele><time>2026-05-03T10:55:33.497Z</time></trkpt><trkpt lat="43.1592146" lon="12.7802635"><ele>465.0</ele><time>2026-05-03T10:55:34.5Z</time></trkpt><trkpt lat="43.158929" lon="12.7803331"><ele>463.5</ele><time>2026-05-03T10:55:35.499Z</time></trkpt><trkpt lat="43.1586352" lon="12.7804054"><ele>462.0</ele><time>2026-05-03T10:55:36.499Z</time></trkpt><trkpt lat="43.1583342" lon="12.7804768"><ele>457.5</ele><time>2026-05-03T10:55:37.504Z</time></trkpt><trkpt lat="43.158041" lon="12.7805379"><ele>453.0</ele><time>2026-05-03T10:55:38.498Z</time></trkpt><trkpt lat="43.1577513" lon="12.7805888"><ele>453.0</ele><time>2026-05-03T10:55:39.503Z</time></trkpt><trkpt lat="43.1574633" lon="12.7806467"><ele>453.0</ele><time>2026-05-03T10:55:40.499Z</time></trkpt><trkpt lat="43.1571755" lon="12.7807035"><ele>458.5</ele><time>2026-05-03T10:55:41.5Z</time></trkpt><trkpt lat="43.1568906" lon="12.7807599"><ele>464.0</ele><time>2026-05-03T10:55:42.499Z</time></trkpt><trkpt lat="43.1566171" lon="12.7808168"><ele>465.5</ele><time>2026-05-03T10:55:43.498Z</time></trkpt><trkpt lat="43.1563383" lon="12.7808719"><ele>467.0</ele><time>2026-05-03T10:55:44.498Z</time></trkpt><trkpt lat="43.1560611" lon="12.7809267"><ele>449.0</ele><time>2026-05-03T10:55:45.497Z</time></trkpt><trkpt lat="43.1538447" lon="12.7814309"><ele>449.0</ele><time>2026-05-03T10:55:53.497Z</time></trkpt><trkpt lat="43.1535619" lon="12.7815117"><ele>449.0</ele><time>2026-05-03T10:55:54.496Z</time></trkpt><trkpt lat="43.1532905" lon="12.7815741"><ele>449.0</ele><time>2026-05-03T10:55:55.499Z</time></trkpt><trkpt lat="43.1530297" lon="12.7816365"><ele>449.0</ele><time>2026-05-03T10:55:56.528Z</time></trkpt><trkpt lat="43.1527467" lon="12.7816874"><ele>449.0</ele><time>2026-05-03T10:55:57.5Z</time></trkpt><trkpt lat="43.1524678" lon="12.7817643"><ele>449.0</ele><time>2026-05-03T10:55:58.498Z</time></trkpt><trkpt lat="43.1521978" lon="12.7818304"><ele>451.0</ele><time>2026-05-03T10:55:59.499Z</time></trkpt><trkpt lat="43.1519211" lon="12.7819013"><ele>453.0</ele><time>2026-05-03T10:56:00.501Z</time></trkpt><trkpt lat="43.1516551" lon="12.781969"><ele>455.5</ele><time>2026-05-03T10:56:01.499Z</time></trkpt><trkpt lat="43.1513851" lon="12.7820319"><ele>458.0</ele><time>2026-05-03T10:56:02.497Z</time></trkpt><trkpt lat="43.1511156" lon="12.7820964"><ele>450.0</ele><time>2026-05-03T10:56:03.496Z</time></trkpt><trkpt lat="43.1477242" lon="12.7829167"><ele>450.0</ele><time>2026-05-03T10:56:16.497Z</time></trkpt><trkpt lat="43.1475066" lon="12.7829214"><ele>450.0</ele><time>2026-05-03T10:56:17.497Z</time></trkpt><trkpt lat="43.1473105" lon="12.7829713"><ele>450.0</ele><time>2026-05-03T10:56:18.498Z</time></trkpt><trkpt lat="43.1470923" lon="12.7830199"><ele>451.66666666666663</ele><time>2026-05-03T10:56:19.499Z</time></trkpt><trkpt lat="43.146872" lon="12.7830616"><ele>453.3333333333333</ele><time>2026-05-03T10:56:20.499Z</time></trkpt><trkpt lat="43.1466589" lon="12.7831139"><ele>455.0</ele><time>2026-05-03T10:56:21.498Z</time></trkpt><trkpt lat="43.1464452" lon="12.7831629"><ele>455.0</ele><time>2026-05-03T10:56:22.499Z</time></trkpt><trkpt lat="43.1462247" lon="12.7832018"><ele>455.0</ele><time>2026-05-03T10:56:23.5Z</time></trkpt><trkpt lat="43.1460218" lon="12.7832529"><ele>455.0</ele><time>2026-05-03T10:56:24.499Z</time></trkpt><trkpt lat="43.1458168" lon="12.7833006"><ele>456.66666666666663</ele><time>2026-05-03T10:56:25.501Z</time></trkpt><trkpt lat="43.1456104" lon="12.7833497"><ele>458.33333333333337</ele><time>2026-05-03T10:56:26.5Z</time></trkpt><trkpt lat="43.1454148" lon="12.7833994"><ele>460.0</ele><time>2026-05-03T10:56:27.498Z</time></trkpt><trkpt lat="43.1452136" lon="12.7834401"><ele>460.0</ele><time>2026-05-03T10:56:28.498Z</time></trkpt><trkpt lat="43.1450217" lon="12.7834874"><ele>460.0</ele><time>2026-05-03T10:56:29.498Z</time></trkpt><trkpt lat="43.1448144" lon="12.7835239"><ele>460.0</ele><time>2026-05-03T10:56:30.493Z</time></trkpt><trkpt lat="43.1446053" lon="12.7835676"><ele>462.5</ele><time>2026-05-03T10:56:31.525Z</time></trkpt><trkpt lat="43.1443978" lon="12.7836119"><ele>465.0</ele><time>2026-05-03T10:56:32.494Z</time></trkpt><trkpt lat="43.1430341" lon="12.7839755"><ele>459.33333333333337</ele><time>2026-05-03T10:56:38.503Z</time></trkpt><trkpt lat="43.1428261" lon="12.7840355"><ele>453.6666666666667</ele><time>2026-05-03T10:56:39.522Z</time></trkpt><trkpt lat="43.1425931" lon="12.7840663"><ele>448.0</ele><time>2026-05-03T10:56:40.497Z</time></trkpt><trkpt lat="43.1423478" lon="12.7841023"><ele>446.5</ele><time>2026-05-03T10:56:41.498Z</time></trkpt><trkpt lat="43.1420917" lon="12.7841567"><ele>445.0</ele><time>2026-05-03T10:56:42.496Z</time></trkpt><trkpt lat="43.1418463" lon="12.7842171"><ele>442.0</ele><time>2026-05-03T10:56:43.499Z</time></trkpt><trkpt lat="43.1415275" lon="12.7843296"><ele>439.0</ele><time>2026-05-03T10:56:44.497Z</time></trkpt><trkpt lat="43.1412412" lon="12.7843985"><ele>438.5</ele><time>2026-05-03T10:56:45.497Z</time></trkpt><trkpt lat="43.1409765" lon="12.7844605"><ele>438.0</ele><time>2026-05-03T10:56:46.497Z</time></trkpt><trkpt lat="43.1407083" lon="12.7845186"><ele>437.5</ele><time>2026-05-03T10:56:47.498Z</time></trkpt><trkpt lat="43.1404302" lon="12.7845683"><ele>437.0</ele><time>2026-05-03T10:56:48.499Z</time></trkpt><trkpt lat="43.1401516" lon="12.7846169"><ele>440.0</ele><time>2026-05-03T10:56:49.498Z</time></trkpt><trkpt lat="43.1398785" lon="12.7846652"><ele>443.0</ele><time>2026-05-03T10:56:50.497Z</time></trkpt><trkpt lat="43.1396223" lon="12.784749"><ele>443.0</ele><time>2026-05-03T10:56:51.5Z</time></trkpt><trkpt lat="43.1393604" lon="12.7848093"><ele>443.0</ele><time>2026-05-03T10:56:52.496Z</time></trkpt><trkpt lat="43.1391199" lon="12.78488"><ele>449.0</ele><time>2026-05-03T10:56:53.498Z</time></trkpt><trkpt lat="43.1388541" lon="12.7849517"><ele>455.0</ele><time>2026-05-03T10:56:54.529Z</time></trkpt><trkpt lat="43.1386023" lon="12.7850029"><ele>455.0</ele><time>2026-05-03T10:56:55.498Z</time></trkpt><trkpt lat="43.1383477" lon="12.7850597"><ele>455.0</ele><time>2026-05-03T10:56:56.498Z</time></trkpt><trkpt lat="43.1380898" lon="12.7851146"><ele>461.5</ele><time>2026-05-03T10:56:57.497Z</time></trkpt><trkpt lat="43.1378334" lon="12.7851689"><ele>468.0</ele><time>2026-05-03T10:56:58.497Z</time></trkpt><trkpt lat="43.1375768" lon="12.785237"><ele>465.5</ele><time>2026-05-03T10:56:59.503Z</time></trkpt><trkpt lat="43.1373214" lon="12.785304"><ele>463.0</ele><time>2026-05-03T10:57:00.499Z</time></trkpt><trkpt lat="43.1370608" lon="12.7853661"><ele>463.0</ele><time>2026-05-03T10:57:01.498Z</time></trkpt><trkpt lat="43.1368031" lon="12.7854362"><ele>463.0</ele><time>2026-05-03T10:57:02.495Z</time></trkpt><trkpt lat="43.1365456" lon="12.7855032"><ele>459.0</ele><time>2026-05-03T10:57:03.499Z</time></trkpt><trkpt lat="43.136289" lon="12.7855647"><ele>455.0</ele><time>2026-05-03T10:57:04.528Z</time></trkpt><trkpt lat="43.1360266" lon="12.7856338"><ele>455.0</ele><time>2026-05-03T10:57:05.499Z</time></trkpt><trkpt lat="43.1357628" lon="12.7856987"><ele>455.0</ele><time>2026-05-03T10:57:06.498Z</time></trkpt><trkpt lat="43.1355014" lon="12.7857784"><ele>456.0</ele><time>2026-05-03T10:57:07.497Z</time></trkpt><trkpt lat="43.1352408" lon="12.7858624"><ele>457.0</ele><time>2026-05-03T10:57:08.499Z</time></trkpt><trkpt lat="43.134969" lon="12.7859447"><ele>462.5</ele><time>2026-05-03T10:57:09.499Z</time></trkpt><trkpt lat="43.1347043" lon="12.7860248"><ele>468.0</ele><time>2026-05-03T10:57:10.498Z</time></trkpt><trkpt lat="43.1344413" lon="12.7861135"><ele>468.0</ele><time>2026-05-03T10:57:11.498Z</time></trkpt><trkpt lat="43.1341709" lon="12.7862034"><ele>468.0</ele><time>2026-05-03T10:57:12.501Z</time></trkpt><trkpt lat="43.1339103" lon="12.7862912"><ele>470.0</ele><time>2026-05-03T10:57:13.503Z</time></trkpt><trkpt lat="43.133638" lon="12.7863811"><ele>472.0</ele><time>2026-05-03T10:57:14.498Z</time></trkpt><trkpt lat="43.1333603" lon="12.7864764"><ele>472.0</ele><time>2026-05-03T10:57:15.498Z</time></trkpt><trkpt lat="43.133081" lon="12.7865618"><ele>472.0</ele><time>2026-05-03T10:57:16.498Z</time></trkpt><trkpt lat="43.1328104" lon="12.7866432"><ele>472.0</ele><time>2026-05-03T10:57:17.497Z</time></trkpt><trkpt lat="43.1325413" lon="12.7867123"><ele>472.0</ele><time>2026-05-03T10:57:18.495Z</time></trkpt><trkpt lat="43.1322773" lon="12.7867931"><ele>474.5</ele><time>2026-05-03T10:57:19.499Z</time></trkpt><trkpt lat="43.1320161" lon="12.7868665"><ele>477.0</ele><time>2026-05-03T10:57:20.499Z</time></trkpt><trkpt lat="43.1317629" lon="12.7869454"><ele>479.0</ele><time>2026-05-03T10:57:21.498Z</time></trkpt><trkpt lat="43.1315081" lon="12.7870215"><ele>481.0</ele><time>2026-05-03T10:57:22.498Z</time></trkpt><trkpt lat="43.1312578" lon="12.7870996"><ele>481.0</ele><time>2026-05-03T10:57:23.496Z</time></trkpt><trkpt lat="43.1310086" lon="12.7871803"><ele>481.0</ele><time>2026-05-03T10:57:24.497Z</time></trkpt><trkpt lat="43.1307643" lon="12.7872533"><ele>478.5</ele><time>2026-05-03T10:57:25.497Z</time></trkpt><trkpt lat="43.1305186" lon="12.7873242"><ele>476.0</ele><time>2026-05-03T10:57:26.497Z</time></trkpt><trkpt lat="43.1302738" lon="12.787394"><ele>476.0</ele><time>2026-05-03T10:57:27.497Z</time></trkpt><trkpt lat="43.1300242" lon="12.7874626"><ele>476.0</ele><time>2026-05-03T10:57:28.496Z</time></trkpt><trkpt lat="43.1297647" lon="12.7875515"><ele>474.0</ele><time>2026-05-03T10:57:29.499Z</time></trkpt><trkpt lat="43.1295169" lon="12.7876151"><ele>472.0</ele><time>2026-05-03T10:57:30.497Z</time></trkpt><trkpt lat="43.1292633" lon="12.7876741"><ele>469.5</ele><time>2026-05-03T10:57:31.497Z</time></trkpt><trkpt lat="43.1289831" lon="12.7877625"><ele>467.0</ele><time>2026-05-03T10:57:32.498Z</time></trkpt><trkpt lat="43.1287186" lon="12.7878342"><ele>467.0</ele><time>2026-05-03T10:57:33.497Z</time></trkpt><trkpt lat="43.1284454" lon="12.7879152"><ele>467.0</ele><time>2026-05-03T10:57:34.499Z</time></trkpt><trkpt lat="43.1281383" lon="12.7879527"><ele>473.0</ele><time>2026-05-03T10:57:35.497Z</time></trkpt><trkpt lat="43.1278947" lon="12.7879623"><ele>479.0</ele><time>2026-05-03T10:57:36.494Z</time></trkpt><trkpt lat="43.1276303" lon="12.7879889"><ele>483.0</ele><time>2026-05-03T10:57:37.497Z</time></trkpt><trkpt lat="43.1273665" lon="12.7879832"><ele>487.0</ele><time>2026-05-03T10:57:38.498Z</time></trkpt><trkpt lat="43.1271011" lon="12.7879797"><ele>487.0</ele><time>2026-05-03T10:57:39.497Z</time></trkpt><trkpt lat="43.1268363" lon="12.7879678"><ele>487.0</ele><time>2026-05-03T10:57:40.498Z</time></trkpt><trkpt lat="43.1265729" lon="12.7879474"><ele>487.5</ele><time>2026-05-03T10:57:41.496Z</time></trkpt><trkpt lat="43.126309" lon="12.7879254"><ele>488.0</ele><time>2026-05-03T10:57:42.5Z</time></trkpt><trkpt lat="43.1260619" lon="12.7878773"><ele>488.0</ele><time>2026-05-03T10:57:43.498Z</time></trkpt><trkpt lat="43.1258049" lon="12.7878313"><ele>488.0</ele><time>2026-05-03T10:57:44.497Z</time></trkpt><trkpt lat="43.125559" lon="12.7877635"><ele>486.0</ele><time>2026-05-03T10:57:45.497Z</time></trkpt><trkpt lat="43.1253205" lon="12.7877149"><ele>484.0</ele><time>2026-05-03T10:57:46.497Z</time></trkpt><trkpt lat="43.1250651" lon="12.7876398"><ele>477.0</ele><time>2026-05-03T10:57:47.498Z</time></trkpt><trkpt lat="43.1248127" lon="12.7875662"><ele>470.0</ele><time>2026-05-03T10:57:48.529Z</time></trkpt><trkpt lat="43.1245555" lon="12.7874876"><ele>470.0</ele><time>2026-05-03T10:57:49.497Z</time></trkpt><trkpt lat="43.1242953" lon="12.7874217"><ele>470.0</ele><time>2026-05-03T10:57:50.498Z</time></trkpt><trkpt lat="43.1240441" lon="12.787352"><ele>476.0</ele><time>2026-05-03T10:57:51.498Z</time></trkpt><trkpt lat="43.1237865" lon="12.7872772"><ele>482.0</ele><time>2026-05-03T10:57:52.494Z</time></trkpt><trkpt lat="43.1235152" lon="12.7871968"><ele>482.0</ele><time>2026-05-03T10:57:53.528Z</time></trkpt><trkpt lat="43.1232483" lon="12.7871268"><ele>482.0</ele><time>2026-05-03T10:57:54.498Z</time></trkpt><trkpt lat="43.1229853" lon="12.7870493"><ele>484.5</ele><time>2026-05-03T10:57:55.499Z</time></trkpt><trkpt lat="43.1227281" lon="12.7869733"><ele>487.0</ele><time>2026-05-03T10:57:56.526Z</time></trkpt><trkpt lat="43.1224749" lon="12.7869005"><ele>489.0</ele><time>2026-05-03T10:57:57.497Z</time></trkpt><trkpt lat="43.1222286" lon="12.7868305"><ele>491.0</ele><time>2026-05-03T10:57:58.496Z</time></trkpt><trkpt lat="43.1219842" lon="12.7867566"><ele>491.0</ele><time>2026-05-03T10:57:59.5Z</time></trkpt><trkpt lat="43.1217404" lon="12.7866866"><ele>491.0</ele><time>2026-05-03T10:58:00.497Z</time></trkpt><trkpt lat="43.1214988" lon="12.7866159"><ele>494.5</ele><time>2026-05-03T10:58:01.497Z</time></trkpt><trkpt lat="43.1212591" lon="12.7865532"><ele>498.0</ele><time>2026-05-03T10:58:02.498Z</time></trkpt><trkpt lat="43.1210138" lon="12.7864938"><ele>498.0</ele><time>2026-05-03T10:58:03.497Z</time></trkpt><trkpt lat="43.120768" lon="12.7864293"><ele>498.0</ele><time>2026-05-03T10:58:04.497Z</time></trkpt><trkpt lat="43.1205233" lon="12.7863662"><ele>464.0</ele><time>2026-05-03T10:58:05.497Z</time></trkpt><trkpt lat="43.1118575" lon="12.7816435"><ele>464.0</ele><time>2026-05-03T10:58:43.492Z</time></trkpt><trkpt lat="43.1116599" lon="12.7814852"><ele>464.0</ele><time>2026-05-03T10:58:44.496Z</time></trkpt><trkpt lat="43.1114602" lon="12.7813351"><ele>460.0</ele><time>2026-05-03T10:58:45.505Z</time></trkpt><trkpt lat="43.1112421" lon="12.7812044"><ele>456.0</ele><time>2026-05-03T10:58:46.497Z</time></trkpt><trkpt lat="43.1110416" lon="12.7810587"><ele>455.0</ele><time>2026-05-03T10:58:47.497Z</time></trkpt><trkpt lat="43.1108243" lon="12.7809341"><ele>454.0</ele><time>2026-05-03T10:58:48.497Z</time></trkpt><trkpt lat="43.110608" lon="12.7808055"><ele>454.0</ele><time>2026-05-03T10:58:49.499Z</time></trkpt><trkpt lat="43.1103854" lon="12.7806739"><ele>454.0</ele><time>2026-05-03T10:58:50.526Z</time></trkpt><trkpt lat="43.110162" lon="12.7805457"><ele>454.0</ele><time>2026-05-03T10:58:51.496Z</time></trkpt><trkpt lat="43.1099332" lon="12.7804258"><ele>454.0</ele><time>2026-05-03T10:58:52.497Z</time></trkpt><trkpt lat="43.1097008" lon="12.7803081"><ele>455.0</ele><time>2026-05-03T10:58:53.497Z</time></trkpt><trkpt lat="43.1094702" lon="12.7801936"><ele>456.0</ele><time>2026-05-03T10:58:54.499Z</time></trkpt><trkpt lat="43.109246" lon="12.7800917"><ele>459.66666666666663</ele><time>2026-05-03T10:58:55.498Z</time></trkpt><trkpt lat="43.1090369" lon="12.7800008"><ele>463.3333333333333</ele><time>2026-05-03T10:58:56.53Z</time></trkpt><trkpt lat="43.1088285" lon="12.7799003"><ele>467.0</ele><time>2026-05-03T10:58:57.497Z</time></trkpt><trkpt lat="43.1086185" lon="12.7798127"><ele>467.0</ele><time>2026-05-03T10:58:58.527Z</time></trkpt><trkpt lat="43.1084119" lon="12.7797261"><ele>467.0</ele><time>2026-05-03T10:58:59.498Z</time></trkpt><trkpt lat="43.1082046" lon="12.7796408"><ele>467.0</ele><time>2026-05-03T10:59:00.529Z</time></trkpt><trkpt lat="43.1079968" lon="12.779555"><ele>440.0</ele><time>2026-05-03T10:59:01.498Z</time></trkpt><trkpt lat="43.1053074" lon="12.778336"><ele>440.0</ele><time>2026-05-03T10:59:13.492Z</time></trkpt><trkpt lat="43.1050674" lon="12.7782788"><ele>440.0</ele><time>2026-05-03T10:59:14.527Z</time></trkpt><trkpt lat="43.1048469" lon="12.7781861"><ele>437.0</ele><time>2026-05-03T10:59:15.499Z</time></trkpt><trkpt lat="43.1046414" lon="12.7780881"><ele>434.0</ele><time>2026-05-03T10:59:16.49Z</time></trkpt><trkpt lat="43.1044298" lon="12.7780021"><ele>431.0</ele><time>2026-05-03T10:59:17.496Z</time></trkpt><trkpt lat="43.1042243" lon="12.7779058"><ele>432.0</ele><time>2026-05-03T10:59:18.497Z</time></trkpt><trkpt lat="43.1040201" lon="12.7778145"><ele>433.0</ele><time>2026-05-03T10:59:19.496Z</time></trkpt><trkpt lat="43.1038115" lon="12.7777112"><ele>434.0</ele><time>2026-05-03T10:59:20.53Z</time></trkpt><trkpt lat="43.1036155" lon="12.7776133"><ele>434.0</ele><time>2026-05-03T10:59:21.498Z</time></trkpt><trkpt lat="43.1034245" lon="12.7775175"><ele>434.0</ele><time>2026-05-03T10:59:22.498Z</time></trkpt><trkpt lat="43.103241" lon="12.7774207"><ele>434.0</ele><time>2026-05-03T10:59:23.502Z</time></trkpt><trkpt lat="43.1030569" lon="12.7773277"><ele>431.3333333333333</ele><time>2026-05-03T10:59:24.499Z</time></trkpt><trkpt lat="43.1028616" lon="12.77723"><ele>428.66666666666663</ele><time>2026-05-03T10:59:25.498Z</time></trkpt><trkpt lat="43.1026623" lon="12.7771362"><ele>426.0</ele><time>2026-05-03T10:59:26.529Z</time></trkpt><trkpt lat="43.102442" lon="12.7770036"><ele>421.0</ele><time>2026-05-03T10:59:27.494Z</time></trkpt><trkpt lat="43.1021821" lon="12.7767943"><ele>416.0</ele><time>2026-05-03T10:59:28.528Z</time></trkpt><trkpt lat="43.1019432" lon="12.7766068"><ele>416.0</ele><time>2026-05-03T10:59:29.492Z</time></trkpt><trkpt lat="43.1016984" lon="12.7764196"><ele>416.0</ele><time>2026-05-03T10:59:30.498Z</time></trkpt><trkpt lat="43.1014672" lon="12.7762283"><ele>414.5</ele><time>2026-05-03T10:59:31.499Z</time></trkpt><trkpt lat="43.1012319" lon="12.7760229"><ele>413.0</ele><time>2026-05-03T10:59:32.497Z</time></trkpt><trkpt lat="43.1010077" lon="12.7758149"><ele>413.0</ele><time>2026-05-03T10:59:33.525Z</time></trkpt><trkpt lat="43.1007839" lon="12.775601"><ele>413.0</ele><time>2026-05-03T10:59:34.498Z</time></trkpt><trkpt lat="43.1005629" lon="12.7753884"><ele>414.0</ele><time>2026-05-03T10:59:35.498Z</time></trkpt><trkpt lat="43.1003426" lon="12.7751695"><ele>415.0</ele><time>2026-05-03T10:59:36.499Z</time></trkpt><trkpt lat="43.1001397" lon="12.774932"><ele>415.0</ele><time>2026-05-03T10:59:37.498Z</time></trkpt><trkpt lat="43.0999331" lon="12.7747002"><ele>415.0</ele><time>2026-05-03T10:59:38.499Z</time></trkpt><trkpt lat="43.0997313" lon="12.7744595"><ele>413.5</ele><time>2026-05-03T10:59:39.498Z</time></trkpt><trkpt lat="43.0995353" lon="12.7742128"><ele>412.0</ele><time>2026-05-03T10:59:40.497Z</time></trkpt><trkpt lat="43.099344" lon="12.7739597"><ele>412.0</ele><time>2026-05-03T10:59:41.527Z</time></trkpt><trkpt lat="43.0991524" lon="12.7737031"><ele>412.0</ele><time>2026-05-03T10:59:42.499Z</time></trkpt><trkpt lat="43.0989623" lon="12.7734459"><ele>416.0</ele><time>2026-05-03T10:59:43.499Z</time></trkpt><trkpt lat="43.0987715" lon="12.7731867"><ele>420.0</ele><time>2026-05-03T10:59:44.499Z</time></trkpt><trkpt lat="43.0985823" lon="12.7729242"><ele>414.5</ele><time>2026-05-03T10:59:45.492Z</time></trkpt><trkpt lat="43.0983965" lon="12.7726619"><ele>409.0</ele><time>2026-05-03T10:59:46.529Z</time></trkpt><trkpt lat="43.0982087" lon="12.772401"><ele>423.0</ele><time>2026-05-03T10:59:47.497Z</time></trkpt><trkpt lat="43.0980234" lon="12.7721374"><ele>437.0</ele><time>2026-05-03T10:59:48.498Z</time></trkpt><trkpt lat="43.0978397" lon="12.7718746"><ele>428.0</ele><time>2026-05-03T10:59:49.498Z</time></trkpt><trkpt lat="43.0976602" lon="12.771618"><ele>419.0</ele><time>2026-05-03T10:59:50.499Z</time></trkpt><trkpt lat="43.097482" lon="12.7713632"><ele>406.0</ele><time>2026-05-03T10:59:51.498Z</time></trkpt><trkpt lat="43.0956984" lon="12.7688437"><ele>406.0</ele><time>2026-05-03T11:00:01.497Z</time></trkpt><trkpt lat="43.0955208" lon="12.7685743"><ele>406.0</ele><time>2026-05-03T11:00:02.498Z</time></trkpt><trkpt lat="43.0953401" lon="12.7683191"><ele>401.0</ele><time>2026-05-03T11:00:03.495Z</time></trkpt><trkpt lat="43.095169" lon="12.768051"><ele>396.0</ele><time>2026-05-03T11:00:04.522Z</time></trkpt><trkpt lat="43.0950021" lon="12.7677832"><ele>392.5</ele><time>2026-05-03T11:00:05.523Z</time></trkpt><trkpt lat="43.0948016" lon="12.7675283"><ele>389.0</ele><time>2026-05-03T11:00:06.497Z</time></trkpt><trkpt lat="43.0946236" lon="12.7672564"><ele>389.0</ele><time>2026-05-03T11:00:07.496Z</time></trkpt><trkpt lat="43.0944418" lon="12.7669983"><ele>389.0</ele><time>2026-05-03T11:00:08.527Z</time></trkpt><trkpt lat="43.094256" lon="12.7667367"><ele>386.5</ele><time>2026-05-03T11:00:09.498Z</time></trkpt><trkpt lat="43.0940731" lon="12.7664748"><ele>384.0</ele><time>2026-05-03T11:00:10.499Z</time></trkpt><trkpt lat="43.0938889" lon="12.7662177"><ele>386.5</ele><time>2026-05-03T11:00:11.526Z</time></trkpt><trkpt lat="43.093707" lon="12.7659549"><ele>389.0</ele><time>2026-05-03T11:00:12.498Z</time></trkpt><trkpt lat="43.0935237" lon="12.7656947"><ele>389.0</ele><time>2026-05-03T11:00:13.527Z</time></trkpt><trkpt lat="43.0933539" lon="12.7654272"><ele>389.0</ele><time>2026-05-03T11:00:14.498Z</time></trkpt><trkpt lat="43.0931514" lon="12.7651628"><ele>388.0</ele><time>2026-05-03T11:00:15.496Z</time></trkpt><trkpt lat="43.092955" lon="12.7649128"><ele>387.0</ele><time>2026-05-03T11:00:16.499Z</time></trkpt><trkpt lat="43.0927574" lon="12.7646625"><ele>387.0</ele><time>2026-05-03T11:00:17.497Z</time></trkpt><trkpt lat="43.0925591" lon="12.7644089"><ele>387.0</ele><time>2026-05-03T11:00:18.497Z</time></trkpt><trkpt lat="43.0923414" lon="12.764186"><ele>386.0</ele><time>2026-05-03T11:00:19.528Z</time></trkpt><trkpt lat="43.0921339" lon="12.7639363"><ele>385.0</ele><time>2026-05-03T11:00:20.492Z</time></trkpt><trkpt lat="43.0918785" lon="12.7637116"><ele>385.0</ele><time>2026-05-03T11:00:21.526Z</time></trkpt><trkpt lat="43.0916118" lon="12.7635962"><ele>385.0</ele><time>2026-05-03T11:00:22.498Z</time></trkpt><trkpt lat="43.0913515" lon="12.7634377"><ele>387.0</ele><time>2026-05-03T11:00:23.498Z</time></trkpt><trkpt lat="43.0910862" lon="12.7633035"><ele>389.0</ele><time>2026-05-03T11:00:24.493Z</time></trkpt><trkpt lat="43.0908181" lon="12.7631898"><ele>389.5</ele><time>2026-05-03T11:00:25.496Z</time></trkpt><trkpt lat="43.0905512" lon="12.7630972"><ele>390.0</ele><time>2026-05-03T11:00:26.496Z</time></trkpt><trkpt lat="43.0902792" lon="12.7630163"><ele>390.0</ele><time>2026-05-03T11:00:27.499Z</time></trkpt><trkpt lat="43.0900046" lon="12.76295"><ele>390.0</ele><time>2026-05-03T11:00:28.498Z</time></trkpt><trkpt lat="43.0897304" lon="12.7629125"><ele>390.0</ele><time>2026-05-03T11:00:29.498Z</time></trkpt><trkpt lat="43.0894527" lon="12.762899"><ele>390.0</ele><time>2026-05-03T11:00:30.499Z</time></trkpt><trkpt lat="43.0891823" lon="12.7629013"><ele>389.5</ele><time>2026-05-03T11:00:31.499Z</time></trkpt><trkpt lat="43.0889145" lon="12.7629048"><ele>389.0</ele><time>2026-05-03T11:00:32.497Z</time></trkpt><trkpt lat="43.0886409" lon="12.762917"><ele>389.0</ele><time>2026-05-03T11:00:33.497Z</time></trkpt><trkpt lat="43.0883693" lon="12.7629279"><ele>389.0</ele><time>2026-05-03T11:00:34.498Z</time></trkpt><trkpt lat="43.0881096" lon="12.7629183"><ele>386.0</ele><time>2026-05-03T11:00:35.499Z</time></trkpt><trkpt lat="43.0878346" lon="12.7629341"><ele>383.0</ele><time>2026-05-03T11:00:36.499Z</time></trkpt><trkpt lat="43.0875672" lon="12.7629574"><ele>383.5</ele><time>2026-05-03T11:00:37.497Z</time></trkpt><trkpt lat="43.0872959" lon="12.7629717"><ele>384.0</ele><time>2026-05-03T11:00:38.498Z</time></trkpt><trkpt lat="43.0870263" lon="12.7629981"><ele>384.0</ele><time>2026-05-03T11:00:39.5Z</time></trkpt><trkpt lat="43.0867563" lon="12.7630126"><ele>384.0</ele><time>2026-05-03T11:00:40.5Z</time></trkpt><trkpt lat="43.0864855" lon="12.7630335"><ele>387.5</ele><time>2026-05-03T11:00:41.501Z</time></trkpt><trkpt lat="43.0862159" lon="12.763049"><ele>391.0</ele><time>2026-05-03T11:00:42.501Z</time></trkpt><trkpt lat="43.0859516" lon="12.7630671"><ele>395.0</ele><time>2026-05-03T11:00:43.498Z</time></trkpt><trkpt lat="43.0856796" lon="12.7630793"><ele>399.0</ele><time>2026-05-03T11:00:44.499Z</time></trkpt><trkpt lat="43.0853807" lon="12.7630628"><ele>399.0</ele><time>2026-05-03T11:00:45.497Z</time></trkpt><trkpt lat="43.0850871" lon="12.7630501"><ele>399.0</ele><time>2026-05-03T11:00:46.497Z</time></trkpt><trkpt lat="43.0848116" lon="12.7630484"><ele>396.5</ele><time>2026-05-03T11:00:47.499Z</time></trkpt><trkpt lat="43.0845556" lon="12.7630667"><ele>394.0</ele><time>2026-05-03T11:00:48.497Z</time></trkpt><trkpt lat="43.0843496" lon="12.763138"><ele>389.5</ele><time>2026-05-03T11:00:49.497Z</time></trkpt><trkpt lat="43.0840578" lon="12.76315"><ele>385.0</ele><time>2026-05-03T11:00:50.498Z</time></trkpt><trkpt lat="43.0838142" lon="12.7631597"><ele>385.0</ele><time>2026-05-03T11:00:51.497Z</time></trkpt><trkpt lat="43.0835495" lon="12.7631449"><ele>385.0</ele><time>2026-05-03T11:00:52.496Z</time></trkpt><trkpt lat="43.0832912" lon="12.7631606"><ele>383.0</ele><time>2026-05-03T11:00:53.498Z</time></trkpt><trkpt lat="43.0830183" lon="12.7631378"><ele>381.0</ele><time>2026-05-03T11:00:54.498Z</time></trkpt><trkpt lat="43.0827604" lon="12.7631193"><ele>381.0</ele><time>2026-05-03T11:00:55.499Z</time></trkpt><trkpt lat="43.0824933" lon="12.763118"><ele>381.0</ele><time>2026-05-03T11:00:56.495Z</time></trkpt><trkpt lat="43.0822273" lon="12.7630603"><ele>381.0</ele><time>2026-05-03T11:00:57.498Z</time></trkpt><trkpt lat="43.081973" lon="12.7630166"><ele>381.0</ele><time>2026-05-03T11:00:58.499Z</time></trkpt><trkpt lat="43.0817011" lon="12.7629269"><ele>379.0</ele><time>2026-05-03T11:00:59.497Z</time></trkpt><trkpt lat="43.0814384" lon="12.7628573"><ele>377.0</ele><time>2026-05-03T11:01:00.498Z</time></trkpt><trkpt lat="43.0811779" lon="12.7627827"><ele>377.0</ele><time>2026-05-03T11:01:01.498Z</time></trkpt><trkpt lat="43.0809112" lon="12.7627238"><ele>377.0</ele><time>2026-05-03T11:01:02.497Z</time></trkpt><trkpt lat="43.0806558" lon="12.7626474"><ele>378.5</ele><time>2026-05-03T11:01:03.498Z</time></trkpt><trkpt lat="43.080394" lon="12.7625917"><ele>380.0</ele><time>2026-05-03T11:01:04.497Z</time></trkpt><trkpt lat="43.0801318" lon="12.7625288"><ele>378.0</ele><time>2026-05-03T11:01:05.503Z</time></trkpt><trkpt lat="43.0798822" lon="12.762466"><ele>376.0</ele><time>2026-05-03T11:01:06.499Z</time></trkpt><trkpt lat="43.0796059" lon="12.7623997"><ele>376.0</ele><time>2026-05-03T11:01:07.498Z</time></trkpt><trkpt lat="43.0793666" lon="12.7623479"><ele>376.0</ele><time>2026-05-03T11:01:08.499Z</time></trkpt><trkpt lat="43.0791083" lon="12.7622932"><ele>376.0</ele><time>2026-05-03T11:01:09.497Z</time></trkpt><trkpt lat="43.0788442" lon="12.7622289"><ele>376.0</ele><time>2026-05-03T11:01:10.499Z</time></trkpt><trkpt lat="43.0785829" lon="12.7621641"><ele>376.0</ele><time>2026-05-03T11:01:11.498Z</time></trkpt><trkpt lat="43.0783216" lon="12.7621072"><ele>376.0</ele><time>2026-05-03T11:01:12.497Z</time></trkpt><trkpt lat="43.0780562" lon="12.762049"><ele>375.0</ele><time>2026-05-03T11:01:13.5Z</time></trkpt><trkpt lat="43.077784" lon="12.7620016"><ele>374.0</ele><time>2026-05-03T11:01:14.5Z</time></trkpt><trkpt lat="43.0775136" lon="12.7619582"><ele>373.5</ele><time>2026-05-03T11:01:15.498Z</time></trkpt><trkpt lat="43.0772454" lon="12.7619056"><ele>373.0</ele><time>2026-05-03T11:01:16.498Z</time></trkpt><trkpt lat="43.0769761" lon="12.761871"><ele>373.5</ele><time>2026-05-03T11:01:17.498Z</time></trkpt><trkpt lat="43.0767035" lon="12.7618375"><ele>374.0</ele><time>2026-05-03T11:01:18.5Z</time></trkpt><trkpt lat="43.0764497" lon="12.7618089"><ele>374.0</ele><time>2026-05-03T11:01:19.497Z</time></trkpt><trkpt lat="43.0761661" lon="12.761758"><ele>374.0</ele><time>2026-05-03T11:01:20.526Z</time></trkpt><trkpt lat="43.0758952" lon="12.7617281"><ele>373.5</ele><time>2026-05-03T11:01:21.497Z</time></trkpt><trkpt lat="43.0756156" lon="12.7617041"><ele>373.0</ele><time>2026-05-03T11:01:22.499Z</time></trkpt><trkpt lat="43.075338" lon="12.7616723"><ele>373.0</ele><time>2026-05-03T11:01:23.496Z</time></trkpt><trkpt lat="43.0750737" lon="12.7616515"><ele>373.0</ele><time>2026-05-03T11:01:24.496Z</time></trkpt><trkpt lat="43.0748074" lon="12.7616169"><ele>374.5</ele><time>2026-05-03T11:01:25.497Z</time></trkpt><trkpt lat="43.074548" lon="12.7615901"><ele>376.0</ele><time>2026-05-03T11:01:26.498Z</time></trkpt><trkpt lat="43.0742923" lon="12.7615553"><ele>377.0</ele><time>2026-05-03T11:01:27.499Z</time></trkpt><trkpt lat="43.074057" lon="12.7615092"><ele>378.0</ele><time>2026-05-03T11:01:28.497Z</time></trkpt><trkpt lat="43.0738255" lon="12.7614852"><ele>378.0</ele><time>2026-05-03T11:01:29.492Z</time></trkpt><trkpt lat="43.0736101" lon="12.7614384"><ele>378.0</ele><time>2026-05-03T11:01:30.498Z</time></trkpt><trkpt lat="43.0733969" lon="12.7613971"><ele>378.0</ele><time>2026-05-03T11:01:31.529Z</time></trkpt><trkpt lat="43.0732155" lon="12.7613434"><ele>379.3333333333333</ele><time>2026-05-03T11:01:32.498Z</time></trkpt><trkpt lat="43.073027" lon="12.7612844"><ele>380.66666666666663</ele><time>2026-05-03T11:01:33.495Z</time></trkpt><trkpt lat="43.0728365" lon="12.7612408"><ele>382.0</ele><time>2026-05-03T11:01:34.497Z</time></trkpt><trkpt lat="43.0726539" lon="12.7612043"><ele>382.0</ele><time>2026-05-03T11:01:35.497Z</time></trkpt><trkpt lat="43.0724858" lon="12.7611765"><ele>382.0</ele><time>2026-05-03T11:01:36.497Z</time></trkpt><trkpt lat="43.072413" lon="12.7611361"><ele>382.0</ele><time>2026-05-03T11:01:37.497Z</time></trkpt><trkpt lat="43.0722958" lon="12.7610771"><ele>382.0</ele><time>2026-05-03T11:01:38.501Z</time></trkpt><trkpt lat="43.072247" lon="12.7609556"><ele>381.20000000000005</ele><time>2026-05-03T11:01:39.497Z</time></trkpt><trkpt lat="43.0721861" lon="12.7608493"><ele>380.4</ele><time>2026-05-03T11:01:40.496Z</time></trkpt><trkpt lat="43.072213" lon="12.7606978"><ele>379.6</ele><time>2026-05-03T11:01:41.497Z</time></trkpt><trkpt lat="43.0722047" lon="12.7605733"><ele>378.79999999999995</ele><time>2026-05-03T11:01:42.498Z</time></trkpt><trkpt lat="43.0721902" lon="12.7604375"><ele>378.0</ele><time>2026-05-03T11:01:43.498Z</time></trkpt><trkpt lat="43.0721764" lon="12.7603391"><ele>378.0</ele><time>2026-05-03T11:01:44.49Z</time></trkpt><trkpt lat="43.072102" lon="12.7602754"><ele>378.0</ele><time>2026-05-03T11:01:45.532Z</time></trkpt><trkpt lat="43.072039" lon="12.7602102"><ele>378.0</ele><time>2026-05-03T11:01:46.492Z</time></trkpt><trkpt lat="43.0719515" lon="12.760161"><ele>378.0</ele><time>2026-05-03T11:01:47.496Z</time></trkpt><trkpt lat="43.0718428" lon="12.7601304"><ele>378.0</ele><time>2026-05-03T11:01:48.496Z</time></trkpt><trkpt lat="43.0717485" lon="12.7601004"><ele>377.79999999999995</ele><time>2026-05-03T11:01:49.497Z</time></trkpt><trkpt lat="43.0716461" lon="12.7600623"><ele>377.6</ele><time>2026-05-03T11:01:50.5Z</time></trkpt><trkpt lat="43.0715418" lon="12.7600246"><ele>377.4</ele><time>2026-05-03T11:01:51.527Z</time></trkpt><trkpt lat="43.0714371" lon="12.7599873"><ele>377.20000000000005</ele><time>2026-05-03T11:01:52.496Z</time></trkpt><trkpt lat="43.0713297" lon="12.7599597"><ele>377.0</ele><time>2026-05-03T11:01:53.499Z</time></trkpt><trkpt lat="43.0712233" lon="12.7599299"><ele>377.25</ele><time>2026-05-03T11:01:54.499Z</time></trkpt><trkpt lat="43.0711156" lon="12.759895"><ele>377.5</ele><time>2026-05-03T11:01:55.497Z</time></trkpt><trkpt lat="43.0710046" lon="12.7598678"><ele>377.75</ele><time>2026-05-03T11:01:56.497Z</time></trkpt><trkpt lat="43.0708876" lon="12.7598438"><ele>378.0</ele><time>2026-05-03T11:01:57.496Z</time></trkpt><trkpt lat="43.0707696" lon="12.7598129"><ele>378.0</ele><time>2026-05-03T11:01:58.497Z</time></trkpt><trkpt lat="43.0706489" lon="12.7597909"><ele>378.0</ele><time>2026-05-03T11:01:59.499Z</time></trkpt><trkpt lat="43.0705252" lon="12.7597672"><ele>378.0</ele><time>2026-05-03T11:02:00.493Z</time></trkpt><trkpt lat="43.0704016" lon="12.7597439"><ele>378.0</ele><time>2026-05-03T11:02:01.524Z</time></trkpt><trkpt lat="43.070275" lon="12.759707"><ele>378.0</ele><time>2026-05-03T11:02:02.494Z</time></trkpt><trkpt lat="43.0701494" lon="12.7596441"><ele>378.0</ele><time>2026-05-03T11:02:03.497Z</time></trkpt><trkpt lat="43.0700213" lon="12.7595519"><ele>378.0</ele><time>2026-05-03T11:02:04.499Z</time></trkpt><trkpt lat="43.0698814" lon="12.7594441"><ele>378.0</ele><time>2026-05-03T11:02:05.496Z</time></trkpt><trkpt lat="43.0697571" lon="12.7593384"><ele>378.0</ele><time>2026-05-03T11:02:06.495Z</time></trkpt><trkpt lat="43.0696251" lon="12.7592163"><ele>378.0</ele><time>2026-05-03T11:02:07.497Z</time></trkpt><trkpt lat="43.069458" lon="12.7590284"><ele>378.0</ele><time>2026-05-03T11:02:08.497Z</time></trkpt><trkpt lat="43.069302" lon="12.7588736"><ele>378.0</ele><time>2026-05-03T11:02:09.498Z</time></trkpt><trkpt lat="43.0691266" lon="12.7587041"><ele>378.0</ele><time>2026-05-03T11:02:10.5Z</time></trkpt><trkpt lat="43.0689467" lon="12.7585668"><ele>378.0</ele><time>2026-05-03T11:02:11.498Z</time></trkpt><trkpt lat="43.0687643" lon="12.758419"><ele>376.0</ele><time>2026-05-03T11:02:12.499Z</time></trkpt><trkpt lat="43.0685584" lon="12.7583209"><ele>374.0</ele><time>2026-05-03T11:02:13.498Z</time></trkpt><trkpt lat="43.0683552" lon="12.7582301"><ele>372.0</ele><time>2026-05-03T11:02:14.497Z</time></trkpt><trkpt lat="43.0681594" lon="12.758119"><ele>372.0</ele><time>2026-05-03T11:02:15.497Z</time></trkpt><trkpt lat="43.0679537" lon="12.7580728"><ele>372.0</ele><time>2026-05-03T11:02:16.498Z</time></trkpt><trkpt lat="43.067761" lon="12.7580008"><ele>372.0</ele><time>2026-05-03T11:02:17.528Z</time></trkpt><trkpt lat="43.0675871" lon="12.75792"><ele>371.3333333333333</ele><time>2026-05-03T11:02:18.494Z</time></trkpt><trkpt lat="43.0674221" lon="12.7578187"><ele>370.66666666666663</ele><time>2026-05-03T11:02:19.524Z</time></trkpt><trkpt lat="43.067268" lon="12.7576978"><ele>370.0</ele><time>2026-05-03T11:02:20.496Z</time></trkpt><trkpt lat="43.0671335" lon="12.7575172"><ele>370.0</ele><time>2026-05-03T11:02:21.498Z</time></trkpt><trkpt lat="43.067014" lon="12.7573049"><ele>370.0</ele><time>2026-05-03T11:02:22.497Z</time></trkpt><trkpt lat="43.0669005" lon="12.7570901"><ele>370.0</ele><time>2026-05-03T11:02:23.497Z</time></trkpt><trkpt lat="43.0667815" lon="12.7568928"><ele>369.66666666666663</ele><time>2026-05-03T11:02:24.496Z</time></trkpt><trkpt lat="43.0666522" lon="12.7567233"><ele>369.3333333333333</ele><time>2026-05-03T11:02:25.497Z</time></trkpt><trkpt lat="43.0665174" lon="12.7565948"><ele>369.0</ele><time>2026-05-03T11:02:26.497Z</time></trkpt><trkpt lat="43.0663766" lon="12.7565072"><ele>369.0</ele><time>2026-05-03T11:02:27.498Z</time></trkpt><trkpt lat="43.0662248" lon="12.7564429"><ele>369.0</ele><time>2026-05-03T11:02:28.497Z</time></trkpt><trkpt lat="43.0660572" lon="12.7563907"><ele>369.0</ele><time>2026-05-03T11:02:29.498Z</time></trkpt><trkpt lat="43.0658869" lon="12.7563347"><ele>368.3333333333333</ele><time>2026-05-03T11:02:30.497Z</time></trkpt><trkpt lat="43.0657068" lon="12.7562709"><ele>367.66666666666663</ele><time>2026-05-03T11:02:31.497Z</time></trkpt><trkpt lat="43.0655268" lon="12.7561969"><ele>367.0</ele><time>2026-05-03T11:02:32.503Z</time></trkpt><trkpt lat="43.0653656" lon="12.7561217"><ele>367.0</ele><time>2026-05-03T11:02:33.499Z</time></trkpt><trkpt lat="43.0652079" lon="12.7560554"><ele>367.0</ele><time>2026-05-03T11:02:34.498Z</time></trkpt><trkpt lat="43.0650534" lon="12.7560039"><ele>367.0</ele><time>2026-05-03T11:02:35.5Z</time></trkpt><trkpt lat="43.0649026" lon="12.7559582"><ele>368.66666666666663</ele><time>2026-05-03T11:02:36.499Z</time></trkpt><trkpt lat="43.064743" lon="12.7559305"><ele>370.3333333333333</ele><time>2026-05-03T11:02:37.5Z</time></trkpt><trkpt lat="43.064583" lon="12.7558975"><ele>372.0</ele><time>2026-05-03T11:02:38.499Z</time></trkpt><trkpt lat="43.0644152" lon="12.755866"><ele>372.0</ele><time>2026-05-03T11:02:39.501Z</time></trkpt><trkpt lat="43.0642476" lon="12.755836"><ele>372.0</ele><time>2026-05-03T11:02:40.498Z</time></trkpt><trkpt lat="43.0640728" lon="12.7558196"><ele>372.0</ele><time>2026-05-03T11:02:41.497Z</time></trkpt><trkpt lat="43.0638927" lon="12.7558068"><ele>371.0</ele><time>2026-05-03T11:02:42.495Z</time></trkpt><trkpt lat="43.0637065" lon="12.7558064"><ele>370.0</ele><time>2026-05-03T11:02:43.497Z</time></trkpt><trkpt lat="43.0635243" lon="12.7558112"><ele>369.0</ele><time>2026-05-03T11:02:44.496Z</time></trkpt><trkpt lat="43.0633435" lon="12.7558175"><ele>368.6666666666667</ele><time>2026-05-03T11:02:45.528Z</time></trkpt><trkpt lat="43.0631636" lon="12.7558131"><ele>368.33333333333337</ele><time>2026-05-03T11:02:46.5Z</time></trkpt><trkpt lat="43.0629856" lon="12.7558082"><ele>368.0</ele><time>2026-05-03T11:02:47.5Z</time></trkpt><trkpt lat="43.0628066" lon="12.755796"><ele>368.0</ele><time>2026-05-03T11:02:48.5Z</time></trkpt><trkpt lat="43.0626272" lon="12.7557746"><ele>368.0</ele><time>2026-05-03T11:02:49.496Z</time></trkpt><trkpt lat="43.0624457" lon="12.7557367"><ele>368.0</ele><time>2026-05-03T11:02:50.499Z</time></trkpt><trkpt lat="43.0622675" lon="12.7556997"><ele>367.33333333333337</ele><time>2026-05-03T11:02:51.497Z</time></trkpt><trkpt lat="43.0620899" lon="12.7555929"><ele>366.6666666666667</ele><time>2026-05-03T11:02:52.498Z</time></trkpt><trkpt lat="43.0619115" lon="12.7555031"><ele>366.0</ele><time>2026-05-03T11:02:53.497Z</time></trkpt><trkpt lat="43.0617507" lon="12.7554051"><ele>366.6666666666667</ele><time>2026-05-03T11:02:54.531Z</time></trkpt><trkpt lat="43.0615868" lon="12.7552863"><ele>367.33333333333337</ele><time>2026-05-03T11:02:55.499Z</time></trkpt><trkpt lat="43.0614183" lon="12.7551926"><ele>368.0</ele><time>2026-05-03T11:02:56.5Z</time></trkpt><trkpt lat="43.0612246" lon="12.7550795"><ele>368.0</ele><time>2026-05-03T11:02:57.498Z</time></trkpt><trkpt lat="43.0610532" lon="12.7549746"><ele>368.0</ele><time>2026-05-03T11:02:58.498Z</time></trkpt><trkpt lat="43.0608854" lon="12.7548657"><ele>368.0</ele><time>2026-05-03T11:02:59.497Z</time></trkpt><trkpt lat="43.0607223" lon="12.7547554"><ele>365.6666666666667</ele><time>2026-05-03T11:03:00.496Z</time></trkpt><trkpt lat="43.0605638" lon="12.7546509"><ele>363.3333333333333</ele><time>2026-05-03T11:03:01.499Z</time></trkpt><trkpt lat="43.0604116" lon="12.7545514"><ele>361.0</ele><time>2026-05-03T11:03:02.497Z</time></trkpt><trkpt lat="43.060256" lon="12.7544521"><ele>361.0</ele><time>2026-05-03T11:03:03.53Z</time></trkpt><trkpt lat="43.0601052" lon="12.7543716"><ele>361.0</ele><time>2026-05-03T11:03:04.496Z</time></trkpt><trkpt lat="43.0599559" lon="12.7542798"><ele>361.0</ele><time>2026-05-03T11:03:05.495Z</time></trkpt><trkpt lat="43.0598053" lon="12.7543826"><ele>361.5</ele><time>2026-05-03T11:03:06.499Z</time></trkpt><trkpt lat="43.0597145" lon="12.7543653"><ele>362.0</ele><time>2026-05-03T11:03:07.501Z</time></trkpt><trkpt lat="43.0596415" lon="12.754364"><ele>362.5</ele><time>2026-05-03T11:03:08.498Z</time></trkpt><trkpt lat="43.05957" lon="12.754321"><ele>363.0</ele><time>2026-05-03T11:03:09.495Z</time></trkpt><trkpt lat="43.0594979" lon="12.7543096"><ele>363.5</ele><time>2026-05-03T11:03:10.499Z</time></trkpt><trkpt lat="43.0594255" lon="12.754362"><ele>364.0</ele><time>2026-05-03T11:03:19.498Z</time></trkpt><trkpt lat="43.0593694" lon="12.7544046"><ele>364.0</ele><time>2026-05-03T11:03:20.497Z</time></trkpt><trkpt lat="43.0592877" lon="12.7544172"><ele>364.0</ele><time>2026-05-03T11:03:21.505Z</time></trkpt><trkpt lat="43.0592193" lon="12.7544277"><ele>364.0</ele><time>2026-05-03T11:03:22.498Z</time></trkpt><trkpt lat="43.0591495" lon="12.7544201"><ele>364.0</ele><time>2026-05-03T11:03:23.496Z</time></trkpt><trkpt lat="43.0590791" lon="12.7544385"><ele>364.0</ele><time>2026-05-03T11:03:24.498Z</time></trkpt><trkpt lat="43.0589254" lon="12.7544933"><ele>363.85714285714283</ele><time>2026-05-03T11:03:26.501Z</time></trkpt><trkpt lat="43.0588386" lon="12.754513"><ele>363.7142857142857</ele><time>2026-05-03T11:03:27.505Z</time></trkpt><trkpt lat="43.058751" lon="12.7545281"><ele>363.57142857142856</ele><time>2026-05-03T11:03:28.497Z</time></trkpt><trkpt lat="43.0586793" lon="12.7545447"><ele>363.42857142857144</ele><time>2026-05-03T11:03:29.527Z</time></trkpt><trkpt lat="43.0586138" lon="12.7545469"><ele>363.2857142857143</ele><time>2026-05-03T11:03:30.499Z</time></trkpt><trkpt lat="43.058549" lon="12.7545492"><ele>363.1428571428571</ele><time>2026-05-03T11:03:31.527Z</time></trkpt><trkpt lat="43.0584819" lon="12.7545479"><ele>363.0</ele><time>2026-05-03T11:03:32.5Z</time></trkpt><trkpt lat="43.0584189" lon="12.7545506"><ele>363.0</ele><time>2026-05-03T11:03:33.497Z</time></trkpt><trkpt lat="43.0582977" lon="12.7545538"><ele>363.0</ele><time>2026-05-03T11:03:35.498Z</time></trkpt><trkpt lat="43.0581776" lon="12.7545592"><ele>363.0</ele><time>2026-05-03T11:03:37.497Z</time></trkpt><trkpt lat="43.0581141" lon="12.7545579"><ele>363.0</ele><time>2026-05-03T11:03:38.527Z</time></trkpt><trkpt lat="43.0580486" lon="12.754562"><ele>363.0</ele><time>2026-05-03T11:03:39.497Z</time></trkpt><trkpt lat="43.0579779" lon="12.7545646"><ele>363.0</ele><time>2026-05-03T11:03:40.496Z</time></trkpt><trkpt lat="43.0578965" lon="12.7545699"><ele>362.59999999999997</ele><time>2026-05-03T11:03:41.496Z</time></trkpt><trkpt lat="43.0578021" lon="12.7545846"><ele>362.2</ele><time>2026-05-03T11:03:42.495Z</time></trkpt><trkpt lat="43.0576999" lon="12.7545986"><ele>361.8</ele><time>2026-05-03T11:03:43.527Z</time></trkpt><trkpt lat="43.0575885" lon="12.7546287"><ele>361.4</ele><time>2026-05-03T11:03:44.498Z</time></trkpt><trkpt lat="43.0574754" lon="12.7546595"><ele>361.0</ele><time>2026-05-03T11:03:45.5Z</time></trkpt><trkpt lat="43.0573581" lon="12.7546956"><ele>360.75</ele><time>2026-05-03T11:03:46.53Z</time></trkpt><trkpt lat="43.0572363" lon="12.7547288"><ele>360.5</ele><time>2026-05-03T11:03:47.498Z</time></trkpt><trkpt lat="43.057122" lon="12.7547463"><ele>360.25</ele><time>2026-05-03T11:03:48.497Z</time></trkpt><trkpt lat="43.0570146" lon="12.7547763"><ele>360.0</ele><time>2026-05-03T11:03:49.498Z</time></trkpt><trkpt lat="43.0569035" lon="12.7547996"><ele>360.0</ele><time>2026-05-03T11:03:50.497Z</time></trkpt><trkpt lat="43.0567887" lon="12.7548074"><ele>360.0</ele><time>2026-05-03T11:03:51.497Z</time></trkpt><trkpt lat="43.0566709" lon="12.7548001"><ele>360.0</ele><time>2026-05-03T11:03:52.498Z</time></trkpt><trkpt lat="43.0565556" lon="12.7547857"><ele>360.0</ele><time>2026-05-03T11:03:53.498Z</time></trkpt><trkpt lat="43.0564313" lon="12.7547589"><ele>359.25</ele><time>2026-05-03T11:03:54.498Z</time></trkpt><trkpt lat="43.0563078" lon="12.7547295"><ele>358.5</ele><time>2026-05-03T11:03:55.497Z</time></trkpt><trkpt lat="43.0561776" lon="12.7546959"><ele>357.75</ele><time>2026-05-03T11:03:56.494Z</time></trkpt><trkpt lat="43.0560512" lon="12.754665"><ele>357.0</ele><time>2026-05-03T11:03:57.527Z</time></trkpt><trkpt lat="43.0559313" lon="12.7546327"><ele>357.0</ele><time>2026-05-03T11:03:58.525Z</time></trkpt><trkpt lat="43.0558143" lon="12.7546053"><ele>357.0</ele><time>2026-05-03T11:03:59.497Z</time></trkpt><trkpt lat="43.0556981" lon="12.7545775"><ele>357.0</ele><time>2026-05-03T11:04:00.531Z</time></trkpt><trkpt lat="43.0555739" lon="12.754544"><ele>357.0</ele><time>2026-05-03T11:04:01.497Z</time></trkpt><trkpt lat="43.0554402" lon="12.7545133"><ele>357.0</ele><time>2026-05-03T11:04:02.498Z</time></trkpt><trkpt lat="43.0553124" lon="12.7544894"><ele>357.0</ele><time>2026-05-03T11:04:03.499Z</time></trkpt><trkpt lat="43.0551877" lon="12.7544723"><ele>357.0</ele><time>2026-05-03T11:04:04.526Z</time></trkpt><trkpt lat="43.0550624" lon="12.7544648"><ele>357.0</ele><time>2026-05-03T11:04:05.524Z</time></trkpt><trkpt lat="43.0549352" lon="12.7544601"><ele>357.0</ele><time>2026-05-03T11:04:06.496Z</time></trkpt><trkpt lat="43.054802" lon="12.7544689"><ele>357.0</ele><time>2026-05-03T11:04:07.497Z</time></trkpt><trkpt lat="43.0546703" lon="12.754482"><ele>357.0</ele><time>2026-05-03T11:04:08.526Z</time></trkpt><trkpt lat="43.054578" lon="12.7545267"><ele>357.0</ele><time>2026-05-03T11:04:09.524Z</time></trkpt><trkpt lat="43.0544807" lon="12.7545413"><ele>357.0</ele><time>2026-05-03T11:04:10.5Z</time></trkpt><trkpt lat="43.0543824" lon="12.7545607"><ele>357.0</ele><time>2026-05-03T11:04:11.524Z</time></trkpt><trkpt lat="43.0542959" lon="12.7545683"><ele>357.0</ele><time>2026-05-03T11:04:12.49Z</time></trkpt><trkpt lat="43.054206" lon="12.7546254"><ele>357.0</ele><time>2026-05-03T11:04:13.53Z</time></trkpt><trkpt lat="43.0541062" lon="12.7546671"><ele>357.0</ele><time>2026-05-03T11:04:14.497Z</time></trkpt><trkpt lat="43.053975" lon="12.7546898"><ele>357.5</ele><time>2026-05-03T11:04:15.498Z</time></trkpt><trkpt lat="43.0538448" lon="12.7547153"><ele>358.0</ele><time>2026-05-03T11:04:16.495Z</time></trkpt><trkpt lat="43.0537088" lon="12.7547503"><ele>358.5</ele><time>2026-05-03T11:04:17.498Z</time></trkpt><trkpt lat="43.0535656" lon="12.7547868"><ele>359.0</ele><time>2026-05-03T11:04:18.525Z</time></trkpt><trkpt lat="43.0534288" lon="12.7547966"><ele>359.0</ele><time>2026-05-03T11:04:19.496Z</time></trkpt><trkpt lat="43.053288" lon="12.7548182"><ele>359.0</ele><time>2026-05-03T11:04:20.498Z</time></trkpt><trkpt lat="43.0531406" lon="12.7548272"><ele>359.0</ele><time>2026-05-03T11:04:21.498Z</time></trkpt><trkpt lat="43.0529958" lon="12.7548273"><ele>359.0</ele><time>2026-05-03T11:04:22.498Z</time></trkpt><trkpt lat="43.0528543" lon="12.7548252"><ele>359.0</ele><time>2026-05-03T11:04:23.499Z</time></trkpt><trkpt lat="43.0527179" lon="12.7548229"><ele>359.0</ele><time>2026-05-03T11:04:24.532Z</time></trkpt><trkpt lat="43.0525774" lon="12.7548232"><ele>359.0</ele><time>2026-05-03T11:04:25.499Z</time></trkpt><trkpt lat="43.0524386" lon="12.7548213"><ele>359.0</ele><time>2026-05-03T11:04:26.497Z</time></trkpt><trkpt lat="43.052305" lon="12.7548191"><ele>358.25</ele><time>2026-05-03T11:04:27.498Z</time></trkpt><trkpt lat="43.0521739" lon="12.7548015"><ele>357.5</ele><time>2026-05-03T11:04:28.497Z</time></trkpt><trkpt lat="43.0520517" lon="12.7547537"><ele>356.75</ele><time>2026-05-03T11:04:29.523Z</time></trkpt><trkpt lat="43.0519376" lon="12.7546942"><ele>356.0</ele><time>2026-05-03T11:04:30.5Z</time></trkpt><trkpt lat="43.0518399" lon="12.7546436"><ele>356.0</ele><time>2026-05-03T11:04:31.498Z</time></trkpt><trkpt lat="43.0517286" lon="12.7546044"><ele>356.0</ele><time>2026-05-03T11:04:32.5Z</time></trkpt><trkpt lat="43.0516102" lon="12.754575"><ele>356.0</ele><time>2026-05-03T11:04:33.496Z</time></trkpt><trkpt lat="43.0514987" lon="12.7545547"><ele>356.0</ele><time>2026-05-03T11:04:34.499Z</time></trkpt><trkpt lat="43.0513572" lon="12.7545642"><ele>355.6666666666667</ele><time>2026-05-03T11:04:35.499Z</time></trkpt><trkpt lat="43.0512315" lon="12.7545677"><ele>355.3333333333333</ele><time>2026-05-03T11:04:36.53Z</time></trkpt><trkpt lat="43.0510622" lon="12.7546322"><ele>355.0</ele><time>2026-05-03T11:04:37.497Z</time></trkpt><trkpt lat="43.0508953" lon="12.754679"><ele>354.3333333333333</ele><time>2026-05-03T11:04:38.499Z</time></trkpt><trkpt lat="43.0507153" lon="12.7547233"><ele>353.6666666666667</ele><time>2026-05-03T11:04:39.499Z</time></trkpt><trkpt lat="43.050531" lon="12.7547368"><ele>353.0</ele><time>2026-05-03T11:04:40.497Z</time></trkpt><trkpt lat="43.0503496" lon="12.7547293"><ele>353.0</ele><time>2026-05-03T11:04:41.497Z</time></trkpt><trkpt lat="43.0501666" lon="12.7547126"><ele>353.0</ele><time>2026-05-03T11:04:42.496Z</time></trkpt><trkpt lat="43.0499827" lon="12.7547015"><ele>353.0</ele><time>2026-05-03T11:04:43.524Z</time></trkpt><trkpt lat="43.0497963" lon="12.7546908"><ele>353.33333333333337</ele><time>2026-05-03T11:04:44.497Z</time></trkpt><trkpt lat="43.049617" lon="12.7546842"><ele>353.6666666666667</ele><time>2026-05-03T11:04:45.5Z</time></trkpt><trkpt lat="43.0494356" lon="12.754678"><ele>354.0</ele><time>2026-05-03T11:04:46.492Z</time></trkpt><trkpt lat="43.0492488" lon="12.7546813"><ele>354.0</ele><time>2026-05-03T11:04:47.495Z</time></trkpt><trkpt lat="43.0490672" lon="12.7546852"><ele>354.0</ele><time>2026-05-03T11:04:48.497Z</time></trkpt><trkpt lat="43.0488928" lon="12.754683"><ele>354.0</ele><time>2026-05-03T11:04:49.527Z</time></trkpt><trkpt lat="43.0487079" lon="12.7546783"><ele>354.0</ele><time>2026-05-03T11:04:50.5Z</time></trkpt><trkpt lat="43.0485275" lon="12.7546702"><ele>354.0</ele><time>2026-05-03T11:04:51.496Z</time></trkpt><trkpt lat="43.0483481" lon="12.7546435"><ele>354.0</ele><time>2026-05-03T11:04:52.497Z</time></trkpt><trkpt lat="43.0481742" lon="12.7545896"><ele>353.0</ele><time>2026-05-03T11:04:53.496Z</time></trkpt><trkpt lat="43.0480084" lon="12.7545559"><ele>352.0</ele><time>2026-05-03T11:04:54.497Z</time></trkpt><trkpt lat="43.0478497" lon="12.7545202"><ele>351.0</ele><time>2026-05-03T11:04:55.499Z</time></trkpt><trkpt lat="43.047704" lon="12.7545021"><ele>351.0</ele><time>2026-05-03T11:04:56.528Z</time></trkpt><trkpt lat="43.0475638" lon="12.7545296"><ele>351.0</ele><time>2026-05-03T11:04:57.497Z</time></trkpt><trkpt lat="43.0474205" lon="12.7546133"><ele>351.0</ele><time>2026-05-03T11:04:58.496Z</time></trkpt><trkpt lat="43.0472838" lon="12.7547235"><ele>352.75</ele><time>2026-05-03T11:04:59.496Z</time></trkpt><trkpt lat="43.0471638" lon="12.7548366"><ele>354.5</ele><time>2026-05-03T11:05:00.496Z</time></trkpt><trkpt lat="43.0470421" lon="12.7549318"><ele>356.25</ele><time>2026-05-03T11:05:01.499Z</time></trkpt><trkpt lat="43.0469146" lon="12.7550239"><ele>358.0</ele><time>2026-05-03T11:05:02.498Z</time></trkpt><trkpt lat="43.0467813" lon="12.7551198"><ele>358.0</ele><time>2026-05-03T11:05:03.527Z</time></trkpt><trkpt lat="43.0466411" lon="12.7552022"><ele>358.0</ele><time>2026-05-03T11:05:04.529Z</time></trkpt><trkpt lat="43.0464912" lon="12.7552683"><ele>358.0</ele><time>2026-05-03T11:05:05.496Z</time></trkpt><trkpt lat="43.0463328" lon="12.7553205"><ele>354.66666666666663</ele><time>2026-05-03T11:05:06.499Z</time></trkpt><trkpt lat="43.0461675" lon="12.7553555"><ele>351.3333333333333</ele><time>2026-05-03T11:05:07.496Z</time></trkpt><trkpt lat="43.0459983" lon="12.7553549"><ele>348.0</ele><time>2026-05-03T11:05:08.496Z</time></trkpt><trkpt lat="43.0458221" lon="12.7553258"><ele>347.3333333333333</ele><time>2026-05-03T11:05:09.527Z</time></trkpt><trkpt lat="43.0456382" lon="12.755285"><ele>346.66666666666663</ele><time>2026-05-03T11:05:10.497Z</time></trkpt><trkpt lat="43.0454442" lon="12.7552391"><ele>346.0</ele><time>2026-05-03T11:05:11.498Z</time></trkpt><trkpt lat="43.0452638" lon="12.7551872"><ele>345.66666666666663</ele><time>2026-05-03T11:05:12.496Z</time></trkpt><trkpt lat="43.0450849" lon="12.7551278"><ele>345.3333333333333</ele><time>2026-05-03T11:05:13.496Z</time></trkpt><trkpt lat="43.044907" lon="12.7550276"><ele>345.0</ele><time>2026-05-03T11:05:14.497Z</time></trkpt><trkpt lat="43.0447294" lon="12.7549024"><ele>345.0</ele><time>2026-05-03T11:05:15.498Z</time></trkpt><trkpt lat="43.0445498" lon="12.754776"><ele>345.0</ele><time>2026-05-03T11:05:16.499Z</time></trkpt><trkpt lat="43.0444148" lon="12.754642"><ele>345.0</ele><time>2026-05-03T11:05:17.496Z</time></trkpt><trkpt lat="43.0442685" lon="12.7544914"><ele>345.0</ele><time>2026-05-03T11:05:18.496Z</time></trkpt><trkpt lat="43.0441509" lon="12.7543279"><ele>345.0</ele><time>2026-05-03T11:05:19.525Z</time></trkpt><trkpt lat="43.0440485" lon="12.7541631"><ele>345.0</ele><time>2026-05-03T11:05:20.499Z</time></trkpt><trkpt lat="43.0439569" lon="12.7540139"><ele>345.0</ele><time>2026-05-03T11:05:21.498Z</time></trkpt><trkpt lat="43.0438731" lon="12.7538664"><ele>345.0</ele><time>2026-05-03T11:05:22.498Z</time></trkpt><trkpt lat="43.0437961" lon="12.7537365"><ele>345.0</ele><time>2026-05-03T11:05:23.497Z</time></trkpt><trkpt lat="43.0437254" lon="12.7536096"><ele>345.0</ele><time>2026-05-03T11:05:24.529Z</time></trkpt><trkpt lat="43.0436545" lon="12.7535545"><ele>344.8</ele><time>2026-05-03T11:05:25.497Z</time></trkpt><trkpt lat="43.043534" lon="12.7535"><ele>344.6</ele><time>2026-05-03T11:05:26.498Z</time></trkpt><trkpt lat="43.0434631" lon="12.7534037"><ele>344.4</ele><time>2026-05-03T11:05:27.496Z</time></trkpt><trkpt lat="43.0433767" lon="12.7533172"><ele>344.2</ele><time>2026-05-03T11:05:28.496Z</time></trkpt><trkpt lat="43.0432793" lon="12.7532344"><ele>344.0</ele><time>2026-05-03T11:05:29.495Z</time></trkpt><trkpt lat="43.0431936" lon="12.7533374"><ele>344.0</ele><time>2026-05-03T11:05:30.497Z</time></trkpt><trkpt lat="43.0431098" lon="12.7533986"><ele>344.0</ele><time>2026-05-03T11:05:31.496Z</time></trkpt><trkpt lat="43.0430358" lon="12.7534812"><ele>344.0</ele><time>2026-05-03T11:05:32.496Z</time></trkpt><trkpt lat="43.0429539" lon="12.7536261"><ele>344.0</ele><time>2026-05-03T11:05:33.496Z</time></trkpt><trkpt lat="43.0428584" lon="12.753788"><ele>343.25</ele><time>2026-05-03T11:05:34.499Z</time></trkpt><trkpt lat="43.0427753" lon="12.7539295"><ele>342.5</ele><time>2026-05-03T11:05:35.529Z</time></trkpt><trkpt lat="43.0426916" lon="12.7540508"><ele>341.75</ele><time>2026-05-03T11:05:36.496Z</time></trkpt><trkpt lat="43.042612" lon="12.7541698"><ele>341.0</ele><time>2026-05-03T11:05:37.496Z</time></trkpt><trkpt lat="43.0425373" lon="12.7542693"><ele>341.0</ele><time>2026-05-03T11:05:38.497Z</time></trkpt><trkpt lat="43.0424556" lon="12.7543658"><ele>341.0</ele><time>2026-05-03T11:05:39.527Z</time></trkpt><trkpt lat="43.0423684" lon="12.7544443"><ele>341.0</ele><time>2026-05-03T11:05:40.498Z</time></trkpt><trkpt lat="43.042258" lon="12.7544903"><ele>341.0</ele><time>2026-05-03T11:05:41.528Z</time></trkpt><trkpt lat="43.042133" lon="12.7545029"><ele>343.5</ele><time>2026-05-03T11:05:42.496Z</time></trkpt><trkpt lat="43.0419884" lon="12.7545165"><ele>346.0</ele><time>2026-05-03T11:05:43.496Z</time></trkpt><trkpt lat="43.0418441" lon="12.7545562"><ele>348.5</ele><time>2026-05-03T11:05:44.496Z</time></trkpt><trkpt lat="43.0417089" lon="12.7546112"><ele>351.0</ele><time>2026-05-03T11:05:45.498Z</time></trkpt><trkpt lat="43.0415813" lon="12.7546431"><ele>352.75</ele><time>2026-05-03T11:05:46.496Z</time></trkpt><trkpt lat="43.0414511" lon="12.7546465"><ele>354.5</ele><time>2026-05-03T11:05:47.497Z</time></trkpt><trkpt lat="43.0413199" lon="12.7546268"><ele>356.25</ele><time>2026-05-03T11:05:48.498Z</time></trkpt><trkpt lat="43.0411981" lon="12.7546033"><ele>358.0</ele><time>2026-05-03T11:05:49.498Z</time></trkpt><trkpt lat="43.0410865" lon="12.7545855"><ele>358.0</ele><time>2026-05-03T11:05:50.496Z</time></trkpt><trkpt lat="43.0409813" lon="12.7545596"><ele>358.0</ele><time>2026-05-03T11:05:51.525Z</time></trkpt><trkpt lat="43.0408817" lon="12.7545326"><ele>358.0</ele><time>2026-05-03T11:05:52.497Z</time></trkpt><trkpt lat="43.0407829" lon="12.7545124"><ele>358.0</ele><time>2026-05-03T11:05:53.503Z</time></trkpt><trkpt lat="43.0406817" lon="12.7545046"><ele>358.0</ele><time>2026-05-03T11:05:54.497Z</time></trkpt><trkpt lat="43.0405833" lon="12.754497"><ele>353.75</ele><time>2026-05-03T11:05:55.528Z</time></trkpt><trkpt lat="43.0404927" lon="12.7545657"><ele>349.5</ele><time>2026-05-03T11:05:56.502Z</time></trkpt><trkpt lat="43.0404052" lon="12.7546016"><ele>345.25</ele><time>2026-05-03T11:05:57.498Z</time></trkpt><trkpt lat="43.0403214" lon="12.7546679"><ele>341.0</ele><time>2026-05-03T11:05:58.496Z</time></trkpt><trkpt lat="43.0402203" lon="12.754901"><ele>341.0</ele><time>2026-05-03T11:05:59.498Z</time></trkpt><trkpt lat="43.040132" lon="12.7550478"><ele>341.0</ele><time>2026-05-03T11:06:00.496Z</time></trkpt><trkpt lat="43.0400024" lon="12.7552286"><ele>341.0</ele><time>2026-05-03T11:06:01.496Z</time></trkpt><trkpt lat="43.0399052" lon="12.7553878"><ele>340.33333333333337</ele><time>2026-05-03T11:06:02.496Z</time></trkpt><trkpt lat="43.039803" lon="12.7555429"><ele>339.6666666666667</ele><time>2026-05-03T11:06:03.498Z</time></trkpt><trkpt lat="43.0396935" lon="12.7556844"><ele>339.0</ele><time>2026-05-03T11:06:04.498Z</time></trkpt><trkpt lat="43.0395781" lon="12.7558127"><ele>339.0</ele><time>2026-05-03T11:06:05.495Z</time></trkpt><trkpt lat="43.0394596" lon="12.7559485"><ele>339.0</ele><time>2026-05-03T11:06:06.494Z</time></trkpt><trkpt lat="43.0393364" lon="12.7560779"><ele>339.0</ele><time>2026-05-03T11:06:07.498Z</time></trkpt><trkpt lat="43.0392187" lon="12.7562277"><ele>339.3333333333333</ele><time>2026-05-03T11:06:08.527Z</time></trkpt><trkpt lat="43.0391136" lon="12.7564039"><ele>339.66666666666663</ele><time>2026-05-03T11:06:09.495Z</time></trkpt><trkpt lat="43.03901" lon="12.7565885"><ele>340.0</ele><time>2026-05-03T11:06:10.497Z</time></trkpt><trkpt lat="43.0388997" lon="12.7567706"><ele>339.3333333333333</ele><time>2026-05-03T11:06:11.498Z</time></trkpt><trkpt lat="43.0387869" lon="12.7569543"><ele>338.6666666666667</ele><time>2026-05-03T11:06:12.498Z</time></trkpt><trkpt lat="43.0386629" lon="12.7570965"><ele>338.0</ele><time>2026-05-03T11:06:13.499Z</time></trkpt><trkpt lat="43.0385563" lon="12.7572676"><ele>338.0</ele><time>2026-05-03T11:06:14.525Z</time></trkpt><trkpt lat="43.0384176" lon="12.7574287"><ele>338.0</ele><time>2026-05-03T11:06:15.497Z</time></trkpt><trkpt lat="43.0382937" lon="12.7575848"><ele>338.0</ele><time>2026-05-03T11:06:16.496Z</time></trkpt><trkpt lat="43.038147" lon="12.7577285"><ele>337.6666666666667</ele><time>2026-05-03T11:06:17.498Z</time></trkpt><trkpt lat="43.0380195" lon="12.7578698"><ele>337.3333333333333</ele><time>2026-05-03T11:06:18.497Z</time></trkpt><trkpt lat="43.0378734" lon="12.7580149"><ele>337.0</ele><time>2026-05-03T11:06:19.498Z</time></trkpt><trkpt lat="43.0377115" lon="12.7581267"><ele>337.0</ele><time>2026-05-03T11:06:20.499Z</time></trkpt><trkpt lat="43.037561" lon="12.7582421"><ele>337.0</ele><time>2026-05-03T11:06:21.497Z</time></trkpt><trkpt lat="43.0373992" lon="12.7583254"><ele>337.0</ele><time>2026-05-03T11:06:22.497Z</time></trkpt><trkpt lat="43.0372388" lon="12.7584129"><ele>337.3333333333333</ele><time>2026-05-03T11:06:23.496Z</time></trkpt><trkpt lat="43.0370874" lon="12.7584961"><ele>337.6666666666667</ele><time>2026-05-03T11:06:24.498Z</time></trkpt><trkpt lat="43.0369452" lon="12.7585738"><ele>338.0</ele><time>2026-05-03T11:06:25.499Z</time></trkpt><trkpt lat="43.0368068" lon="12.7586717"><ele>338.0</ele><time>2026-05-03T11:06:26.499Z</time></trkpt><trkpt lat="43.0366691" lon="12.7587513"><ele>338.0</ele><time>2026-05-03T11:06:27.498Z</time></trkpt><trkpt lat="43.0365533" lon="12.7588401"><ele>338.0</ele><time>2026-05-03T11:06:28.497Z</time></trkpt><trkpt lat="43.0364305" lon="12.7589921"><ele>338.0</ele><time>2026-05-03T11:06:29.524Z</time></trkpt><trkpt lat="43.0363147" lon="12.7590959"><ele>339.0</ele><time>2026-05-03T11:06:30.497Z</time></trkpt><trkpt lat="43.0361947" lon="12.7591869"><ele>340.0</ele><time>2026-05-03T11:06:31.497Z</time></trkpt><trkpt lat="43.0360765" lon="12.7592644"><ele>341.0</ele><time>2026-05-03T11:06:32.498Z</time></trkpt><trkpt lat="43.0359721" lon="12.759357"><ele>342.0</ele><time>2026-05-03T11:06:33.526Z</time></trkpt><trkpt lat="43.0358778" lon="12.7594617"><ele>339.5</ele><time>2026-05-03T11:06:34.499Z</time></trkpt><trkpt lat="43.0357734" lon="12.7595474"><ele>337.0</ele><time>2026-05-03T11:06:35.5Z</time></trkpt><trkpt lat="43.0356681" lon="12.759633"><ele>334.5</ele><time>2026-05-03T11:06:36.499Z</time></trkpt><trkpt lat="43.0355657" lon="12.7597309"><ele>332.0</ele><time>2026-05-03T11:06:37.492Z</time></trkpt><trkpt lat="43.0354224" lon="12.7598083"><ele>332.0</ele><time>2026-05-03T11:06:38.527Z</time></trkpt><trkpt lat="43.0352947" lon="12.7598704"><ele>332.0</ele><time>2026-05-03T11:06:39.493Z</time></trkpt><trkpt lat="43.0351593" lon="12.759928"><ele>332.0</ele><time>2026-05-03T11:06:40.5Z</time></trkpt><trkpt lat="43.0350391" lon="12.7599826"><ele>332.0</ele><time>2026-05-03T11:06:41.498Z</time></trkpt><trkpt lat="43.0349091" lon="12.7600274"><ele>331.5</ele><time>2026-05-03T11:06:42.499Z</time></trkpt><trkpt lat="43.034784" lon="12.7600548"><ele>331.0</ele><time>2026-05-03T11:06:43.528Z</time></trkpt><trkpt lat="43.0346715" lon="12.7600864"><ele>330.5</ele><time>2026-05-03T11:06:44.499Z</time></trkpt><trkpt lat="43.0345574" lon="12.7601209"><ele>330.0</ele><time>2026-05-03T11:06:45.528Z</time></trkpt><trkpt lat="43.0344421" lon="12.7601719"><ele>330.5</ele><time>2026-05-03T11:06:46.498Z</time></trkpt><trkpt lat="43.0343322" lon="12.7602554"><ele>331.0</ele><time>2026-05-03T11:06:47.498Z</time></trkpt><trkpt lat="43.034221" lon="12.7603548"><ele>331.5</ele><time>2026-05-03T11:06:48.498Z</time></trkpt><trkpt lat="43.0341037" lon="12.7604568"><ele>332.0</ele><time>2026-05-03T11:06:49.498Z</time></trkpt><trkpt lat="43.0339822" lon="12.7605455"><ele>332.0</ele><time>2026-05-03T11:06:50.498Z</time></trkpt><trkpt lat="43.0338626" lon="12.7606291"><ele>332.0</ele><time>2026-05-03T11:06:51.498Z</time></trkpt><trkpt lat="43.0337485" lon="12.7607008"><ele>332.0</ele><time>2026-05-03T11:06:52.5Z</time></trkpt><trkpt lat="43.0336391" lon="12.7607633"><ele>332.0</ele><time>2026-05-03T11:06:53.494Z</time></trkpt><trkpt lat="43.0335321" lon="12.7608143"><ele>332.0</ele><time>2026-05-03T11:06:54.497Z</time></trkpt><trkpt lat="43.0334291" lon="12.7608636"><ele>332.0</ele><time>2026-05-03T11:06:55.494Z</time></trkpt><trkpt lat="43.0333268" lon="12.7609105"><ele>332.0</ele><time>2026-05-03T11:06:56.529Z</time></trkpt><trkpt lat="43.0332267" lon="12.760957"><ele>332.0</ele><time>2026-05-03T11:06:57.498Z</time></trkpt><trkpt lat="43.0331282" lon="12.7609929"><ele>332.0</ele><time>2026-05-03T11:06:58.498Z</time></trkpt><trkpt lat="43.0330287" lon="12.7610295"><ele>333.0</ele><time>2026-05-03T11:06:59.497Z</time></trkpt><trkpt lat="43.0329252" lon="12.7610708"><ele>334.0</ele><time>2026-05-03T11:07:00.496Z</time></trkpt><trkpt lat="43.0328277" lon="12.761084"><ele>335.0</ele><time>2026-05-03T11:07:01.523Z</time></trkpt><trkpt lat="43.0327337" lon="12.7611034"><ele>336.0</ele><time>2026-05-03T11:07:02.499Z</time></trkpt><trkpt lat="43.0326378" lon="12.7611201"><ele>337.0</ele><time>2026-05-03T11:07:03.5Z</time></trkpt><trkpt lat="43.0325511" lon="12.7611313"><ele>336.0</ele><time>2026-05-03T11:07:04.498Z</time></trkpt><trkpt lat="43.0324659" lon="12.7611419"><ele>335.0</ele><time>2026-05-03T11:07:05.525Z</time></trkpt><trkpt lat="43.0323779" lon="12.7611505"><ele>334.0</ele><time>2026-05-03T11:07:06.498Z</time></trkpt><trkpt lat="43.0322909" lon="12.7611588"><ele>333.0</ele><time>2026-05-03T11:07:07.499Z</time></trkpt><trkpt lat="43.0322007" lon="12.7611774"><ele>332.0</ele><time>2026-05-03T11:07:08.497Z</time></trkpt><trkpt lat="43.0321174" lon="12.7611994"><ele>331.0</ele><time>2026-05-03T11:07:09.495Z</time></trkpt><trkpt lat="43.0320071" lon="12.7611951"><ele>331.0</ele><time>2026-05-03T11:07:10.523Z</time></trkpt><trkpt lat="43.0319065" lon="12.7611923"><ele>331.0</ele><time>2026-05-03T11:07:11.497Z</time></trkpt><trkpt lat="43.0317904" lon="12.7611951"><ele>331.0</ele><time>2026-05-03T11:07:12.497Z</time></trkpt><trkpt lat="43.0316792" lon="12.7611997"><ele>331.0</ele><time>2026-05-03T11:07:13.497Z</time></trkpt><trkpt lat="43.031566" lon="12.7611832"><ele>331.0</ele><time>2026-05-03T11:07:14.495Z</time></trkpt><trkpt lat="43.0314401" lon="12.7611648"><ele>331.5</ele><time>2026-05-03T11:07:15.527Z</time></trkpt><trkpt lat="43.0313174" lon="12.7611281"><ele>332.0</ele><time>2026-05-03T11:07:16.498Z</time></trkpt><trkpt lat="43.0311966" lon="12.76109"><ele>332.5</ele><time>2026-05-03T11:07:17.498Z</time></trkpt><trkpt lat="43.0310897" lon="12.7610477"><ele>333.0</ele><time>2026-05-03T11:07:18.528Z</time></trkpt><trkpt lat="43.0309793" lon="12.7609986"><ele>331.79999999999995</ele><time>2026-05-03T11:07:19.498Z</time></trkpt><trkpt lat="43.0308958" lon="12.7609528"><ele>330.6</ele><time>2026-05-03T11:07:20.499Z</time></trkpt><trkpt lat="43.0308094" lon="12.7609006"><ele>329.4</ele><time>2026-05-03T11:07:21.499Z</time></trkpt><trkpt lat="43.0307303" lon="12.7608698"><ele>328.20000000000005</ele><time>2026-05-03T11:07:22.496Z</time></trkpt><trkpt lat="43.030665" lon="12.7608737"><ele>327.0</ele><time>2026-05-03T11:07:23.527Z</time></trkpt><trkpt lat="43.0305914" lon="12.761"><ele>327.25</ele><time>2026-05-03T11:07:25.532Z</time></trkpt><trkpt lat="43.0305272" lon="12.7612326"><ele>327.5</ele><time>2026-05-03T11:07:27.498Z</time></trkpt><trkpt lat="43.0304935" lon="12.7613369"><ele>327.75</ele><time>2026-05-03T11:07:28.497Z</time></trkpt><trkpt lat="43.0304544" lon="12.7614473"><ele>328.0</ele><time>2026-05-03T11:07:29.498Z</time></trkpt><trkpt lat="43.0303858" lon="12.7615393"><ele>328.0</ele><time>2026-05-03T11:07:30.5Z</time></trkpt><trkpt lat="43.0303035" lon="12.7616075"><ele>328.0</ele><time>2026-05-03T11:07:31.502Z</time></trkpt><trkpt lat="43.0302142" lon="12.7616844"><ele>328.0</ele><time>2026-05-03T11:07:32.502Z</time></trkpt><trkpt lat="43.0301226" lon="12.7617883"><ele>328.0</ele><time>2026-05-03T11:07:33.498Z</time></trkpt><trkpt lat="43.0300408" lon="12.7618821"><ele>328.0</ele><time>2026-05-03T11:07:34.53Z</time></trkpt><trkpt lat="43.0299977" lon="12.7620634"><ele>327.75</ele><time>2026-05-03T11:07:35.531Z</time></trkpt><trkpt lat="43.0299332" lon="12.7622148"><ele>327.5</ele><time>2026-05-03T11:07:36.498Z</time></trkpt><trkpt lat="43.0298636" lon="12.7623514"><ele>327.25</ele><time>2026-05-03T11:07:37.498Z</time></trkpt><trkpt lat="43.0297731" lon="12.7624609"><ele>327.0</ele><time>2026-05-03T11:07:38.5Z</time></trkpt><trkpt lat="43.029678" lon="12.7625496"><ele>327.0</ele><time>2026-05-03T11:07:39.499Z</time></trkpt><trkpt lat="43.029595" lon="12.7626145"><ele>327.0</ele><time>2026-05-03T11:07:40.497Z</time></trkpt><trkpt lat="43.0295398" lon="12.7626624"><ele>327.0</ele><time>2026-05-03T11:07:41.499Z</time></trkpt><trkpt lat="43.0294738" lon="12.7627149"><ele>327.0</ele><time>2026-05-03T11:07:43.525Z</time></trkpt><trkpt lat="43.0294484" lon="12.7628557"><ele>327.0</ele><time>2026-05-03T11:07:46.508Z</time></trkpt><trkpt lat="43.0294599" lon="12.7629707"><ele>327.0</ele><time>2026-05-03T11:07:47.496Z</time></trkpt><trkpt lat="43.0294722" lon="12.7631115"><ele>327.75</ele><time>2026-05-03T11:07:48.501Z</time></trkpt><trkpt lat="43.0294721" lon="12.76327"><ele>328.5</ele><time>2026-05-03T11:07:49.528Z</time></trkpt><trkpt lat="43.0294598" lon="12.7634485"><ele>329.25</ele><time>2026-05-03T11:07:50.496Z</time></trkpt><trkpt lat="43.0294453" lon="12.7636326"><ele>330.0</ele><time>2026-05-03T11:07:51.527Z</time></trkpt><trkpt lat="43.0294302" lon="12.7638284"><ele>330.75</ele><time>2026-05-03T11:07:52.498Z</time></trkpt><trkpt lat="43.0294136" lon="12.7640351"><ele>331.5</ele><time>2026-05-03T11:07:53.495Z</time></trkpt><trkpt lat="43.0294" lon="12.7642365"><ele>332.25</ele><time>2026-05-03T11:07:54.496Z</time></trkpt><trkpt lat="43.0293837" lon="12.7644378"><ele>333.0</ele><time>2026-05-03T11:07:55.499Z</time></trkpt><trkpt lat="43.0293669" lon="12.7646364"><ele>333.25</ele><time>2026-05-03T11:07:56.497Z</time></trkpt><trkpt lat="43.0293434" lon="12.7648397"><ele>333.5</ele><time>2026-05-03T11:07:57.496Z</time></trkpt><trkpt lat="43.0293212" lon="12.7650376"><ele>333.75</ele><time>2026-05-03T11:07:58.527Z</time></trkpt><trkpt lat="43.0293026" lon="12.7652352"><ele>334.0</ele><time>2026-05-03T11:07:59.493Z</time></trkpt><trkpt lat="43.0292821" lon="12.7654385"><ele>335.0</ele><time>2026-05-03T11:08:00.523Z</time></trkpt><trkpt lat="43.0292599" lon="12.7656389"><ele>336.0</ele><time>2026-05-03T11:08:01.497Z</time></trkpt><trkpt lat="43.0292457" lon="12.7658329"><ele>337.0</ele><time>2026-05-03T11:08:02.498Z</time></trkpt><trkpt lat="43.0292369" lon="12.7660275"><ele>338.0</ele><time>2026-05-03T11:08:03.498Z</time></trkpt><trkpt lat="43.0292174" lon="12.7662371"><ele>337.33333333333337</ele><time>2026-05-03T11:08:04.497Z</time></trkpt><trkpt lat="43.0292001" lon="12.7664315"><ele>336.6666666666667</ele><time>2026-05-03T11:08:05.497Z</time></trkpt><trkpt lat="43.0291772" lon="12.7666161"><ele>336.0</ele><time>2026-05-03T11:08:06.497Z</time></trkpt><trkpt lat="43.0291195" lon="12.7670057"><ele>336.0</ele><time>2026-05-03T11:08:08.496Z</time></trkpt><trkpt lat="43.0291066" lon="12.7672059"><ele>336.0</ele><time>2026-05-03T11:08:09.527Z</time></trkpt><trkpt lat="43.029088" lon="12.7673977"><ele>336.0</ele><time>2026-05-03T11:08:10.497Z</time></trkpt><trkpt lat="43.0290716" lon="12.7675661"><ele>336.0</ele><time>2026-05-03T11:08:11.498Z</time></trkpt><trkpt lat="43.0290495" lon="12.7677386"><ele>336.6</ele><time>2026-05-03T11:08:12.499Z</time></trkpt><trkpt lat="43.0290248" lon="12.7679049"><ele>337.20000000000005</ele><time>2026-05-03T11:08:13.497Z</time></trkpt><trkpt lat="43.0290194" lon="12.7680582"><ele>337.79999999999995</ele><time>2026-05-03T11:08:14.528Z</time></trkpt><trkpt lat="43.0289953" lon="12.7681733"><ele>338.4</ele><time>2026-05-03T11:08:15.499Z</time></trkpt><trkpt lat="43.0289465" lon="12.7683066"><ele>339.0</ele><time>2026-05-03T11:08:16.527Z</time></trkpt><trkpt lat="43.0288904" lon="12.7684386"><ele>339.0</ele><time>2026-05-03T11:08:17.497Z</time></trkpt><trkpt lat="43.0287783" lon="12.7685044"><ele>339.0</ele><time>2026-05-03T11:08:18.528Z</time></trkpt><trkpt lat="43.0286839" lon="12.7685817"><ele>339.0</ele><time>2026-05-03T11:08:19.498Z</time></trkpt><trkpt lat="43.0285698" lon="12.7686459"><ele>339.0</ele><time>2026-05-03T11:08:20.523Z</time></trkpt><trkpt lat="43.0284618" lon="12.7687048"><ele>339.25</ele><time>2026-05-03T11:08:21.497Z</time></trkpt><trkpt lat="43.0283473" lon="12.7687782"><ele>339.5</ele><time>2026-05-03T11:08:22.496Z</time></trkpt><trkpt lat="43.0282096" lon="12.7688639"><ele>339.75</ele><time>2026-05-03T11:08:23.5Z</time></trkpt><trkpt lat="43.0280754" lon="12.7689464"><ele>340.0</ele><time>2026-05-03T11:08:24.53Z</time></trkpt><trkpt lat="43.02794" lon="12.76903"><ele>340.0</ele><time>2026-05-03T11:08:25.499Z</time></trkpt><trkpt lat="43.0278025" lon="12.7691141"><ele>340.0</ele><time>2026-05-03T11:08:26.501Z</time></trkpt><trkpt lat="43.0276614" lon="12.7692009"><ele>340.0</ele><time>2026-05-03T11:08:27.498Z</time></trkpt><trkpt lat="43.0275107" lon="12.7692853"><ele>341.66666666666663</ele><time>2026-05-03T11:08:28.498Z</time></trkpt><trkpt lat="43.0273424" lon="12.7693799"><ele>343.3333333333333</ele><time>2026-05-03T11:08:29.5Z</time></trkpt><trkpt lat="43.027212" lon="12.769486"><ele>345.0</ele><time>2026-05-03T11:08:30.538Z</time></trkpt><trkpt lat="43.0270735" lon="12.7695839"><ele>345.0</ele><time>2026-05-03T11:08:31.496Z</time></trkpt><trkpt lat="43.0269298" lon="12.7696827"><ele>345.0</ele><time>2026-05-03T11:08:32.503Z</time></trkpt><trkpt lat="43.0267908" lon="12.7697791"><ele>345.0</ele><time>2026-05-03T11:08:33.499Z</time></trkpt><trkpt lat="43.0266415" lon="12.7698847"><ele>344.3333333333333</ele><time>2026-05-03T11:08:34.527Z</time></trkpt><trkpt lat="43.0264991" lon="12.7700145"><ele>343.66666666666663</ele><time>2026-05-03T11:08:35.499Z</time></trkpt><trkpt lat="43.0263614" lon="12.7701531"><ele>343.0</ele><time>2026-05-03T11:08:36.501Z</time></trkpt><trkpt lat="43.0262287" lon="12.7702748"><ele>343.75</ele><time>2026-05-03T11:08:37.499Z</time></trkpt><trkpt lat="43.026102" lon="12.7703935"><ele>344.5</ele><time>2026-05-03T11:08:38.498Z</time></trkpt><trkpt lat="43.0259832" lon="12.7705079"><ele>345.25</ele><time>2026-05-03T11:08:39.53Z</time></trkpt><trkpt lat="43.0258677" lon="12.7706135"><ele>346.0</ele><time>2026-05-03T11:08:40.498Z</time></trkpt><trkpt lat="43.0257601" lon="12.7707185"><ele>346.0</ele><time>2026-05-03T11:08:41.526Z</time></trkpt><trkpt lat="43.0256617" lon="12.7708298"><ele>346.0</ele><time>2026-05-03T11:08:42.498Z</time></trkpt><trkpt lat="43.0255682" lon="12.7709509"><ele>346.0</ele><time>2026-05-03T11:08:43.522Z</time></trkpt><trkpt lat="43.0254807" lon="12.7710885"><ele>346.0</ele><time>2026-05-03T11:08:44.498Z</time></trkpt><trkpt lat="43.0253861" lon="12.7712638"><ele>347.0</ele><time>2026-05-03T11:08:45.496Z</time></trkpt><trkpt lat="43.0252957" lon="12.7714726"><ele>348.0</ele><time>2026-05-03T11:08:46.497Z</time></trkpt><trkpt lat="43.025188" lon="12.7716919"><ele>349.0</ele><time>2026-05-03T11:08:47.497Z</time></trkpt><trkpt lat="43.0250755" lon="12.7719169"><ele>350.0</ele><time>2026-05-03T11:08:48.525Z</time></trkpt><trkpt lat="43.0249613" lon="12.7721311"><ele>351.0</ele><time>2026-05-03T11:08:49.498Z</time></trkpt><trkpt lat="43.0248391" lon="12.7723312"><ele>352.0</ele><time>2026-05-03T11:08:50.497Z</time></trkpt><trkpt lat="43.0247175" lon="12.7725326"><ele>354.3333333333333</ele><time>2026-05-03T11:08:51.496Z</time></trkpt><trkpt lat="43.0245994" lon="12.7727434"><ele>356.6666666666667</ele><time>2026-05-03T11:08:52.495Z</time></trkpt><trkpt lat="43.0244934" lon="12.7729266"><ele>359.0</ele><time>2026-05-03T11:08:53.498Z</time></trkpt><trkpt lat="43.0243852" lon="12.7731168"><ele>359.0</ele><time>2026-05-03T11:08:54.524Z</time></trkpt><trkpt lat="43.0242777" lon="12.7733207"><ele>359.0</ele><time>2026-05-03T11:08:55.498Z</time></trkpt><trkpt lat="43.0241633" lon="12.7735086"><ele>359.0</ele><time>2026-05-03T11:08:56.496Z</time></trkpt><trkpt lat="43.0240353" lon="12.7736872"><ele>359.33333333333337</ele><time>2026-05-03T11:08:57.498Z</time></trkpt><trkpt lat="43.0238991" lon="12.7738541"><ele>359.6666666666667</ele><time>2026-05-03T11:08:58.496Z</time></trkpt><trkpt lat="43.0237642" lon="12.7740157"><ele>360.0</ele><time>2026-05-03T11:08:59.497Z</time></trkpt><trkpt lat="43.023641" lon="12.7741814"><ele>359.3333333333333</ele><time>2026-05-03T11:09:00.496Z</time></trkpt><trkpt lat="43.0235067" lon="12.7743651"><ele>358.66666666666663</ele><time>2026-05-03T11:09:01.498Z</time></trkpt><trkpt lat="43.0233893" lon="12.7745094"><ele>358.0</ele><time>2026-05-03T11:09:02.494Z</time></trkpt><trkpt lat="43.0232674" lon="12.7746674"><ele>358.0</ele><time>2026-05-03T11:09:03.503Z</time></trkpt><trkpt lat="43.0231508" lon="12.7748219"><ele>358.0</ele><time>2026-05-03T11:09:04.495Z</time></trkpt><trkpt lat="43.0230323" lon="12.7749598"><ele>358.0</ele><time>2026-05-03T11:09:05.505Z</time></trkpt><trkpt lat="43.0229201" lon="12.7751099"><ele>360.3333333333333</ele><time>2026-05-03T11:09:06.531Z</time></trkpt><trkpt lat="43.0228069" lon="12.7752502"><ele>362.6666666666667</ele><time>2026-05-03T11:09:07.497Z</time></trkpt><trkpt lat="43.0226909" lon="12.7753888"><ele>365.0</ele><time>2026-05-03T11:09:08.531Z</time></trkpt><trkpt lat="43.0225799" lon="12.7755242"><ele>364.5</ele><time>2026-05-03T11:09:09.499Z</time></trkpt><trkpt lat="43.0224718" lon="12.7756529"><ele>364.0</ele><time>2026-05-03T11:09:10.5Z</time></trkpt><trkpt lat="43.0223629" lon="12.7757621"><ele>363.5</ele><time>2026-05-03T11:09:11.498Z</time></trkpt><trkpt lat="43.0222565" lon="12.7758669"><ele>363.0</ele><time>2026-05-03T11:09:12.499Z</time></trkpt><trkpt lat="43.0221507" lon="12.7759725"><ele>364.5</ele><time>2026-05-03T11:09:13.499Z</time></trkpt><trkpt lat="43.0220382" lon="12.7760661"><ele>366.0</ele><time>2026-05-03T11:09:14.498Z</time></trkpt><trkpt lat="43.0219215" lon="12.7761534"><ele>367.5</ele><time>2026-05-03T11:09:15.526Z</time></trkpt><trkpt lat="43.0217952" lon="12.7762431"><ele>369.0</ele><time>2026-05-03T11:09:16.496Z</time></trkpt><trkpt lat="43.0216765" lon="12.7763393"><ele>368.0</ele><time>2026-05-03T11:09:17.496Z</time></trkpt><trkpt lat="43.0215355" lon="12.7764466"><ele>367.0</ele><time>2026-05-03T11:09:18.495Z</time></trkpt><trkpt lat="43.0214002" lon="12.7765557"><ele>366.0</ele><time>2026-05-03T11:09:19.498Z</time></trkpt><trkpt lat="43.0212628" lon="12.7766707"><ele>366.0</ele><time>2026-05-03T11:09:20.529Z</time></trkpt><trkpt lat="43.021123" lon="12.7767808"><ele>366.0</ele><time>2026-05-03T11:09:21.5Z</time></trkpt><trkpt lat="43.020988" lon="12.7768891"><ele>366.0</ele><time>2026-05-03T11:09:22.501Z</time></trkpt><trkpt lat="43.0208598" lon="12.7769922"><ele>367.3333333333333</ele><time>2026-05-03T11:09:23.499Z</time></trkpt><trkpt lat="43.0207255" lon="12.7770943"><ele>368.66666666666663</ele><time>2026-05-03T11:09:24.529Z</time></trkpt><trkpt lat="43.0205955" lon="12.7771976"><ele>370.0</ele><time>2026-05-03T11:09:25.5Z</time></trkpt><trkpt lat="43.0204701" lon="12.7772995"><ele>370.0</ele><time>2026-05-03T11:09:26.499Z</time></trkpt><trkpt lat="43.0203418" lon="12.7774085"><ele>370.0</ele><time>2026-05-03T11:09:27.498Z</time></trkpt><trkpt lat="43.0202136" lon="12.7775061"><ele>370.0</ele><time>2026-05-03T11:09:28.497Z</time></trkpt><trkpt lat="43.0200986" lon="12.777604"><ele>370.0</ele><time>2026-05-03T11:09:29.498Z</time></trkpt><trkpt lat="43.0199726" lon="12.7777007"><ele>371.0</ele><time>2026-05-03T11:09:30.502Z</time></trkpt><trkpt lat="43.0198458" lon="12.7777988"><ele>372.0</ele><time>2026-05-03T11:09:31.498Z</time></trkpt><trkpt lat="43.0197339" lon="12.7778962"><ele>373.0</ele><time>2026-05-03T11:09:32.502Z</time></trkpt><trkpt lat="43.0196217" lon="12.7779886"><ele>374.0</ele><time>2026-05-03T11:09:33.527Z</time></trkpt><trkpt lat="43.0195105" lon="12.7780907"><ele>374.0</ele><time>2026-05-03T11:09:34.497Z</time></trkpt><trkpt lat="43.0194017" lon="12.7781868"><ele>374.0</ele><time>2026-05-03T11:09:35.504Z</time></trkpt><trkpt lat="43.0192962" lon="12.778285"><ele>374.0</ele><time>2026-05-03T11:09:36.493Z</time></trkpt><trkpt lat="43.0192242" lon="12.7784127"><ele>374.0</ele><time>2026-05-03T11:09:37.499Z</time></trkpt><trkpt lat="43.0191347" lon="12.7784999"><ele>374.79999999999995</ele><time>2026-05-03T11:09:38.5Z</time></trkpt><trkpt lat="43.0190393" lon="12.7785729"><ele>375.59999999999997</ele><time>2026-05-03T11:09:39.498Z</time></trkpt><trkpt lat="43.0189398" lon="12.7786326"><ele>376.4</ele><time>2026-05-03T11:09:40.528Z</time></trkpt><trkpt lat="43.0188401" lon="12.778689"><ele>377.2</ele><time>2026-05-03T11:09:41.499Z</time></trkpt><trkpt lat="43.0187386" lon="12.7787648"><ele>378.0</ele><time>2026-05-03T11:09:42.498Z</time></trkpt><trkpt lat="43.0186482" lon="12.7788445"><ele>378.0</ele><time>2026-05-03T11:09:43.527Z</time></trkpt><trkpt lat="43.0185549" lon="12.7789281"><ele>378.0</ele><time>2026-05-03T11:09:44.497Z</time></trkpt><trkpt lat="43.0184676" lon="12.7790827"><ele>378.0</ele><time>2026-05-03T11:09:45.531Z</time></trkpt><trkpt lat="43.0183902" lon="12.7792253"><ele>378.0</ele><time>2026-05-03T11:09:46.498Z</time></trkpt><trkpt lat="43.0183176" lon="12.7793613"><ele>378.25</ele><time>2026-05-03T11:09:47.498Z</time></trkpt><trkpt lat="43.0182356" lon="12.7794833"><ele>378.5</ele><time>2026-05-03T11:09:48.526Z</time></trkpt><trkpt lat="43.0181566" lon="12.77961"><ele>378.75</ele><time>2026-05-03T11:09:49.497Z</time></trkpt><trkpt lat="43.0180808" lon="12.7797352"><ele>379.0</ele><time>2026-05-03T11:09:50.498Z</time></trkpt><trkpt lat="43.0180023" lon="12.7798592"><ele>379.0</ele><time>2026-05-03T11:09:51.498Z</time></trkpt><trkpt lat="43.0179358" lon="12.7799683"><ele>379.0</ele><time>2026-05-03T11:09:52.496Z</time></trkpt><trkpt lat="43.017871" lon="12.7800866"><ele>379.0</ele><time>2026-05-03T11:09:53.501Z</time></trkpt><trkpt lat="43.0178093" lon="12.7802068"><ele>379.0</ele><time>2026-05-03T11:09:54.498Z</time></trkpt><trkpt lat="43.0177335" lon="12.7803528"><ele>380.0</ele><time>2026-05-03T11:09:55.529Z</time></trkpt><trkpt lat="43.017683" lon="12.780496"><ele>381.0</ele><time>2026-05-03T11:09:56.499Z</time></trkpt><trkpt lat="43.017685" lon="12.7806711"><ele>382.0</ele><time>2026-05-03T11:09:57.498Z</time></trkpt><trkpt lat="43.0176672" lon="12.780771"><ele>383.0</ele><time>2026-05-03T11:09:58.532Z</time></trkpt><trkpt lat="43.0176468" lon="12.7809227"><ele>384.0</ele><time>2026-05-03T11:09:59.498Z</time></trkpt><trkpt lat="43.0176318" lon="12.7810289"><ele>384.0</ele><time>2026-05-03T11:10:00.527Z</time></trkpt><trkpt lat="43.0176036" lon="12.7811452"><ele>384.0</ele><time>2026-05-03T11:10:01.499Z</time></trkpt><trkpt lat="43.0175855" lon="12.7812556"><ele>384.0</ele><time>2026-05-03T11:10:02.5Z</time></trkpt><trkpt lat="43.0175722" lon="12.7813621"><ele>384.0</ele><time>2026-05-03T11:10:03.5Z</time></trkpt><trkpt lat="43.0175664" lon="12.7814573"><ele>384.0</ele><time>2026-05-03T11:10:04.499Z</time></trkpt><trkpt lat="43.0175476" lon="12.781574"><ele>384.0</ele><time>2026-05-03T11:10:05.497Z</time></trkpt><trkpt lat="43.0175425" lon="12.7816879"><ele>384.0</ele><time>2026-05-03T11:10:06.499Z</time></trkpt><trkpt lat="43.0175408" lon="12.7818051"><ele>384.0</ele><time>2026-05-03T11:10:07.499Z</time></trkpt><trkpt lat="43.0175517" lon="12.7819281"><ele>384.0</ele><time>2026-05-03T11:10:08.499Z</time></trkpt><trkpt lat="43.0175717" lon="12.7820461"><ele>384.0</ele><time>2026-05-03T11:10:09.499Z</time></trkpt><trkpt lat="43.0176047" lon="12.7821608"><ele>384.0</ele><time>2026-05-03T11:10:10.529Z</time></trkpt><trkpt lat="43.0176453" lon="12.7822747"><ele>384.0</ele><time>2026-05-03T11:10:11.498Z</time></trkpt><trkpt lat="43.0176926" lon="12.7824074"><ele>384.0</ele><time>2026-05-03T11:10:12.504Z</time></trkpt><trkpt lat="43.017737" lon="12.7825137"><ele>384.0</ele><time>2026-05-03T11:10:13.523Z</time></trkpt><trkpt lat="43.0177703" lon="12.7826223"><ele>384.0</ele><time>2026-05-03T11:10:14.501Z</time></trkpt><trkpt lat="43.0177882" lon="12.7827387"><ele>384.0</ele><time>2026-05-03T11:10:15.531Z</time></trkpt><trkpt lat="43.0178161" lon="12.7828571"><ele>384.0</ele><time>2026-05-03T11:10:16.498Z</time></trkpt><trkpt lat="43.0178318" lon="12.7829702"><ele>384.0</ele><time>2026-05-03T11:10:17.501Z</time></trkpt><trkpt lat="43.0178374" lon="12.7830931"><ele>384.4</ele><time>2026-05-03T11:10:18.503Z</time></trkpt><trkpt lat="43.0178466" lon="12.7832058"><ele>384.79999999999995</ele><time>2026-05-03T11:10:19.497Z</time></trkpt><trkpt lat="43.0178534" lon="12.7833418"><ele>385.20000000000005</ele><time>2026-05-03T11:10:20.524Z</time></trkpt><trkpt lat="43.0178481" lon="12.7834737"><ele>385.6</ele><time>2026-05-03T11:10:21.496Z</time></trkpt><trkpt lat="43.0178605" lon="12.7835977"><ele>386.0</ele><time>2026-05-03T11:10:22.497Z</time></trkpt><trkpt lat="43.0178639" lon="12.7837233"><ele>387.0</ele><time>2026-05-03T11:10:23.499Z</time></trkpt><trkpt lat="43.0178355" lon="12.7839024"><ele>388.0</ele><time>2026-05-03T11:10:24.524Z</time></trkpt><trkpt lat="43.0177619" lon="12.783889"><ele>389.0</ele><time>2026-05-03T11:10:25.524Z</time></trkpt><trkpt lat="43.0176876" lon="12.7840154"><ele>390.0</ele><time>2026-05-03T11:10:27.496Z</time></trkpt><trkpt lat="43.01767" lon="12.7841369"><ele>391.0</ele><time>2026-05-03T11:10:28.526Z</time></trkpt><trkpt lat="43.017694" lon="12.7842407"><ele>391.6</ele><time>2026-05-03T11:10:29.497Z</time></trkpt><trkpt lat="43.0177266" lon="12.7844016"><ele>392.20000000000005</ele><time>2026-05-03T11:10:30.523Z</time></trkpt><trkpt lat="43.0177435" lon="12.7845545"><ele>392.79999999999995</ele><time>2026-05-03T11:10:31.498Z</time></trkpt><trkpt lat="43.0177757" lon="12.7846743"><ele>393.4</ele><time>2026-05-03T11:10:32.497Z</time></trkpt><trkpt lat="43.0177982" lon="12.784778"><ele>394.0</ele><time>2026-05-03T11:10:33.496Z</time></trkpt><trkpt lat="43.0177119" lon="12.7848665"><ele>394.0</ele><time>2026-05-03T11:10:34.525Z</time></trkpt><trkpt lat="43.0176671" lon="12.7849737"><ele>394.0</ele><time>2026-05-03T11:10:35.498Z</time></trkpt><trkpt lat="43.0176174" lon="12.7850636"><ele>394.0</ele><time>2026-05-03T11:10:36.497Z</time></trkpt><trkpt lat="43.0175454" lon="12.7851672"><ele>394.0</ele><time>2026-05-03T11:10:37.498Z</time></trkpt><trkpt lat="43.0174619" lon="12.785269"><ele>394.0</ele><time>2026-05-03T11:10:38.497Z</time></trkpt><trkpt lat="43.017407" lon="12.7853468"><ele>395.25</ele><time>2026-05-03T11:10:39.5Z</time></trkpt><trkpt lat="43.017308" lon="12.7854799"><ele>396.5</ele><time>2026-05-03T11:10:40.525Z</time></trkpt><trkpt lat="43.0172325" lon="12.7855965"><ele>397.75</ele><time>2026-05-03T11:10:41.498Z</time></trkpt><trkpt lat="43.0171414" lon="12.7857211"><ele>399.0</ele><time>2026-05-03T11:10:42.496Z</time></trkpt><trkpt lat="43.0170502" lon="12.7858481"><ele>399.0</ele><time>2026-05-03T11:10:43.498Z</time></trkpt><trkpt lat="43.0169584" lon="12.7859732"><ele>399.0</ele><time>2026-05-03T11:10:44.527Z</time></trkpt><trkpt lat="43.0168599" lon="12.786108"><ele>399.0</ele><time>2026-05-03T11:10:45.497Z</time></trkpt><trkpt lat="43.0167751" lon="12.7862572"><ele>399.0</ele><time>2026-05-03T11:10:46.528Z</time></trkpt><trkpt lat="43.01671" lon="12.7864237"><ele>401.33333333333337</ele><time>2026-05-03T11:10:47.499Z</time></trkpt><trkpt lat="43.016658" lon="12.7866078"><ele>403.6666666666667</ele><time>2026-05-03T11:10:48.498Z</time></trkpt><trkpt lat="43.0166117" lon="12.7868068"><ele>406.0</ele><time>2026-05-03T11:10:49.499Z</time></trkpt><trkpt lat="43.0165677" lon="12.7870122"><ele>408.33333333333337</ele><time>2026-05-03T11:10:50.501Z</time></trkpt><trkpt lat="43.0165237" lon="12.7872103"><ele>410.66666666666663</ele><time>2026-05-03T11:10:51.496Z</time></trkpt><trkpt lat="43.0164849" lon="12.7874114"><ele>413.0</ele><time>2026-05-03T11:10:52.497Z</time></trkpt><trkpt lat="43.0164309" lon="12.7876152"><ele>412.0</ele><time>2026-05-03T11:10:53.496Z</time></trkpt><trkpt lat="43.0163777" lon="12.7878198"><ele>411.0</ele><time>2026-05-03T11:10:54.527Z</time></trkpt><trkpt lat="43.0163314" lon="12.7880248"><ele>410.0</ele><time>2026-05-03T11:10:55.501Z</time></trkpt><trkpt lat="43.0162826" lon="12.7882368"><ele>410.0</ele><time>2026-05-03T11:10:56.526Z</time></trkpt><trkpt lat="43.0162331" lon="12.7884488"><ele>410.0</ele><time>2026-05-03T11:10:57.499Z</time></trkpt><trkpt lat="43.0161828" lon="12.7886517"><ele>410.0</ele><time>2026-05-03T11:10:58.499Z</time></trkpt><trkpt lat="43.016131" lon="12.7888699"><ele>411.66666666666663</ele><time>2026-05-03T11:10:59.499Z</time></trkpt><trkpt lat="43.0160788" lon="12.7891078"><ele>413.33333333333337</ele><time>2026-05-03T11:11:00.53Z</time></trkpt><trkpt lat="43.0160309" lon="12.789345"><ele>415.0</ele><time>2026-05-03T11:11:01.499Z</time></trkpt><trkpt lat="43.0159773" lon="12.7895868"><ele>418.0</ele><time>2026-05-03T11:11:02.497Z</time></trkpt><trkpt lat="43.0159292" lon="12.7898129"><ele>421.0</ele><time>2026-05-03T11:11:03.497Z</time></trkpt><trkpt lat="43.0158874" lon="12.7900465"><ele>424.0</ele><time>2026-05-03T11:11:04.525Z</time></trkpt><trkpt lat="43.0158746" lon="12.7902923"><ele>426.33333333333337</ele><time>2026-05-03T11:11:05.499Z</time></trkpt><trkpt lat="43.0158479" lon="12.7905217"><ele>428.66666666666663</ele><time>2026-05-03T11:11:06.496Z</time></trkpt><trkpt lat="43.0158301" lon="12.7907951"><ele>431.0</ele><time>2026-05-03T11:11:07.5Z</time></trkpt><trkpt lat="43.0158101" lon="12.7911165"><ele>432.3333333333333</ele><time>2026-05-03T11:11:08.498Z</time></trkpt><trkpt lat="43.0157791" lon="12.7913951"><ele>433.66666666666663</ele><time>2026-05-03T11:11:09.497Z</time></trkpt><trkpt lat="43.0158374" lon="12.7916136"><ele>435.0</ele><time>2026-05-03T11:11:10.524Z</time></trkpt><trkpt lat="43.015929" lon="12.7918597"><ele>436.33333333333337</ele><time>2026-05-03T11:11:11.498Z</time></trkpt><trkpt lat="43.015959" lon="12.7921273"><ele>437.6666666666667</ele><time>2026-05-03T11:11:12.496Z</time></trkpt><trkpt lat="43.0159815" lon="12.7923784"><ele>439.0</ele><time>2026-05-03T11:11:13.497Z</time></trkpt><trkpt lat="43.0160113" lon="12.7926384"><ele>439.33333333333337</ele><time>2026-05-03T11:11:14.529Z</time></trkpt><trkpt lat="43.0160046" lon="12.792897"><ele>439.66666666666663</ele><time>2026-05-03T11:11:15.495Z</time></trkpt><trkpt lat="43.0160147" lon="12.7931398"><ele>440.0</ele><time>2026-05-03T11:11:16.5Z</time></trkpt><trkpt lat="43.0160106" lon="12.7934028"><ele>441.3333333333333</ele><time>2026-05-03T11:11:17.497Z</time></trkpt><trkpt lat="43.0160116" lon="12.7936582"><ele>442.66666666666663</ele><time>2026-05-03T11:11:18.497Z</time></trkpt><trkpt lat="43.0160091" lon="12.7939176"><ele>444.0</ele><time>2026-05-03T11:11:19.499Z</time></trkpt><trkpt lat="43.0160109" lon="12.7941803"><ele>444.33333333333337</ele><time>2026-05-03T11:11:20.5Z</time></trkpt><trkpt lat="43.0159838" lon="12.7944598"><ele>444.6666666666667</ele><time>2026-05-03T11:11:21.501Z</time></trkpt><trkpt lat="43.0159712" lon="12.7947378"><ele>445.0</ele><time>2026-05-03T11:11:22.5Z</time></trkpt><trkpt lat="43.0159754" lon="12.7950093"><ele>446.0</ele><time>2026-05-03T11:11:23.497Z</time></trkpt><trkpt lat="43.0159689" lon="12.7952836"><ele>447.0</ele><time>2026-05-03T11:11:24.528Z</time></trkpt><trkpt lat="43.0159702" lon="12.7955514"><ele>448.0</ele><time>2026-05-03T11:11:25.497Z</time></trkpt><trkpt lat="43.0159736" lon="12.7958194"><ele>449.6666666666667</ele><time>2026-05-03T11:11:26.526Z</time></trkpt><trkpt lat="43.0159861" lon="12.7960844"><ele>451.33333333333337</ele><time>2026-05-03T11:11:27.495Z</time></trkpt><trkpt lat="43.015996" lon="12.7963496"><ele>453.0</ele><time>2026-05-03T11:11:28.497Z</time></trkpt><trkpt lat="43.0160047" lon="12.7965948"><ele>454.0</ele><time>2026-05-03T11:11:29.525Z</time></trkpt><trkpt lat="43.0159974" lon="12.7968421"><ele>455.0</ele><time>2026-05-03T11:11:30.526Z</time></trkpt><trkpt lat="43.0159662" lon="12.7970875"><ele>456.0</ele><time>2026-05-03T11:11:31.499Z</time></trkpt><trkpt lat="43.0159171" lon="12.797331"><ele>456.0</ele><time>2026-05-03T11:11:32.499Z</time></trkpt><trkpt lat="43.0158691" lon="12.7975694"><ele>456.0</ele><time>2026-05-03T11:11:33.524Z</time></trkpt><trkpt lat="43.0158189" lon="12.797817"><ele>456.0</ele><time>2026-05-03T11:11:34.529Z</time></trkpt><trkpt lat="43.0157658" lon="12.7980607"><ele>458.0</ele><time>2026-05-03T11:11:35.496Z</time></trkpt><trkpt lat="43.015712" lon="12.7983039"><ele>460.0</ele><time>2026-05-03T11:11:36.498Z</time></trkpt><trkpt lat="43.0156552" lon="12.7985162"><ele>462.0</ele><time>2026-05-03T11:11:37.498Z</time></trkpt><trkpt lat="43.0155853" lon="12.7987069"><ele>462.0</ele><time>2026-05-03T11:11:38.499Z</time></trkpt><trkpt lat="43.0154857" lon="12.7988763"><ele>462.0</ele><time>2026-05-03T11:11:39.528Z</time></trkpt><trkpt lat="43.0153735" lon="12.799036"><ele>462.0</ele><time>2026-05-03T11:11:40.498Z</time></trkpt><trkpt lat="43.0151836" lon="12.7991392"><ele>462.0</ele><time>2026-05-03T11:11:41.526Z</time></trkpt><trkpt lat="43.0150244" lon="12.799268"><ele>462.0</ele><time>2026-05-03T11:11:42.5Z</time></trkpt><trkpt lat="43.0148528" lon="12.7993973"><ele>462.0</ele><time>2026-05-03T11:11:43.495Z</time></trkpt><trkpt lat="43.0146824" lon="12.7995192"><ele>464.66666666666663</ele><time>2026-05-03T11:11:44.528Z</time></trkpt><trkpt lat="43.0145169" lon="12.7996593"><ele>467.3333333333333</ele><time>2026-05-03T11:11:45.497Z</time></trkpt><trkpt lat="43.0143471" lon="12.7997968"><ele>470.0</ele><time>2026-05-03T11:11:46.497Z</time></trkpt><trkpt lat="43.0141936" lon="12.7999833"><ele>471.66666666666663</ele><time>2026-05-03T11:11:47.499Z</time></trkpt><trkpt lat="43.0140338" lon="12.8001677"><ele>473.33333333333337</ele><time>2026-05-03T11:11:48.498Z</time></trkpt><trkpt lat="43.0138725" lon="12.8003641"><ele>475.0</ele><time>2026-05-03T11:11:49.529Z</time></trkpt><trkpt lat="43.0137166" lon="12.800574"><ele>475.0</ele><time>2026-05-03T11:11:50.497Z</time></trkpt><trkpt lat="43.0135821" lon="12.8007777"><ele>475.0</ele><time>2026-05-03T11:11:51.529Z</time></trkpt><trkpt lat="43.0134612" lon="12.8009687"><ele>475.0</ele><time>2026-05-03T11:11:52.496Z</time></trkpt><trkpt lat="43.0133482" lon="12.8011523"><ele>480.0</ele><time>2026-05-03T11:11:53.525Z</time></trkpt><trkpt lat="43.0132224" lon="12.8013285"><ele>485.0</ele><time>2026-05-03T11:11:54.497Z</time></trkpt><trkpt lat="43.013081" lon="12.8014692"><ele>490.0</ele><time>2026-05-03T11:11:55.526Z</time></trkpt><trkpt lat="43.0129482" lon="12.8016052"><ele>490.0</ele><time>2026-05-03T11:11:56.499Z</time></trkpt><trkpt lat="43.0127804" lon="12.8016742"><ele>490.0</ele><time>2026-05-03T11:11:57.497Z</time></trkpt><trkpt lat="43.0126236" lon="12.8017336"><ele>490.0</ele><time>2026-05-03T11:11:58.497Z</time></trkpt><trkpt lat="43.0124242" lon="12.8017178"><ele>491.33333333333337</ele><time>2026-05-03T11:11:59.493Z</time></trkpt><trkpt lat="43.012232" lon="12.8016756"><ele>492.66666666666663</ele><time>2026-05-03T11:12:00.5Z</time></trkpt><trkpt lat="43.0120165" lon="12.8016123"><ele>494.0</ele><time>2026-05-03T11:12:01.491Z</time></trkpt><trkpt lat="43.011804" lon="12.8016199"><ele>493.3333333333333</ele><time>2026-05-03T11:12:02.527Z</time></trkpt><trkpt lat="43.0115964" lon="12.8016646"><ele>492.66666666666663</ele><time>2026-05-03T11:12:03.5Z</time></trkpt><trkpt lat="43.0113766" lon="12.8017082"><ele>492.0</ele><time>2026-05-03T11:12:04.498Z</time></trkpt><trkpt lat="43.0111734" lon="12.8017518"><ele>492.0</ele><time>2026-05-03T11:12:05.498Z</time></trkpt><trkpt lat="43.0109729" lon="12.8017715"><ele>492.0</ele><time>2026-05-03T11:12:06.496Z</time></trkpt><trkpt lat="43.0107943" lon="12.8017868"><ele>492.0</ele><time>2026-05-03T11:12:07.499Z</time></trkpt><trkpt lat="43.0106447" lon="12.8018256"><ele>499.33333333333337</ele><time>2026-05-03T11:12:08.528Z</time></trkpt><trkpt lat="43.0104689" lon="12.8018578"><ele>506.6666666666667</ele><time>2026-05-03T11:12:09.499Z</time></trkpt><trkpt lat="43.0103061" lon="12.8019089"><ele>514.0</ele><time>2026-05-03T11:12:10.498Z</time></trkpt><trkpt lat="43.0101386" lon="12.8019971"><ele>512.6666666666667</ele><time>2026-05-03T11:12:11.498Z</time></trkpt><trkpt lat="43.0099862" lon="12.802191"><ele>511.33333333333337</ele><time>2026-05-03T11:12:12.497Z</time></trkpt><trkpt lat="43.0098391" lon="12.802296"><ele>510.0</ele><time>2026-05-03T11:12:13.526Z</time></trkpt><trkpt lat="43.0096886" lon="12.8024093"><ele>510.0</ele><time>2026-05-03T11:12:14.496Z</time></trkpt><trkpt lat="43.0095616" lon="12.8025295"><ele>510.0</ele><time>2026-05-03T11:12:15.501Z</time></trkpt><trkpt lat="43.0094011" lon="12.8025164"><ele>510.0</ele><time>2026-05-03T11:12:16.524Z</time></trkpt><trkpt lat="43.0092468" lon="12.8025392"><ele>510.0</ele><time>2026-05-03T11:12:17.497Z</time></trkpt><trkpt lat="43.0090817" lon="12.802546"><ele>510.0</ele><time>2026-05-03T11:12:18.528Z</time></trkpt><trkpt lat="43.0088865" lon="12.802476"><ele>510.0</ele><time>2026-05-03T11:12:19.497Z</time></trkpt><trkpt lat="43.0087308" lon="12.8024168"><ele>510.0</ele><time>2026-05-03T11:12:20.532Z</time></trkpt><trkpt lat="43.0085672" lon="12.802401"><ele>510.0</ele><time>2026-05-03T11:12:21.498Z</time></trkpt><trkpt lat="43.0084066" lon="12.8023647"><ele>510.0</ele><time>2026-05-03T11:12:22.496Z</time></trkpt><trkpt lat="43.0082635" lon="12.8024219"><ele>510.0</ele><time>2026-05-03T11:12:23.498Z</time></trkpt><trkpt lat="43.0081173" lon="12.8025196"><ele>510.0</ele><time>2026-05-03T11:12:24.501Z</time></trkpt><trkpt lat="43.0079737" lon="12.8026486"><ele>510.0</ele><time>2026-05-03T11:12:25.498Z</time></trkpt><trkpt lat="43.0078161" lon="12.8027604"><ele>516.0</ele><time>2026-05-03T11:12:26.495Z</time></trkpt><trkpt lat="43.0076474" lon="12.8028347"><ele>522.0</ele><time>2026-05-03T11:12:27.499Z</time></trkpt><trkpt lat="43.0074708" lon="12.8028909"><ele>528.0</ele><time>2026-05-03T11:12:28.497Z</time></trkpt><trkpt lat="43.0072908" lon="12.8029469"><ele>528.0</ele><time>2026-05-03T11:12:29.5Z</time></trkpt><trkpt lat="43.0071059" lon="12.8029945"><ele>528.0</ele><time>2026-05-03T11:12:30.499Z</time></trkpt><trkpt lat="43.0069297" lon="12.8030577"><ele>528.0</ele><time>2026-05-03T11:12:31.501Z</time></trkpt><trkpt lat="43.006759" lon="12.8031228"><ele>526.3333333333334</ele><time>2026-05-03T11:12:32.529Z</time></trkpt><trkpt lat="43.0065946" lon="12.8032876"><ele>524.6666666666667</ele><time>2026-05-03T11:12:33.497Z</time></trkpt><trkpt lat="43.0064242" lon="12.8034534"><ele>523.0</ele><time>2026-05-03T11:12:34.486Z</time></trkpt><trkpt lat="43.0062567" lon="12.803591"><ele>526.6666666666667</ele><time>2026-05-03T11:12:35.496Z</time></trkpt><trkpt lat="43.0060788" lon="12.8037398"><ele>530.3333333333334</ele><time>2026-05-03T11:12:36.495Z</time></trkpt><trkpt lat="43.005887" lon="12.8038862"><ele>534.0</ele><time>2026-05-03T11:12:37.496Z</time></trkpt><trkpt lat="43.0057149" lon="12.8039674"><ele>534.0</ele><time>2026-05-03T11:12:38.495Z</time></trkpt><trkpt lat="43.0055379" lon="12.8040846"><ele>534.0</ele><time>2026-05-03T11:12:39.497Z</time></trkpt><trkpt lat="43.0053376" lon="12.8042328"><ele>534.0</ele><time>2026-05-03T11:12:40.524Z</time></trkpt><trkpt lat="43.0051881" lon="12.804379"><ele>535.6666666666666</ele><time>2026-05-03T11:12:41.498Z</time></trkpt><trkpt lat="43.0050158" lon="12.8045351"><ele>537.3333333333333</ele><time>2026-05-03T11:12:42.493Z</time></trkpt><trkpt lat="43.0048601" lon="12.8046718"><ele>539.0</ele><time>2026-05-03T11:12:43.497Z</time></trkpt><trkpt lat="43.0047111" lon="12.8048123"><ele>539.0</ele><time>2026-05-03T11:12:44.496Z</time></trkpt><trkpt lat="43.0045725" lon="12.8049615"><ele>539.0</ele><time>2026-05-03T11:12:45.524Z</time></trkpt><trkpt lat="43.0044436" lon="12.8051032"><ele>539.0</ele><time>2026-05-03T11:12:46.494Z</time></trkpt><trkpt lat="43.0043085" lon="12.8052176"><ele>540.3333333333333</ele><time>2026-05-03T11:12:47.496Z</time></trkpt><trkpt lat="43.004178" lon="12.8053379"><ele>541.6666666666666</ele><time>2026-05-03T11:12:48.499Z</time></trkpt><trkpt lat="43.0040501" lon="12.805456"><ele>543.0</ele><time>2026-05-03T11:12:49.494Z</time></trkpt><trkpt lat="43.0039311" lon="12.8055777"><ele>543.0</ele><time>2026-05-03T11:12:50.498Z</time></trkpt><trkpt lat="43.0038183" lon="12.8057223"><ele>543.0</ele><time>2026-05-03T11:12:51.526Z</time></trkpt><trkpt lat="43.0037275" lon="12.8058839"><ele>543.0</ele><time>2026-05-03T11:12:52.499Z</time></trkpt><trkpt lat="43.00366" lon="12.8060715"><ele>547.6666666666666</ele><time>2026-05-03T11:12:53.491Z</time></trkpt><trkpt lat="43.003603" lon="12.8062706"><ele>552.3333333333333</ele><time>2026-05-03T11:12:54.515Z</time></trkpt><trkpt lat="43.0035515" lon="12.8064742"><ele>557.0</ele><time>2026-05-03T11:12:55.491Z</time></trkpt><trkpt lat="43.0034926" lon="12.8066713"><ele>559.25</ele><time>2026-05-03T11:12:56.522Z</time></trkpt><trkpt lat="43.0034331" lon="12.8068559"><ele>561.5</ele><time>2026-05-03T11:12:57.495Z</time></trkpt><trkpt lat="43.0033895" lon="12.8070392"><ele>563.75</ele><time>2026-05-03T11:12:58.493Z</time></trkpt><trkpt lat="43.0033473" lon="12.8072315"><ele>566.0</ele><time>2026-05-03T11:12:59.523Z</time></trkpt><trkpt lat="43.0033097" lon="12.8074337"><ele>566.0</ele><time>2026-05-03T11:13:00.492Z</time></trkpt><trkpt lat="43.0033814" lon="12.8076275"><ele>566.0</ele><time>2026-05-03T11:13:01.492Z</time></trkpt><trkpt lat="43.003391" lon="12.8078234"><ele>566.0</ele><time>2026-05-03T11:13:02.489Z</time></trkpt><trkpt lat="43.0034075" lon="12.8080162"><ele>566.0</ele><time>2026-05-03T11:13:03.514Z</time></trkpt><trkpt lat="43.0034208" lon="12.8082024"><ele>567.75</ele><time>2026-05-03T11:13:04.491Z</time></trkpt><trkpt lat="43.0034336" lon="12.8083925"><ele>569.5</ele><time>2026-05-03T11:13:05.493Z</time></trkpt><trkpt lat="43.0034499" lon="12.8085771"><ele>571.25</ele><time>2026-05-03T11:13:06.52Z</time></trkpt><trkpt lat="43.0034675" lon="12.8087532"><ele>573.0</ele><time>2026-05-03T11:13:07.489Z</time></trkpt><trkpt lat="43.0034784" lon="12.8089372"><ele>574.75</ele><time>2026-05-03T11:13:08.522Z</time></trkpt><trkpt lat="43.0034659" lon="12.8091305"><ele>576.5</ele><time>2026-05-03T11:13:09.488Z</time></trkpt><trkpt lat="43.0034695" lon="12.8093329"><ele>578.25</ele><time>2026-05-03T11:13:10.519Z</time></trkpt><trkpt lat="43.0034513" lon="12.8095294"><ele>580.0</ele><time>2026-05-03T11:13:11.521Z</time></trkpt><trkpt lat="43.0034317" lon="12.809726"><ele>581.0</ele><time>2026-05-03T11:13:12.49Z</time></trkpt><trkpt lat="43.0034031" lon="12.8099159"><ele>582.0</ele><time>2026-05-03T11:13:13.498Z</time></trkpt><trkpt lat="43.0033854" lon="12.8101004"><ele>583.0</ele><time>2026-05-03T11:13:14.491Z</time></trkpt><trkpt lat="43.0033681" lon="12.810297"><ele>584.0</ele><time>2026-05-03T11:13:15.495Z</time></trkpt><trkpt lat="43.0033384" lon="12.8104864"><ele>585.25</ele><time>2026-05-03T11:13:16.496Z</time></trkpt><trkpt lat="43.0033049" lon="12.8106843"><ele>586.5</ele><time>2026-05-03T11:13:17.497Z</time></trkpt><trkpt lat="43.0032581" lon="12.8108348"><ele>587.75</ele><time>2026-05-03T11:13:18.498Z</time></trkpt><trkpt lat="43.0032148" lon="12.8110176"><ele>589.0</ele><time>2026-05-03T11:13:19.497Z</time></trkpt><trkpt lat="43.0031595" lon="12.8111751"><ele>589.0</ele><time>2026-05-03T11:13:20.527Z</time></trkpt><trkpt lat="43.0030986" lon="12.8113372"><ele>589.0</ele><time>2026-05-03T11:13:21.495Z</time></trkpt><trkpt lat="43.0030315" lon="12.8114924"><ele>589.0</ele><time>2026-05-03T11:13:22.498Z</time></trkpt><trkpt lat="43.0029612" lon="12.8116481"><ele>589.0</ele><time>2026-05-03T11:13:23.487Z</time></trkpt><trkpt lat="43.0028972" lon="12.8118071"><ele>590.75</ele><time>2026-05-03T11:13:24.494Z</time></trkpt><trkpt lat="43.0028313" lon="12.8119637"><ele>592.5</ele><time>2026-05-03T11:13:25.497Z</time></trkpt><trkpt lat="43.0027658" lon="12.8121196"><ele>594.25</ele><time>2026-05-03T11:13:26.528Z</time></trkpt><trkpt lat="43.0026985" lon="12.8122792"><ele>596.0</ele><time>2026-05-03T11:13:27.497Z</time></trkpt><trkpt lat="43.0026323" lon="12.8124446"><ele>596.0</ele><time>2026-05-03T11:13:28.494Z</time></trkpt><trkpt lat="43.002572" lon="12.8126093"><ele>596.0</ele><time>2026-05-03T11:13:29.494Z</time></trkpt><trkpt lat="43.0025103" lon="12.8127806"><ele>596.0</ele><time>2026-05-03T11:13:30.498Z</time></trkpt><trkpt lat="43.0024248" lon="12.8129556"><ele>596.0</ele><time>2026-05-03T11:13:31.495Z</time></trkpt><trkpt lat="43.0023604" lon="12.8131217"><ele>597.25</ele><time>2026-05-03T11:13:32.499Z</time></trkpt><trkpt lat="43.0022759" lon="12.8132904"><ele>598.5</ele><time>2026-05-03T11:13:33.494Z</time></trkpt><trkpt lat="43.0022042" lon="12.8134677"><ele>599.75</ele><time>2026-05-03T11:13:34.496Z</time></trkpt><trkpt lat="43.0021347" lon="12.8136443"><ele>601.0</ele><time>2026-05-03T11:13:35.5Z</time></trkpt><trkpt lat="43.0020672" lon="12.8138381"><ele>602.6666666666667</ele><time>2026-05-03T11:13:36.521Z</time></trkpt><trkpt lat="43.0020104" lon="12.8140422"><ele>604.3333333333334</ele><time>2026-05-03T11:13:37.495Z</time></trkpt><trkpt lat="43.0019593" lon="12.8142575"><ele>606.0</ele><time>2026-05-03T11:13:38.52Z</time></trkpt><trkpt lat="43.0019024" lon="12.8144784"><ele>609.0</ele><time>2026-05-03T11:13:39.491Z</time></trkpt><trkpt lat="43.0018834" lon="12.8147074"><ele>612.0</ele><time>2026-05-03T11:13:40.527Z</time></trkpt><trkpt lat="43.0018385" lon="12.8149191"><ele>615.0</ele><time>2026-05-03T11:13:41.497Z</time></trkpt><trkpt lat="43.0018005" lon="12.815133"><ele>617.0</ele><time>2026-05-03T11:13:42.494Z</time></trkpt><trkpt lat="43.0017751" lon="12.8153597"><ele>619.0</ele><time>2026-05-03T11:13:43.494Z</time></trkpt><trkpt lat="43.0017516" lon="12.8155797"><ele>621.0</ele><time>2026-05-03T11:13:44.498Z</time></trkpt><trkpt lat="43.0017518" lon="12.815797"><ele>623.0</ele><time>2026-05-03T11:13:45.502Z</time></trkpt><trkpt lat="43.0017774" lon="12.8160156"><ele>625.0</ele><time>2026-05-03T11:13:46.498Z</time></trkpt><trkpt lat="43.0018291" lon="12.8162254"><ele>627.0</ele><time>2026-05-03T11:13:47.497Z</time></trkpt><trkpt lat="43.001916" lon="12.8164288"><ele>627.0</ele><time>2026-05-03T11:13:48.497Z</time></trkpt><trkpt lat="43.0020146" lon="12.8166172"><ele>627.0</ele><time>2026-05-03T11:13:49.527Z</time></trkpt><trkpt lat="43.0021156" lon="12.8168046"><ele>627.0</ele><time>2026-05-03T11:13:50.494Z</time></trkpt><trkpt lat="43.0022111" lon="12.8169833"><ele>628.5</ele><time>2026-05-03T11:13:51.499Z</time></trkpt><trkpt lat="43.002306" lon="12.8171475"><ele>630.0</ele><time>2026-05-03T11:13:52.497Z</time></trkpt><trkpt lat="43.0024084" lon="12.817274"><ele>631.5</ele><time>2026-05-03T11:13:53.497Z</time></trkpt><trkpt lat="43.0025332" lon="12.8173613"><ele>633.0</ele><time>2026-05-03T11:13:54.498Z</time></trkpt><trkpt lat="43.0026768" lon="12.817427"><ele>634.0</ele><time>2026-05-03T11:13:55.497Z</time></trkpt><trkpt lat="43.0028314" lon="12.8175048"><ele>635.0</ele><time>2026-05-03T11:13:56.528Z</time></trkpt><trkpt lat="43.0029874" lon="12.8176035"><ele>636.0</ele><time>2026-05-03T11:13:57.498Z</time></trkpt><trkpt lat="43.0031376" lon="12.8177438"><ele>638.0</ele><time>2026-05-03T11:13:58.498Z</time></trkpt><trkpt lat="43.003271" lon="12.8179071"><ele>640.0</ele><time>2026-05-03T11:13:59.527Z</time></trkpt><trkpt lat="43.0033972" lon="12.8180894"><ele>642.0</ele><time>2026-05-03T11:14:00.496Z</time></trkpt><trkpt lat="43.0035209" lon="12.8182609"><ele>644.3333333333334</ele><time>2026-05-03T11:14:01.484Z</time></trkpt><trkpt lat="43.003605" lon="12.8184913"><ele>646.6666666666667</ele><time>2026-05-03T11:14:02.496Z</time></trkpt><trkpt lat="43.0037023" lon="12.8187011"><ele>649.0</ele><time>2026-05-03T11:14:03.496Z</time></trkpt><trkpt lat="43.0038023" lon="12.8189087"><ele>649.0</ele><time>2026-05-03T11:14:04.498Z</time></trkpt><trkpt lat="43.0039057" lon="12.8191063"><ele>649.0</ele><time>2026-05-03T11:14:05.493Z</time></trkpt><trkpt lat="43.0039909" lon="12.8193127"><ele>649.0</ele><time>2026-05-03T11:14:06.495Z</time></trkpt><trkpt lat="43.0040705" lon="12.8195114"><ele>652.3333333333334</ele><time>2026-05-03T11:14:07.495Z</time></trkpt><trkpt lat="43.0041574" lon="12.8197052"><ele>655.6666666666666</ele><time>2026-05-03T11:14:08.524Z</time></trkpt><trkpt lat="43.0042688" lon="12.8198781"><ele>659.0</ele><time>2026-05-03T11:14:09.494Z</time></trkpt><trkpt lat="43.0044094" lon="12.8200508"><ele>663.6666666666666</ele><time>2026-05-03T11:14:10.489Z</time></trkpt><trkpt lat="43.0045516" lon="12.8202296"><ele>668.3333333333334</ele><time>2026-05-03T11:14:11.495Z</time></trkpt><trkpt lat="43.0046858" lon="12.8204104"><ele>673.0</ele><time>2026-05-03T11:14:12.506Z</time></trkpt><trkpt lat="43.0048094" lon="12.8205979"><ele>673.0</ele><time>2026-05-03T11:14:13.497Z</time></trkpt><trkpt lat="43.0049279" lon="12.8207764"><ele>673.0</ele><time>2026-05-03T11:14:14.529Z</time></trkpt><trkpt lat="43.0050399" lon="12.820957"><ele>673.0</ele><time>2026-05-03T11:14:15.527Z</time></trkpt><trkpt lat="43.0051572" lon="12.8211351"><ele>674.0</ele><time>2026-05-03T11:14:16.495Z</time></trkpt><trkpt lat="43.005277" lon="12.8213148"><ele>675.0</ele><time>2026-05-03T11:14:17.496Z</time></trkpt><trkpt lat="43.0053907" lon="12.821476"><ele>676.0</ele><time>2026-05-03T11:14:18.497Z</time></trkpt><trkpt lat="43.0055012" lon="12.8216472"><ele>676.0</ele><time>2026-05-03T11:14:19.499Z</time></trkpt><trkpt lat="43.0055952" lon="12.8218137"><ele>676.0</ele><time>2026-05-03T11:14:20.525Z</time></trkpt><trkpt lat="43.0057255" lon="12.8220149"><ele>676.0</ele><time>2026-05-03T11:14:21.495Z</time></trkpt><trkpt lat="43.005745" lon="12.8222546"><ele>680.0</ele><time>2026-05-03T11:14:22.496Z</time></trkpt><trkpt lat="43.0057864" lon="12.8224857"><ele>684.0</ele><time>2026-05-03T11:14:23.525Z</time></trkpt><trkpt lat="43.0058235" lon="12.8227147"><ele>688.0</ele><time>2026-05-03T11:14:24.496Z</time></trkpt><trkpt lat="43.005843" lon="12.8229494"><ele>690.3333333333334</ele><time>2026-05-03T11:14:25.495Z</time></trkpt><trkpt lat="43.0058562" lon="12.8231835"><ele>692.6666666666666</ele><time>2026-05-03T11:14:26.497Z</time></trkpt><trkpt lat="43.0058519" lon="12.8233962"><ele>695.0</ele><time>2026-05-03T11:14:27.525Z</time></trkpt><trkpt lat="43.0058474" lon="12.8235968"><ele>697.2</ele><time>2026-05-03T11:14:28.532Z</time></trkpt><trkpt lat="43.0058559" lon="12.8237552"><ele>699.4</ele><time>2026-05-03T11:14:29.496Z</time></trkpt><trkpt lat="43.0058544" lon="12.8239196"><ele>701.5999999999999</ele><time>2026-05-03T11:14:30.527Z</time></trkpt><trkpt lat="43.0059287" lon="12.8239947"><ele>703.8</ele><time>2026-05-03T11:14:31.496Z</time></trkpt><trkpt lat="43.0059967" lon="12.8240481"><ele>706.0</ele><time>2026-05-03T11:14:32.497Z</time></trkpt><trkpt lat="43.0060715" lon="12.8240334"><ele>706.0</ele><time>2026-05-03T11:14:33.499Z</time></trkpt><trkpt lat="43.0061497" lon="12.8240113"><ele>706.0</ele><time>2026-05-03T11:14:34.526Z</time></trkpt><trkpt lat="43.0062231" lon="12.8237927"><ele>706.0</ele><time>2026-05-03T11:14:36.527Z</time></trkpt><trkpt lat="43.0062527" lon="12.8235369"><ele>706.0</ele><time>2026-05-03T11:14:37.499Z</time></trkpt><trkpt lat="43.0062376" lon="12.823208"><ele>702.3333333333334</ele><time>2026-05-03T11:14:38.496Z</time></trkpt><trkpt lat="43.0062486" lon="12.8230008"><ele>698.6666666666666</ele><time>2026-05-03T11:14:39.498Z</time></trkpt><trkpt lat="43.006239" lon="12.8227964"><ele>695.0</ele><time>2026-05-03T11:14:40.495Z</time></trkpt><trkpt lat="43.0062128" lon="12.8225932"><ele>694.4</ele><time>2026-05-03T11:14:41.498Z</time></trkpt><trkpt lat="43.0061757" lon="12.8224403"><ele>693.8</ele><time>2026-05-03T11:14:42.498Z</time></trkpt><trkpt lat="43.0061708" lon="12.8223237"><ele>693.2</ele><time>2026-05-03T11:14:43.498Z</time></trkpt><trkpt lat="43.0061983" lon="12.8222225"><ele>692.6</ele><time>2026-05-03T11:14:44.522Z</time></trkpt><trkpt lat="43.0062652" lon="12.8221875"><ele>692.0</ele><time>2026-05-03T11:14:45.496Z</time></trkpt><trkpt lat="43.0063472" lon="12.822347"><ele>692.0</ele><time>2026-05-03T11:14:47.497Z</time></trkpt><trkpt lat="43.0063659" lon="12.8225077"><ele>692.0</ele><time>2026-05-03T11:14:48.497Z</time></trkpt><trkpt lat="43.0063876" lon="12.8226977"><ele>692.0</ele><time>2026-05-03T11:14:49.53Z</time></trkpt><trkpt lat="43.0064126" lon="12.8229249"><ele>692.0</ele><time>2026-05-03T11:14:50.529Z</time></trkpt><trkpt lat="43.0064424" lon="12.8231606"><ele>693.0</ele><time>2026-05-03T11:14:51.503Z</time></trkpt><trkpt lat="43.0064803" lon="12.8234056"><ele>694.0</ele><time>2026-05-03T11:14:52.499Z</time></trkpt><trkpt lat="43.0065107" lon="12.8236541"><ele>695.0</ele><time>2026-05-03T11:14:53.498Z</time></trkpt><trkpt lat="43.0065276" lon="12.8239149"><ele>698.6666666666666</ele><time>2026-05-03T11:14:54.53Z</time></trkpt><trkpt lat="43.0065318" lon="12.8241698"><ele>702.3333333333334</ele><time>2026-05-03T11:14:55.496Z</time></trkpt><trkpt lat="43.0065243" lon="12.824424"><ele>706.0</ele><time>2026-05-03T11:14:56.498Z</time></trkpt><trkpt lat="43.0064977" lon="12.8246793"><ele>709.6666666666667</ele><time>2026-05-03T11:14:57.528Z</time></trkpt><trkpt lat="43.0064628" lon="12.8249258"><ele>713.3333333333334</ele><time>2026-05-03T11:14:58.498Z</time></trkpt><trkpt lat="43.006424" lon="12.8251659"><ele>717.0</ele><time>2026-05-03T11:14:59.501Z</time></trkpt><trkpt lat="43.0063236" lon="12.8253908"><ele>720.0</ele><time>2026-05-03T11:15:00.496Z</time></trkpt><trkpt lat="43.0062503" lon="12.8255989"><ele>723.0</ele><time>2026-05-03T11:15:01.493Z</time></trkpt><trkpt lat="43.0061796" lon="12.8257799"><ele>726.0</ele><time>2026-05-03T11:15:02.495Z</time></trkpt><trkpt lat="43.0061331" lon="12.8259421"><ele>729.0</ele><time>2026-05-03T11:15:03.498Z</time></trkpt><trkpt lat="43.0061019" lon="12.8260817"><ele>731.2</ele><time>2026-05-03T11:15:04.528Z</time></trkpt><trkpt lat="43.0061066" lon="12.8262096"><ele>733.4000000000001</ele><time>2026-05-03T11:15:05.53Z</time></trkpt><trkpt lat="43.0061139" lon="12.8263411"><ele>735.6</ele><time>2026-05-03T11:15:06.496Z</time></trkpt><trkpt lat="43.006159" lon="12.8264392"><ele>737.8</ele><time>2026-05-03T11:15:07.495Z</time></trkpt><trkpt lat="43.0062325" lon="12.8265126"><ele>740.0</ele><time>2026-05-03T11:15:08.524Z</time></trkpt><trkpt lat="43.0063515" lon="12.8265368"><ele>740.0</ele><time>2026-05-03T11:15:09.497Z</time></trkpt><trkpt lat="43.006509" lon="12.8263497"><ele>740.0</ele><time>2026-05-03T11:15:10.498Z</time></trkpt><trkpt lat="43.0066406" lon="12.8261801"><ele>740.0</ele><time>2026-05-03T11:15:11.495Z</time></trkpt><trkpt lat="43.0068071" lon="12.8258119"><ele>739.5</ele><time>2026-05-03T11:15:12.496Z</time></trkpt><trkpt lat="43.0068934" lon="12.8253741"><ele>739.0</ele><time>2026-05-03T11:15:13.493Z</time></trkpt><trkpt lat="43.0069843" lon="12.8250346"><ele>739.0</ele><time>2026-05-03T11:15:14.491Z</time></trkpt><trkpt lat="43.0070269" lon="12.824679"><ele>739.0</ele><time>2026-05-03T11:15:15.494Z</time></trkpt><trkpt lat="43.0070331" lon="12.8243306"><ele>737.0</ele><time>2026-05-03T11:15:16.493Z</time></trkpt><trkpt lat="43.0070272" lon="12.8240383"><ele>735.0</ele><time>2026-05-03T11:15:17.494Z</time></trkpt><trkpt lat="43.0070099" lon="12.8237697"><ele>733.0</ele><time>2026-05-03T11:15:18.492Z</time></trkpt><trkpt lat="43.0069966" lon="12.8235643"><ele>734.0</ele><time>2026-05-03T11:15:19.492Z</time></trkpt><trkpt lat="43.0069892" lon="12.8234023"><ele>735.0</ele><time>2026-05-03T11:15:20.486Z</time></trkpt><trkpt lat="43.0070069" lon="12.823284"><ele>736.0</ele><time>2026-05-03T11:15:21.495Z</time></trkpt><trkpt lat="43.0070309" lon="12.8231992"><ele>737.0</ele><time>2026-05-03T11:15:22.494Z</time></trkpt><trkpt lat="43.0071228" lon="12.8232644"><ele>738.0</ele><time>2026-05-03T11:15:23.494Z</time></trkpt><trkpt lat="43.0071758" lon="12.823379"><ele>736.3333333333334</ele><time>2026-05-03T11:15:24.492Z</time></trkpt><trkpt lat="43.0072305" lon="12.8234856"><ele>734.6666666666667</ele><time>2026-05-03T11:15:25.493Z</time></trkpt><trkpt lat="43.0072845" lon="12.8236957"><ele>733.0</ele><time>2026-05-03T11:15:26.489Z</time></trkpt><trkpt lat="43.0073347" lon="12.823986"><ele>736.0</ele><time>2026-05-03T11:15:27.49Z</time></trkpt><trkpt lat="43.007375" lon="12.8243389"><ele>739.0</ele><time>2026-05-03T11:15:28.489Z</time></trkpt><trkpt lat="43.0074357" lon="12.824813"><ele>745.0</ele><time>2026-05-03T11:15:29.494Z</time></trkpt><trkpt lat="43.0074869" lon="12.8251778"><ele>751.0</ele><time>2026-05-03T11:15:30.497Z</time></trkpt><trkpt lat="43.0074587" lon="12.8255461"><ele>751.0</ele><time>2026-05-03T11:15:31.491Z</time></trkpt><trkpt lat="43.0074469" lon="12.8258658"><ele>751.0</ele><time>2026-05-03T11:15:32.497Z</time></trkpt><trkpt lat="43.0074309" lon="12.8261449"><ele>751.0</ele><time>2026-05-03T11:15:33.494Z</time></trkpt><trkpt lat="43.0074129" lon="12.8263949"><ele>755.25</ele><time>2026-05-03T11:15:34.5Z</time></trkpt><trkpt lat="43.0073958" lon="12.8265995"><ele>759.5</ele><time>2026-05-03T11:15:35.494Z</time></trkpt><trkpt lat="43.0073863" lon="12.826779"><ele>763.75</ele><time>2026-05-03T11:15:36.494Z</time></trkpt><trkpt lat="43.0073774" lon="12.8269562"><ele>768.0</ele><time>2026-05-03T11:15:37.488Z</time></trkpt><trkpt lat="43.0073601" lon="12.8271266"><ele>768.5</ele><time>2026-05-03T11:15:38.492Z</time></trkpt><trkpt lat="43.0073302" lon="12.8273122"><ele>769.0</ele><time>2026-05-03T11:15:39.49Z</time></trkpt><trkpt lat="43.007312" lon="12.8274876"><ele>769.5</ele><time>2026-05-03T11:15:40.493Z</time></trkpt><trkpt lat="43.0072874" lon="12.827679"><ele>770.0</ele><time>2026-05-03T11:15:41.487Z</time></trkpt><trkpt lat="43.0072697" lon="12.8278538"><ele>770.0</ele><time>2026-05-03T11:15:42.496Z</time></trkpt><trkpt lat="43.0072673" lon="12.8280278"><ele>770.0</ele><time>2026-05-03T11:15:43.494Z</time></trkpt><trkpt lat="43.007278" lon="12.8282125"><ele>770.0</ele><time>2026-05-03T11:15:44.499Z</time></trkpt><trkpt lat="43.0072958" lon="12.8283912"><ele>770.0</ele><time>2026-05-03T11:15:45.496Z</time></trkpt><trkpt lat="43.0073576" lon="12.8285906"><ele>768.3333333333334</ele><time>2026-05-03T11:15:46.495Z</time></trkpt><trkpt lat="43.0074066" lon="12.8287862"><ele>766.6666666666667</ele><time>2026-05-03T11:15:47.495Z</time></trkpt><trkpt lat="43.0074549" lon="12.8290021"><ele>765.0</ele><time>2026-05-03T11:15:48.491Z</time></trkpt><trkpt lat="43.0075115" lon="12.8292226"><ele>774.0</ele><time>2026-05-03T11:15:49.489Z</time></trkpt><trkpt lat="43.0075655" lon="12.8294533"><ele>783.0</ele><time>2026-05-03T11:15:50.491Z</time></trkpt><trkpt lat="43.0076139" lon="12.8296636"><ele>792.0</ele><time>2026-05-03T11:15:51.498Z</time></trkpt><trkpt lat="43.0076698" lon="12.8298743"><ele>792.0</ele><time>2026-05-03T11:15:52.495Z</time></trkpt><trkpt lat="43.007734" lon="12.8300791"><ele>792.0</ele><time>2026-05-03T11:15:53.491Z</time></trkpt><trkpt lat="43.0078108" lon="12.8302828"><ele>792.0</ele><time>2026-05-03T11:15:54.492Z</time></trkpt><trkpt lat="43.0078974" lon="12.8304832"><ele>791.5</ele><time>2026-05-03T11:15:55.493Z</time></trkpt><trkpt lat="43.0079862" lon="12.8306576"><ele>791.0</ele><time>2026-05-03T11:15:56.496Z</time></trkpt><trkpt lat="43.0080732" lon="12.8308095"><ele>790.5</ele><time>2026-05-03T11:15:57.497Z</time></trkpt><trkpt lat="43.0081678" lon="12.8309572"><ele>790.0</ele><time>2026-05-03T11:15:58.498Z</time></trkpt><trkpt lat="43.0082474" lon="12.831089"><ele>791.2</ele><time>2026-05-03T11:15:59.496Z</time></trkpt><trkpt lat="43.0083015" lon="12.8312169"><ele>792.4</ele><time>2026-05-03T11:16:00.49Z</time></trkpt><trkpt lat="43.0083205" lon="12.8313469"><ele>793.5999999999999</ele><time>2026-05-03T11:16:01.489Z</time></trkpt><trkpt lat="43.0082968" lon="12.8314645"><ele>794.8</ele><time>2026-05-03T11:16:02.496Z</time></trkpt><trkpt lat="43.0082135" lon="12.8315703"><ele>796.0</ele><time>2026-05-03T11:16:03.496Z</time></trkpt><trkpt lat="43.0081101" lon="12.8316563"><ele>796.0</ele><time>2026-05-03T11:16:04.498Z</time></trkpt><trkpt lat="43.008001" lon="12.8317422"><ele>796.0</ele><time>2026-05-03T11:16:05.497Z</time></trkpt><trkpt lat="43.007909" lon="12.8318406"><ele>796.0</ele><time>2026-05-03T11:16:06.497Z</time></trkpt><trkpt lat="43.007835" lon="12.8319615"><ele>796.0</ele><time>2026-05-03T11:16:07.496Z</time></trkpt><trkpt lat="43.0077982" lon="12.8321156"><ele>798.0</ele><time>2026-05-03T11:16:08.496Z</time></trkpt><trkpt lat="43.0078058" lon="12.8323013"><ele>800.0</ele><time>2026-05-03T11:16:09.496Z</time></trkpt><trkpt lat="43.0078321" lon="12.8325126"><ele>802.0</ele><time>2026-05-03T11:16:10.499Z</time></trkpt><trkpt lat="43.0078704" lon="12.8327305"><ele>802.0</ele><time>2026-05-03T11:16:11.495Z</time></trkpt><trkpt lat="43.0079077" lon="12.8329532"><ele>802.0</ele><time>2026-05-03T11:16:12.497Z</time></trkpt><trkpt lat="43.0079445" lon="12.8331705"><ele>802.0</ele><time>2026-05-03T11:16:13.498Z</time></trkpt><trkpt lat="43.0079836" lon="12.8333831"><ele>801.6666666666666</ele><time>2026-05-03T11:16:14.496Z</time></trkpt><trkpt lat="43.0080264" lon="12.8335846"><ele>801.3333333333333</ele><time>2026-05-03T11:16:15.496Z</time></trkpt><trkpt lat="43.0080773" lon="12.8337818"><ele>801.0</ele><time>2026-05-03T11:16:16.499Z</time></trkpt><trkpt lat="43.0081281" lon="12.8339776"><ele>801.0</ele><time>2026-05-03T11:16:17.496Z</time></trkpt><trkpt lat="43.00818" lon="12.8341696"><ele>801.0</ele><time>2026-05-03T11:16:18.497Z</time></trkpt><trkpt lat="43.0082304" lon="12.8343591"><ele>801.0</ele><time>2026-05-03T11:16:19.496Z</time></trkpt><trkpt lat="43.0082772" lon="12.8345473"><ele>801.0</ele><time>2026-05-03T11:16:20.522Z</time></trkpt><trkpt lat="43.0083229" lon="12.8347374"><ele>806.5</ele><time>2026-05-03T11:16:21.496Z</time></trkpt><trkpt lat="43.008363" lon="12.8349389"><ele>812.0</ele><time>2026-05-03T11:16:22.496Z</time></trkpt><trkpt lat="43.0083902" lon="12.8351392"><ele>817.5</ele><time>2026-05-03T11:16:23.497Z</time></trkpt><trkpt lat="43.0083921" lon="12.8353375"><ele>823.0</ele><time>2026-05-03T11:16:24.5Z</time></trkpt><trkpt lat="43.0083796" lon="12.835526"><ele>823.25</ele><time>2026-05-03T11:16:25.498Z</time></trkpt><trkpt lat="43.0083514" lon="12.8357083"><ele>823.5</ele><time>2026-05-03T11:16:26.496Z</time></trkpt><trkpt lat="43.0083115" lon="12.8358794"><ele>823.75</ele><time>2026-05-03T11:16:27.501Z</time></trkpt><trkpt lat="43.0082532" lon="12.8360348"><ele>824.0</ele><time>2026-05-03T11:16:28.501Z</time></trkpt><trkpt lat="43.0081898" lon="12.8361778"><ele>823.0</ele><time>2026-05-03T11:16:29.5Z</time></trkpt><trkpt lat="43.008114" lon="12.8363242"><ele>822.0</ele><time>2026-05-03T11:16:30.497Z</time></trkpt><trkpt lat="43.008028" lon="12.8364746"><ele>821.0</ele><time>2026-05-03T11:16:31.499Z</time></trkpt><trkpt lat="43.0079233" lon="12.8366286"><ele>820.0</ele><time>2026-05-03T11:16:32.497Z</time></trkpt><trkpt lat="43.0078271" lon="12.836791"><ele>819.75</ele><time>2026-05-03T11:16:33.496Z</time></trkpt><trkpt lat="43.0077221" lon="12.8369229"><ele>819.5</ele><time>2026-05-03T11:16:34.497Z</time></trkpt><trkpt lat="43.0076391" lon="12.8370696"><ele>819.25</ele><time>2026-05-03T11:16:35.497Z</time></trkpt><trkpt lat="43.0075063" lon="12.8372156"><ele>819.0</ele><time>2026-05-03T11:16:36.498Z</time></trkpt><trkpt lat="43.007382" lon="12.8373397"><ele>821.0</ele><time>2026-05-03T11:16:37.496Z</time></trkpt><trkpt lat="43.007254" lon="12.837481"><ele>823.0</ele><time>2026-05-03T11:16:38.499Z</time></trkpt><trkpt lat="43.0071136" lon="12.8376013"><ele>825.0</ele><time>2026-05-03T11:16:39.498Z</time></trkpt><trkpt lat="43.0069607" lon="12.8376692"><ele>825.0</ele><time>2026-05-03T11:16:40.498Z</time></trkpt><trkpt lat="43.0068199" lon="12.8377691"><ele>825.0</ele><time>2026-05-03T11:16:41.496Z</time></trkpt><trkpt lat="43.0066823" lon="12.837866"><ele>825.0</ele><time>2026-05-03T11:16:42.499Z</time></trkpt><trkpt lat="43.0065848" lon="12.8380024"><ele>827.5</ele><time>2026-05-03T11:16:43.496Z</time></trkpt><trkpt lat="43.0065322" lon="12.8381703"><ele>830.0</ele><time>2026-05-03T11:16:44.497Z</time></trkpt><trkpt lat="43.0064668" lon="12.8383212"><ele>832.5</ele><time>2026-05-03T11:16:45.497Z</time></trkpt><trkpt lat="43.006444" lon="12.8385017"><ele>835.0</ele><time>2026-05-03T11:16:46.496Z</time></trkpt><trkpt lat="43.0064408" lon="12.8387041"><ele>835.0</ele><time>2026-05-03T11:16:47.499Z</time></trkpt><trkpt lat="43.0064161" lon="12.8388979"><ele>835.0</ele><time>2026-05-03T11:16:48.497Z</time></trkpt><trkpt lat="43.0063895" lon="12.8390806"><ele>835.0</ele><time>2026-05-03T11:16:49.497Z</time></trkpt><trkpt lat="43.0063685" lon="12.8392478"><ele>835.0</ele><time>2026-05-03T11:16:50.501Z</time></trkpt><trkpt lat="43.0063477" lon="12.8393954"><ele>834.6</ele><time>2026-05-03T11:16:51.498Z</time></trkpt><trkpt lat="43.0063289" lon="12.8395318"><ele>834.2</ele><time>2026-05-03T11:16:52.506Z</time></trkpt><trkpt lat="43.0062964" lon="12.8396732"><ele>833.8</ele><time>2026-05-03T11:16:53.498Z</time></trkpt><trkpt lat="43.0062468" lon="12.8397942"><ele>833.4</ele><time>2026-05-03T11:16:54.501Z</time></trkpt><trkpt lat="43.0062011" lon="12.8399239"><ele>833.0</ele><time>2026-05-03T11:16:55.494Z</time></trkpt><trkpt lat="43.0060881" lon="12.8399936"><ele>833.0</ele><time>2026-05-03T11:16:56.498Z</time></trkpt><trkpt lat="43.0060089" lon="12.8400883"><ele>833.0</ele><time>2026-05-03T11:16:57.496Z</time></trkpt><trkpt lat="43.0059261" lon="12.8401635"><ele>833.0</ele><time>2026-05-03T11:16:58.498Z</time></trkpt><trkpt lat="43.0058303" lon="12.8402161"><ele>833.0</ele><time>2026-05-03T11:16:59.498Z</time></trkpt><trkpt lat="43.0057597" lon="12.840175"><ele>833.0</ele><time>2026-05-03T11:17:00.496Z</time></trkpt><trkpt lat="43.0056698" lon="12.8401693"><ele>831.2</ele><time>2026-05-03T11:17:01.497Z</time></trkpt><trkpt lat="43.0055749" lon="12.8401648"><ele>829.4</ele><time>2026-05-03T11:17:02.5Z</time></trkpt><trkpt lat="43.0054754" lon="12.8401595"><ele>827.6</ele><time>2026-05-03T11:17:03.498Z</time></trkpt><trkpt lat="43.0053735" lon="12.8401641"><ele>825.8000000000001</ele><time>2026-05-03T11:17:04.493Z</time></trkpt><trkpt lat="43.0052688" lon="12.8401581"><ele>824.0</ele><time>2026-05-03T11:17:05.497Z</time></trkpt><trkpt lat="43.0051554" lon="12.8401622"><ele>824.0</ele><time>2026-05-03T11:17:06.497Z</time></trkpt><trkpt lat="43.0050411" lon="12.840146"><ele>824.0</ele><time>2026-05-03T11:17:07.496Z</time></trkpt><trkpt lat="43.0049121" lon="12.8401461"><ele>824.0</ele><time>2026-05-03T11:17:08.497Z</time></trkpt><trkpt lat="43.0047923" lon="12.8401447"><ele>824.0</ele><time>2026-05-03T11:17:09.499Z</time></trkpt><trkpt lat="43.0046725" lon="12.8401459"><ele>824.0</ele><time>2026-05-03T11:17:10.492Z</time></trkpt><trkpt lat="43.0045503" lon="12.8401446"><ele>824.0</ele><time>2026-05-03T11:17:11.499Z</time></trkpt><trkpt lat="43.0044178" lon="12.8401433"><ele>824.0</ele><time>2026-05-03T11:17:12.494Z</time></trkpt><trkpt lat="43.0042923" lon="12.8401281"><ele>824.0</ele><time>2026-05-03T11:17:13.497Z</time></trkpt><trkpt lat="43.0041836" lon="12.8401463"><ele>825.0</ele><time>2026-05-03T11:17:14.498Z</time></trkpt><trkpt lat="43.0040685" lon="12.8401572"><ele>826.0</ele><time>2026-05-03T11:17:15.498Z</time></trkpt><trkpt lat="43.0039584" lon="12.8401759"><ele>827.0</ele><time>2026-05-03T11:17:16.497Z</time></trkpt><trkpt lat="43.0038749" lon="12.8402377"><ele>828.0</ele><time>2026-05-03T11:17:17.497Z</time></trkpt><trkpt lat="43.0037865" lon="12.8403039"><ele>829.0</ele><time>2026-05-03T11:17:18.499Z</time></trkpt><trkpt lat="43.0036992" lon="12.8403551"><ele>828.9999999999999</ele><time>2026-05-03T11:17:19.497Z</time></trkpt><trkpt lat="43.0036329" lon="12.8404302"><ele>829.0</ele><time>2026-05-03T11:17:20.497Z</time></trkpt><trkpt lat="43.0035876" lon="12.8405459"><ele>829.0</ele><time>2026-05-03T11:17:21.497Z</time></trkpt><trkpt lat="43.0035431" lon="12.8406373"><ele>829.0</ele><time>2026-05-03T11:17:22.498Z</time></trkpt><trkpt lat="43.0034964" lon="12.8407298"><ele>828.9999999999999</ele><time>2026-05-03T11:17:23.499Z</time></trkpt><trkpt lat="43.0034488" lon="12.8408284"><ele>829.0</ele><time>2026-05-03T11:17:24.496Z</time></trkpt><trkpt lat="43.003405" lon="12.8409364"><ele>827.9999999999999</ele><time>2026-05-03T11:17:25.501Z</time></trkpt><trkpt lat="43.0033622" lon="12.8410433"><ele>827.0</ele><time>2026-05-03T11:17:26.499Z</time></trkpt><trkpt lat="43.0033188" lon="12.8411546"><ele>826.0</ele><time>2026-05-03T11:17:27.495Z</time></trkpt><trkpt lat="43.0032761" lon="12.8412633"><ele>825.0</ele><time>2026-05-03T11:17:28.49Z</time></trkpt><trkpt lat="43.0032327" lon="12.8413628"><ele>823.9999999999999</ele><time>2026-05-03T11:17:29.497Z</time></trkpt><trkpt lat="43.0031943" lon="12.8414615"><ele>823.0</ele><time>2026-05-03T11:17:30.497Z</time></trkpt><trkpt lat="43.003158" lon="12.8415531"><ele>824.6666666666666</ele><time>2026-05-03T11:17:31.498Z</time></trkpt><trkpt lat="43.0031259" lon="12.8416431"><ele>826.3333333333333</ele><time>2026-05-03T11:17:32.497Z</time></trkpt><trkpt lat="43.0030896" lon="12.8417368"><ele>828.0</ele><time>2026-05-03T11:17:33.499Z</time></trkpt><trkpt lat="43.0030517" lon="12.8418358"><ele>829.6666666666667</ele><time>2026-05-03T11:17:34.5Z</time></trkpt><trkpt lat="43.0030146" lon="12.8419332"><ele>831.3333333333334</ele><time>2026-05-03T11:17:35.498Z</time></trkpt><trkpt lat="43.002977" lon="12.8420351"><ele>833.0</ele><time>2026-05-03T11:17:36.498Z</time></trkpt><trkpt lat="43.0029388" lon="12.8421255"><ele>833.0000000000001</ele><time>2026-05-03T11:17:37.497Z</time></trkpt><trkpt lat="43.0029015" lon="12.8422111"><ele>833.0</ele><time>2026-05-03T11:17:38.499Z</time></trkpt><trkpt lat="43.0028682" lon="12.8423044"><ele>833.0</ele><time>2026-05-03T11:17:39.499Z</time></trkpt><trkpt lat="43.002835" lon="12.8423979"><ele>833.0</ele><time>2026-05-03T11:17:40.498Z</time></trkpt><trkpt lat="43.0027934" lon="12.8424972"><ele>833.0000000000001</ele><time>2026-05-03T11:17:41.497Z</time></trkpt><trkpt lat="43.0027587" lon="12.8425941"><ele>833.0</ele><time>2026-05-03T11:17:42.495Z</time></trkpt><trkpt lat="43.0027356" lon="12.8427065"><ele>832.5999999999999</ele><time>2026-05-03T11:17:43.501Z</time></trkpt><trkpt lat="43.002708" lon="12.8428189"><ele>832.1999999999999</ele><time>2026-05-03T11:17:44.491Z</time></trkpt><trkpt lat="43.0026833" lon="12.8429437"><ele>831.8</ele><time>2026-05-03T11:17:45.497Z</time></trkpt><trkpt lat="43.0026602" lon="12.8430651"><ele>831.4</ele><time>2026-05-03T11:17:46.496Z</time></trkpt><trkpt lat="43.0026365" lon="12.8431864"><ele>831.0</ele><time>2026-05-03T11:17:47.497Z</time></trkpt><trkpt lat="43.0026214" lon="12.8433134"><ele>831.0</ele><time>2026-05-03T11:17:48.499Z</time></trkpt><trkpt lat="43.0026105" lon="12.8434407"><ele>831.0</ele><time>2026-05-03T11:17:49.497Z</time></trkpt><trkpt lat="43.0025923" lon="12.8435659"><ele>831.0</ele><time>2026-05-03T11:17:50.496Z</time></trkpt><trkpt lat="43.0025711" lon="12.8436924"><ele>831.0</ele><time>2026-05-03T11:17:51.498Z</time></trkpt><trkpt lat="43.002556" lon="12.8438192"><ele>831.0</ele><time>2026-05-03T11:17:52.497Z</time></trkpt><trkpt lat="43.0025324" lon="12.8439492"><ele>831.4</ele><time>2026-05-03T11:17:53.497Z</time></trkpt><trkpt lat="43.0025101" lon="12.8440799"><ele>831.8</ele><time>2026-05-03T11:17:54.496Z</time></trkpt><trkpt lat="43.0024769" lon="12.844208"><ele>832.1999999999999</ele><time>2026-05-03T11:17:55.498Z</time></trkpt><trkpt lat="43.0024393" lon="12.8443357"><ele>832.5999999999999</ele><time>2026-05-03T11:17:56.498Z</time></trkpt><trkpt lat="43.0023922" lon="12.8444583"><ele>833.0</ele><time>2026-05-03T11:17:57.497Z</time></trkpt><trkpt lat="43.0023346" lon="12.8445637"><ele>831.0</ele><time>2026-05-03T11:17:58.495Z</time></trkpt><trkpt lat="43.0022714" lon="12.8446612"><ele>829.0</ele><time>2026-05-03T11:17:59.497Z</time></trkpt><trkpt lat="43.0021983" lon="12.8447411"><ele>827.0</ele><time>2026-05-03T11:18:00.497Z</time></trkpt><trkpt lat="43.002114" lon="12.8448"><ele>825.0</ele><time>2026-05-03T11:18:01.499Z</time></trkpt><trkpt lat="43.0020229" lon="12.8448554"><ele>823.0</ele><time>2026-05-03T11:18:02.497Z</time></trkpt><trkpt lat="43.0019251" lon="12.8448813"><ele>823.0</ele><time>2026-05-03T11:18:03.498Z</time></trkpt><trkpt lat="43.0018229" lon="12.844901"><ele>823.0</ele><time>2026-05-03T11:18:04.497Z</time></trkpt><trkpt lat="43.0017202" lon="12.8449156"><ele>823.0</ele><time>2026-05-03T11:18:05.524Z</time></trkpt><trkpt lat="43.0016142" lon="12.8449284"><ele>823.0</ele><time>2026-05-03T11:18:06.498Z</time></trkpt><trkpt lat="43.001507" lon="12.8449462"><ele>823.0</ele><time>2026-05-03T11:18:07.499Z</time></trkpt><trkpt lat="43.0013994" lon="12.8449624"><ele>822.5</ele><time>2026-05-03T11:18:08.5Z</time></trkpt><trkpt lat="43.0012893" lon="12.8449772"><ele>822.0</ele><time>2026-05-03T11:18:09.498Z</time></trkpt><trkpt lat="43.0011817" lon="12.8449939"><ele>821.5</ele><time>2026-05-03T11:18:10.498Z</time></trkpt><trkpt lat="43.0010676" lon="12.8450139"><ele>821.0</ele><time>2026-05-03T11:18:11.5Z</time></trkpt><trkpt lat="43.0009525" lon="12.8450327"><ele>820.5</ele><time>2026-05-03T11:18:12.495Z</time></trkpt><trkpt lat="43.0008319" lon="12.8450505"><ele>820.0</ele><time>2026-05-03T11:18:13.589Z</time></trkpt><trkpt lat="43.0007077" lon="12.8450695"><ele>819.5</ele><time>2026-05-03T11:18:14.498Z</time></trkpt><trkpt lat="43.0005801" lon="12.8450847"><ele>819.0</ele><time>2026-05-03T11:18:15.499Z</time></trkpt><trkpt lat="43.0004469" lon="12.8451056"><ele>816.75</ele><time>2026-05-03T11:18:16.499Z</time></trkpt><trkpt lat="43.0003204" lon="12.8451295"><ele>814.5</ele><time>2026-05-03T11:18:17.499Z</time></trkpt><trkpt lat="43.0001951" lon="12.8451597"><ele>812.25</ele><time>2026-05-03T11:18:18.497Z</time></trkpt><trkpt lat="43.0000609" lon="12.8451869"><ele>810.0</ele><time>2026-05-03T11:18:19.499Z</time></trkpt><trkpt lat="42.9999241" lon="12.8452337"><ele>810.0</ele><time>2026-05-03T11:18:20.496Z</time></trkpt><trkpt lat="42.9998005" lon="12.8453101"><ele>810.0</ele><time>2026-05-03T11:18:21.495Z</time></trkpt><trkpt lat="42.9996837" lon="12.8454122"><ele>810.0</ele><time>2026-05-03T11:18:22.497Z</time></trkpt><trkpt lat="42.999584" lon="12.845532"><ele>810.0</ele><time>2026-05-03T11:18:23.495Z</time></trkpt><trkpt lat="42.9994996" lon="12.8456892"><ele>810.0</ele><time>2026-05-03T11:18:24.497Z</time></trkpt><trkpt lat="42.9994299" lon="12.845856"><ele>810.0</ele><time>2026-05-03T11:18:25.499Z</time></trkpt><trkpt lat="42.999364" lon="12.8460244"><ele>810.0</ele><time>2026-05-03T11:18:26.498Z</time></trkpt><trkpt lat="42.9993011" lon="12.8461892"><ele>810.0</ele><time>2026-05-03T11:18:27.498Z</time></trkpt><trkpt lat="42.9992372" lon="12.8463544"><ele>809.25</ele><time>2026-05-03T11:18:28.498Z</time></trkpt><trkpt lat="42.9991733" lon="12.8465213"><ele>808.5</ele><time>2026-05-03T11:18:29.497Z</time></trkpt><trkpt lat="42.9991108" lon="12.8466817"><ele>807.75</ele><time>2026-05-03T11:18:30.497Z</time></trkpt><trkpt lat="42.9990496" lon="12.8468397"><ele>807.0</ele><time>2026-05-03T11:18:31.498Z</time></trkpt><trkpt lat="42.998986" lon="12.8470053"><ele>806.25</ele><time>2026-05-03T11:18:32.501Z</time></trkpt><trkpt lat="42.99893" lon="12.8471703"><ele>805.5</ele><time>2026-05-03T11:18:33.498Z</time></trkpt><trkpt lat="42.9988602" lon="12.8473304"><ele>804.75</ele><time>2026-05-03T11:18:34.498Z</time></trkpt><trkpt lat="42.9988004" lon="12.8474757"><ele>804.0</ele><time>2026-05-03T11:18:35.498Z</time></trkpt><trkpt lat="42.9987353" lon="12.8476115"><ele>803.8333333333334</ele><time>2026-05-03T11:18:36.497Z</time></trkpt><trkpt lat="42.9986678" lon="12.8477307"><ele>803.6666666666667</ele><time>2026-05-03T11:18:37.5Z</time></trkpt><trkpt lat="42.998595" lon="12.8478231"><ele>803.5</ele><time>2026-05-03T11:18:38.497Z</time></trkpt><trkpt lat="42.998523" lon="12.8478943"><ele>803.3333333333334</ele><time>2026-05-03T11:18:39.497Z</time></trkpt><trkpt lat="42.9984551" lon="12.8479463"><ele>803.1666666666667</ele><time>2026-05-03T11:18:40.497Z</time></trkpt><trkpt lat="42.9983888" lon="12.8479767"><ele>803.0</ele><time>2026-05-03T11:18:41.496Z</time></trkpt><trkpt lat="42.9982768" lon="12.8479824"><ele>803.0</ele><time>2026-05-03T11:18:43.498Z</time></trkpt><trkpt lat="42.9981964" lon="12.8479222"><ele>803.0</ele><time>2026-05-03T11:18:45.498Z</time></trkpt><trkpt lat="42.9981542" lon="12.847711"><ele>803.0</ele><time>2026-05-03T11:18:47.508Z</time></trkpt><trkpt lat="42.998131" lon="12.8475672"><ele>803.0</ele><time>2026-05-03T11:18:48.5Z</time></trkpt><trkpt lat="42.9981022" lon="12.8474137"><ele>803.75</ele><time>2026-05-03T11:18:49.498Z</time></trkpt><trkpt lat="42.9980681" lon="12.8472595"><ele>804.5</ele><time>2026-05-03T11:18:50.497Z</time></trkpt><trkpt lat="42.9980187" lon="12.8471095"><ele>805.25</ele><time>2026-05-03T11:18:51.5Z</time></trkpt><trkpt lat="42.9979546" lon="12.8469747"><ele>806.0</ele><time>2026-05-03T11:18:52.494Z</time></trkpt><trkpt lat="42.9978802" lon="12.8468582"><ele>806.25</ele><time>2026-05-03T11:18:53.497Z</time></trkpt><trkpt lat="42.9977899" lon="12.8467561"><ele>806.5</ele><time>2026-05-03T11:18:54.497Z</time></trkpt><trkpt lat="42.9976849" lon="12.846674"><ele>806.75</ele><time>2026-05-03T11:18:55.498Z</time></trkpt><trkpt lat="42.997567" lon="12.8466241"><ele>807.0</ele><time>2026-05-03T11:18:56.496Z</time></trkpt><trkpt lat="42.9974333" lon="12.8466071"><ele>807.0</ele><time>2026-05-03T11:18:57.497Z</time></trkpt><trkpt lat="42.9972938" lon="12.8466155"><ele>807.0</ele><time>2026-05-03T11:18:58.499Z</time></trkpt><trkpt lat="42.9971528" lon="12.8466205"><ele>807.0</ele><time>2026-05-03T11:18:59.496Z</time></trkpt><trkpt lat="42.997011" lon="12.846628"><ele>807.0</ele><time>2026-05-03T11:19:00.498Z</time></trkpt><trkpt lat="42.9968641" lon="12.8466359"><ele>807.0</ele><time>2026-05-03T11:19:01.497Z</time></trkpt><trkpt lat="42.9967147" lon="12.8466446"><ele>807.0</ele><time>2026-05-03T11:19:02.498Z</time></trkpt><trkpt lat="42.9965689" lon="12.8466598"><ele>807.0</ele><time>2026-05-03T11:19:03.497Z</time></trkpt><trkpt lat="42.9964293" lon="12.8466712"><ele>807.0</ele><time>2026-05-03T11:19:04.493Z</time></trkpt><trkpt lat="42.9962981" lon="12.8466774"><ele>806.5</ele><time>2026-05-03T11:19:05.497Z</time></trkpt><trkpt lat="42.9961579" lon="12.8466642"><ele>806.0</ele><time>2026-05-03T11:19:06.499Z</time></trkpt><trkpt lat="42.9960199" lon="12.8466075"><ele>805.5</ele><time>2026-05-03T11:19:07.498Z</time></trkpt><trkpt lat="42.9958859" lon="12.8465133"><ele>805.0</ele><time>2026-05-03T11:19:08.495Z</time></trkpt><trkpt lat="42.9957657" lon="12.8463791"><ele>806.0</ele><time>2026-05-03T11:19:09.499Z</time></trkpt><trkpt lat="42.9956501" lon="12.8462194"><ele>807.0</ele><time>2026-05-03T11:19:10.496Z</time></trkpt><trkpt lat="42.9955391" lon="12.8460551"><ele>808.0</ele><time>2026-05-03T11:19:11.498Z</time></trkpt><trkpt lat="42.995435" lon="12.8458844"><ele>808.0</ele><time>2026-05-03T11:19:12.498Z</time></trkpt><trkpt lat="42.9953359" lon="12.845706"><ele>808.0</ele><time>2026-05-03T11:19:13.504Z</time></trkpt><trkpt lat="42.9952479" lon="12.845512"><ele>808.0</ele><time>2026-05-03T11:19:14.498Z</time></trkpt><trkpt lat="42.9951905" lon="12.8453077"><ele>810.6666666666666</ele><time>2026-05-03T11:19:15.498Z</time></trkpt><trkpt lat="42.9951285" lon="12.8450981"><ele>813.3333333333333</ele><time>2026-05-03T11:19:16.498Z</time></trkpt><trkpt lat="42.9950587" lon="12.8448941"><ele>816.0</ele><time>2026-05-03T11:19:17.497Z</time></trkpt><trkpt lat="42.9949726" lon="12.844699"><ele>812.75</ele><time>2026-05-03T11:19:18.495Z</time></trkpt><trkpt lat="42.9948812" lon="12.8445356"><ele>809.5</ele><time>2026-05-03T11:19:19.502Z</time></trkpt><trkpt lat="42.994788" lon="12.8443706"><ele>806.25</ele><time>2026-05-03T11:19:20.497Z</time></trkpt><trkpt lat="42.9946987" lon="12.8442138"><ele>803.0</ele><time>2026-05-03T11:19:21.499Z</time></trkpt><trkpt lat="42.9946406" lon="12.8440218"><ele>803.0</ele><time>2026-05-03T11:19:22.496Z</time></trkpt><trkpt lat="42.9946046" lon="12.843804"><ele>803.0</ele><time>2026-05-03T11:19:23.501Z</time></trkpt><trkpt lat="42.9945769" lon="12.8435808"><ele>803.0</ele><time>2026-05-03T11:19:24.495Z</time></trkpt><trkpt lat="42.994591" lon="12.843339"><ele>802.6666666666667</ele><time>2026-05-03T11:19:25.498Z</time></trkpt><trkpt lat="42.9946541" lon="12.8431109"><ele>802.3333333333333</ele><time>2026-05-03T11:19:26.496Z</time></trkpt><trkpt lat="42.9947789" lon="12.8429835"><ele>802.0</ele><time>2026-05-03T11:19:27.496Z</time></trkpt><trkpt lat="42.9948136" lon="12.8427891"><ele>801.3333333333333</ele><time>2026-05-03T11:19:28.496Z</time></trkpt><trkpt lat="42.9948562" lon="12.8425787"><ele>800.6666666666667</ele><time>2026-05-03T11:19:29.497Z</time></trkpt><trkpt lat="42.99478" lon="12.8423003"><ele>800.0</ele><time>2026-05-03T11:19:30.498Z</time></trkpt><trkpt lat="42.9947642" lon="12.8420732"><ele>800.0</ele><time>2026-05-03T11:19:31.497Z</time></trkpt><trkpt lat="42.9947529" lon="12.8418442"><ele>800.0</ele><time>2026-05-03T11:19:32.496Z</time></trkpt><trkpt lat="42.9947322" lon="12.8416564"><ele>800.0</ele><time>2026-05-03T11:19:33.498Z</time></trkpt><trkpt lat="42.994708" lon="12.8414442"><ele>800.75</ele><time>2026-05-03T11:19:34.497Z</time></trkpt><trkpt lat="42.9946883" lon="12.8412468"><ele>801.5</ele><time>2026-05-03T11:19:35.496Z</time></trkpt><trkpt lat="42.9946532" lon="12.8410943"><ele>802.25</ele><time>2026-05-03T11:19:36.498Z</time></trkpt><trkpt lat="42.9946001" lon="12.8409381"><ele>803.0</ele><time>2026-05-03T11:19:37.497Z</time></trkpt><trkpt lat="42.9943665" lon="12.8411306"><ele>803.0</ele><time>2026-05-03T11:19:38.497Z</time></trkpt><trkpt lat="42.9942476" lon="12.841117"><ele>803.0</ele><time>2026-05-03T11:19:39.497Z</time></trkpt><trkpt lat="42.994151" lon="12.8410971"><ele>803.0</ele><time>2026-05-03T11:19:40.497Z</time></trkpt><trkpt lat="42.9940212" lon="12.8412684"><ele>803.0</ele><time>2026-05-03T11:19:41.498Z</time></trkpt><trkpt lat="42.9939417" lon="12.8416733"><ele>791.0</ele><time>2026-05-03T11:19:42.497Z</time></trkpt><trkpt lat="42.9938387" lon="12.8418342"><ele>779.0</ele><time>2026-05-03T11:19:43.497Z</time></trkpt><trkpt lat="42.9937233" lon="12.8419825"><ele>767.0</ele><time>2026-05-03T11:19:44.497Z</time></trkpt><trkpt lat="42.9935933" lon="12.8421236"><ele>767.0</ele><time>2026-05-03T11:19:45.495Z</time></trkpt><trkpt lat="42.9934574" lon="12.8422523"><ele>767.0</ele><time>2026-05-03T11:19:46.496Z</time></trkpt><trkpt lat="42.9933322" lon="12.8423713"><ele>767.0</ele><time>2026-05-03T11:19:47.498Z</time></trkpt><trkpt lat="42.9932166" lon="12.8424811"><ele>768.0</ele><time>2026-05-03T11:19:48.498Z</time></trkpt><trkpt lat="42.9930764" lon="12.8425306"><ele>769.0</ele><time>2026-05-03T11:19:49.498Z</time></trkpt><trkpt lat="42.9929461" lon="12.8425479"><ele>770.0</ele><time>2026-05-03T11:19:50.498Z</time></trkpt><trkpt lat="42.9928297" lon="12.8423777"><ele>771.0</ele><time>2026-05-03T11:19:51.495Z</time></trkpt><trkpt lat="42.992701" lon="12.8422433"><ele>771.0</ele><time>2026-05-03T11:19:52.499Z</time></trkpt><trkpt lat="42.9925694" lon="12.8420834"><ele>771.0</ele><time>2026-05-03T11:19:53.496Z</time></trkpt><trkpt lat="42.9924182" lon="12.8419265"><ele>771.0</ele><time>2026-05-03T11:19:54.498Z</time></trkpt><trkpt lat="42.9922649" lon="12.8417803"><ele>774.6666666666667</ele><time>2026-05-03T11:19:55.497Z</time></trkpt><trkpt lat="42.9921051" lon="12.8417107"><ele>778.3333333333334</ele><time>2026-05-03T11:19:56.497Z</time></trkpt><trkpt lat="42.9919588" lon="12.841625"><ele>782.0</ele><time>2026-05-03T11:19:57.495Z</time></trkpt><trkpt lat="42.9918081" lon="12.8415494"><ele>778.6666666666667</ele><time>2026-05-03T11:19:58.493Z</time></trkpt><trkpt lat="42.9916666" lon="12.8415136"><ele>775.3333333333333</ele><time>2026-05-03T11:19:59.496Z</time></trkpt><trkpt lat="42.9915077" lon="12.84149"><ele>772.0</ele><time>2026-05-03T11:20:00.497Z</time></trkpt><trkpt lat="42.9913275" lon="12.8416159"><ele>766.6666666666666</ele><time>2026-05-03T11:20:01.497Z</time></trkpt><trkpt lat="42.9913299" lon="12.8419283"><ele>761.3333333333333</ele><time>2026-05-03T11:20:02.495Z</time></trkpt><trkpt lat="42.9912641" lon="12.8422058"><ele>756.0</ele><time>2026-05-03T11:20:03.497Z</time></trkpt><trkpt lat="42.9913372" lon="12.8425014"><ele>750.6666666666666</ele><time>2026-05-03T11:20:04.496Z</time></trkpt><trkpt lat="42.9912828" lon="12.8427433"><ele>745.3333333333333</ele><time>2026-05-03T11:20:05.5Z</time></trkpt><trkpt lat="42.9912397" lon="12.8429863"><ele>740.0</ele><time>2026-05-03T11:20:06.497Z</time></trkpt><trkpt lat="42.9912032" lon="12.8432237"><ele>740.0</ele><time>2026-05-03T11:20:07.497Z</time></trkpt><trkpt lat="42.9911526" lon="12.8434569"><ele>740.0</ele><time>2026-05-03T11:20:08.497Z</time></trkpt><trkpt lat="42.9911161" lon="12.8436867"><ele>740.0</ele><time>2026-05-03T11:20:09.497Z</time></trkpt><trkpt lat="42.9910964" lon="12.8439081"><ele>734.0</ele><time>2026-05-03T11:20:10.495Z</time></trkpt><trkpt lat="42.9910904" lon="12.8441499"><ele>728.0</ele><time>2026-05-03T11:20:11.497Z</time></trkpt><trkpt lat="42.9910978" lon="12.8443858"><ele>722.0</ele><time>2026-05-03T11:20:12.496Z</time></trkpt><trkpt lat="42.9910804" lon="12.8446329"><ele>718.6666666666666</ele><time>2026-05-03T11:20:13.493Z</time></trkpt><trkpt lat="42.9910338" lon="12.8448618"><ele>715.3333333333334</ele><time>2026-05-03T11:20:14.497Z</time></trkpt><trkpt lat="42.9909535" lon="12.845084"><ele>712.0</ele><time>2026-05-03T11:20:15.497Z</time></trkpt><trkpt lat="42.9908875" lon="12.8452559"><ele>718.25</ele><time>2026-05-03T11:20:16.496Z</time></trkpt><trkpt lat="42.9908034" lon="12.8453949"><ele>724.5</ele><time>2026-05-03T11:20:17.494Z</time></trkpt><trkpt lat="42.9906819" lon="12.8454718"><ele>730.75</ele><time>2026-05-03T11:20:18.496Z</time></trkpt><trkpt lat="42.9905714" lon="12.8455345"><ele>737.0</ele><time>2026-05-03T11:20:19.526Z</time></trkpt><trkpt lat="42.9904135" lon="12.8454421"><ele>737.0</ele><time>2026-05-03T11:20:20.496Z</time></trkpt><trkpt lat="42.9902716" lon="12.8453502"><ele>737.0</ele><time>2026-05-03T11:20:21.494Z</time></trkpt><trkpt lat="42.9901273" lon="12.8452543"><ele>737.0</ele><time>2026-05-03T11:20:22.497Z</time></trkpt><trkpt lat="42.990002" lon="12.8451637"><ele>738.0</ele><time>2026-05-03T11:20:23.494Z</time></trkpt><trkpt lat="42.9898895" lon="12.845099"><ele>739.0</ele><time>2026-05-03T11:20:24.495Z</time></trkpt><trkpt lat="42.9897705" lon="12.8451086"><ele>740.0</ele><time>2026-05-03T11:20:25.497Z</time></trkpt><trkpt lat="42.9896775" lon="12.8451298"><ele>741.0</ele><time>2026-05-03T11:20:26.496Z</time></trkpt><trkpt lat="42.9895946" lon="12.8451724"><ele>742.0</ele><time>2026-05-03T11:20:27.498Z</time></trkpt><trkpt lat="42.9895066" lon="12.8452835"><ele>742.0</ele><time>2026-05-03T11:20:28.497Z</time></trkpt><trkpt lat="42.9894666" lon="12.8455229"><ele>742.0</ele><time>2026-05-03T11:20:29.493Z</time></trkpt><trkpt lat="42.989641" lon="12.8458371"><ele>737.3333333333334</ele><time>2026-05-03T11:20:30.498Z</time></trkpt><trkpt lat="42.9896461" lon="12.8460464"><ele>732.6666666666666</ele><time>2026-05-03T11:20:31.498Z</time></trkpt><trkpt lat="42.9896624" lon="12.8462709"><ele>728.0</ele><time>2026-05-03T11:20:32.497Z</time></trkpt><trkpt lat="42.989675" lon="12.8464839"><ele>728.0</ele><time>2026-05-03T11:20:33.489Z</time></trkpt><trkpt lat="42.9896971" lon="12.8466924"><ele>728.0</ele><time>2026-05-03T11:20:34.495Z</time></trkpt><trkpt lat="42.9897334" lon="12.8468961"><ele>728.0</ele><time>2026-05-03T11:20:35.494Z</time></trkpt><trkpt lat="42.9897882" lon="12.8470923"><ele>728.75</ele><time>2026-05-03T11:20:36.495Z</time></trkpt><trkpt lat="42.9898509" lon="12.8472712"><ele>729.5</ele><time>2026-05-03T11:20:37.498Z</time></trkpt><trkpt lat="42.9899119" lon="12.8474325"><ele>730.25</ele><time>2026-05-03T11:20:38.495Z</time></trkpt><trkpt lat="42.9899791" lon="12.8475827"><ele>731.0</ele><time>2026-05-03T11:20:39.495Z</time></trkpt><trkpt lat="42.990019" lon="12.8477392"><ele>727.5</ele><time>2026-05-03T11:20:40.495Z</time></trkpt><trkpt lat="42.9900052" lon="12.8478967"><ele>724.0</ele><time>2026-05-03T11:20:41.495Z</time></trkpt><trkpt lat="42.9899811" lon="12.8480377"><ele>720.5</ele><time>2026-05-03T11:20:42.496Z</time></trkpt><trkpt lat="42.989906" lon="12.8481635"><ele>717.0</ele><time>2026-05-03T11:20:43.495Z</time></trkpt><trkpt lat="42.9897781" lon="12.8482918"><ele>717.0</ele><time>2026-05-03T11:20:44.497Z</time></trkpt><trkpt lat="42.9895428" lon="12.8482257"><ele>717.0</ele><time>2026-05-03T11:20:45.489Z</time></trkpt><trkpt lat="42.9893739" lon="12.8482553"><ele>717.0</ele><time>2026-05-03T11:20:46.495Z</time></trkpt><trkpt lat="42.989195" lon="12.8482544"><ele>719.6666666666666</ele><time>2026-05-03T11:20:47.496Z</time></trkpt><trkpt lat="42.989023" lon="12.8482496"><ele>722.3333333333333</ele><time>2026-05-03T11:20:48.498Z</time></trkpt><trkpt lat="42.9888547" lon="12.8482422"><ele>725.0</ele><time>2026-05-03T11:20:49.494Z</time></trkpt><trkpt lat="42.9886882" lon="12.8482434"><ele>725.0</ele><time>2026-05-03T11:20:50.495Z</time></trkpt><trkpt lat="42.9885194" lon="12.8482417"><ele>725.0</ele><time>2026-05-03T11:20:51.497Z</time></trkpt><trkpt lat="42.9883529" lon="12.8482468"><ele>725.0</ele><time>2026-05-03T11:20:52.497Z</time></trkpt><trkpt lat="42.9881878" lon="12.8482672"><ele>724.3333333333333</ele><time>2026-05-03T11:20:53.496Z</time></trkpt><trkpt lat="42.9880247" lon="12.84832"><ele>723.6666666666666</ele><time>2026-05-03T11:20:54.498Z</time></trkpt><trkpt lat="42.9878771" lon="12.8483886"><ele>723.0</ele><time>2026-05-03T11:20:55.5Z</time></trkpt><trkpt lat="42.9877283" lon="12.8484551"><ele>723.6666666666666</ele><time>2026-05-03T11:20:56.496Z</time></trkpt><trkpt lat="42.9875697" lon="12.8484868"><ele>724.3333333333333</ele><time>2026-05-03T11:20:57.499Z</time></trkpt><trkpt lat="42.9873953" lon="12.8484705"><ele>725.0</ele><time>2026-05-03T11:20:58.501Z</time></trkpt><trkpt lat="42.9872166" lon="12.8484556"><ele>725.0</ele><time>2026-05-03T11:20:59.497Z</time></trkpt><trkpt lat="42.9870482" lon="12.848409"><ele>725.0</ele><time>2026-05-03T11:21:00.496Z</time></trkpt><trkpt lat="42.9868745" lon="12.848364"><ele>725.0</ele><time>2026-05-03T11:21:01.493Z</time></trkpt><trkpt lat="42.9867011" lon="12.8483202"><ele>721.3333333333333</ele><time>2026-05-03T11:21:02.495Z</time></trkpt><trkpt lat="42.9865255" lon="12.8483048"><ele>717.6666666666666</ele><time>2026-05-03T11:21:03.494Z</time></trkpt><trkpt lat="42.9863475" lon="12.8483061"><ele>714.0</ele><time>2026-05-03T11:21:04.502Z</time></trkpt><trkpt lat="42.9861762" lon="12.8483109"><ele>714.0</ele><time>2026-05-03T11:21:05.5Z</time></trkpt><trkpt lat="42.9860028" lon="12.8483327"><ele>714.0</ele><time>2026-05-03T11:21:06.495Z</time></trkpt><trkpt lat="42.9858269" lon="12.8483396"><ele>714.0</ele><time>2026-05-03T11:21:07.501Z</time></trkpt><trkpt lat="42.9856452" lon="12.8483233"><ele>713.3333333333334</ele><time>2026-05-03T11:21:08.501Z</time></trkpt><trkpt lat="42.9854664" lon="12.8482752"><ele>712.6666666666667</ele><time>2026-05-03T11:21:09.497Z</time></trkpt><trkpt lat="42.9852837" lon="12.8482043"><ele>712.0</ele><time>2026-05-03T11:21:10.496Z</time></trkpt><trkpt lat="42.9851068" lon="12.8481143"><ele>706.3333333333334</ele><time>2026-05-03T11:21:11.495Z</time></trkpt><trkpt lat="42.9849267" lon="12.8480358"><ele>700.6666666666666</ele><time>2026-05-03T11:21:12.496Z</time></trkpt><trkpt lat="42.9847463" lon="12.8479578"><ele>695.0</ele><time>2026-05-03T11:21:13.497Z</time></trkpt><trkpt lat="42.9845681" lon="12.8478662"><ele>695.0</ele><time>2026-05-03T11:21:14.496Z</time></trkpt><trkpt lat="42.9843889" lon="12.8477698"><ele>695.0</ele><time>2026-05-03T11:21:15.5Z</time></trkpt><trkpt lat="42.9842069" lon="12.8476599"><ele>695.0</ele><time>2026-05-03T11:21:16.497Z</time></trkpt><trkpt lat="42.9840257" lon="12.8475346"><ele>698.6666666666666</ele><time>2026-05-03T11:21:17.496Z</time></trkpt><trkpt lat="42.9838551" lon="12.8474046"><ele>702.3333333333334</ele><time>2026-05-03T11:21:18.498Z</time></trkpt><trkpt lat="42.9836872" lon="12.8472645"><ele>706.0</ele><time>2026-05-03T11:21:19.496Z</time></trkpt><trkpt lat="42.9835232" lon="12.8471242"><ele>706.0</ele><time>2026-05-03T11:21:20.497Z</time></trkpt><trkpt lat="42.9833568" lon="12.8469797"><ele>706.0</ele><time>2026-05-03T11:21:21.497Z</time></trkpt><trkpt lat="42.9831866" lon="12.8468393"><ele>706.0</ele><time>2026-05-03T11:21:22.498Z</time></trkpt><trkpt lat="42.9830176" lon="12.8466968"><ele>706.3333333333334</ele><time>2026-05-03T11:21:23.499Z</time></trkpt><trkpt lat="42.9828472" lon="12.8465545"><ele>706.6666666666666</ele><time>2026-05-03T11:21:24.499Z</time></trkpt><trkpt lat="42.982685" lon="12.8464195"><ele>707.0</ele><time>2026-05-03T11:21:25.498Z</time></trkpt><trkpt lat="42.9825229" lon="12.8462848"><ele>707.0</ele><time>2026-05-03T11:21:26.497Z</time></trkpt><trkpt lat="42.9823606" lon="12.8461488"><ele>707.0</ele><time>2026-05-03T11:21:27.497Z</time></trkpt><trkpt lat="42.982196" lon="12.8460119"><ele>707.0</ele><time>2026-05-03T11:21:28.497Z</time></trkpt><trkpt lat="42.9820328" lon="12.8458683"><ele>707.0</ele><time>2026-05-03T11:21:29.501Z</time></trkpt><trkpt lat="42.9818718" lon="12.845722"><ele>707.0</ele><time>2026-05-03T11:21:30.501Z</time></trkpt><trkpt lat="42.9817082" lon="12.8455729"><ele>707.0</ele><time>2026-05-03T11:21:31.496Z</time></trkpt><trkpt lat="42.9815424" lon="12.8454285"><ele>707.0</ele><time>2026-05-03T11:21:32.502Z</time></trkpt><trkpt lat="42.9813728" lon="12.8452687"><ele>707.0</ele><time>2026-05-03T11:21:33.497Z</time></trkpt><trkpt lat="42.9812265" lon="12.8451"><ele>707.0</ele><time>2026-05-03T11:21:34.498Z</time></trkpt><trkpt lat="42.981063" lon="12.8449118"><ele>707.0</ele><time>2026-05-03T11:21:35.491Z</time></trkpt><trkpt lat="42.9809089" lon="12.8447456"><ele>707.0</ele><time>2026-05-03T11:21:36.498Z</time></trkpt><trkpt lat="42.9807516" lon="12.8445791"><ele>707.0</ele><time>2026-05-03T11:21:37.497Z</time></trkpt><trkpt lat="42.9805901" lon="12.8444179"><ele>704.3333333333333</ele><time>2026-05-03T11:21:38.498Z</time></trkpt><trkpt lat="42.9804496" lon="12.8442598"><ele>701.6666666666666</ele><time>2026-05-03T11:21:39.498Z</time></trkpt><trkpt lat="42.9802682" lon="12.8441288"><ele>699.0</ele><time>2026-05-03T11:21:40.501Z</time></trkpt><trkpt lat="42.9801041" lon="12.8440107"><ele>687.3333333333334</ele><time>2026-05-03T11:21:41.498Z</time></trkpt><trkpt lat="42.9799215" lon="12.8438883"><ele>675.6666666666667</ele><time>2026-05-03T11:21:42.498Z</time></trkpt><trkpt lat="42.9797558" lon="12.8437671"><ele>664.0</ele><time>2026-05-03T11:21:43.499Z</time></trkpt><trkpt lat="42.9795844" lon="12.8436487"><ele>664.0</ele><time>2026-05-03T11:21:44.499Z</time></trkpt><trkpt lat="42.9794236" lon="12.8435469"><ele>664.0</ele><time>2026-05-03T11:21:45.5Z</time></trkpt><trkpt lat="42.9792716" lon="12.8434259"><ele>664.0</ele><time>2026-05-03T11:21:46.497Z</time></trkpt><trkpt lat="42.979122" lon="12.8433007"><ele>662.6666666666667</ele><time>2026-05-03T11:21:47.497Z</time></trkpt><trkpt lat="42.9789811" lon="12.8431688"><ele>661.3333333333334</ele><time>2026-05-03T11:21:48.499Z</time></trkpt><trkpt lat="42.9788596" lon="12.8430308"><ele>660.0</ele><time>2026-05-03T11:21:49.498Z</time></trkpt><trkpt lat="42.9787396" lon="12.842895"><ele>660.0</ele><time>2026-05-03T11:21:50.496Z</time></trkpt><trkpt lat="42.9786213" lon="12.8427373"><ele>660.0</ele><time>2026-05-03T11:21:51.497Z</time></trkpt><trkpt lat="42.9785298" lon="12.8426405"><ele>660.0</ele><time>2026-05-03T11:21:52.499Z</time></trkpt><trkpt lat="42.9784162" lon="12.8425688"><ele>660.0</ele><time>2026-05-03T11:21:53.499Z</time></trkpt><trkpt lat="42.9783052" lon="12.8425414"><ele>657.8</ele><time>2026-05-03T11:21:54.497Z</time></trkpt><trkpt lat="42.9782098" lon="12.8425808"><ele>655.6</ele><time>2026-05-03T11:21:55.5Z</time></trkpt><trkpt lat="42.9781357" lon="12.8426679"><ele>653.4000000000001</ele><time>2026-05-03T11:21:56.498Z</time></trkpt><trkpt lat="42.978102" lon="12.8427968"><ele>651.2</ele><time>2026-05-03T11:21:57.498Z</time></trkpt><trkpt lat="42.9781175" lon="12.8429374"><ele>649.0</ele><time>2026-05-03T11:21:58.498Z</time></trkpt><trkpt lat="42.9781314" lon="12.8430632"><ele>647.3333333333334</ele><time>2026-05-03T11:21:59.497Z</time></trkpt><trkpt lat="42.9782992" lon="12.8431521"><ele>645.6666666666666</ele><time>2026-05-03T11:22:00.496Z</time></trkpt><trkpt lat="42.9783991" lon="12.8432588"><ele>644.0</ele><time>2026-05-03T11:22:01.497Z</time></trkpt><trkpt lat="42.9785857" lon="12.8433679"><ele>641.0</ele><time>2026-05-03T11:22:02.497Z</time></trkpt><trkpt lat="42.9787368" lon="12.8434764"><ele>638.0</ele><time>2026-05-03T11:22:03.497Z</time></trkpt><trkpt lat="42.9789025" lon="12.8436101"><ele>635.0</ele><time>2026-05-03T11:22:04.499Z</time></trkpt><trkpt lat="42.97909" lon="12.8437071"><ele>644.6666666666666</ele><time>2026-05-03T11:22:05.526Z</time></trkpt><trkpt lat="42.9792633" lon="12.8438316"><ele>654.3333333333334</ele><time>2026-05-03T11:22:06.495Z</time></trkpt><trkpt lat="42.979433" lon="12.8439629"><ele>664.0</ele><time>2026-05-03T11:22:07.497Z</time></trkpt><trkpt lat="42.9795833" lon="12.8441001"><ele>664.0</ele><time>2026-05-03T11:22:08.498Z</time></trkpt><trkpt lat="42.9797357" lon="12.8442342"><ele>664.0</ele><time>2026-05-03T11:22:09.499Z</time></trkpt><trkpt lat="42.9798914" lon="12.8443631"><ele>664.0</ele><time>2026-05-03T11:22:10.499Z</time></trkpt><trkpt lat="42.9800453" lon="12.8445048"><ele>666.0</ele><time>2026-05-03T11:22:11.497Z</time></trkpt><trkpt lat="42.9801932" lon="12.8446705"><ele>668.0</ele><time>2026-05-03T11:22:12.497Z</time></trkpt><trkpt lat="42.980333" lon="12.8448466"><ele>670.0</ele><time>2026-05-03T11:22:13.496Z</time></trkpt><trkpt lat="42.980472" lon="12.8450282"><ele>669.6666666666667</ele><time>2026-05-03T11:22:14.498Z</time></trkpt><trkpt lat="42.9806147" lon="12.8452119"><ele>669.3333333333334</ele><time>2026-05-03T11:22:15.497Z</time></trkpt><trkpt lat="42.980758" lon="12.8454029"><ele>669.0</ele><time>2026-05-03T11:22:16.499Z</time></trkpt><trkpt lat="42.9809037" lon="12.8455856"><ele>669.0</ele><time>2026-05-03T11:22:17.503Z</time></trkpt><trkpt lat="42.9810544" lon="12.8457739"><ele>669.0</ele><time>2026-05-03T11:22:18.499Z</time></trkpt><trkpt lat="42.9812037" lon="12.8459559"><ele>669.0</ele><time>2026-05-03T11:22:19.498Z</time></trkpt><trkpt lat="42.9813526" lon="12.846141"><ele>670.3333333333334</ele><time>2026-05-03T11:22:20.5Z</time></trkpt><trkpt lat="42.9815023" lon="12.8463252"><ele>671.6666666666667</ele><time>2026-05-03T11:22:21.562Z</time></trkpt><trkpt lat="42.9816518" lon="12.846512"><ele>673.0</ele><time>2026-05-03T11:22:22.498Z</time></trkpt><trkpt lat="42.9818012" lon="12.8466847"><ele>660.3333333333334</ele><time>2026-05-03T11:22:23.5Z</time></trkpt><trkpt lat="42.981948" lon="12.8468604"><ele>647.6666666666666</ele><time>2026-05-03T11:22:24.498Z</time></trkpt><trkpt lat="42.9820962" lon="12.8470374"><ele>635.0</ele><time>2026-05-03T11:22:25.498Z</time></trkpt><trkpt lat="42.9822377" lon="12.8472127"><ele>635.0</ele><time>2026-05-03T11:22:26.5Z</time></trkpt><trkpt lat="42.9823739" lon="12.8473828"><ele>635.0</ele><time>2026-05-03T11:22:27.497Z</time></trkpt><trkpt lat="42.9825078" lon="12.8475535"><ele>635.0</ele><time>2026-05-03T11:22:28.497Z</time></trkpt><trkpt lat="42.98264" lon="12.8477279"><ele>636.6666666666666</ele><time>2026-05-03T11:22:29.497Z</time></trkpt><trkpt lat="42.9827753" lon="12.8478991"><ele>638.3333333333334</ele><time>2026-05-03T11:22:30.502Z</time></trkpt><trkpt lat="42.9829099" lon="12.8480693"><ele>640.0</ele><time>2026-05-03T11:22:31.499Z</time></trkpt><trkpt lat="42.983045" lon="12.8482389"><ele>640.0</ele><time>2026-05-03T11:22:32.502Z</time></trkpt><trkpt lat="42.9831765" lon="12.8484096"><ele>640.0</ele><time>2026-05-03T11:22:33.498Z</time></trkpt><trkpt lat="42.9833071" lon="12.8485811"><ele>640.0</ele><time>2026-05-03T11:22:34.497Z</time></trkpt><trkpt lat="42.9834368" lon="12.8487529"><ele>639.0</ele><time>2026-05-03T11:22:35.497Z</time></trkpt><trkpt lat="42.9835706" lon="12.8489223"><ele>638.0</ele><time>2026-05-03T11:22:36.497Z</time></trkpt><trkpt lat="42.9837186" lon="12.8490847"><ele>637.0</ele><time>2026-05-03T11:22:37.498Z</time></trkpt><trkpt lat="42.9838732" lon="12.8492359"><ele>632.6666666666667</ele><time>2026-05-03T11:22:38.494Z</time></trkpt><trkpt lat="42.9840274" lon="12.8493709"><ele>628.3333333333334</ele><time>2026-05-03T11:22:39.498Z</time></trkpt><trkpt lat="42.9841781" lon="12.8494932"><ele>624.0</ele><time>2026-05-03T11:22:40.496Z</time></trkpt><trkpt lat="42.9843229" lon="12.8496012"><ele>624.0</ele><time>2026-05-03T11:22:41.498Z</time></trkpt><trkpt lat="42.9844567" lon="12.8496981"><ele>624.0</ele><time>2026-05-03T11:22:42.499Z</time></trkpt><trkpt lat="42.9845879" lon="12.8497796"><ele>624.0</ele><time>2026-05-03T11:22:43.498Z</time></trkpt><trkpt lat="42.9846871" lon="12.8498385"><ele>624.0</ele><time>2026-05-03T11:22:44.496Z</time></trkpt><trkpt lat="42.984764" lon="12.8499436"><ele>624.0</ele><time>2026-05-03T11:22:45.497Z</time></trkpt><trkpt lat="42.9848326" lon="12.8500421"><ele>624.0</ele><time>2026-05-03T11:22:46.498Z</time></trkpt><trkpt lat="42.9848535" lon="12.850135"><ele>624.0</ele><time>2026-05-03T11:22:47.497Z</time></trkpt><trkpt lat="42.9848045" lon="12.8502453"><ele>624.0</ele><time>2026-05-03T11:22:48.497Z</time></trkpt><trkpt lat="42.9846179" lon="12.8502787"><ele>624.0</ele><time>2026-05-03T11:22:49.497Z</time></trkpt><trkpt lat="42.9845347" lon="12.8503193"><ele>624.0</ele><time>2026-05-03T11:22:50.497Z</time></trkpt><trkpt lat="42.9843709" lon="12.8501705"><ele>624.0</ele><time>2026-05-03T11:22:51.496Z</time></trkpt><trkpt lat="42.9842161" lon="12.8500013"><ele>620.6666666666666</ele><time>2026-05-03T11:22:52.497Z</time></trkpt><trkpt lat="42.9840762" lon="12.8498564"><ele>617.3333333333333</ele><time>2026-05-03T11:22:53.499Z</time></trkpt><trkpt lat="42.9839308" lon="12.8497122"><ele>614.0</ele><time>2026-05-03T11:22:54.492Z</time></trkpt><trkpt lat="42.9837815" lon="12.8495671"><ele>614.0</ele><time>2026-05-03T11:22:55.502Z</time></trkpt><trkpt lat="42.9836343" lon="12.8494237"><ele>614.0</ele><time>2026-05-03T11:22:56.504Z</time></trkpt><trkpt lat="42.9834827" lon="12.8492735"><ele>614.0</ele><time>2026-05-03T11:22:57.499Z</time></trkpt><trkpt lat="42.9833344" lon="12.8491253"><ele>613.6666666666666</ele><time>2026-05-03T11:22:58.502Z</time></trkpt><trkpt lat="42.983186" lon="12.8489784"><ele>613.3333333333334</ele><time>2026-05-03T11:22:59.494Z</time></trkpt><trkpt lat="42.9830412" lon="12.848827"><ele>613.0</ele><time>2026-05-03T11:23:00.498Z</time></trkpt><trkpt lat="42.9828935" lon="12.8486861"><ele>613.0</ele><time>2026-05-03T11:23:01.496Z</time></trkpt><trkpt lat="42.9827482" lon="12.8485497"><ele>613.0</ele><time>2026-05-03T11:23:02.497Z</time></trkpt><trkpt lat="42.9826195" lon="12.8484196"><ele>613.0</ele><time>2026-05-03T11:23:03.497Z</time></trkpt><trkpt lat="42.9824856" lon="12.8483004"><ele>611.3333333333334</ele><time>2026-05-03T11:23:04.498Z</time></trkpt><trkpt lat="42.9823567" lon="12.848192"><ele>609.6666666666666</ele><time>2026-05-03T11:23:05.497Z</time></trkpt><trkpt lat="42.9822243" lon="12.8480821"><ele>608.0</ele><time>2026-05-03T11:23:06.498Z</time></trkpt><trkpt lat="42.9821018" lon="12.847954"><ele>608.0</ele><time>2026-05-03T11:23:07.497Z</time></trkpt><trkpt lat="42.9819855" lon="12.8478277"><ele>608.0</ele><time>2026-05-03T11:23:08.497Z</time></trkpt><trkpt lat="42.9818743" lon="12.8477125"><ele>608.0</ele><time>2026-05-03T11:23:09.496Z</time></trkpt><trkpt lat="42.9817608" lon="12.8476039"><ele>608.0</ele><time>2026-05-03T11:23:10.491Z</time></trkpt><trkpt lat="42.9816467" lon="12.8474894"><ele>606.75</ele><time>2026-05-03T11:23:11.499Z</time></trkpt><trkpt lat="42.9815342" lon="12.8473812"><ele>605.5</ele><time>2026-05-03T11:23:12.491Z</time></trkpt><trkpt lat="42.9814241" lon="12.8472732"><ele>604.25</ele><time>2026-05-03T11:23:13.498Z</time></trkpt><trkpt lat="42.9813198" lon="12.8471643"><ele>603.0</ele><time>2026-05-03T11:23:14.498Z</time></trkpt><trkpt lat="42.981215" lon="12.8470629"><ele>603.0</ele><time>2026-05-03T11:23:15.498Z</time></trkpt><trkpt lat="42.9811194" lon="12.8469786"><ele>603.0</ele><time>2026-05-03T11:23:16.5Z</time></trkpt><trkpt lat="42.9810275" lon="12.8468947"><ele>603.0</ele><time>2026-05-03T11:23:17.497Z</time></trkpt><trkpt lat="42.9809317" lon="12.8467942"><ele>603.0</ele><time>2026-05-03T11:23:18.497Z</time></trkpt><trkpt lat="42.9808343" lon="12.8466882"><ele>603.0</ele><time>2026-05-03T11:23:19.497Z</time></trkpt><trkpt lat="42.9807352" lon="12.8465811"><ele>603.0</ele><time>2026-05-03T11:23:20.502Z</time></trkpt><trkpt lat="42.980627" lon="12.8464789"><ele>603.0</ele><time>2026-05-03T11:23:21.498Z</time></trkpt><trkpt lat="42.9805095" lon="12.846376"><ele>603.0</ele><time>2026-05-03T11:23:22.5Z</time></trkpt><trkpt lat="42.9803898" lon="12.8462722"><ele>603.0</ele><time>2026-05-03T11:23:23.499Z</time></trkpt><trkpt lat="42.9802658" lon="12.8461711"><ele>603.0</ele><time>2026-05-03T11:23:24.499Z</time></trkpt><trkpt lat="42.9801308" lon="12.8460629"><ele>603.0</ele><time>2026-05-03T11:23:25.497Z</time></trkpt><trkpt lat="42.9799876" lon="12.8459509"><ele>600.6666666666666</ele><time>2026-05-03T11:23:26.494Z</time></trkpt><trkpt lat="42.9798451" lon="12.8458325"><ele>598.3333333333333</ele><time>2026-05-03T11:23:27.499Z</time></trkpt><trkpt lat="42.9797026" lon="12.8457136"><ele>596.0</ele><time>2026-05-03T11:23:28.502Z</time></trkpt><trkpt lat="42.9795572" lon="12.8455953"><ele>596.0</ele><time>2026-05-03T11:23:29.497Z</time></trkpt><trkpt lat="42.9794083" lon="12.8454736"><ele>596.0</ele><time>2026-05-03T11:23:30.498Z</time></trkpt><trkpt lat="42.9792566" lon="12.8453497"><ele>596.0</ele><time>2026-05-03T11:23:31.497Z</time></trkpt><trkpt lat="42.9790934" lon="12.8452233"><ele>596.3333333333333</ele><time>2026-05-03T11:23:32.496Z</time></trkpt><trkpt lat="42.9789359" lon="12.8450955"><ele>596.6666666666666</ele><time>2026-05-03T11:23:33.499Z</time></trkpt><trkpt lat="42.9787779" lon="12.8449753"><ele>597.0</ele><time>2026-05-03T11:23:34.497Z</time></trkpt><trkpt lat="42.9786233" lon="12.8448529"><ele>597.0</ele><time>2026-05-03T11:23:35.498Z</time></trkpt><trkpt lat="42.9784706" lon="12.8447354"><ele>597.0</ele><time>2026-05-03T11:23:36.497Z</time></trkpt><trkpt lat="42.9783199" lon="12.8446159"><ele>597.0</ele><time>2026-05-03T11:23:37.496Z</time></trkpt><trkpt lat="42.978169" lon="12.8445035"><ele>601.0</ele><time>2026-05-03T11:23:38.498Z</time></trkpt><trkpt lat="42.9780149" lon="12.8444021"><ele>605.0</ele><time>2026-05-03T11:23:39.495Z</time></trkpt><trkpt lat="42.9778615" lon="12.844307"><ele>609.0</ele><time>2026-05-03T11:23:40.497Z</time></trkpt><trkpt lat="42.9777017" lon="12.844221"><ele>609.0</ele><time>2026-05-03T11:23:41.499Z</time></trkpt><trkpt lat="42.9775458" lon="12.8441717"><ele>609.0</ele><time>2026-05-03T11:23:42.499Z</time></trkpt><trkpt lat="42.9773963" lon="12.8441302"><ele>609.0</ele><time>2026-05-03T11:23:43.499Z</time></trkpt><trkpt lat="42.9772511" lon="12.844096"><ele>604.5</ele><time>2026-05-03T11:23:44.497Z</time></trkpt><trkpt lat="42.9771097" lon="12.8440705"><ele>600.0</ele><time>2026-05-03T11:23:45.499Z</time></trkpt><trkpt lat="42.976974" lon="12.8440509"><ele>595.5</ele><time>2026-05-03T11:23:46.501Z</time></trkpt><trkpt lat="42.9768476" lon="12.844043"><ele>591.0</ele><time>2026-05-03T11:23:47.497Z</time></trkpt><trkpt lat="42.9767245" lon="12.8440155"><ele>589.0</ele><time>2026-05-03T11:23:48.496Z</time></trkpt><trkpt lat="42.976619" lon="12.8439637"><ele>587.0</ele><time>2026-05-03T11:23:49.497Z</time></trkpt><trkpt lat="42.9765273" lon="12.8438906"><ele>585.0</ele><time>2026-05-03T11:23:50.496Z</time></trkpt><trkpt lat="42.9764425" lon="12.8438301"><ele>583.0</ele><time>2026-05-03T11:23:51.498Z</time></trkpt><trkpt lat="42.9763498" lon="12.84381"><ele>581.0</ele><time>2026-05-03T11:23:52.497Z</time></trkpt><trkpt lat="42.9762489" lon="12.843843"><ele>581.0</ele><time>2026-05-03T11:23:53.497Z</time></trkpt><trkpt lat="42.976159" lon="12.8439003"><ele>581.0</ele><time>2026-05-03T11:23:54.498Z</time></trkpt><trkpt lat="42.9760367" lon="12.843979"><ele>581.0</ele><time>2026-05-03T11:23:55.497Z</time></trkpt><trkpt lat="42.9759073" lon="12.8440195"><ele>581.0</ele><time>2026-05-03T11:23:56.497Z</time></trkpt><trkpt lat="42.9757772" lon="12.8440606"><ele>579.75</ele><time>2026-05-03T11:23:57.496Z</time></trkpt><trkpt lat="42.9756449" lon="12.8441121"><ele>578.5</ele><time>2026-05-03T11:23:58.498Z</time></trkpt><trkpt lat="42.975506" lon="12.8441763"><ele>577.25</ele><time>2026-05-03T11:23:59.503Z</time></trkpt><trkpt lat="42.9753696" lon="12.8442591"><ele>576.0</ele><time>2026-05-03T11:24:00.498Z</time></trkpt><trkpt lat="42.9752346" lon="12.844355"><ele>576.0</ele><time>2026-05-03T11:24:01.5Z</time></trkpt><trkpt lat="42.9750953" lon="12.8444672"><ele>576.0</ele><time>2026-05-03T11:24:02.494Z</time></trkpt><trkpt lat="42.9749587" lon="12.8445884"><ele>576.0</ele><time>2026-05-03T11:24:03.496Z</time></trkpt><trkpt lat="42.9748228" lon="12.8447058"><ele>582.5</ele><time>2026-05-03T11:24:04.5Z</time></trkpt><trkpt lat="42.9746868" lon="12.8448254"><ele>589.0</ele><time>2026-05-03T11:24:05.496Z</time></trkpt><trkpt lat="42.9713627" lon="12.8479069"><ele>590.0</ele><time>2026-05-03T11:24:25.498Z</time></trkpt><trkpt lat="42.9711531" lon="12.848095"><ele>591.0</ele><time>2026-05-03T11:24:26.494Z</time></trkpt><trkpt lat="42.9709487" lon="12.8481613"><ele>589.3333333333334</ele><time>2026-05-03T11:24:27.495Z</time></trkpt><trkpt lat="42.970753" lon="12.8482288"><ele>587.6666666666667</ele><time>2026-05-03T11:24:28.496Z</time></trkpt><trkpt lat="42.9705542" lon="12.8482833"><ele>586.0</ele><time>2026-05-03T11:24:29.499Z</time></trkpt><trkpt lat="42.9703536" lon="12.8483514"><ele>586.0</ele><time>2026-05-03T11:24:30.497Z</time></trkpt><trkpt lat="42.9701514" lon="12.8484192"><ele>586.0</ele><time>2026-05-03T11:24:31.494Z</time></trkpt><trkpt lat="42.9699516" lon="12.8484845"><ele>586.0</ele><time>2026-05-03T11:24:32.495Z</time></trkpt><trkpt lat="42.9697586" lon="12.8485495"><ele>588.0</ele><time>2026-05-03T11:24:33.491Z</time></trkpt><trkpt lat="42.9695521" lon="12.848616"><ele>590.0</ele><time>2026-05-03T11:24:34.497Z</time></trkpt><trkpt lat="42.969346" lon="12.8486816"><ele>592.0</ele><time>2026-05-03T11:24:35.497Z</time></trkpt><trkpt lat="42.9691386" lon="12.8487485"><ele>592.0</ele><time>2026-05-03T11:24:36.499Z</time></trkpt><trkpt lat="42.9689322" lon="12.8488138"><ele>592.0</ele><time>2026-05-03T11:24:37.498Z</time></trkpt><trkpt lat="42.9687365" lon="12.8488809"><ele>592.0</ele><time>2026-05-03T11:24:38.499Z</time></trkpt><trkpt lat="42.9685396" lon="12.8489621"><ele>593.3333333333334</ele><time>2026-05-03T11:24:39.497Z</time></trkpt><trkpt lat="42.9683425" lon="12.8490308"><ele>594.6666666666666</ele><time>2026-05-03T11:24:40.497Z</time></trkpt><trkpt lat="42.968146" lon="12.8491013"><ele>596.0</ele><time>2026-05-03T11:24:41.496Z</time></trkpt><trkpt lat="42.9679552" lon="12.8491627"><ele>596.0</ele><time>2026-05-03T11:24:42.496Z</time></trkpt><trkpt lat="42.9677575" lon="12.8492379"><ele>596.0</ele><time>2026-05-03T11:24:43.498Z</time></trkpt><trkpt lat="42.9675605" lon="12.8493062"><ele>596.0</ele><time>2026-05-03T11:24:44.498Z</time></trkpt><trkpt lat="42.967363" lon="12.8493431"><ele>606.3333333333333</ele><time>2026-05-03T11:24:45.495Z</time></trkpt><trkpt lat="42.9671575" lon="12.8493664"><ele>616.6666666666666</ele><time>2026-05-03T11:24:46.498Z</time></trkpt><trkpt lat="42.9669516" lon="12.8493744"><ele>627.0</ele><time>2026-05-03T11:24:47.496Z</time></trkpt><trkpt lat="42.9667644" lon="12.8493212"><ele>615.6666666666666</ele><time>2026-05-03T11:24:48.498Z</time></trkpt><trkpt lat="42.9665635" lon="12.8492855"><ele>604.3333333333333</ele><time>2026-05-03T11:24:49.498Z</time></trkpt><trkpt lat="42.9663735" lon="12.8492432"><ele>593.0</ele><time>2026-05-03T11:24:50.496Z</time></trkpt><trkpt lat="42.9661825" lon="12.8492089"><ele>593.0</ele><time>2026-05-03T11:24:51.496Z</time></trkpt><trkpt lat="42.9659892" lon="12.8491731"><ele>593.0</ele><time>2026-05-03T11:24:52.5Z</time></trkpt><trkpt lat="42.9657989" lon="12.8491382"><ele>593.0</ele><time>2026-05-03T11:24:53.497Z</time></trkpt><trkpt lat="42.9656068" lon="12.8490957"><ele>595.0</ele><time>2026-05-03T11:24:54.498Z</time></trkpt><trkpt lat="42.9654243" lon="12.8490567"><ele>597.0</ele><time>2026-05-03T11:24:55.497Z</time></trkpt><trkpt lat="42.9652572" lon="12.8490216"><ele>599.0</ele><time>2026-05-03T11:24:56.497Z</time></trkpt><trkpt lat="42.9650896" lon="12.8490135"><ele>599.3333333333333</ele><time>2026-05-03T11:24:57.503Z</time></trkpt><trkpt lat="42.9649438" lon="12.8490682"><ele>599.6666666666666</ele><time>2026-05-03T11:24:58.494Z</time></trkpt><trkpt lat="42.9648066" lon="12.8491507"><ele>600.0</ele><time>2026-05-03T11:24:59.495Z</time></trkpt><trkpt lat="42.9646692" lon="12.8492467"><ele>609.3333333333334</ele><time>2026-05-03T11:25:00.495Z</time></trkpt><trkpt lat="42.9645676" lon="12.8494825"><ele>618.6666666666667</ele><time>2026-05-03T11:25:01.493Z</time></trkpt><trkpt lat="42.9644522" lon="12.8497022"><ele>628.0</ele><time>2026-05-03T11:25:02.494Z</time></trkpt><trkpt lat="42.964334" lon="12.8499238"><ele>626.0</ele><time>2026-05-03T11:25:03.496Z</time></trkpt><trkpt lat="42.9642117" lon="12.8501502"><ele>624.0</ele><time>2026-05-03T11:25:04.496Z</time></trkpt><trkpt lat="42.9640924" lon="12.850374"><ele>622.0</ele><time>2026-05-03T11:25:05.496Z</time></trkpt><trkpt lat="42.9639618" lon="12.8505834"><ele>622.0</ele><time>2026-05-03T11:25:06.493Z</time></trkpt><trkpt lat="42.9638159" lon="12.8507769"><ele>622.0</ele><time>2026-05-03T11:25:07.496Z</time></trkpt><trkpt lat="42.9636411" lon="12.8509549"><ele>622.0</ele><time>2026-05-03T11:25:08.497Z</time></trkpt><trkpt lat="42.9634687" lon="12.8511"><ele>620.0</ele><time>2026-05-03T11:25:09.499Z</time></trkpt><trkpt lat="42.9633081" lon="12.8512236"><ele>618.0</ele><time>2026-05-03T11:25:10.494Z</time></trkpt><trkpt lat="42.9631332" lon="12.8513046"><ele>616.0</ele><time>2026-05-03T11:25:11.496Z</time></trkpt><trkpt lat="42.962987" lon="12.8513991"><ele>616.0</ele><time>2026-05-03T11:25:12.496Z</time></trkpt><trkpt lat="42.9628567" lon="12.8514758"><ele>616.0</ele><time>2026-05-03T11:25:13.496Z</time></trkpt><trkpt lat="42.962852" lon="12.8516169"><ele>616.0</ele><time>2026-05-03T11:25:14.496Z</time></trkpt><trkpt lat="42.9628519" lon="12.8517611"><ele>616.0</ele><time>2026-05-03T11:25:15.497Z</time></trkpt><trkpt lat="42.9629035" lon="12.8519402"><ele>618.0</ele><time>2026-05-03T11:25:16.497Z</time></trkpt><trkpt lat="42.9629561" lon="12.8521353"><ele>620.0</ele><time>2026-05-03T11:25:17.494Z</time></trkpt><trkpt lat="42.9630485" lon="12.852348"><ele>622.0</ele><time>2026-05-03T11:25:18.498Z</time></trkpt><trkpt lat="42.9631061" lon="12.8525686"><ele>619.75</ele><time>2026-05-03T11:25:19.496Z</time></trkpt><trkpt lat="42.9630937" lon="12.8527445"><ele>617.5</ele><time>2026-05-03T11:25:20.495Z</time></trkpt><trkpt lat="42.963063" lon="12.8529131"><ele>615.25</ele><time>2026-05-03T11:25:21.495Z</time></trkpt><trkpt lat="42.9630277" lon="12.8530868"><ele>613.0</ele><time>2026-05-03T11:25:22.497Z</time></trkpt><trkpt lat="42.9629545" lon="12.853267"><ele>619.3333333333334</ele><time>2026-05-03T11:25:23.496Z</time></trkpt><trkpt lat="42.9628917" lon="12.8534594"><ele>625.6666666666666</ele><time>2026-05-03T11:25:24.499Z</time></trkpt><trkpt lat="42.962836" lon="12.8536405"><ele>632.0</ele><time>2026-05-03T11:25:25.495Z</time></trkpt><trkpt lat="42.9627679" lon="12.8538281"><ele>632.0</ele><time>2026-05-03T11:25:26.498Z</time></trkpt><trkpt lat="42.962686" lon="12.8539972"><ele>632.0</ele><time>2026-05-03T11:25:27.497Z</time></trkpt><trkpt lat="42.9625896" lon="12.8541372"><ele>632.0</ele><time>2026-05-03T11:25:28.497Z</time></trkpt><trkpt lat="42.962488" lon="12.8542684"><ele>632.0</ele><time>2026-05-03T11:25:29.496Z</time></trkpt><trkpt lat="42.9623833" lon="12.8543954"><ele>632.0</ele><time>2026-05-03T11:25:30.503Z</time></trkpt><trkpt lat="42.9622797" lon="12.8545233"><ele>632.0</ele><time>2026-05-03T11:25:31.496Z</time></trkpt><trkpt lat="42.962178" lon="12.8546527"><ele>632.0</ele><time>2026-05-03T11:25:32.499Z</time></trkpt><trkpt lat="42.9620823" lon="12.8547861"><ele>632.0</ele><time>2026-05-03T11:25:33.496Z</time></trkpt><trkpt lat="42.9619948" lon="12.8549278"><ele>632.0</ele><time>2026-05-03T11:25:34.498Z</time></trkpt><trkpt lat="42.9619011" lon="12.8550626"><ele>632.0</ele><time>2026-05-03T11:25:35.497Z</time></trkpt><trkpt lat="42.9618049" lon="12.8551904"><ele>632.0</ele><time>2026-05-03T11:25:36.498Z</time></trkpt><trkpt lat="42.9617096" lon="12.8553003"><ele>632.0</ele><time>2026-05-03T11:25:37.497Z</time></trkpt><trkpt lat="42.961608" lon="12.855414"><ele>631.25</ele><time>2026-05-03T11:25:38.495Z</time></trkpt><trkpt lat="42.9615017" lon="12.8555126"><ele>630.5</ele><time>2026-05-03T11:25:39.497Z</time></trkpt><trkpt lat="42.9613898" lon="12.8556065"><ele>629.75</ele><time>2026-05-03T11:25:40.496Z</time></trkpt><trkpt lat="42.9612793" lon="12.8556948"><ele>629.0</ele><time>2026-05-03T11:25:41.497Z</time></trkpt><trkpt lat="42.9611811" lon="12.8557882"><ele>629.0</ele><time>2026-05-03T11:25:42.497Z</time></trkpt><trkpt lat="42.961083" lon="12.8558636"><ele>629.0</ele><time>2026-05-03T11:25:43.497Z</time></trkpt><trkpt lat="42.9610063" lon="12.8559663"><ele>629.0</ele><time>2026-05-03T11:25:44.501Z</time></trkpt><trkpt lat="42.9609125" lon="12.8560883"><ele>629.0</ele><time>2026-05-03T11:25:45.5Z</time></trkpt><trkpt lat="42.960825" lon="12.856173"><ele>627.25</ele><time>2026-05-03T11:25:46.498Z</time></trkpt><trkpt lat="42.9607515" lon="12.856318"><ele>625.5</ele><time>2026-05-03T11:25:47.499Z</time></trkpt><trkpt lat="42.9606709" lon="12.8564362"><ele>623.75</ele><time>2026-05-03T11:25:48.495Z</time></trkpt><trkpt lat="42.960597" lon="12.8565643"><ele>622.0</ele><time>2026-05-03T11:25:49.498Z</time></trkpt><trkpt lat="42.9605264" lon="12.8566873"><ele>623.75</ele><time>2026-05-03T11:25:50.498Z</time></trkpt><trkpt lat="42.9604521" lon="12.8568025"><ele>625.5</ele><time>2026-05-03T11:25:51.499Z</time></trkpt><trkpt lat="42.9603764" lon="12.8569246"><ele>627.25</ele><time>2026-05-03T11:25:52.497Z</time></trkpt><trkpt lat="42.9603033" lon="12.8570433"><ele>629.0</ele><time>2026-05-03T11:25:53.497Z</time></trkpt><trkpt lat="42.9602302" lon="12.8571528"><ele>629.0</ele><time>2026-05-03T11:25:54.5Z</time></trkpt><trkpt lat="42.9601544" lon="12.8573101"><ele>629.0</ele><time>2026-05-03T11:25:55.5Z</time></trkpt><trkpt lat="42.960076" lon="12.8574571"><ele>629.0</ele><time>2026-05-03T11:25:56.491Z</time></trkpt><trkpt lat="42.959994" lon="12.8576061"><ele>629.0</ele><time>2026-05-03T11:25:57.495Z</time></trkpt><trkpt lat="42.9599002" lon="12.8577627"><ele>631.25</ele><time>2026-05-03T11:25:58.497Z</time></trkpt><trkpt lat="42.959809" lon="12.857922"><ele>633.5</ele><time>2026-05-03T11:25:59.499Z</time></trkpt><trkpt lat="42.9597192" lon="12.8580741"><ele>635.75</ele><time>2026-05-03T11:26:00.497Z</time></trkpt><trkpt lat="42.9596309" lon="12.8582276"><ele>638.0</ele><time>2026-05-03T11:26:01.498Z</time></trkpt><trkpt lat="42.9595449" lon="12.8583775"><ele>644.0</ele><time>2026-05-03T11:26:02.495Z</time></trkpt><trkpt lat="42.95946" lon="12.8585428"><ele>650.0</ele><time>2026-05-03T11:26:03.497Z</time></trkpt><trkpt lat="42.9593841" lon="12.8587132"><ele>656.0</ele><time>2026-05-03T11:26:04.49Z</time></trkpt><trkpt lat="42.9593253" lon="12.8588866"><ele>662.0</ele><time>2026-05-03T11:26:05.495Z</time></trkpt><trkpt lat="42.9592838" lon="12.8590665"><ele>662.0</ele><time>2026-05-03T11:26:06.495Z</time></trkpt><trkpt lat="42.9592494" lon="12.8592374"><ele>662.0</ele><time>2026-05-03T11:26:07.495Z</time></trkpt><trkpt lat="42.9592293" lon="12.8594008"><ele>662.0</ele><time>2026-05-03T11:26:08.495Z</time></trkpt><trkpt lat="42.9592198" lon="12.8595421"><ele>662.0</ele><time>2026-05-03T11:26:09.496Z</time></trkpt><trkpt lat="42.9591961" lon="12.8596562"><ele>662.0</ele><time>2026-05-03T11:26:10.496Z</time></trkpt><trkpt lat="42.9591431" lon="12.859728"><ele>657.3333333333333</ele><time>2026-05-03T11:26:11.495Z</time></trkpt><trkpt lat="42.9590747" lon="12.8597735"><ele>652.6666666666666</ele><time>2026-05-03T11:26:12.491Z</time></trkpt><trkpt lat="42.9589964" lon="12.8598169"><ele>648.0</ele><time>2026-05-03T11:26:13.496Z</time></trkpt><trkpt lat="42.9589204" lon="12.8598644"><ele>643.3333333333334</ele><time>2026-05-03T11:26:14.499Z</time></trkpt><trkpt lat="42.9588409" lon="12.8599136"><ele>638.6666666666667</ele><time>2026-05-03T11:26:15.495Z</time></trkpt><trkpt lat="42.9587494" lon="12.8599772"><ele>634.0</ele><time>2026-05-03T11:26:16.495Z</time></trkpt><trkpt lat="42.9586597" lon="12.860058"><ele>634.25</ele><time>2026-05-03T11:26:17.497Z</time></trkpt><trkpt lat="42.9585682" lon="12.8601559"><ele>634.5</ele><time>2026-05-03T11:26:18.494Z</time></trkpt><trkpt lat="42.9584731" lon="12.8602504"><ele>634.75</ele><time>2026-05-03T11:26:19.498Z</time></trkpt><trkpt lat="42.9583661" lon="12.8603363"><ele>635.0</ele><time>2026-05-03T11:26:20.49Z</time></trkpt><trkpt lat="42.9582494" lon="12.8604111"><ele>634.25</ele><time>2026-05-03T11:26:21.494Z</time></trkpt><trkpt lat="42.9581333" lon="12.8604809"><ele>633.5</ele><time>2026-05-03T11:26:22.498Z</time></trkpt><trkpt lat="42.9580246" lon="12.8605449"><ele>632.75</ele><time>2026-05-03T11:26:23.497Z</time></trkpt><trkpt lat="42.9579183" lon="12.8606113"><ele>632.0</ele><time>2026-05-03T11:26:24.497Z</time></trkpt><trkpt lat="42.9578157" lon="12.8606767"><ele>632.0</ele><time>2026-05-03T11:26:25.497Z</time></trkpt><trkpt lat="42.9577179" lon="12.8607327"><ele>632.0</ele><time>2026-05-03T11:26:26.498Z</time></trkpt><trkpt lat="42.9576288" lon="12.8607792"><ele>632.0</ele><time>2026-05-03T11:26:27.499Z</time></trkpt><trkpt lat="42.9575526" lon="12.8608139"><ele>632.0</ele><time>2026-05-03T11:26:28.499Z</time></trkpt><trkpt lat="42.9574586" lon="12.8608582"><ele>632.0</ele><time>2026-05-03T11:26:30.503Z</time></trkpt><trkpt lat="42.9573973" lon="12.8608857"><ele>632.0</ele><time>2026-05-03T11:26:33.496Z</time></trkpt><trkpt lat="42.9573735" lon="12.8609825"><ele>632.8000000000001</ele><time>2026-05-03T11:26:36.5Z</time></trkpt><trkpt lat="42.9574354" lon="12.8611166"><ele>633.6</ele><time>2026-05-03T11:26:38.496Z</time></trkpt><trkpt lat="42.957482" lon="12.861229"><ele>634.4000000000001</ele><time>2026-05-03T11:26:40.502Z</time></trkpt><trkpt lat="42.9574972" lon="12.8613355"><ele>635.2</ele><time>2026-05-03T11:26:42.496Z</time></trkpt><trkpt lat="42.9574826" lon="12.8614419"><ele>636.0</ele><time>2026-05-03T11:26:46.497Z</time></trkpt><trkpt lat="42.9574662" lon="12.8615495"><ele>636.0</ele><time>2026-05-03T11:26:50.498Z</time></trkpt><trkpt lat="42.9574131" lon="12.861616"><ele>636.0</ele><time>2026-05-03T11:27:30.496Z</time></trkpt><trkpt lat="42.9573323" lon="12.8616768"><ele>636.0</ele><time>2026-05-03T11:27:33.497Z</time></trkpt></trkseg><trkseg><trkpt lat="42.9575491" lon="12.8612859"><ele>641.8</ele><time>2026-05-03T13:30:01.647Z</time></trkpt><trkpt lat="42.9575231" lon="12.8610813"><ele>641.6</ele><time>2026-05-03T13:30:03.518Z</time></trkpt><trkpt lat="42.9575113" lon="12.8609821"><ele>641.4</ele><time>2026-05-03T13:30:05.522Z</time></trkpt><trkpt lat="42.9574401" lon="12.8609171"><ele>641.1999999999999</ele><time>2026-05-03T13:30:08.523Z</time></trkpt><trkpt lat="42.9573034" lon="12.8609108"><ele>641.0</ele><time>2026-05-03T13:30:10.521Z</time></trkpt><trkpt lat="42.9572177" lon="12.8609509"><ele>640.1666666666666</ele><time>2026-05-03T13:30:11.517Z</time></trkpt><trkpt lat="42.9571408" lon="12.8609857"><ele>639.3333333333333</ele><time>2026-05-03T13:30:12.522Z</time></trkpt><trkpt lat="42.9570651" lon="12.8610245"><ele>638.5</ele><time>2026-05-03T13:30:13.532Z</time></trkpt><trkpt lat="42.9569933" lon="12.8610388"><ele>637.6666666666666</ele><time>2026-05-03T13:30:14.524Z</time></trkpt><trkpt lat="42.9569213" lon="12.8610455"><ele>636.8333333333334</ele><time>2026-05-03T13:30:15.524Z</time></trkpt><trkpt lat="42.9568426" lon="12.8610424"><ele>636.0</ele><time>2026-05-03T13:30:16.519Z</time></trkpt><trkpt lat="42.9567525" lon="12.8610435"><ele>636.0</ele><time>2026-05-03T13:30:17.52Z</time></trkpt><trkpt lat="42.9566646" lon="12.8610318"><ele>636.0</ele><time>2026-05-03T13:30:18.52Z</time></trkpt><trkpt lat="42.9565714" lon="12.8610231"><ele>636.0</ele><time>2026-05-03T13:30:19.519Z</time></trkpt><trkpt lat="42.9564751" lon="12.8610033"><ele>636.0</ele><time>2026-05-03T13:30:20.523Z</time></trkpt><trkpt lat="42.9563812" lon="12.8609931"><ele>636.0</ele><time>2026-05-03T13:30:21.524Z</time></trkpt><trkpt lat="42.9562879" lon="12.8609778"><ele>636.0</ele><time>2026-05-03T13:30:22.522Z</time></trkpt><trkpt lat="42.9561912" lon="12.8609638"><ele>636.0</ele><time>2026-05-03T13:30:23.527Z</time></trkpt><trkpt lat="42.9561091" lon="12.8609409"><ele>636.0</ele><time>2026-05-03T13:30:24.524Z</time></trkpt><trkpt lat="42.9560217" lon="12.8609428"><ele>636.0</ele><time>2026-05-03T13:30:25.524Z</time></trkpt><trkpt lat="42.9559357" lon="12.860958"><ele>636.0</ele><time>2026-05-03T13:30:26.523Z</time></trkpt><trkpt lat="42.9558562" lon="12.8610039"><ele>636.0</ele><time>2026-05-03T13:30:27.523Z</time></trkpt><trkpt lat="42.9557829" lon="12.861068"><ele>636.0</ele><time>2026-05-03T13:30:28.524Z</time></trkpt><trkpt lat="42.9557181" lon="12.8611735"><ele>636.0</ele><time>2026-05-03T13:30:29.522Z</time></trkpt><trkpt lat="42.955661" lon="12.861291"><ele>636.0</ele><time>2026-05-03T13:30:30.522Z</time></trkpt><trkpt lat="42.9556038" lon="12.8614196"><ele>636.0</ele><time>2026-05-03T13:30:31.523Z</time></trkpt><trkpt lat="42.955546" lon="12.861542"><ele>636.0</ele><time>2026-05-03T13:30:32.522Z</time></trkpt><trkpt lat="42.9554879" lon="12.8616644"><ele>636.0</ele><time>2026-05-03T13:30:33.525Z</time></trkpt><trkpt lat="42.9554339" lon="12.8617743"><ele>636.0</ele><time>2026-05-03T13:30:34.525Z</time></trkpt><trkpt lat="42.9553744" lon="12.8618857"><ele>636.0</ele><time>2026-05-03T13:30:35.525Z</time></trkpt><trkpt lat="42.9553052" lon="12.8619959"><ele>636.0</ele><time>2026-05-03T13:30:36.524Z</time></trkpt><trkpt lat="42.9552259" lon="12.8620825"><ele>636.0</ele><time>2026-05-03T13:30:37.522Z</time></trkpt><trkpt lat="42.9551287" lon="12.862151"><ele>636.25</ele><time>2026-05-03T13:30:38.521Z</time></trkpt><trkpt lat="42.9550167" lon="12.8621855"><ele>636.5</ele><time>2026-05-03T13:30:39.521Z</time></trkpt><trkpt lat="42.9548979" lon="12.8621943"><ele>636.75</ele><time>2026-05-03T13:30:40.529Z</time></trkpt><trkpt lat="42.9547701" lon="12.8621636"><ele>637.0</ele><time>2026-05-03T13:30:41.524Z</time></trkpt><trkpt lat="42.9546533" lon="12.8621245"><ele>637.0</ele><time>2026-05-03T13:30:42.521Z</time></trkpt><trkpt lat="42.9545499" lon="12.8620976"><ele>637.0</ele><time>2026-05-03T13:30:43.522Z</time></trkpt><trkpt lat="42.9544471" lon="12.8620748"><ele>637.0</ele><time>2026-05-03T13:30:44.523Z</time></trkpt><trkpt lat="42.9543594" lon="12.8620613"><ele>637.0</ele><time>2026-05-03T13:30:45.519Z</time></trkpt><trkpt lat="42.9542716" lon="12.8620321"><ele>637.0</ele><time>2026-05-03T13:30:46.525Z</time></trkpt><trkpt lat="42.95419" lon="12.862007"><ele>637.25</ele><time>2026-05-03T13:30:47.523Z</time></trkpt><trkpt lat="42.9540904" lon="12.8619926"><ele>637.5</ele><time>2026-05-03T13:30:48.522Z</time></trkpt><trkpt lat="42.9539738" lon="12.8619977"><ele>637.75</ele><time>2026-05-03T13:30:49.523Z</time></trkpt><trkpt lat="42.9538585" lon="12.8620441"><ele>638.0</ele><time>2026-05-03T13:30:50.52Z</time></trkpt><trkpt lat="42.9537441" lon="12.8620958"><ele>638.0</ele><time>2026-05-03T13:30:51.522Z</time></trkpt><trkpt lat="42.9536336" lon="12.8621359"><ele>638.0</ele><time>2026-05-03T13:30:52.524Z</time></trkpt><trkpt lat="42.9535259" lon="12.862178"><ele>638.0</ele><time>2026-05-03T13:30:53.521Z</time></trkpt><trkpt lat="42.9534264" lon="12.8622158"><ele>638.0</ele><time>2026-05-03T13:30:54.523Z</time></trkpt><trkpt lat="42.9533422" lon="12.8622404"><ele>638.0</ele><time>2026-05-03T13:30:55.522Z</time></trkpt><trkpt lat="42.9532659" lon="12.8622713"><ele>638.8333333333333</ele><time>2026-05-03T13:30:56.519Z</time></trkpt><trkpt lat="42.953195" lon="12.8622902"><ele>639.6666666666666</ele><time>2026-05-03T13:30:57.521Z</time></trkpt><trkpt lat="42.9531194" lon="12.8623079"><ele>640.5</ele><time>2026-05-03T13:30:58.522Z</time></trkpt><trkpt lat="42.9530459" lon="12.862326"><ele>641.3333333333334</ele><time>2026-05-03T13:30:59.519Z</time></trkpt><trkpt lat="42.952969" lon="12.862357"><ele>642.1666666666667</ele><time>2026-05-03T13:31:00.518Z</time></trkpt><trkpt lat="42.952888" lon="12.8623966"><ele>643.0</ele><time>2026-05-03T13:31:01.516Z</time></trkpt><trkpt lat="42.9528129" lon="12.8624321"><ele>643.0</ele><time>2026-05-03T13:31:02.52Z</time></trkpt><trkpt lat="42.952744" lon="12.8624548"><ele>643.0</ele><time>2026-05-03T13:31:03.521Z</time></trkpt><trkpt lat="42.9526301" lon="12.8624909"><ele>643.0</ele><time>2026-05-03T13:31:05.521Z</time></trkpt><trkpt lat="42.9525212" lon="12.8625267"><ele>643.0</ele><time>2026-05-03T13:31:07.527Z</time></trkpt><trkpt lat="42.9524573" lon="12.8625488"><ele>643.0</ele><time>2026-05-03T13:31:08.523Z</time></trkpt><trkpt lat="42.9523823" lon="12.8625777"><ele>643.0</ele><time>2026-05-03T13:31:09.519Z</time></trkpt><trkpt lat="42.9522933" lon="12.8626082"><ele>642.1999999999999</ele><time>2026-05-03T13:31:10.523Z</time></trkpt><trkpt lat="42.9522017" lon="12.8626465"><ele>641.4</ele><time>2026-05-03T13:31:11.522Z</time></trkpt><trkpt lat="42.9521081" lon="12.8626831"><ele>640.5999999999999</ele><time>2026-05-03T13:31:12.521Z</time></trkpt><trkpt lat="42.952012" lon="12.8627218"><ele>639.8</ele><time>2026-05-03T13:31:13.526Z</time></trkpt><trkpt lat="42.9519181" lon="12.8627617"><ele>639.0</ele><time>2026-05-03T13:31:14.523Z</time></trkpt><trkpt lat="42.9518284" lon="12.8628079"><ele>639.0000000000001</ele><time>2026-05-03T13:31:15.528Z</time></trkpt><trkpt lat="42.9517587" lon="12.8628404"><ele>639.0</ele><time>2026-05-03T13:31:16.522Z</time></trkpt><trkpt lat="42.9516861" lon="12.8628662"><ele>639.0</ele><time>2026-05-03T13:31:17.529Z</time></trkpt><trkpt lat="42.9516154" lon="12.8628991"><ele>639.0</ele><time>2026-05-03T13:31:18.525Z</time></trkpt><trkpt lat="42.9515538" lon="12.8629207"><ele>639.0</ele><time>2026-05-03T13:31:19.522Z</time></trkpt><trkpt lat="42.9514883" lon="12.8629458"><ele>639.0000000000001</ele><time>2026-05-03T13:31:20.529Z</time></trkpt><trkpt lat="42.9514258" lon="12.8629711"><ele>639.0</ele><time>2026-05-03T13:31:21.526Z</time></trkpt><trkpt lat="42.9513654" lon="12.8629965"><ele>639.0</ele><time>2026-05-03T13:31:22.526Z</time></trkpt><trkpt lat="42.9512955" lon="12.8630183"><ele>639.0</ele><time>2026-05-03T13:31:23.525Z</time></trkpt><trkpt lat="42.9511703" lon="12.8630713"><ele>639.0</ele><time>2026-05-03T13:31:25.528Z</time></trkpt><trkpt lat="42.9510896" lon="12.8631148"><ele>639.0</ele><time>2026-05-03T13:31:26.523Z</time></trkpt><trkpt lat="42.9510089" lon="12.8631478"><ele>639.0</ele><time>2026-05-03T13:31:27.524Z</time></trkpt><trkpt lat="42.9509159" lon="12.863224"><ele>639.3333333333334</ele><time>2026-05-03T13:31:28.526Z</time></trkpt><trkpt lat="42.9508203" lon="12.8633077"><ele>639.6666666666667</ele><time>2026-05-03T13:31:29.524Z</time></trkpt><trkpt lat="42.9506525" lon="12.8634634"><ele>640.0</ele><time>2026-05-03T13:31:31.524Z</time></trkpt><trkpt lat="42.950549" lon="12.8635997"><ele>640.0</ele><time>2026-05-03T13:31:32.526Z</time></trkpt><trkpt lat="42.9504506" lon="12.8637114"><ele>640.0</ele><time>2026-05-03T13:31:33.523Z</time></trkpt><trkpt lat="42.9503578" lon="12.8638128"><ele>640.0</ele><time>2026-05-03T13:31:34.523Z</time></trkpt><trkpt lat="42.9502525" lon="12.8639055"><ele>640.0</ele><time>2026-05-03T13:31:35.524Z</time></trkpt><trkpt lat="42.9501425" lon="12.8639742"><ele>641.5</ele><time>2026-05-03T13:31:36.525Z</time></trkpt><trkpt lat="42.9500261" lon="12.8640266"><ele>643.0</ele><time>2026-05-03T13:31:37.526Z</time></trkpt><trkpt lat="42.9499027" lon="12.8640661"><ele>644.5</ele><time>2026-05-03T13:31:38.522Z</time></trkpt><trkpt lat="42.949778" lon="12.8640924"><ele>646.0</ele><time>2026-05-03T13:31:39.522Z</time></trkpt><trkpt lat="42.9496513" lon="12.8641193"><ele>646.0</ele><time>2026-05-03T13:31:40.528Z</time></trkpt><trkpt lat="42.9495231" lon="12.8641438"><ele>646.0</ele><time>2026-05-03T13:31:41.522Z</time></trkpt><trkpt lat="42.9493917" lon="12.8641769"><ele>646.0</ele><time>2026-05-03T13:31:42.528Z</time></trkpt><trkpt lat="42.9492555" lon="12.8642065"><ele>646.0</ele><time>2026-05-03T13:31:43.526Z</time></trkpt><trkpt lat="42.9491171" lon="12.8642285"><ele>645.5</ele><time>2026-05-03T13:31:44.522Z</time></trkpt><trkpt lat="42.9489825" lon="12.86426"><ele>645.0</ele><time>2026-05-03T13:31:45.522Z</time></trkpt><trkpt lat="42.948851" lon="12.8642853"><ele>644.5</ele><time>2026-05-03T13:31:46.522Z</time></trkpt><trkpt lat="42.9487219" lon="12.8643112"><ele>644.0</ele><time>2026-05-03T13:31:47.523Z</time></trkpt><trkpt lat="42.9485938" lon="12.8643294"><ele>644.0</ele><time>2026-05-03T13:31:48.527Z</time></trkpt><trkpt lat="42.9484609" lon="12.8643498"><ele>644.0</ele><time>2026-05-03T13:31:49.522Z</time></trkpt><trkpt lat="42.9483362" lon="12.864369"><ele>644.0</ele><time>2026-05-03T13:31:50.522Z</time></trkpt><trkpt lat="42.948203" lon="12.8643835"><ele>644.0</ele><time>2026-05-03T13:31:51.521Z</time></trkpt><trkpt lat="42.9480695" lon="12.8643819"><ele>644.5</ele><time>2026-05-03T13:31:52.522Z</time></trkpt><trkpt lat="42.9479391" lon="12.8643585"><ele>645.0</ele><time>2026-05-03T13:31:53.526Z</time></trkpt><trkpt lat="42.9478074" lon="12.8643176"><ele>645.5</ele><time>2026-05-03T13:31:54.524Z</time></trkpt><trkpt lat="42.9476791" lon="12.8642716"><ele>646.0</ele><time>2026-05-03T13:31:55.528Z</time></trkpt><trkpt lat="42.9475484" lon="12.8642233"><ele>647.5</ele><time>2026-05-03T13:31:56.528Z</time></trkpt><trkpt lat="42.947418" lon="12.8641714"><ele>649.0</ele><time>2026-05-03T13:31:57.525Z</time></trkpt><trkpt lat="42.9472886" lon="12.8641152"><ele>650.5</ele><time>2026-05-03T13:31:58.523Z</time></trkpt><trkpt lat="42.9471589" lon="12.8640575"><ele>652.0</ele><time>2026-05-03T13:31:59.524Z</time></trkpt><trkpt lat="42.9470263" lon="12.8639985"><ele>652.0</ele><time>2026-05-03T13:32:00.523Z</time></trkpt><trkpt lat="42.9468972" lon="12.8639435"><ele>652.0</ele><time>2026-05-03T13:32:01.528Z</time></trkpt><trkpt lat="42.9467712" lon="12.8638906"><ele>652.0</ele><time>2026-05-03T13:32:02.523Z</time></trkpt><trkpt lat="42.9466496" lon="12.8638375"><ele>652.0</ele><time>2026-05-03T13:32:03.523Z</time></trkpt><trkpt lat="42.9465266" lon="12.8637857"><ele>651.75</ele><time>2026-05-03T13:32:04.526Z</time></trkpt><trkpt lat="42.9464" lon="12.8637386"><ele>651.5</ele><time>2026-05-03T13:32:05.524Z</time></trkpt><trkpt lat="42.9462706" lon="12.8637015"><ele>651.25</ele><time>2026-05-03T13:32:06.524Z</time></trkpt><trkpt lat="42.9461487" lon="12.8636758"><ele>651.0</ele><time>2026-05-03T13:32:07.521Z</time></trkpt><trkpt lat="42.9460455" lon="12.8636641"><ele>651.0</ele><time>2026-05-03T13:32:08.528Z</time></trkpt><trkpt lat="42.94596" lon="12.8636495"><ele>651.0</ele><time>2026-05-03T13:32:09.523Z</time></trkpt><trkpt lat="42.9458882" lon="12.8636409"><ele>651.0</ele><time>2026-05-03T13:32:10.522Z</time></trkpt><trkpt lat="42.9458004" lon="12.8636265"><ele>651.0</ele><time>2026-05-03T13:32:12.525Z</time></trkpt><trkpt lat="42.9457381" lon="12.8635775"><ele>651.0</ele><time>2026-05-03T13:32:16.522Z</time></trkpt><trkpt lat="42.945666" lon="12.8636502"><ele>651.0</ele><time>2026-05-03T13:34:03.523Z</time></trkpt><trkpt lat="42.9457583" lon="12.8636828"><ele>651.0</ele><time>2026-05-03T13:34:05.526Z</time></trkpt><trkpt lat="42.9458498" lon="12.8636942"><ele>651.0</ele><time>2026-05-03T13:34:06.523Z</time></trkpt><trkpt lat="42.945962" lon="12.8637088"><ele>651.0</ele><time>2026-05-03T13:34:07.535Z</time></trkpt><trkpt lat="42.9460869" lon="12.8637264"><ele>651.0</ele><time>2026-05-03T13:34:08.52Z</time></trkpt><trkpt lat="42.9462249" lon="12.8637503"><ele>651.0</ele><time>2026-05-03T13:34:09.518Z</time></trkpt><trkpt lat="42.9463761" lon="12.8637892"><ele>651.0</ele><time>2026-05-03T13:34:10.52Z</time></trkpt><trkpt lat="42.9465208" lon="12.8638501"><ele>651.0</ele><time>2026-05-03T13:34:11.519Z</time></trkpt><trkpt lat="42.9466652" lon="12.863915"><ele>651.3333333333334</ele><time>2026-05-03T13:34:12.521Z</time></trkpt><trkpt lat="42.946818" lon="12.86398"><ele>651.6666666666667</ele><time>2026-05-03T13:34:13.521Z</time></trkpt><trkpt lat="42.9469718" lon="12.8640408"><ele>652.0</ele><time>2026-05-03T13:34:14.521Z</time></trkpt><trkpt lat="42.9471286" lon="12.8641092"><ele>652.0</ele><time>2026-05-03T13:34:15.524Z</time></trkpt><trkpt lat="42.9472855" lon="12.8641764"><ele>652.0</ele><time>2026-05-03T13:34:16.523Z</time></trkpt><trkpt lat="42.9474459" lon="12.8642407"><ele>652.0</ele><time>2026-05-03T13:34:17.525Z</time></trkpt><trkpt lat="42.9476042" lon="12.864299"><ele>650.0</ele><time>2026-05-03T13:34:18.527Z</time></trkpt><trkpt lat="42.947765" lon="12.8643614"><ele>648.0</ele><time>2026-05-03T13:34:19.524Z</time></trkpt><trkpt lat="42.9479244" lon="12.8644092"><ele>646.0</ele><time>2026-05-03T13:34:20.526Z</time></trkpt><trkpt lat="42.9481026" lon="12.8644315"><ele>646.0</ele><time>2026-05-03T13:34:21.526Z</time></trkpt><trkpt lat="42.9482821" lon="12.8644246"><ele>646.0</ele><time>2026-05-03T13:34:22.523Z</time></trkpt><trkpt lat="42.9484614" lon="12.8644016"><ele>646.0</ele><time>2026-05-03T13:34:23.529Z</time></trkpt><trkpt lat="42.9486469" lon="12.8643663"><ele>646.0</ele><time>2026-05-03T13:34:24.521Z</time></trkpt><trkpt lat="42.9488354" lon="12.8643349"><ele>646.0</ele><time>2026-05-03T13:34:25.528Z</time></trkpt><trkpt lat="42.9490216" lon="12.8642976"><ele>646.0</ele><time>2026-05-03T13:34:26.523Z</time></trkpt><trkpt lat="42.949215" lon="12.8642622"><ele>646.0</ele><time>2026-05-03T13:34:27.522Z</time></trkpt><trkpt lat="42.9494087" lon="12.8642232"><ele>646.0</ele><time>2026-05-03T13:34:28.525Z</time></trkpt><trkpt lat="42.9496027" lon="12.864186"><ele>646.0</ele><time>2026-05-03T13:34:29.524Z</time></trkpt><trkpt lat="42.9497905" lon="12.8641436"><ele>646.0</ele><time>2026-05-03T13:34:30.523Z</time></trkpt><trkpt lat="42.949966" lon="12.8641016"><ele>646.0</ele><time>2026-05-03T13:34:31.527Z</time></trkpt><trkpt lat="42.9501356" lon="12.8640257"><ele>646.0</ele><time>2026-05-03T13:34:32.528Z</time></trkpt><trkpt lat="42.9502935" lon="12.8639101"><ele>645.3333333333334</ele><time>2026-05-03T13:34:33.521Z</time></trkpt><trkpt lat="42.9504474" lon="12.8637683"><ele>644.6666666666666</ele><time>2026-05-03T13:34:34.521Z</time></trkpt><trkpt lat="42.950594" lon="12.8636095"><ele>644.0</ele><time>2026-05-03T13:34:35.525Z</time></trkpt><trkpt lat="42.9507432" lon="12.8634315"><ele>642.3333333333333</ele><time>2026-05-03T13:34:36.525Z</time></trkpt><trkpt lat="42.9509036" lon="12.8632802"><ele>640.6666666666666</ele><time>2026-05-03T13:34:37.524Z</time></trkpt><trkpt lat="42.9510858" lon="12.8631593"><ele>639.0</ele><time>2026-05-03T13:34:38.52Z</time></trkpt><trkpt lat="42.9512756" lon="12.8630685"><ele>639.0</ele><time>2026-05-03T13:34:39.528Z</time></trkpt><trkpt lat="42.9514756" lon="12.8629888"><ele>639.0</ele><time>2026-05-03T13:34:40.522Z</time></trkpt><trkpt lat="42.9516755" lon="12.8629105"><ele>639.0</ele><time>2026-05-03T13:34:41.523Z</time></trkpt><trkpt lat="42.9518773" lon="12.8628295"><ele>639.0</ele><time>2026-05-03T13:34:42.524Z</time></trkpt><trkpt lat="42.9520811" lon="12.8627466"><ele>639.0</ele><time>2026-05-03T13:34:43.529Z</time></trkpt><trkpt lat="42.9522818" lon="12.8626658"><ele>639.0</ele><time>2026-05-03T13:34:44.524Z</time></trkpt><trkpt lat="42.9524845" lon="12.8625849"><ele>640.3333333333334</ele><time>2026-05-03T13:34:45.525Z</time></trkpt><trkpt lat="42.9526916" lon="12.862508"><ele>641.6666666666667</ele><time>2026-05-03T13:34:46.524Z</time></trkpt><trkpt lat="42.9528891" lon="12.8624298"><ele>643.0</ele><time>2026-05-03T13:34:47.525Z</time></trkpt><trkpt lat="42.9530746" lon="12.8623579"><ele>643.0</ele><time>2026-05-03T13:34:48.524Z</time></trkpt><trkpt lat="42.9532478" lon="12.8622872"><ele>643.0</ele><time>2026-05-03T13:34:49.522Z</time></trkpt><trkpt lat="42.9534096" lon="12.8622213"><ele>643.0</ele><time>2026-05-03T13:34:50.524Z</time></trkpt><trkpt lat="42.9535647" lon="12.8621622"><ele>641.3333333333334</ele><time>2026-05-03T13:34:51.523Z</time></trkpt><trkpt lat="42.9537172" lon="12.8621023"><ele>639.6666666666666</ele><time>2026-05-03T13:34:52.524Z</time></trkpt><trkpt lat="42.95387" lon="12.862045"><ele>638.0</ele><time>2026-05-03T13:34:53.524Z</time></trkpt><trkpt lat="42.9540243" lon="12.8620095"><ele>638.0</ele><time>2026-05-03T13:34:54.522Z</time></trkpt><trkpt lat="42.9541675" lon="12.8620018"><ele>638.0</ele><time>2026-05-03T13:34:55.528Z</time></trkpt><trkpt lat="42.9543037" lon="12.8620201"><ele>638.0</ele><time>2026-05-03T13:34:56.525Z</time></trkpt><trkpt lat="42.9544311" lon="12.862058"><ele>638.0</ele><time>2026-05-03T13:34:57.525Z</time></trkpt><trkpt lat="42.9545556" lon="12.8621091"><ele>637.75</ele><time>2026-05-03T13:34:58.525Z</time></trkpt><trkpt lat="42.9546769" lon="12.8621565"><ele>637.5</ele><time>2026-05-03T13:34:59.529Z</time></trkpt><trkpt lat="42.9547935" lon="12.8621975"><ele>637.25</ele><time>2026-05-03T13:35:00.525Z</time></trkpt><trkpt lat="42.9549057" lon="12.8622239"><ele>637.0</ele><time>2026-05-03T13:35:01.531Z</time></trkpt><trkpt lat="42.955014" lon="12.8622333"><ele>636.8000000000001</ele><time>2026-05-03T13:35:02.525Z</time></trkpt><trkpt lat="42.9551136" lon="12.8622137"><ele>636.6</ele><time>2026-05-03T13:35:03.524Z</time></trkpt><trkpt lat="42.955208" lon="12.8621601"><ele>636.4000000000001</ele><time>2026-05-03T13:35:04.525Z</time></trkpt><trkpt lat="42.9552942" lon="12.8620776"><ele>636.2</ele><time>2026-05-03T13:35:05.531Z</time></trkpt><trkpt lat="42.9553644" lon="12.8619813"><ele>636.0</ele><time>2026-05-03T13:35:06.524Z</time></trkpt><trkpt lat="42.9554215" lon="12.8618772"><ele>636.0</ele><time>2026-05-03T13:35:07.524Z</time></trkpt><trkpt lat="42.9554708" lon="12.8617749"><ele>636.0</ele><time>2026-05-03T13:35:08.525Z</time></trkpt><trkpt lat="42.955519" lon="12.8616741"><ele>636.0</ele><time>2026-05-03T13:35:09.523Z</time></trkpt><trkpt lat="42.9555649" lon="12.8615791"><ele>636.0</ele><time>2026-05-03T13:35:10.521Z</time></trkpt><trkpt lat="42.9556079" lon="12.861482"><ele>636.0</ele><time>2026-05-03T13:35:11.527Z</time></trkpt><trkpt lat="42.9556503" lon="12.8613878"><ele>636.0</ele><time>2026-05-03T13:35:12.526Z</time></trkpt><trkpt lat="42.9556907" lon="12.8613033"><ele>636.0</ele><time>2026-05-03T13:35:13.526Z</time></trkpt><trkpt lat="42.9557296" lon="12.8612283"><ele>636.0</ele><time>2026-05-03T13:35:14.526Z</time></trkpt><trkpt lat="42.9557711" lon="12.8611548"><ele>636.0</ele><time>2026-05-03T13:35:15.521Z</time></trkpt><trkpt lat="42.9558164" lon="12.8610892"><ele>636.0</ele><time>2026-05-03T13:35:16.523Z</time></trkpt><trkpt lat="42.9558785" lon="12.8610399"><ele>636.0</ele><time>2026-05-03T13:35:17.521Z</time></trkpt><trkpt lat="42.955946" lon="12.8610016"><ele>636.0</ele><time>2026-05-03T13:35:18.523Z</time></trkpt><trkpt lat="42.9560218" lon="12.8609719"><ele>636.0</ele><time>2026-05-03T13:35:19.521Z</time></trkpt><trkpt lat="42.9560937" lon="12.8609587"><ele>636.0</ele><time>2026-05-03T13:35:20.522Z</time></trkpt><trkpt lat="42.956177" lon="12.8609676"><ele>636.0</ele><time>2026-05-03T13:35:21.521Z</time></trkpt><trkpt lat="42.9562587" lon="12.8609777"><ele>636.0</ele><time>2026-05-03T13:35:22.522Z</time></trkpt><trkpt lat="42.956345" lon="12.8609936"><ele>636.0</ele><time>2026-05-03T13:35:23.522Z</time></trkpt><trkpt lat="42.9564308" lon="12.8610049"><ele>636.0</ele><time>2026-05-03T13:35:24.522Z</time></trkpt><trkpt lat="42.9565074" lon="12.8610205"><ele>636.0</ele><time>2026-05-03T13:35:25.524Z</time></trkpt><trkpt lat="42.9565842" lon="12.8610418"><ele>636.0</ele><time>2026-05-03T13:35:26.52Z</time></trkpt><trkpt lat="42.9566559" lon="12.8610621"><ele>636.0</ele><time>2026-05-03T13:35:27.519Z</time></trkpt><trkpt lat="42.9567247" lon="12.8610815"><ele>636.0</ele><time>2026-05-03T13:35:28.521Z</time></trkpt><trkpt lat="42.9567937" lon="12.8610927"><ele>636.0</ele><time>2026-05-03T13:35:29.524Z</time></trkpt><trkpt lat="42.9568604" lon="12.8611004"><ele>636.0</ele><time>2026-05-03T13:35:30.521Z</time></trkpt><trkpt lat="42.9569284" lon="12.8610908"><ele>636.0</ele><time>2026-05-03T13:35:31.523Z</time></trkpt><trkpt lat="42.9569978" lon="12.8610747"><ele>636.0</ele><time>2026-05-03T13:35:32.525Z</time></trkpt><trkpt lat="42.9571135" lon="12.8610386"><ele>636.0</ele><time>2026-05-03T13:35:34.523Z</time></trkpt><trkpt lat="42.9572061" lon="12.860986"><ele>636.0</ele><time>2026-05-03T13:35:36.521Z</time></trkpt><trkpt lat="42.9573062" lon="12.8609793"><ele>636.0</ele><time>2026-05-03T13:35:38.516Z</time></trkpt><trkpt lat="42.9573784" lon="12.860958"><ele>636.0</ele><time>2026-05-03T13:35:40.518Z</time></trkpt><trkpt lat="42.957448" lon="12.8609126"><ele>636.0</ele><time>2026-05-03T13:35:56.522Z</time></trkpt><trkpt lat="42.9575045" lon="12.8608702"><ele>636.0</ele><time>2026-05-03T13:35:58.521Z</time></trkpt><trkpt lat="42.9576042" lon="12.8608103"><ele>635.2</ele><time>2026-05-03T13:36:00.521Z</time></trkpt><trkpt lat="42.9576628" lon="12.8607689"><ele>634.4000000000001</ele><time>2026-05-03T13:36:01.522Z</time></trkpt><trkpt lat="42.9577813" lon="12.860718"><ele>633.6</ele><time>2026-05-03T13:36:03.525Z</time></trkpt><trkpt lat="42.9578472" lon="12.8606775"><ele>632.8000000000001</ele><time>2026-05-03T13:36:04.524Z</time></trkpt><trkpt lat="42.9579354" lon="12.860619"><ele>632.0</ele><time>2026-05-03T13:36:06.519Z</time></trkpt><trkpt lat="42.9580788" lon="12.8605183"><ele>632.0</ele><time>2026-05-03T13:36:08.521Z</time></trkpt><trkpt lat="42.9581704" lon="12.8604708"><ele>632.0</ele><time>2026-05-03T13:36:09.523Z</time></trkpt><trkpt lat="42.9582488" lon="12.8604248"><ele>632.0</ele><time>2026-05-03T13:36:10.521Z</time></trkpt><trkpt lat="42.9583298" lon="12.8603715"><ele>632.0</ele><time>2026-05-03T13:36:11.522Z</time></trkpt><trkpt lat="42.9584081" lon="12.8603096"><ele>632.0</ele><time>2026-05-03T13:36:12.521Z</time></trkpt><trkpt lat="42.9584821" lon="12.8602433"><ele>632.4</ele><time>2026-05-03T13:36:13.523Z</time></trkpt><trkpt lat="42.9585577" lon="12.8601683"><ele>632.8000000000001</ele><time>2026-05-03T13:36:14.522Z</time></trkpt><trkpt lat="42.9586275" lon="12.8600947"><ele>633.2</ele><time>2026-05-03T13:36:15.523Z</time></trkpt><trkpt lat="42.9586987" lon="12.8600199"><ele>633.6</ele><time>2026-05-03T13:36:16.521Z</time></trkpt><trkpt lat="42.9587737" lon="12.8599501"><ele>634.0</ele><time>2026-05-03T13:36:17.528Z</time></trkpt><trkpt lat="42.9588541" lon="12.8598909"><ele>634.0</ele><time>2026-05-03T13:36:18.524Z</time></trkpt><trkpt lat="42.9589429" lon="12.8598643"><ele>634.0</ele><time>2026-05-03T13:36:19.523Z</time></trkpt><trkpt lat="42.9590228" lon="12.8598222"><ele>634.0</ele><time>2026-05-03T13:36:20.523Z</time></trkpt><trkpt lat="42.9590992" lon="12.859773"><ele>634.0</ele><time>2026-05-03T13:36:21.52Z</time></trkpt><trkpt lat="42.9591688" lon="12.8597295"><ele>634.0</ele><time>2026-05-03T13:36:22.525Z</time></trkpt><trkpt lat="42.9592164" lon="12.8596437"><ele>634.0</ele><time>2026-05-03T13:36:23.522Z</time></trkpt><trkpt lat="42.9592445" lon="12.8595488"><ele>638.6666666666667</ele><time>2026-05-03T13:36:24.522Z</time></trkpt><trkpt lat="42.9592547" lon="12.8594355"><ele>643.3333333333334</ele><time>2026-05-03T13:36:25.524Z</time></trkpt><trkpt lat="42.9592607" lon="12.8593196"><ele>648.0</ele><time>2026-05-03T13:36:26.524Z</time></trkpt><trkpt lat="42.9592778" lon="12.8592019"><ele>652.6666666666666</ele><time>2026-05-03T13:36:27.522Z</time></trkpt><trkpt lat="42.9593008" lon="12.8590811"><ele>657.3333333333333</ele><time>2026-05-03T13:36:28.524Z</time></trkpt><trkpt lat="42.9593288" lon="12.8589605"><ele>662.0</ele><time>2026-05-03T13:36:29.525Z</time></trkpt><trkpt lat="42.9593599" lon="12.8588384"><ele>662.0</ele><time>2026-05-03T13:36:30.521Z</time></trkpt><trkpt lat="42.9593982" lon="12.8587215"><ele>662.0</ele><time>2026-05-03T13:36:31.522Z</time></trkpt><trkpt lat="42.9594398" lon="12.8586223"><ele>662.0</ele><time>2026-05-03T13:36:32.522Z</time></trkpt><trkpt lat="42.9594817" lon="12.8585416"><ele>662.0</ele><time>2026-05-03T13:36:33.521Z</time></trkpt><trkpt lat="42.9595185" lon="12.8584641"><ele>662.0</ele><time>2026-05-03T13:36:34.521Z</time></trkpt><trkpt lat="42.9595598" lon="12.8583784"><ele>662.0</ele><time>2026-05-03T13:36:35.526Z</time></trkpt><trkpt lat="42.9596094" lon="12.8582837"><ele>658.0</ele><time>2026-05-03T13:36:36.523Z</time></trkpt><trkpt lat="42.9596602" lon="12.8581992"><ele>654.0</ele><time>2026-05-03T13:36:37.524Z</time></trkpt><trkpt lat="42.9597023" lon="12.8581194"><ele>650.0</ele><time>2026-05-03T13:36:38.522Z</time></trkpt><trkpt lat="42.9597433" lon="12.8580453"><ele>646.0</ele><time>2026-05-03T13:36:39.522Z</time></trkpt><trkpt lat="42.9598113" lon="12.8579223"><ele>642.0</ele><time>2026-05-03T13:36:41.522Z</time></trkpt><trkpt lat="42.9598779" lon="12.8578042"><ele>638.0</ele><time>2026-05-03T13:36:43.52Z</time></trkpt><trkpt lat="42.9599162" lon="12.8577326"><ele>638.0</ele><time>2026-05-03T13:36:44.519Z</time></trkpt><trkpt lat="42.9599581" lon="12.8576552"><ele>638.0</ele><time>2026-05-03T13:36:45.52Z</time></trkpt><trkpt lat="42.960005" lon="12.8575643"><ele>638.0</ele><time>2026-05-03T13:36:46.522Z</time></trkpt><trkpt lat="42.9600609" lon="12.8574618"><ele>638.0</ele><time>2026-05-03T13:36:47.518Z</time></trkpt><trkpt lat="42.9601219" lon="12.8573607"><ele>638.0</ele><time>2026-05-03T13:36:48.521Z</time></trkpt><trkpt lat="42.9601769" lon="12.8572619"><ele>638.0</ele><time>2026-05-03T13:36:49.523Z</time></trkpt><trkpt lat="42.9602364" lon="12.8571563"><ele>636.5</ele><time>2026-05-03T13:36:50.52Z</time></trkpt><trkpt lat="42.9602961" lon="12.8570536"><ele>635.0</ele><time>2026-05-03T13:36:51.519Z</time></trkpt><trkpt lat="42.9603531" lon="12.8569539"><ele>633.5</ele><time>2026-05-03T13:36:52.525Z</time></trkpt><trkpt lat="42.9604074" lon="12.856866"><ele>632.0</ele><time>2026-05-03T13:36:53.518Z</time></trkpt><trkpt lat="42.9604521" lon="12.8567765"><ele>630.5</ele><time>2026-05-03T13:36:54.52Z</time></trkpt><trkpt lat="42.9604943" lon="12.8566939"><ele>629.0</ele><time>2026-05-03T13:36:55.521Z</time></trkpt><trkpt lat="42.9605361" lon="12.8566166"><ele>627.8333333333333</ele><time>2026-05-03T13:36:56.525Z</time></trkpt><trkpt lat="42.9605855" lon="12.8565437"><ele>626.6666666666666</ele><time>2026-05-03T13:36:57.524Z</time></trkpt><trkpt lat="42.9606325" lon="12.8564678"><ele>625.5</ele><time>2026-05-03T13:36:58.525Z</time></trkpt><trkpt lat="42.9606804" lon="12.8563864"><ele>624.3333333333334</ele><time>2026-05-03T13:36:59.522Z</time></trkpt><trkpt lat="42.9607424" lon="12.8562987"><ele>623.1666666666667</ele><time>2026-05-03T13:37:00.522Z</time></trkpt><trkpt lat="42.9608021" lon="12.8562065"><ele>622.0</ele><time>2026-05-03T13:37:01.524Z</time></trkpt><trkpt lat="42.9608678" lon="12.8561199"><ele>623.4</ele><time>2026-05-03T13:37:02.524Z</time></trkpt><trkpt lat="42.9609327" lon="12.8560339"><ele>624.8000000000001</ele><time>2026-05-03T13:37:03.522Z</time></trkpt><trkpt lat="42.9609991" lon="12.8559562"><ele>626.2</ele><time>2026-05-03T13:37:04.521Z</time></trkpt><trkpt lat="42.9610687" lon="12.8558826"><ele>627.6</ele><time>2026-05-03T13:37:05.522Z</time></trkpt><trkpt lat="42.9611448" lon="12.855809"><ele>629.0</ele><time>2026-05-03T13:37:06.524Z</time></trkpt><trkpt lat="42.961228" lon="12.8557324"><ele>629.0</ele><time>2026-05-03T13:37:07.524Z</time></trkpt><trkpt lat="42.9613122" lon="12.8556587"><ele>629.0</ele><time>2026-05-03T13:37:08.519Z</time></trkpt><trkpt lat="42.961399" lon="12.8555853"><ele>629.0</ele><time>2026-05-03T13:37:09.526Z</time></trkpt><trkpt lat="42.9614827" lon="12.8555115"><ele>629.0</ele><time>2026-05-03T13:37:10.522Z</time></trkpt><trkpt lat="42.9615667" lon="12.8554368"><ele>629.0</ele><time>2026-05-03T13:37:11.522Z</time></trkpt><trkpt lat="42.9616431" lon="12.8553638"><ele>629.6</ele><time>2026-05-03T13:37:12.523Z</time></trkpt><trkpt lat="42.9617227" lon="12.8552825"><ele>630.2</ele><time>2026-05-03T13:37:13.523Z</time></trkpt><trkpt lat="42.9617951" lon="12.8551823"><ele>630.8000000000001</ele><time>2026-05-03T13:37:14.523Z</time></trkpt><trkpt lat="42.9618692" lon="12.8550859"><ele>631.4</ele><time>2026-05-03T13:37:15.52Z</time></trkpt><trkpt lat="42.9619642" lon="12.8549538"><ele>632.0</ele><time>2026-05-03T13:37:16.517Z</time></trkpt><trkpt lat="42.9620479" lon="12.8548228"><ele>632.0</ele><time>2026-05-03T13:37:17.521Z</time></trkpt><trkpt lat="42.9621391" lon="12.854675"><ele>632.0</ele><time>2026-05-03T13:37:18.524Z</time></trkpt><trkpt lat="42.9622451" lon="12.854544"><ele>632.0</ele><time>2026-05-03T13:37:19.523Z</time></trkpt><trkpt lat="42.9623404" lon="12.854392"><ele>632.0</ele><time>2026-05-03T13:37:20.524Z</time></trkpt><trkpt lat="42.9624536" lon="12.8542443"><ele>632.0</ele><time>2026-05-03T13:37:21.514Z</time></trkpt><trkpt lat="42.9625407" lon="12.8541023"><ele>632.0</ele><time>2026-05-03T13:37:22.52Z</time></trkpt><trkpt lat="42.9626314" lon="12.8540238"><ele>632.0</ele><time>2026-05-03T13:37:23.521Z</time></trkpt><trkpt lat="42.9627173" lon="12.8539098"><ele>632.0</ele><time>2026-05-03T13:37:24.52Z</time></trkpt><trkpt lat="42.9627947" lon="12.8537856"><ele>632.0</ele><time>2026-05-03T13:37:25.523Z</time></trkpt><trkpt lat="42.9628226" lon="12.8536373"><ele>632.0</ele><time>2026-05-03T13:37:26.521Z</time></trkpt><trkpt lat="42.9628701" lon="12.8535093"><ele>632.0</ele><time>2026-05-03T13:37:27.516Z</time></trkpt><trkpt lat="42.9629159" lon="12.8533802"><ele>632.0</ele><time>2026-05-03T13:37:28.52Z</time></trkpt><trkpt lat="42.9629646" lon="12.8532521"><ele>632.0</ele><time>2026-05-03T13:37:29.521Z</time></trkpt><trkpt lat="42.9630109" lon="12.8531294"><ele>630.0</ele><time>2026-05-03T13:37:30.519Z</time></trkpt><trkpt lat="42.9630513" lon="12.8530048"><ele>628.0</ele><time>2026-05-03T13:37:31.518Z</time></trkpt><trkpt lat="42.9630894" lon="12.8528829"><ele>626.0</ele><time>2026-05-03T13:37:32.522Z</time></trkpt><trkpt lat="42.9631206" lon="12.8527677"><ele>624.0</ele><time>2026-05-03T13:37:33.515Z</time></trkpt><trkpt lat="42.9631364" lon="12.8526357"><ele>622.0</ele><time>2026-05-03T13:37:34.518Z</time></trkpt><trkpt lat="42.9631313" lon="12.8525027"><ele>622.0</ele><time>2026-05-03T13:37:35.519Z</time></trkpt><trkpt lat="42.9631146" lon="12.8523778"><ele>622.0</ele><time>2026-05-03T13:37:36.523Z</time></trkpt><trkpt lat="42.9630782" lon="12.8522564"><ele>622.0</ele><time>2026-05-03T13:37:37.523Z</time></trkpt><trkpt lat="42.9630372" lon="12.8521456"><ele>622.0</ele><time>2026-05-03T13:37:38.519Z</time></trkpt><trkpt lat="42.9629976" lon="12.8520346"><ele>622.0</ele><time>2026-05-03T13:37:39.52Z</time></trkpt><trkpt lat="42.9629561" lon="12.8519271"><ele>622.0</ele><time>2026-05-03T13:37:40.52Z</time></trkpt><trkpt lat="42.9629154" lon="12.8518226"><ele>622.0</ele><time>2026-05-03T13:37:41.523Z</time></trkpt><trkpt lat="42.9628825" lon="12.8517118"><ele>622.0</ele><time>2026-05-03T13:37:42.514Z</time></trkpt><trkpt lat="42.9628798" lon="12.851596"><ele>622.0</ele><time>2026-05-03T13:37:43.52Z</time></trkpt><trkpt lat="42.9629094" lon="12.8514974"><ele>622.0</ele><time>2026-05-03T13:37:44.52Z</time></trkpt><trkpt lat="42.962946" lon="12.8514053"><ele>622.0</ele><time>2026-05-03T13:37:45.516Z</time></trkpt><trkpt lat="42.9630295" lon="12.8513581"><ele>621.0</ele><time>2026-05-03T13:37:46.52Z</time></trkpt><trkpt lat="42.963109" lon="12.8513171"><ele>620.0</ele><time>2026-05-03T13:37:47.518Z</time></trkpt><trkpt lat="42.9631921" lon="12.8512779"><ele>619.0</ele><time>2026-05-03T13:37:48.52Z</time></trkpt><trkpt lat="42.9632772" lon="12.8512378"><ele>618.0</ele><time>2026-05-03T13:37:49.52Z</time></trkpt><trkpt lat="42.9633606" lon="12.8511889"><ele>617.0</ele><time>2026-05-03T13:37:50.516Z</time></trkpt><trkpt lat="42.9634443" lon="12.8511269"><ele>616.0</ele><time>2026-05-03T13:37:51.517Z</time></trkpt><trkpt lat="42.96353" lon="12.8510554"><ele>617.2</ele><time>2026-05-03T13:37:52.515Z</time></trkpt><trkpt lat="42.9636256" lon="12.8509829"><ele>618.4000000000001</ele><time>2026-05-03T13:37:53.517Z</time></trkpt><trkpt lat="42.9637176" lon="12.8509002"><ele>619.6</ele><time>2026-05-03T13:37:54.521Z</time></trkpt><trkpt lat="42.9638082" lon="12.850806"><ele>620.8000000000001</ele><time>2026-05-03T13:37:55.519Z</time></trkpt><trkpt lat="42.9638914" lon="12.8507062"><ele>622.0</ele><time>2026-05-03T13:37:56.524Z</time></trkpt><trkpt lat="42.9639664" lon="12.8505916"><ele>622.0</ele><time>2026-05-03T13:37:57.522Z</time></trkpt><trkpt lat="42.9640398" lon="12.8504765"><ele>622.0</ele><time>2026-05-03T13:37:58.522Z</time></trkpt><trkpt lat="42.9641077" lon="12.8503538"><ele>622.0</ele><time>2026-05-03T13:37:59.52Z</time></trkpt><trkpt lat="42.9641725" lon="12.8502357"><ele>622.0</ele><time>2026-05-03T13:38:00.524Z</time></trkpt><trkpt lat="42.9642356" lon="12.8501071"><ele>622.0</ele><time>2026-05-03T13:38:01.526Z</time></trkpt><trkpt lat="42.9643007" lon="12.8499911"><ele>623.2</ele><time>2026-05-03T13:38:02.525Z</time></trkpt><trkpt lat="42.9643597" lon="12.8498692"><ele>624.4000000000001</ele><time>2026-05-03T13:38:03.518Z</time></trkpt><trkpt lat="42.96442" lon="12.8497539"><ele>625.5999999999999</ele><time>2026-05-03T13:38:04.522Z</time></trkpt><trkpt lat="42.9644832" lon="12.8496402"><ele>626.8</ele><time>2026-05-03T13:38:05.521Z</time></trkpt><trkpt lat="42.9645419" lon="12.8495309"><ele>628.0</ele><time>2026-05-03T13:38:06.516Z</time></trkpt><trkpt lat="42.9646055" lon="12.8494214"><ele>628.0</ele><time>2026-05-03T13:38:07.518Z</time></trkpt><trkpt lat="42.964663" lon="12.8493109"><ele>628.0</ele><time>2026-05-03T13:38:08.522Z</time></trkpt><trkpt lat="42.9647272" lon="12.8492109"><ele>628.0</ele><time>2026-05-03T13:38:09.52Z</time></trkpt><trkpt lat="42.9648067" lon="12.849125"><ele>628.0</ele><time>2026-05-03T13:38:10.52Z</time></trkpt><trkpt lat="42.9649023" lon="12.849061"><ele>628.0</ele><time>2026-05-03T13:38:11.522Z</time></trkpt><trkpt lat="42.9649963" lon="12.8490171"><ele>620.75</ele><time>2026-05-03T13:38:12.519Z</time></trkpt><trkpt lat="42.9650998" lon="12.8490107"><ele>613.5</ele><time>2026-05-03T13:38:13.516Z</time></trkpt><trkpt lat="42.9652135" lon="12.8490161"><ele>606.25</ele><time>2026-05-03T13:38:14.514Z</time></trkpt><trkpt lat="42.9653417" lon="12.849019"><ele>599.0</ele><time>2026-05-03T13:38:15.52Z</time></trkpt><trkpt lat="42.9654885" lon="12.8490409"><ele>599.0</ele><time>2026-05-03T13:38:16.511Z</time></trkpt><trkpt lat="42.965642" lon="12.8490715"><ele>599.0</ele><time>2026-05-03T13:38:17.517Z</time></trkpt><trkpt lat="42.9658027" lon="12.8491169"><ele>599.0</ele><time>2026-05-03T13:38:18.512Z</time></trkpt><trkpt lat="42.9659742" lon="12.8491557"><ele>597.0</ele><time>2026-05-03T13:38:19.515Z</time></trkpt><trkpt lat="42.9661439" lon="12.8491913"><ele>595.0</ele><time>2026-05-03T13:38:20.523Z</time></trkpt><trkpt lat="42.9663159" lon="12.8492198"><ele>593.0</ele><time>2026-05-03T13:38:21.64Z</time></trkpt><trkpt lat="42.96666" lon="12.8492822"><ele>604.3333333333333</ele><time>2026-05-03T13:38:23.517Z</time></trkpt><trkpt lat="42.9668367" lon="12.8493111"><ele>615.6666666666666</ele><time>2026-05-03T13:38:24.52Z</time></trkpt><trkpt lat="42.9670173" lon="12.8493442"><ele>627.0</ele><time>2026-05-03T13:38:25.524Z</time></trkpt><trkpt lat="42.9671897" lon="12.8493494"><ele>627.0</ele><time>2026-05-03T13:38:26.518Z</time></trkpt><trkpt lat="42.9673642" lon="12.8493369"><ele>627.0</ele><time>2026-05-03T13:38:27.516Z</time></trkpt><trkpt lat="42.9675381" lon="12.8493011"><ele>627.0</ele><time>2026-05-03T13:38:28.518Z</time></trkpt><trkpt lat="42.96772" lon="12.8492576"><ele>619.25</ele><time>2026-05-03T13:38:29.519Z</time></trkpt><trkpt lat="42.9678773" lon="12.8492007"><ele>611.5</ele><time>2026-05-03T13:38:30.519Z</time></trkpt><trkpt lat="42.9680034" lon="12.8491529"><ele>603.75</ele><time>2026-05-03T13:38:31.521Z</time></trkpt><trkpt lat="42.9681363" lon="12.8491038"><ele>596.0</ele><time>2026-05-03T13:38:32.514Z</time></trkpt><trkpt lat="42.9682721" lon="12.8490557"><ele>595.0</ele><time>2026-05-03T13:38:33.519Z</time></trkpt><trkpt lat="42.968383" lon="12.8490241"><ele>594.0</ele><time>2026-05-03T13:38:34.517Z</time></trkpt><trkpt lat="42.9684928" lon="12.8489792"><ele>593.0</ele><time>2026-05-03T13:38:35.523Z</time></trkpt><trkpt lat="42.9686018" lon="12.8489353"><ele>592.0</ele><time>2026-05-03T13:38:36.52Z</time></trkpt><trkpt lat="42.9687105" lon="12.8488995"><ele>592.0</ele><time>2026-05-03T13:38:37.522Z</time></trkpt><trkpt lat="42.9688257" lon="12.8488719"><ele>592.0</ele><time>2026-05-03T13:38:38.537Z</time></trkpt><trkpt lat="42.9689351" lon="12.8488428"><ele>592.0</ele><time>2026-05-03T13:38:39.519Z</time></trkpt><trkpt lat="42.9690659" lon="12.8488042"><ele>592.0</ele><time>2026-05-03T13:38:40.517Z</time></trkpt><trkpt lat="42.9692591" lon="12.848743"><ele>592.25</ele><time>2026-05-03T13:38:42.518Z</time></trkpt><trkpt lat="42.9693585" lon="12.8487054"><ele>592.5</ele><time>2026-05-03T13:38:43.517Z</time></trkpt><trkpt lat="42.9694668" lon="12.8486673"><ele>592.75</ele><time>2026-05-03T13:38:44.521Z</time></trkpt><trkpt lat="42.969582" lon="12.8486281"><ele>593.0</ele><time>2026-05-03T13:38:45.517Z</time></trkpt><trkpt lat="42.9697028" lon="12.8485965"><ele>593.0</ele><time>2026-05-03T13:38:46.516Z</time></trkpt><trkpt lat="42.96984" lon="12.8485604"><ele>593.0</ele><time>2026-05-03T13:38:47.519Z</time></trkpt><trkpt lat="42.9699597" lon="12.8485061"><ele>593.0</ele><time>2026-05-03T13:38:48.517Z</time></trkpt><trkpt lat="42.9701058" lon="12.8484534"><ele>593.0</ele><time>2026-05-03T13:38:49.521Z</time></trkpt><trkpt lat="42.9702292" lon="12.8483857"><ele>590.6666666666666</ele><time>2026-05-03T13:38:50.525Z</time></trkpt><trkpt lat="42.9703708" lon="12.8483321"><ele>588.3333333333334</ele><time>2026-05-03T13:38:51.518Z</time></trkpt><trkpt lat="42.970646" lon="12.8482595"><ele>586.0</ele><time>2026-05-03T13:38:53.52Z</time></trkpt><trkpt lat="42.9707774" lon="12.8481966"><ele>588.5</ele><time>2026-05-03T13:38:54.518Z</time></trkpt><trkpt lat="42.971048" lon="12.8481024"><ele>591.0</ele><time>2026-05-03T13:38:56.517Z</time></trkpt><trkpt lat="42.9712937" lon="12.8480162"><ele>591.0</ele><time>2026-05-03T13:38:58.52Z</time></trkpt><trkpt lat="42.9714302" lon="12.8479748"><ele>591.0</ele><time>2026-05-03T13:38:59.517Z</time></trkpt><trkpt lat="42.9715616" lon="12.8479158"><ele>591.0</ele><time>2026-05-03T13:39:00.519Z</time></trkpt><trkpt lat="42.9716836" lon="12.847854"><ele>591.0</ele><time>2026-05-03T13:39:01.522Z</time></trkpt><trkpt lat="42.971808" lon="12.8478115"><ele>593.25</ele><time>2026-05-03T13:39:02.52Z</time></trkpt><trkpt lat="42.9719332" lon="12.8477287"><ele>595.5</ele><time>2026-05-03T13:39:03.52Z</time></trkpt><trkpt lat="42.972053" lon="12.8476584"><ele>597.75</ele><time>2026-05-03T13:39:04.518Z</time></trkpt><trkpt lat="42.9721784" lon="12.8475899"><ele>600.0</ele><time>2026-05-03T13:39:05.521Z</time></trkpt><trkpt lat="42.9723014" lon="12.8475204"><ele>606.5</ele><time>2026-05-03T13:39:06.517Z</time></trkpt><trkpt lat="42.9724247" lon="12.8474489"><ele>613.0</ele><time>2026-05-03T13:39:07.517Z</time></trkpt><trkpt lat="42.9753387" lon="12.8443086"><ele>600.3333333333334</ele><time>2026-05-03T13:39:32.514Z</time></trkpt><trkpt lat="42.975471" lon="12.844251"><ele>587.6666666666666</ele><time>2026-05-03T13:39:33.522Z</time></trkpt><trkpt lat="42.9756802" lon="12.8441403"><ele>575.0</ele><time>2026-05-03T13:39:35.516Z</time></trkpt><trkpt lat="42.9757661" lon="12.8441199"><ele>575.0</ele><time>2026-05-03T13:39:36.521Z</time></trkpt><trkpt lat="42.975846" lon="12.844097"><ele>575.0</ele><time>2026-05-03T13:39:37.518Z</time></trkpt><trkpt lat="42.9759163" lon="12.8440915"><ele>575.0</ele><time>2026-05-03T13:39:38.52Z</time></trkpt><trkpt lat="42.9760221" lon="12.8440905"><ele>575.0</ele><time>2026-05-03T13:39:40.519Z</time></trkpt><trkpt lat="42.9761195" lon="12.8441068"><ele>575.0</ele><time>2026-05-03T13:39:42.522Z</time></trkpt><trkpt lat="42.9762179" lon="12.8441358"><ele>576.2</ele><time>2026-05-03T13:39:44.52Z</time></trkpt><trkpt lat="42.9763348" lon="12.8441514"><ele>577.4</ele><time>2026-05-03T13:39:46.524Z</time></trkpt><trkpt lat="42.9764362" lon="12.8440812"><ele>578.6</ele><time>2026-05-03T13:39:48.522Z</time></trkpt><trkpt lat="42.9764929" lon="12.8439417"><ele>579.8</ele><time>2026-05-03T13:39:50.519Z</time></trkpt><trkpt lat="42.9764541" lon="12.8438525"><ele>581.0</ele><time>2026-05-03T13:39:51.519Z</time></trkpt><trkpt lat="42.9764375" lon="12.843766"><ele>581.0</ele><time>2026-05-03T13:39:52.522Z</time></trkpt><trkpt lat="42.9763941" lon="12.8436881"><ele>581.0</ele><time>2026-05-03T13:39:53.528Z</time></trkpt><trkpt lat="42.9763391" lon="12.8436458"><ele>581.0</ele><time>2026-05-03T13:39:54.526Z</time></trkpt><trkpt lat="42.9762764" lon="12.84359"><ele>581.0</ele><time>2026-05-03T13:39:55.524Z</time></trkpt><trkpt lat="42.9762144" lon="12.8435448"><ele>581.0</ele><time>2026-05-03T13:39:56.525Z</time></trkpt><trkpt lat="42.9761597" lon="12.8434849"><ele>581.0</ele><time>2026-05-03T13:39:57.632Z</time></trkpt><trkpt lat="42.9760526" lon="12.8433545"><ele>580.5</ele><time>2026-05-03T13:39:59.525Z</time></trkpt><trkpt lat="42.9760052" lon="12.8432893"><ele>580.0</ele><time>2026-05-03T13:40:00.517Z</time></trkpt><trkpt lat="42.9759594" lon="12.843218"><ele>579.5</ele><time>2026-05-03T13:40:01.527Z</time></trkpt><trkpt lat="42.9758921" lon="12.8430719"><ele>579.0</ele><time>2026-05-03T13:40:03.521Z</time></trkpt><trkpt lat="42.9758751" lon="12.842988"><ele>578.5</ele><time>2026-05-03T13:40:04.524Z</time></trkpt><trkpt lat="42.9758545" lon="12.8429009"><ele>578.0</ele><time>2026-05-03T13:40:05.523Z</time></trkpt><trkpt lat="42.9758457" lon="12.8428034"><ele>578.0</ele><time>2026-05-03T13:40:06.521Z</time></trkpt><trkpt lat="42.9758469" lon="12.8427034"><ele>578.0</ele><time>2026-05-03T13:40:07.52Z</time></trkpt><trkpt lat="42.975853" lon="12.8426016"><ele>578.0</ele><time>2026-05-03T13:40:08.517Z</time></trkpt><trkpt lat="42.9758528" lon="12.8425075"><ele>578.0</ele><time>2026-05-03T13:40:09.522Z</time></trkpt><trkpt lat="42.9758538" lon="12.8424074"><ele>578.0</ele><time>2026-05-03T13:40:10.519Z</time></trkpt><trkpt lat="42.9758625" lon="12.8422342"><ele>578.0</ele><time>2026-05-03T13:40:12.521Z</time></trkpt><trkpt lat="42.9758641" lon="12.8421453"><ele>582.1666666666666</ele><time>2026-05-03T13:40:13.518Z</time></trkpt><trkpt lat="42.9758599" lon="12.8420544"><ele>586.3333333333333</ele><time>2026-05-03T13:40:14.52Z</time></trkpt><trkpt lat="42.9758622" lon="12.8419647"><ele>590.5</ele><time>2026-05-03T13:40:15.519Z</time></trkpt><trkpt lat="42.9758721" lon="12.8418772"><ele>594.6666666666666</ele><time>2026-05-03T13:40:16.511Z</time></trkpt><trkpt lat="42.9758897" lon="12.8417929"><ele>598.8333333333334</ele><time>2026-05-03T13:40:17.515Z</time></trkpt><trkpt lat="42.9759286" lon="12.8416409"><ele>603.0</ele><time>2026-05-03T13:40:19.522Z</time></trkpt><trkpt lat="42.9759619" lon="12.8414982"><ele>603.0</ele><time>2026-05-03T13:40:21.522Z</time></trkpt><trkpt lat="42.9760099" lon="12.8413532"><ele>603.0</ele><time>2026-05-03T13:40:23.517Z</time></trkpt><trkpt lat="42.9760428" lon="12.8412685"><ele>603.0</ele><time>2026-05-03T13:40:24.521Z</time></trkpt><trkpt lat="42.9760879" lon="12.8411964"><ele>603.0</ele><time>2026-05-03T13:40:25.518Z</time></trkpt><trkpt lat="42.9761402" lon="12.8411203"><ele>603.0</ele><time>2026-05-03T13:40:26.516Z</time></trkpt><trkpt lat="42.9761955" lon="12.8410327"><ele>603.0</ele><time>2026-05-03T13:40:27.517Z</time></trkpt><trkpt lat="42.9762697" lon="12.8409435"><ele>597.6</ele><time>2026-05-03T13:40:28.517Z</time></trkpt><trkpt lat="42.9763482" lon="12.8408646"><ele>592.1999999999999</ele><time>2026-05-03T13:40:29.517Z</time></trkpt><trkpt lat="42.976422" lon="12.8407816"><ele>586.8</ele><time>2026-05-03T13:40:30.516Z</time></trkpt><trkpt lat="42.9764894" lon="12.8406952"><ele>581.4</ele><time>2026-05-03T13:40:31.514Z</time></trkpt><trkpt lat="42.9765613" lon="12.8406064"><ele>576.0</ele><time>2026-05-03T13:40:32.511Z</time></trkpt><trkpt lat="42.9766323" lon="12.8405318"><ele>577.3333333333334</ele><time>2026-05-03T13:40:33.514Z</time></trkpt><trkpt lat="42.9767049" lon="12.8404515"><ele>578.6666666666666</ele><time>2026-05-03T13:40:34.522Z</time></trkpt><trkpt lat="42.9767745" lon="12.8403654"><ele>580.0</ele><time>2026-05-03T13:40:35.521Z</time></trkpt><trkpt lat="42.9768452" lon="12.8402979"><ele>581.3333333333333</ele><time>2026-05-03T13:40:36.521Z</time></trkpt><trkpt lat="42.9769103" lon="12.8402244"><ele>582.6666666666666</ele><time>2026-05-03T13:40:37.522Z</time></trkpt><trkpt lat="42.9769777" lon="12.8401472"><ele>584.0</ele><time>2026-05-03T13:40:38.518Z</time></trkpt><trkpt lat="42.9770704" lon="12.8400384"><ele>581.7142857142857</ele><time>2026-05-03T13:40:40.515Z</time></trkpt><trkpt lat="42.9770919" lon="12.8399245"><ele>579.4285714285714</ele><time>2026-05-03T13:40:42.52Z</time></trkpt><trkpt lat="42.9771093" lon="12.8398152"><ele>577.1428571428571</ele><time>2026-05-03T13:40:44.52Z</time></trkpt><trkpt lat="42.9771739" lon="12.8397449"><ele>574.8571428571429</ele><time>2026-05-03T13:40:48.518Z</time></trkpt><trkpt lat="42.9772252" lon="12.8396917"><ele>572.5714285714286</ele><time>2026-05-03T13:40:53.519Z</time></trkpt><trkpt lat="42.977162" lon="12.8397273"><ele>570.2857142857142</ele><time>2026-05-03T13:41:41.523Z</time></trkpt><trkpt lat="42.977221" lon="12.8396912"><ele>568.0</ele><time>2026-05-03T13:45:05.518Z</time></trkpt><trkpt lat="42.9772653" lon="12.8396232"><ele>568.0</ele><time>2026-05-03T13:45:10.52Z</time></trkpt><trkpt lat="42.977379" lon="12.8395806"><ele>568.0</ele><time>2026-05-03T13:50:32.521Z</time></trkpt><trkpt lat="42.9774684" lon="12.839546"><ele>568.0</ele><time>2026-05-03T13:50:34.52Z</time></trkpt><trkpt lat="42.9775793" lon="12.8394413"><ele>568.0</ele><time>2026-05-03T13:50:36.525Z</time></trkpt><trkpt lat="42.977635" lon="12.8393775"><ele>568.0</ele><time>2026-05-03T13:50:37.519Z</time></trkpt><trkpt lat="42.9776881" lon="12.8393151"><ele>568.8571428571429</ele><time>2026-05-03T13:50:38.52Z</time></trkpt><trkpt lat="42.9777373" lon="12.8392574"><ele>569.7142857142857</ele><time>2026-05-03T13:50:39.521Z</time></trkpt><trkpt lat="42.9777889" lon="12.8391953"><ele>570.5714285714286</ele><time>2026-05-03T13:50:40.516Z</time></trkpt><trkpt lat="42.9778397" lon="12.8391364"><ele>571.4285714285714</ele><time>2026-05-03T13:50:41.52Z</time></trkpt><trkpt lat="42.9778981" lon="12.8390612"><ele>572.2857142857142</ele><time>2026-05-03T13:50:42.521Z</time></trkpt><trkpt lat="42.9779539" lon="12.838991"><ele>573.1428571428571</ele><time>2026-05-03T13:50:43.52Z</time></trkpt><trkpt lat="42.9780127" lon="12.8389245"><ele>574.0</ele><time>2026-05-03T13:50:44.52Z</time></trkpt><trkpt lat="42.9780685" lon="12.8388658"><ele>574.0</ele><time>2026-05-03T13:50:45.52Z</time></trkpt><trkpt lat="42.9781241" lon="12.8388005"><ele>574.0</ele><time>2026-05-03T13:50:46.519Z</time></trkpt><trkpt lat="42.9781811" lon="12.8387301"><ele>574.0</ele><time>2026-05-03T13:50:47.519Z</time></trkpt><trkpt lat="42.9782448" lon="12.838652"><ele>574.0</ele><time>2026-05-03T13:50:48.52Z</time></trkpt><trkpt lat="42.9783137" lon="12.8385562"><ele>574.0</ele><time>2026-05-03T13:50:49.519Z</time></trkpt><trkpt lat="42.9783841" lon="12.8384625"><ele>574.0</ele><time>2026-05-03T13:50:50.52Z</time></trkpt><trkpt lat="42.9784537" lon="12.838372"><ele>576.8</ele><time>2026-05-03T13:50:51.519Z</time></trkpt><trkpt lat="42.9785303" lon="12.8382815"><ele>579.5999999999999</ele><time>2026-05-03T13:50:52.519Z</time></trkpt><trkpt lat="42.9786107" lon="12.8381898"><ele>582.4</ele><time>2026-05-03T13:50:53.519Z</time></trkpt><trkpt lat="42.978697" lon="12.8380947"><ele>585.1999999999999</ele><time>2026-05-03T13:50:54.521Z</time></trkpt><trkpt lat="42.9787872" lon="12.8379926"><ele>588.0</ele><time>2026-05-03T13:50:55.521Z</time></trkpt><trkpt lat="42.9788805" lon="12.8378876"><ele>588.0</ele><time>2026-05-03T13:50:56.517Z</time></trkpt><trkpt lat="42.9789736" lon="12.8377834"><ele>588.0</ele><time>2026-05-03T13:50:57.521Z</time></trkpt><trkpt lat="42.9790721" lon="12.8376727"><ele>588.0</ele><time>2026-05-03T13:50:58.52Z</time></trkpt><trkpt lat="42.9791759" lon="12.8375508"><ele>588.0</ele><time>2026-05-03T13:50:59.52Z</time></trkpt><trkpt lat="42.9792761" lon="12.8374154"><ele>589.0</ele><time>2026-05-03T13:51:00.521Z</time></trkpt><trkpt lat="42.9793683" lon="12.8372593"><ele>590.0</ele><time>2026-05-03T13:51:01.524Z</time></trkpt><trkpt lat="42.9794497" lon="12.8370806"><ele>591.0</ele><time>2026-05-03T13:51:02.52Z</time></trkpt><trkpt lat="42.9795217" lon="12.8368939"><ele>585.6666666666666</ele><time>2026-05-03T13:51:03.52Z</time></trkpt><trkpt lat="42.9795699" lon="12.8366817"><ele>580.3333333333333</ele><time>2026-05-03T13:51:04.52Z</time></trkpt><trkpt lat="42.9795943" lon="12.8364703"><ele>575.0</ele><time>2026-05-03T13:51:05.521Z</time></trkpt><trkpt lat="42.9796069" lon="12.8362581"><ele>575.0</ele><time>2026-05-03T13:51:06.52Z</time></trkpt><trkpt lat="42.9796031" lon="12.8360329"><ele>575.0</ele><time>2026-05-03T13:51:07.519Z</time></trkpt><trkpt lat="42.9795941" lon="12.8358085"><ele>575.0</ele><time>2026-05-03T13:51:08.521Z</time></trkpt><trkpt lat="42.9795856" lon="12.8355751"><ele>571.6666666666666</ele><time>2026-05-03T13:51:09.523Z</time></trkpt><trkpt lat="42.979577" lon="12.8353408"><ele>568.3333333333334</ele><time>2026-05-03T13:51:10.523Z</time></trkpt><trkpt lat="42.9795678" lon="12.8351024"><ele>565.0</ele><time>2026-05-03T13:51:11.523Z</time></trkpt><trkpt lat="42.9795764" lon="12.8348825"><ele>563.3333333333334</ele><time>2026-05-03T13:51:12.524Z</time></trkpt><trkpt lat="42.9796026" lon="12.8346602"><ele>561.6666666666666</ele><time>2026-05-03T13:51:13.52Z</time></trkpt><trkpt lat="42.9796283" lon="12.8344307"><ele>560.0</ele><time>2026-05-03T13:51:14.52Z</time></trkpt><trkpt lat="42.9796653" lon="12.8341909"><ele>559.6666666666666</ele><time>2026-05-03T13:51:15.524Z</time></trkpt><trkpt lat="42.9797202" lon="12.8341445"><ele>559.3333333333333</ele><time>2026-05-03T13:51:16.519Z</time></trkpt><trkpt lat="42.9797722" lon="12.834009"><ele>559.0</ele><time>2026-05-03T13:51:17.518Z</time></trkpt><trkpt lat="42.9798129" lon="12.8338967"><ele>558.6666666666666</ele><time>2026-05-03T13:51:18.522Z</time></trkpt><trkpt lat="42.9798625" lon="12.8338381"><ele>558.3333333333334</ele><time>2026-05-03T13:51:19.522Z</time></trkpt><trkpt lat="42.9799135" lon="12.8337834"><ele>558.0</ele><time>2026-05-03T13:51:20.519Z</time></trkpt><trkpt lat="42.9799576" lon="12.8338557"><ele>558.0</ele><time>2026-05-03T13:51:21.52Z</time></trkpt><trkpt lat="42.9800012" lon="12.8339368"><ele>558.0</ele><time>2026-05-03T13:51:22.519Z</time></trkpt><trkpt lat="42.9800821" lon="12.8338066"><ele>558.0</ele><time>2026-05-03T13:51:27.521Z</time></trkpt><trkpt lat="42.9800932" lon="12.8336929"><ele>558.0</ele><time>2026-05-03T13:51:28.517Z</time></trkpt><trkpt lat="42.9800935" lon="12.8335442"><ele>558.0</ele><time>2026-05-03T13:51:29.523Z</time></trkpt><trkpt lat="42.9800845" lon="12.8333562"><ele>571.3333333333334</ele><time>2026-05-03T13:51:30.521Z</time></trkpt><trkpt lat="42.980077" lon="12.8331574"><ele>584.6666666666667</ele><time>2026-05-03T13:51:31.522Z</time></trkpt><trkpt lat="42.9800745" lon="12.8329433"><ele>598.0</ele><time>2026-05-03T13:51:32.522Z</time></trkpt><trkpt lat="42.9800724" lon="12.8327161"><ele>596.3333333333334</ele><time>2026-05-03T13:51:33.523Z</time></trkpt><trkpt lat="42.9800662" lon="12.8324713"><ele>594.6666666666666</ele><time>2026-05-03T13:51:34.52Z</time></trkpt><trkpt lat="42.980064" lon="12.8322325"><ele>593.0</ele><time>2026-05-03T13:51:35.519Z</time></trkpt><trkpt lat="42.9800749" lon="12.8319895"><ele>587.6666666666666</ele><time>2026-05-03T13:51:36.523Z</time></trkpt><trkpt lat="42.9800946" lon="12.8317397"><ele>582.3333333333334</ele><time>2026-05-03T13:51:37.521Z</time></trkpt><trkpt lat="42.9801372" lon="12.8314833"><ele>577.0</ele><time>2026-05-03T13:51:38.522Z</time></trkpt><trkpt lat="42.9801893" lon="12.8312154"><ele>571.3333333333334</ele><time>2026-05-03T13:51:39.522Z</time></trkpt><trkpt lat="42.9802527" lon="12.8309478"><ele>565.6666666666666</ele><time>2026-05-03T13:51:40.52Z</time></trkpt><trkpt lat="42.9803182" lon="12.8306873"><ele>560.0</ele><time>2026-05-03T13:51:41.522Z</time></trkpt><trkpt lat="42.9803871" lon="12.8304244"><ele>560.0</ele><time>2026-05-03T13:51:42.523Z</time></trkpt><trkpt lat="42.9804515" lon="12.8301436"><ele>560.0</ele><time>2026-05-03T13:51:43.521Z</time></trkpt><trkpt lat="42.9805179" lon="12.8298738"><ele>560.0</ele><time>2026-05-03T13:51:44.514Z</time></trkpt><trkpt lat="42.9805495" lon="12.8295809"><ele>555.6666666666666</ele><time>2026-05-03T13:51:45.518Z</time></trkpt><trkpt lat="42.9805653" lon="12.829293"><ele>551.3333333333334</ele><time>2026-05-03T13:51:46.516Z</time></trkpt><trkpt lat="42.9805239" lon="12.828992"><ele>547.0</ele><time>2026-05-03T13:51:47.517Z</time></trkpt><trkpt lat="42.980349" lon="12.8286935"><ele>546.6666666666667</ele><time>2026-05-03T13:51:48.517Z</time></trkpt><trkpt lat="42.9802457" lon="12.8284307"><ele>546.3333333333334</ele><time>2026-05-03T13:51:49.52Z</time></trkpt><trkpt lat="42.9801155" lon="12.8281927"><ele>546.0</ele><time>2026-05-03T13:51:50.518Z</time></trkpt><trkpt lat="42.9799556" lon="12.8279715"><ele>544.5</ele><time>2026-05-03T13:51:51.516Z</time></trkpt><trkpt lat="42.9797793" lon="12.8277789"><ele>543.0</ele><time>2026-05-03T13:51:52.516Z</time></trkpt><trkpt lat="42.9795792" lon="12.8276179"><ele>543.0</ele><time>2026-05-03T13:51:53.515Z</time></trkpt><trkpt lat="42.9793584" lon="12.8274752"><ele>543.0</ele><time>2026-05-03T13:51:54.521Z</time></trkpt><trkpt lat="42.9791314" lon="12.8273556"><ele>545.5</ele><time>2026-05-03T13:51:55.52Z</time></trkpt><trkpt lat="42.9789013" lon="12.827235"><ele>548.0</ele><time>2026-05-03T13:51:56.519Z</time></trkpt><trkpt lat="42.9786784" lon="12.8271204"><ele>548.0</ele><time>2026-05-03T13:51:57.52Z</time></trkpt><trkpt lat="42.9784616" lon="12.8270043"><ele>548.0</ele><time>2026-05-03T13:51:58.52Z</time></trkpt><trkpt lat="42.9782445" lon="12.8268732"><ele>545.0</ele><time>2026-05-03T13:51:59.519Z</time></trkpt><trkpt lat="42.9780313" lon="12.8267614"><ele>542.0</ele><time>2026-05-03T13:52:00.516Z</time></trkpt><trkpt lat="42.9778278" lon="12.8265391"><ele>542.0</ele><time>2026-05-03T13:52:01.52Z</time></trkpt><trkpt lat="42.977622" lon="12.8263675"><ele>542.0</ele><time>2026-05-03T13:52:02.52Z</time></trkpt><trkpt lat="42.97748" lon="12.8260749"><ele>544.5</ele><time>2026-05-03T13:52:03.522Z</time></trkpt><trkpt lat="42.9773403" lon="12.825804"><ele>547.0</ele><time>2026-05-03T13:52:04.519Z</time></trkpt><trkpt lat="42.9772239" lon="12.8255117"><ele>547.0</ele><time>2026-05-03T13:52:05.52Z</time></trkpt><trkpt lat="42.9771297" lon="12.8252031"><ele>547.0</ele><time>2026-05-03T13:52:06.524Z</time></trkpt><trkpt lat="42.9770538" lon="12.8248845"><ele>546.5</ele><time>2026-05-03T13:52:07.521Z</time></trkpt><trkpt lat="42.9769984" lon="12.8245583"><ele>546.0</ele><time>2026-05-03T13:52:08.52Z</time></trkpt><trkpt lat="42.9769468" lon="12.8242334"><ele>546.0</ele><time>2026-05-03T13:52:09.503Z</time></trkpt><trkpt lat="42.9768949" lon="12.8239091"><ele>546.0</ele><time>2026-05-03T13:52:10.522Z</time></trkpt><trkpt lat="42.9768402" lon="12.8235903"><ele>548.0</ele><time>2026-05-03T13:52:11.522Z</time></trkpt><trkpt lat="42.9767731" lon="12.8232775"><ele>550.0</ele><time>2026-05-03T13:52:12.521Z</time></trkpt><trkpt lat="42.9766912" lon="12.8229711"><ele>544.5</ele><time>2026-05-03T13:52:13.522Z</time></trkpt><trkpt lat="42.9766006" lon="12.8226588"><ele>539.0</ele><time>2026-05-03T13:52:14.521Z</time></trkpt><trkpt lat="42.9764531" lon="12.8223846"><ele>539.0</ele><time>2026-05-03T13:52:15.521Z</time></trkpt><trkpt lat="42.9763153" lon="12.8221011"><ele>539.0</ele><time>2026-05-03T13:52:16.517Z</time></trkpt><trkpt lat="42.9761676" lon="12.8218199"><ele>541.0</ele><time>2026-05-03T13:52:17.521Z</time></trkpt><trkpt lat="42.9760142" lon="12.8215429"><ele>543.0</ele><time>2026-05-03T13:52:18.52Z</time></trkpt><trkpt lat="42.9758698" lon="12.8212564"><ele>543.0</ele><time>2026-05-03T13:52:19.521Z</time></trkpt><trkpt lat="42.9757245" lon="12.8209808"><ele>543.0</ele><time>2026-05-03T13:52:20.52Z</time></trkpt><trkpt lat="42.9755792" lon="12.8207209"><ele>543.0</ele><time>2026-05-03T13:52:21.651Z</time></trkpt><trkpt lat="42.9752887" lon="12.8202013"><ele>543.0</ele><time>2026-05-03T13:52:23.521Z</time></trkpt><trkpt lat="42.9751359" lon="12.8199332"><ele>543.0</ele><time>2026-05-03T13:52:24.522Z</time></trkpt><trkpt lat="42.9749899" lon="12.8196604"><ele>543.0</ele><time>2026-05-03T13:52:25.505Z</time></trkpt><trkpt lat="42.9748458" lon="12.8193935"><ele>543.0</ele><time>2026-05-03T13:52:26.521Z</time></trkpt><trkpt lat="42.9747165" lon="12.8191234"><ele>547.0</ele><time>2026-05-03T13:52:27.521Z</time></trkpt><trkpt lat="42.974603" lon="12.8188502"><ele>551.0</ele><time>2026-05-03T13:52:28.519Z</time></trkpt><trkpt lat="42.9744907" lon="12.8185794"><ele>555.5</ele><time>2026-05-03T13:52:29.522Z</time></trkpt><trkpt lat="42.9743888" lon="12.8182986"><ele>560.0</ele><time>2026-05-03T13:52:30.52Z</time></trkpt><trkpt lat="42.9742968" lon="12.8180073"><ele>560.0</ele><time>2026-05-03T13:52:31.521Z</time></trkpt><trkpt lat="42.9742113" lon="12.8177115"><ele>560.0</ele><time>2026-05-03T13:52:32.519Z</time></trkpt><trkpt lat="42.974127" lon="12.8174069"><ele>555.0</ele><time>2026-05-03T13:52:33.52Z</time></trkpt><trkpt lat="42.9740527" lon="12.8171071"><ele>550.0</ele><time>2026-05-03T13:52:34.52Z</time></trkpt><trkpt lat="42.9739795" lon="12.8168112"><ele>550.0</ele><time>2026-05-03T13:52:35.52Z</time></trkpt><trkpt lat="42.9739096" lon="12.8165145"><ele>550.0</ele><time>2026-05-03T13:52:36.521Z</time></trkpt><trkpt lat="42.9738429" lon="12.8162183"><ele>551.0</ele><time>2026-05-03T13:52:37.521Z</time></trkpt><trkpt lat="42.9737828" lon="12.8159131"><ele>552.0</ele><time>2026-05-03T13:52:38.52Z</time></trkpt><trkpt lat="42.97374" lon="12.8156136"><ele>552.0</ele><time>2026-05-03T13:52:39.52Z</time></trkpt><trkpt lat="42.973702" lon="12.8153204"><ele>552.0</ele><time>2026-05-03T13:52:40.521Z</time></trkpt><trkpt lat="42.9736603" lon="12.8150316"><ele>552.0</ele><time>2026-05-03T13:52:41.51Z</time></trkpt><trkpt lat="42.9736043" lon="12.8147501"><ele>552.0</ele><time>2026-05-03T13:52:42.521Z</time></trkpt><trkpt lat="42.9735371" lon="12.8144767"><ele>552.0</ele><time>2026-05-03T13:52:43.521Z</time></trkpt><trkpt lat="42.9734606" lon="12.8142132"><ele>552.0</ele><time>2026-05-03T13:52:44.519Z</time></trkpt><trkpt lat="42.9733863" lon="12.8139601"><ele>546.6666666666666</ele><time>2026-05-03T13:52:45.521Z</time></trkpt><trkpt lat="42.9733099" lon="12.8137229"><ele>541.3333333333333</ele><time>2026-05-03T13:52:46.52Z</time></trkpt><trkpt lat="42.9732385" lon="12.8134862"><ele>536.0</ele><time>2026-05-03T13:52:47.517Z</time></trkpt><trkpt lat="42.9731849" lon="12.8132378"><ele>536.0</ele><time>2026-05-03T13:52:48.518Z</time></trkpt><trkpt lat="42.9731439" lon="12.812982"><ele>536.0</ele><time>2026-05-03T13:52:49.52Z</time></trkpt><trkpt lat="42.9731223" lon="12.812714"><ele>536.0</ele><time>2026-05-03T13:52:50.521Z</time></trkpt><trkpt lat="42.9731133" lon="12.812438"><ele>536.0</ele><time>2026-05-03T13:52:51.519Z</time></trkpt><trkpt lat="42.9731139" lon="12.8121572"><ele>536.0</ele><time>2026-05-03T13:52:52.521Z</time></trkpt><trkpt lat="42.9731081" lon="12.8118785"><ele>536.0</ele><time>2026-05-03T13:52:53.519Z</time></trkpt><trkpt lat="42.9731057" lon="12.8116048"><ele>536.3333333333333</ele><time>2026-05-03T13:52:54.521Z</time></trkpt><trkpt lat="42.9731088" lon="12.8113338"><ele>536.6666666666666</ele><time>2026-05-03T13:52:55.521Z</time></trkpt><trkpt lat="42.9730978" lon="12.8110692"><ele>537.0</ele><time>2026-05-03T13:52:56.521Z</time></trkpt><trkpt lat="42.9730603" lon="12.8108159"><ele>539.3333333333334</ele><time>2026-05-03T13:52:57.508Z</time></trkpt><trkpt lat="42.9729929" lon="12.8105607"><ele>541.6666666666667</ele><time>2026-05-03T13:52:58.52Z</time></trkpt><trkpt lat="42.9729123" lon="12.8103174"><ele>544.0</ele><time>2026-05-03T13:52:59.521Z</time></trkpt><trkpt lat="42.9728035" lon="12.8100952"><ele>547.0</ele><time>2026-05-03T13:53:00.521Z</time></trkpt><trkpt lat="42.9726908" lon="12.8099034"><ele>550.0</ele><time>2026-05-03T13:53:01.521Z</time></trkpt><trkpt lat="42.9725797" lon="12.8097402"><ele>553.0</ele><time>2026-05-03T13:53:02.521Z</time></trkpt><trkpt lat="42.9724753" lon="12.8096004"><ele>547.75</ele><time>2026-05-03T13:53:03.522Z</time></trkpt><trkpt lat="42.9723829" lon="12.8094682"><ele>542.5</ele><time>2026-05-03T13:53:04.522Z</time></trkpt><trkpt lat="42.9723247" lon="12.8093374"><ele>537.25</ele><time>2026-05-03T13:53:05.521Z</time></trkpt><trkpt lat="42.9722984" lon="12.8092002"><ele>532.0</ele><time>2026-05-03T13:53:06.521Z</time></trkpt><trkpt lat="42.9723096" lon="12.8090573"><ele>532.0</ele><time>2026-05-03T13:53:07.521Z</time></trkpt><trkpt lat="42.9723202" lon="12.8089255"><ele>532.0</ele><time>2026-05-03T13:53:08.52Z</time></trkpt><trkpt lat="42.972362" lon="12.8087372"><ele>532.0</ele><time>2026-05-03T13:53:09.519Z</time></trkpt><trkpt lat="42.9724346" lon="12.8085516"><ele>532.0</ele><time>2026-05-03T13:53:10.518Z</time></trkpt><trkpt lat="42.9725083" lon="12.8083483"><ele>537.3333333333334</ele><time>2026-05-03T13:53:11.519Z</time></trkpt><trkpt lat="42.972573" lon="12.80814"><ele>542.6666666666666</ele><time>2026-05-03T13:53:12.519Z</time></trkpt><trkpt lat="42.9726518" lon="12.8079293"><ele>548.0</ele><time>2026-05-03T13:53:13.519Z</time></trkpt><trkpt lat="42.9727369" lon="12.8077132"><ele>541.3333333333333</ele><time>2026-05-03T13:53:14.52Z</time></trkpt><trkpt lat="42.9728414" lon="12.8075121"><ele>534.6666666666666</ele><time>2026-05-03T13:53:15.519Z</time></trkpt><trkpt lat="42.9729613" lon="12.807309"><ele>528.0</ele><time>2026-05-03T13:53:16.518Z</time></trkpt><trkpt lat="42.9730945" lon="12.8071214"><ele>528.0</ele><time>2026-05-03T13:53:17.52Z</time></trkpt><trkpt lat="42.9732277" lon="12.8069283"><ele>528.0</ele><time>2026-05-03T13:53:18.52Z</time></trkpt><trkpt lat="42.9733611" lon="12.8067284"><ele>528.0</ele><time>2026-05-03T13:53:19.519Z</time></trkpt><trkpt lat="42.9735036" lon="12.8065253"><ele>529.0</ele><time>2026-05-03T13:53:20.516Z</time></trkpt><trkpt lat="42.9736466" lon="12.8063356"><ele>530.0</ele><time>2026-05-03T13:53:21.519Z</time></trkpt><trkpt lat="42.9738031" lon="12.8061745"><ele>531.0</ele><time>2026-05-03T13:53:22.52Z</time></trkpt><trkpt lat="42.9739616" lon="12.8060182"><ele>528.6666666666666</ele><time>2026-05-03T13:53:23.52Z</time></trkpt><trkpt lat="42.9741306" lon="12.8059125"><ele>526.3333333333333</ele><time>2026-05-03T13:53:24.523Z</time></trkpt><trkpt lat="42.9743089" lon="12.8058135"><ele>524.0</ele><time>2026-05-03T13:53:25.52Z</time></trkpt><trkpt lat="42.9744911" lon="12.805721"><ele>524.0</ele><time>2026-05-03T13:53:26.52Z</time></trkpt><trkpt lat="42.9746807" lon="12.805629"><ele>524.0</ele><time>2026-05-03T13:53:27.521Z</time></trkpt><trkpt lat="42.974863" lon="12.8055128"><ele>524.0</ele><time>2026-05-03T13:53:28.52Z</time></trkpt><trkpt lat="42.9750341" lon="12.8053618"><ele>528.0</ele><time>2026-05-03T13:53:29.521Z</time></trkpt><trkpt lat="42.9751904" lon="12.8051883"><ele>532.0</ele><time>2026-05-03T13:53:30.52Z</time></trkpt><trkpt lat="42.9753408" lon="12.8049874"><ele>536.0</ele><time>2026-05-03T13:53:31.519Z</time></trkpt><trkpt lat="42.975482" lon="12.8047544"><ele>536.0</ele><time>2026-05-03T13:53:32.519Z</time></trkpt><trkpt lat="42.9756145" lon="12.8044926"><ele>536.0</ele><time>2026-05-03T13:53:33.519Z</time></trkpt><trkpt lat="42.9757455" lon="12.8042124"><ele>549.0</ele><time>2026-05-03T13:53:34.52Z</time></trkpt><trkpt lat="42.9758764" lon="12.8039311"><ele>562.0</ele><time>2026-05-03T13:53:35.519Z</time></trkpt><trkpt lat="42.976003" lon="12.8036445"><ele>550.5</ele><time>2026-05-03T13:53:36.517Z</time></trkpt><trkpt lat="42.9761362" lon="12.8033491"><ele>539.0</ele><time>2026-05-03T13:53:37.523Z</time></trkpt><trkpt lat="42.9762703" lon="12.8030551"><ele>539.0</ele><time>2026-05-03T13:53:38.52Z</time></trkpt><trkpt lat="42.9764035" lon="12.8027598"><ele>539.0</ele><time>2026-05-03T13:53:39.518Z</time></trkpt><trkpt lat="42.9765391" lon="12.802462"><ele>544.0</ele><time>2026-05-03T13:53:40.52Z</time></trkpt><trkpt lat="42.976676" lon="12.8021638"><ele>549.0</ele><time>2026-05-03T13:53:41.516Z</time></trkpt><trkpt lat="42.9768174" lon="12.8018637"><ele>537.0</ele><time>2026-05-03T13:53:42.517Z</time></trkpt><trkpt lat="42.976955" lon="12.8015625"><ele>525.0</ele><time>2026-05-03T13:53:43.515Z</time></trkpt><trkpt lat="42.9770927" lon="12.8012654"><ele>519.0</ele><time>2026-05-03T13:53:44.514Z</time></trkpt><trkpt lat="42.9772278" lon="12.8009702"><ele>513.0</ele><time>2026-05-03T13:53:45.516Z</time></trkpt><trkpt lat="42.9773601" lon="12.8006749"><ele>513.0</ele><time>2026-05-03T13:53:46.516Z</time></trkpt><trkpt lat="42.9774908" lon="12.8003806"><ele>513.0</ele><time>2026-05-03T13:53:47.515Z</time></trkpt><trkpt lat="42.9776211" lon="12.8000856"><ele>514.0</ele><time>2026-05-03T13:53:48.515Z</time></trkpt><trkpt lat="42.9777529" lon="12.7997945"><ele>515.0</ele><time>2026-05-03T13:53:49.515Z</time></trkpt><trkpt lat="42.9778851" lon="12.7995078"><ele>510.5</ele><time>2026-05-03T13:53:50.515Z</time></trkpt><trkpt lat="42.9780161" lon="12.7992218"><ele>506.0</ele><time>2026-05-03T13:53:51.516Z</time></trkpt><trkpt lat="42.978142" lon="12.7989399"><ele>506.0</ele><time>2026-05-03T13:53:52.511Z</time></trkpt><trkpt lat="42.9782492" lon="12.7986385"><ele>506.0</ele><time>2026-05-03T13:53:53.517Z</time></trkpt><trkpt lat="42.9783545" lon="12.798335"><ele>513.5</ele><time>2026-05-03T13:53:54.516Z</time></trkpt><trkpt lat="42.9784082" lon="12.7979767"><ele>521.0</ele><time>2026-05-03T13:53:55.515Z</time></trkpt><trkpt lat="42.9784711" lon="12.7976319"><ele>525.0</ele><time>2026-05-03T13:53:56.522Z</time></trkpt><trkpt lat="42.9785326" lon="12.7972825"><ele>529.0</ele><time>2026-05-03T13:53:57.515Z</time></trkpt><trkpt lat="42.9785907" lon="12.7969352"><ele>533.5</ele><time>2026-05-03T13:53:58.516Z</time></trkpt><trkpt lat="42.97864" lon="12.796598"><ele>538.0</ele><time>2026-05-03T13:53:59.515Z</time></trkpt><trkpt lat="42.9786987" lon="12.7962591"><ele>534.5</ele><time>2026-05-03T13:54:00.517Z</time></trkpt><trkpt lat="42.9787559" lon="12.7959388"><ele>531.0</ele><time>2026-05-03T13:54:01.515Z</time></trkpt><trkpt lat="42.9787994" lon="12.7956257"><ele>531.0</ele><time>2026-05-03T13:54:02.517Z</time></trkpt><trkpt lat="42.9788386" lon="12.7954027"><ele>531.0</ele><time>2026-05-03T13:54:03.516Z</time></trkpt><trkpt lat="42.9788457" lon="12.7951137"><ele>531.0</ele><time>2026-05-03T13:54:04.518Z</time></trkpt><trkpt lat="42.97879" lon="12.7945498"><ele>533.6666666666666</ele><time>2026-05-03T13:54:06.517Z</time></trkpt><trkpt lat="42.9787419" lon="12.7943006"><ele>536.3333333333333</ele><time>2026-05-03T13:54:07.516Z</time></trkpt><trkpt lat="42.9786751" lon="12.7940674"><ele>539.0</ele><time>2026-05-03T13:54:08.518Z</time></trkpt><trkpt lat="42.9785827" lon="12.7938582"><ele>539.0</ele><time>2026-05-03T13:54:09.521Z</time></trkpt><trkpt lat="42.9784869" lon="12.7936601"><ele>539.0</ele><time>2026-05-03T13:54:10.52Z</time></trkpt><trkpt lat="42.9783863" lon="12.7934816"><ele>539.0</ele><time>2026-05-03T13:54:11.52Z</time></trkpt><trkpt lat="42.978308" lon="12.7932882"><ele>529.6666666666666</ele><time>2026-05-03T13:54:12.521Z</time></trkpt><trkpt lat="42.9782221" lon="12.793103"><ele>520.3333333333334</ele><time>2026-05-03T13:54:13.522Z</time></trkpt><trkpt lat="42.9782655" lon="12.7929031"><ele>511.0</ele><time>2026-05-03T13:54:14.52Z</time></trkpt><trkpt lat="42.9782431" lon="12.7926953"><ele>509.33333333333337</ele><time>2026-05-03T13:54:15.522Z</time></trkpt><trkpt lat="42.9783009" lon="12.7924803"><ele>507.66666666666663</ele><time>2026-05-03T13:54:16.52Z</time></trkpt><trkpt lat="42.9783986" lon="12.7922635"><ele>506.0</ele><time>2026-05-03T13:54:17.522Z</time></trkpt><trkpt lat="42.9785856" lon="12.7920223"><ele>509.5</ele><time>2026-05-03T13:54:18.521Z</time></trkpt><trkpt lat="42.9787088" lon="12.7917798"><ele>513.0</ele><time>2026-05-03T13:54:19.518Z</time></trkpt><trkpt lat="42.9788553" lon="12.791518"><ele>513.0</ele><time>2026-05-03T13:54:20.516Z</time></trkpt><trkpt lat="42.979004" lon="12.791272"><ele>513.0</ele><time>2026-05-03T13:54:21.515Z</time></trkpt><trkpt lat="42.9791367" lon="12.7910253"><ele>523.6666666666666</ele><time>2026-05-03T13:54:22.521Z</time></trkpt><trkpt lat="42.9792695" lon="12.7907783"><ele>534.3333333333333</ele><time>2026-05-03T13:54:23.514Z</time></trkpt><trkpt lat="42.9793985" lon="12.790533"><ele>545.0</ele><time>2026-05-03T13:54:24.507Z</time></trkpt><trkpt lat="42.9795307" lon="12.7902854"><ele>532.0</ele><time>2026-05-03T13:54:25.517Z</time></trkpt><trkpt lat="42.9796603" lon="12.7900335"><ele>519.0</ele><time>2026-05-03T13:54:26.517Z</time></trkpt><trkpt lat="42.9797785" lon="12.7897681"><ele>519.0</ele><time>2026-05-03T13:54:27.516Z</time></trkpt><trkpt lat="42.9798898" lon="12.7895029"><ele>519.0</ele><time>2026-05-03T13:54:28.513Z</time></trkpt><trkpt lat="42.9799793" lon="12.7892344"><ele>519.0</ele><time>2026-05-03T13:54:29.515Z</time></trkpt><trkpt lat="42.9800588" lon="12.7889784"><ele>520.3333333333334</ele><time>2026-05-03T13:54:30.514Z</time></trkpt><trkpt lat="42.9801425" lon="12.7887239"><ele>521.6666666666667</ele><time>2026-05-03T13:54:31.515Z</time></trkpt><trkpt lat="42.9802292" lon="12.7884757"><ele>523.0</ele><time>2026-05-03T13:54:32.516Z</time></trkpt><trkpt lat="42.9803285" lon="12.7882355"><ele>523.0</ele><time>2026-05-03T13:54:33.516Z</time></trkpt><trkpt lat="42.9804445" lon="12.7880222"><ele>523.0</ele><time>2026-05-03T13:54:34.514Z</time></trkpt><trkpt lat="42.9805576" lon="12.7878096"><ele>523.0</ele><time>2026-05-03T13:54:35.515Z</time></trkpt><trkpt lat="42.980668" lon="12.7876021"><ele>526.0</ele><time>2026-05-03T13:54:36.511Z</time></trkpt><trkpt lat="42.9807743" lon="12.7873916"><ele>529.0</ele><time>2026-05-03T13:54:37.514Z</time></trkpt><trkpt lat="42.9808712" lon="12.7871777"><ele>532.0</ele><time>2026-05-03T13:54:38.513Z</time></trkpt><trkpt lat="42.9809556" lon="12.7869719"><ele>524.3333333333334</ele><time>2026-05-03T13:54:39.515Z</time></trkpt><trkpt lat="42.9810231" lon="12.7867611"><ele>516.6666666666666</ele><time>2026-05-03T13:54:40.508Z</time></trkpt><trkpt lat="42.9810757" lon="12.7865553"><ele>509.0</ele><time>2026-05-03T13:54:41.515Z</time></trkpt><trkpt lat="42.9811116" lon="12.7863511"><ele>509.0</ele><time>2026-05-03T13:54:42.517Z</time></trkpt><trkpt lat="42.9811318" lon="12.7861469"><ele>509.0</ele><time>2026-05-03T13:54:43.517Z</time></trkpt><trkpt lat="42.981144" lon="12.7859421"><ele>509.0</ele><time>2026-05-03T13:54:44.518Z</time></trkpt><trkpt lat="42.9811492" lon="12.7857381"><ele>507.25</ele><time>2026-05-03T13:54:45.519Z</time></trkpt><trkpt lat="42.9811473" lon="12.7855351"><ele>505.5</ele><time>2026-05-03T13:54:46.518Z</time></trkpt><trkpt lat="42.9811329" lon="12.785333"><ele>503.75</ele><time>2026-05-03T13:54:47.516Z</time></trkpt><trkpt lat="42.9810993" lon="12.7851335"><ele>502.0</ele><time>2026-05-03T13:54:48.515Z</time></trkpt><trkpt lat="42.9810485" lon="12.7849445"><ele>501.0</ele><time>2026-05-03T13:54:49.516Z</time></trkpt><trkpt lat="42.9809585" lon="12.7847638"><ele>500.0</ele><time>2026-05-03T13:54:50.516Z</time></trkpt><trkpt lat="42.9808501" lon="12.7845871"><ele>499.0</ele><time>2026-05-03T13:54:51.519Z</time></trkpt><trkpt lat="42.9807202" lon="12.784419"><ele>497.6666666666667</ele><time>2026-05-03T13:54:52.519Z</time></trkpt><trkpt lat="42.9805782" lon="12.7842562"><ele>496.33333333333337</ele><time>2026-05-03T13:54:53.516Z</time></trkpt><trkpt lat="42.9804302" lon="12.7841"><ele>495.0</ele><time>2026-05-03T13:54:54.517Z</time></trkpt><trkpt lat="42.9802803" lon="12.7839425"><ele>495.0</ele><time>2026-05-03T13:54:55.518Z</time></trkpt><trkpt lat="42.9801264" lon="12.7837913"><ele>495.0</ele><time>2026-05-03T13:54:56.511Z</time></trkpt><trkpt lat="42.9799862" lon="12.7836478"><ele>495.0</ele><time>2026-05-03T13:54:57.519Z</time></trkpt><trkpt lat="42.9798682" lon="12.7834898"><ele>494.0</ele><time>2026-05-03T13:54:58.52Z</time></trkpt><trkpt lat="42.9797702" lon="12.7833084"><ele>493.0</ele><time>2026-05-03T13:54:59.521Z</time></trkpt><trkpt lat="42.9796903" lon="12.7831095"><ele>492.0</ele><time>2026-05-03T13:55:00.521Z</time></trkpt><trkpt lat="42.9796521" lon="12.782877"><ele>492.33333333333337</ele><time>2026-05-03T13:55:01.521Z</time></trkpt><trkpt lat="42.9796128" lon="12.7826382"><ele>492.6666666666667</ele><time>2026-05-03T13:55:02.522Z</time></trkpt><trkpt lat="42.9796027" lon="12.7823798"><ele>493.0</ele><time>2026-05-03T13:55:03.52Z</time></trkpt><trkpt lat="42.9796354" lon="12.7820732"><ele>494.0</ele><time>2026-05-03T13:55:04.52Z</time></trkpt><trkpt lat="42.9796812" lon="12.7817993"><ele>495.0</ele><time>2026-05-03T13:55:05.503Z</time></trkpt><trkpt lat="42.9797433" lon="12.7815307"><ele>496.0</ele><time>2026-05-03T13:55:06.522Z</time></trkpt><trkpt lat="42.9798068" lon="12.7812687"><ele>497.0</ele><time>2026-05-03T13:55:07.521Z</time></trkpt><trkpt lat="42.9798654" lon="12.781009"><ele>498.0</ele><time>2026-05-03T13:55:08.521Z</time></trkpt><trkpt lat="42.9799416" lon="12.7807408"><ele>499.0</ele><time>2026-05-03T13:55:09.52Z</time></trkpt><trkpt lat="42.9800386" lon="12.7805124"><ele>496.33333333333337</ele><time>2026-05-03T13:55:10.52Z</time></trkpt><trkpt lat="42.9801514" lon="12.7803251"><ele>493.66666666666663</ele><time>2026-05-03T13:55:11.518Z</time></trkpt><trkpt lat="42.9803429" lon="12.7803027"><ele>491.0</ele><time>2026-05-03T13:55:12.518Z</time></trkpt><trkpt lat="42.9804662" lon="12.7801323"><ele>491.0</ele><time>2026-05-03T13:55:13.519Z</time></trkpt><trkpt lat="42.9805715" lon="12.7799468"><ele>491.0</ele><time>2026-05-03T13:55:14.52Z</time></trkpt><trkpt lat="42.9806557" lon="12.7797463"><ele>491.0</ele><time>2026-05-03T13:55:15.52Z</time></trkpt><trkpt lat="42.9807417" lon="12.7795481"><ele>491.0</ele><time>2026-05-03T13:55:16.519Z</time></trkpt><trkpt lat="42.9808032" lon="12.7793545"><ele>491.0</ele><time>2026-05-03T13:55:17.521Z</time></trkpt><trkpt lat="42.9808734" lon="12.7791652"><ele>491.0</ele><time>2026-05-03T13:55:18.519Z</time></trkpt><trkpt lat="42.9809386" lon="12.7789941"><ele>490.0</ele><time>2026-05-03T13:55:19.52Z</time></trkpt><trkpt lat="42.9809939" lon="12.7788209"><ele>489.0</ele><time>2026-05-03T13:55:20.521Z</time></trkpt><trkpt lat="42.9810481" lon="12.7786525"><ele>488.0</ele><time>2026-05-03T13:55:21.651Z</time></trkpt><trkpt lat="42.9811324" lon="12.778306"><ele>488.0</ele><time>2026-05-03T13:55:23.52Z</time></trkpt><trkpt lat="42.9811589" lon="12.7781243"><ele>488.0</ele><time>2026-05-03T13:55:24.52Z</time></trkpt><trkpt lat="42.981172" lon="12.7779411"><ele>488.0</ele><time>2026-05-03T13:55:25.519Z</time></trkpt><trkpt lat="42.9811824" lon="12.7777594"><ele>488.0</ele><time>2026-05-03T13:55:26.515Z</time></trkpt><trkpt lat="42.9811904" lon="12.7775793"><ele>488.25</ele><time>2026-05-03T13:55:27.517Z</time></trkpt><trkpt lat="42.9812015" lon="12.7774021"><ele>488.5</ele><time>2026-05-03T13:55:28.519Z</time></trkpt><trkpt lat="42.9812087" lon="12.7772188"><ele>488.75</ele><time>2026-05-03T13:55:29.521Z</time></trkpt><trkpt lat="42.981223" lon="12.7770369"><ele>489.0</ele><time>2026-05-03T13:55:30.521Z</time></trkpt><trkpt lat="42.9812499" lon="12.7768577"><ele>488.75</ele><time>2026-05-03T13:55:31.519Z</time></trkpt><trkpt lat="42.9812865" lon="12.7766784"><ele>488.5</ele><time>2026-05-03T13:55:32.519Z</time></trkpt><trkpt lat="42.9813252" lon="12.7765058"><ele>488.25</ele><time>2026-05-03T13:55:33.52Z</time></trkpt><trkpt lat="42.9813742" lon="12.7763344"><ele>488.0</ele><time>2026-05-03T13:55:34.52Z</time></trkpt><trkpt lat="42.9814206" lon="12.7761517"><ele>488.25</ele><time>2026-05-03T13:55:35.521Z</time></trkpt><trkpt lat="42.9814484" lon="12.7759662"><ele>488.5</ele><time>2026-05-03T13:55:36.52Z</time></trkpt><trkpt lat="42.9814554" lon="12.7757774"><ele>488.75</ele><time>2026-05-03T13:55:37.513Z</time></trkpt><trkpt lat="42.9814428" lon="12.775584"><ele>489.0</ele><time>2026-05-03T13:55:38.515Z</time></trkpt><trkpt lat="42.9814246" lon="12.775401"><ele>489.0</ele><time>2026-05-03T13:55:39.515Z</time></trkpt><trkpt lat="42.9813948" lon="12.7752244"><ele>489.0</ele><time>2026-05-03T13:55:40.516Z</time></trkpt><trkpt lat="42.9813477" lon="12.7750661"><ele>489.0</ele><time>2026-05-03T13:55:41.517Z</time></trkpt><trkpt lat="42.9813022" lon="12.7749299"><ele>489.0</ele><time>2026-05-03T13:55:42.516Z</time></trkpt><trkpt lat="42.9812533" lon="12.7748053"><ele>488.0</ele><time>2026-05-03T13:55:43.515Z</time></trkpt><trkpt lat="42.9812052" lon="12.7746805"><ele>487.0</ele><time>2026-05-03T13:55:44.518Z</time></trkpt><trkpt lat="42.9811486" lon="12.7745562"><ele>486.0</ele><time>2026-05-03T13:55:45.516Z</time></trkpt><trkpt lat="42.9810791" lon="12.7744387"><ele>485.0</ele><time>2026-05-03T13:55:46.516Z</time></trkpt><trkpt lat="42.9809894" lon="12.7743222"><ele>484.0</ele><time>2026-05-03T13:55:47.515Z</time></trkpt><trkpt lat="42.9808839" lon="12.7742121"><ele>484.5</ele><time>2026-05-03T13:55:48.518Z</time></trkpt><trkpt lat="42.9807739" lon="12.7741165"><ele>485.0</ele><time>2026-05-03T13:55:49.516Z</time></trkpt><trkpt lat="42.9806577" lon="12.774016"><ele>485.5</ele><time>2026-05-03T13:55:50.517Z</time></trkpt><trkpt lat="42.9805441" lon="12.7739182"><ele>486.0</ele><time>2026-05-03T13:55:51.512Z</time></trkpt><trkpt lat="42.9804373" lon="12.7738205"><ele>486.0</ele><time>2026-05-03T13:55:52.517Z</time></trkpt><trkpt lat="42.9803289" lon="12.7737315"><ele>486.0</ele><time>2026-05-03T13:55:53.515Z</time></trkpt><trkpt lat="42.9802228" lon="12.7736349"><ele>486.0</ele><time>2026-05-03T13:55:54.515Z</time></trkpt><trkpt lat="42.9801216" lon="12.7735316"><ele>486.0</ele><time>2026-05-03T13:55:55.516Z</time></trkpt><trkpt lat="42.9800217" lon="12.7734256"><ele>486.5</ele><time>2026-05-03T13:55:56.516Z</time></trkpt><trkpt lat="42.979929" lon="12.7733143"><ele>487.0</ele><time>2026-05-03T13:55:57.515Z</time></trkpt><trkpt lat="42.9798399" lon="12.7732098"><ele>487.5</ele><time>2026-05-03T13:55:58.515Z</time></trkpt><trkpt lat="42.9797657" lon="12.7731063"><ele>488.0</ele><time>2026-05-03T13:55:59.518Z</time></trkpt><trkpt lat="42.9796962" lon="12.772994"><ele>488.0</ele><time>2026-05-03T13:56:00.518Z</time></trkpt><trkpt lat="42.979633" lon="12.7728768"><ele>487.99999999999994</ele><time>2026-05-03T13:56:01.516Z</time></trkpt><trkpt lat="42.9795836" lon="12.7727445"><ele>487.99999999999994</ele><time>2026-05-03T13:56:02.516Z</time></trkpt><trkpt lat="42.9795706" lon="12.772599"><ele>488.0</ele><time>2026-05-03T13:56:03.517Z</time></trkpt><trkpt lat="42.9795905" lon="12.7724542"><ele>488.0</ele><time>2026-05-03T13:56:04.516Z</time></trkpt><trkpt lat="42.9796385" lon="12.7723197"><ele>484.79999999999995</ele><time>2026-05-03T13:56:05.515Z</time></trkpt><trkpt lat="42.9797061" lon="12.7721977"><ele>481.59999999999997</ele><time>2026-05-03T13:56:06.516Z</time></trkpt><trkpt lat="42.9797695" lon="12.7720711"><ele>478.40000000000003</ele><time>2026-05-03T13:56:07.515Z</time></trkpt><trkpt lat="42.9798164" lon="12.7719293"><ele>475.20000000000005</ele><time>2026-05-03T13:56:08.516Z</time></trkpt><trkpt lat="42.9798469" lon="12.7717907"><ele>472.0</ele><time>2026-05-03T13:56:09.517Z</time></trkpt><trkpt lat="42.9798733" lon="12.7716577"><ele>471.8</ele><time>2026-05-03T13:56:10.516Z</time></trkpt><trkpt lat="42.979898" lon="12.7715251"><ele>471.6</ele><time>2026-05-03T13:56:11.516Z</time></trkpt><trkpt lat="42.9799101" lon="12.7713881"><ele>471.40000000000003</ele><time>2026-05-03T13:56:12.516Z</time></trkpt><trkpt lat="42.979893" lon="12.7712494"><ele>471.20000000000005</ele><time>2026-05-03T13:56:13.515Z</time></trkpt><trkpt lat="42.9798449" lon="12.7711101"><ele>471.0</ele><time>2026-05-03T13:56:14.511Z</time></trkpt><trkpt lat="42.9797846" lon="12.7709854"><ele>469.75</ele><time>2026-05-03T13:56:15.517Z</time></trkpt><trkpt lat="42.979716" lon="12.7708593"><ele>468.5</ele><time>2026-05-03T13:56:16.517Z</time></trkpt><trkpt lat="42.9796295" lon="12.7707178"><ele>467.25</ele><time>2026-05-03T13:56:17.516Z</time></trkpt><trkpt lat="42.9795078" lon="12.7705429"><ele>466.0</ele><time>2026-05-03T13:56:18.516Z</time></trkpt><trkpt lat="42.9793881" lon="12.7703453"><ele>461.6666666666667</ele><time>2026-05-03T13:56:19.515Z</time></trkpt><trkpt lat="42.9792865" lon="12.7701547"><ele>457.33333333333337</ele><time>2026-05-03T13:56:20.515Z</time></trkpt><trkpt lat="42.9791893" lon="12.7699668"><ele>453.0</ele><time>2026-05-03T13:56:21.516Z</time></trkpt><trkpt lat="42.9790854" lon="12.7697882"><ele>454.75</ele><time>2026-05-03T13:56:22.515Z</time></trkpt><trkpt lat="42.9789856" lon="12.7696274"><ele>456.5</ele><time>2026-05-03T13:56:23.507Z</time></trkpt><trkpt lat="42.9788834" lon="12.7694866"><ele>458.25</ele><time>2026-05-03T13:56:24.514Z</time></trkpt><trkpt lat="42.9787772" lon="12.7693565"><ele>460.0</ele><time>2026-05-03T13:56:25.515Z</time></trkpt><trkpt lat="42.9786739" lon="12.7692279"><ele>460.0</ele><time>2026-05-03T13:56:26.516Z</time></trkpt><trkpt lat="42.9785789" lon="12.7690917"><ele>460.0</ele><time>2026-05-03T13:56:27.515Z</time></trkpt><trkpt lat="42.9785035" lon="12.7689509"><ele>460.0</ele><time>2026-05-03T13:56:28.516Z</time></trkpt><trkpt lat="42.9784439" lon="12.7688023"><ele>460.0</ele><time>2026-05-03T13:56:29.516Z</time></trkpt><trkpt lat="42.9783904" lon="12.7686564"><ele>460.2</ele><time>2026-05-03T13:56:30.507Z</time></trkpt><trkpt lat="42.978336" lon="12.7685258"><ele>460.4</ele><time>2026-05-03T13:56:31.513Z</time></trkpt><trkpt lat="42.9782812" lon="12.768403"><ele>460.6</ele><time>2026-05-03T13:56:32.506Z</time></trkpt><trkpt lat="42.9782123" lon="12.7683037"><ele>460.8</ele><time>2026-05-03T13:56:33.516Z</time></trkpt><trkpt lat="42.9781251" lon="12.768224"><ele>461.0</ele><time>2026-05-03T13:56:34.515Z</time></trkpt><trkpt lat="42.9779833" lon="12.768164"><ele>461.0</ele><time>2026-05-03T13:56:35.515Z</time></trkpt><trkpt lat="42.9778237" lon="12.7680978"><ele>461.0</ele><time>2026-05-03T13:56:36.516Z</time></trkpt><trkpt lat="42.9775851" lon="12.7679777"><ele>461.0</ele><time>2026-05-03T13:56:37.508Z</time></trkpt><trkpt lat="42.9774064" lon="12.767875"><ele>459.0</ele><time>2026-05-03T13:56:38.513Z</time></trkpt><trkpt lat="42.9772435" lon="12.7677893"><ele>457.0</ele><time>2026-05-03T13:56:39.516Z</time></trkpt><trkpt lat="42.9771023" lon="12.7677008"><ele>455.0</ele><time>2026-05-03T13:56:40.515Z</time></trkpt><trkpt lat="42.9769849" lon="12.7675975"><ele>455.0</ele><time>2026-05-03T13:56:41.516Z</time></trkpt><trkpt lat="42.9769085" lon="12.7674652"><ele>455.0</ele><time>2026-05-03T13:56:42.513Z</time></trkpt><trkpt lat="42.9768763" lon="12.7672961"><ele>455.0</ele><time>2026-05-03T13:56:43.517Z</time></trkpt><trkpt lat="42.9768867" lon="12.7670896"><ele>455.0</ele><time>2026-05-03T13:56:44.515Z</time></trkpt><trkpt lat="42.976902" lon="12.7668856"><ele>454.3333333333333</ele><time>2026-05-03T13:56:45.517Z</time></trkpt><trkpt lat="42.9769326" lon="12.7666872"><ele>453.66666666666663</ele><time>2026-05-03T13:56:46.517Z</time></trkpt><trkpt lat="42.9770082" lon="12.7665097"><ele>453.0</ele><time>2026-05-03T13:56:47.512Z</time></trkpt><trkpt lat="42.9771305" lon="12.7663378"><ele>453.0</ele><time>2026-05-03T13:56:48.517Z</time></trkpt><trkpt lat="42.9772847" lon="12.7661696"><ele>453.0</ele><time>2026-05-03T13:56:49.514Z</time></trkpt><trkpt lat="42.9774409" lon="12.7659937"><ele>453.0</ele><time>2026-05-03T13:56:50.521Z</time></trkpt><trkpt lat="42.9775897" lon="12.7658264"><ele>450.66666666666663</ele><time>2026-05-03T13:56:51.519Z</time></trkpt><trkpt lat="42.9777382" lon="12.7656771"><ele>448.3333333333333</ele><time>2026-05-03T13:56:52.517Z</time></trkpt><trkpt lat="42.9778816" lon="12.7655479"><ele>446.0</ele><time>2026-05-03T13:56:53.517Z</time></trkpt><trkpt lat="42.9780356" lon="12.7654582"><ele>446.0</ele><time>2026-05-03T13:56:54.52Z</time></trkpt><trkpt lat="42.9781843" lon="12.7653821"><ele>446.0</ele><time>2026-05-03T13:56:55.52Z</time></trkpt><trkpt lat="42.9783382" lon="12.7653035"><ele>446.0</ele><time>2026-05-03T13:56:56.519Z</time></trkpt><trkpt lat="42.9784833" lon="12.7652602"><ele>450.25</ele><time>2026-05-03T13:56:57.521Z</time></trkpt><trkpt lat="42.9786159" lon="12.7652064"><ele>454.5</ele><time>2026-05-03T13:56:58.516Z</time></trkpt><trkpt lat="42.9787417" lon="12.7651642"><ele>458.75</ele><time>2026-05-03T13:56:59.523Z</time></trkpt><trkpt lat="42.9788676" lon="12.7651295"><ele>463.0</ele><time>2026-05-03T13:57:00.521Z</time></trkpt><trkpt lat="42.9789891" lon="12.7650899"><ele>463.0</ele><time>2026-05-03T13:57:01.52Z</time></trkpt><trkpt lat="42.9791019" lon="12.7650345"><ele>462.99999999999994</ele><time>2026-05-03T13:57:02.52Z</time></trkpt><trkpt lat="42.9792287" lon="12.7649769"><ele>462.99999999999994</ele><time>2026-05-03T13:57:03.519Z</time></trkpt><trkpt lat="42.9792748" lon="12.7648648"><ele>463.0</ele><time>2026-05-03T13:57:04.521Z</time></trkpt><trkpt lat="42.9793197" lon="12.7647494"><ele>463.0</ele><time>2026-05-03T13:57:05.521Z</time></trkpt><trkpt lat="42.9793601" lon="12.764608"><ele>454.5</ele><time>2026-05-03T13:57:06.522Z</time></trkpt><trkpt lat="42.9793809" lon="12.7644457"><ele>446.0</ele><time>2026-05-03T13:57:07.519Z</time></trkpt><trkpt lat="42.9793726" lon="12.7642763"><ele>437.5</ele><time>2026-05-03T13:57:08.519Z</time></trkpt><trkpt lat="42.9793415" lon="12.764096"><ele>429.0</ele><time>2026-05-03T13:57:09.519Z</time></trkpt><trkpt lat="42.9793009" lon="12.7639149"><ele>429.0</ele><time>2026-05-03T13:57:10.519Z</time></trkpt><trkpt lat="42.9792514" lon="12.7637316"><ele>429.0</ele><time>2026-05-03T13:57:11.52Z</time></trkpt><trkpt lat="42.9792078" lon="12.7635491"><ele>429.0</ele><time>2026-05-03T13:57:12.52Z</time></trkpt><trkpt lat="42.9791661" lon="12.7633718"><ele>429.0</ele><time>2026-05-03T13:57:13.52Z</time></trkpt><trkpt lat="42.9791334" lon="12.7632"><ele>436.5</ele><time>2026-05-03T13:57:14.519Z</time></trkpt><trkpt lat="42.9791074" lon="12.7630252"><ele>444.0</ele><time>2026-05-03T13:57:15.521Z</time></trkpt><trkpt lat="42.979077" lon="12.7628386"><ele>451.5</ele><time>2026-05-03T13:57:16.521Z</time></trkpt><trkpt lat="42.9790509" lon="12.7626567"><ele>459.0</ele><time>2026-05-03T13:57:17.518Z</time></trkpt><trkpt lat="42.9790267" lon="12.7624562"><ele>459.0</ele><time>2026-05-03T13:57:18.519Z</time></trkpt><trkpt lat="42.9790068" lon="12.7622361"><ele>459.0</ele><time>2026-05-03T13:57:19.515Z</time></trkpt><trkpt lat="42.9789815" lon="12.7620023"><ele>459.0</ele><time>2026-05-03T13:57:20.517Z</time></trkpt><trkpt lat="42.978945" lon="12.7617351"><ele>455.5</ele><time>2026-05-03T13:57:21.519Z</time></trkpt><trkpt lat="42.9789101" lon="12.7614379"><ele>452.0</ele><time>2026-05-03T13:57:22.517Z</time></trkpt><trkpt lat="42.9789111" lon="12.7611169"><ele>447.5</ele><time>2026-05-03T13:57:23.519Z</time></trkpt><trkpt lat="42.9789096" lon="12.7608085"><ele>443.0</ele><time>2026-05-03T13:57:24.52Z</time></trkpt><trkpt lat="42.9789142" lon="12.7604873"><ele>440.3333333333333</ele><time>2026-05-03T13:57:25.52Z</time></trkpt><trkpt lat="42.9788719" lon="12.7601827"><ele>437.66666666666663</ele><time>2026-05-03T13:57:26.52Z</time></trkpt><trkpt lat="42.9788482" lon="12.7599003"><ele>435.0</ele><time>2026-05-03T13:57:27.517Z</time></trkpt><trkpt lat="42.9788536" lon="12.759614"><ele>433.33333333333337</ele><time>2026-05-03T13:57:28.519Z</time></trkpt><trkpt lat="42.9788179" lon="12.7593413"><ele>431.6666666666667</ele><time>2026-05-03T13:57:29.521Z</time></trkpt><trkpt lat="42.9787238" lon="12.75905"><ele>430.0</ele><time>2026-05-03T13:57:30.516Z</time></trkpt><trkpt lat="42.9786422" lon="12.7587579"><ele>425.0</ele><time>2026-05-03T13:57:31.516Z</time></trkpt><trkpt lat="42.9785303" lon="12.7584737"><ele>420.0</ele><time>2026-05-03T13:57:32.521Z</time></trkpt><trkpt lat="42.9783554" lon="12.758195"><ele>433.0</ele><time>2026-05-03T13:57:33.519Z</time></trkpt><trkpt lat="42.9781569" lon="12.7579158"><ele>446.0</ele><time>2026-05-03T13:57:34.52Z</time></trkpt><trkpt lat="42.9779697" lon="12.757672"><ele>446.0</ele><time>2026-05-03T13:57:35.518Z</time></trkpt><trkpt lat="42.9777923" lon="12.7574239"><ele>446.0</ele><time>2026-05-03T13:57:36.519Z</time></trkpt><trkpt lat="42.9776317" lon="12.757183"><ele>449.5</ele><time>2026-05-03T13:57:37.518Z</time></trkpt><trkpt lat="42.9774666" lon="12.7569331"><ele>453.0</ele><time>2026-05-03T13:57:38.517Z</time></trkpt><trkpt lat="42.9772912" lon="12.7566884"><ele>453.0</ele><time>2026-05-03T13:57:39.519Z</time></trkpt><trkpt lat="42.977109" lon="12.7564463"><ele>453.0</ele><time>2026-05-03T13:57:40.523Z</time></trkpt><trkpt lat="42.9769089" lon="12.7562259"><ele>453.0</ele><time>2026-05-03T13:57:41.519Z</time></trkpt><trkpt lat="42.9767034" lon="12.7560277"><ele>453.0</ele><time>2026-05-03T13:57:42.518Z</time></trkpt><trkpt lat="42.9764898" lon="12.7558322"><ele>453.0</ele><time>2026-05-03T13:57:43.52Z</time></trkpt><trkpt lat="42.9762779" lon="12.7556489"><ele>453.0</ele><time>2026-05-03T13:57:44.519Z</time></trkpt><trkpt lat="42.9760586" lon="12.7554985"><ele>461.5</ele><time>2026-05-03T13:57:45.519Z</time></trkpt><trkpt lat="42.9758182" lon="12.7553661"><ele>470.0</ele><time>2026-05-03T13:57:46.519Z</time></trkpt><trkpt lat="42.9755814" lon="12.7552354"><ele>458.0</ele><time>2026-05-03T13:57:47.519Z</time></trkpt><trkpt lat="42.9753329" lon="12.7551652"><ele>446.0</ele><time>2026-05-03T13:57:48.516Z</time></trkpt><trkpt lat="42.9751043" lon="12.7550927"><ele>451.5</ele><time>2026-05-03T13:57:49.518Z</time></trkpt><trkpt lat="42.9748799" lon="12.7550561"><ele>457.0</ele><time>2026-05-03T13:57:50.52Z</time></trkpt><trkpt lat="42.9746512" lon="12.7550242"><ele>457.0</ele><time>2026-05-03T13:57:51.518Z</time></trkpt><trkpt lat="42.9744425" lon="12.7551019"><ele>457.0</ele><time>2026-05-03T13:57:52.514Z</time></trkpt><trkpt lat="42.9742217" lon="12.7551914"><ele>457.0</ele><time>2026-05-03T13:57:53.52Z</time></trkpt><trkpt lat="42.9740017" lon="12.7552647"><ele>465.33333333333337</ele><time>2026-05-03T13:57:54.52Z</time></trkpt><trkpt lat="42.9738157" lon="12.7553939"><ele>473.66666666666663</ele><time>2026-05-03T13:57:55.517Z</time></trkpt><trkpt lat="42.9736336" lon="12.7554746"><ele>482.0</ele><time>2026-05-03T13:57:56.519Z</time></trkpt><trkpt lat="42.9734453" lon="12.755531"><ele>476.66666666666663</ele><time>2026-05-03T13:57:57.519Z</time></trkpt><trkpt lat="42.9732803" lon="12.755567"><ele>471.33333333333337</ele><time>2026-05-03T13:57:58.52Z</time></trkpt><trkpt lat="42.9731271" lon="12.755573"><ele>466.0</ele><time>2026-05-03T13:57:59.52Z</time></trkpt><trkpt lat="42.9729833" lon="12.7555313"><ele>466.0</ele><time>2026-05-03T13:58:00.518Z</time></trkpt><trkpt lat="42.9728502" lon="12.7554909"><ele>466.0</ele><time>2026-05-03T13:58:01.52Z</time></trkpt><trkpt lat="42.9727493" lon="12.755404"><ele>466.0</ele><time>2026-05-03T13:58:02.514Z</time></trkpt><trkpt lat="42.9726333" lon="12.755237"><ele>466.0</ele><time>2026-05-03T13:58:03.508Z</time></trkpt><trkpt lat="42.9725799" lon="12.7550138"><ele>450.5</ele><time>2026-05-03T13:58:04.515Z</time></trkpt><trkpt lat="42.9725886" lon="12.7546579"><ele>435.0</ele><time>2026-05-03T13:58:05.511Z</time></trkpt><trkpt lat="42.9726404" lon="12.7542518"><ele>425.5</ele><time>2026-05-03T13:58:06.517Z</time></trkpt><trkpt lat="42.9726679" lon="12.7539251"><ele>416.0</ele><time>2026-05-03T13:58:07.512Z</time></trkpt><trkpt lat="42.9726554" lon="12.7536174"><ele>410.5</ele><time>2026-05-03T13:58:08.512Z</time></trkpt><trkpt lat="42.9726167" lon="12.7533047"><ele>405.0</ele><time>2026-05-03T13:58:09.514Z</time></trkpt><trkpt lat="42.9725485" lon="12.7530056"><ele>419.5</ele><time>2026-05-03T13:58:10.513Z</time></trkpt><trkpt lat="42.9724563" lon="12.7527068"><ele>434.0</ele><time>2026-05-03T13:58:11.519Z</time></trkpt><trkpt lat="42.9723419" lon="12.7524061"><ele>434.0</ele><time>2026-05-03T13:58:12.518Z</time></trkpt><trkpt lat="42.9722153" lon="12.75211"><ele>434.0</ele><time>2026-05-03T13:58:13.519Z</time></trkpt><trkpt lat="42.9720901" lon="12.7518159"><ele>427.5</ele><time>2026-05-03T13:58:14.516Z</time></trkpt><trkpt lat="42.9719712" lon="12.7515315"><ele>421.0</ele><time>2026-05-03T13:58:15.52Z</time></trkpt><trkpt lat="42.9718591" lon="12.7512615"><ele>422.0</ele><time>2026-05-03T13:58:16.518Z</time></trkpt><trkpt lat="42.9717457" lon="12.7509934"><ele>423.0</ele><time>2026-05-03T13:58:17.519Z</time></trkpt><trkpt lat="42.9716347" lon="12.7507607"><ele>424.0</ele><time>2026-05-03T13:58:18.519Z</time></trkpt><trkpt lat="42.9715126" lon="12.7505283"><ele>424.0</ele><time>2026-05-03T13:58:19.517Z</time></trkpt><trkpt lat="42.9713639" lon="12.7503306"><ele>424.0</ele><time>2026-05-03T13:58:20.52Z</time></trkpt><trkpt lat="42.971205" lon="12.7502169"><ele>424.0</ele><time>2026-05-03T13:58:21.519Z</time></trkpt><trkpt lat="42.9710251" lon="12.7501757"><ele>424.6666666666667</ele><time>2026-05-03T13:58:22.519Z</time></trkpt><trkpt lat="42.9708659" lon="12.7500474"><ele>425.33333333333337</ele><time>2026-05-03T13:58:23.519Z</time></trkpt><trkpt lat="42.9707208" lon="12.7498828"><ele>426.0</ele><time>2026-05-03T13:58:24.519Z</time></trkpt><trkpt lat="42.9706181" lon="12.7496045"><ele>426.0</ele><time>2026-05-03T13:58:25.519Z</time></trkpt><trkpt lat="42.9704932" lon="12.749394"><ele>426.0</ele><time>2026-05-03T13:58:26.526Z</time></trkpt><trkpt lat="42.970377" lon="12.749173"><ele>426.0</ele><time>2026-05-03T13:58:27.52Z</time></trkpt><trkpt lat="42.9702759" lon="12.7489701"><ele>420.66666666666663</ele><time>2026-05-03T13:58:28.52Z</time></trkpt><trkpt lat="42.9701768" lon="12.7487797"><ele>415.3333333333333</ele><time>2026-05-03T13:58:29.518Z</time></trkpt><trkpt lat="42.9701325" lon="12.7485674"><ele>410.0</ele><time>2026-05-03T13:58:30.519Z</time></trkpt><trkpt lat="42.9700918" lon="12.7483717"><ele>408.25</ele><time>2026-05-03T13:58:31.517Z</time></trkpt><trkpt lat="42.9701215" lon="12.7482077"><ele>406.5</ele><time>2026-05-03T13:58:32.512Z</time></trkpt><trkpt lat="42.9700478" lon="12.7480245"><ele>404.75</ele><time>2026-05-03T13:58:33.521Z</time></trkpt><trkpt lat="42.9699898" lon="12.7478867"><ele>403.0</ele><time>2026-05-03T13:58:34.52Z</time></trkpt><trkpt lat="42.9699076" lon="12.7477893"><ele>404.0</ele><time>2026-05-03T13:58:35.519Z</time></trkpt><trkpt lat="42.9697882" lon="12.7476794"><ele>405.0</ele><time>2026-05-03T13:58:36.517Z</time></trkpt><trkpt lat="42.9696403" lon="12.7476495"><ele>406.0</ele><time>2026-05-03T13:58:37.52Z</time></trkpt><trkpt lat="42.9694856" lon="12.7475887"><ele>406.0</ele><time>2026-05-03T13:58:38.518Z</time></trkpt><trkpt lat="42.9693483" lon="12.7475182"><ele>406.0</ele><time>2026-05-03T13:58:39.52Z</time></trkpt><trkpt lat="42.9691912" lon="12.7474947"><ele>406.0</ele><time>2026-05-03T13:58:40.52Z</time></trkpt><trkpt lat="42.9690976" lon="12.7473752"><ele>406.0</ele><time>2026-05-03T13:58:41.518Z</time></trkpt><trkpt lat="42.968982" lon="12.7472818"><ele>404.0</ele><time>2026-05-03T13:58:42.519Z</time></trkpt><trkpt lat="42.9688763" lon="12.7471711"><ele>402.0</ele><time>2026-05-03T13:58:43.518Z</time></trkpt><trkpt lat="42.9687598" lon="12.7470527"><ele>400.0</ele><time>2026-05-03T13:58:44.519Z</time></trkpt><trkpt lat="42.9686622" lon="12.7469482"><ele>398.0</ele><time>2026-05-03T13:58:45.514Z</time></trkpt><trkpt lat="42.9685754" lon="12.746829"><ele>398.0</ele><time>2026-05-03T13:58:46.518Z</time></trkpt><trkpt lat="42.9685155" lon="12.7467051"><ele>398.0</ele><time>2026-05-03T13:58:47.513Z</time></trkpt><trkpt lat="42.9684306" lon="12.7466256"><ele>398.0</ele><time>2026-05-03T13:58:48.519Z</time></trkpt><trkpt lat="42.9683526" lon="12.7465149"><ele>398.0</ele><time>2026-05-03T13:58:49.52Z</time></trkpt><trkpt lat="42.96827" lon="12.7463883"><ele>398.0</ele><time>2026-05-03T13:58:50.519Z</time></trkpt><trkpt lat="42.9681839" lon="12.746243"><ele>397.66666666666663</ele><time>2026-05-03T13:58:51.519Z</time></trkpt><trkpt lat="42.9680712" lon="12.7460963"><ele>397.33333333333337</ele><time>2026-05-03T13:58:52.517Z</time></trkpt><trkpt lat="42.9679432" lon="12.7459364"><ele>397.0</ele><time>2026-05-03T13:58:53.518Z</time></trkpt><trkpt lat="42.9677805" lon="12.7457902"><ele>397.0</ele><time>2026-05-03T13:58:54.52Z</time></trkpt><trkpt lat="42.9676054" lon="12.7456441"><ele>397.0</ele><time>2026-05-03T13:58:55.52Z</time></trkpt><trkpt lat="42.9674307" lon="12.7454991"><ele>397.0</ele><time>2026-05-03T13:58:56.52Z</time></trkpt><trkpt lat="42.9672471" lon="12.7453529"><ele>397.0</ele><time>2026-05-03T13:58:57.52Z</time></trkpt><trkpt lat="42.9670503" lon="12.7452279"><ele>397.0</ele><time>2026-05-03T13:58:58.518Z</time></trkpt><trkpt lat="42.9668441" lon="12.7451254"><ele>397.0</ele><time>2026-05-03T13:58:59.518Z</time></trkpt><trkpt lat="42.966635" lon="12.7450506"><ele>397.0</ele><time>2026-05-03T13:59:00.519Z</time></trkpt><trkpt lat="42.9664353" lon="12.7449838"><ele>397.0</ele><time>2026-05-03T13:59:01.514Z</time></trkpt><trkpt lat="42.9662463" lon="12.7449247"><ele>397.0</ele><time>2026-05-03T13:59:02.522Z</time></trkpt><trkpt lat="42.9660672" lon="12.7448706"><ele>397.0</ele><time>2026-05-03T13:59:03.52Z</time></trkpt><trkpt lat="42.9659017" lon="12.7448493"><ele>397.0</ele><time>2026-05-03T13:59:04.517Z</time></trkpt><trkpt lat="42.9657304" lon="12.7448466"><ele>397.0</ele><time>2026-05-03T13:59:05.52Z</time></trkpt><trkpt lat="42.9655904" lon="12.7449534"><ele>396.33333333333337</ele><time>2026-05-03T13:59:06.508Z</time></trkpt><trkpt lat="42.9654358" lon="12.7450147"><ele>395.66666666666663</ele><time>2026-05-03T13:59:07.519Z</time></trkpt><trkpt lat="42.9652973" lon="12.745136"><ele>395.0</ele><time>2026-05-03T13:59:08.519Z</time></trkpt><trkpt lat="42.9652377" lon="12.7453121"><ele>399.3333333333333</ele><time>2026-05-03T13:59:09.52Z</time></trkpt><trkpt lat="42.9651871" lon="12.7455896"><ele>403.66666666666663</ele><time>2026-05-03T13:59:10.521Z</time></trkpt><trkpt lat="42.9651703" lon="12.7459015"><ele>408.0</ele><time>2026-05-03T13:59:11.52Z</time></trkpt><trkpt lat="42.9651699" lon="12.7462206"><ele>410.5</ele><time>2026-05-03T13:59:12.521Z</time></trkpt><trkpt lat="42.9653065" lon="12.746591"><ele>413.0</ele><time>2026-05-03T13:59:13.519Z</time></trkpt><trkpt lat="42.9653202" lon="12.7468708"><ele>412.3333333333333</ele><time>2026-05-03T13:59:14.518Z</time></trkpt><trkpt lat="42.9653442" lon="12.7471426"><ele>411.66666666666663</ele><time>2026-05-03T13:59:15.519Z</time></trkpt><trkpt lat="42.9653601" lon="12.7473756"><ele>411.0</ele><time>2026-05-03T13:59:16.515Z</time></trkpt><trkpt lat="42.9653754" lon="12.7475858"><ele>410.75</ele><time>2026-05-03T13:59:17.518Z</time></trkpt><trkpt lat="42.9653847" lon="12.7477708"><ele>410.5</ele><time>2026-05-03T13:59:18.519Z</time></trkpt><trkpt lat="42.9653677" lon="12.7479381"><ele>410.25</ele><time>2026-05-03T13:59:19.514Z</time></trkpt><trkpt lat="42.965304" lon="12.7480581"><ele>410.0</ele><time>2026-05-03T13:59:20.522Z</time></trkpt><trkpt lat="42.9652116" lon="12.7481103"><ele>410.0</ele><time>2026-05-03T13:59:21.517Z</time></trkpt><trkpt lat="42.9650992" lon="12.7480904"><ele>410.0</ele><time>2026-05-03T13:59:22.52Z</time></trkpt><trkpt lat="42.9650008" lon="12.7480015"><ele>410.0</ele><time>2026-05-03T13:59:23.519Z</time></trkpt><trkpt lat="42.9649158" lon="12.7479053"><ele>410.0</ele><time>2026-05-03T13:59:24.52Z</time></trkpt><trkpt lat="42.9648534" lon="12.7477126"><ele>404.0</ele><time>2026-05-03T13:59:25.519Z</time></trkpt><trkpt lat="42.9648135" lon="12.7474275"><ele>398.0</ele><time>2026-05-03T13:59:26.519Z</time></trkpt><trkpt lat="42.9647554" lon="12.7472221"><ele>392.0</ele><time>2026-05-03T13:59:27.518Z</time></trkpt><trkpt lat="42.9647079" lon="12.7469863"><ele>391.3333333333333</ele><time>2026-05-03T13:59:28.519Z</time></trkpt><trkpt lat="42.9646359" lon="12.7467673"><ele>390.66666666666663</ele><time>2026-05-03T13:59:29.519Z</time></trkpt><trkpt lat="42.964571" lon="12.7465731"><ele>390.0</ele><time>2026-05-03T13:59:30.517Z</time></trkpt><trkpt lat="42.9645083" lon="12.7463585"><ele>390.0</ele><time>2026-05-03T13:59:31.518Z</time></trkpt><trkpt lat="42.9644585" lon="12.7461625"><ele>390.0</ele><time>2026-05-03T13:59:32.518Z</time></trkpt><trkpt lat="42.9642688" lon="12.7460313"><ele>390.0</ele><time>2026-05-03T13:59:33.52Z</time></trkpt><trkpt lat="42.9641365" lon="12.7458691"><ele>388.66666666666663</ele><time>2026-05-03T13:59:34.52Z</time></trkpt><trkpt lat="42.9640198" lon="12.7457078"><ele>387.3333333333333</ele><time>2026-05-03T13:59:35.52Z</time></trkpt><trkpt lat="42.9638766" lon="12.7456418"><ele>386.0</ele><time>2026-05-03T13:59:36.516Z</time></trkpt><trkpt lat="42.9637467" lon="12.7455604"><ele>386.0</ele><time>2026-05-03T13:59:37.52Z</time></trkpt><trkpt lat="42.963598" lon="12.7455592"><ele>386.0</ele><time>2026-05-03T13:59:38.518Z</time></trkpt><trkpt lat="42.9634594" lon="12.7455628"><ele>386.0</ele><time>2026-05-03T13:59:39.517Z</time></trkpt><trkpt lat="42.9633257" lon="12.7456113"><ele>386.0</ele><time>2026-05-03T13:59:40.521Z</time></trkpt><trkpt lat="42.9632163" lon="12.7456925"><ele>386.75</ele><time>2026-05-03T13:59:41.519Z</time></trkpt><trkpt lat="42.96309" lon="12.7457464"><ele>387.5</ele><time>2026-05-03T13:59:42.519Z</time></trkpt><trkpt lat="42.962964" lon="12.7457154"><ele>388.25</ele><time>2026-05-03T13:59:43.519Z</time></trkpt><trkpt lat="42.9628564" lon="12.7456171"><ele>389.0</ele><time>2026-05-03T13:59:44.519Z</time></trkpt><trkpt lat="42.9627642" lon="12.7454762"><ele>389.0</ele><time>2026-05-03T13:59:45.52Z</time></trkpt><trkpt lat="42.9626773" lon="12.7453114"><ele>389.0</ele><time>2026-05-03T13:59:46.519Z</time></trkpt><trkpt lat="42.9625961" lon="12.7451534"><ele>389.0</ele><time>2026-05-03T13:59:47.518Z</time></trkpt><trkpt lat="42.9625183" lon="12.7449955"><ele>389.0</ele><time>2026-05-03T13:59:48.519Z</time></trkpt><trkpt lat="42.9624292" lon="12.7448301"><ele>389.0</ele><time>2026-05-03T13:59:49.52Z</time></trkpt><trkpt lat="42.9623229" lon="12.7446831"><ele>389.0</ele><time>2026-05-03T13:59:50.521Z</time></trkpt><trkpt lat="42.9622355" lon="12.744537"><ele>389.0</ele><time>2026-05-03T13:59:51.517Z</time></trkpt><trkpt lat="42.962112" lon="12.7444473"><ele>389.0</ele><time>2026-05-03T13:59:52.518Z</time></trkpt><trkpt lat="42.9620019" lon="12.7443502"><ele>389.75</ele><time>2026-05-03T13:59:53.518Z</time></trkpt><trkpt lat="42.9618904" lon="12.7442471"><ele>390.5</ele><time>2026-05-03T13:59:54.519Z</time></trkpt><trkpt lat="42.9617898" lon="12.7441505"><ele>391.25</ele><time>2026-05-03T13:59:55.517Z</time></trkpt><trkpt lat="42.9617198" lon="12.7439808"><ele>392.0</ele><time>2026-05-03T13:59:56.521Z</time></trkpt><trkpt lat="42.9616979" lon="12.7438531"><ele>392.0</ele><time>2026-05-03T13:59:57.511Z</time></trkpt><trkpt lat="42.9616872" lon="12.7437203"><ele>392.0</ele><time>2026-05-03T13:59:58.521Z</time></trkpt><trkpt lat="42.9616988" lon="12.7435712"><ele>392.0</ele><time>2026-05-03T13:59:59.518Z</time></trkpt><trkpt lat="42.9618052" lon="12.7436258"><ele>392.0</ele><time>2026-05-03T14:00:01.518Z</time></trkpt><trkpt lat="42.9620847" lon="12.7436882"><ele>387.3333333333333</ele><time>2026-05-03T14:00:02.524Z</time></trkpt><trkpt lat="42.9622984" lon="12.7437663"><ele>382.66666666666663</ele><time>2026-05-03T14:00:03.519Z</time></trkpt><trkpt lat="42.9625156" lon="12.7438406"><ele>378.0</ele><time>2026-05-03T14:00:04.519Z</time></trkpt><trkpt lat="42.9627589" lon="12.7438296"><ele>374.75</ele><time>2026-05-03T14:00:05.52Z</time></trkpt><trkpt lat="42.9628844" lon="12.7437928"><ele>371.5</ele><time>2026-05-03T14:00:06.518Z</time></trkpt><trkpt lat="42.9629717" lon="12.7436933"><ele>368.25</ele><time>2026-05-03T14:00:07.521Z</time></trkpt><trkpt lat="42.9630132" lon="12.7435583"><ele>365.0</ele><time>2026-05-03T14:00:08.518Z</time></trkpt><trkpt lat="42.963022" lon="12.7434094"><ele>365.0</ele><time>2026-05-03T14:00:09.519Z</time></trkpt><trkpt lat="42.9629415" lon="12.743225"><ele>365.0</ele><time>2026-05-03T14:00:10.516Z</time></trkpt><trkpt lat="42.9628759" lon="12.7430314"><ele>365.0</ele><time>2026-05-03T14:00:11.516Z</time></trkpt><trkpt lat="42.9627334" lon="12.742753"><ele>362.0</ele><time>2026-05-03T14:00:12.519Z</time></trkpt><trkpt lat="42.9626003" lon="12.7424582"><ele>359.0</ele><time>2026-05-03T14:00:13.517Z</time></trkpt><trkpt lat="42.9624611" lon="12.7421392"><ele>364.0</ele><time>2026-05-03T14:00:14.519Z</time></trkpt><trkpt lat="42.9623317" lon="12.7418318"><ele>369.0</ele><time>2026-05-03T14:00:15.519Z</time></trkpt><trkpt lat="42.9622179" lon="12.7415315"><ele>369.0</ele><time>2026-05-03T14:00:16.514Z</time></trkpt><trkpt lat="42.9621083" lon="12.7412507"><ele>369.0</ele><time>2026-05-03T14:00:17.517Z</time></trkpt><trkpt lat="42.9619984" lon="12.7410006"><ele>369.0</ele><time>2026-05-03T14:00:18.516Z</time></trkpt><trkpt lat="42.9619111" lon="12.7407644"><ele>366.3333333333333</ele><time>2026-05-03T14:00:19.518Z</time></trkpt><trkpt lat="42.9618698" lon="12.7405127"><ele>363.66666666666663</ele><time>2026-05-03T14:00:20.517Z</time></trkpt><trkpt lat="42.9618193" lon="12.7402629"><ele>361.0</ele><time>2026-05-03T14:00:21.516Z</time></trkpt><trkpt lat="42.9618871" lon="12.740014"><ele>360.0</ele><time>2026-05-03T14:00:22.516Z</time></trkpt><trkpt lat="42.9618939" lon="12.7397674"><ele>359.0</ele><time>2026-05-03T14:00:23.518Z</time></trkpt><trkpt lat="42.9619107" lon="12.7395239"><ele>358.0</ele><time>2026-05-03T14:00:24.517Z</time></trkpt><trkpt lat="42.9618549" lon="12.739314"><ele>356.0</ele><time>2026-05-03T14:00:25.515Z</time></trkpt><trkpt lat="42.9617176" lon="12.7391185"><ele>354.0</ele><time>2026-05-03T14:00:26.517Z</time></trkpt><trkpt lat="42.9614539" lon="12.7388825"><ele>355.3333333333333</ele><time>2026-05-03T14:00:27.516Z</time></trkpt><trkpt lat="42.9613294" lon="12.7386757"><ele>356.66666666666663</ele><time>2026-05-03T14:00:28.52Z</time></trkpt><trkpt lat="42.9611871" lon="12.7384615"><ele>358.0</ele><time>2026-05-03T14:00:29.514Z</time></trkpt><trkpt lat="42.9610922" lon="12.7382289"><ele>358.0</ele><time>2026-05-03T14:00:30.518Z</time></trkpt><trkpt lat="42.961008" lon="12.7379893"><ele>358.0</ele><time>2026-05-03T14:00:31.516Z</time></trkpt><trkpt lat="42.960932" lon="12.7377558"><ele>358.0</ele><time>2026-05-03T14:00:32.517Z</time></trkpt><trkpt lat="42.960862" lon="12.7375226"><ele>361.0</ele><time>2026-05-03T14:00:33.519Z</time></trkpt><trkpt lat="42.9606963" lon="12.7373852"><ele>364.0</ele><time>2026-05-03T14:00:34.517Z</time></trkpt><trkpt lat="42.9605716" lon="12.7371938"><ele>367.0</ele><time>2026-05-03T14:00:35.518Z</time></trkpt><trkpt lat="42.9603917" lon="12.7371098"><ele>367.0</ele><time>2026-05-03T14:00:36.516Z</time></trkpt><trkpt lat="42.9602294" lon="12.737015"><ele>367.0</ele><time>2026-05-03T14:00:37.516Z</time></trkpt><trkpt lat="42.9600547" lon="12.73697"><ele>367.0</ele><time>2026-05-03T14:00:38.51Z</time></trkpt><trkpt lat="42.9598814" lon="12.7370063"><ele>366.66666666666663</ele><time>2026-05-03T14:00:39.515Z</time></trkpt><trkpt lat="42.959708" lon="12.7370552"><ele>366.3333333333333</ele><time>2026-05-03T14:00:40.516Z</time></trkpt><trkpt lat="42.9595456" lon="12.7371323"><ele>366.0</ele><time>2026-05-03T14:00:41.519Z</time></trkpt><trkpt lat="42.9594035" lon="12.7372388"><ele>366.0</ele><time>2026-05-03T14:00:42.517Z</time></trkpt><trkpt lat="42.9592366" lon="12.7373114"><ele>366.0</ele><time>2026-05-03T14:00:43.516Z</time></trkpt><trkpt lat="42.9590864" lon="12.7373597"><ele>366.0</ele><time>2026-05-03T14:00:44.517Z</time></trkpt><trkpt lat="42.9589012" lon="12.7372803"><ele>364.6666666666667</ele><time>2026-05-03T14:00:45.518Z</time></trkpt><trkpt lat="42.9587483" lon="12.7371636"><ele>363.33333333333337</ele><time>2026-05-03T14:00:46.521Z</time></trkpt><trkpt lat="42.9585786" lon="12.737074"><ele>362.0</ele><time>2026-05-03T14:00:47.512Z</time></trkpt><trkpt lat="42.9584122" lon="12.736956"><ele>357.6666666666667</ele><time>2026-05-03T14:00:48.519Z</time></trkpt><trkpt lat="42.958258" lon="12.7368375"><ele>353.3333333333333</ele><time>2026-05-03T14:00:49.517Z</time></trkpt><trkpt lat="42.9581045" lon="12.736717"><ele>349.0</ele><time>2026-05-03T14:00:50.519Z</time></trkpt><trkpt lat="42.9579565" lon="12.7366068"><ele>349.0</ele><time>2026-05-03T14:00:51.515Z</time></trkpt><trkpt lat="42.9578135" lon="12.7365"><ele>349.0</ele><time>2026-05-03T14:00:52.517Z</time></trkpt><trkpt lat="42.9576719" lon="12.7364011"><ele>349.0</ele><time>2026-05-03T14:00:53.52Z</time></trkpt><trkpt lat="42.9575337" lon="12.7363264"><ele>349.75</ele><time>2026-05-03T14:00:54.518Z</time></trkpt><trkpt lat="42.9573979" lon="12.7363036"><ele>350.5</ele><time>2026-05-03T14:00:55.519Z</time></trkpt><trkpt lat="42.9572548" lon="12.7363093"><ele>351.25</ele><time>2026-05-03T14:00:56.515Z</time></trkpt><trkpt lat="42.9571188" lon="12.7363273"><ele>352.0</ele><time>2026-05-03T14:00:57.519Z</time></trkpt><trkpt lat="42.9569835" lon="12.7363497"><ele>352.0</ele><time>2026-05-03T14:00:58.517Z</time></trkpt><trkpt lat="42.9568571" lon="12.7363728"><ele>352.0</ele><time>2026-05-03T14:00:59.518Z</time></trkpt><trkpt lat="42.9567408" lon="12.7363991"><ele>352.0</ele><time>2026-05-03T14:01:00.518Z</time></trkpt><trkpt lat="42.9566367" lon="12.7363993"><ele>352.0</ele><time>2026-05-03T14:01:01.516Z</time></trkpt><trkpt lat="42.9565442" lon="12.7363597"><ele>352.0</ele><time>2026-05-03T14:01:02.518Z</time></trkpt><trkpt lat="42.9564605" lon="12.7363268"><ele>351.5</ele><time>2026-05-03T14:01:03.519Z</time></trkpt><trkpt lat="42.9564287" lon="12.736178"><ele>351.0</ele><time>2026-05-03T14:01:04.519Z</time></trkpt><trkpt lat="42.9563909" lon="12.736067"><ele>350.5</ele><time>2026-05-03T14:01:05.517Z</time></trkpt><trkpt lat="42.9564335" lon="12.735912"><ele>350.0</ele><time>2026-05-03T14:01:06.521Z</time></trkpt><trkpt lat="42.9564644" lon="12.7357318"><ele>347.75</ele><time>2026-05-03T14:01:07.519Z</time></trkpt><trkpt lat="42.9564936" lon="12.7355619"><ele>345.5</ele><time>2026-05-03T14:01:08.516Z</time></trkpt><trkpt lat="42.9565198" lon="12.7353923"><ele>343.25</ele><time>2026-05-03T14:01:09.519Z</time></trkpt><trkpt lat="42.9565331" lon="12.7352415"><ele>341.0</ele><time>2026-05-03T14:01:10.519Z</time></trkpt><trkpt lat="42.9565233" lon="12.7350857"><ele>339.20000000000005</ele><time>2026-05-03T14:01:11.519Z</time></trkpt><trkpt lat="42.9564914" lon="12.7349421"><ele>337.40000000000003</ele><time>2026-05-03T14:01:12.515Z</time></trkpt><trkpt lat="42.95643" lon="12.7348063"><ele>335.6</ele><time>2026-05-03T14:01:13.52Z</time></trkpt><trkpt lat="42.95637" lon="12.7347027"><ele>333.8</ele><time>2026-05-03T14:01:14.52Z</time></trkpt><trkpt lat="42.9562786" lon="12.7346262"><ele>332.0</ele><time>2026-05-03T14:01:15.52Z</time></trkpt><trkpt lat="42.9561174" lon="12.7345384"><ele>332.0</ele><time>2026-05-03T14:01:16.518Z</time></trkpt><trkpt lat="42.9558895" lon="12.7345149"><ele>332.0</ele><time>2026-05-03T14:01:17.519Z</time></trkpt><trkpt lat="42.955658" lon="12.7344302"><ele>330.6666666666667</ele><time>2026-05-03T14:01:18.519Z</time></trkpt><trkpt lat="42.9554727" lon="12.7343329"><ele>329.3333333333333</ele><time>2026-05-03T14:01:19.517Z</time></trkpt><trkpt lat="42.9553707" lon="12.7341596"><ele>328.0</ele><time>2026-05-03T14:01:20.519Z</time></trkpt><trkpt lat="42.9552781" lon="12.7339743"><ele>328.0</ele><time>2026-05-03T14:01:21.52Z</time></trkpt><trkpt lat="42.9552388" lon="12.7337538"><ele>328.0</ele><time>2026-05-03T14:01:22.521Z</time></trkpt><trkpt lat="42.9552172" lon="12.7335182"><ele>328.0</ele><time>2026-05-03T14:01:23.516Z</time></trkpt><trkpt lat="42.9552005" lon="12.7332798"><ele>324.0</ele><time>2026-05-03T14:01:24.52Z</time></trkpt><trkpt lat="42.9551925" lon="12.7330468"><ele>320.0</ele><time>2026-05-03T14:01:25.519Z</time></trkpt><trkpt lat="42.9551833" lon="12.7328237"><ele>316.0</ele><time>2026-05-03T14:01:26.52Z</time></trkpt><trkpt lat="42.9551515" lon="12.7325694"><ele>315.3333333333333</ele><time>2026-05-03T14:01:27.519Z</time></trkpt><trkpt lat="42.9550178" lon="12.7324694"><ele>314.6666666666667</ele><time>2026-05-03T14:01:28.517Z</time></trkpt><trkpt lat="42.9549482" lon="12.7322786"><ele>314.0</ele><time>2026-05-03T14:01:29.519Z</time></trkpt><trkpt lat="42.9548252" lon="12.7321099"><ele>314.0</ele><time>2026-05-03T14:01:30.509Z</time></trkpt><trkpt lat="42.9546324" lon="12.7320579"><ele>314.0</ele><time>2026-05-03T14:01:31.518Z</time></trkpt><trkpt lat="42.9545318" lon="12.7318832"><ele>314.0</ele><time>2026-05-03T14:01:32.519Z</time></trkpt><trkpt lat="42.9544636" lon="12.7316921"><ele>313.0</ele><time>2026-05-03T14:01:33.52Z</time></trkpt><trkpt lat="42.9544484" lon="12.7314989"><ele>312.0</ele><time>2026-05-03T14:01:34.52Z</time></trkpt><trkpt lat="42.9544673" lon="12.7312912"><ele>311.0</ele><time>2026-05-03T14:01:35.518Z</time></trkpt><trkpt lat="42.9545037" lon="12.7310496"><ele>310.6666666666667</ele><time>2026-05-03T14:01:36.519Z</time></trkpt><trkpt lat="42.9545486" lon="12.7308147"><ele>310.3333333333333</ele><time>2026-05-03T14:01:37.518Z</time></trkpt><trkpt lat="42.9546226" lon="12.7305996"><ele>310.0</ele><time>2026-05-03T14:01:38.518Z</time></trkpt><trkpt lat="42.9547329" lon="12.7303851"><ele>309.0</ele><time>2026-05-03T14:01:39.521Z</time></trkpt><trkpt lat="42.9548608" lon="12.7301607"><ele>308.0</ele><time>2026-05-03T14:01:40.518Z</time></trkpt><trkpt lat="42.9549845" lon="12.7299095"><ele>307.0</ele><time>2026-05-03T14:01:41.519Z</time></trkpt><trkpt lat="42.955077" lon="12.7296605"><ele>309.0</ele><time>2026-05-03T14:01:42.518Z</time></trkpt><trkpt lat="42.9551615" lon="12.7294142"><ele>311.0</ele><time>2026-05-03T14:01:43.518Z</time></trkpt><trkpt lat="42.9552265" lon="12.7291692"><ele>313.0</ele><time>2026-05-03T14:01:44.515Z</time></trkpt><trkpt lat="42.9552653" lon="12.7289268"><ele>313.0</ele><time>2026-05-03T14:01:45.521Z</time></trkpt><trkpt lat="42.9552841" lon="12.7286893"><ele>313.0</ele><time>2026-05-03T14:01:46.519Z</time></trkpt><trkpt lat="42.9552806" lon="12.7284539"><ele>313.0</ele><time>2026-05-03T14:01:47.518Z</time></trkpt><trkpt lat="42.9552912" lon="12.7282304"><ele>309.0</ele><time>2026-05-03T14:01:48.517Z</time></trkpt><trkpt lat="42.9552997" lon="12.7280043"><ele>305.0</ele><time>2026-05-03T14:01:49.518Z</time></trkpt><trkpt lat="42.9553808" lon="12.7278311"><ele>301.0</ele><time>2026-05-03T14:01:50.519Z</time></trkpt><trkpt lat="42.9554351" lon="12.7276387"><ele>299.3333333333333</ele><time>2026-05-03T14:01:51.516Z</time></trkpt><trkpt lat="42.9556045" lon="12.7275188"><ele>297.6666666666667</ele><time>2026-05-03T14:01:52.519Z</time></trkpt><trkpt lat="42.9557102" lon="12.7273601"><ele>296.0</ele><time>2026-05-03T14:01:53.517Z</time></trkpt><trkpt lat="42.9558378" lon="12.7272057"><ele>296.6666666666667</ele><time>2026-05-03T14:01:54.518Z</time></trkpt><trkpt lat="42.9559636" lon="12.7270347"><ele>297.3333333333333</ele><time>2026-05-03T14:01:55.517Z</time></trkpt><trkpt lat="42.9560961" lon="12.7268697"><ele>298.0</ele><time>2026-05-03T14:01:56.519Z</time></trkpt><trkpt lat="42.956223" lon="12.7267107"><ele>298.0</ele><time>2026-05-03T14:01:57.521Z</time></trkpt><trkpt lat="42.9563442" lon="12.7265538"><ele>298.0</ele><time>2026-05-03T14:01:58.519Z</time></trkpt><trkpt lat="42.9564617" lon="12.7264043"><ele>298.0</ele><time>2026-05-03T14:01:59.52Z</time></trkpt><trkpt lat="42.9565641" lon="12.7262554"><ele>298.0</ele><time>2026-05-03T14:02:00.52Z</time></trkpt><trkpt lat="42.9566443" lon="12.7260906"><ele>298.0</ele><time>2026-05-03T14:02:01.518Z</time></trkpt><trkpt lat="42.9567027" lon="12.7259125"><ele>298.0</ele><time>2026-05-03T14:02:02.508Z</time></trkpt><trkpt lat="42.9567185" lon="12.7257291"><ele>298.0</ele><time>2026-05-03T14:02:03.52Z</time></trkpt><trkpt lat="42.956701" lon="12.7255323"><ele>295.5</ele><time>2026-05-03T14:02:04.519Z</time></trkpt><trkpt lat="42.9566631" lon="12.7253376"><ele>293.0</ele><time>2026-05-03T14:02:05.523Z</time></trkpt><trkpt lat="42.9566083" lon="12.7251499"><ele>290.5</ele><time>2026-05-03T14:02:06.519Z</time></trkpt><trkpt lat="42.9565593" lon="12.7249667"><ele>288.0</ele><time>2026-05-03T14:02:07.519Z</time></trkpt><trkpt lat="42.9565132" lon="12.7247917"><ele>286.75</ele><time>2026-05-03T14:02:08.519Z</time></trkpt><trkpt lat="42.956466" lon="12.7246198"><ele>285.5</ele><time>2026-05-03T14:02:09.519Z</time></trkpt><trkpt lat="42.9564203" lon="12.7244544"><ele>284.25</ele><time>2026-05-03T14:02:10.52Z</time></trkpt><trkpt lat="42.9563732" lon="12.7242956"><ele>283.0</ele><time>2026-05-03T14:02:11.519Z</time></trkpt><trkpt lat="42.9563285" lon="12.7241261"><ele>282.25</ele><time>2026-05-03T14:02:12.518Z</time></trkpt><trkpt lat="42.9562782" lon="12.7239576"><ele>281.5</ele><time>2026-05-03T14:02:13.52Z</time></trkpt><trkpt lat="42.956236" lon="12.7237895"><ele>280.75</ele><time>2026-05-03T14:02:14.52Z</time></trkpt><trkpt lat="42.9561881" lon="12.7236302"><ele>280.0</ele><time>2026-05-03T14:02:15.52Z</time></trkpt><trkpt lat="42.9561419" lon="12.7234745"><ele>278.5</ele><time>2026-05-03T14:02:16.519Z</time></trkpt><trkpt lat="42.956098" lon="12.7233159"><ele>277.0</ele><time>2026-05-03T14:02:17.52Z</time></trkpt><trkpt lat="42.9560557" lon="12.7231651"><ele>275.5</ele><time>2026-05-03T14:02:18.52Z</time></trkpt><trkpt lat="42.95602" lon="12.7230261"><ele>274.0</ele><time>2026-05-03T14:02:19.519Z</time></trkpt><trkpt lat="42.9560036" lon="12.7228816"><ele>274.0</ele><time>2026-05-03T14:02:20.519Z</time></trkpt><trkpt lat="42.9560126" lon="12.7227463"><ele>274.0</ele><time>2026-05-03T14:02:21.518Z</time></trkpt><trkpt lat="42.9560373" lon="12.7226258"><ele>274.0</ele><time>2026-05-03T14:02:22.518Z</time></trkpt><trkpt lat="42.9560871" lon="12.7225254"><ele>274.0</ele><time>2026-05-03T14:02:23.516Z</time></trkpt><trkpt lat="42.9561416" lon="12.7224605"><ele>274.0</ele><time>2026-05-03T14:02:24.519Z</time></trkpt><trkpt lat="42.9561961" lon="12.7224139"><ele>274.0</ele><time>2026-05-03T14:02:25.518Z</time></trkpt><trkpt lat="42.9562627" lon="12.7223728"><ele>273.0</ele><time>2026-05-03T14:02:26.516Z</time></trkpt><trkpt lat="42.9564371" lon="12.7223473"><ele>272.0</ele><time>2026-05-03T14:02:29.519Z</time></trkpt><trkpt lat="42.9566117" lon="12.7223386"><ele>271.0</ele><time>2026-05-03T14:02:30.528Z</time></trkpt><trkpt lat="42.9567365" lon="12.7223286"><ele>270.75</ele><time>2026-05-03T14:02:31.519Z</time></trkpt><trkpt lat="42.95686" lon="12.7223205"><ele>270.5</ele><time>2026-05-03T14:02:32.518Z</time></trkpt><trkpt lat="42.9569854" lon="12.7223029"><ele>270.25</ele><time>2026-05-03T14:02:33.518Z</time></trkpt><trkpt lat="42.9571118" lon="12.7222827"><ele>270.0</ele><time>2026-05-03T14:02:34.513Z</time></trkpt><trkpt lat="42.957244" lon="12.7222633"><ele>270.0</ele><time>2026-05-03T14:02:35.519Z</time></trkpt><trkpt lat="42.9573809" lon="12.7222278"><ele>270.0</ele><time>2026-05-03T14:02:36.52Z</time></trkpt><trkpt lat="42.9575168" lon="12.7222005"><ele>270.0</ele><time>2026-05-03T14:02:37.515Z</time></trkpt><trkpt lat="42.9576472" lon="12.7221825"><ele>270.0</ele><time>2026-05-03T14:02:38.513Z</time></trkpt><trkpt lat="42.9577626" lon="12.7221674"><ele>270.0</ele><time>2026-05-03T14:02:39.516Z</time></trkpt><trkpt lat="42.9578687" lon="12.7221502"><ele>270.0</ele><time>2026-05-03T14:02:40.519Z</time></trkpt><trkpt lat="42.9579629" lon="12.7221169"><ele>270.0</ele><time>2026-05-03T14:02:41.517Z</time></trkpt><trkpt lat="42.958044" lon="12.7220512"><ele>270.0</ele><time>2026-05-03T14:02:42.518Z</time></trkpt><trkpt lat="42.958106" lon="12.7219594"><ele>270.0</ele><time>2026-05-03T14:02:43.518Z</time></trkpt><trkpt lat="42.9581442" lon="12.7218399"><ele>269.4</ele><time>2026-05-03T14:02:44.519Z</time></trkpt><trkpt lat="42.9581482" lon="12.7217109"><ele>268.8</ele><time>2026-05-03T14:02:45.517Z</time></trkpt><trkpt lat="42.9581153" lon="12.7215838"><ele>268.2</ele><time>2026-05-03T14:02:46.512Z</time></trkpt><trkpt lat="42.9580489" lon="12.7214765"><ele>267.6</ele><time>2026-05-03T14:02:47.518Z</time></trkpt><trkpt lat="42.9579598" lon="12.7214028"><ele>267.0</ele><time>2026-05-03T14:02:48.512Z</time></trkpt><trkpt lat="42.9578556" lon="12.7213823"><ele>267.0</ele><time>2026-05-03T14:02:49.518Z</time></trkpt><trkpt lat="42.9577472" lon="12.7213899"><ele>267.0</ele><time>2026-05-03T14:02:50.517Z</time></trkpt><trkpt lat="42.9576268" lon="12.7214583"><ele>267.0</ele><time>2026-05-03T14:02:51.513Z</time></trkpt><trkpt lat="42.9575027" lon="12.7215134"><ele>267.0</ele><time>2026-05-03T14:02:52.514Z</time></trkpt><trkpt lat="42.9573676" lon="12.7215753"><ele>267.0</ele><time>2026-05-03T14:02:53.517Z</time></trkpt><trkpt lat="42.9572354" lon="12.7216309"><ele>267.0</ele><time>2026-05-03T14:02:54.515Z</time></trkpt><trkpt lat="42.9570961" lon="12.7216817"><ele>267.0</ele><time>2026-05-03T14:02:55.518Z</time></trkpt><trkpt lat="42.9569542" lon="12.7217269"><ele>267.0</ele><time>2026-05-03T14:02:56.516Z</time></trkpt><trkpt lat="42.9568028" lon="12.7217649"><ele>268.0</ele><time>2026-05-03T14:02:57.517Z</time></trkpt><trkpt lat="42.9566306" lon="12.7218025"><ele>269.0</ele><time>2026-05-03T14:02:58.518Z</time></trkpt><trkpt lat="42.956435" lon="12.7218447"><ele>270.0</ele><time>2026-05-03T14:02:59.518Z</time></trkpt><trkpt lat="42.9562342" lon="12.7218825"><ele>270.3333333333333</ele><time>2026-05-03T14:03:00.52Z</time></trkpt><trkpt lat="42.956037" lon="12.7219222"><ele>270.66666666666663</ele><time>2026-05-03T14:03:01.519Z</time></trkpt><trkpt lat="42.9558316" lon="12.7219433"><ele>271.0</ele><time>2026-05-03T14:03:02.513Z</time></trkpt><trkpt lat="42.9556282" lon="12.7219532"><ele>271.66666666666663</ele><time>2026-05-03T14:03:03.518Z</time></trkpt><trkpt lat="42.9554399" lon="12.7219423"><ele>272.3333333333333</ele><time>2026-05-03T14:03:04.509Z</time></trkpt><trkpt lat="42.9552458" lon="12.7219272"><ele>273.0</ele><time>2026-05-03T14:03:05.518Z</time></trkpt><trkpt lat="42.9550553" lon="12.7219191"><ele>273.6666666666667</ele><time>2026-05-03T14:03:06.517Z</time></trkpt><trkpt lat="42.9548631" lon="12.7219078"><ele>274.33333333333337</ele><time>2026-05-03T14:03:07.518Z</time></trkpt><trkpt lat="42.9546719" lon="12.7219006"><ele>275.0</ele><time>2026-05-03T14:03:08.519Z</time></trkpt><trkpt lat="42.9544798" lon="12.7218901"><ele>273.6666666666667</ele><time>2026-05-03T14:03:09.519Z</time></trkpt><trkpt lat="42.9542929" lon="12.7218855"><ele>272.3333333333333</ele><time>2026-05-03T14:03:10.518Z</time></trkpt><trkpt lat="42.9541116" lon="12.7218794"><ele>271.0</ele><time>2026-05-03T14:03:11.52Z</time></trkpt><trkpt lat="42.9539342" lon="12.7218747"><ele>271.0</ele><time>2026-05-03T14:03:12.516Z</time></trkpt><trkpt lat="42.9537564" lon="12.7218792"><ele>271.0</ele><time>2026-05-03T14:03:13.518Z</time></trkpt><trkpt lat="42.953583" lon="12.721884"><ele>271.0</ele><time>2026-05-03T14:03:14.517Z</time></trkpt><trkpt lat="42.9534037" lon="12.7218901"><ele>272.0</ele><time>2026-05-03T14:03:15.519Z</time></trkpt><trkpt lat="42.9532211" lon="12.7218986"><ele>273.0</ele><time>2026-05-03T14:03:16.517Z</time></trkpt><trkpt lat="42.9530327" lon="12.7219044"><ele>274.0</ele><time>2026-05-03T14:03:17.513Z</time></trkpt><trkpt lat="42.952849" lon="12.7219118"><ele>274.0</ele><time>2026-05-03T14:03:18.52Z</time></trkpt><trkpt lat="42.9526604" lon="12.7219367"><ele>274.0</ele><time>2026-05-03T14:03:19.516Z</time></trkpt><trkpt lat="42.9524694" lon="12.7219596"><ele>274.0</ele><time>2026-05-03T14:03:20.518Z</time></trkpt><trkpt lat="42.9522701" lon="12.7219834"><ele>274.3333333333333</ele><time>2026-05-03T14:03:21.513Z</time></trkpt><trkpt lat="42.9520728" lon="12.7219965"><ele>274.6666666666667</ele><time>2026-05-03T14:03:22.518Z</time></trkpt><trkpt lat="42.9518659" lon="12.7220018"><ele>275.0</ele><time>2026-05-03T14:03:23.518Z</time></trkpt><trkpt lat="42.9516584" lon="12.7219956"><ele>276.0</ele><time>2026-05-03T14:03:24.516Z</time></trkpt><trkpt lat="42.9514504" lon="12.721984"><ele>277.0</ele><time>2026-05-03T14:03:25.518Z</time></trkpt><trkpt lat="42.9512406" lon="12.7219551"><ele>278.0</ele><time>2026-05-03T14:03:26.514Z</time></trkpt><trkpt lat="42.9510404" lon="12.7219231"><ele>275.33333333333337</ele><time>2026-05-03T14:03:27.518Z</time></trkpt><trkpt lat="42.9508489" lon="12.7218867"><ele>272.6666666666667</ele><time>2026-05-03T14:03:28.519Z</time></trkpt><trkpt lat="42.9506646" lon="12.7218454"><ele>270.0</ele><time>2026-05-03T14:03:29.515Z</time></trkpt><trkpt lat="42.9504818" lon="12.7218121"><ele>270.0</ele><time>2026-05-03T14:03:30.518Z</time></trkpt><trkpt lat="42.950298" lon="12.7217817"><ele>270.0</ele><time>2026-05-03T14:03:31.516Z</time></trkpt><trkpt lat="42.9501159" lon="12.7217592"><ele>270.0</ele><time>2026-05-03T14:03:32.516Z</time></trkpt><trkpt lat="42.9499322" lon="12.7217431"><ele>269.6666666666667</ele><time>2026-05-03T14:03:33.517Z</time></trkpt><trkpt lat="42.9497497" lon="12.7217369"><ele>269.33333333333337</ele><time>2026-05-03T14:03:34.519Z</time></trkpt><trkpt lat="42.9495706" lon="12.7217398"><ele>269.0</ele><time>2026-05-03T14:03:35.518Z</time></trkpt><trkpt lat="42.9493882" lon="12.7217561"><ele>268.33333333333337</ele><time>2026-05-03T14:03:36.519Z</time></trkpt><trkpt lat="42.9492045" lon="12.7217723"><ele>267.6666666666667</ele><time>2026-05-03T14:03:37.512Z</time></trkpt><trkpt lat="42.9490211" lon="12.7217986"><ele>267.0</ele><time>2026-05-03T14:03:38.519Z</time></trkpt><trkpt lat="42.9488366" lon="12.7218245"><ele>267.0</ele><time>2026-05-03T14:03:39.51Z</time></trkpt><trkpt lat="42.9486508" lon="12.7218572"><ele>267.0</ele><time>2026-05-03T14:03:40.517Z</time></trkpt><trkpt lat="42.9484637" lon="12.7218879"><ele>267.0</ele><time>2026-05-03T14:03:41.522Z</time></trkpt><trkpt lat="42.948273" lon="12.7219143"><ele>267.0</ele><time>2026-05-03T14:03:42.517Z</time></trkpt><trkpt lat="42.9480775" lon="12.7219381"><ele>267.0</ele><time>2026-05-03T14:03:43.517Z</time></trkpt><trkpt lat="42.947875" lon="12.7219594"><ele>267.0</ele><time>2026-05-03T14:03:44.518Z</time></trkpt><trkpt lat="42.947671" lon="12.721976"><ele>266.6666666666667</ele><time>2026-05-03T14:03:45.518Z</time></trkpt><trkpt lat="42.9474682" lon="12.7219872"><ele>266.33333333333337</ele><time>2026-05-03T14:03:46.519Z</time></trkpt><trkpt lat="42.9472684" lon="12.722"><ele>266.0</ele><time>2026-05-03T14:03:47.517Z</time></trkpt><trkpt lat="42.9470693" lon="12.722005"><ele>266.0</ele><time>2026-05-03T14:03:48.519Z</time></trkpt><trkpt lat="42.9468733" lon="12.7220054"><ele>266.0</ele><time>2026-05-03T14:03:49.519Z</time></trkpt><trkpt lat="42.9466836" lon="12.7220022"><ele>266.0</ele><time>2026-05-03T14:03:50.521Z</time></trkpt><trkpt lat="42.9464998" lon="12.7219974"><ele>265.33333333333337</ele><time>2026-05-03T14:03:51.515Z</time></trkpt><trkpt lat="42.9463186" lon="12.721989"><ele>264.6666666666667</ele><time>2026-05-03T14:03:52.516Z</time></trkpt><trkpt lat="42.9461392" lon="12.7219847"><ele>264.0</ele><time>2026-05-03T14:03:53.512Z</time></trkpt><trkpt lat="42.945966" lon="12.7219815"><ele>262.3333333333333</ele><time>2026-05-03T14:03:54.518Z</time></trkpt><trkpt lat="42.9457949" lon="12.7219854"><ele>260.66666666666663</ele><time>2026-05-03T14:03:55.512Z</time></trkpt><trkpt lat="42.9456282" lon="12.7220009"><ele>259.0</ele><time>2026-05-03T14:03:56.519Z</time></trkpt><trkpt lat="42.9454531" lon="12.7220318"><ele>259.0</ele><time>2026-05-03T14:03:57.519Z</time></trkpt><trkpt lat="42.9452783" lon="12.7220759"><ele>259.0</ele><time>2026-05-03T14:03:58.518Z</time></trkpt><trkpt lat="42.9451026" lon="12.7221282"><ele>259.0</ele><time>2026-05-03T14:03:59.521Z</time></trkpt><trkpt lat="42.9449211" lon="12.722176"><ele>259.3333333333333</ele><time>2026-05-03T14:04:00.519Z</time></trkpt><trkpt lat="42.9447373" lon="12.7222226"><ele>259.6666666666667</ele><time>2026-05-03T14:04:01.518Z</time></trkpt><trkpt lat="42.9445517" lon="12.7222654"><ele>260.0</ele><time>2026-05-03T14:04:02.516Z</time></trkpt><trkpt lat="42.9443584" lon="12.7223024"><ele>259.6666666666667</ele><time>2026-05-03T14:04:03.519Z</time></trkpt><trkpt lat="42.9441639" lon="12.722337"><ele>259.3333333333333</ele><time>2026-05-03T14:04:04.518Z</time></trkpt><trkpt lat="42.9439656" lon="12.7223618"><ele>259.0</ele><time>2026-05-03T14:04:05.52Z</time></trkpt><trkpt lat="42.9437622" lon="12.7223772"><ele>259.0</ele><time>2026-05-03T14:04:06.519Z</time></trkpt><trkpt lat="42.9435544" lon="12.7223944"><ele>259.0</ele><time>2026-05-03T14:04:07.518Z</time></trkpt><trkpt lat="42.943346" lon="12.7224044"><ele>259.0</ele><time>2026-05-03T14:04:08.517Z</time></trkpt><trkpt lat="42.9431326" lon="12.7224189"><ele>258.3333333333333</ele><time>2026-05-03T14:04:09.517Z</time></trkpt><trkpt lat="42.9429159" lon="12.7224334"><ele>257.6666666666667</ele><time>2026-05-03T14:04:10.519Z</time></trkpt><trkpt lat="42.9427081" lon="12.7224442"><ele>257.0</ele><time>2026-05-03T14:04:11.518Z</time></trkpt><trkpt lat="42.9424966" lon="12.7224503"><ele>256.33333333333337</ele><time>2026-05-03T14:04:12.52Z</time></trkpt><trkpt lat="42.9422938" lon="12.7224519"><ele>255.66666666666669</ele><time>2026-05-03T14:04:13.517Z</time></trkpt><trkpt lat="42.9420973" lon="12.7224515"><ele>255.0</ele><time>2026-05-03T14:04:14.515Z</time></trkpt><trkpt lat="42.9419076" lon="12.7224445"><ele>255.0</ele><time>2026-05-03T14:04:15.517Z</time></trkpt><trkpt lat="42.9417204" lon="12.7224425"><ele>255.0</ele><time>2026-05-03T14:04:16.517Z</time></trkpt><trkpt lat="42.9415315" lon="12.7224387"><ele>255.0</ele><time>2026-05-03T14:04:17.516Z</time></trkpt><trkpt lat="42.9413389" lon="12.7224315"><ele>255.33333333333331</ele><time>2026-05-03T14:04:18.518Z</time></trkpt><trkpt lat="42.9411421" lon="12.7224314"><ele>255.66666666666666</ele><time>2026-05-03T14:04:19.518Z</time></trkpt><trkpt lat="42.940942" lon="12.7224303"><ele>256.0</ele><time>2026-05-03T14:04:20.515Z</time></trkpt><trkpt lat="42.940747" lon="12.7224256"><ele>254.66666666666666</ele><time>2026-05-03T14:04:21.603Z</time></trkpt><trkpt lat="42.9405608" lon="12.7224255"><ele>253.33333333333331</ele><time>2026-05-03T14:04:22.514Z</time></trkpt><trkpt lat="42.94037" lon="12.7224282"><ele>252.0</ele><time>2026-05-03T14:04:23.515Z</time></trkpt><trkpt lat="42.9401659" lon="12.722437"><ele>251.0</ele><time>2026-05-03T14:04:24.516Z</time></trkpt><trkpt lat="42.9399352" lon="12.7224432"><ele>250.0</ele><time>2026-05-03T14:04:25.514Z</time></trkpt><trkpt lat="42.9396968" lon="12.722448"><ele>250.0</ele><time>2026-05-03T14:04:26.517Z</time></trkpt><trkpt lat="42.9394642" lon="12.7224562"><ele>250.0</ele><time>2026-05-03T14:04:27.509Z</time></trkpt><trkpt lat="42.939234" lon="12.7224784"><ele>249.33333333333331</ele><time>2026-05-03T14:04:28.516Z</time></trkpt><trkpt lat="42.9390104" lon="12.7225122"><ele>248.66666666666669</ele><time>2026-05-03T14:04:29.517Z</time></trkpt><trkpt lat="42.9387934" lon="12.7225593"><ele>248.0</ele><time>2026-05-03T14:04:30.515Z</time></trkpt><trkpt lat="42.9385757" lon="12.7226054"><ele>248.0</ele><time>2026-05-03T14:04:31.515Z</time></trkpt><trkpt lat="42.9383692" lon="12.722674"><ele>248.0</ele><time>2026-05-03T14:04:32.516Z</time></trkpt><trkpt lat="42.9381617" lon="12.7227494"><ele>248.0</ele><time>2026-05-03T14:04:33.516Z</time></trkpt><trkpt lat="42.9379478" lon="12.7228331"><ele>248.0</ele><time>2026-05-03T14:04:34.516Z</time></trkpt><trkpt lat="42.9377337" lon="12.7229232"><ele>248.0</ele><time>2026-05-03T14:04:35.517Z</time></trkpt><trkpt lat="42.9375218" lon="12.7230322"><ele>249.5</ele><time>2026-05-03T14:04:36.519Z</time></trkpt><trkpt lat="42.937308" lon="12.723152"><ele>251.0</ele><time>2026-05-03T14:04:37.517Z</time></trkpt><trkpt lat="42.9370938" lon="12.7232817"><ele>251.0</ele><time>2026-05-03T14:04:38.516Z</time></trkpt><trkpt lat="42.9368852" lon="12.723421"><ele>251.0</ele><time>2026-05-03T14:04:39.516Z</time></trkpt><trkpt lat="42.9366767" lon="12.7235676"><ele>252.0</ele><time>2026-05-03T14:04:40.513Z</time></trkpt><trkpt lat="42.9364699" lon="12.7237261"><ele>253.0</ele><time>2026-05-03T14:04:41.514Z</time></trkpt><trkpt lat="42.9362668" lon="12.7238864"><ele>253.0</ele><time>2026-05-03T14:04:42.515Z</time></trkpt><trkpt lat="42.9360599" lon="12.7240538"><ele>253.0</ele><time>2026-05-03T14:04:43.518Z</time></trkpt><trkpt lat="42.9358526" lon="12.7242231"><ele>250.5</ele><time>2026-05-03T14:04:44.518Z</time></trkpt><trkpt lat="42.9356451" lon="12.7243931"><ele>248.0</ele><time>2026-05-03T14:04:45.515Z</time></trkpt><trkpt lat="42.9354377" lon="12.7245626"><ele>248.5</ele><time>2026-05-03T14:04:46.516Z</time></trkpt><trkpt lat="42.9352317" lon="12.7247314"><ele>249.0</ele><time>2026-05-03T14:04:47.516Z</time></trkpt><trkpt lat="42.9350263" lon="12.724897"><ele>249.0</ele><time>2026-05-03T14:04:48.517Z</time></trkpt><trkpt lat="42.9348223" lon="12.7250687"><ele>249.0</ele><time>2026-05-03T14:04:49.515Z</time></trkpt><trkpt lat="42.9346202" lon="12.7252348"><ele>247.5</ele><time>2026-05-03T14:04:50.517Z</time></trkpt><trkpt lat="42.9344185" lon="12.7254041"><ele>246.0</ele><time>2026-05-03T14:04:51.514Z</time></trkpt><trkpt lat="42.9342158" lon="12.7255734"><ele>246.0</ele><time>2026-05-03T14:04:52.512Z</time></trkpt><trkpt lat="42.9340208" lon="12.725753"><ele>246.0</ele><time>2026-05-03T14:04:53.517Z</time></trkpt><trkpt lat="42.9338241" lon="12.7259301"><ele>249.5</ele><time>2026-05-03T14:04:54.518Z</time></trkpt><trkpt lat="42.933618" lon="12.7261101"><ele>253.0</ele><time>2026-05-03T14:04:55.515Z</time></trkpt><trkpt lat="42.9334015" lon="12.7262832"><ele>246.5</ele><time>2026-05-03T14:04:56.512Z</time></trkpt><trkpt lat="42.9331837" lon="12.7264536"><ele>240.0</ele><time>2026-05-03T14:04:57.516Z</time></trkpt><trkpt lat="42.9329679" lon="12.7266146"><ele>240.0</ele><time>2026-05-03T14:04:58.51Z</time></trkpt><trkpt lat="42.9327586" lon="12.726773"><ele>240.0</ele><time>2026-05-03T14:04:59.515Z</time></trkpt><trkpt lat="42.9325494" lon="12.72694"><ele>240.5</ele><time>2026-05-03T14:05:00.518Z</time></trkpt><trkpt lat="42.9323519" lon="12.7270992"><ele>241.0</ele><time>2026-05-03T14:05:01.515Z</time></trkpt><trkpt lat="42.9321494" lon="12.7272574"><ele>241.0</ele><time>2026-05-03T14:05:02.514Z</time></trkpt><trkpt lat="42.9319376" lon="12.727419"><ele>241.0</ele><time>2026-05-03T14:05:03.517Z</time></trkpt><trkpt lat="42.9317303" lon="12.7275865"><ele>240.5</ele><time>2026-05-03T14:05:04.517Z</time></trkpt><trkpt lat="42.9315041" lon="12.7277004"><ele>240.0</ele><time>2026-05-03T14:05:05.516Z</time></trkpt><trkpt lat="42.931273" lon="12.7278344"><ele>240.0</ele><time>2026-05-03T14:05:06.519Z</time></trkpt><trkpt lat="42.931039" lon="12.7279475"><ele>240.0</ele><time>2026-05-03T14:05:07.519Z</time></trkpt><trkpt lat="42.9308027" lon="12.728054"><ele>240.0</ele><time>2026-05-03T14:05:08.519Z</time></trkpt><trkpt lat="42.9305594" lon="12.7281468"><ele>240.0</ele><time>2026-05-03T14:05:09.519Z</time></trkpt><trkpt lat="42.9303144" lon="12.7282221"><ele>240.0</ele><time>2026-05-03T14:05:10.518Z</time></trkpt><trkpt lat="42.9300655" lon="12.7282912"><ele>240.0</ele><time>2026-05-03T14:05:11.517Z</time></trkpt><trkpt lat="42.9298145" lon="12.7283513"><ele>238.5</ele><time>2026-05-03T14:05:12.513Z</time></trkpt><trkpt lat="42.9295617" lon="12.7283948"><ele>237.0</ele><time>2026-05-03T14:05:13.52Z</time></trkpt><trkpt lat="42.9293067" lon="12.7284261"><ele>235.5</ele><time>2026-05-03T14:05:14.519Z</time></trkpt><trkpt lat="42.9290579" lon="12.7284423"><ele>234.0</ele><time>2026-05-03T14:05:15.518Z</time></trkpt><trkpt lat="42.9288117" lon="12.728454"><ele>234.0</ele><time>2026-05-03T14:05:16.518Z</time></trkpt><trkpt lat="42.9285638" lon="12.7284492"><ele>234.0</ele><time>2026-05-03T14:05:17.51Z</time></trkpt><trkpt lat="42.9283277" lon="12.7284311"><ele>233.5</ele><time>2026-05-03T14:05:18.517Z</time></trkpt><trkpt lat="42.9280968" lon="12.7284021"><ele>233.0</ele><time>2026-05-03T14:05:19.516Z</time></trkpt><trkpt lat="42.9278683" lon="12.7283625"><ele>233.0</ele><time>2026-05-03T14:05:20.518Z</time></trkpt><trkpt lat="42.9276435" lon="12.7283324"><ele>233.0</ele><time>2026-05-03T14:05:21.519Z</time></trkpt><trkpt lat="42.9274195" lon="12.7282922"><ele>232.5</ele><time>2026-05-03T14:05:22.518Z</time></trkpt><trkpt lat="42.9271939" lon="12.7282559"><ele>232.0</ele><time>2026-05-03T14:05:23.518Z</time></trkpt><trkpt lat="42.9269709" lon="12.7282169"><ele>232.0</ele><time>2026-05-03T14:05:24.519Z</time></trkpt><trkpt lat="42.9267467" lon="12.7281825"><ele>232.0</ele><time>2026-05-03T14:05:25.519Z</time></trkpt><trkpt lat="42.9265297" lon="12.7281433"><ele>232.0</ele><time>2026-05-03T14:05:26.519Z</time></trkpt><trkpt lat="42.9263198" lon="12.728105"><ele>232.0</ele><time>2026-05-03T14:05:27.515Z</time></trkpt><trkpt lat="42.9261023" lon="12.7280687"><ele>232.0</ele><time>2026-05-03T14:05:28.515Z</time></trkpt><trkpt lat="42.9258834" lon="12.7280323"><ele>232.0</ele><time>2026-05-03T14:05:29.519Z</time></trkpt><trkpt lat="42.925665" lon="12.7279983"><ele>231.0</ele><time>2026-05-03T14:05:30.511Z</time></trkpt><trkpt lat="42.9254421" lon="12.7279594"><ele>230.0</ele><time>2026-05-03T14:05:31.52Z</time></trkpt><trkpt lat="42.925217" lon="12.7279149"><ele>230.0</ele><time>2026-05-03T14:05:32.519Z</time></trkpt><trkpt lat="42.9249911" lon="12.7278728"><ele>230.0</ele><time>2026-05-03T14:05:33.52Z</time></trkpt><trkpt lat="42.9247683" lon="12.7278336"><ele>230.0</ele><time>2026-05-03T14:05:34.52Z</time></trkpt><trkpt lat="42.92454" lon="12.7277896"><ele>230.0</ele><time>2026-05-03T14:05:35.52Z</time></trkpt><trkpt lat="42.9243123" lon="12.7277494"><ele>229.0</ele><time>2026-05-03T14:05:36.516Z</time></trkpt><trkpt lat="42.9240853" lon="12.7277091"><ele>228.0</ele><time>2026-05-03T14:05:37.518Z</time></trkpt><trkpt lat="42.9238563" lon="12.7276672"><ele>228.0</ele><time>2026-05-03T14:05:38.518Z</time></trkpt><trkpt lat="42.923622" lon="12.7276295"><ele>228.0</ele><time>2026-05-03T14:05:39.518Z</time></trkpt><trkpt lat="42.9233864" lon="12.727594"><ele>227.5</ele><time>2026-05-03T14:05:40.52Z</time></trkpt><trkpt lat="42.9231494" lon="12.7275528"><ele>227.0</ele><time>2026-05-03T14:05:41.518Z</time></trkpt><trkpt lat="42.9229127" lon="12.7275163"><ele>227.0</ele><time>2026-05-03T14:05:42.519Z</time></trkpt><trkpt lat="42.9226765" lon="12.7274734"><ele>227.0</ele><time>2026-05-03T14:05:43.518Z</time></trkpt><trkpt lat="42.9224371" lon="12.7274413"><ele>226.5</ele><time>2026-05-03T14:05:44.518Z</time></trkpt><trkpt lat="42.9221933" lon="12.7274079"><ele>226.0</ele><time>2026-05-03T14:05:45.518Z</time></trkpt><trkpt lat="42.9219543" lon="12.7273894"><ele>225.0</ele><time>2026-05-03T14:05:46.517Z</time></trkpt><trkpt lat="42.9217126" lon="12.7273784"><ele>224.0</ele><time>2026-05-03T14:05:47.518Z</time></trkpt><trkpt lat="42.9214675" lon="12.7273733"><ele>224.0</ele><time>2026-05-03T14:05:48.519Z</time></trkpt><trkpt lat="42.9212219" lon="12.7273758"><ele>224.0</ele><time>2026-05-03T14:05:49.52Z</time></trkpt><trkpt lat="42.9209736" lon="12.7273906"><ele>224.0</ele><time>2026-05-03T14:05:50.517Z</time></trkpt><trkpt lat="42.9207238" lon="12.7274093"><ele>224.0</ele><time>2026-05-03T14:05:51.514Z</time></trkpt><trkpt lat="42.9204728" lon="12.7274426"><ele>224.0</ele><time>2026-05-03T14:05:52.517Z</time></trkpt><trkpt lat="42.9202227" lon="12.7274838"><ele>224.0</ele><time>2026-05-03T14:05:53.516Z</time></trkpt><trkpt lat="42.9199724" lon="12.7275298"><ele>223.5</ele><time>2026-05-03T14:05:54.517Z</time></trkpt><trkpt lat="42.9197228" lon="12.7275788"><ele>223.0</ele><time>2026-05-03T14:05:55.583Z</time></trkpt><trkpt lat="42.9194735" lon="12.7276282"><ele>223.0</ele><time>2026-05-03T14:05:56.516Z</time></trkpt><trkpt lat="42.9192199" lon="12.7276795"><ele>223.0</ele><time>2026-05-03T14:05:57.512Z</time></trkpt><trkpt lat="42.9189649" lon="12.7277327"><ele>222.5</ele><time>2026-05-03T14:05:58.515Z</time></trkpt><trkpt lat="42.9187095" lon="12.7277847"><ele>222.0</ele><time>2026-05-03T14:05:59.518Z</time></trkpt><trkpt lat="42.9184473" lon="12.7278383"><ele>223.0</ele><time>2026-05-03T14:06:00.519Z</time></trkpt><trkpt lat="42.918184" lon="12.7278935"><ele>224.0</ele><time>2026-05-03T14:06:01.515Z</time></trkpt><trkpt lat="42.9179209" lon="12.7279499"><ele>224.0</ele><time>2026-05-03T14:06:02.515Z</time></trkpt><trkpt lat="42.9176652" lon="12.7280003"><ele>224.0</ele><time>2026-05-03T14:06:03.518Z</time></trkpt><trkpt lat="42.9174157" lon="12.728048"><ele>223.0</ele><time>2026-05-03T14:06:04.519Z</time></trkpt><trkpt lat="42.9171629" lon="12.7280893"><ele>222.0</ele><time>2026-05-03T14:06:05.519Z</time></trkpt><trkpt lat="42.9169128" lon="12.72813"><ele>222.5</ele><time>2026-05-03T14:06:06.519Z</time></trkpt><trkpt lat="42.9166652" lon="12.7281758"><ele>223.0</ele><time>2026-05-03T14:06:07.519Z</time></trkpt><trkpt lat="42.9164209" lon="12.7282197"><ele>223.0</ele><time>2026-05-03T14:06:08.518Z</time></trkpt><trkpt lat="42.9161732" lon="12.7282654"><ele>223.0</ele><time>2026-05-03T14:06:09.519Z</time></trkpt><trkpt lat="42.9159253" lon="12.7283162"><ele>223.0</ele><time>2026-05-03T14:06:10.518Z</time></trkpt><trkpt lat="42.9156761" lon="12.7283649"><ele>223.0</ele><time>2026-05-03T14:06:11.518Z</time></trkpt><trkpt lat="42.9154237" lon="12.7284044"><ele>223.0</ele><time>2026-05-03T14:06:12.518Z</time></trkpt><trkpt lat="42.9151673" lon="12.728431"><ele>223.0</ele><time>2026-05-03T14:06:13.518Z</time></trkpt><trkpt lat="42.914908" lon="12.7284351"><ele>222.5</ele><time>2026-05-03T14:06:14.519Z</time></trkpt><trkpt lat="42.9146465" lon="12.7284254"><ele>222.0</ele><time>2026-05-03T14:06:15.518Z</time></trkpt><trkpt lat="42.9143838" lon="12.728399"><ele>221.5</ele><time>2026-05-03T14:06:16.517Z</time></trkpt><trkpt lat="42.9141216" lon="12.7283607"><ele>221.0</ele><time>2026-05-03T14:06:17.516Z</time></trkpt><trkpt lat="42.9138613" lon="12.7283047"><ele>221.0</ele><time>2026-05-03T14:06:18.516Z</time></trkpt><trkpt lat="42.913603" lon="12.7282316"><ele>221.0</ele><time>2026-05-03T14:06:19.518Z</time></trkpt><trkpt lat="42.9133502" lon="12.7281444"><ele>222.0</ele><time>2026-05-03T14:06:20.516Z</time></trkpt><trkpt lat="42.9130977" lon="12.7280405"><ele>223.0</ele><time>2026-05-03T14:06:21.519Z</time></trkpt><trkpt lat="42.912848" lon="12.727922"><ele>223.0</ele><time>2026-05-03T14:06:22.519Z</time></trkpt><trkpt lat="42.9126072" lon="12.7277875"><ele>223.0</ele><time>2026-05-03T14:06:23.52Z</time></trkpt><trkpt lat="42.9123722" lon="12.7276366"><ele>220.0</ele><time>2026-05-03T14:06:24.519Z</time></trkpt><trkpt lat="42.912142" lon="12.7274781"><ele>217.0</ele><time>2026-05-03T14:06:25.519Z</time></trkpt><trkpt lat="42.9119175" lon="12.7273009"><ele>216.5</ele><time>2026-05-03T14:06:26.516Z</time></trkpt><trkpt lat="42.9116999" lon="12.7271118"><ele>216.0</ele><time>2026-05-03T14:06:27.515Z</time></trkpt><trkpt lat="42.9114873" lon="12.7269156"><ele>214.0</ele><time>2026-05-03T14:06:28.513Z</time></trkpt><trkpt lat="42.9112767" lon="12.7267162"><ele>212.0</ele><time>2026-05-03T14:06:29.517Z</time></trkpt><trkpt lat="42.9110666" lon="12.7265108"><ele>213.5</ele><time>2026-05-03T14:06:30.518Z</time></trkpt><trkpt lat="42.9108572" lon="12.7263024"><ele>215.0</ele><time>2026-05-03T14:06:31.518Z</time></trkpt><trkpt lat="42.9106434" lon="12.7260938"><ele>214.0</ele><time>2026-05-03T14:06:32.517Z</time></trkpt><trkpt lat="42.910431" lon="12.7258894"><ele>213.0</ele><time>2026-05-03T14:06:33.518Z</time></trkpt><trkpt lat="42.9102136" lon="12.7256811"><ele>215.0</ele><time>2026-05-03T14:06:34.519Z</time></trkpt><trkpt lat="42.9099943" lon="12.7254731"><ele>217.0</ele><time>2026-05-03T14:06:35.519Z</time></trkpt><trkpt lat="42.9097797" lon="12.7252718"><ele>215.0</ele><time>2026-05-03T14:06:36.52Z</time></trkpt><trkpt lat="42.9095638" lon="12.7250666"><ele>213.0</ele><time>2026-05-03T14:06:37.52Z</time></trkpt><trkpt lat="42.909345" lon="12.7248647"><ele>213.0</ele><time>2026-05-03T14:06:38.52Z</time></trkpt><trkpt lat="42.9091291" lon="12.7246616"><ele>213.0</ele><time>2026-05-03T14:06:39.519Z</time></trkpt><trkpt lat="42.9089169" lon="12.7244626"><ele>212.5</ele><time>2026-05-03T14:06:40.519Z</time></trkpt><trkpt lat="42.9087033" lon="12.7242598"><ele>212.0</ele><time>2026-05-03T14:06:41.516Z</time></trkpt><trkpt lat="42.9084863" lon="12.7240506"><ele>211.0</ele><time>2026-05-03T14:06:42.518Z</time></trkpt><trkpt lat="42.9082704" lon="12.7238436"><ele>210.0</ele><time>2026-05-03T14:06:43.52Z</time></trkpt><trkpt lat="42.9080551" lon="12.7236356"><ele>208.0</ele><time>2026-05-03T14:06:44.513Z</time></trkpt><trkpt lat="42.9078414" lon="12.7234294"><ele>206.0</ele><time>2026-05-03T14:06:45.518Z</time></trkpt><trkpt lat="42.9076227" lon="12.7232231"><ele>206.5</ele><time>2026-05-03T14:06:46.52Z</time></trkpt><trkpt lat="42.9074053" lon="12.7230211"><ele>207.0</ele><time>2026-05-03T14:06:47.516Z</time></trkpt><trkpt lat="42.9071854" lon="12.7228179"><ele>207.0</ele><time>2026-05-03T14:06:48.519Z</time></trkpt><trkpt lat="42.9069629" lon="12.7226215"><ele>207.0</ele><time>2026-05-03T14:06:49.514Z</time></trkpt><trkpt lat="42.9067402" lon="12.7224329"><ele>207.0</ele><time>2026-05-03T14:06:50.518Z</time></trkpt><trkpt lat="42.9065084" lon="12.7222489"><ele>207.0</ele><time>2026-05-03T14:06:51.519Z</time></trkpt><trkpt lat="42.9062726" lon="12.7220708"><ele>207.0</ele><time>2026-05-03T14:06:52.516Z</time></trkpt><trkpt lat="42.9060328" lon="12.7219019"><ele>207.0</ele><time>2026-05-03T14:06:53.516Z</time></trkpt><trkpt lat="42.9057868" lon="12.7217418"><ele>207.5</ele><time>2026-05-03T14:06:54.518Z</time></trkpt><trkpt lat="42.9055382" lon="12.7215927"><ele>208.0</ele><time>2026-05-03T14:06:55.516Z</time></trkpt><trkpt lat="42.9052873" lon="12.7214538"><ele>208.0</ele><time>2026-05-03T14:06:56.519Z</time></trkpt><trkpt lat="42.905032" lon="12.7213255"><ele>208.0</ele><time>2026-05-03T14:06:57.519Z</time></trkpt><trkpt lat="42.9047745" lon="12.7212028"><ele>208.0</ele><time>2026-05-03T14:06:58.517Z</time></trkpt><trkpt lat="42.9045131" lon="12.7210926"><ele>208.0</ele><time>2026-05-03T14:06:59.517Z</time></trkpt><trkpt lat="42.9042525" lon="12.7209963"><ele>207.5</ele><time>2026-05-03T14:07:00.517Z</time></trkpt><trkpt lat="42.9039867" lon="12.7209145"><ele>207.0</ele><time>2026-05-03T14:07:01.518Z</time></trkpt><trkpt lat="42.9037144" lon="12.7208437"><ele>207.0</ele><time>2026-05-03T14:07:02.519Z</time></trkpt><trkpt lat="42.903443" lon="12.7207785"><ele>207.0</ele><time>2026-05-03T14:07:03.519Z</time></trkpt><trkpt lat="42.9031717" lon="12.720727"><ele>206.5</ele><time>2026-05-03T14:07:04.52Z</time></trkpt><trkpt lat="42.9029054" lon="12.7206823"><ele>206.0</ele><time>2026-05-03T14:07:05.519Z</time></trkpt><trkpt lat="42.9026414" lon="12.7206498"><ele>206.5</ele><time>2026-05-03T14:07:06.516Z</time></trkpt><trkpt lat="42.9023773" lon="12.7206249"><ele>207.0</ele><time>2026-05-03T14:07:07.52Z</time></trkpt><trkpt lat="42.902115" lon="12.7206039"><ele>207.0</ele><time>2026-05-03T14:07:08.519Z</time></trkpt><trkpt lat="42.9018498" lon="12.7205881"><ele>207.0</ele><time>2026-05-03T14:07:09.519Z</time></trkpt><trkpt lat="42.9015864" lon="12.7205764"><ele>207.5</ele><time>2026-05-03T14:07:10.52Z</time></trkpt><trkpt lat="42.9013238" lon="12.720566"><ele>208.0</ele><time>2026-05-03T14:07:11.517Z</time></trkpt><trkpt lat="42.9010592" lon="12.7205595"><ele>207.5</ele><time>2026-05-03T14:07:12.517Z</time></trkpt><trkpt lat="42.9007941" lon="12.7205615"><ele>207.0</ele><time>2026-05-03T14:07:13.518Z</time></trkpt><trkpt lat="42.9005282" lon="12.7205677"><ele>207.0</ele><time>2026-05-03T14:07:14.517Z</time></trkpt><trkpt lat="42.9002658" lon="12.7205745"><ele>207.0</ele><time>2026-05-03T14:07:15.518Z</time></trkpt><trkpt lat="42.9000061" lon="12.7205821"><ele>207.0</ele><time>2026-05-03T14:07:16.516Z</time></trkpt><trkpt lat="42.8997452" lon="12.7205948"><ele>207.0</ele><time>2026-05-03T14:07:17.517Z</time></trkpt><trkpt lat="42.8994846" lon="12.7206069"><ele>206.5</ele><time>2026-05-03T14:07:18.52Z</time></trkpt><trkpt lat="42.8992234" lon="12.7206224"><ele>206.0</ele><time>2026-05-03T14:07:19.519Z</time></trkpt><trkpt lat="42.8989626" lon="12.7206441"><ele>206.0</ele><time>2026-05-03T14:07:20.519Z</time></trkpt><trkpt lat="42.8987026" lon="12.7206686"><ele>206.0</ele><time>2026-05-03T14:07:21.518Z</time></trkpt><trkpt lat="42.8984421" lon="12.7206994"><ele>204.5</ele><time>2026-05-03T14:07:22.517Z</time></trkpt><trkpt lat="42.8981818" lon="12.7207311"><ele>203.0</ele><time>2026-05-03T14:07:23.517Z</time></trkpt><trkpt lat="42.8979172" lon="12.7207684"><ele>203.0</ele><time>2026-05-03T14:07:24.52Z</time></trkpt><trkpt lat="42.8976524" lon="12.7208104"><ele>203.0</ele><time>2026-05-03T14:07:25.519Z</time></trkpt><trkpt lat="42.8973878" lon="12.7208594"><ele>205.0</ele><time>2026-05-03T14:07:26.511Z</time></trkpt><trkpt lat="42.8971234" lon="12.7209087"><ele>207.0</ele><time>2026-05-03T14:07:27.518Z</time></trkpt><trkpt lat="42.8968586" lon="12.7209606"><ele>206.5</ele><time>2026-05-03T14:07:28.517Z</time></trkpt><trkpt lat="42.8965972" lon="12.7210143"><ele>206.0</ele><time>2026-05-03T14:07:29.517Z</time></trkpt><trkpt lat="42.8963385" lon="12.7210702"><ele>206.0</ele><time>2026-05-03T14:07:30.516Z</time></trkpt><trkpt lat="42.8960804" lon="12.7211269"><ele>206.0</ele><time>2026-05-03T14:07:31.52Z</time></trkpt><trkpt lat="42.8958243" lon="12.7211883"><ele>206.5</ele><time>2026-05-03T14:07:32.518Z</time></trkpt><trkpt lat="42.8955671" lon="12.7212548"><ele>207.0</ele><time>2026-05-03T14:07:33.519Z</time></trkpt><trkpt lat="42.8953083" lon="12.7213208"><ele>207.0</ele><time>2026-05-03T14:07:34.511Z</time></trkpt><trkpt lat="42.895051" lon="12.7213882"><ele>207.0</ele><time>2026-05-03T14:07:35.521Z</time></trkpt><trkpt lat="42.8947939" lon="12.7214629"><ele>207.0</ele><time>2026-05-03T14:07:36.52Z</time></trkpt><trkpt lat="42.8945372" lon="12.7215435"><ele>207.0</ele><time>2026-05-03T14:07:37.518Z</time></trkpt><trkpt lat="42.8942819" lon="12.7216222"><ele>206.5</ele><time>2026-05-03T14:07:38.518Z</time></trkpt><trkpt lat="42.8940257" lon="12.7217082"><ele>206.0</ele><time>2026-05-03T14:07:39.518Z</time></trkpt><trkpt lat="42.8937681" lon="12.7217951"><ele>206.0</ele><time>2026-05-03T14:07:40.519Z</time></trkpt><trkpt lat="42.8935101" lon="12.7218908"><ele>206.0</ele><time>2026-05-03T14:07:41.519Z</time></trkpt><trkpt lat="42.8932511" lon="12.7219887"><ele>207.5</ele><time>2026-05-03T14:07:42.517Z</time></trkpt><trkpt lat="42.8929943" lon="12.7220853"><ele>209.0</ele><time>2026-05-03T14:07:43.517Z</time></trkpt><trkpt lat="42.892737" lon="12.7221861"><ele>207.0</ele><time>2026-05-03T14:07:44.519Z</time></trkpt><trkpt lat="42.8924796" lon="12.7222963"><ele>205.0</ele><time>2026-05-03T14:07:45.519Z</time></trkpt><trkpt lat="42.8922229" lon="12.7224127"><ele>205.0</ele><time>2026-05-03T14:07:46.52Z</time></trkpt><trkpt lat="42.8919683" lon="12.7225386"><ele>205.0</ele><time>2026-05-03T14:07:47.52Z</time></trkpt><trkpt lat="42.8917113" lon="12.7226666"><ele>205.5</ele><time>2026-05-03T14:07:48.518Z</time></trkpt><trkpt lat="42.8914542" lon="12.722795"><ele>206.0</ele><time>2026-05-03T14:07:49.517Z</time></trkpt><trkpt lat="42.8911961" lon="12.7229254"><ele>206.0</ele><time>2026-05-03T14:07:50.518Z</time></trkpt><trkpt lat="42.8909385" lon="12.7230527"><ele>206.0</ele><time>2026-05-03T14:07:51.516Z</time></trkpt><trkpt lat="42.8906773" lon="12.7231881"><ele>205.0</ele><time>2026-05-03T14:07:52.516Z</time></trkpt><trkpt lat="42.89042" lon="12.7233265"><ele>204.0</ele><time>2026-05-03T14:07:53.515Z</time></trkpt><trkpt lat="42.8901613" lon="12.7234726"><ele>205.5</ele><time>2026-05-03T14:07:54.519Z</time></trkpt><trkpt lat="42.8899047" lon="12.7236158"><ele>207.0</ele><time>2026-05-03T14:07:55.659Z</time></trkpt><trkpt lat="42.8893874" lon="12.7239055"><ele>206.5</ele><time>2026-05-03T14:07:57.508Z</time></trkpt><trkpt lat="42.8891298" lon="12.724055"><ele>206.0</ele><time>2026-05-03T14:07:58.52Z</time></trkpt><trkpt lat="42.8888731" lon="12.7242019"><ele>206.0</ele><time>2026-05-03T14:07:59.518Z</time></trkpt><trkpt lat="42.888613" lon="12.7243445"><ele>206.0</ele><time>2026-05-03T14:08:00.518Z</time></trkpt><trkpt lat="42.8883533" lon="12.7244861"><ele>206.5</ele><time>2026-05-03T14:08:01.518Z</time></trkpt><trkpt lat="42.888096" lon="12.7246296"><ele>207.0</ele><time>2026-05-03T14:08:02.52Z</time></trkpt><trkpt lat="42.887839" lon="12.7247782"><ele>208.0</ele><time>2026-05-03T14:08:03.52Z</time></trkpt><trkpt lat="42.8875785" lon="12.7249249"><ele>209.0</ele><time>2026-05-03T14:08:04.518Z</time></trkpt><trkpt lat="42.8873209" lon="12.7250806"><ele>209.0</ele><time>2026-05-03T14:08:05.517Z</time></trkpt><trkpt lat="42.8870685" lon="12.7252278"><ele>209.0</ele><time>2026-05-03T14:08:06.518Z</time></trkpt><trkpt lat="42.8868163" lon="12.725382"><ele>208.0</ele><time>2026-05-03T14:08:07.519Z</time></trkpt><trkpt lat="42.8865636" lon="12.725529"><ele>207.0</ele><time>2026-05-03T14:08:08.516Z</time></trkpt><trkpt lat="42.8863148" lon="12.7256762"><ele>207.0</ele><time>2026-05-03T14:08:09.517Z</time></trkpt><trkpt lat="42.886067" lon="12.7258271"><ele>207.0</ele><time>2026-05-03T14:08:10.519Z</time></trkpt><trkpt lat="42.8858207" lon="12.7259801"><ele>207.0</ele><time>2026-05-03T14:08:11.511Z</time></trkpt><trkpt lat="42.8855735" lon="12.7261263"><ele>207.0</ele><time>2026-05-03T14:08:12.519Z</time></trkpt><trkpt lat="42.8853273" lon="12.726274"><ele>207.0</ele><time>2026-05-03T14:08:13.519Z</time></trkpt><trkpt lat="42.8850855" lon="12.726421"><ele>207.0</ele><time>2026-05-03T14:08:14.511Z</time></trkpt><trkpt lat="42.8848453" lon="12.7265649"><ele>207.0</ele><time>2026-05-03T14:08:15.519Z</time></trkpt><trkpt lat="42.8846029" lon="12.7267092"><ele>207.0</ele><time>2026-05-03T14:08:16.518Z</time></trkpt><trkpt lat="42.8843654" lon="12.7268554"><ele>208.0</ele><time>2026-05-03T14:08:17.516Z</time></trkpt><trkpt lat="42.884125" lon="12.727"><ele>209.0</ele><time>2026-05-03T14:08:18.518Z</time></trkpt><trkpt lat="42.8838872" lon="12.7271491"><ele>209.0</ele><time>2026-05-03T14:08:19.519Z</time></trkpt><trkpt lat="42.883651" lon="12.727297"><ele>209.0</ele><time>2026-05-03T14:08:20.52Z</time></trkpt><trkpt lat="42.8834134" lon="12.7274439"><ele>209.0</ele><time>2026-05-03T14:08:21.519Z</time></trkpt><trkpt lat="42.8831689" lon="12.7275798"><ele>209.0</ele><time>2026-05-03T14:08:22.519Z</time></trkpt><trkpt lat="42.8829263" lon="12.7277198"><ele>208.5</ele><time>2026-05-03T14:08:23.519Z</time></trkpt><trkpt lat="42.8826838" lon="12.7278697"><ele>208.0</ele><time>2026-05-03T14:08:24.517Z</time></trkpt><trkpt lat="42.8824385" lon="12.7280088"><ele>209.0</ele><time>2026-05-03T14:08:25.515Z</time></trkpt><trkpt lat="42.8822089" lon="12.7281515"><ele>210.0</ele><time>2026-05-03T14:08:26.517Z</time></trkpt><trkpt lat="42.8819701" lon="12.7283011"><ele>209.5</ele><time>2026-05-03T14:08:27.521Z</time></trkpt><trkpt lat="42.881733" lon="12.7284428"><ele>209.0</ele><time>2026-05-03T14:08:28.516Z</time></trkpt><trkpt lat="42.8814823" lon="12.7285883"><ele>209.0</ele><time>2026-05-03T14:08:29.518Z</time></trkpt><trkpt lat="42.8812343" lon="12.7287264"><ele>209.0</ele><time>2026-05-03T14:08:30.519Z</time></trkpt><trkpt lat="42.8809882" lon="12.7288759"><ele>208.0</ele><time>2026-05-03T14:08:31.519Z</time></trkpt><trkpt lat="42.8807395" lon="12.7290224"><ele>207.0</ele><time>2026-05-03T14:08:32.518Z</time></trkpt><trkpt lat="42.880496" lon="12.7291703"><ele>207.0</ele><time>2026-05-03T14:08:33.519Z</time></trkpt><trkpt lat="42.8802422" lon="12.729315"><ele>207.0</ele><time>2026-05-03T14:08:34.517Z</time></trkpt><trkpt lat="42.879994" lon="12.7294636"><ele>207.5</ele><time>2026-05-03T14:08:35.519Z</time></trkpt><trkpt lat="42.8797489" lon="12.7296167"><ele>208.0</ele><time>2026-05-03T14:08:36.518Z</time></trkpt><trkpt lat="42.879486" lon="12.7297548"><ele>208.0</ele><time>2026-05-03T14:08:37.518Z</time></trkpt><trkpt lat="42.8792279" lon="12.7298857"><ele>208.0</ele><time>2026-05-03T14:08:38.519Z</time></trkpt><trkpt lat="42.8789668" lon="12.7300335"><ele>208.0</ele><time>2026-05-03T14:08:39.516Z</time></trkpt><trkpt lat="42.8787017" lon="12.7301058"><ele>208.0</ele><time>2026-05-03T14:08:40.519Z</time></trkpt><trkpt lat="42.8784248" lon="12.7302324"><ele>208.0</ele><time>2026-05-03T14:08:41.519Z</time></trkpt><trkpt lat="42.8781511" lon="12.7302978"><ele>208.0</ele><time>2026-05-03T14:08:42.519Z</time></trkpt><trkpt lat="42.8778799" lon="12.7303538"><ele>208.0</ele><time>2026-05-03T14:08:43.518Z</time></trkpt><trkpt lat="42.8776024" lon="12.7303928"><ele>208.0</ele><time>2026-05-03T14:08:44.519Z</time></trkpt><trkpt lat="42.8773217" lon="12.730438"><ele>208.0</ele><time>2026-05-03T14:08:45.519Z</time></trkpt><trkpt lat="42.8770463" lon="12.7304207"><ele>208.0</ele><time>2026-05-03T14:08:46.519Z</time></trkpt><trkpt lat="42.8767709" lon="12.7304175"><ele>208.0</ele><time>2026-05-03T14:08:47.517Z</time></trkpt><trkpt lat="42.8764986" lon="12.7303944"><ele>208.0</ele><time>2026-05-03T14:08:48.518Z</time></trkpt><trkpt lat="42.8762304" lon="12.7303488"><ele>208.0</ele><time>2026-05-03T14:08:49.519Z</time></trkpt><trkpt lat="42.8759611" lon="12.7302838"><ele>208.0</ele><time>2026-05-03T14:08:50.519Z</time></trkpt><trkpt lat="42.8756922" lon="12.730211"><ele>207.5</ele><time>2026-05-03T14:08:51.517Z</time></trkpt><trkpt lat="42.875427" lon="12.7301215"><ele>207.0</ele><time>2026-05-03T14:08:52.519Z</time></trkpt><trkpt lat="42.8751621" lon="12.7300197"><ele>208.5</ele><time>2026-05-03T14:08:53.518Z</time></trkpt><trkpt lat="42.8748978" lon="12.7299046"><ele>210.0</ele><time>2026-05-03T14:08:54.519Z</time></trkpt><trkpt lat="42.8746355" lon="12.7297888"><ele>210.0</ele><time>2026-05-03T14:08:55.518Z</time></trkpt><trkpt lat="42.8743714" lon="12.7296719"><ele>210.0</ele><time>2026-05-03T14:08:56.519Z</time></trkpt><trkpt lat="42.8741149" lon="12.7295306"><ele>210.0</ele><time>2026-05-03T14:08:57.515Z</time></trkpt><trkpt lat="42.8738392" lon="12.7294434"><ele>210.0</ele><time>2026-05-03T14:08:58.518Z</time></trkpt><trkpt lat="42.8735711" lon="12.7293386"><ele>211.0</ele><time>2026-05-03T14:08:59.512Z</time></trkpt><trkpt lat="42.8732965" lon="12.7292455"><ele>212.0</ele><time>2026-05-03T14:09:00.519Z</time></trkpt><trkpt lat="42.8730206" lon="12.7291637"><ele>212.0</ele><time>2026-05-03T14:09:01.518Z</time></trkpt><trkpt lat="42.8727382" lon="12.7291027"><ele>212.0</ele><time>2026-05-03T14:09:02.518Z</time></trkpt><trkpt lat="42.8724534" lon="12.7290577"><ele>212.0</ele><time>2026-05-03T14:09:03.518Z</time></trkpt><trkpt lat="42.8721668" lon="12.7290223"><ele>212.0</ele><time>2026-05-03T14:09:04.52Z</time></trkpt><trkpt lat="42.8718813" lon="12.7290058"><ele>211.5</ele><time>2026-05-03T14:09:05.519Z</time></trkpt><trkpt lat="42.8715965" lon="12.729005"><ele>211.0</ele><time>2026-05-03T14:09:06.519Z</time></trkpt><trkpt lat="42.8713199" lon="12.7290113"><ele>211.0</ele><time>2026-05-03T14:09:07.517Z</time></trkpt><trkpt lat="42.8710361" lon="12.7290482"><ele>211.0</ele><time>2026-05-03T14:09:08.518Z</time></trkpt><trkpt lat="42.8707671" lon="12.7291019"><ele>212.0</ele><time>2026-05-03T14:09:09.518Z</time></trkpt><trkpt lat="42.8704954" lon="12.729174"><ele>213.0</ele><time>2026-05-03T14:09:10.517Z</time></trkpt><trkpt lat="42.8702302" lon="12.7292566"><ele>212.5</ele><time>2026-05-03T14:09:11.519Z</time></trkpt><trkpt lat="42.8699685" lon="12.729357"><ele>212.0</ele><time>2026-05-03T14:09:12.517Z</time></trkpt><trkpt lat="42.8697112" lon="12.7294747"><ele>212.0</ele><time>2026-05-03T14:09:13.517Z</time></trkpt><trkpt lat="42.8694609" lon="12.7296056"><ele>212.0</ele><time>2026-05-03T14:09:14.518Z</time></trkpt><trkpt lat="42.8692109" lon="12.7297541"><ele>212.0</ele><time>2026-05-03T14:09:15.52Z</time></trkpt><trkpt lat="42.8689672" lon="12.7299172"><ele>212.0</ele><time>2026-05-03T14:09:16.519Z</time></trkpt><trkpt lat="42.8687256" lon="12.7300909"><ele>212.5</ele><time>2026-05-03T14:09:17.518Z</time></trkpt><trkpt lat="42.8684868" lon="12.7302728"><ele>213.0</ele><time>2026-05-03T14:09:18.519Z</time></trkpt><trkpt lat="42.8682471" lon="12.7304615"><ele>213.0</ele><time>2026-05-03T14:09:19.52Z</time></trkpt><trkpt lat="42.8680118" lon="12.7306497"><ele>213.0</ele><time>2026-05-03T14:09:20.518Z</time></trkpt><trkpt lat="42.8677764" lon="12.7308374"><ele>212.5</ele><time>2026-05-03T14:09:21.52Z</time></trkpt><trkpt lat="42.8675403" lon="12.7310265"><ele>212.0</ele><time>2026-05-03T14:09:22.516Z</time></trkpt><trkpt lat="42.8673061" lon="12.7312149"><ele>212.0</ele><time>2026-05-03T14:09:23.519Z</time></trkpt><trkpt lat="42.8670705" lon="12.7314067"><ele>212.0</ele><time>2026-05-03T14:09:24.519Z</time></trkpt><trkpt lat="42.8668363" lon="12.7315972"><ele>212.0</ele><time>2026-05-03T14:09:25.52Z</time></trkpt><trkpt lat="42.8666049" lon="12.7317898"><ele>212.0</ele><time>2026-05-03T14:09:26.519Z</time></trkpt><trkpt lat="42.8663752" lon="12.731982"><ele>212.0</ele><time>2026-05-03T14:09:27.516Z</time></trkpt><trkpt lat="42.8661522" lon="12.73218"><ele>212.0</ele><time>2026-05-03T14:09:28.515Z</time></trkpt><trkpt lat="42.8659398" lon="12.7323801"><ele>213.0</ele><time>2026-05-03T14:09:29.518Z</time></trkpt><trkpt lat="42.8657361" lon="12.732594"><ele>214.0</ele><time>2026-05-03T14:09:30.52Z</time></trkpt><trkpt lat="42.8655432" lon="12.7328043"><ele>214.0</ele><time>2026-05-03T14:09:31.514Z</time></trkpt><trkpt lat="42.865361" lon="12.7330132"><ele>214.0</ele><time>2026-05-03T14:09:32.52Z</time></trkpt><trkpt lat="42.8651862" lon="12.7332201"><ele>214.5</ele><time>2026-05-03T14:09:33.516Z</time></trkpt><trkpt lat="42.8650137" lon="12.7334329"><ele>215.0</ele><time>2026-05-03T14:09:34.519Z</time></trkpt><trkpt lat="42.8648455" lon="12.7336483"><ele>214.0</ele><time>2026-05-03T14:09:35.516Z</time></trkpt><trkpt lat="42.86468" lon="12.7338697"><ele>213.0</ele><time>2026-05-03T14:09:36.516Z</time></trkpt><trkpt lat="42.8645225" lon="12.7340847"><ele>213.0</ele><time>2026-05-03T14:09:37.519Z</time></trkpt><trkpt lat="42.8643169" lon="12.7343326"><ele>213.0</ele><time>2026-05-03T14:09:38.519Z</time></trkpt><trkpt lat="42.8641231" lon="12.7345703"><ele>213.0</ele><time>2026-05-03T14:09:39.516Z</time></trkpt><trkpt lat="42.8639207" lon="12.7348104"><ele>213.0</ele><time>2026-05-03T14:09:40.518Z</time></trkpt><trkpt lat="42.8637086" lon="12.735049"><ele>212.5</ele><time>2026-05-03T14:09:41.518Z</time></trkpt><trkpt lat="42.8635041" lon="12.7352947"><ele>212.0</ele><time>2026-05-03T14:09:42.516Z</time></trkpt><trkpt lat="42.8632611" lon="12.7355259"><ele>212.0</ele><time>2026-05-03T14:09:43.519Z</time></trkpt><trkpt lat="42.8630255" lon="12.7357531"><ele>212.0</ele><time>2026-05-03T14:09:44.515Z</time></trkpt><trkpt lat="42.8627895" lon="12.7359707"><ele>214.0</ele><time>2026-05-03T14:09:45.515Z</time></trkpt><trkpt lat="42.8625481" lon="12.7361793"><ele>216.0</ele><time>2026-05-03T14:09:46.515Z</time></trkpt><trkpt lat="42.862299" lon="12.7363794"><ele>216.0</ele><time>2026-05-03T14:09:47.515Z</time></trkpt><trkpt lat="42.8620484" lon="12.7365814"><ele>216.0</ele><time>2026-05-03T14:09:48.519Z</time></trkpt><trkpt lat="42.8617819" lon="12.7367876"><ele>215.5</ele><time>2026-05-03T14:09:49.517Z</time></trkpt><trkpt lat="42.8615313" lon="12.7369443"><ele>215.0</ele><time>2026-05-03T14:09:50.519Z</time></trkpt><trkpt lat="42.8612763" lon="12.7371234"><ele>215.0</ele><time>2026-05-03T14:09:51.515Z</time></trkpt><trkpt lat="42.8610185" lon="12.7372964"><ele>215.0</ele><time>2026-05-03T14:09:52.517Z</time></trkpt><trkpt lat="42.8607626" lon="12.7374666"><ele>215.0</ele><time>2026-05-03T14:09:53.519Z</time></trkpt><trkpt lat="42.8605013" lon="12.7376384"><ele>215.0</ele><time>2026-05-03T14:09:54.515Z</time></trkpt><trkpt lat="42.860236" lon="12.7378115"><ele>215.0</ele><time>2026-05-03T14:09:55.519Z</time></trkpt><trkpt lat="42.8599654" lon="12.7379894"><ele>215.0</ele><time>2026-05-03T14:09:56.519Z</time></trkpt><trkpt lat="42.8596921" lon="12.7381693"><ele>215.0</ele><time>2026-05-03T14:09:57.517Z</time></trkpt><trkpt lat="42.8594176" lon="12.7383366"><ele>215.0</ele><time>2026-05-03T14:09:58.519Z</time></trkpt><trkpt lat="42.8591408" lon="12.7385157"><ele>215.5</ele><time>2026-05-03T14:09:59.518Z</time></trkpt><trkpt lat="42.8588654" lon="12.7386941"><ele>216.0</ele><time>2026-05-03T14:10:00.52Z</time></trkpt><trkpt lat="42.8585906" lon="12.738873"><ele>216.0</ele><time>2026-05-03T14:10:01.517Z</time></trkpt><trkpt lat="42.8583179" lon="12.7390456"><ele>216.0</ele><time>2026-05-03T14:10:02.516Z</time></trkpt><trkpt lat="42.8580464" lon="12.7392273"><ele>216.0</ele><time>2026-05-03T14:10:03.519Z</time></trkpt><trkpt lat="42.8577769" lon="12.7394141"><ele>216.0</ele><time>2026-05-03T14:10:04.516Z</time></trkpt><trkpt lat="42.8575125" lon="12.7396081"><ele>216.0</ele><time>2026-05-03T14:10:05.518Z</time></trkpt><trkpt lat="42.857251" lon="12.7398073"><ele>216.0</ele><time>2026-05-03T14:10:06.511Z</time></trkpt><trkpt lat="42.8569905" lon="12.7400104"><ele>216.0</ele><time>2026-05-03T14:10:07.517Z</time></trkpt><trkpt lat="42.8567287" lon="12.740214"><ele>216.0</ele><time>2026-05-03T14:10:08.516Z</time></trkpt><trkpt lat="42.8564705" lon="12.7404168"><ele>215.5</ele><time>2026-05-03T14:10:09.52Z</time></trkpt><trkpt lat="42.8562145" lon="12.7406212"><ele>215.0</ele><time>2026-05-03T14:10:10.516Z</time></trkpt><trkpt lat="42.8559605" lon="12.740829"><ele>216.0</ele><time>2026-05-03T14:10:11.518Z</time></trkpt><trkpt lat="42.8557067" lon="12.7410414"><ele>217.0</ele><time>2026-05-03T14:10:12.517Z</time></trkpt><trkpt lat="42.8554534" lon="12.7412612"><ele>217.5</ele><time>2026-05-03T14:10:13.517Z</time></trkpt><trkpt lat="42.8552021" lon="12.7414864"><ele>218.0</ele><time>2026-05-03T14:10:14.518Z</time></trkpt><trkpt lat="42.8549572" lon="12.741714"><ele>217.5</ele><time>2026-05-03T14:10:15.517Z</time></trkpt><trkpt lat="42.8547143" lon="12.7419455"><ele>217.0</ele><time>2026-05-03T14:10:16.516Z</time></trkpt><trkpt lat="42.854472" lon="12.7421763"><ele>217.0</ele><time>2026-05-03T14:10:17.519Z</time></trkpt><trkpt lat="42.8542343" lon="12.7424085"><ele>217.0</ele><time>2026-05-03T14:10:18.514Z</time></trkpt><trkpt lat="42.8539976" lon="12.7426457"><ele>217.0</ele><time>2026-05-03T14:10:19.517Z</time></trkpt><trkpt lat="42.8537611" lon="12.7428901"><ele>217.0</ele><time>2026-05-03T14:10:20.518Z</time></trkpt><trkpt lat="42.8535335" lon="12.7431367"><ele>216.5</ele><time>2026-05-03T14:10:21.517Z</time></trkpt><trkpt lat="42.8533039" lon="12.7433886"><ele>216.0</ele><time>2026-05-03T14:10:22.516Z</time></trkpt><trkpt lat="42.8530822" lon="12.7436376"><ele>217.0</ele><time>2026-05-03T14:10:23.519Z</time></trkpt><trkpt lat="42.8528588" lon="12.7438875"><ele>218.0</ele><time>2026-05-03T14:10:24.516Z</time></trkpt><trkpt lat="42.8526369" lon="12.7441306"><ele>217.0</ele><time>2026-05-03T14:10:25.518Z</time></trkpt><trkpt lat="42.8524173" lon="12.7443737"><ele>216.0</ele><time>2026-05-03T14:10:26.519Z</time></trkpt><trkpt lat="42.8521952" lon="12.7446116"><ele>216.0</ele><time>2026-05-03T14:10:27.514Z</time></trkpt><trkpt lat="42.8519756" lon="12.7448506"><ele>216.0</ele><time>2026-05-03T14:10:28.518Z</time></trkpt><trkpt lat="42.8517559" lon="12.7450893"><ele>216.0</ele><time>2026-05-03T14:10:29.518Z</time></trkpt><trkpt lat="42.8515336" lon="12.7453242"><ele>216.0</ele><time>2026-05-03T14:10:30.516Z</time></trkpt><trkpt lat="42.851304" lon="12.7455644"><ele>216.0</ele><time>2026-05-03T14:10:31.518Z</time></trkpt><trkpt lat="42.8510721" lon="12.7457999"><ele>216.0</ele><time>2026-05-03T14:10:32.518Z</time></trkpt><trkpt lat="42.8508365" lon="12.7460253"><ele>216.5</ele><time>2026-05-03T14:10:33.516Z</time></trkpt><trkpt lat="42.8505918" lon="12.7462355"><ele>217.0</ele><time>2026-05-03T14:10:34.512Z</time></trkpt><trkpt lat="42.8503385" lon="12.7464355"><ele>217.0</ele><time>2026-05-03T14:10:35.518Z</time></trkpt><trkpt lat="42.8500843" lon="12.7466225"><ele>217.0</ele><time>2026-05-03T14:10:36.519Z</time></trkpt><trkpt lat="42.8498235" lon="12.746805"><ele>216.5</ele><time>2026-05-03T14:10:37.516Z</time></trkpt><trkpt lat="42.8495617" lon="12.746982"><ele>216.0</ele><time>2026-05-03T14:10:38.518Z</time></trkpt><trkpt lat="42.8493035" lon="12.7471531"><ele>215.5</ele><time>2026-05-03T14:10:39.518Z</time></trkpt><trkpt lat="42.8490488" lon="12.7473223"><ele>215.0</ele><time>2026-05-03T14:10:40.515Z</time></trkpt><trkpt lat="42.8487933" lon="12.7475018"><ele>215.0</ele><time>2026-05-03T14:10:41.517Z</time></trkpt><trkpt lat="42.8485413" lon="12.747683"><ele>215.0</ele><time>2026-05-03T14:10:42.518Z</time></trkpt><trkpt lat="42.8482952" lon="12.7478739"><ele>215.5</ele><time>2026-05-03T14:10:43.517Z</time></trkpt><trkpt lat="42.8480538" lon="12.748055"><ele>216.0</ele><time>2026-05-03T14:10:44.516Z</time></trkpt><trkpt lat="42.8478135" lon="12.7482717"><ele>216.0</ele><time>2026-05-03T14:10:45.516Z</time></trkpt><trkpt lat="42.8475734" lon="12.7484877"><ele>216.0</ele><time>2026-05-03T14:10:46.516Z</time></trkpt><trkpt lat="42.8473292" lon="12.7487138"><ele>216.0</ele><time>2026-05-03T14:10:47.517Z</time></trkpt><trkpt lat="42.8470892" lon="12.7489329"><ele>216.0</ele><time>2026-05-03T14:10:48.518Z</time></trkpt><trkpt lat="42.846846" lon="12.7491472"><ele>215.5</ele><time>2026-05-03T14:10:49.52Z</time></trkpt><trkpt lat="42.8466052" lon="12.7493638"><ele>215.0</ele><time>2026-05-03T14:10:50.514Z</time></trkpt><trkpt lat="42.8463692" lon="12.7495854"><ele>215.0</ele><time>2026-05-03T14:10:51.519Z</time></trkpt><trkpt lat="42.84614" lon="12.7498025"><ele>215.0</ele><time>2026-05-03T14:10:52.509Z</time></trkpt><trkpt lat="42.8459117" lon="12.7500217"><ele>215.5</ele><time>2026-05-03T14:10:53.518Z</time></trkpt><trkpt lat="42.845683" lon="12.7502389"><ele>216.0</ele><time>2026-05-03T14:10:54.516Z</time></trkpt><trkpt lat="42.8454562" lon="12.7504532"><ele>216.0</ele><time>2026-05-03T14:10:55.519Z</time></trkpt><trkpt lat="42.8452265" lon="12.7506657"><ele>216.0</ele><time>2026-05-03T14:10:56.517Z</time></trkpt><trkpt lat="42.8449996" lon="12.7508793"><ele>216.5</ele><time>2026-05-03T14:10:57.515Z</time></trkpt><trkpt lat="42.8447694" lon="12.7510987"><ele>217.0</ele><time>2026-05-03T14:10:58.517Z</time></trkpt><trkpt lat="42.8445307" lon="12.7513144"><ele>216.5</ele><time>2026-05-03T14:10:59.517Z</time></trkpt><trkpt lat="42.8442906" lon="12.7515254"><ele>216.0</ele><time>2026-05-03T14:11:00.517Z</time></trkpt><trkpt lat="42.8440476" lon="12.7517337"><ele>216.5</ele><time>2026-05-03T14:11:01.518Z</time></trkpt><trkpt lat="42.8438016" lon="12.7519365"><ele>217.0</ele><time>2026-05-03T14:11:02.517Z</time></trkpt><trkpt lat="42.8435521" lon="12.7521334"><ele>216.5</ele><time>2026-05-03T14:11:03.516Z</time></trkpt><trkpt lat="42.8433013" lon="12.752319"><ele>216.0</ele><time>2026-05-03T14:11:04.516Z</time></trkpt><trkpt lat="42.843046" lon="12.7524964"><ele>216.0</ele><time>2026-05-03T14:11:05.516Z</time></trkpt><trkpt lat="42.8427899" lon="12.7526666"><ele>216.0</ele><time>2026-05-03T14:11:06.514Z</time></trkpt><trkpt lat="42.8425325" lon="12.7528255"><ele>216.5</ele><time>2026-05-03T14:11:07.52Z</time></trkpt><trkpt lat="42.8422763" lon="12.7529754"><ele>217.0</ele><time>2026-05-03T14:11:08.517Z</time></trkpt><trkpt lat="42.8420148" lon="12.7531215"><ele>217.0</ele><time>2026-05-03T14:11:09.516Z</time></trkpt><trkpt lat="42.8417507" lon="12.753261"><ele>217.0</ele><time>2026-05-03T14:11:10.517Z</time></trkpt><trkpt lat="42.8414854" lon="12.7533906"><ele>217.0</ele><time>2026-05-03T14:11:11.519Z</time></trkpt><trkpt lat="42.8412224" lon="12.7535121"><ele>217.0</ele><time>2026-05-03T14:11:12.515Z</time></trkpt><trkpt lat="42.8409562" lon="12.7536337"><ele>217.5</ele><time>2026-05-03T14:11:13.516Z</time></trkpt><trkpt lat="42.8406917" lon="12.7537507"><ele>218.0</ele><time>2026-05-03T14:11:14.517Z</time></trkpt><trkpt lat="42.8404272" lon="12.7538623"><ele>218.0</ele><time>2026-05-03T14:11:15.519Z</time></trkpt><trkpt lat="42.8401611" lon="12.7539724"><ele>218.0</ele><time>2026-05-03T14:11:16.517Z</time></trkpt><trkpt lat="42.8398941" lon="12.7540863"><ele>218.5</ele><time>2026-05-03T14:11:17.516Z</time></trkpt><trkpt lat="42.8396218" lon="12.7541988"><ele>219.0</ele><time>2026-05-03T14:11:18.518Z</time></trkpt><trkpt lat="42.8393549" lon="12.7543142"><ele>219.0</ele><time>2026-05-03T14:11:19.519Z</time></trkpt><trkpt lat="42.8390894" lon="12.754434"><ele>219.0</ele><time>2026-05-03T14:11:20.518Z</time></trkpt><trkpt lat="42.8388229" lon="12.7545623"><ele>219.0</ele><time>2026-05-03T14:11:21.519Z</time></trkpt><trkpt lat="42.8385577" lon="12.7546933"><ele>219.0</ele><time>2026-05-03T14:11:22.518Z</time></trkpt><trkpt lat="42.838295" lon="12.7548289"><ele>218.0</ele><time>2026-05-03T14:11:23.519Z</time></trkpt><trkpt lat="42.8380356" lon="12.7549707"><ele>217.0</ele><time>2026-05-03T14:11:24.515Z</time></trkpt><trkpt lat="42.8377744" lon="12.7551217"><ele>218.0</ele><time>2026-05-03T14:11:25.516Z</time></trkpt><trkpt lat="42.8375144" lon="12.755281"><ele>219.0</ele><time>2026-05-03T14:11:26.518Z</time></trkpt><trkpt lat="42.8372547" lon="12.7554471"><ele>219.0</ele><time>2026-05-03T14:11:27.519Z</time></trkpt><trkpt lat="42.8369973" lon="12.7556195"><ele>219.0</ele><time>2026-05-03T14:11:28.521Z</time></trkpt><trkpt lat="42.8367434" lon="12.7557931"><ele>219.0</ele><time>2026-05-03T14:11:29.518Z</time></trkpt><trkpt lat="42.8364893" lon="12.7559653"><ele>219.0</ele><time>2026-05-03T14:11:30.517Z</time></trkpt><trkpt lat="42.8362393" lon="12.7561412"><ele>219.0</ele><time>2026-05-03T14:11:31.517Z</time></trkpt><trkpt lat="42.8359874" lon="12.7563183"><ele>219.0</ele><time>2026-05-03T14:11:32.52Z</time></trkpt><trkpt lat="42.8357383" lon="12.7564958"><ele>219.0</ele><time>2026-05-03T14:11:33.518Z</time></trkpt><trkpt lat="42.8354907" lon="12.7566727"><ele>219.0</ele><time>2026-05-03T14:11:34.516Z</time></trkpt><trkpt lat="42.8352424" lon="12.7568466"><ele>219.5</ele><time>2026-05-03T14:11:35.521Z</time></trkpt><trkpt lat="42.8349957" lon="12.7570168"><ele>220.0</ele><time>2026-05-03T14:11:36.518Z</time></trkpt><trkpt lat="42.8347511" lon="12.7571834"><ele>220.0</ele><time>2026-05-03T14:11:37.517Z</time></trkpt><trkpt lat="42.8345027" lon="12.7573556"><ele>220.0</ele><time>2026-05-03T14:11:38.519Z</time></trkpt><trkpt lat="42.8342566" lon="12.7575272"><ele>220.0</ele><time>2026-05-03T14:11:39.516Z</time></trkpt><trkpt lat="42.8340077" lon="12.7577005"><ele>220.0</ele><time>2026-05-03T14:11:40.513Z</time></trkpt><trkpt lat="42.8337586" lon="12.7578792"><ele>220.0</ele><time>2026-05-03T14:11:41.518Z</time></trkpt><trkpt lat="42.8335095" lon="12.7580543"><ele>220.0</ele><time>2026-05-03T14:11:42.518Z</time></trkpt><trkpt lat="42.8332614" lon="12.7582285"><ele>220.0</ele><time>2026-05-03T14:11:43.519Z</time></trkpt><trkpt lat="42.8330153" lon="12.7584069"><ele>220.0</ele><time>2026-05-03T14:11:44.517Z</time></trkpt><trkpt lat="42.8327681" lon="12.7585821"><ele>219.5</ele><time>2026-05-03T14:11:45.516Z</time></trkpt><trkpt lat="42.83252" lon="12.7587581"><ele>219.0</ele><time>2026-05-03T14:11:46.519Z</time></trkpt><trkpt lat="42.8322715" lon="12.758923"><ele>219.0</ele><time>2026-05-03T14:11:47.517Z</time></trkpt><trkpt lat="42.8320214" lon="12.759088"><ele>219.0</ele><time>2026-05-03T14:11:48.517Z</time></trkpt><trkpt lat="42.831767" lon="12.7592446"><ele>220.0</ele><time>2026-05-03T14:11:49.519Z</time></trkpt><trkpt lat="42.8315127" lon="12.7593976"><ele>221.0</ele><time>2026-05-03T14:11:50.518Z</time></trkpt><trkpt lat="42.8312547" lon="12.7595391"><ele>221.0</ele><time>2026-05-03T14:11:51.517Z</time></trkpt><trkpt lat="42.8309902" lon="12.7596763"><ele>221.0</ele><time>2026-05-03T14:11:52.518Z</time></trkpt><trkpt lat="42.8307246" lon="12.7598011"><ele>221.0</ele><time>2026-05-03T14:11:53.518Z</time></trkpt><trkpt lat="42.8304565" lon="12.7599128"><ele>221.0</ele><time>2026-05-03T14:11:54.507Z</time></trkpt><trkpt lat="42.8301844" lon="12.7600099"><ele>221.0</ele><time>2026-05-03T14:11:55.516Z</time></trkpt><trkpt lat="42.8299085" lon="12.760094"><ele>221.0</ele><time>2026-05-03T14:11:56.513Z</time></trkpt><trkpt lat="42.8296319" lon="12.7601692"><ele>221.0</ele><time>2026-05-03T14:11:57.516Z</time></trkpt><trkpt lat="42.8293528" lon="12.7602345"><ele>221.0</ele><time>2026-05-03T14:11:58.517Z</time></trkpt><trkpt lat="42.8290735" lon="12.7602886"><ele>221.5</ele><time>2026-05-03T14:11:59.519Z</time></trkpt><trkpt lat="42.8287919" lon="12.7603328"><ele>222.0</ele><time>2026-05-03T14:12:00.519Z</time></trkpt><trkpt lat="42.8285057" lon="12.7603654"><ele>222.0</ele><time>2026-05-03T14:12:01.516Z</time></trkpt><trkpt lat="42.8282204" lon="12.7603797"><ele>222.0</ele><time>2026-05-03T14:12:02.518Z</time></trkpt><trkpt lat="42.8279337" lon="12.7603846"><ele>222.0</ele><time>2026-05-03T14:12:03.516Z</time></trkpt><trkpt lat="42.8276503" lon="12.7603768"><ele>222.0</ele><time>2026-05-03T14:12:04.516Z</time></trkpt><trkpt lat="42.8273655" lon="12.7603711"><ele>223.0</ele><time>2026-05-03T14:12:05.517Z</time></trkpt><trkpt lat="42.8270777" lon="12.7603628"><ele>224.0</ele><time>2026-05-03T14:12:06.517Z</time></trkpt><trkpt lat="42.8268102" lon="12.7603487"><ele>224.5</ele><time>2026-05-03T14:12:07.521Z</time></trkpt><trkpt lat="42.8265264" lon="12.7603053"><ele>225.0</ele><time>2026-05-03T14:12:08.518Z</time></trkpt><trkpt lat="42.8262654" lon="12.7602709"><ele>225.0</ele><time>2026-05-03T14:12:09.517Z</time></trkpt><trkpt lat="42.8259972" lon="12.7602474"><ele>225.0</ele><time>2026-05-03T14:12:10.518Z</time></trkpt><trkpt lat="42.8257091" lon="12.7602245"><ele>224.5</ele><time>2026-05-03T14:12:11.518Z</time></trkpt><trkpt lat="42.8254436" lon="12.7601116"><ele>224.0</ele><time>2026-05-03T14:12:12.514Z</time></trkpt><trkpt lat="42.8251796" lon="12.7600476"><ele>223.5</ele><time>2026-05-03T14:12:13.518Z</time></trkpt><trkpt lat="42.8249213" lon="12.759959"><ele>223.0</ele><time>2026-05-03T14:12:14.518Z</time></trkpt><trkpt lat="42.8246605" lon="12.7598698"><ele>223.0</ele><time>2026-05-03T14:12:15.516Z</time></trkpt><trkpt lat="42.8244004" lon="12.7597797"><ele>223.0</ele><time>2026-05-03T14:12:16.517Z</time></trkpt><trkpt lat="42.8241399" lon="12.7596805"><ele>222.0</ele><time>2026-05-03T14:12:17.515Z</time></trkpt><trkpt lat="42.8238767" lon="12.7595668"><ele>221.0</ele><time>2026-05-03T14:12:18.516Z</time></trkpt><trkpt lat="42.8236165" lon="12.7594549"><ele>222.5</ele><time>2026-05-03T14:12:19.518Z</time></trkpt><trkpt lat="42.8233538" lon="12.7593313"><ele>224.0</ele><time>2026-05-03T14:12:20.515Z</time></trkpt><trkpt lat="42.8230963" lon="12.7592091"><ele>224.0</ele><time>2026-05-03T14:12:21.519Z</time></trkpt><trkpt lat="42.8228406" lon="12.7590894"><ele>224.0</ele><time>2026-05-03T14:12:22.517Z</time></trkpt><trkpt lat="42.8225892" lon="12.7589514"><ele>224.0</ele><time>2026-05-03T14:12:23.517Z</time></trkpt><trkpt lat="42.8223299" lon="12.7588239"><ele>224.0</ele><time>2026-05-03T14:12:24.517Z</time></trkpt><trkpt lat="42.8220791" lon="12.7586928"><ele>224.0</ele><time>2026-05-03T14:12:25.516Z</time></trkpt><trkpt lat="42.8218303" lon="12.7585823"><ele>224.0</ele><time>2026-05-03T14:12:26.518Z</time></trkpt><trkpt lat="42.8215805" lon="12.7584487"><ele>224.5</ele><time>2026-05-03T14:12:27.515Z</time></trkpt><trkpt lat="42.8213244" lon="12.7583271"><ele>225.0</ele><time>2026-05-03T14:12:28.516Z</time></trkpt><trkpt lat="42.821067" lon="12.7582142"><ele>225.5</ele><time>2026-05-03T14:12:29.521Z</time></trkpt><trkpt lat="42.8208057" lon="12.7581092"><ele>226.0</ele><time>2026-05-03T14:12:30.508Z</time></trkpt><trkpt lat="42.8205478" lon="12.7580227"><ele>226.0</ele><time>2026-05-03T14:12:31.519Z</time></trkpt><trkpt lat="42.8202816" lon="12.7579351"><ele>226.0</ele><time>2026-05-03T14:12:32.519Z</time></trkpt><trkpt lat="42.8200194" lon="12.7578576"><ele>226.0</ele><time>2026-05-03T14:12:33.517Z</time></trkpt><trkpt lat="42.819735" lon="12.7578047"><ele>226.0</ele><time>2026-05-03T14:12:34.516Z</time></trkpt><trkpt lat="42.8194576" lon="12.7577459"><ele>227.0</ele><time>2026-05-03T14:12:35.516Z</time></trkpt><trkpt lat="42.8191716" lon="12.757695"><ele>228.0</ele><time>2026-05-03T14:12:36.516Z</time></trkpt><trkpt lat="42.818885" lon="12.7576471"><ele>228.0</ele><time>2026-05-03T14:12:37.517Z</time></trkpt><trkpt lat="42.8186056" lon="12.7576075"><ele>228.0</ele><time>2026-05-03T14:12:38.518Z</time></trkpt><trkpt lat="42.8183204" lon="12.7575765"><ele>228.0</ele><time>2026-05-03T14:12:39.518Z</time></trkpt><trkpt lat="42.818036" lon="12.7575472"><ele>228.0</ele><time>2026-05-03T14:12:40.518Z</time></trkpt><trkpt lat="42.8177509" lon="12.7575197"><ele>228.0</ele><time>2026-05-03T14:12:41.518Z</time></trkpt><trkpt lat="42.817468" lon="12.7574923"><ele>228.0</ele><time>2026-05-03T14:12:42.518Z</time></trkpt><trkpt lat="42.8171897" lon="12.7574689"><ele>228.0</ele><time>2026-05-03T14:12:43.518Z</time></trkpt><trkpt lat="42.8169121" lon="12.7574616"><ele>228.0</ele><time>2026-05-03T14:12:44.516Z</time></trkpt><trkpt lat="42.8166299" lon="12.7574469"><ele>228.5</ele><time>2026-05-03T14:12:45.519Z</time></trkpt><trkpt lat="42.8163543" lon="12.7574338"><ele>229.0</ele><time>2026-05-03T14:12:46.518Z</time></trkpt><trkpt lat="42.8160771" lon="12.7574231"><ele>230.0</ele><time>2026-05-03T14:12:47.518Z</time></trkpt><trkpt lat="42.8158049" lon="12.7574193"><ele>231.0</ele><time>2026-05-03T14:12:48.509Z</time></trkpt><trkpt lat="42.8155259" lon="12.7574189"><ele>231.0</ele><time>2026-05-03T14:12:49.518Z</time></trkpt><trkpt lat="42.8152499" lon="12.7574262"><ele>231.0</ele><time>2026-05-03T14:12:50.516Z</time></trkpt><trkpt lat="42.8149757" lon="12.7574317"><ele>231.0</ele><time>2026-05-03T14:12:51.661Z</time></trkpt><trkpt lat="42.8144139" lon="12.7574423"><ele>231.0</ele><time>2026-05-03T14:12:53.518Z</time></trkpt><trkpt lat="42.8141368" lon="12.757451"><ele>231.0</ele><time>2026-05-03T14:12:54.515Z</time></trkpt><trkpt lat="42.8138561" lon="12.757462"><ele>231.0</ele><time>2026-05-03T14:12:55.518Z</time></trkpt><trkpt lat="42.8135758" lon="12.7574765"><ele>231.0</ele><time>2026-05-03T14:12:56.518Z</time></trkpt><trkpt lat="42.8132946" lon="12.7574972"><ele>231.0</ele><time>2026-05-03T14:12:57.518Z</time></trkpt><trkpt lat="42.8130169" lon="12.7575262"><ele>231.0</ele><time>2026-05-03T14:12:58.518Z</time></trkpt><trkpt lat="42.8127423" lon="12.7575624"><ele>232.5</ele><time>2026-05-03T14:12:59.518Z</time></trkpt><trkpt lat="42.8124653" lon="12.7576026"><ele>234.0</ele><time>2026-05-03T14:13:00.512Z</time></trkpt><trkpt lat="42.8121799" lon="12.7576234"><ele>234.0</ele><time>2026-05-03T14:13:01.52Z</time></trkpt><trkpt lat="42.811903" lon="12.7576969"><ele>234.0</ele><time>2026-05-03T14:13:02.509Z</time></trkpt><trkpt lat="42.8116202" lon="12.7577471"><ele>235.5</ele><time>2026-05-03T14:13:03.519Z</time></trkpt><trkpt lat="42.8113352" lon="12.7578351"><ele>237.0</ele><time>2026-05-03T14:13:04.52Z</time></trkpt><trkpt lat="42.8110549" lon="12.757912"><ele>238.5</ele><time>2026-05-03T14:13:05.519Z</time></trkpt><trkpt lat="42.8107745" lon="12.7579949"><ele>240.0</ele><time>2026-05-03T14:13:06.518Z</time></trkpt><trkpt lat="42.8104991" lon="12.7580773"><ele>240.0</ele><time>2026-05-03T14:13:07.519Z</time></trkpt><trkpt lat="42.8102228" lon="12.7581607"><ele>240.0</ele><time>2026-05-03T14:13:08.518Z</time></trkpt><trkpt lat="42.8099528" lon="12.7582507"><ele>241.5</ele><time>2026-05-03T14:13:09.519Z</time></trkpt><trkpt lat="42.8096833" lon="12.758353"><ele>243.0</ele><time>2026-05-03T14:13:10.517Z</time></trkpt><trkpt lat="42.8094173" lon="12.7584575"><ele>245.0</ele><time>2026-05-03T14:13:11.516Z</time></trkpt><trkpt lat="42.8091498" lon="12.7585684"><ele>247.0</ele><time>2026-05-03T14:13:12.517Z</time></trkpt><trkpt lat="42.8088861" lon="12.7586795"><ele>247.0</ele><time>2026-05-03T14:13:13.518Z</time></trkpt><trkpt lat="42.8086216" lon="12.7587917"><ele>247.0</ele><time>2026-05-03T14:13:14.519Z</time></trkpt><trkpt lat="42.8083569" lon="12.7589068"><ele>247.5</ele><time>2026-05-03T14:13:15.517Z</time></trkpt><trkpt lat="42.8080896" lon="12.7590241"><ele>248.0</ele><time>2026-05-03T14:13:16.515Z</time></trkpt><trkpt lat="42.8078215" lon="12.7591423"><ele>249.0</ele><time>2026-05-03T14:13:17.518Z</time></trkpt><trkpt lat="42.8075552" lon="12.7592643"><ele>250.0</ele><time>2026-05-03T14:13:18.515Z</time></trkpt><trkpt lat="42.8072901" lon="12.7593898"><ele>251.0</ele><time>2026-05-03T14:13:19.518Z</time></trkpt><trkpt lat="42.8070259" lon="12.7595144"><ele>252.0</ele><time>2026-05-03T14:13:20.519Z</time></trkpt><trkpt lat="42.8067599" lon="12.7596317"><ele>253.5</ele><time>2026-05-03T14:13:21.519Z</time></trkpt><trkpt lat="42.806488" lon="12.7597406"><ele>255.0</ele><time>2026-05-03T14:13:22.516Z</time></trkpt><trkpt lat="42.8062176" lon="12.7598429"><ele>256.0</ele><time>2026-05-03T14:13:23.517Z</time></trkpt><trkpt lat="42.8059435" lon="12.7599372"><ele>257.0</ele><time>2026-05-03T14:13:24.518Z</time></trkpt><trkpt lat="42.8056674" lon="12.7600237"><ele>257.0</ele><time>2026-05-03T14:13:25.517Z</time></trkpt><trkpt lat="42.8053887" lon="12.7600982"><ele>257.0</ele><time>2026-05-03T14:13:26.518Z</time></trkpt><trkpt lat="42.8051095" lon="12.7601652"><ele>259.0</ele><time>2026-05-03T14:13:27.519Z</time></trkpt><trkpt lat="42.8048301" lon="12.7602254"><ele>261.0</ele><time>2026-05-03T14:13:28.518Z</time></trkpt><trkpt lat="42.804551" lon="12.7602722"><ele>262.5</ele><time>2026-05-03T14:13:29.52Z</time></trkpt><trkpt lat="42.8042711" lon="12.7603103"><ele>264.0</ele><time>2026-05-03T14:13:30.519Z</time></trkpt><trkpt lat="42.8039907" lon="12.760344"><ele>264.0</ele><time>2026-05-03T14:13:31.519Z</time></trkpt><trkpt lat="42.8037103" lon="12.7603828"><ele>264.0</ele><time>2026-05-03T14:13:32.518Z</time></trkpt><trkpt lat="42.8034287" lon="12.7604226"><ele>265.0</ele><time>2026-05-03T14:13:33.52Z</time></trkpt><trkpt lat="42.8031486" lon="12.7604713"><ele>266.0</ele><time>2026-05-03T14:13:34.516Z</time></trkpt><trkpt lat="42.8028671" lon="12.7605291"><ele>267.0</ele><time>2026-05-03T14:13:35.519Z</time></trkpt><trkpt lat="42.8025883" lon="12.7605913"><ele>268.0</ele><time>2026-05-03T14:13:36.517Z</time></trkpt><trkpt lat="42.8023086" lon="12.7606595"><ele>268.0</ele><time>2026-05-03T14:13:37.518Z</time></trkpt><trkpt lat="42.8020349" lon="12.7607359"><ele>268.0</ele><time>2026-05-03T14:13:38.517Z</time></trkpt><trkpt lat="42.8017628" lon="12.7608205"><ele>269.0</ele><time>2026-05-03T14:13:39.516Z</time></trkpt><trkpt lat="42.8014906" lon="12.760907"><ele>270.0</ele><time>2026-05-03T14:13:40.52Z</time></trkpt><trkpt lat="42.8012198" lon="12.7609949"><ele>271.0</ele><time>2026-05-03T14:13:41.52Z</time></trkpt><trkpt lat="42.8009507" lon="12.7610846"><ele>272.0</ele><time>2026-05-03T14:13:42.516Z</time></trkpt><trkpt lat="42.8006792" lon="12.7611739"><ele>272.0</ele><time>2026-05-03T14:13:43.519Z</time></trkpt><trkpt lat="42.8004097" lon="12.7612609"><ele>272.0</ele><time>2026-05-03T14:13:44.517Z</time></trkpt><trkpt lat="42.8001403" lon="12.7613519"><ele>271.0</ele><time>2026-05-03T14:13:45.517Z</time></trkpt><trkpt lat="42.7998758" lon="12.7614363"><ele>270.0</ele><time>2026-05-03T14:13:46.522Z</time></trkpt><trkpt lat="42.7996058" lon="12.7615494"><ele>270.0</ele><time>2026-05-03T14:13:47.514Z</time></trkpt><trkpt lat="42.7993419" lon="12.7616471"><ele>270.0</ele><time>2026-05-03T14:13:48.518Z</time></trkpt><trkpt lat="42.7990939" lon="12.7617269"><ele>270.0</ele><time>2026-05-03T14:13:49.508Z</time></trkpt><trkpt lat="42.7988272" lon="12.761848"><ele>270.0</ele><time>2026-05-03T14:13:50.519Z</time></trkpt><trkpt lat="42.7985703" lon="12.7619454"><ele>273.5</ele><time>2026-05-03T14:13:51.516Z</time></trkpt><trkpt lat="42.7983167" lon="12.7620451"><ele>277.0</ele><time>2026-05-03T14:13:52.519Z</time></trkpt><trkpt lat="42.798063" lon="12.7621517"><ele>277.0</ele><time>2026-05-03T14:13:53.519Z</time></trkpt><trkpt lat="42.7978091" lon="12.7622596"><ele>277.0</ele><time>2026-05-03T14:13:54.517Z</time></trkpt><trkpt lat="42.7975541" lon="12.7623666"><ele>279.0</ele><time>2026-05-03T14:13:55.517Z</time></trkpt><trkpt lat="42.797301" lon="12.7624724"><ele>281.0</ele><time>2026-05-03T14:13:56.515Z</time></trkpt><trkpt lat="42.7970469" lon="12.7625876"><ele>281.0</ele><time>2026-05-03T14:13:57.51Z</time></trkpt><trkpt lat="42.7967917" lon="12.7626963"><ele>281.0</ele><time>2026-05-03T14:13:58.516Z</time></trkpt><trkpt lat="42.7965307" lon="12.7628026"><ele>282.0</ele><time>2026-05-03T14:13:59.519Z</time></trkpt><trkpt lat="42.7962696" lon="12.7629119"><ele>283.0</ele><time>2026-05-03T14:14:00.516Z</time></trkpt><trkpt lat="42.7960106" lon="12.7630161"><ele>281.5</ele><time>2026-05-03T14:14:01.517Z</time></trkpt><trkpt lat="42.7957544" lon="12.7631229"><ele>280.0</ele><time>2026-05-03T14:14:02.52Z</time></trkpt><trkpt lat="42.7954983" lon="12.763229"><ele>280.0</ele><time>2026-05-03T14:14:03.515Z</time></trkpt><trkpt lat="42.795241" lon="12.7633386"><ele>280.0</ele><time>2026-05-03T14:14:04.52Z</time></trkpt><trkpt lat="42.7949812" lon="12.7634448"><ele>281.5</ele><time>2026-05-03T14:14:05.516Z</time></trkpt><trkpt lat="42.7947207" lon="12.7635515"><ele>283.0</ele><time>2026-05-03T14:14:06.519Z</time></trkpt><trkpt lat="42.7944566" lon="12.7636632"><ele>283.5</ele><time>2026-05-03T14:14:07.518Z</time></trkpt><trkpt lat="42.7941895" lon="12.7637743"><ele>284.0</ele><time>2026-05-03T14:14:08.517Z</time></trkpt><trkpt lat="42.7939181" lon="12.7638898"><ele>284.0</ele><time>2026-05-03T14:14:09.516Z</time></trkpt><trkpt lat="42.7936478" lon="12.7640015"><ele>284.0</ele><time>2026-05-03T14:14:10.519Z</time></trkpt><trkpt lat="42.7933765" lon="12.764113"><ele>284.0</ele><time>2026-05-03T14:14:11.517Z</time></trkpt><trkpt lat="42.7931021" lon="12.764223"><ele>284.0</ele><time>2026-05-03T14:14:12.515Z</time></trkpt><trkpt lat="42.7928279" lon="12.7643327"><ele>286.5</ele><time>2026-05-03T14:14:13.517Z</time></trkpt><trkpt lat="42.7925645" lon="12.7644189"><ele>289.0</ele><time>2026-05-03T14:14:14.52Z</time></trkpt><trkpt lat="42.7922893" lon="12.7645162"><ele>289.0</ele><time>2026-05-03T14:14:15.52Z</time></trkpt><trkpt lat="42.7920291" lon="12.7646001"><ele>289.0</ele><time>2026-05-03T14:14:16.517Z</time></trkpt><trkpt lat="42.7917686" lon="12.7646958"><ele>289.5</ele><time>2026-05-03T14:14:17.519Z</time></trkpt><trkpt lat="42.7915154" lon="12.7647895"><ele>290.0</ele><time>2026-05-03T14:14:18.518Z</time></trkpt><trkpt lat="42.7912542" lon="12.7648876"><ele>288.5</ele><time>2026-05-03T14:14:19.519Z</time></trkpt><trkpt lat="42.7909969" lon="12.7649889"><ele>287.0</ele><time>2026-05-03T14:14:20.517Z</time></trkpt><trkpt lat="42.7907416" lon="12.7650905"><ele>287.0</ele><time>2026-05-03T14:14:21.514Z</time></trkpt><trkpt lat="42.7904862" lon="12.7651881"><ele>287.0</ele><time>2026-05-03T14:14:22.52Z</time></trkpt><trkpt lat="42.7902284" lon="12.7652849"><ele>287.5</ele><time>2026-05-03T14:14:23.516Z</time></trkpt><trkpt lat="42.78997" lon="12.7653863"><ele>288.0</ele><time>2026-05-03T14:14:24.516Z</time></trkpt><trkpt lat="42.7897083" lon="12.7654822"><ele>288.0</ele><time>2026-05-03T14:14:25.518Z</time></trkpt><trkpt lat="42.7894408" lon="12.7655781"><ele>288.0</ele><time>2026-05-03T14:14:26.519Z</time></trkpt><trkpt lat="42.789174" lon="12.765674"><ele>286.5</ele><time>2026-05-03T14:14:27.515Z</time></trkpt><trkpt lat="42.7889076" lon="12.7657687"><ele>285.0</ele><time>2026-05-03T14:14:28.518Z</time></trkpt><trkpt lat="42.7886408" lon="12.765858"><ele>283.5</ele><time>2026-05-03T14:14:29.516Z</time></trkpt><trkpt lat="42.7883708" lon="12.7659416"><ele>282.0</ele><time>2026-05-03T14:14:30.516Z</time></trkpt><trkpt lat="42.7881025" lon="12.766023"><ele>283.0</ele><time>2026-05-03T14:14:31.519Z</time></trkpt><trkpt lat="42.7878297" lon="12.7660929"><ele>284.0</ele><time>2026-05-03T14:14:32.516Z</time></trkpt><trkpt lat="42.787562" lon="12.7661636"><ele>284.0</ele><time>2026-05-03T14:14:33.517Z</time></trkpt><trkpt lat="42.7872915" lon="12.7662297"><ele>284.0</ele><time>2026-05-03T14:14:34.511Z</time></trkpt><trkpt lat="42.7870242" lon="12.7662922"><ele>282.0</ele><time>2026-05-03T14:14:35.52Z</time></trkpt><trkpt lat="42.7867579" lon="12.766348"><ele>280.0</ele><time>2026-05-03T14:14:36.512Z</time></trkpt><trkpt lat="42.7864899" lon="12.766398"><ele>280.0</ele><time>2026-05-03T14:14:37.518Z</time></trkpt><trkpt lat="42.7862174" lon="12.7664454"><ele>280.0</ele><time>2026-05-03T14:14:38.52Z</time></trkpt><trkpt lat="42.7859477" lon="12.7664913"><ele>280.0</ele><time>2026-05-03T14:14:39.516Z</time></trkpt><trkpt lat="42.7856809" lon="12.7665328"><ele>280.0</ele><time>2026-05-03T14:14:40.518Z</time></trkpt><trkpt lat="42.7854109" lon="12.7665696"><ele>277.5</ele><time>2026-05-03T14:14:41.519Z</time></trkpt><trkpt lat="42.7851428" lon="12.7666054"><ele>275.0</ele><time>2026-05-03T14:14:42.516Z</time></trkpt><trkpt lat="42.7848733" lon="12.7666327"><ele>275.0</ele><time>2026-05-03T14:14:43.516Z</time></trkpt><trkpt lat="42.7846046" lon="12.7666615"><ele>275.0</ele><time>2026-05-03T14:14:44.518Z</time></trkpt><trkpt lat="42.7843359" lon="12.7666828"><ele>275.5</ele><time>2026-05-03T14:14:45.519Z</time></trkpt><trkpt lat="42.784069" lon="12.7667072"><ele>276.0</ele><time>2026-05-03T14:14:46.518Z</time></trkpt><trkpt lat="42.783802" lon="12.7667231"><ele>276.0</ele><time>2026-05-03T14:14:47.518Z</time></trkpt><trkpt lat="42.7835358" lon="12.7667423"><ele>276.0</ele><time>2026-05-03T14:14:48.517Z</time></trkpt><trkpt lat="42.7832708" lon="12.7667625"><ele>276.5</ele><time>2026-05-03T14:14:49.52Z</time></trkpt><trkpt lat="42.7830038" lon="12.7667803"><ele>277.0</ele><time>2026-05-03T14:14:50.509Z</time></trkpt><trkpt lat="42.7827397" lon="12.7668113"><ele>273.0</ele><time>2026-05-03T14:14:51.638Z</time></trkpt><trkpt lat="42.7822056" lon="12.7668565"><ele>273.5</ele><time>2026-05-03T14:14:53.515Z</time></trkpt><trkpt lat="42.7819253" lon="12.7668978"><ele>274.0</ele><time>2026-05-03T14:14:54.514Z</time></trkpt><trkpt lat="42.7816614" lon="12.7669129"><ele>274.0</ele><time>2026-05-03T14:14:55.517Z</time></trkpt><trkpt lat="42.7813821" lon="12.7669937"><ele>274.0</ele><time>2026-05-03T14:14:56.518Z</time></trkpt><trkpt lat="42.781113" lon="12.7670648"><ele>273.5</ele><time>2026-05-03T14:14:57.516Z</time></trkpt><trkpt lat="42.7808416" lon="12.7671677"><ele>273.0</ele><time>2026-05-03T14:14:58.517Z</time></trkpt><trkpt lat="42.7805649" lon="12.7672921"><ele>273.0</ele><time>2026-05-03T14:14:59.519Z</time></trkpt><trkpt lat="42.7802857" lon="12.7674251"><ele>273.0</ele><time>2026-05-03T14:15:00.516Z</time></trkpt><trkpt lat="42.7800028" lon="12.7675648"><ele>274.5</ele><time>2026-05-03T14:15:01.517Z</time></trkpt><trkpt lat="42.7797306" lon="12.7677102"><ele>276.0</ele><time>2026-05-03T14:15:02.517Z</time></trkpt><trkpt lat="42.7794784" lon="12.7678718"><ele>276.0</ele><time>2026-05-03T14:15:03.519Z</time></trkpt><trkpt lat="42.7792327" lon="12.7680441"><ele>276.0</ele><time>2026-05-03T14:15:04.515Z</time></trkpt><trkpt lat="42.7790008" lon="12.7682308"><ele>276.0</ele><time>2026-05-03T14:15:05.517Z</time></trkpt><trkpt lat="42.7787732" lon="12.7684294"><ele>276.0</ele><time>2026-05-03T14:15:06.518Z</time></trkpt><trkpt lat="42.7785473" lon="12.7686345"><ele>275.5</ele><time>2026-05-03T14:15:07.515Z</time></trkpt><trkpt lat="42.7783239" lon="12.7688467"><ele>275.0</ele><time>2026-05-03T14:15:08.519Z</time></trkpt><trkpt lat="42.7780986" lon="12.7690597"><ele>275.0</ele><time>2026-05-03T14:15:09.516Z</time></trkpt><trkpt lat="42.7778734" lon="12.7692662"><ele>275.0</ele><time>2026-05-03T14:15:10.52Z</time></trkpt><trkpt lat="42.7776427" lon="12.7694649"><ele>276.5</ele><time>2026-05-03T14:15:11.517Z</time></trkpt><trkpt lat="42.7774117" lon="12.7696533"><ele>278.0</ele><time>2026-05-03T14:15:12.516Z</time></trkpt><trkpt lat="42.7771777" lon="12.7698352"><ele>278.0</ele><time>2026-05-03T14:15:13.516Z</time></trkpt><trkpt lat="42.7769428" lon="12.7699998"><ele>278.0</ele><time>2026-05-03T14:15:14.519Z</time></trkpt><trkpt lat="42.7767047" lon="12.7701469"><ele>279.5</ele><time>2026-05-03T14:15:15.519Z</time></trkpt><trkpt lat="42.7764677" lon="12.7702762"><ele>281.0</ele><time>2026-05-03T14:15:16.515Z</time></trkpt><trkpt lat="42.776229" lon="12.7703935"><ele>281.5</ele><time>2026-05-03T14:15:17.515Z</time></trkpt><trkpt lat="42.7759882" lon="12.7704954"><ele>282.0</ele><time>2026-05-03T14:15:18.516Z</time></trkpt><trkpt lat="42.7757513" lon="12.7706058"><ele>282.0</ele><time>2026-05-03T14:15:19.516Z</time></trkpt><trkpt lat="42.7755161" lon="12.770709"><ele>282.0</ele><time>2026-05-03T14:15:20.518Z</time></trkpt><trkpt lat="42.774763" lon="12.7710405"><ele>283.5</ele><time>2026-05-03T14:15:23.518Z</time></trkpt><trkpt lat="42.7744985" lon="12.7710695"><ele>285.0</ele><time>2026-05-03T14:15:24.511Z</time></trkpt><trkpt lat="42.7742088" lon="12.7709082"><ele>281.5</ele><time>2026-05-03T14:15:25.519Z</time></trkpt><trkpt lat="42.7739709" lon="12.7708543"><ele>278.0</ele><time>2026-05-03T14:15:26.518Z</time></trkpt><trkpt lat="42.7737281" lon="12.7708253"><ele>278.0</ele><time>2026-05-03T14:15:27.517Z</time></trkpt><trkpt lat="42.7734776" lon="12.7708185"><ele>278.0</ele><time>2026-05-03T14:15:28.518Z</time></trkpt><trkpt lat="42.7732205" lon="12.7707824"><ele>278.0</ele><time>2026-05-03T14:15:29.515Z</time></trkpt><trkpt lat="42.7729653" lon="12.7707361"><ele>278.0</ele><time>2026-05-03T14:15:30.509Z</time></trkpt><trkpt lat="42.7727176" lon="12.7706762"><ele>277.0</ele><time>2026-05-03T14:15:31.523Z</time></trkpt><trkpt lat="42.7724733" lon="12.77061"><ele>276.0</ele><time>2026-05-03T14:15:32.517Z</time></trkpt><trkpt lat="42.7722301" lon="12.7705397"><ele>276.0</ele><time>2026-05-03T14:15:33.518Z</time></trkpt><trkpt lat="42.7719873" lon="12.770473"><ele>276.0</ele><time>2026-05-03T14:15:34.518Z</time></trkpt><trkpt lat="42.771745" lon="12.7704111"><ele>275.0</ele><time>2026-05-03T14:15:35.518Z</time></trkpt><trkpt lat="42.7714995" lon="12.7703434"><ele>274.0</ele><time>2026-05-03T14:15:36.518Z</time></trkpt><trkpt lat="42.7712602" lon="12.7702718"><ele>274.0</ele><time>2026-05-03T14:15:37.519Z</time></trkpt><trkpt lat="42.7710248" lon="12.7702082"><ele>274.0</ele><time>2026-05-03T14:15:38.517Z</time></trkpt><trkpt lat="42.7707988" lon="12.7701423"><ele>273.66666666666663</ele><time>2026-05-03T14:15:39.515Z</time></trkpt><trkpt lat="42.7705832" lon="12.7700772"><ele>273.3333333333333</ele><time>2026-05-03T14:15:40.514Z</time></trkpt><trkpt lat="42.7703835" lon="12.7700076"><ele>273.0</ele><time>2026-05-03T14:15:41.519Z</time></trkpt><trkpt lat="42.7701864" lon="12.7699492"><ele>272.6666666666667</ele><time>2026-05-03T14:15:42.51Z</time></trkpt><trkpt lat="42.7699951" lon="12.7698817"><ele>272.33333333333337</ele><time>2026-05-03T14:15:43.518Z</time></trkpt><trkpt lat="42.7698002" lon="12.7698128"><ele>272.0</ele><time>2026-05-03T14:15:44.517Z</time></trkpt><trkpt lat="42.7696057" lon="12.7697465"><ele>272.0</ele><time>2026-05-03T14:15:45.517Z</time></trkpt><trkpt lat="42.7694111" lon="12.7696746"><ele>272.0</ele><time>2026-05-03T14:15:46.518Z</time></trkpt><trkpt lat="42.7692253" lon="12.7696032"><ele>272.0</ele><time>2026-05-03T14:15:47.517Z</time></trkpt><trkpt lat="42.7690415" lon="12.7695341"><ele>272.6666666666667</ele><time>2026-05-03T14:15:48.516Z</time></trkpt><trkpt lat="42.768874" lon="12.7694728"><ele>273.3333333333333</ele><time>2026-05-03T14:15:49.518Z</time></trkpt><trkpt lat="42.7687086" lon="12.7694019"><ele>274.0</ele><time>2026-05-03T14:15:50.518Z</time></trkpt><trkpt lat="42.7685435" lon="12.7693372"><ele>274.5</ele><time>2026-05-03T14:15:51.517Z</time></trkpt><trkpt lat="42.7684047" lon="12.7692872"><ele>275.0</ele><time>2026-05-03T14:15:52.515Z</time></trkpt><trkpt lat="42.7682706" lon="12.7692294"><ele>275.5</ele><time>2026-05-03T14:15:53.512Z</time></trkpt><trkpt lat="42.7681709" lon="12.7691785"><ele>276.0</ele><time>2026-05-03T14:15:54.518Z</time></trkpt><trkpt lat="42.7680756" lon="12.7691179"><ele>276.0</ele><time>2026-05-03T14:15:55.518Z</time></trkpt><trkpt lat="42.7679938" lon="12.7690419"><ele>276.0</ele><time>2026-05-03T14:15:56.518Z</time></trkpt><trkpt lat="42.7679184" lon="12.768959"><ele>276.0</ele><time>2026-05-03T14:15:57.518Z</time></trkpt><trkpt lat="42.7678508" lon="12.768866"><ele>276.0</ele><time>2026-05-03T14:15:58.517Z</time></trkpt><trkpt lat="42.7677949" lon="12.7687574"><ele>276.0</ele><time>2026-05-03T14:15:59.52Z</time></trkpt><trkpt lat="42.7677487" lon="12.7686389"><ele>276.0</ele><time>2026-05-03T14:16:00.518Z</time></trkpt><trkpt lat="42.767708" lon="12.7685124"><ele>276.0</ele><time>2026-05-03T14:16:01.515Z</time></trkpt><trkpt lat="42.7676771" lon="12.7683758"><ele>276.0</ele><time>2026-05-03T14:16:02.518Z</time></trkpt><trkpt lat="42.7676604" lon="12.7682192"><ele>276.0</ele><time>2026-05-03T14:16:03.517Z</time></trkpt><trkpt lat="42.7676489" lon="12.7680611"><ele>276.0</ele><time>2026-05-03T14:16:04.521Z</time></trkpt><trkpt lat="42.7676435" lon="12.7679083"><ele>275.75</ele><time>2026-05-03T14:16:05.516Z</time></trkpt><trkpt lat="42.7676302" lon="12.7677509"><ele>275.5</ele><time>2026-05-03T14:16:06.516Z</time></trkpt><trkpt lat="42.7676178" lon="12.767596"><ele>275.25</ele><time>2026-05-03T14:16:07.517Z</time></trkpt><trkpt lat="42.767603" lon="12.7674405"><ele>275.0</ele><time>2026-05-03T14:16:08.516Z</time></trkpt><trkpt lat="42.7675888" lon="12.7672848"><ele>275.0</ele><time>2026-05-03T14:16:09.514Z</time></trkpt><trkpt lat="42.767571" lon="12.7671301"><ele>275.0</ele><time>2026-05-03T14:16:10.518Z</time></trkpt><trkpt lat="42.7675717" lon="12.7669929"><ele>275.0</ele><time>2026-05-03T14:16:11.516Z</time></trkpt><trkpt lat="42.7675913" lon="12.7668448"><ele>275.0</ele><time>2026-05-03T14:16:12.506Z</time></trkpt><trkpt lat="42.7676423" lon="12.7667179"><ele>275.0</ele><time>2026-05-03T14:16:13.518Z</time></trkpt><trkpt lat="42.767712" lon="12.7666026"><ele>274.75</ele><time>2026-05-03T14:16:14.515Z</time></trkpt><trkpt lat="42.7678047" lon="12.7664933"><ele>274.5</ele><time>2026-05-03T14:16:15.518Z</time></trkpt><trkpt lat="42.7679003" lon="12.7663674"><ele>274.25</ele><time>2026-05-03T14:16:16.513Z</time></trkpt><trkpt lat="42.7679926" lon="12.766245"><ele>274.0</ele><time>2026-05-03T14:16:17.515Z</time></trkpt><trkpt lat="42.7680971" lon="12.7661059"><ele>273.66666666666663</ele><time>2026-05-03T14:16:18.517Z</time></trkpt><trkpt lat="42.7682313" lon="12.7659332"><ele>273.3333333333333</ele><time>2026-05-03T14:16:19.517Z</time></trkpt><trkpt lat="42.768341" lon="12.7657722"><ele>273.0</ele><time>2026-05-03T14:16:20.518Z</time></trkpt><trkpt lat="42.7684764" lon="12.7656073"><ele>272.6666666666667</ele><time>2026-05-03T14:16:21.518Z</time></trkpt><trkpt lat="42.7685996" lon="12.7654271"><ele>272.33333333333337</ele><time>2026-05-03T14:16:22.509Z</time></trkpt><trkpt lat="42.7687282" lon="12.7652376"><ele>272.0</ele><time>2026-05-03T14:16:23.517Z</time></trkpt><trkpt lat="42.7688505" lon="12.7650264"><ele>271.0</ele><time>2026-05-03T14:16:24.515Z</time></trkpt><trkpt lat="42.7689703" lon="12.764814"><ele>270.0</ele><time>2026-05-03T14:16:25.518Z</time></trkpt><trkpt lat="42.7690911" lon="12.7645911"><ele>269.0</ele><time>2026-05-03T14:16:26.516Z</time></trkpt><trkpt lat="42.7692086" lon="12.7643515"><ele>267.6666666666667</ele><time>2026-05-03T14:16:27.517Z</time></trkpt><trkpt lat="42.7693251" lon="12.764114"><ele>266.3333333333333</ele><time>2026-05-03T14:16:28.514Z</time></trkpt><trkpt lat="42.7694358" lon="12.7638785"><ele>265.0</ele><time>2026-05-03T14:16:29.518Z</time></trkpt><trkpt lat="42.7695502" lon="12.7636409"><ele>263.0</ele><time>2026-05-03T14:16:30.509Z</time></trkpt><trkpt lat="42.7696598" lon="12.7634123"><ele>261.0</ele><time>2026-05-03T14:16:31.518Z</time></trkpt><trkpt lat="42.7697733" lon="12.7631791"><ele>259.0</ele><time>2026-05-03T14:16:32.517Z</time></trkpt><trkpt lat="42.7698759" lon="12.7629471"><ele>259.0</ele><time>2026-05-03T14:16:33.515Z</time></trkpt><trkpt lat="42.7699729" lon="12.7627236"><ele>259.0</ele><time>2026-05-03T14:16:34.516Z</time></trkpt><trkpt lat="42.7700769" lon="12.7624976"><ele>259.0</ele><time>2026-05-03T14:16:35.517Z</time></trkpt><trkpt lat="42.7701792" lon="12.7622702"><ele>259.0</ele><time>2026-05-03T14:16:36.515Z</time></trkpt><trkpt lat="42.7702819" lon="12.7620354"><ele>259.0</ele><time>2026-05-03T14:16:37.516Z</time></trkpt><trkpt lat="42.770384" lon="12.7617982"><ele>259.0</ele><time>2026-05-03T14:16:38.515Z</time></trkpt><trkpt lat="42.7704849" lon="12.7615637"><ele>259.0</ele><time>2026-05-03T14:16:39.515Z</time></trkpt><trkpt lat="42.7705898" lon="12.7613229"><ele>259.0</ele><time>2026-05-03T14:16:40.517Z</time></trkpt><trkpt lat="42.7706959" lon="12.7610828"><ele>259.0</ele><time>2026-05-03T14:16:41.516Z</time></trkpt><trkpt lat="42.7708054" lon="12.7608355"><ele>259.0</ele><time>2026-05-03T14:16:42.519Z</time></trkpt><trkpt lat="42.770917" lon="12.7605864"><ele>259.0</ele><time>2026-05-03T14:16:43.519Z</time></trkpt><trkpt lat="42.7710263" lon="12.7603399"><ele>259.0</ele><time>2026-05-03T14:16:44.517Z</time></trkpt><trkpt lat="42.7711322" lon="12.7600974"><ele>257.66666666666663</ele><time>2026-05-03T14:16:45.516Z</time></trkpt><trkpt lat="42.771236" lon="12.759857"><ele>256.3333333333333</ele><time>2026-05-03T14:16:46.512Z</time></trkpt><trkpt lat="42.7713387" lon="12.7596129"><ele>255.0</ele><time>2026-05-03T14:16:47.519Z</time></trkpt><trkpt lat="42.7714401" lon="12.7593718"><ele>254.66666666666669</ele><time>2026-05-03T14:16:48.517Z</time></trkpt><trkpt lat="42.7715273" lon="12.7591598"><ele>254.33333333333334</ele><time>2026-05-03T14:16:49.516Z</time></trkpt><trkpt lat="42.7716012" lon="12.7589601"><ele>254.0</ele><time>2026-05-03T14:16:50.519Z</time></trkpt><trkpt lat="42.7716861" lon="12.7587411"><ele>253.66666666666669</ele><time>2026-05-03T14:16:51.518Z</time></trkpt><trkpt lat="42.7717712" lon="12.7585119"><ele>253.33333333333331</ele><time>2026-05-03T14:16:52.516Z</time></trkpt><trkpt lat="42.7718555" lon="12.7582891"><ele>253.0</ele><time>2026-05-03T14:16:53.517Z</time></trkpt><trkpt lat="42.7719311" lon="12.7580496"><ele>253.66666666666666</ele><time>2026-05-03T14:16:54.515Z</time></trkpt><trkpt lat="42.7720077" lon="12.7578162"><ele>254.33333333333331</ele><time>2026-05-03T14:16:55.519Z</time></trkpt><trkpt lat="42.7720771" lon="12.7575719"><ele>255.0</ele><time>2026-05-03T14:16:56.518Z</time></trkpt><trkpt lat="42.7721433" lon="12.7573173"><ele>255.0</ele><time>2026-05-03T14:16:57.517Z</time></trkpt><trkpt lat="42.7722078" lon="12.7570537"><ele>255.0</ele><time>2026-05-03T14:16:58.516Z</time></trkpt><trkpt lat="42.7722637" lon="12.7567856"><ele>255.0</ele><time>2026-05-03T14:16:59.517Z</time></trkpt><trkpt lat="42.7723173" lon="12.7565121"><ele>255.0</ele><time>2026-05-03T14:17:00.515Z</time></trkpt><trkpt lat="42.7723665" lon="12.7562418"><ele>255.0</ele><time>2026-05-03T14:17:01.52Z</time></trkpt><trkpt lat="42.7724109" lon="12.755966"><ele>255.0</ele><time>2026-05-03T14:17:02.515Z</time></trkpt><trkpt lat="42.772442" lon="12.7556885"><ele>255.0</ele><time>2026-05-03T14:17:03.517Z</time></trkpt><trkpt lat="42.7724653" lon="12.7554149"><ele>255.0</ele><time>2026-05-03T14:17:04.519Z</time></trkpt><trkpt lat="42.7724906" lon="12.7551461"><ele>255.0</ele><time>2026-05-03T14:17:05.517Z</time></trkpt><trkpt lat="42.7725065" lon="12.7548786"><ele>255.0</ele><time>2026-05-03T14:17:06.519Z</time></trkpt><trkpt lat="42.7725185" lon="12.7546105"><ele>255.0</ele><time>2026-05-03T14:17:07.517Z</time></trkpt><trkpt lat="42.7725268" lon="12.7543446"><ele>255.0</ele><time>2026-05-03T14:17:08.517Z</time></trkpt><trkpt lat="42.7725282" lon="12.7540828"><ele>255.0</ele><time>2026-05-03T14:17:09.518Z</time></trkpt><trkpt lat="42.7725256" lon="12.7538236"><ele>255.0</ele><time>2026-05-03T14:17:10.518Z</time></trkpt><trkpt lat="42.7725192" lon="12.7535647"><ele>255.0</ele><time>2026-05-03T14:17:11.516Z</time></trkpt><trkpt lat="42.7725149" lon="12.7533042"><ele>255.0</ele><time>2026-05-03T14:17:12.52Z</time></trkpt><trkpt lat="42.7724972" lon="12.7530386"><ele>255.0</ele><time>2026-05-03T14:17:13.516Z</time></trkpt><trkpt lat="42.7724756" lon="12.7527636"><ele>255.0</ele><time>2026-05-03T14:17:14.517Z</time></trkpt><trkpt lat="42.7724442" lon="12.752465"><ele>255.0</ele><time>2026-05-03T14:17:15.518Z</time></trkpt><trkpt lat="42.7724206" lon="12.7521721"><ele>255.0</ele><time>2026-05-03T14:17:16.514Z</time></trkpt><trkpt lat="42.7723936" lon="12.7518745"><ele>255.0</ele><time>2026-05-03T14:17:17.515Z</time></trkpt><trkpt lat="42.7723643" lon="12.7515702"><ele>254.5</ele><time>2026-05-03T14:17:18.513Z</time></trkpt><trkpt lat="42.7723365" lon="12.751263"><ele>254.0</ele><time>2026-05-03T14:17:19.52Z</time></trkpt><trkpt lat="42.7723109" lon="12.7509577"><ele>253.0</ele><time>2026-05-03T14:17:20.516Z</time></trkpt><trkpt lat="42.7722827" lon="12.7506512"><ele>252.0</ele><time>2026-05-03T14:17:21.518Z</time></trkpt><trkpt lat="42.7722594" lon="12.7503565"><ele>251.0</ele><time>2026-05-03T14:17:22.519Z</time></trkpt><trkpt lat="42.7722339" lon="12.7500624"><ele>250.66666666666669</ele><time>2026-05-03T14:17:23.519Z</time></trkpt><trkpt lat="42.7722078" lon="12.7497787"><ele>250.33333333333331</ele><time>2026-05-03T14:17:24.517Z</time></trkpt><trkpt lat="42.7721816" lon="12.7494981"><ele>250.0</ele><time>2026-05-03T14:17:25.517Z</time></trkpt><trkpt lat="42.7721563" lon="12.7492125"><ele>250.0</ele><time>2026-05-03T14:17:26.515Z</time></trkpt><trkpt lat="42.7721198" lon="12.7489194"><ele>250.0</ele><time>2026-05-03T14:17:27.519Z</time></trkpt><trkpt lat="42.7720996" lon="12.7486452"><ele>250.0</ele><time>2026-05-03T14:17:28.516Z</time></trkpt><trkpt lat="42.7720738" lon="12.7483627"><ele>250.0</ele><time>2026-05-03T14:17:29.519Z</time></trkpt><trkpt lat="42.7720419" lon="12.7480713"><ele>250.0</ele><time>2026-05-03T14:17:30.519Z</time></trkpt><trkpt lat="42.7720175" lon="12.7477856"><ele>250.0</ele><time>2026-05-03T14:17:31.519Z</time></trkpt><trkpt lat="42.7719953" lon="12.7475016"><ele>249.33333333333331</ele><time>2026-05-03T14:17:32.515Z</time></trkpt><trkpt lat="42.7719661" lon="12.7472169"><ele>248.66666666666669</ele><time>2026-05-03T14:17:33.516Z</time></trkpt><trkpt lat="42.7719399" lon="12.7469314"><ele>248.0</ele><time>2026-05-03T14:17:34.517Z</time></trkpt><trkpt lat="42.771913" lon="12.7466527"><ele>247.33333333333334</ele><time>2026-05-03T14:17:35.518Z</time></trkpt><trkpt lat="42.7718884" lon="12.7463826"><ele>246.66666666666669</ele><time>2026-05-03T14:17:36.518Z</time></trkpt><trkpt lat="42.7718645" lon="12.7461057"><ele>246.0</ele><time>2026-05-03T14:17:37.519Z</time></trkpt><trkpt lat="42.7718383" lon="12.7458413"><ele>247.33333333333331</ele><time>2026-05-03T14:17:38.517Z</time></trkpt><trkpt lat="42.7718126" lon="12.7455775"><ele>248.66666666666666</ele><time>2026-05-03T14:17:39.519Z</time></trkpt><trkpt lat="42.7717863" lon="12.7453102"><ele>250.0</ele><time>2026-05-03T14:17:40.516Z</time></trkpt><trkpt lat="42.7717623" lon="12.7450545"><ele>249.66666666666666</ele><time>2026-05-03T14:17:41.518Z</time></trkpt><trkpt lat="42.7717374" lon="12.7448061"><ele>249.33333333333331</ele><time>2026-05-03T14:17:42.512Z</time></trkpt><trkpt lat="42.7717131" lon="12.744556"><ele>249.0</ele><time>2026-05-03T14:17:43.519Z</time></trkpt><trkpt lat="42.7716889" lon="12.7443101"><ele>249.0</ele><time>2026-05-03T14:17:44.518Z</time></trkpt><trkpt lat="42.7716692" lon="12.7440566"><ele>249.0</ele><time>2026-05-03T14:17:45.518Z</time></trkpt><trkpt lat="42.7716506" lon="12.7437982"><ele>249.0</ele><time>2026-05-03T14:17:46.515Z</time></trkpt><trkpt lat="42.7716315" lon="12.7435386"><ele>249.0</ele><time>2026-05-03T14:17:47.518Z</time></trkpt><trkpt lat="42.7716073" lon="12.7432716"><ele>249.0</ele><time>2026-05-03T14:17:48.519Z</time></trkpt><trkpt lat="42.7715802" lon="12.7429962"><ele>249.0</ele><time>2026-05-03T14:17:49.514Z</time></trkpt><trkpt lat="42.7715531" lon="12.742713"><ele>249.0</ele><time>2026-05-03T14:17:50.518Z</time></trkpt><trkpt lat="42.7715256" lon="12.7424309"><ele>249.0</ele><time>2026-05-03T14:17:51.514Z</time></trkpt><trkpt lat="42.7714931" lon="12.7421447"><ele>249.0</ele><time>2026-05-03T14:17:52.518Z</time></trkpt><trkpt lat="42.7714639" lon="12.7418547"><ele>248.66666666666669</ele><time>2026-05-03T14:17:53.518Z</time></trkpt><trkpt lat="42.7714332" lon="12.7415652"><ele>248.33333333333334</ele><time>2026-05-03T14:17:54.518Z</time></trkpt><trkpt lat="42.7714092" lon="12.7412741"><ele>248.0</ele><time>2026-05-03T14:17:55.518Z</time></trkpt><trkpt lat="42.7713848" lon="12.7409822"><ele>248.0</ele><time>2026-05-03T14:17:56.518Z</time></trkpt><trkpt lat="42.7713555" lon="12.7406848"><ele>248.0</ele><time>2026-05-03T14:17:57.509Z</time></trkpt><trkpt lat="42.7713299" lon="12.7403917"><ele>248.0</ele><time>2026-05-03T14:17:58.519Z</time></trkpt><trkpt lat="42.7713026" lon="12.7400983"><ele>248.0</ele><time>2026-05-03T14:17:59.519Z</time></trkpt><trkpt lat="42.7712769" lon="12.7398099"><ele>248.0</ele><time>2026-05-03T14:18:00.517Z</time></trkpt><trkpt lat="42.7712508" lon="12.7395286"><ele>248.0</ele><time>2026-05-03T14:18:01.518Z</time></trkpt><trkpt lat="42.7712237" lon="12.7392449"><ele>248.0</ele><time>2026-05-03T14:18:02.52Z</time></trkpt><trkpt lat="42.7711976" lon="12.7389642"><ele>248.0</ele><time>2026-05-03T14:18:03.516Z</time></trkpt><trkpt lat="42.7711753" lon="12.7386859"><ele>248.0</ele><time>2026-05-03T14:18:04.518Z</time></trkpt><trkpt lat="42.7711487" lon="12.738412"><ele>249.66666666666669</ele><time>2026-05-03T14:18:05.515Z</time></trkpt><trkpt lat="42.7711179" lon="12.7381371"><ele>251.33333333333331</ele><time>2026-05-03T14:18:06.521Z</time></trkpt><trkpt lat="42.771095" lon="12.7378567"><ele>253.0</ele><time>2026-05-03T14:18:07.522Z</time></trkpt><trkpt lat="42.7710673" lon="12.7375754"><ele>254.33333333333331</ele><time>2026-05-03T14:18:08.519Z</time></trkpt><trkpt lat="42.7710404" lon="12.7373019"><ele>255.66666666666669</ele><time>2026-05-03T14:18:09.517Z</time></trkpt><trkpt lat="42.7710169" lon="12.73703"><ele>257.0</ele><time>2026-05-03T14:18:10.519Z</time></trkpt><trkpt lat="42.770991" lon="12.7367594"><ele>259.6666666666667</ele><time>2026-05-03T14:18:11.517Z</time></trkpt><trkpt lat="42.7709707" lon="12.7365354"><ele>262.3333333333333</ele><time>2026-05-03T14:18:12.516Z</time></trkpt><trkpt lat="42.7709504" lon="12.7362814"><ele>265.0</ele><time>2026-05-03T14:18:13.518Z</time></trkpt><trkpt lat="42.7709303" lon="12.736095"><ele>268.66666666666663</ele><time>2026-05-03T14:18:14.518Z</time></trkpt><trkpt lat="42.7709157" lon="12.7358884"><ele>272.3333333333333</ele><time>2026-05-03T14:18:15.518Z</time></trkpt><trkpt lat="42.7708934" lon="12.7356762"><ele>276.0</ele><time>2026-05-03T14:18:16.516Z</time></trkpt><trkpt lat="42.7708748" lon="12.7354796"><ele>276.0</ele><time>2026-05-03T14:18:17.518Z</time></trkpt><trkpt lat="42.7708565" lon="12.7352809"><ele>276.0</ele><time>2026-05-03T14:18:18.519Z</time></trkpt><trkpt lat="42.7707073" lon="12.734601"><ele>274.0</ele><time>2026-05-03T14:18:21.516Z</time></trkpt><trkpt lat="42.7706907" lon="12.7343869"><ele>272.0</ele><time>2026-05-03T14:18:22.518Z</time></trkpt><trkpt lat="42.7706341" lon="12.7341745"><ele>270.0</ele><time>2026-05-03T14:18:23.517Z</time></trkpt><trkpt lat="42.770577" lon="12.733974"><ele>270.0</ele><time>2026-05-03T14:18:24.516Z</time></trkpt><trkpt lat="42.7705177" lon="12.7337727"><ele>270.0</ele><time>2026-05-03T14:18:25.518Z</time></trkpt><trkpt lat="42.7704492" lon="12.7335728"><ele>270.0</ele><time>2026-05-03T14:18:26.517Z</time></trkpt><trkpt lat="42.7703717" lon="12.7333778"><ele>267.6666666666667</ele><time>2026-05-03T14:18:27.518Z</time></trkpt><trkpt lat="42.7702894" lon="12.7331862"><ele>265.33333333333337</ele><time>2026-05-03T14:18:28.518Z</time></trkpt><trkpt lat="42.7702043" lon="12.7330022"><ele>263.0</ele><time>2026-05-03T14:18:29.518Z</time></trkpt><trkpt lat="42.7701135" lon="12.7328085"><ele>262.33333333333337</ele><time>2026-05-03T14:18:30.519Z</time></trkpt><trkpt lat="42.7700145" lon="12.732618"><ele>261.6666666666667</ele><time>2026-05-03T14:18:31.518Z</time></trkpt><trkpt lat="42.7699172" lon="12.7324261"><ele>261.0</ele><time>2026-05-03T14:18:32.517Z</time></trkpt><trkpt lat="42.7697881" lon="12.732242"><ele>261.0</ele><time>2026-05-03T14:18:33.517Z</time></trkpt><trkpt lat="42.7696759" lon="12.7320534"><ele>261.0</ele><time>2026-05-03T14:18:34.516Z</time></trkpt><trkpt lat="42.7695348" lon="12.7318529"><ele>261.0</ele><time>2026-05-03T14:18:35.515Z</time></trkpt><trkpt lat="42.7693702" lon="12.7316685"><ele>262.0</ele><time>2026-05-03T14:18:36.517Z</time></trkpt><trkpt lat="42.769214" lon="12.7314735"><ele>263.0</ele><time>2026-05-03T14:18:37.519Z</time></trkpt><trkpt lat="42.7690586" lon="12.73129"><ele>264.0</ele><time>2026-05-03T14:18:38.518Z</time></trkpt><trkpt lat="42.7688949" lon="12.7311049"><ele>264.0</ele><time>2026-05-03T14:18:39.519Z</time></trkpt><trkpt lat="42.7687177" lon="12.7309321"><ele>264.0</ele><time>2026-05-03T14:18:40.518Z</time></trkpt><trkpt lat="42.768559" lon="12.7307372"><ele>264.0</ele><time>2026-05-03T14:18:41.515Z</time></trkpt><trkpt lat="42.7684004" lon="12.7305522"><ele>264.0</ele><time>2026-05-03T14:18:42.518Z</time></trkpt><trkpt lat="42.7682442" lon="12.7303799"><ele>264.0</ele><time>2026-05-03T14:18:43.519Z</time></trkpt><trkpt lat="42.7680908" lon="12.7302121"><ele>264.0</ele><time>2026-05-03T14:18:44.518Z</time></trkpt><trkpt lat="42.7679461" lon="12.7300465"><ele>264.3333333333333</ele><time>2026-05-03T14:18:45.517Z</time></trkpt><trkpt lat="42.7678022" lon="12.7298879"><ele>264.66666666666663</ele><time>2026-05-03T14:18:46.518Z</time></trkpt><trkpt lat="42.7676643" lon="12.7297368"><ele>265.0</ele><time>2026-05-03T14:18:47.519Z</time></trkpt><trkpt lat="42.767522" lon="12.7295839"><ele>265.0</ele><time>2026-05-03T14:18:48.519Z</time></trkpt><trkpt lat="42.767376" lon="12.729421"><ele>265.0</ele><time>2026-05-03T14:18:49.518Z</time></trkpt><trkpt lat="42.7672499" lon="12.7292675"><ele>265.0</ele><time>2026-05-03T14:18:50.518Z</time></trkpt><trkpt lat="42.7671106" lon="12.7291011"><ele>264.66666666666663</ele><time>2026-05-03T14:18:51.518Z</time></trkpt><trkpt lat="42.7669733" lon="12.7289317"><ele>264.3333333333333</ele><time>2026-05-03T14:18:52.509Z</time></trkpt><trkpt lat="42.7668348" lon="12.7287657"><ele>264.0</ele><time>2026-05-03T14:18:53.518Z</time></trkpt><trkpt lat="42.7666982" lon="12.7285965"><ele>264.6666666666667</ele><time>2026-05-03T14:18:54.511Z</time></trkpt><trkpt lat="42.7665684" lon="12.7284268"><ele>265.33333333333337</ele><time>2026-05-03T14:18:55.517Z</time></trkpt><trkpt lat="42.7664357" lon="12.7282564"><ele>266.0</ele><time>2026-05-03T14:18:56.519Z</time></trkpt><trkpt lat="42.7663029" lon="12.7280793"><ele>266.0</ele><time>2026-05-03T14:18:57.515Z</time></trkpt><trkpt lat="42.7661757" lon="12.7278978"><ele>266.0</ele><time>2026-05-03T14:18:58.518Z</time></trkpt><trkpt lat="42.766045" lon="12.7277156"><ele>266.0</ele><time>2026-05-03T14:18:59.519Z</time></trkpt><trkpt lat="42.7659139" lon="12.7275238"><ele>266.6666666666667</ele><time>2026-05-03T14:19:00.515Z</time></trkpt><trkpt lat="42.7657811" lon="12.7273311"><ele>267.3333333333333</ele><time>2026-05-03T14:19:01.515Z</time></trkpt><trkpt lat="42.7656556" lon="12.7271483"><ele>268.0</ele><time>2026-05-03T14:19:02.514Z</time></trkpt><trkpt lat="42.7655128" lon="12.7269325"><ele>268.0</ele><time>2026-05-03T14:19:03.517Z</time></trkpt><trkpt lat="42.7653791" lon="12.7267213"><ele>268.0</ele><time>2026-05-03T14:19:04.517Z</time></trkpt><trkpt lat="42.7652396" lon="12.7265109"><ele>268.0</ele><time>2026-05-03T14:19:05.515Z</time></trkpt><trkpt lat="42.7650991" lon="12.7263014"><ele>268.3333333333333</ele><time>2026-05-03T14:19:06.515Z</time></trkpt><trkpt lat="42.7649619" lon="12.7260968"><ele>268.6666666666667</ele><time>2026-05-03T14:19:07.516Z</time></trkpt><trkpt lat="42.7648269" lon="12.7258925"><ele>269.0</ele><time>2026-05-03T14:19:08.514Z</time></trkpt><trkpt lat="42.7646964" lon="12.7256916"><ele>269.0</ele><time>2026-05-03T14:19:09.516Z</time></trkpt><trkpt lat="42.7645548" lon="12.7254903"><ele>269.0</ele><time>2026-05-03T14:19:10.517Z</time></trkpt><trkpt lat="42.7644359" lon="12.7252913"><ele>269.0</ele><time>2026-05-03T14:19:11.518Z</time></trkpt><trkpt lat="42.7643051" lon="12.7250975"><ele>269.33333333333337</ele><time>2026-05-03T14:19:12.515Z</time></trkpt><trkpt lat="42.7641807" lon="12.7249091"><ele>269.6666666666667</ele><time>2026-05-03T14:19:13.517Z</time></trkpt><trkpt lat="42.7640545" lon="12.724711"><ele>270.0</ele><time>2026-05-03T14:19:14.516Z</time></trkpt><trkpt lat="42.7639217" lon="12.7245101"><ele>270.0</ele><time>2026-05-03T14:19:15.516Z</time></trkpt><trkpt lat="42.7637954" lon="12.7243071"><ele>270.0</ele><time>2026-05-03T14:19:16.516Z</time></trkpt><trkpt lat="42.7636634" lon="12.7241127"><ele>270.0</ele><time>2026-05-03T14:19:17.515Z</time></trkpt><trkpt lat="42.7635346" lon="12.723919"><ele>270.0</ele><time>2026-05-03T14:19:18.509Z</time></trkpt><trkpt lat="42.7634047" lon="12.7237237"><ele>270.0</ele><time>2026-05-03T14:19:19.515Z</time></trkpt><trkpt lat="42.7632806" lon="12.72353"><ele>270.0</ele><time>2026-05-03T14:19:20.516Z</time></trkpt><trkpt lat="42.7631535" lon="12.7233359"><ele>270.0</ele><time>2026-05-03T14:19:21.66Z</time></trkpt><trkpt lat="42.7629001" lon="12.7229599"><ele>270.0</ele><time>2026-05-03T14:19:23.517Z</time></trkpt><trkpt lat="42.7627788" lon="12.722778"><ele>269.3333333333333</ele><time>2026-05-03T14:19:24.513Z</time></trkpt><trkpt lat="42.7626627" lon="12.7225982"><ele>268.66666666666663</ele><time>2026-05-03T14:19:25.518Z</time></trkpt><trkpt lat="42.762539" lon="12.7224172"><ele>268.0</ele><time>2026-05-03T14:19:26.508Z</time></trkpt><trkpt lat="42.7624207" lon="12.7222445"><ele>268.0</ele><time>2026-05-03T14:19:27.515Z</time></trkpt><trkpt lat="42.7623021" lon="12.7220641"><ele>268.0</ele><time>2026-05-03T14:19:28.518Z</time></trkpt><trkpt lat="42.7621807" lon="12.7218824"><ele>268.0</ele><time>2026-05-03T14:19:29.517Z</time></trkpt><trkpt lat="42.7620516" lon="12.7216949"><ele>267.66666666666663</ele><time>2026-05-03T14:19:30.517Z</time></trkpt><trkpt lat="42.7619215" lon="12.7215035"><ele>267.3333333333333</ele><time>2026-05-03T14:19:31.519Z</time></trkpt><trkpt lat="42.7617861" lon="12.7213159"><ele>267.0</ele><time>2026-05-03T14:19:32.516Z</time></trkpt><trkpt lat="42.7616539" lon="12.7211287"><ele>268.3333333333333</ele><time>2026-05-03T14:19:33.514Z</time></trkpt><trkpt lat="42.7615186" lon="12.7209454"><ele>269.66666666666663</ele><time>2026-05-03T14:19:34.519Z</time></trkpt><trkpt lat="42.7613851" lon="12.72077"><ele>271.0</ele><time>2026-05-03T14:19:35.519Z</time></trkpt><trkpt lat="42.7612507" lon="12.7205991"><ele>271.0</ele><time>2026-05-03T14:19:36.518Z</time></trkpt><trkpt lat="42.7611192" lon="12.7204298"><ele>271.0</ele><time>2026-05-03T14:19:37.515Z</time></trkpt><trkpt lat="42.7609825" lon="12.7202676"><ele>271.0</ele><time>2026-05-03T14:19:38.519Z</time></trkpt><trkpt lat="42.7608444" lon="12.7201032"><ele>272.3333333333333</ele><time>2026-05-03T14:19:39.519Z</time></trkpt><trkpt lat="42.7606988" lon="12.7199313"><ele>273.6666666666667</ele><time>2026-05-03T14:19:40.518Z</time></trkpt><trkpt lat="42.7605294" lon="12.7197494"><ele>275.0</ele><time>2026-05-03T14:19:41.516Z</time></trkpt><trkpt lat="42.7603471" lon="12.7195479"><ele>274.0</ele><time>2026-05-03T14:19:42.509Z</time></trkpt><trkpt lat="42.7601559" lon="12.7193368"><ele>273.0</ele><time>2026-05-03T14:19:43.517Z</time></trkpt><trkpt lat="42.7599579" lon="12.7191116"><ele>273.0</ele><time>2026-05-03T14:19:44.515Z</time></trkpt><trkpt lat="42.7597605" lon="12.7189008"><ele>273.0</ele><time>2026-05-03T14:19:45.517Z</time></trkpt><trkpt lat="42.7595537" lon="12.7186807"><ele>272.0</ele><time>2026-05-03T14:19:46.517Z</time></trkpt><trkpt lat="42.7593465" lon="12.7184584"><ele>271.0</ele><time>2026-05-03T14:19:47.516Z</time></trkpt><trkpt lat="42.759136" lon="12.7182334"><ele>271.0</ele><time>2026-05-03T14:19:48.516Z</time></trkpt><trkpt lat="42.7589232" lon="12.7180054"><ele>271.0</ele><time>2026-05-03T14:19:49.517Z</time></trkpt><trkpt lat="42.7587105" lon="12.7177788"><ele>271.0</ele><time>2026-05-03T14:19:50.517Z</time></trkpt><trkpt lat="42.7585" lon="12.7175485"><ele>271.0</ele><time>2026-05-03T14:19:51.516Z</time></trkpt><trkpt lat="42.7582909" lon="12.717315"><ele>271.0</ele><time>2026-05-03T14:19:52.519Z</time></trkpt><trkpt lat="42.7580786" lon="12.717084"><ele>271.0</ele><time>2026-05-03T14:19:53.514Z</time></trkpt><trkpt lat="42.757872" lon="12.7168538"><ele>271.5</ele><time>2026-05-03T14:19:54.515Z</time></trkpt><trkpt lat="42.757666" lon="12.7166294"><ele>272.0</ele><time>2026-05-03T14:19:55.518Z</time></trkpt><trkpt lat="42.7574595" lon="12.7164111"><ele>272.0</ele><time>2026-05-03T14:19:56.517Z</time></trkpt><trkpt lat="42.7572569" lon="12.7161936"><ele>272.0</ele><time>2026-05-03T14:19:57.515Z</time></trkpt><trkpt lat="42.7570569" lon="12.715981"><ele>272.0</ele><time>2026-05-03T14:19:58.517Z</time></trkpt><trkpt lat="42.7568601" lon="12.7157665"><ele>272.0</ele><time>2026-05-03T14:19:59.519Z</time></trkpt><trkpt lat="42.7566678" lon="12.7155588"><ele>272.0</ele><time>2026-05-03T14:20:00.516Z</time></trkpt><trkpt lat="42.756475" lon="12.715354"><ele>272.0</ele><time>2026-05-03T14:20:01.516Z</time></trkpt><trkpt lat="42.7562828" lon="12.7151452"><ele>272.0</ele><time>2026-05-03T14:20:02.515Z</time></trkpt><trkpt lat="42.7560921" lon="12.7149368"><ele>272.0</ele><time>2026-05-03T14:20:03.516Z</time></trkpt><trkpt lat="42.7559049" lon="12.7147319"><ele>273.0</ele><time>2026-05-03T14:20:04.518Z</time></trkpt><trkpt lat="42.7557162" lon="12.7145313"><ele>274.0</ele><time>2026-05-03T14:20:05.513Z</time></trkpt><trkpt lat="42.7555277" lon="12.7143274"><ele>274.0</ele><time>2026-05-03T14:20:06.516Z</time></trkpt><trkpt lat="42.755339" lon="12.7141257"><ele>274.0</ele><time>2026-05-03T14:20:07.518Z</time></trkpt><trkpt lat="42.75515" lon="12.7139233"><ele>275.0</ele><time>2026-05-03T14:20:08.519Z</time></trkpt><trkpt lat="42.7549587" lon="12.7137215"><ele>276.0</ele><time>2026-05-03T14:20:09.514Z</time></trkpt><trkpt lat="42.7547713" lon="12.7135186"><ele>276.0</ele><time>2026-05-03T14:20:10.518Z</time></trkpt><trkpt lat="42.754582" lon="12.7133167"><ele>276.0</ele><time>2026-05-03T14:20:11.518Z</time></trkpt><trkpt lat="42.7543939" lon="12.7131168"><ele>276.0</ele><time>2026-05-03T14:20:12.516Z</time></trkpt><trkpt lat="42.7542043" lon="12.7129206"><ele>276.0</ele><time>2026-05-03T14:20:13.516Z</time></trkpt><trkpt lat="42.7540192" lon="12.7127209"><ele>276.0</ele><time>2026-05-03T14:20:14.512Z</time></trkpt><trkpt lat="42.7538331" lon="12.7125209"><ele>276.0</ele><time>2026-05-03T14:20:15.517Z</time></trkpt><trkpt lat="42.75365" lon="12.7123192"><ele>276.0</ele><time>2026-05-03T14:20:16.51Z</time></trkpt><trkpt lat="42.7534666" lon="12.7121218"><ele>276.0</ele><time>2026-05-03T14:20:17.512Z</time></trkpt><trkpt lat="42.7532795" lon="12.7119298"><ele>276.0</ele><time>2026-05-03T14:20:18.518Z</time></trkpt><trkpt lat="42.7530906" lon="12.7117374"><ele>276.0</ele><time>2026-05-03T14:20:19.516Z</time></trkpt><trkpt lat="42.7529009" lon="12.7115509"><ele>276.0</ele><time>2026-05-03T14:20:20.517Z</time></trkpt><trkpt lat="42.7527125" lon="12.7113713"><ele>276.0</ele><time>2026-05-03T14:20:21.515Z</time></trkpt><trkpt lat="42.7525224" lon="12.711197"><ele>275.5</ele><time>2026-05-03T14:20:22.517Z</time></trkpt><trkpt lat="42.752326" lon="12.7110236"><ele>275.0</ele><time>2026-05-03T14:20:23.518Z</time></trkpt><trkpt lat="42.7521345" lon="12.7108528"><ele>275.0</ele><time>2026-05-03T14:20:24.515Z</time></trkpt><trkpt lat="42.7519419" lon="12.7106828"><ele>275.0</ele><time>2026-05-03T14:20:25.514Z</time></trkpt><trkpt lat="42.7517508" lon="12.7105241"><ele>275.0</ele><time>2026-05-03T14:20:26.518Z</time></trkpt><trkpt lat="42.7515577" lon="12.7103674"><ele>275.0</ele><time>2026-05-03T14:20:27.508Z</time></trkpt><trkpt lat="42.7513628" lon="12.7102146"><ele>275.33333333333337</ele><time>2026-05-03T14:20:28.517Z</time></trkpt><trkpt lat="42.7511706" lon="12.7100608"><ele>275.6666666666667</ele><time>2026-05-03T14:20:29.513Z</time></trkpt><trkpt lat="42.7509794" lon="12.7099076"><ele>276.0</ele><time>2026-05-03T14:20:30.513Z</time></trkpt><trkpt lat="42.7507843" lon="12.7097533"><ele>276.0</ele><time>2026-05-03T14:20:31.518Z</time></trkpt><trkpt lat="42.750583" lon="12.7096027"><ele>276.0</ele><time>2026-05-03T14:20:32.518Z</time></trkpt><trkpt lat="42.7503838" lon="12.7094466"><ele>277.0</ele><time>2026-05-03T14:20:33.517Z</time></trkpt><trkpt lat="42.7501825" lon="12.7092834"><ele>278.0</ele><time>2026-05-03T14:20:34.514Z</time></trkpt><trkpt lat="42.7499753" lon="12.7091315"><ele>278.0</ele><time>2026-05-03T14:20:35.518Z</time></trkpt><trkpt lat="42.7497781" lon="12.7089793"><ele>278.0</ele><time>2026-05-03T14:20:36.517Z</time></trkpt><trkpt lat="42.7495859" lon="12.7088216"><ele>278.0</ele><time>2026-05-03T14:20:37.52Z</time></trkpt><trkpt lat="42.7494004" lon="12.7086703"><ele>278.0</ele><time>2026-05-03T14:20:38.518Z</time></trkpt><trkpt lat="42.7492233" lon="12.7085275"><ele>278.0</ele><time>2026-05-03T14:20:39.514Z</time></trkpt><trkpt lat="42.7490509" lon="12.7083888"><ele>278.33333333333337</ele><time>2026-05-03T14:20:40.517Z</time></trkpt><trkpt lat="42.7488816" lon="12.7082528"><ele>278.6666666666667</ele><time>2026-05-03T14:20:41.521Z</time></trkpt><trkpt lat="42.7487132" lon="12.7081141"><ele>279.0</ele><time>2026-05-03T14:20:42.513Z</time></trkpt><trkpt lat="42.7485477" lon="12.7079753"><ele>279.3333333333333</ele><time>2026-05-03T14:20:43.516Z</time></trkpt><trkpt lat="42.74839" lon="12.7078455"><ele>279.66666666666663</ele><time>2026-05-03T14:20:44.517Z</time></trkpt><trkpt lat="42.7482504" lon="12.7077246"><ele>280.0</ele><time>2026-05-03T14:20:45.515Z</time></trkpt><trkpt lat="42.7481156" lon="12.7076178"><ele>280.0</ele><time>2026-05-03T14:20:46.518Z</time></trkpt><trkpt lat="42.7480036" lon="12.7074956"><ele>280.0</ele><time>2026-05-03T14:20:47.516Z</time></trkpt><trkpt lat="42.7479259" lon="12.7073538"><ele>280.0</ele><time>2026-05-03T14:20:48.517Z</time></trkpt><trkpt lat="42.747881" lon="12.7071876"><ele>280.0</ele><time>2026-05-03T14:20:49.519Z</time></trkpt><trkpt lat="42.7478784" lon="12.7070142"><ele>280.0</ele><time>2026-05-03T14:20:50.515Z</time></trkpt><trkpt lat="42.7479121" lon="12.7068452"><ele>280.0</ele><time>2026-05-03T14:20:51.516Z</time></trkpt><trkpt lat="42.7479549" lon="12.7066644"><ele>280.0</ele><time>2026-05-03T14:20:52.515Z</time></trkpt><trkpt lat="42.7479716" lon="12.706464"><ele>280.0</ele><time>2026-05-03T14:20:53.517Z</time></trkpt><trkpt lat="42.7479495" lon="12.7062763"><ele>280.0</ele><time>2026-05-03T14:20:54.516Z</time></trkpt><trkpt lat="42.7478913" lon="12.7060939"><ele>280.0</ele><time>2026-05-03T14:20:55.514Z</time></trkpt><trkpt lat="42.7478022" lon="12.705942"><ele>280.0</ele><time>2026-05-03T14:20:56.518Z</time></trkpt><trkpt lat="42.7476759" lon="12.7058361"><ele>280.0</ele><time>2026-05-03T14:20:57.517Z</time></trkpt><trkpt lat="42.7475314" lon="12.705788"><ele>280.75</ele><time>2026-05-03T14:20:58.518Z</time></trkpt><trkpt lat="42.7473958" lon="12.7057983"><ele>281.5</ele><time>2026-05-03T14:20:59.514Z</time></trkpt><trkpt lat="42.747269" lon="12.7058573"><ele>282.25</ele><time>2026-05-03T14:21:00.517Z</time></trkpt><trkpt lat="42.7471279" lon="12.7059287"><ele>283.0</ele><time>2026-05-03T14:21:01.511Z</time></trkpt><trkpt lat="42.7470634" lon="12.706162"><ele>283.0</ele><time>2026-05-03T14:21:02.516Z</time></trkpt><trkpt lat="42.7469642" lon="12.7063612"><ele>283.0</ele><time>2026-05-03T14:21:03.509Z</time></trkpt><trkpt lat="42.7468734" lon="12.7065739"><ele>283.0</ele><time>2026-05-03T14:21:04.516Z</time></trkpt><trkpt lat="42.7467801" lon="12.7067818"><ele>282.3333333333333</ele><time>2026-05-03T14:21:05.519Z</time></trkpt><trkpt lat="42.7466921" lon="12.7069829"><ele>281.6666666666667</ele><time>2026-05-03T14:21:06.519Z</time></trkpt><trkpt lat="42.7466165" lon="12.7071907"><ele>281.0</ele><time>2026-05-03T14:21:07.505Z</time></trkpt><trkpt lat="42.746548" lon="12.7073987"><ele>281.0</ele><time>2026-05-03T14:21:08.518Z</time></trkpt><trkpt lat="42.746487" lon="12.7076132"><ele>281.0</ele><time>2026-05-03T14:21:09.516Z</time></trkpt><trkpt lat="42.7464304" lon="12.7078354"><ele>281.0</ele><time>2026-05-03T14:21:10.517Z</time></trkpt><trkpt lat="42.7463764" lon="12.7080577"><ele>281.0</ele><time>2026-05-03T14:21:11.513Z</time></trkpt><trkpt lat="42.7463266" lon="12.7082839"><ele>281.0</ele><time>2026-05-03T14:21:12.516Z</time></trkpt><trkpt lat="42.7462719" lon="12.7085065"><ele>281.0</ele><time>2026-05-03T14:21:13.516Z</time></trkpt><trkpt lat="42.7462201" lon="12.7087338"><ele>281.0</ele><time>2026-05-03T14:21:14.517Z</time></trkpt><trkpt lat="42.7461749" lon="12.7089614"><ele>281.0</ele><time>2026-05-03T14:21:15.516Z</time></trkpt><trkpt lat="42.7461362" lon="12.7091886"><ele>281.0</ele><time>2026-05-03T14:21:16.514Z</time></trkpt><trkpt lat="42.7460997" lon="12.709402"><ele>280.6666666666667</ele><time>2026-05-03T14:21:17.52Z</time></trkpt><trkpt lat="42.7460776" lon="12.7096112"><ele>280.3333333333333</ele><time>2026-05-03T14:21:18.515Z</time></trkpt><trkpt lat="42.7460782" lon="12.7098084"><ele>280.0</ele><time>2026-05-03T14:21:19.651Z</time></trkpt><trkpt lat="42.7461827" lon="12.7101928"><ele>280.75</ele><time>2026-05-03T14:21:21.519Z</time></trkpt><trkpt lat="42.7462522" lon="12.7103663"><ele>281.5</ele><time>2026-05-03T14:21:22.515Z</time></trkpt><trkpt lat="42.7463661" lon="12.71051"><ele>282.25</ele><time>2026-05-03T14:21:23.512Z</time></trkpt><trkpt lat="42.7464633" lon="12.7106449"><ele>283.0</ele><time>2026-05-03T14:21:24.519Z</time></trkpt><trkpt lat="42.7465612" lon="12.7107734"><ele>283.0</ele><time>2026-05-03T14:21:25.51Z</time></trkpt><trkpt lat="42.7466557" lon="12.7108941"><ele>283.0</ele><time>2026-05-03T14:21:26.52Z</time></trkpt><trkpt lat="42.7467484" lon="12.7110122"><ele>283.0</ele><time>2026-05-03T14:21:27.517Z</time></trkpt><trkpt lat="42.7468385" lon="12.7111266"><ele>283.0</ele><time>2026-05-03T14:21:28.516Z</time></trkpt><trkpt lat="42.7469233" lon="12.7112291"><ele>282.4</ele><time>2026-05-03T14:21:29.519Z</time></trkpt><trkpt lat="42.7470044" lon="12.711332"><ele>281.8</ele><time>2026-05-03T14:21:30.517Z</time></trkpt><trkpt lat="42.7470736" lon="12.7114207"><ele>281.2</ele><time>2026-05-03T14:21:31.514Z</time></trkpt><trkpt lat="42.7471345" lon="12.7114971"><ele>280.6</ele><time>2026-05-03T14:21:32.517Z</time></trkpt><trkpt lat="42.7471768" lon="12.7115695"><ele>280.0</ele><time>2026-05-03T14:21:33.516Z</time></trkpt><trkpt lat="42.7472314" lon="12.7116797"><ele>280.0</ele><time>2026-05-03T14:21:35.511Z</time></trkpt><trkpt lat="42.7472717" lon="12.7118165"><ele>280.0</ele><time>2026-05-03T14:21:37.515Z</time></trkpt><trkpt lat="42.7472456" lon="12.7119026"><ele>280.0</ele><time>2026-05-03T14:21:39.513Z</time></trkpt><trkpt lat="42.7471795" lon="12.7119847"><ele>280.0</ele><time>2026-05-03T14:22:17.515Z</time></trkpt><trkpt lat="42.7472387" lon="12.7120325"><ele>280.0</ele><time>2026-05-03T14:22:20.508Z</time></trkpt><trkpt lat="42.7473539" lon="12.7119264"><ele>280.0</ele><time>2026-05-03T14:22:22.515Z</time></trkpt><trkpt lat="42.7474023" lon="12.7117886"><ele>280.0</ele><time>2026-05-03T14:22:24.521Z</time></trkpt><trkpt lat="42.7473145" lon="12.7116398"><ele>280.0</ele><time>2026-05-03T14:22:26.513Z</time></trkpt><trkpt lat="42.7472442" lon="12.7115679"><ele>280.0</ele><time>2026-05-03T14:22:27.523Z</time></trkpt><trkpt lat="42.7471338" lon="12.7114095"><ele>280.0</ele><time>2026-05-03T14:22:28.518Z</time></trkpt><trkpt lat="42.747014" lon="12.7112737"><ele>280.0</ele><time>2026-05-03T14:22:29.52Z</time></trkpt><trkpt lat="42.7468801" lon="12.7111076"><ele>280.0</ele><time>2026-05-03T14:22:30.515Z</time></trkpt><trkpt lat="42.7467315" lon="12.7109184"><ele>281.0</ele><time>2026-05-03T14:22:31.519Z</time></trkpt><trkpt lat="42.7465894" lon="12.7107448"><ele>282.0</ele><time>2026-05-03T14:22:32.516Z</time></trkpt><trkpt lat="42.7464573" lon="12.7105806"><ele>283.0</ele><time>2026-05-03T14:22:33.516Z</time></trkpt><trkpt lat="42.7463363" lon="12.7104248"><ele>283.0</ele><time>2026-05-03T14:22:34.514Z</time></trkpt><trkpt lat="42.7462326" lon="12.7102687"><ele>283.0</ele><time>2026-05-03T14:22:35.517Z</time></trkpt><trkpt lat="42.7461628" lon="12.7101007"><ele>283.0</ele><time>2026-05-03T14:22:36.517Z</time></trkpt><trkpt lat="42.7461028" lon="12.7099261"><ele>283.0</ele><time>2026-05-03T14:22:37.518Z</time></trkpt><trkpt lat="42.7460705" lon="12.7097409"><ele>282.5</ele><time>2026-05-03T14:22:38.514Z</time></trkpt><trkpt lat="42.7461019" lon="12.7095945"><ele>282.0</ele><time>2026-05-03T14:22:39.518Z</time></trkpt><trkpt lat="42.7460864" lon="12.7094128"><ele>281.5</ele><time>2026-05-03T14:22:40.517Z</time></trkpt><trkpt lat="42.7461056" lon="12.7092716"><ele>281.0</ele><time>2026-05-03T14:22:41.518Z</time></trkpt><trkpt lat="42.7461652" lon="12.7091597"><ele>281.0</ele><time>2026-05-03T14:22:42.518Z</time></trkpt><trkpt lat="42.7461867" lon="12.7090495"><ele>281.0</ele><time>2026-05-03T14:22:43.521Z</time></trkpt><trkpt lat="42.7462014" lon="12.7089612"><ele>281.0</ele><time>2026-05-03T14:22:44.512Z</time></trkpt><trkpt lat="42.7462034" lon="12.7088258"><ele>281.0</ele><time>2026-05-03T14:22:46.516Z</time></trkpt><trkpt lat="42.7461704" lon="12.7087331"><ele>281.0</ele><time>2026-05-03T14:22:49.518Z</time></trkpt><trkpt lat="42.7461071" lon="12.7087139"><ele>281.0</ele><time>2026-05-03T14:22:52.52Z</time></trkpt><trkpt lat="42.7460811" lon="12.7087958"><ele>281.0</ele><time>2026-05-03T14:22:59.52Z</time></trkpt><trkpt lat="42.7461425" lon="12.7088451"><ele>281.0</ele><time>2026-05-03T14:23:02.518Z</time></trkpt><trkpt lat="42.7461924" lon="12.7089145"><ele>281.0</ele><time>2026-05-03T14:23:11.517Z</time></trkpt><trkpt lat="42.7461798" lon="12.7090081"><ele>281.0</ele><time>2026-05-03T14:23:13.519Z</time></trkpt><trkpt lat="42.7461715" lon="12.7092055"><ele>281.0</ele><time>2026-05-03T14:23:14.529Z</time></trkpt><trkpt lat="42.7461109" lon="12.7095325"><ele>280.6666666666667</ele><time>2026-05-03T14:23:15.519Z</time></trkpt><trkpt lat="42.7460777" lon="12.7097478"><ele>280.3333333333333</ele><time>2026-05-03T14:23:16.516Z</time></trkpt><trkpt lat="42.7461406" lon="12.709956"><ele>280.0</ele><time>2026-05-03T14:23:17.519Z</time></trkpt><trkpt lat="42.746199" lon="12.7101448"><ele>280.75</ele><time>2026-05-03T14:23:18.51Z</time></trkpt><trkpt lat="42.746283" lon="12.7103268"><ele>281.5</ele><time>2026-05-03T14:23:19.517Z</time></trkpt><trkpt lat="42.7463755" lon="12.7104738"><ele>282.25</ele><time>2026-05-03T14:23:20.517Z</time></trkpt><trkpt lat="42.7464747" lon="12.7106043"><ele>283.0</ele><time>2026-05-03T14:23:21.519Z</time></trkpt><trkpt lat="42.7465682" lon="12.7107337"><ele>283.0</ele><time>2026-05-03T14:23:22.515Z</time></trkpt><trkpt lat="42.7466608" lon="12.7108549"><ele>283.0</ele><time>2026-05-03T14:23:23.521Z</time></trkpt><trkpt lat="42.7467477" lon="12.710977"><ele>283.0</ele><time>2026-05-03T14:23:24.519Z</time></trkpt><trkpt lat="42.7468301" lon="12.7110898"><ele>283.0</ele><time>2026-05-03T14:23:25.517Z</time></trkpt><trkpt lat="42.746911" lon="12.7111906"><ele>282.5</ele><time>2026-05-03T14:23:26.52Z</time></trkpt><trkpt lat="42.7469854" lon="12.7112832"><ele>282.0</ele><time>2026-05-03T14:23:27.523Z</time></trkpt><trkpt lat="42.7470575" lon="12.7113714"><ele>281.5</ele><time>2026-05-03T14:23:28.518Z</time></trkpt><trkpt lat="42.7471219" lon="12.7114525"><ele>281.0</ele><time>2026-05-03T14:23:29.519Z</time></trkpt><trkpt lat="42.7471735" lon="12.7115236"><ele>280.5</ele><time>2026-05-03T14:23:30.52Z</time></trkpt><trkpt lat="42.7472138" lon="12.7116022"><ele>280.0</ele><time>2026-05-03T14:23:31.517Z</time></trkpt><trkpt lat="42.7472309" lon="12.711689"><ele>280.0</ele><time>2026-05-03T14:23:32.518Z</time></trkpt><trkpt lat="42.7472223" lon="12.7117937"><ele>280.0</ele><time>2026-05-03T14:23:33.521Z</time></trkpt><trkpt lat="42.7471727" lon="12.7119009"><ele>280.0</ele><time>2026-05-03T14:23:34.509Z</time></trkpt><trkpt lat="42.7471032" lon="12.7120087"><ele>280.0</ele><time>2026-05-03T14:23:35.52Z</time></trkpt><trkpt lat="42.7470277" lon="12.7121224"><ele>280.0</ele><time>2026-05-03T14:23:36.519Z</time></trkpt><trkpt lat="42.7469568" lon="12.7122379"><ele>281.0</ele><time>2026-05-03T14:23:37.517Z</time></trkpt><trkpt lat="42.7469002" lon="12.7123289"><ele>281.0</ele><time>2026-05-03T14:23:38.521Z</time></trkpt><trkpt lat="42.7468461" lon="12.712434"><ele>280.0</ele><time>2026-05-03T14:23:39.522Z</time></trkpt><trkpt lat="42.7467938" lon="12.7125114"><ele>280.0</ele><time>2026-05-03T14:23:41.521Z</time></trkpt></trkseg></trk></gpx>